﻿<?xml version="1.0" encoding="UTF-8"?>
<gpx version="v1.1.5" creator="iTravel Tech Inc. - http://www.itravel-tech.com" xmlns:xsi="http://www.w3.org/2001/XMLSchema-instance" xmlns="http://www.topografix.com/GPX/1/1" xsi:schemaLocation="http://www.topografix.com/GPX/1/1 http://www.topografix.com/GPX/1/1/gpx.xsd http://www.topografix.com/GPX/gpx_overlay/0/3 http://www.topografix.com/GPX/gpx_overlay/0/3/gpx_overlay.xsd http://www.topografix.com/GPX/gpx_modified/0/1 http://www.topografix.com/GPX/gpx_modified/0/1/gpx_modified.xsd">
<trk>
<name>Holux2011/04/28_04:59</name>
<trkseg>
<trkpt lat="22.235939" lon="104.475876">
<ele>71.614319</ele>
<time>2011-04-28T01:59:24Z</time>
<desc>lat.=22.235939, lon.=104.475876, Alt.=71.614319m. Speed=0.396000m/h.</desc>
<speed>0.110000</speed>
</trkpt>
<trkpt lat="22.235989" lon="104.476051">
<ele>80.188538</ele>
<time>2011-04-28T01:59:29Z</time>
<desc>lat.=22.235989, lon.=104.476051, Alt.=80.188538m. Speed=0.108000m/h.</desc>
<speed>0.030000</speed>
</trkpt>
<trkpt lat="22.235987" lon="104.476120">
<ele>80.290100</ele>
<time>2011-04-28T01:59:34Z</time>
<desc>lat.=22.235987, lon.=104.476120, Alt.=80.290100m. Speed=0.108000m/h.</desc>
<speed>0.030000</speed>
</trkpt>
<trkpt lat="22.235994" lon="104.476273">
<ele>80.764709</ele>
<time>2011-04-28T01:59:39Z</time>
<desc>lat.=22.235994, lon.=104.476273, Alt.=80.764709m. Speed=0.144000m/h.</desc>
<speed>0.040000</speed>
</trkpt>
<trkpt lat="22.235991" lon="104.476288">
<ele>80.151428</ele>
<time>2011-04-28T01:59:44Z</time>
<desc>lat.=22.235991, lon.=104.476288, Alt.=80.151428m. Speed=0.504000m/h.</desc>
<speed>0.140000</speed>
</trkpt>
<trkpt lat="22.236023" lon="104.476204">
<ele>82.547913</ele>
<time>2011-04-28T01:59:49Z</time>
<desc>lat.=22.236023, lon.=104.476204, Alt.=82.547913m. Speed=0.036000m/h.</desc>
<speed>0.010000</speed>
</trkpt>
<trkpt lat="22.236029" lon="104.476158">
<ele>82.469788</ele>
<time>2011-04-28T01:59:54Z</time>
<desc>lat.=22.236029, lon.=104.476158, Alt.=82.469788m. Speed=0.072000m/h.</desc>
<speed>0.020000</speed>
</trkpt>
<trkpt lat="22.236031" lon="104.476143">
<ele>82.120178</ele>
<time>2011-04-28T01:59:59Z</time>
<desc>lat.=22.236031, lon.=104.476143, Alt.=82.120178m. Speed=0.036000m/h.</desc>
<speed>0.010000</speed>
</trkpt>
<trkpt lat="22.236031" lon="104.476143">
<ele>82.061584</ele>
<time>2011-04-28T02:00:04Z</time>
<desc>lat.=22.236031, lon.=104.476143, Alt.=82.061584m. Speed=0.324000m/h.</desc>
<speed>0.090000</speed>
</trkpt>
<trkpt lat="22.236012" lon="104.476105">
<ele>80.135803</ele>
<time>2011-04-28T02:00:09Z</time>
<desc>lat.=22.236012, lon.=104.476105, Alt.=80.135803m. Speed=1.440000m/h.</desc>
<speed>0.400000</speed>
</trkpt>
<trkpt lat="22.235964" lon="104.476044">
<ele>78.139709</ele>
<time>2011-04-28T02:00:14Z</time>
<desc>lat.=22.235964, lon.=104.476044, Alt.=78.139709m. Speed=3.852000m/h.</desc>
<speed>1.070000</speed>
</trkpt>
<trkpt lat="22.235891" lon="104.475975">
<ele>76.719788</ele>
<time>2011-04-28T02:00:19Z</time>
<desc>lat.=22.235891, lon.=104.475975, Alt.=76.719788m. Speed=6.876000m/h.</desc>
<speed>1.910000</speed>
</trkpt>
<trkpt lat="22.235786" lon="104.475853">
<ele>75.434631</ele>
<time>2011-04-28T02:00:24Z</time>
<desc>lat.=22.235786, lon.=104.475853, Alt.=75.434631m. Speed=10.224000m/h.</desc>
<speed>2.840000</speed>
</trkpt>
<trkpt lat="22.235703" lon="104.475739">
<ele>74.538147</ele>
<time>2011-04-28T02:00:29Z</time>
<desc>lat.=22.235703, lon.=104.475739, Alt.=74.538147m. Speed=2.988000m/h.</desc>
<speed>0.830000</speed>
</trkpt>
<trkpt lat="22.235659" lon="104.475700">
<ele>75.514709</ele>
<time>2011-04-28T02:00:34Z</time>
<desc>lat.=22.235659, lon.=104.475700, Alt.=75.514709m. Speed=2.808000m/h.</desc>
<speed>0.780000</speed>
</trkpt>
<trkpt lat="22.235552" lon="104.475731">
<ele>75.620178</ele>
<time>2011-04-28T02:00:39Z</time>
<desc>lat.=22.235552, lon.=104.475731, Alt.=75.620178m. Speed=10.980000m/h.</desc>
<speed>3.050000</speed>
</trkpt>
<trkpt lat="22.235483" lon="104.475830">
<ele>76.040100</ele>
<time>2011-04-28T02:00:44Z</time>
<desc>lat.=22.235483, lon.=104.475830, Alt.=76.040100m. Speed=5.904000m/h.</desc>
<speed>1.640000</speed>
</trkpt>
<trkpt lat="22.235409" lon="104.475960">
<ele>76.895569</ele>
<time>2011-04-28T02:00:49Z</time>
<desc>lat.=22.235409, lon.=104.475960, Alt.=76.895569m. Speed=10.044000m/h.</desc>
<speed>2.790000</speed>
</trkpt>
<trkpt lat="22.235332" lon="104.476067">
<ele>78.071350</ele>
<time>2011-04-28T02:00:54Z</time>
<desc>lat.=22.235332, lon.=104.476067, Alt.=78.071350m. Speed=11.088000m/h.</desc>
<speed>3.080000</speed>
</trkpt>
<trkpt lat="22.235275" lon="104.476181">
<ele>79.377991</ele>
<time>2011-04-28T02:00:59Z</time>
<desc>lat.=22.235275, lon.=104.476181, Alt.=79.377991m. Speed=5.724000m/h.</desc>
<speed>1.590000</speed>
</trkpt>
<trkpt lat="22.235229" lon="104.476280">
<ele>80.733459</ele>
<time>2011-04-28T02:01:04Z</time>
<desc>lat.=22.235229, lon.=104.476280, Alt.=80.733459m. Speed=5.436000m/h.</desc>
<speed>1.510000</speed>
</trkpt>
<trkpt lat="22.235186" lon="104.476357">
<ele>81.823303</ele>
<time>2011-04-28T02:01:09Z</time>
<desc>lat.=22.235186, lon.=104.476357, Alt.=81.823303m. Speed=3.600000m/h.</desc>
<speed>1.000000</speed>
</trkpt>
<trkpt lat="22.235151" lon="104.476425">
<ele>83.040100</ele>
<time>2011-04-28T02:01:14Z</time>
<desc>lat.=22.235151, lon.=104.476425, Alt.=83.040100m. Speed=3.744000m/h.</desc>
<speed>1.040000</speed>
</trkpt>
<trkpt lat="22.235107" lon="104.476486">
<ele>84.288147</ele>
<time>2011-04-28T02:01:19Z</time>
<desc>lat.=22.235107, lon.=104.476486, Alt.=84.288147m. Speed=3.348000m/h.</desc>
<speed>0.930000</speed>
</trkpt>
<trkpt lat="22.235104" lon="104.476532">
<ele>84.950256</ele>
<time>2011-04-28T02:01:24Z</time>
<desc>lat.=22.235104, lon.=104.476532, Alt.=84.950256m. Speed=1.872000m/h.</desc>
<speed>0.520000</speed>
</trkpt>
<trkpt lat="22.235075" lon="104.476578">
<ele>85.241272</ele>
<time>2011-04-28T02:01:29Z</time>
<desc>lat.=22.235075, lon.=104.476578, Alt.=85.241272m. Speed=2.052000m/h.</desc>
<speed>0.570000</speed>
</trkpt>
<trkpt lat="22.235050" lon="104.476616">
<ele>85.377991</ele>
<time>2011-04-28T02:01:34Z</time>
<desc>lat.=22.235050, lon.=104.476616, Alt.=85.377991m. Speed=0.612000m/h.</desc>
<speed>0.170000</speed>
</trkpt>
<trkpt lat="22.235033" lon="104.476646">
<ele>85.184631</ele>
<time>2011-04-28T02:01:39Z</time>
<desc>lat.=22.235033, lon.=104.476646, Alt.=85.184631m. Speed=1.548000m/h.</desc>
<speed>0.430000</speed>
</trkpt>
<trkpt lat="22.235008" lon="104.476654">
<ele>85.001038</ele>
<time>2011-04-28T02:01:44Z</time>
<desc>lat.=22.235008, lon.=104.476654, Alt.=85.001038m. Speed=2.052000m/h.</desc>
<speed>0.570000</speed>
</trkpt>
<trkpt lat="22.235001" lon="104.476669">
<ele>84.940491</ele>
<time>2011-04-28T02:01:49Z</time>
<desc>lat.=22.235001, lon.=104.476669, Alt.=84.940491m. Speed=1.116000m/h.</desc>
<speed>0.310000</speed>
</trkpt>
<trkpt lat="22.234995" lon="104.476700">
<ele>84.885803</ele>
<time>2011-04-28T02:01:54Z</time>
<desc>lat.=22.234995, lon.=104.476700, Alt.=84.885803m. Speed=2.124000m/h.</desc>
<speed>0.590000</speed>
</trkpt>
<trkpt lat="22.235004" lon="104.476761">
<ele>84.786194</ele>
<time>2011-04-28T02:01:59Z</time>
<desc>lat.=22.235004, lon.=104.476761, Alt.=84.786194m. Speed=2.628000m/h.</desc>
<speed>0.730000</speed>
</trkpt>
<trkpt lat="22.235035" lon="104.476791">
<ele>85.211975</ele>
<time>2011-04-28T02:02:04Z</time>
<desc>lat.=22.235035, lon.=104.476791, Alt.=85.211975m. Speed=0.648000m/h.</desc>
<speed>0.180000</speed>
</trkpt>
<trkpt lat="22.235043" lon="104.476784">
<ele>85.723694</ele>
<time>2011-04-28T02:02:09Z</time>
<desc>lat.=22.235043, lon.=104.476784, Alt.=85.723694m. Speed=0.504000m/h.</desc>
<speed>0.140000</speed>
</trkpt>
<trkpt lat="22.235041" lon="104.476784">
<ele>85.727600</ele>
<time>2011-04-28T02:02:14Z</time>
<desc>lat.=22.235041, lon.=104.476784, Alt.=85.727600m. Speed=0.360000m/h.</desc>
<speed>0.100000</speed>
</trkpt>
<trkpt lat="22.235044" lon="104.476784">
<ele>85.739319</ele>
<time>2011-04-28T02:02:19Z</time>
<desc>lat.=22.235044, lon.=104.476784, Alt.=85.739319m. Speed=0.360000m/h.</desc>
<speed>0.100000</speed>
</trkpt>
<trkpt lat="22.235050" lon="104.476784">
<ele>85.799866</ele>
<time>2011-04-28T02:02:24Z</time>
<desc>lat.=22.235050, lon.=104.476784, Alt.=85.799866m. Speed=0.108000m/h.</desc>
<speed>0.030000</speed>
</trkpt>
<trkpt lat="22.235050" lon="104.476776">
<ele>85.893616</ele>
<time>2011-04-28T02:02:29Z</time>
<desc>lat.=22.235050, lon.=104.476776, Alt.=85.893616m. Speed=0.252000m/h.</desc>
<speed>0.070000</speed>
</trkpt>
<trkpt lat="22.235048" lon="104.476776">
<ele>85.940491</ele>
<time>2011-04-28T02:02:34Z</time>
<desc>lat.=22.235048, lon.=104.476776, Alt.=85.940491m. Speed=0.288000m/h.</desc>
<speed>0.080000</speed>
</trkpt>
<trkpt lat="22.235052" lon="104.476776">
<ele>86.014709</ele>
<time>2011-04-28T02:02:39Z</time>
<desc>lat.=22.235052, lon.=104.476776, Alt.=86.014709m. Speed=0.468000m/h.</desc>
<speed>0.130000</speed>
</trkpt>
<trkpt lat="22.235050" lon="104.476776">
<ele>86.032288</ele>
<time>2011-04-28T02:02:44Z</time>
<desc>lat.=22.235050, lon.=104.476776, Alt.=86.032288m. Speed=0.252000m/h.</desc>
<speed>0.070000</speed>
</trkpt>
<trkpt lat="22.235050" lon="104.476776">
<ele>86.065491</ele>
<time>2011-04-28T02:02:49Z</time>
<desc>lat.=22.235050, lon.=104.476776, Alt.=86.065491m. Speed=0.324000m/h.</desc>
<speed>0.090000</speed>
</trkpt>
<trkpt lat="22.235050" lon="104.476791">
<ele>86.538147</ele>
<time>2011-04-28T02:02:54Z</time>
<desc>lat.=22.235050, lon.=104.476791, Alt.=86.538147m. Speed=0.828000m/h.</desc>
<speed>0.230000</speed>
</trkpt>
<trkpt lat="22.235048" lon="104.476799">
<ele>86.725647</ele>
<time>2011-04-28T02:02:59Z</time>
<desc>lat.=22.235048, lon.=104.476799, Alt.=86.725647m. Speed=1.008000m/h.</desc>
<speed>0.280000</speed>
</trkpt>
<trkpt lat="22.235048" lon="104.476822">
<ele>87.170959</ele>
<time>2011-04-28T02:03:04Z</time>
<desc>lat.=22.235048, lon.=104.476822, Alt.=87.170959m. Speed=1.548000m/h.</desc>
<speed>0.430000</speed>
</trkpt>
<trkpt lat="22.235044" lon="104.476837">
<ele>87.598694</ele>
<time>2011-04-28T02:03:09Z</time>
<desc>lat.=22.235044, lon.=104.476837, Alt.=87.598694m. Speed=1.188000m/h.</desc>
<speed>0.330000</speed>
</trkpt>
<trkpt lat="22.235046" lon="104.476845">
<ele>87.723694</ele>
<time>2011-04-28T02:03:14Z</time>
<desc>lat.=22.235046, lon.=104.476845, Alt.=87.723694m. Speed=0.360000m/h.</desc>
<speed>0.100000</speed>
</trkpt>
<trkpt lat="22.235048" lon="104.476845">
<ele>87.694397</ele>
<time>2011-04-28T02:03:19Z</time>
<desc>lat.=22.235048, lon.=104.476845, Alt.=87.694397m. Speed=0.324000m/h.</desc>
<speed>0.090000</speed>
</trkpt>
<trkpt lat="22.235046" lon="104.476837">
<ele>87.674866</ele>
<time>2011-04-28T02:03:24Z</time>
<desc>lat.=22.235046, lon.=104.476837, Alt.=87.674866m. Speed=0.504000m/h.</desc>
<speed>0.140000</speed>
</trkpt>
<trkpt lat="22.235052" lon="104.476845">
<ele>87.669006</ele>
<time>2011-04-28T02:03:29Z</time>
<desc>lat.=22.235052, lon.=104.476845, Alt.=87.669006m. Speed=0.684000m/h.</desc>
<speed>0.190000</speed>
</trkpt>
<trkpt lat="22.235069" lon="104.476852">
<ele>88.001038</ele>
<time>2011-04-28T02:03:34Z</time>
<desc>lat.=22.235069, lon.=104.476852, Alt.=88.001038m. Speed=0.576000m/h.</desc>
<speed>0.160000</speed>
</trkpt>
<trkpt lat="22.235075" lon="104.476852">
<ele>87.999084</ele>
<time>2011-04-28T02:03:39Z</time>
<desc>lat.=22.235075, lon.=104.476852, Alt.=87.999084m. Speed=0.036000m/h.</desc>
<speed>0.010000</speed>
</trkpt>
<trkpt lat="22.235077" lon="104.476852">
<ele>87.973694</ele>
<time>2011-04-28T02:03:44Z</time>
<desc>lat.=22.235077, lon.=104.476852, Alt.=87.973694m. Speed=0.360000m/h.</desc>
<speed>0.100000</speed>
</trkpt>
<trkpt lat="22.235083" lon="104.476852">
<ele>87.999084</ele>
<time>2011-04-28T02:03:49Z</time>
<desc>lat.=22.235083, lon.=104.476852, Alt.=87.999084m. Speed=0.072000m/h.</desc>
<speed>0.020000</speed>
</trkpt>
<trkpt lat="22.235081" lon="104.476852">
<ele>88.047913</ele>
<time>2011-04-28T02:03:54Z</time>
<desc>lat.=22.235081, lon.=104.476852, Alt.=88.047913m. Speed=0.144000m/h.</desc>
<speed>0.040000</speed>
</trkpt>
<trkpt lat="22.235081" lon="104.476852">
<ele>88.077209</ele>
<time>2011-04-28T02:03:59Z</time>
<desc>lat.=22.235081, lon.=104.476852, Alt.=88.077209m. Speed=1.080000m/h.</desc>
<speed>0.300000</speed>
</trkpt>
<trkpt lat="22.235052" lon="104.476913">
<ele>88.604553</ele>
<time>2011-04-28T02:04:04Z</time>
<desc>lat.=22.235052, lon.=104.476913, Alt.=88.604553m. Speed=2.880000m/h.</desc>
<speed>0.800000</speed>
</trkpt>
<trkpt lat="22.234947" lon="104.476952">
<ele>88.135803</ele>
<time>2011-04-28T02:04:09Z</time>
<desc>lat.=22.234947, lon.=104.476952, Alt.=88.135803m. Speed=5.040000m/h.</desc>
<speed>1.400000</speed>
</trkpt>
<trkpt lat="22.234875" lon="104.476959">
<ele>88.735413</ele>
<time>2011-04-28T02:04:14Z</time>
<desc>lat.=22.234875, lon.=104.476959, Alt.=88.735413m. Speed=3.060000m/h.</desc>
<speed>0.850000</speed>
</trkpt>
<trkpt lat="22.234838" lon="104.476997">
<ele>88.419006</ele>
<time>2011-04-28T02:04:19Z</time>
<desc>lat.=22.234838, lon.=104.476997, Alt.=88.419006m. Speed=0.756000m/h.</desc>
<speed>0.210000</speed>
</trkpt>
<trkpt lat="22.234785" lon="104.476959">
<ele>87.844788</ele>
<time>2011-04-28T02:04:24Z</time>
<desc>lat.=22.234785, lon.=104.476959, Alt.=87.844788m. Speed=2.772000m/h.</desc>
<speed>0.770000</speed>
</trkpt>
<trkpt lat="22.234730" lon="104.476952">
<ele>86.774475</ele>
<time>2011-04-28T02:04:29Z</time>
<desc>lat.=22.234730, lon.=104.476952, Alt.=86.774475m. Speed=3.312000m/h.</desc>
<speed>0.920000</speed>
</trkpt>
<trkpt lat="22.234684" lon="104.476967">
<ele>86.081116</ele>
<time>2011-04-28T02:04:34Z</time>
<desc>lat.=22.234684, lon.=104.476967, Alt.=86.081116m. Speed=1.548000m/h.</desc>
<speed>0.430000</speed>
</trkpt>
<trkpt lat="22.234673" lon="104.476974">
<ele>85.401428</ele>
<time>2011-04-28T02:04:39Z</time>
<desc>lat.=22.234673, lon.=104.476974, Alt.=85.401428m. Speed=0.648000m/h.</desc>
<speed>0.180000</speed>
</trkpt>
<trkpt lat="22.234671" lon="104.476990">
<ele>85.372131</ele>
<time>2011-04-28T02:04:44Z</time>
<desc>lat.=22.234671, lon.=104.476990, Alt.=85.372131m. Speed=0.612000m/h.</desc>
<speed>0.170000</speed>
</trkpt>
<trkpt lat="22.234669" lon="104.476997">
<ele>85.264709</ele>
<time>2011-04-28T02:04:49Z</time>
<desc>lat.=22.234669, lon.=104.476997, Alt.=85.264709m. Speed=0.252000m/h.</desc>
<speed>0.070000</speed>
</trkpt>
<trkpt lat="22.234667" lon="104.476990">
<ele>85.206116</ele>
<time>2011-04-28T02:04:54Z</time>
<desc>lat.=22.234667, lon.=104.476990, Alt.=85.206116m. Speed=0.324000m/h.</desc>
<speed>0.090000</speed>
</trkpt>
<trkpt lat="22.234697" lon="104.476952">
<ele>84.463928</ele>
<time>2011-04-28T02:04:59Z</time>
<desc>lat.=22.234697, lon.=104.476952, Alt.=84.463928m. Speed=4.248000m/h.</desc>
<speed>1.180000</speed>
</trkpt>
<trkpt lat="22.234699" lon="104.476936">
<ele>84.565491</ele>
<time>2011-04-28T02:05:04Z</time>
<desc>lat.=22.234699, lon.=104.476936, Alt.=84.565491m. Speed=0.828000m/h.</desc>
<speed>0.230000</speed>
</trkpt>
<trkpt lat="22.234682" lon="104.476967">
<ele>84.645569</ele>
<time>2011-04-28T02:05:09Z</time>
<desc>lat.=22.234682, lon.=104.476967, Alt.=84.645569m. Speed=0.972000m/h.</desc>
<speed>0.270000</speed>
</trkpt>
<trkpt lat="22.234684" lon="104.476974">
<ele>84.481506</ele>
<time>2011-04-28T02:05:14Z</time>
<desc>lat.=22.234684, lon.=104.476974, Alt.=84.481506m. Speed=0.468000m/h.</desc>
<speed>0.130000</speed>
</trkpt>
<trkpt lat="22.234671" lon="104.476990">
<ele>84.254944</ele>
<time>2011-04-28T02:05:19Z</time>
<desc>lat.=22.234671, lon.=104.476990, Alt.=84.254944m. Speed=1.872000m/h.</desc>
<speed>0.520000</speed>
</trkpt>
<trkpt lat="22.234640" lon="104.476997">
<ele>83.602600</ele>
<time>2011-04-28T02:05:24Z</time>
<desc>lat.=22.234640, lon.=104.476997, Alt.=83.602600m. Speed=0.468000m/h.</desc>
<speed>0.130000</speed>
</trkpt>
<trkpt lat="22.234629" lon="104.476997">
<ele>82.960022</ele>
<time>2011-04-28T02:05:29Z</time>
<desc>lat.=22.234629, lon.=104.476997, Alt.=82.960022m. Speed=0.468000m/h.</desc>
<speed>0.130000</speed>
</trkpt>
<trkpt lat="22.234644" lon="104.476997">
<ele>82.223694</ele>
<time>2011-04-28T02:05:34Z</time>
<desc>lat.=22.234644, lon.=104.476997, Alt.=82.223694m. Speed=1.296000m/h.</desc>
<speed>0.360000</speed>
</trkpt>
<trkpt lat="22.234652" lon="104.477005">
<ele>81.870178</ele>
<time>2011-04-28T02:05:39Z</time>
<desc>lat.=22.234652, lon.=104.477005, Alt.=81.870178m. Speed=2.196000m/h.</desc>
<speed>0.610000</speed>
</trkpt>
<trkpt lat="22.234632" lon="104.476967">
<ele>81.649475</ele>
<time>2011-04-28T02:05:44Z</time>
<desc>lat.=22.234632, lon.=104.476967, Alt.=81.649475m. Speed=1.404000m/h.</desc>
<speed>0.390000</speed>
</trkpt>
<trkpt lat="22.234617" lon="104.476944">
<ele>81.411194</ele>
<time>2011-04-28T02:05:49Z</time>
<desc>lat.=22.234617, lon.=104.476944, Alt.=81.411194m. Speed=1.260000m/h.</desc>
<speed>0.350000</speed>
</trkpt>
<trkpt lat="22.234636" lon="104.476959">
<ele>80.833069</ele>
<time>2011-04-28T02:05:54Z</time>
<desc>lat.=22.234636, lon.=104.476959, Alt.=80.833069m. Speed=1.764000m/h.</desc>
<speed>0.490000</speed>
</trkpt>
<trkpt lat="22.234625" lon="104.476990">
<ele>79.319397</ele>
<time>2011-04-28T02:05:59Z</time>
<desc>lat.=22.234625, lon.=104.476990, Alt.=79.319397m. Speed=0.900000m/h.</desc>
<speed>0.250000</speed>
</trkpt>
<trkpt lat="22.234638" lon="104.477043">
<ele>77.692444</ele>
<time>2011-04-28T02:06:04Z</time>
<desc>lat.=22.234638, lon.=104.477043, Alt.=77.692444m. Speed=2.052000m/h.</desc>
<speed>0.570000</speed>
</trkpt>
<trkpt lat="22.234653" lon="104.477081">
<ele>77.178772</ele>
<time>2011-04-28T02:06:09Z</time>
<desc>lat.=22.234653, lon.=104.477081, Alt.=77.178772m. Speed=0.576000m/h.</desc>
<speed>0.160000</speed>
</trkpt>
<trkpt lat="22.234663" lon="104.477119">
<ele>77.311584</ele>
<time>2011-04-28T02:06:14Z</time>
<desc>lat.=22.234663, lon.=104.477119, Alt.=77.311584m. Speed=1.836000m/h.</desc>
<speed>0.510000</speed>
</trkpt>
<trkpt lat="22.234657" lon="104.477135">
<ele>77.413147</ele>
<time>2011-04-28T02:06:19Z</time>
<desc>lat.=22.234657, lon.=104.477135, Alt.=77.413147m. Speed=2.268000m/h.</desc>
<speed>0.630000</speed>
</trkpt>
<trkpt lat="22.234655" lon="104.477135">
<ele>77.659241</ele>
<time>2011-04-28T02:06:24Z</time>
<desc>lat.=22.234655, lon.=104.477135, Alt.=77.659241m. Speed=1.296000m/h.</desc>
<speed>0.360000</speed>
</trkpt>
<trkpt lat="22.234638" lon="104.477135">
<ele>77.969788</ele>
<time>2011-04-28T02:06:29Z</time>
<desc>lat.=22.234638, lon.=104.477135, Alt.=77.969788m. Speed=0.396000m/h.</desc>
<speed>0.110000</speed>
</trkpt>
<trkpt lat="22.234629" lon="104.477119">
<ele>77.903381</ele>
<time>2011-04-28T02:06:34Z</time>
<desc>lat.=22.234629, lon.=104.477119, Alt.=77.903381m. Speed=0.756000m/h.</desc>
<speed>0.210000</speed>
</trkpt>
<trkpt lat="22.234629" lon="104.477112">
<ele>77.895569</ele>
<time>2011-04-28T02:06:39Z</time>
<desc>lat.=22.234629, lon.=104.477112, Alt.=77.895569m. Speed=0.252000m/h.</desc>
<speed>0.070000</speed>
</trkpt>
<trkpt lat="22.234631" lon="104.477112">
<ele>77.842834</ele>
<time>2011-04-28T02:06:44Z</time>
<desc>lat.=22.234631, lon.=104.477112, Alt.=77.842834m. Speed=0.360000m/h.</desc>
<speed>0.100000</speed>
</trkpt>
<trkpt lat="22.234627" lon="104.477112">
<ele>77.831116</ele>
<time>2011-04-28T02:06:49Z</time>
<desc>lat.=22.234627, lon.=104.477112, Alt.=77.831116m. Speed=0.504000m/h.</desc>
<speed>0.140000</speed>
</trkpt>
<trkpt lat="22.234619" lon="104.477081">
<ele>77.276428</ele>
<time>2011-04-28T02:06:54Z</time>
<desc>lat.=22.234619, lon.=104.477081, Alt.=77.276428m. Speed=0.504000m/h.</desc>
<speed>0.140000</speed>
</trkpt>
<trkpt lat="22.234615" lon="104.477074">
<ele>77.270569</ele>
<time>2011-04-28T02:06:59Z</time>
<desc>lat.=22.234615, lon.=104.477074, Alt.=77.270569m. Speed=0.324000m/h.</desc>
<speed>0.090000</speed>
</trkpt>
<trkpt lat="22.234612" lon="104.477074">
<ele>77.288147</ele>
<time>2011-04-28T02:07:04Z</time>
<desc>lat.=22.234612, lon.=104.477074, Alt.=77.288147m. Speed=0.360000m/h.</desc>
<speed>0.100000</speed>
</trkpt>
<trkpt lat="22.234606" lon="104.477074">
<ele>77.268616</ele>
<time>2011-04-28T02:07:09Z</time>
<desc>lat.=22.234606, lon.=104.477074, Alt.=77.268616m. Speed=0.756000m/h.</desc>
<speed>0.210000</speed>
</trkpt>
<trkpt lat="22.234600" lon="104.477066">
<ele>77.252991</ele>
<time>2011-04-28T02:07:14Z</time>
<desc>lat.=22.234600, lon.=104.477066, Alt.=77.252991m. Speed=0.864000m/h.</desc>
<speed>0.240000</speed>
</trkpt>
<trkpt lat="22.234545" lon="104.477043">
<ele>80.379944</ele>
<time>2011-04-28T02:07:19Z</time>
<desc>lat.=22.234545, lon.=104.477043, Alt.=80.379944m. Speed=0.432000m/h.</desc>
<speed>0.120000</speed>
</trkpt>
<trkpt lat="22.234528" lon="104.477020">
<ele>80.542053</ele>
<time>2011-04-28T02:07:24Z</time>
<desc>lat.=22.234528, lon.=104.477020, Alt.=80.542053m. Speed=2.484000m/h.</desc>
<speed>0.690000</speed>
</trkpt>
<trkpt lat="22.234522" lon="104.476936">
<ele>81.643616</ele>
<time>2011-04-28T02:07:29Z</time>
<desc>lat.=22.234522, lon.=104.476936, Alt.=81.643616m. Speed=4.536000m/h.</desc>
<speed>1.260000</speed>
</trkpt>
<trkpt lat="22.234489" lon="104.476891">
<ele>82.012756</ele>
<time>2011-04-28T02:07:34Z</time>
<desc>lat.=22.234489, lon.=104.476891, Alt.=82.012756m. Speed=4.608000m/h.</desc>
<speed>1.280000</speed>
</trkpt>
<trkpt lat="22.234383" lon="104.476799">
<ele>81.807678</ele>
<time>2011-04-28T02:07:39Z</time>
<desc>lat.=22.234383, lon.=104.476799, Alt.=81.807678m. Speed=10.548000m/h.</desc>
<speed>2.930000</speed>
</trkpt>
<trkpt lat="22.234230" lon="104.476723">
<ele>81.169006</ele>
<time>2011-04-28T02:07:44Z</time>
<desc>lat.=22.234230, lon.=104.476723, Alt.=81.169006m. Speed=12.060000m/h.</desc>
<speed>3.350000</speed>
</trkpt>
<trkpt lat="22.234068" lon="104.476624">
<ele>80.930725</ele>
<time>2011-04-28T02:07:49Z</time>
<desc>lat.=22.234068, lon.=104.476624, Alt.=80.930725m. Speed=9.936000m/h.</desc>
<speed>2.760000</speed>
</trkpt>
<trkpt lat="22.233948" lon="104.476540">
<ele>80.501038</ele>
<time>2011-04-28T02:07:54Z</time>
<desc>lat.=22.233948, lon.=104.476540, Alt.=80.501038m. Speed=7.092000m/h.</desc>
<speed>1.970000</speed>
</trkpt>
<trkpt lat="22.233810" lon="104.476456">
<ele>79.403381</ele>
<time>2011-04-28T02:07:59Z</time>
<desc>lat.=22.233810, lon.=104.476456, Alt.=79.403381m. Speed=10.440000m/h.</desc>
<speed>2.900000</speed>
</trkpt>
<trkpt lat="22.233654" lon="104.476402">
<ele>78.583069</ele>
<time>2011-04-28T02:08:04Z</time>
<desc>lat.=22.233654, lon.=104.476402, Alt.=78.583069m. Speed=11.340000m/h.</desc>
<speed>3.150000</speed>
</trkpt>
<trkpt lat="22.233511" lon="104.476364">
<ele>79.360413</ele>
<time>2011-04-28T02:08:09Z</time>
<desc>lat.=22.233511, lon.=104.476364, Alt.=79.360413m. Speed=9.072000m/h.</desc>
<speed>2.520000</speed>
</trkpt>
<trkpt lat="22.233376" lon="104.476303">
<ele>78.676819</ele>
<time>2011-04-28T02:08:14Z</time>
<desc>lat.=22.233376, lon.=104.476303, Alt.=78.676819m. Speed=8.820000m/h.</desc>
<speed>2.450000</speed>
</trkpt>
<trkpt lat="22.233215" lon="104.476311">
<ele>77.327209</ele>
<time>2011-04-28T02:08:19Z</time>
<desc>lat.=22.233215, lon.=104.476311, Alt.=77.327209m. Speed=10.944000m/h.</desc>
<speed>3.040000</speed>
</trkpt>
<trkpt lat="22.233053" lon="104.476303">
<ele>76.620178</ele>
<time>2011-04-28T02:08:24Z</time>
<desc>lat.=22.233053, lon.=104.476303, Alt.=76.620178m. Speed=11.988000m/h.</desc>
<speed>3.330000</speed>
</trkpt>
<trkpt lat="22.232895" lon="104.476303">
<ele>75.161194</ele>
<time>2011-04-28T02:08:29Z</time>
<desc>lat.=22.232895, lon.=104.476303, Alt.=75.161194m. Speed=11.016000m/h.</desc>
<speed>3.060000</speed>
</trkpt>
<trkpt lat="22.232693" lon="104.476311">
<ele>73.180725</ele>
<time>2011-04-28T02:08:34Z</time>
<desc>lat.=22.232693, lon.=104.476311, Alt.=73.180725m. Speed=13.716000m/h.</desc>
<speed>3.810000</speed>
</trkpt>
<trkpt lat="22.232531" lon="104.476379">
<ele>71.727600</ele>
<time>2011-04-28T02:08:39Z</time>
<desc>lat.=22.232531, lon.=104.476379, Alt.=71.727600m. Speed=11.592000m/h.</desc>
<speed>3.220000</speed>
</trkpt>
<trkpt lat="22.232422" lon="104.476448">
<ele>71.286194</ele>
<time>2011-04-28T02:08:44Z</time>
<desc>lat.=22.232422, lon.=104.476448, Alt.=71.286194m. Speed=8.172000m/h.</desc>
<speed>2.270000</speed>
</trkpt>
<trkpt lat="22.232306" lon="104.476585">
<ele>71.926819</ele>
<time>2011-04-28T02:08:49Z</time>
<desc>lat.=22.232306, lon.=104.476585, Alt.=71.926819m. Speed=15.264000m/h.</desc>
<speed>4.240000</speed>
</trkpt>
<trkpt lat="22.232164" lon="104.476753">
<ele>73.159241</ele>
<time>2011-04-28T02:08:54Z</time>
<desc>lat.=22.232164, lon.=104.476753, Alt.=73.159241m. Speed=16.416000m/h.</desc>
<speed>4.560000</speed>
</trkpt>
<trkpt lat="22.232012" lon="104.476959">
<ele>74.165100</ele>
<time>2011-04-28T02:08:59Z</time>
<desc>lat.=22.232012, lon.=104.476959, Alt.=74.165100m. Speed=14.904000m/h.</desc>
<speed>4.140000</speed>
</trkpt>
<trkpt lat="22.231836" lon="104.477226">
<ele>84.075256</ele>
<time>2011-04-28T02:09:04Z</time>
<desc>lat.=22.231836, lon.=104.477226, Alt.=84.075256m. Speed=14.364000m/h.</desc>
<speed>3.990000</speed>
</trkpt>
<trkpt lat="22.231722" lon="104.477409">
<ele>89.688538</ele>
<time>2011-04-28T02:09:09Z</time>
<desc>lat.=22.231722, lon.=104.477409, Alt.=89.688538m. Speed=15.804000m/h.</desc>
<speed>4.390000</speed>
</trkpt>
<trkpt lat="22.231571" lon="104.477585">
<ele>95.672913</ele>
<time>2011-04-28T02:09:14Z</time>
<desc>lat.=22.231571, lon.=104.477585, Alt.=95.672913m. Speed=14.940000m/h.</desc>
<speed>4.150000</speed>
</trkpt>
<trkpt lat="22.231441" lon="104.477737">
<ele>98.397522</ele>
<time>2011-04-28T02:09:19Z</time>
<desc>lat.=22.231441, lon.=104.477737, Alt.=98.397522m. Speed=14.868000m/h.</desc>
<speed>4.130000</speed>
</trkpt>
<trkpt lat="22.231266" lon="104.477890">
<ele>100.211975</ele>
<time>2011-04-28T02:09:24Z</time>
<desc>lat.=22.231266, lon.=104.477890, Alt.=100.211975m. Speed=16.559999m/h.</desc>
<speed>4.600000</speed>
</trkpt>
<trkpt lat="22.231062" lon="104.478043">
<ele>101.780334</ele>
<time>2011-04-28T02:09:29Z</time>
<desc>lat.=22.231062, lon.=104.478043, Alt.=101.780334m. Speed=14.472000m/h.</desc>
<speed>4.020000</speed>
</trkpt>
<trkpt lat="22.230822" lon="104.478249">
<ele>104.651428</ele>
<time>2011-04-28T02:09:34Z</time>
<desc>lat.=22.230822, lon.=104.478249, Alt.=104.651428m. Speed=16.704000m/h.</desc>
<speed>4.640000</speed>
</trkpt>
<trkpt lat="22.230568" lon="104.478470">
<ele>107.034241</ele>
<time>2011-04-28T02:09:39Z</time>
<desc>lat.=22.230568, lon.=104.478470, Alt.=107.034241m. Speed=21.240000m/h.</desc>
<speed>5.900000</speed>
</trkpt>
<trkpt lat="22.230337" lon="104.478661">
<ele>108.780334</ele>
<time>2011-04-28T02:09:44Z</time>
<desc>lat.=22.230337, lon.=104.478661, Alt.=108.780334m. Speed=21.636000m/h.</desc>
<speed>6.010000</speed>
</trkpt>
<trkpt lat="22.230120" lon="104.478851">
<ele>110.038147</ele>
<time>2011-04-28T02:09:49Z</time>
<desc>lat.=22.230120, lon.=104.478851, Alt.=110.038147m. Speed=21.059999m/h.</desc>
<speed>5.850000</speed>
</trkpt>
<trkpt lat="22.229843" lon="104.479004">
<ele>111.835022</ele>
<time>2011-04-28T02:09:54Z</time>
<desc>lat.=22.229843, lon.=104.479004, Alt.=111.835022m. Speed=20.195999m/h.</desc>
<speed>5.610000</speed>
</trkpt>
<trkpt lat="22.229540" lon="104.479202">
<ele>107.294006</ele>
<time>2011-04-28T02:09:59Z</time>
<desc>lat.=22.229540, lon.=104.479202, Alt.=107.294006m. Speed=18.360001m/h.</desc>
<speed>5.100000</speed>
</trkpt>
<trkpt lat="22.229338" lon="104.479340">
<ele>105.528381</ele>
<time>2011-04-28T02:10:04Z</time>
<desc>lat.=22.229338, lon.=104.479340, Alt.=105.528381m. Speed=16.596001m/h.</desc>
<speed>4.610000</speed>
</trkpt>
<trkpt lat="22.229179" lon="104.479485">
<ele>104.010803</ele>
<time>2011-04-28T02:10:09Z</time>
<desc>lat.=22.229179, lon.=104.479485, Alt.=104.010803m. Speed=13.176000m/h.</desc>
<speed>3.660000</speed>
</trkpt>
<trkpt lat="22.229053" lon="104.479683">
<ele>103.403381</ele>
<time>2011-04-28T02:10:14Z</time>
<desc>lat.=22.229053, lon.=104.479683, Alt.=103.403381m. Speed=15.228000m/h.</desc>
<speed>4.230000</speed>
</trkpt>
<trkpt lat="22.228903" lon="104.479881">
<ele>102.483459</ele>
<time>2011-04-28T02:10:19Z</time>
<desc>lat.=22.228903, lon.=104.479881, Alt.=102.483459m. Speed=12.384000m/h.</desc>
<speed>3.440000</speed>
</trkpt>
<trkpt lat="22.228785" lon="104.480034">
<ele>104.086975</ele>
<time>2011-04-28T02:10:24Z</time>
<desc>lat.=22.228785, lon.=104.480034, Alt.=104.086975m. Speed=11.160000m/h.</desc>
<speed>3.100000</speed>
</trkpt>
<trkpt lat="22.228693" lon="104.480209">
<ele>106.049866</ele>
<time>2011-04-28T02:10:29Z</time>
<desc>lat.=22.228693, lon.=104.480209, Alt.=106.049866m. Speed=11.268000m/h.</desc>
<speed>3.130000</speed>
</trkpt>
<trkpt lat="22.228552" lon="104.480438">
<ele>107.045959</ele>
<time>2011-04-28T02:10:34Z</time>
<desc>lat.=22.228552, lon.=104.480438, Alt.=107.045959m. Speed=16.704000m/h.</desc>
<speed>4.640000</speed>
</trkpt>
<trkpt lat="22.228298" lon="104.480675">
<ele>107.397522</ele>
<time>2011-04-28T02:10:39Z</time>
<desc>lat.=22.228298, lon.=104.480675, Alt.=107.397522m. Speed=20.448000m/h.</desc>
<speed>5.680000</speed>
</trkpt>
<trkpt lat="22.228010" lon="104.480980">
<ele>105.583069</ele>
<time>2011-04-28T02:10:44Z</time>
<desc>lat.=22.228010, lon.=104.480980, Alt.=105.583069m. Speed=20.232000m/h.</desc>
<speed>5.620000</speed>
</trkpt>
<trkpt lat="22.227867" lon="104.481133">
<ele>105.247131</ele>
<time>2011-04-28T02:10:49Z</time>
<desc>lat.=22.227867, lon.=104.481133, Alt.=105.247131m. Speed=14.148000m/h.</desc>
<speed>3.930000</speed>
</trkpt>
<trkpt lat="22.227699" lon="104.481270">
<ele>103.235413</ele>
<time>2011-04-28T02:10:54Z</time>
<desc>lat.=22.227699, lon.=104.481270, Alt.=103.235413m. Speed=10.008000m/h.</desc>
<speed>2.780000</speed>
</trkpt>
<trkpt lat="22.227579" lon="104.481400">
<ele>102.727600</ele>
<time>2011-04-28T02:10:59Z</time>
<desc>lat.=22.227579, lon.=104.481400, Alt.=102.727600m. Speed=9.792000m/h.</desc>
<speed>2.720000</speed>
</trkpt>
<trkpt lat="22.227451" lon="104.481590">
<ele>102.030334</ele>
<time>2011-04-28T02:11:04Z</time>
<desc>lat.=22.227451, lon.=104.481590, Alt.=102.030334m. Speed=9.864000m/h.</desc>
<speed>2.740000</speed>
</trkpt>
<trkpt lat="22.227329" lon="104.481766">
<ele>101.963928</ele>
<time>2011-04-28T02:11:09Z</time>
<desc>lat.=22.227329, lon.=104.481766, Alt.=101.963928m. Speed=9.324000m/h.</desc>
<speed>2.590000</speed>
</trkpt>
<trkpt lat="22.227230" lon="104.481926">
<ele>102.356506</ele>
<time>2011-04-28T02:11:14Z</time>
<desc>lat.=22.227230, lon.=104.481926, Alt.=102.356506m. Speed=9.684000m/h.</desc>
<speed>2.690000</speed>
</trkpt>
<trkpt lat="22.227118" lon="104.482201">
<ele>105.170959</ele>
<time>2011-04-28T02:11:19Z</time>
<desc>lat.=22.227118, lon.=104.482201, Alt.=105.170959m. Speed=13.644000m/h.</desc>
<speed>3.790000</speed>
</trkpt>
<trkpt lat="22.227055" lon="104.482422">
<ele>107.085022</ele>
<time>2011-04-28T02:11:24Z</time>
<desc>lat.=22.227055, lon.=104.482422, Alt.=107.085022m. Speed=11.448000m/h.</desc>
<speed>3.180000</speed>
</trkpt>
<trkpt lat="22.226973" lon="104.482605">
<ele>110.192444</ele>
<time>2011-04-28T02:11:29Z</time>
<desc>lat.=22.226973, lon.=104.482605, Alt.=110.192444m. Speed=5.724000m/h.</desc>
<speed>1.590000</speed>
</trkpt>
<trkpt lat="22.226942" lon="104.482826">
<ele>114.934631</ele>
<time>2011-04-28T02:11:34Z</time>
<desc>lat.=22.226942, lon.=104.482826, Alt.=114.934631m. Speed=7.128000m/h.</desc>
<speed>1.980000</speed>
</trkpt>
<trkpt lat="22.226917" lon="104.483063">
<ele>117.747131</ele>
<time>2011-04-28T02:11:39Z</time>
<desc>lat.=22.226917, lon.=104.483063, Alt.=117.747131m. Speed=10.116000m/h.</desc>
<speed>2.810000</speed>
</trkpt>
<trkpt lat="22.226833" lon="104.483200">
<ele>119.797913</ele>
<time>2011-04-28T02:11:44Z</time>
<desc>lat.=22.226833, lon.=104.483200, Alt.=119.797913m. Speed=14.004000m/h.</desc>
<speed>3.890000</speed>
</trkpt>
<trkpt lat="22.226757" lon="104.483406">
<ele>122.497131</ele>
<time>2011-04-28T02:11:49Z</time>
<desc>lat.=22.226757, lon.=104.483406, Alt.=122.497131m. Speed=13.608000m/h.</desc>
<speed>3.780000</speed>
</trkpt>
<trkpt lat="22.226625" lon="104.483551">
<ele>125.088928</ele>
<time>2011-04-28T02:11:54Z</time>
<desc>lat.=22.226625, lon.=104.483551, Alt.=125.088928m. Speed=15.444000m/h.</desc>
<speed>4.290000</speed>
</trkpt>
<trkpt lat="22.226458" lon="104.483665">
<ele>127.169006</ele>
<time>2011-04-28T02:11:59Z</time>
<desc>lat.=22.226458, lon.=104.483665, Alt.=127.169006m. Speed=12.348000m/h.</desc>
<speed>3.430000</speed>
</trkpt>
<trkpt lat="22.226303" lon="104.483795">
<ele>128.670044</ele>
<time>2011-04-28T02:12:04Z</time>
<desc>lat.=22.226303, lon.=104.483795, Alt.=128.670044m. Speed=10.800000m/h.</desc>
<speed>3.000000</speed>
</trkpt>
<trkpt lat="22.226204" lon="104.483917">
<ele>130.877075</ele>
<time>2011-04-28T02:12:09Z</time>
<desc>lat.=22.226204, lon.=104.483917, Alt.=130.877075m. Speed=8.424000m/h.</desc>
<speed>2.340000</speed>
</trkpt>
<trkpt lat="22.226095" lon="104.484070">
<ele>133.005981</ele>
<time>2011-04-28T02:12:14Z</time>
<desc>lat.=22.226095, lon.=104.484070, Alt.=133.005981m. Speed=11.340000m/h.</desc>
<speed>3.150000</speed>
</trkpt>
<trkpt lat="22.225941" lon="104.484276">
<ele>136.177856</ele>
<time>2011-04-28T02:12:19Z</time>
<desc>lat.=22.225941, lon.=104.484276, Alt.=136.177856m. Speed=17.100000m/h.</desc>
<speed>4.750000</speed>
</trkpt>
<trkpt lat="22.225763" lon="104.484520">
<ele>139.935669</ele>
<time>2011-04-28T02:12:24Z</time>
<desc>lat.=22.225763, lon.=104.484520, Alt.=139.935669m. Speed=20.520000m/h.</desc>
<speed>5.700000</speed>
</trkpt>
<trkpt lat="22.225576" lon="104.484764">
<ele>143.580200</ele>
<time>2011-04-28T02:12:29Z</time>
<desc>lat.=22.225576, lon.=104.484764, Alt.=143.580200m. Speed=21.204000m/h.</desc>
<speed>5.890000</speed>
</trkpt>
<trkpt lat="22.225359" lon="104.485001">
<ele>147.193481</ele>
<time>2011-04-28T02:12:34Z</time>
<desc>lat.=22.225359, lon.=104.485001, Alt.=147.193481m. Speed=19.115999m/h.</desc>
<speed>5.310000</speed>
</trkpt>
<trkpt lat="22.225096" lon="104.485199">
<ele>147.744263</ele>
<time>2011-04-28T02:12:39Z</time>
<desc>lat.=22.225096, lon.=104.485199, Alt.=147.744263m. Speed=25.704000m/h.</desc>
<speed>7.140000</speed>
</trkpt>
<trkpt lat="22.224709" lon="104.485352">
<ele>149.341919</ele>
<time>2011-04-28T02:12:44Z</time>
<desc>lat.=22.224709, lon.=104.485352, Alt.=149.341919m. Speed=25.704000m/h.</desc>
<speed>7.140000</speed>
</trkpt>
<trkpt lat="22.224398" lon="104.485428">
<ele>151.818481</ele>
<time>2011-04-28T02:12:49Z</time>
<desc>lat.=22.224398, lon.=104.485428, Alt.=151.818481m. Speed=21.636000m/h.</desc>
<speed>6.010000</speed>
</trkpt>
<trkpt lat="22.224178" lon="104.485489">
<ele>153.880981</ele>
<time>2011-04-28T02:12:54Z</time>
<desc>lat.=22.224178, lon.=104.485489, Alt.=153.880981m. Speed=14.292000m/h.</desc>
<speed>3.970000</speed>
</trkpt>
<trkpt lat="22.223995" lon="104.485580">
<ele>154.470825</ele>
<time>2011-04-28T02:12:59Z</time>
<desc>lat.=22.223995, lon.=104.485580, Alt.=154.470825m. Speed=16.884001m/h.</desc>
<speed>4.690000</speed>
</trkpt>
<trkpt lat="22.223661" lon="104.485580">
<ele>151.670044</ele>
<time>2011-04-28T02:13:04Z</time>
<desc>lat.=22.223661, lon.=104.485580, Alt.=151.670044m. Speed=15.228000m/h.</desc>
<speed>4.230000</speed>
</trkpt>
<trkpt lat="22.223446" lon="104.485695">
<ele>152.201294</ele>
<time>2011-04-28T02:13:09Z</time>
<desc>lat.=22.223446, lon.=104.485695, Alt.=152.201294m. Speed=17.676001m/h.</desc>
<speed>4.910000</speed>
</trkpt>
<trkpt lat="22.223253" lon="104.485855">
<ele>151.923950</ele>
<time>2011-04-28T02:13:14Z</time>
<desc>lat.=22.223253, lon.=104.485855, Alt.=151.923950m. Speed=16.128000m/h.</desc>
<speed>4.480000</speed>
</trkpt>
<trkpt lat="22.223045" lon="104.486000">
<ele>151.447388</ele>
<time>2011-04-28T02:13:19Z</time>
<desc>lat.=22.223045, lon.=104.486000, Alt.=151.447388m. Speed=19.260000m/h.</desc>
<speed>5.350000</speed>
</trkpt>
<trkpt lat="22.222799" lon="104.486176">
<ele>150.142700</ele>
<time>2011-04-28T02:13:24Z</time>
<desc>lat.=22.222799, lon.=104.486176, Alt.=150.142700m. Speed=16.236000m/h.</desc>
<speed>4.510000</speed>
</trkpt>
<trkpt lat="22.222589" lon="104.486275">
<ele>147.173950</ele>
<time>2011-04-28T02:13:29Z</time>
<desc>lat.=22.222589, lon.=104.486275, Alt.=147.173950m. Speed=16.020000m/h.</desc>
<speed>4.450000</speed>
</trkpt>
<trkpt lat="22.222370" lon="104.486305">
<ele>144.259888</ele>
<time>2011-04-28T02:13:34Z</time>
<desc>lat.=22.222370, lon.=104.486305, Alt.=144.259888m. Speed=18.612000m/h.</desc>
<speed>5.170000</speed>
</trkpt>
<trkpt lat="22.222160" lon="104.486282">
<ele>138.517700</ele>
<time>2011-04-28T02:13:39Z</time>
<desc>lat.=22.222160, lon.=104.486282, Alt.=138.517700m. Speed=15.948000m/h.</desc>
<speed>4.430000</speed>
</trkpt>
<trkpt lat="22.221983" lon="104.486290">
<ele>133.818481</ele>
<time>2011-04-28T02:13:44Z</time>
<desc>lat.=22.221983, lon.=104.486290, Alt.=133.818481m. Speed=14.292000m/h.</desc>
<speed>3.970000</speed>
</trkpt>
<trkpt lat="22.221809" lon="104.486328">
<ele>128.716919</ele>
<time>2011-04-28T02:13:49Z</time>
<desc>lat.=22.221809, lon.=104.486328, Alt.=128.716919m. Speed=13.644000m/h.</desc>
<speed>3.790000</speed>
</trkpt>
<trkpt lat="22.221628" lon="104.486397">
<ele>124.110413</ele>
<time>2011-04-28T02:13:54Z</time>
<desc>lat.=22.221628, lon.=104.486397, Alt.=124.110413m. Speed=16.416000m/h.</desc>
<speed>4.560000</speed>
</trkpt>
<trkpt lat="22.221462" lon="104.486443">
<ele>120.879944</ele>
<time>2011-04-28T02:13:59Z</time>
<desc>lat.=22.221462, lon.=104.486443, Alt.=120.879944m. Speed=11.556000m/h.</desc>
<speed>3.210000</speed>
</trkpt>
<trkpt lat="22.221342" lon="104.486465">
<ele>118.356506</ele>
<time>2011-04-28T02:14:04Z</time>
<desc>lat.=22.221342, lon.=104.486465, Alt.=118.356506m. Speed=9.108000m/h.</desc>
<speed>2.530000</speed>
</trkpt>
<trkpt lat="22.221212" lon="104.486526">
<ele>114.706116</ele>
<time>2011-04-28T02:14:09Z</time>
<desc>lat.=22.221212, lon.=104.486526, Alt.=114.706116m. Speed=10.728000m/h.</desc>
<speed>2.980000</speed>
</trkpt>
<trkpt lat="22.221024" lon="104.486641">
<ele>111.340881</ele>
<time>2011-04-28T02:14:14Z</time>
<desc>lat.=22.221024, lon.=104.486641, Alt.=111.340881m. Speed=12.132000m/h.</desc>
<speed>3.370000</speed>
</trkpt>
<trkpt lat="22.220850" lon="104.486732">
<ele>108.813538</ele>
<time>2011-04-28T02:14:19Z</time>
<desc>lat.=22.220850, lon.=104.486732, Alt.=108.813538m. Speed=12.528000m/h.</desc>
<speed>3.480000</speed>
</trkpt>
<trkpt lat="22.220676" lon="104.486908">
<ele>106.713928</ele>
<time>2011-04-28T02:14:24Z</time>
<desc>lat.=22.220676, lon.=104.486908, Alt.=106.713928m. Speed=17.639999m/h.</desc>
<speed>4.900000</speed>
</trkpt>
<trkpt lat="22.220514" lon="104.487251">
<ele>104.063538</ele>
<time>2011-04-28T02:14:29Z</time>
<desc>lat.=22.220514, lon.=104.487251, Alt.=104.063538m. Speed=16.812000m/h.</desc>
<speed>4.670000</speed>
</trkpt>
<trkpt lat="22.220461" lon="104.487511">
<ele>100.045959</ele>
<time>2011-04-28T02:14:34Z</time>
<desc>lat.=22.220461, lon.=104.487511, Alt.=100.045959m. Speed=15.552000m/h.</desc>
<speed>4.320000</speed>
</trkpt>
<trkpt lat="22.220436" lon="104.487724">
<ele>98.303772</ele>
<time>2011-04-28T02:14:39Z</time>
<desc>lat.=22.220436, lon.=104.487724, Alt.=98.303772m. Speed=12.672000m/h.</desc>
<speed>3.520000</speed>
</trkpt>
<trkpt lat="22.220430" lon="104.487885">
<ele>98.065491</ele>
<time>2011-04-28T02:14:44Z</time>
<desc>lat.=22.220430, lon.=104.487885, Alt.=98.065491m. Speed=13.248000m/h.</desc>
<speed>3.680000</speed>
</trkpt>
<trkpt lat="22.220406" lon="104.488060">
<ele>97.512756</ele>
<time>2011-04-28T02:14:49Z</time>
<desc>lat.=22.220406, lon.=104.488060, Alt.=97.512756m. Speed=11.484000m/h.</desc>
<speed>3.190000</speed>
</trkpt>
<trkpt lat="22.220345" lon="104.488205">
<ele>97.350647</ele>
<time>2011-04-28T02:14:54Z</time>
<desc>lat.=22.220345, lon.=104.488205, Alt.=97.350647m. Speed=12.204000m/h.</desc>
<speed>3.390000</speed>
</trkpt>
<trkpt lat="22.220242" lon="104.488373">
<ele>97.083069</ele>
<time>2011-04-28T02:14:59Z</time>
<desc>lat.=22.220242, lon.=104.488373, Alt.=97.083069m. Speed=15.156000m/h.</desc>
<speed>4.210000</speed>
</trkpt>
<trkpt lat="22.220158" lon="104.488571">
<ele>96.874084</ele>
<time>2011-04-28T02:15:04Z</time>
<desc>lat.=22.220158, lon.=104.488571, Alt.=96.874084m. Speed=14.076000m/h.</desc>
<speed>3.910000</speed>
</trkpt>
<trkpt lat="22.220057" lon="104.488762">
<ele>96.680725</ele>
<time>2011-04-28T02:15:09Z</time>
<desc>lat.=22.220057, lon.=104.488762, Alt.=96.680725m. Speed=12.024000m/h.</desc>
<speed>3.340000</speed>
</trkpt>
<trkpt lat="22.219936" lon="104.488960">
<ele>96.665100</ele>
<time>2011-04-28T02:15:14Z</time>
<desc>lat.=22.219936, lon.=104.488960, Alt.=96.665100m. Speed=14.076000m/h.</desc>
<speed>3.910000</speed>
</trkpt>
<trkpt lat="22.219810" lon="104.489075">
<ele>96.848694</ele>
<time>2011-04-28T02:15:19Z</time>
<desc>lat.=22.219810, lon.=104.489075, Alt.=96.848694m. Speed=9.828000m/h.</desc>
<speed>2.730000</speed>
</trkpt>
<trkpt lat="22.219666" lon="104.489174">
<ele>96.842834</ele>
<time>2011-04-28T02:15:24Z</time>
<desc>lat.=22.219666, lon.=104.489174, Alt.=96.842834m. Speed=12.312000m/h.</desc>
<speed>3.420000</speed>
</trkpt>
<trkpt lat="22.219530" lon="104.489265">
<ele>97.106506</ele>
<time>2011-04-28T02:15:29Z</time>
<desc>lat.=22.219530, lon.=104.489265, Alt.=97.106506m. Speed=6.192000m/h.</desc>
<speed>1.720000</speed>
</trkpt>
<trkpt lat="22.219414" lon="104.489342">
<ele>97.653381</ele>
<time>2011-04-28T02:15:34Z</time>
<desc>lat.=22.219414, lon.=104.489342, Alt.=97.653381m. Speed=9.360000m/h.</desc>
<speed>2.600000</speed>
</trkpt>
<trkpt lat="22.219282" lon="104.489433">
<ele>98.133850</ele>
<time>2011-04-28T02:15:39Z</time>
<desc>lat.=22.219282, lon.=104.489433, Alt.=98.133850m. Speed=10.260000m/h.</desc>
<speed>2.850000</speed>
</trkpt>
<trkpt lat="22.219114" lon="104.489517">
<ele>98.147522</ele>
<time>2011-04-28T02:15:44Z</time>
<desc>lat.=22.219114, lon.=104.489517, Alt.=98.147522m. Speed=12.492000m/h.</desc>
<speed>3.470000</speed>
</trkpt>
<trkpt lat="22.218985" lon="104.489609">
<ele>98.210022</ele>
<time>2011-04-28T02:15:49Z</time>
<desc>lat.=22.218985, lon.=104.489609, Alt.=98.210022m. Speed=7.848000m/h.</desc>
<speed>2.180000</speed>
</trkpt>
<trkpt lat="22.218887" lon="104.489754">
<ele>98.477600</ele>
<time>2011-04-28T02:15:54Z</time>
<desc>lat.=22.218887, lon.=104.489754, Alt.=98.477600m. Speed=7.848000m/h.</desc>
<speed>2.180000</speed>
</trkpt>
<trkpt lat="22.218803" lon="104.489952">
<ele>98.583069</ele>
<time>2011-04-28T02:15:59Z</time>
<desc>lat.=22.218803, lon.=104.489952, Alt.=98.583069m. Speed=13.032000m/h.</desc>
<speed>3.620000</speed>
</trkpt>
<trkpt lat="22.218733" lon="104.490143">
<ele>98.657288</ele>
<time>2011-04-28T02:16:04Z</time>
<desc>lat.=22.218733, lon.=104.490143, Alt.=98.657288m. Speed=11.916000m/h.</desc>
<speed>3.310000</speed>
</trkpt>
<trkpt lat="22.218733" lon="104.490295">
<ele>98.913147</ele>
<time>2011-04-28T02:16:09Z</time>
<desc>lat.=22.218733, lon.=104.490295, Alt.=98.913147m. Speed=6.804000m/h.</desc>
<speed>1.890000</speed>
</trkpt>
<trkpt lat="22.218781" lon="104.490494">
<ele>100.192444</ele>
<time>2011-04-28T02:16:14Z</time>
<desc>lat.=22.218781, lon.=104.490494, Alt.=100.192444m. Speed=9.756000m/h.</desc>
<speed>2.710000</speed>
</trkpt>
<trkpt lat="22.218842" lon="104.490677">
<ele>100.448303</ele>
<time>2011-04-28T02:16:19Z</time>
<desc>lat.=22.218842, lon.=104.490677, Alt.=100.448303m. Speed=13.104000m/h.</desc>
<speed>3.640000</speed>
</trkpt>
<trkpt lat="22.218912" lon="104.490837">
<ele>101.004944</ele>
<time>2011-04-28T02:16:24Z</time>
<desc>lat.=22.218912, lon.=104.490837, Alt.=101.004944m. Speed=10.692000m/h.</desc>
<speed>2.970000</speed>
</trkpt>
<trkpt lat="22.218985" lon="104.490974">
<ele>102.098694</ele>
<time>2011-04-28T02:16:29Z</time>
<desc>lat.=22.218985, lon.=104.490974, Alt.=102.098694m. Speed=6.840000m/h.</desc>
<speed>1.900000</speed>
</trkpt>
<trkpt lat="22.219065" lon="104.491104">
<ele>103.006897</ele>
<time>2011-04-28T02:16:34Z</time>
<desc>lat.=22.219065, lon.=104.491104, Alt.=103.006897m. Speed=11.808000m/h.</desc>
<speed>3.280000</speed>
</trkpt>
<trkpt lat="22.219145" lon="104.491226">
<ele>103.422913</ele>
<time>2011-04-28T02:16:39Z</time>
<desc>lat.=22.219145, lon.=104.491226, Alt.=103.422913m. Speed=8.280000m/h.</desc>
<speed>2.300000</speed>
</trkpt>
<trkpt lat="22.219225" lon="104.491333">
<ele>104.852600</ele>
<time>2011-04-28T02:16:44Z</time>
<desc>lat.=22.219225, lon.=104.491333, Alt.=104.852600m. Speed=9.504000m/h.</desc>
<speed>2.640000</speed>
</trkpt>
<trkpt lat="22.219284" lon="104.491470">
<ele>105.547913</ele>
<time>2011-04-28T02:16:49Z</time>
<desc>lat.=22.219284, lon.=104.491470, Alt.=105.547913m. Speed=9.756000m/h.</desc>
<speed>2.710000</speed>
</trkpt>
<trkpt lat="22.219326" lon="104.491608">
<ele>105.424866</ele>
<time>2011-04-28T02:16:54Z</time>
<desc>lat.=22.219326, lon.=104.491608, Alt.=105.424866m. Speed=7.956000m/h.</desc>
<speed>2.210000</speed>
</trkpt>
<trkpt lat="22.219320" lon="104.491737">
<ele>106.294006</ele>
<time>2011-04-28T02:16:59Z</time>
<desc>lat.=22.219320, lon.=104.491737, Alt.=106.294006m. Speed=7.020000m/h.</desc>
<speed>1.950000</speed>
</trkpt>
<trkpt lat="22.219326" lon="104.491859">
<ele>107.122131</ele>
<time>2011-04-28T02:17:04Z</time>
<desc>lat.=22.219326, lon.=104.491859, Alt.=107.122131m. Speed=10.152000m/h.</desc>
<speed>2.820000</speed>
</trkpt>
<trkpt lat="22.219313" lon="104.491966">
<ele>108.151428</ele>
<time>2011-04-28T02:17:09Z</time>
<desc>lat.=22.219313, lon.=104.491966, Alt.=108.151428m. Speed=4.824000m/h.</desc>
<speed>1.340000</speed>
</trkpt>
<trkpt lat="22.219296" lon="104.492050">
<ele>109.270569</ele>
<time>2011-04-28T02:17:14Z</time>
<desc>lat.=22.219296, lon.=104.492050, Alt.=109.270569m. Speed=8.208000m/h.</desc>
<speed>2.280000</speed>
</trkpt>
<trkpt lat="22.219330" lon="104.492264">
<ele>112.461975</ele>
<time>2011-04-28T02:17:19Z</time>
<desc>lat.=22.219330, lon.=104.492264, Alt.=112.461975m. Speed=10.512000m/h.</desc>
<speed>2.920000</speed>
</trkpt>
<trkpt lat="22.219362" lon="104.492401">
<ele>112.928772</ele>
<time>2011-04-28T02:17:24Z</time>
<desc>lat.=22.219362, lon.=104.492401, Alt.=112.928772m. Speed=9.756000m/h.</desc>
<speed>2.710000</speed>
</trkpt>
<trkpt lat="22.219402" lon="104.492554">
<ele>113.307678</ele>
<time>2011-04-28T02:17:29Z</time>
<desc>lat.=22.219402, lon.=104.492554, Alt.=113.307678m. Speed=10.332000m/h.</desc>
<speed>2.870000</speed>
</trkpt>
<trkpt lat="22.219427" lon="104.492691">
<ele>112.928772</ele>
<time>2011-04-28T02:17:34Z</time>
<desc>lat.=22.219427, lon.=104.492691, Alt.=112.928772m. Speed=8.100000m/h.</desc>
<speed>2.250000</speed>
</trkpt>
<trkpt lat="22.219446" lon="104.492828">
<ele>112.835022</ele>
<time>2011-04-28T02:17:39Z</time>
<desc>lat.=22.219446, lon.=104.492828, Alt.=112.835022m. Speed=11.592000m/h.</desc>
<speed>3.220000</speed>
</trkpt>
<trkpt lat="22.219448" lon="104.493004">
<ele>112.792053</ele>
<time>2011-04-28T02:17:44Z</time>
<desc>lat.=22.219448, lon.=104.493004, Alt.=112.792053m. Speed=11.124000m/h.</desc>
<speed>3.090000</speed>
</trkpt>
<trkpt lat="22.219446" lon="104.493179">
<ele>112.708069</ele>
<time>2011-04-28T02:17:49Z</time>
<desc>lat.=22.219446, lon.=104.493179, Alt.=112.708069m. Speed=10.476000m/h.</desc>
<speed>2.910000</speed>
</trkpt>
<trkpt lat="22.219458" lon="104.493332">
<ele>118.071350</ele>
<time>2011-04-28T02:17:54Z</time>
<desc>lat.=22.219458, lon.=104.493332, Alt.=118.071350m. Speed=8.676000m/h.</desc>
<speed>2.410000</speed>
</trkpt>
<trkpt lat="22.219509" lon="104.493462">
<ele>119.739319</ele>
<time>2011-04-28T02:17:59Z</time>
<desc>lat.=22.219509, lon.=104.493462, Alt.=119.739319m. Speed=10.440000m/h.</desc>
<speed>2.900000</speed>
</trkpt>
<trkpt lat="22.219545" lon="104.493622">
<ele>121.704163</ele>
<time>2011-04-28T02:18:04Z</time>
<desc>lat.=22.219545, lon.=104.493622, Alt.=121.704163m. Speed=10.116000m/h.</desc>
<speed>2.810000</speed>
</trkpt>
<trkpt lat="22.219570" lon="104.493813">
<ele>123.360413</ele>
<time>2011-04-28T02:18:09Z</time>
<desc>lat.=22.219570, lon.=104.493813, Alt.=123.360413m. Speed=12.276000m/h.</desc>
<speed>3.410000</speed>
</trkpt>
<trkpt lat="22.219574" lon="104.494034">
<ele>124.428772</ele>
<time>2011-04-28T02:18:14Z</time>
<desc>lat.=22.219574, lon.=104.494034, Alt.=124.428772m. Speed=14.544000m/h.</desc>
<speed>4.040000</speed>
</trkpt>
<trkpt lat="22.219582" lon="104.494240">
<ele>125.210022</ele>
<time>2011-04-28T02:18:19Z</time>
<desc>lat.=22.219582, lon.=104.494240, Alt.=125.210022m. Speed=10.296000m/h.</desc>
<speed>2.860000</speed>
</trkpt>
<trkpt lat="22.219597" lon="104.494400">
<ele>126.479553</ele>
<time>2011-04-28T02:18:24Z</time>
<desc>lat.=22.219597, lon.=104.494400, Alt.=126.479553m. Speed=8.244000m/h.</desc>
<speed>2.290000</speed>
</trkpt>
<trkpt lat="22.219587" lon="104.494560">
<ele>128.189575</ele>
<time>2011-04-28T02:18:29Z</time>
<desc>lat.=22.219587, lon.=104.494560, Alt.=128.189575m. Speed=8.604000m/h.</desc>
<speed>2.390000</speed>
</trkpt>
<trkpt lat="22.219551" lon="104.494713">
<ele>129.923950</ele>
<time>2011-04-28T02:18:34Z</time>
<desc>lat.=22.219551, lon.=104.494713, Alt.=129.923950m. Speed=10.080000m/h.</desc>
<speed>2.800000</speed>
</trkpt>
<trkpt lat="22.219505" lon="104.494919">
<ele>131.685669</ele>
<time>2011-04-28T02:18:39Z</time>
<desc>lat.=22.219505, lon.=104.494919, Alt.=131.685669m. Speed=12.924000m/h.</desc>
<speed>3.590000</speed>
</trkpt>
<trkpt lat="22.219444" lon="104.495132">
<ele>133.755981</ele>
<time>2011-04-28T02:18:44Z</time>
<desc>lat.=22.219444, lon.=104.495132, Alt.=133.755981m. Speed=12.780000m/h.</desc>
<speed>3.550000</speed>
</trkpt>
<trkpt lat="22.219368" lon="104.495346">
<ele>135.869263</ele>
<time>2011-04-28T02:18:49Z</time>
<desc>lat.=22.219368, lon.=104.495346, Alt.=135.869263m. Speed=13.932000m/h.</desc>
<speed>3.870000</speed>
</trkpt>
<trkpt lat="22.219261" lon="104.495529">
<ele>137.900513</ele>
<time>2011-04-28T02:18:54Z</time>
<desc>lat.=22.219261, lon.=104.495529, Alt.=137.900513m. Speed=14.076000m/h.</desc>
<speed>3.910000</speed>
</trkpt>
<trkpt lat="22.219141" lon="104.495705">
<ele>138.845825</ele>
<time>2011-04-28T02:18:59Z</time>
<desc>lat.=22.219141, lon.=104.495705, Alt.=138.845825m. Speed=13.644000m/h.</desc>
<speed>3.790000</speed>
</trkpt>
<trkpt lat="22.219049" lon="104.495872">
<ele>139.857544</ele>
<time>2011-04-28T02:19:04Z</time>
<desc>lat.=22.219049, lon.=104.495872, Alt.=139.857544m. Speed=7.560000m/h.</desc>
<speed>2.100000</speed>
</trkpt>
<trkpt lat="22.219036" lon="104.495972">
<ele>137.935669</ele>
<time>2011-04-28T02:19:09Z</time>
<desc>lat.=22.219036, lon.=104.495972, Alt.=137.935669m. Speed=5.832000m/h.</desc>
<speed>1.620000</speed>
</trkpt>
<trkpt lat="22.218966" lon="104.496140">
<ele>133.248169</ele>
<time>2011-04-28T02:19:14Z</time>
<desc>lat.=22.218966, lon.=104.496140, Alt.=133.248169m. Speed=10.944000m/h.</desc>
<speed>3.040000</speed>
</trkpt>
<trkpt lat="22.218906" lon="104.496254">
<ele>133.412231</ele>
<time>2011-04-28T02:19:19Z</time>
<desc>lat.=22.218906, lon.=104.496254, Alt.=133.412231m. Speed=9.144000m/h.</desc>
<speed>2.540000</speed>
</trkpt>
<trkpt lat="22.218830" lon="104.496391">
<ele>133.279419</ele>
<time>2011-04-28T02:19:24Z</time>
<desc>lat.=22.218830, lon.=104.496391, Alt.=133.279419m. Speed=10.944000m/h.</desc>
<speed>3.040000</speed>
</trkpt>
<trkpt lat="22.218750" lon="104.496544">
<ele>132.830200</ele>
<time>2011-04-28T02:19:29Z</time>
<desc>lat.=22.218750, lon.=104.496544, Alt.=132.830200m. Speed=12.024000m/h.</desc>
<speed>3.340000</speed>
</trkpt>
<trkpt lat="22.218651" lon="104.496758">
<ele>131.771606</ele>
<time>2011-04-28T02:19:34Z</time>
<desc>lat.=22.218651, lon.=104.496758, Alt.=131.771606m. Speed=18.035999m/h.</desc>
<speed>5.010000</speed>
</trkpt>
<trkpt lat="22.218479" lon="104.497047">
<ele>130.095825</ele>
<time>2011-04-28T02:19:39Z</time>
<desc>lat.=22.218479, lon.=104.497047, Alt.=130.095825m. Speed=24.768000m/h.</desc>
<speed>6.880000</speed>
</trkpt>
<trkpt lat="22.218306" lon="104.497269">
<ele>125.866272</ele>
<time>2011-04-28T02:19:44Z</time>
<desc>lat.=22.218306, lon.=104.497269, Alt.=125.866272m. Speed=15.876000m/h.</desc>
<speed>4.410000</speed>
</trkpt>
<trkpt lat="22.218115" lon="104.497482">
<ele>122.419006</ele>
<time>2011-04-28T02:19:49Z</time>
<desc>lat.=22.218115, lon.=104.497482, Alt.=122.419006m. Speed=23.760000m/h.</desc>
<speed>6.600000</speed>
</trkpt>
<trkpt lat="22.217823" lon="104.497734">
<ele>117.542053</ele>
<time>2011-04-28T02:19:54Z</time>
<desc>lat.=22.217823, lon.=104.497734, Alt.=117.542053m. Speed=27.431999m/h.</desc>
<speed>7.620000</speed>
</trkpt>
<trkpt lat="22.217525" lon="104.497826">
<ele>112.864319</ele>
<time>2011-04-28T02:19:59Z</time>
<desc>lat.=22.217525, lon.=104.497826, Alt.=112.864319m. Speed=18.252001m/h.</desc>
<speed>5.070000</speed>
</trkpt>
<trkpt lat="22.217339" lon="104.497879">
<ele>111.321350</ele>
<time>2011-04-28T02:20:04Z</time>
<desc>lat.=22.217339, lon.=104.497879, Alt.=111.321350m. Speed=13.248000m/h.</desc>
<speed>3.680000</speed>
</trkpt>
<trkpt lat="22.217197" lon="104.497971">
<ele>110.627991</ele>
<time>2011-04-28T02:20:09Z</time>
<desc>lat.=22.217197, lon.=104.497971, Alt.=110.627991m. Speed=11.448000m/h.</desc>
<speed>3.180000</speed>
</trkpt>
<trkpt lat="22.217094" lon="104.498093">
<ele>109.797913</ele>
<time>2011-04-28T02:20:14Z</time>
<desc>lat.=22.217094, lon.=104.498093, Alt.=109.797913m. Speed=12.312000m/h.</desc>
<speed>3.420000</speed>
</trkpt>
<trkpt lat="22.217009" lon="104.498245">
<ele>109.217834</ele>
<time>2011-04-28T02:20:19Z</time>
<desc>lat.=22.217009, lon.=104.498245, Alt.=109.217834m. Speed=13.032000m/h.</desc>
<speed>3.620000</speed>
</trkpt>
<trkpt lat="22.216892" lon="104.498383">
<ele>108.600647</ele>
<time>2011-04-28T02:20:24Z</time>
<desc>lat.=22.216892, lon.=104.498383, Alt.=108.600647m. Speed=13.356000m/h.</desc>
<speed>3.710000</speed>
</trkpt>
<trkpt lat="22.216782" lon="104.498474">
<ele>107.794006</ele>
<time>2011-04-28T02:20:29Z</time>
<desc>lat.=22.216782, lon.=104.498474, Alt.=107.794006m. Speed=8.748000m/h.</desc>
<speed>2.430000</speed>
</trkpt>
<trkpt lat="22.216707" lon="104.498535">
<ele>107.018616</ele>
<time>2011-04-28T02:20:34Z</time>
<desc>lat.=22.216707, lon.=104.498535, Alt.=107.018616m. Speed=4.896000m/h.</desc>
<speed>1.360000</speed>
</trkpt>
<trkpt lat="22.216646" lon="104.498573">
<ele>106.463928</ele>
<time>2011-04-28T02:20:39Z</time>
<desc>lat.=22.216646, lon.=104.498573, Alt.=106.463928m. Speed=1.476000m/h.</desc>
<speed>0.410000</speed>
</trkpt>
<trkpt lat="22.216637" lon="104.498581">
<ele>106.372131</ele>
<time>2011-04-28T02:20:44Z</time>
<desc>lat.=22.216637, lon.=104.498581, Alt.=106.372131m. Speed=0.252000m/h.</desc>
<speed>0.070000</speed>
</trkpt>
<trkpt lat="22.216633" lon="104.498581">
<ele>106.331116</ele>
<time>2011-04-28T02:20:49Z</time>
<desc>lat.=22.216633, lon.=104.498581, Alt.=106.331116m. Speed=0.216000m/h.</desc>
<speed>0.060000</speed>
</trkpt>
<trkpt lat="22.216631" lon="104.498581">
<ele>106.317444</ele>
<time>2011-04-28T02:20:54Z</time>
<desc>lat.=22.216631, lon.=104.498581, Alt.=106.317444m. Speed=0.108000m/h.</desc>
<speed>0.030000</speed>
</trkpt>
<trkpt lat="22.216627" lon="104.498596">
<ele>105.811584</ele>
<time>2011-04-28T02:20:59Z</time>
<desc>lat.=22.216627, lon.=104.498596, Alt.=105.811584m. Speed=0.540000m/h.</desc>
<speed>0.150000</speed>
</trkpt>
<trkpt lat="22.216621" lon="104.498596">
<ele>105.799866</ele>
<time>2011-04-28T02:21:04Z</time>
<desc>lat.=22.216621, lon.=104.498596, Alt.=105.799866m. Speed=0.072000m/h.</desc>
<speed>0.020000</speed>
</trkpt>
<trkpt lat="22.216621" lon="104.498596">
<ele>105.784241</ele>
<time>2011-04-28T02:21:09Z</time>
<desc>lat.=22.216621, lon.=104.498596, Alt.=105.784241m. Speed=0.288000m/h.</desc>
<speed>0.080000</speed>
</trkpt>
<trkpt lat="22.216572" lon="104.498650">
<ele>105.600647</ele>
<time>2011-04-28T02:21:14Z</time>
<desc>lat.=22.216572, lon.=104.498650, Alt.=105.600647m. Speed=6.912000m/h.</desc>
<speed>1.920000</speed>
</trkpt>
<trkpt lat="22.216433" lon="104.498749">
<ele>105.243225</ele>
<time>2011-04-28T02:21:19Z</time>
<desc>lat.=22.216433, lon.=104.498749, Alt.=105.243225m. Speed=10.944000m/h.</desc>
<speed>3.040000</speed>
</trkpt>
<trkpt lat="22.216259" lon="104.498825">
<ele>104.778381</ele>
<time>2011-04-28T02:21:24Z</time>
<desc>lat.=22.216259, lon.=104.498825, Alt.=104.778381m. Speed=15.264000m/h.</desc>
<speed>4.240000</speed>
</trkpt>
<trkpt lat="22.216057" lon="104.498917">
<ele>102.188538</ele>
<time>2011-04-28T02:21:29Z</time>
<desc>lat.=22.216057, lon.=104.498917, Alt.=102.188538m. Speed=18.827999m/h.</desc>
<speed>5.230000</speed>
</trkpt>
<trkpt lat="22.215832" lon="104.499054">
<ele>101.840881</ele>
<time>2011-04-28T02:21:34Z</time>
<desc>lat.=22.215832, lon.=104.499054, Alt.=101.840881m. Speed=21.924000m/h.</desc>
<speed>6.090000</speed>
</trkpt>
<trkpt lat="22.215565" lon="104.499237">
<ele>100.290100</ele>
<time>2011-04-28T02:21:39Z</time>
<desc>lat.=22.215565, lon.=104.499237, Alt.=100.290100m. Speed=26.459999m/h.</desc>
<speed>7.350000</speed>
</trkpt>
<trkpt lat="22.215267" lon="104.499390">
<ele>99.393616</ele>
<time>2011-04-28T02:21:44Z</time>
<desc>lat.=22.215267, lon.=104.499390, Alt.=99.393616m. Speed=23.076000m/h.</desc>
<speed>6.410000</speed>
</trkpt>
<trkpt lat="22.215040" lon="104.499527">
<ele>98.704163</ele>
<time>2011-04-28T02:21:49Z</time>
<desc>lat.=22.215040, lon.=104.499527, Alt.=98.704163m. Speed=18.648001m/h.</desc>
<speed>5.180000</speed>
</trkpt>
<trkpt lat="22.214851" lon="104.499672">
<ele>97.797913</ele>
<time>2011-04-28T02:21:54Z</time>
<desc>lat.=22.214851, lon.=104.499672, Alt.=97.797913m. Speed=15.984000m/h.</desc>
<speed>4.440000</speed>
</trkpt>
<trkpt lat="22.214697" lon="104.499802">
<ele>96.919006</ele>
<time>2011-04-28T02:21:59Z</time>
<desc>lat.=22.214697, lon.=104.499802, Alt.=96.919006m. Speed=14.544000m/h.</desc>
<speed>4.040000</speed>
</trkpt>
<trkpt lat="22.214581" lon="104.499939">
<ele>96.542053</ele>
<time>2011-04-28T02:22:04Z</time>
<desc>lat.=22.214581, lon.=104.499939, Alt.=96.542053m. Speed=10.944000m/h.</desc>
<speed>3.040000</speed>
</trkpt>
<trkpt lat="22.214462" lon="104.500084">
<ele>96.626038</ele>
<time>2011-04-28T02:22:09Z</time>
<desc>lat.=22.214462, lon.=104.500084, Alt.=96.626038m. Speed=13.932000m/h.</desc>
<speed>3.870000</speed>
</trkpt>
<trkpt lat="22.214342" lon="104.500267">
<ele>96.467834</ele>
<time>2011-04-28T02:22:14Z</time>
<desc>lat.=22.214342, lon.=104.500267, Alt.=96.467834m. Speed=14.364000m/h.</desc>
<speed>3.990000</speed>
</trkpt>
<trkpt lat="22.214235" lon="104.500450">
<ele>94.542053</ele>
<time>2011-04-28T02:22:19Z</time>
<desc>lat.=22.214235, lon.=104.500450, Alt.=94.542053m. Speed=14.868000m/h.</desc>
<speed>4.130000</speed>
</trkpt>
<trkpt lat="22.214092" lon="104.500633">
<ele>94.186584</ele>
<time>2011-04-28T02:22:24Z</time>
<desc>lat.=22.214092, lon.=104.500633, Alt.=94.186584m. Speed=17.351999m/h.</desc>
<speed>4.820000</speed>
</trkpt>
<trkpt lat="22.213923" lon="104.500748">
<ele>94.086975</ele>
<time>2011-04-28T02:22:29Z</time>
<desc>lat.=22.213923, lon.=104.500748, Alt.=94.086975m. Speed=15.552000m/h.</desc>
<speed>4.320000</speed>
</trkpt>
<trkpt lat="22.213720" lon="104.500847">
<ele>95.977600</ele>
<time>2011-04-28T02:22:34Z</time>
<desc>lat.=22.213720, lon.=104.500847, Alt.=95.977600m. Speed=15.012000m/h.</desc>
<speed>4.170000</speed>
</trkpt>
<trkpt lat="22.213545" lon="104.500977">
<ele>96.663147</ele>
<time>2011-04-28T02:22:39Z</time>
<desc>lat.=22.213545, lon.=104.500977, Alt.=96.663147m. Speed=17.747999m/h.</desc>
<speed>4.930000</speed>
</trkpt>
<trkpt lat="22.213369" lon="104.501198">
<ele>98.001038</ele>
<time>2011-04-28T02:22:44Z</time>
<desc>lat.=22.213369, lon.=104.501198, Alt.=98.001038m. Speed=22.212000m/h.</desc>
<speed>6.170000</speed>
</trkpt>
<trkpt lat="22.213135" lon="104.501373">
<ele>96.930725</ele>
<time>2011-04-28T02:22:49Z</time>
<desc>lat.=22.213135, lon.=104.501373, Alt.=96.930725m. Speed=20.124001m/h.</desc>
<speed>5.590000</speed>
</trkpt>
<trkpt lat="22.212883" lon="104.501549">
<ele>95.532288</ele>
<time>2011-04-28T02:22:54Z</time>
<desc>lat.=22.212883, lon.=104.501549, Alt.=95.532288m. Speed=22.247999m/h.</desc>
<speed>6.180000</speed>
</trkpt>
<trkpt lat="22.212654" lon="104.501717">
<ele>94.721741</ele>
<time>2011-04-28T02:22:59Z</time>
<desc>lat.=22.212654, lon.=104.501717, Alt.=94.721741m. Speed=20.556000m/h.</desc>
<speed>5.710000</speed>
</trkpt>
<trkpt lat="22.212397" lon="104.501884">
<ele>92.567444</ele>
<time>2011-04-28T02:23:04Z</time>
<desc>lat.=22.212397, lon.=104.501884, Alt.=92.567444m. Speed=21.420000m/h.</desc>
<speed>5.950000</speed>
</trkpt>
<trkpt lat="22.212219" lon="104.502129">
<ele>91.493225</ele>
<time>2011-04-28T02:23:09Z</time>
<desc>lat.=22.212219, lon.=104.502129, Alt.=91.493225m. Speed=20.016001m/h.</desc>
<speed>5.560000</speed>
</trkpt>
<trkpt lat="22.212063" lon="104.502365">
<ele>91.131897</ele>
<time>2011-04-28T02:23:14Z</time>
<desc>lat.=22.212063, lon.=104.502365, Alt.=91.131897m. Speed=17.892000m/h.</desc>
<speed>4.970000</speed>
</trkpt>
<trkpt lat="22.211918" lon="104.502594">
<ele>90.321350</ele>
<time>2011-04-28T02:23:19Z</time>
<desc>lat.=22.211918, lon.=104.502594, Alt.=90.321350m. Speed=17.856001m/h.</desc>
<speed>4.960000</speed>
</trkpt>
<trkpt lat="22.211765" lon="104.502754">
<ele>90.544006</ele>
<time>2011-04-28T02:23:24Z</time>
<desc>lat.=22.211765, lon.=104.502754, Alt.=90.544006m. Speed=17.784000m/h.</desc>
<speed>4.940000</speed>
</trkpt>
<trkpt lat="22.211588" lon="104.502876">
<ele>90.997131</ele>
<time>2011-04-28T02:23:29Z</time>
<desc>lat.=22.211588, lon.=104.502876, Alt.=90.997131m. Speed=13.824000m/h.</desc>
<speed>3.840000</speed>
</trkpt>
<trkpt lat="22.211403" lon="104.503036">
<ele>94.635803</ele>
<time>2011-04-28T02:23:34Z</time>
<desc>lat.=22.211403, lon.=104.503036, Alt.=94.635803m. Speed=14.760000m/h.</desc>
<speed>4.100000</speed>
</trkpt>
<trkpt lat="22.211210" lon="104.503128">
<ele>95.282288</ele>
<time>2011-04-28T02:23:39Z</time>
<desc>lat.=22.211210, lon.=104.503128, Alt.=95.282288m. Speed=13.680000m/h.</desc>
<speed>3.800000</speed>
</trkpt>
<trkpt lat="22.211008" lon="104.503242">
<ele>96.245178</ele>
<time>2011-04-28T02:23:44Z</time>
<desc>lat.=22.211008, lon.=104.503242, Alt.=96.245178m. Speed=14.940000m/h.</desc>
<speed>4.150000</speed>
</trkpt>
<trkpt lat="22.210865" lon="104.503426">
<ele>98.483459</ele>
<time>2011-04-28T02:23:49Z</time>
<desc>lat.=22.210865, lon.=104.503426, Alt.=98.483459m. Speed=15.948000m/h.</desc>
<speed>4.430000</speed>
</trkpt>
<trkpt lat="22.210728" lon="104.503662">
<ele>99.920959</ele>
<time>2011-04-28T02:23:54Z</time>
<desc>lat.=22.210728, lon.=104.503662, Alt.=99.920959m. Speed=17.856001m/h.</desc>
<speed>4.960000</speed>
</trkpt>
<trkpt lat="22.210606" lon="104.503860">
<ele>101.973694</ele>
<time>2011-04-28T02:23:59Z</time>
<desc>lat.=22.210606, lon.=104.503860, Alt.=101.973694m. Speed=14.868000m/h.</desc>
<speed>4.130000</speed>
</trkpt>
<trkpt lat="22.210512" lon="104.504021">
<ele>104.292053</ele>
<time>2011-04-28T02:24:04Z</time>
<desc>lat.=22.210512, lon.=104.504021, Alt.=104.292053m. Speed=7.920000m/h.</desc>
<speed>2.200000</speed>
</trkpt>
<trkpt lat="22.210434" lon="104.504158">
<ele>106.379944</ele>
<time>2011-04-28T02:24:09Z</time>
<desc>lat.=22.210434, lon.=104.504158, Alt.=106.379944m. Speed=9.684000m/h.</desc>
<speed>2.690000</speed>
</trkpt>
<trkpt lat="22.210388" lon="104.504280">
<ele>109.114319</ele>
<time>2011-04-28T02:24:14Z</time>
<desc>lat.=22.210388, lon.=104.504280, Alt.=109.114319m. Speed=8.712000m/h.</desc>
<speed>2.420000</speed>
</trkpt>
<trkpt lat="22.210384" lon="104.504425">
<ele>112.333069</ele>
<time>2011-04-28T02:24:19Z</time>
<desc>lat.=22.210384, lon.=104.504425, Alt.=112.333069m. Speed=6.768000m/h.</desc>
<speed>1.880000</speed>
</trkpt>
<trkpt lat="22.210388" lon="104.504601">
<ele>115.057678</ele>
<time>2011-04-28T02:24:24Z</time>
<desc>lat.=22.210388, lon.=104.504601, Alt.=115.057678m. Speed=9.864000m/h.</desc>
<speed>2.740000</speed>
</trkpt>
<trkpt lat="22.210365" lon="104.504776">
<ele>116.836975</ele>
<time>2011-04-28T02:24:29Z</time>
<desc>lat.=22.210365, lon.=104.504776, Alt.=116.836975m. Speed=10.548000m/h.</desc>
<speed>2.930000</speed>
</trkpt>
<trkpt lat="22.210352" lon="104.504883">
<ele>118.428772</ele>
<time>2011-04-28T02:24:34Z</time>
<desc>lat.=22.210352, lon.=104.504883, Alt.=118.428772m. Speed=5.976000m/h.</desc>
<speed>1.660000</speed>
</trkpt>
<trkpt lat="22.210358" lon="104.504990">
<ele>120.313538</ele>
<time>2011-04-28T02:24:39Z</time>
<desc>lat.=22.210358, lon.=104.504990, Alt.=120.313538m. Speed=5.004000m/h.</desc>
<speed>1.390000</speed>
</trkpt>
<trkpt lat="22.210363" lon="104.505096">
<ele>122.014709</ele>
<time>2011-04-28T02:24:44Z</time>
<desc>lat.=22.210363, lon.=104.505096, Alt.=122.014709m. Speed=8.244000m/h.</desc>
<speed>2.290000</speed>
</trkpt>
<trkpt lat="22.210356" lon="104.505257">
<ele>123.805725</ele>
<time>2011-04-28T02:24:49Z</time>
<desc>lat.=22.210356, lon.=104.505257, Alt.=123.805725m. Speed=8.496000m/h.</desc>
<speed>2.360000</speed>
</trkpt>
<trkpt lat="22.210367" lon="104.505409">
<ele>124.895569</ele>
<time>2011-04-28T02:24:54Z</time>
<desc>lat.=22.210367, lon.=104.505409, Alt.=124.895569m. Speed=10.908000m/h.</desc>
<speed>3.030000</speed>
</trkpt>
<trkpt lat="22.210340" lon="104.505577">
<ele>125.833069</ele>
<time>2011-04-28T02:24:59Z</time>
<desc>lat.=22.210340, lon.=104.505577, Alt.=125.833069m. Speed=6.624000m/h.</desc>
<speed>1.840000</speed>
</trkpt>
<trkpt lat="22.210270" lon="104.505753">
<ele>126.729553</ele>
<time>2011-04-28T02:25:04Z</time>
<desc>lat.=22.210270, lon.=104.505753, Alt.=126.729553m. Speed=11.052000m/h.</desc>
<speed>3.070000</speed>
</trkpt>
<trkpt lat="22.210180" lon="104.505898">
<ele>127.215881</ele>
<time>2011-04-28T02:25:09Z</time>
<desc>lat.=22.210180, lon.=104.505898, Alt.=127.215881m. Speed=9.792000m/h.</desc>
<speed>2.720000</speed>
</trkpt>
<trkpt lat="22.210085" lon="104.506035">
<ele>127.424866</ele>
<time>2011-04-28T02:25:14Z</time>
<desc>lat.=22.210085, lon.=104.506035, Alt.=127.424866m. Speed=13.572000m/h.</desc>
<speed>3.770000</speed>
</trkpt>
<trkpt lat="22.210045" lon="104.506241">
<ele>127.737366</ele>
<time>2011-04-28T02:25:19Z</time>
<desc>lat.=22.210045, lon.=104.506241, Alt.=127.737366m. Speed=16.920000m/h.</desc>
<speed>4.700000</speed>
</trkpt>
<trkpt lat="22.210064" lon="104.506462">
<ele>126.274475</ele>
<time>2011-04-28T02:25:24Z</time>
<desc>lat.=22.210064, lon.=104.506462, Alt.=126.274475m. Speed=17.784000m/h.</desc>
<speed>4.940000</speed>
</trkpt>
<trkpt lat="22.210114" lon="104.506691">
<ele>125.788147</ele>
<time>2011-04-28T02:25:29Z</time>
<desc>lat.=22.210114, lon.=104.506691, Alt.=125.788147m. Speed=16.667999m/h.</desc>
<speed>4.630000</speed>
</trkpt>
<trkpt lat="22.210262" lon="104.506821">
<ele>123.518616</ele>
<time>2011-04-28T02:25:34Z</time>
<desc>lat.=22.210262, lon.=104.506821, Alt.=123.518616m. Speed=14.112000m/h.</desc>
<speed>3.920000</speed>
</trkpt>
<trkpt lat="22.210451" lon="104.506935">
<ele>122.563538</ele>
<time>2011-04-28T02:25:39Z</time>
<desc>lat.=22.210451, lon.=104.506935, Alt.=122.563538m. Speed=13.860000m/h.</desc>
<speed>3.850000</speed>
</trkpt>
<trkpt lat="22.210617" lon="104.507088">
<ele>122.129944</ele>
<time>2011-04-28T02:25:44Z</time>
<desc>lat.=22.210617, lon.=104.507088, Alt.=122.129944m. Speed=17.639999m/h.</desc>
<speed>4.900000</speed>
</trkpt>
<trkpt lat="22.210680" lon="104.507416">
<ele>121.036194</ele>
<time>2011-04-28T02:25:49Z</time>
<desc>lat.=22.210680, lon.=104.507416, Alt.=121.036194m. Speed=24.264000m/h.</desc>
<speed>6.740000</speed>
</trkpt>
<trkpt lat="22.210724" lon="104.507797">
<ele>120.112366</ele>
<time>2011-04-28T02:25:54Z</time>
<desc>lat.=22.210724, lon.=104.507797, Alt.=120.112366m. Speed=28.368000m/h.</desc>
<speed>7.880000</speed>
</trkpt>
<trkpt lat="22.210800" lon="104.508194">
<ele>119.075256</ele>
<time>2011-04-28T02:25:59Z</time>
<desc>lat.=22.210800, lon.=104.508194, Alt.=119.075256m. Speed=31.139999m/h.</desc>
<speed>8.650000</speed>
</trkpt>
<trkpt lat="22.210789" lon="104.508698">
<ele>117.612366</ele>
<time>2011-04-28T02:26:04Z</time>
<desc>lat.=22.210789, lon.=104.508698, Alt.=117.612366m. Speed=34.992001m/h.</desc>
<speed>9.720000</speed>
</trkpt>
<trkpt lat="22.210793" lon="104.509148">
<ele>116.338928</ele>
<time>2011-04-28T02:26:09Z</time>
<desc>lat.=22.210793, lon.=104.509148, Alt.=116.338928m. Speed=32.472000m/h.</desc>
<speed>9.020000</speed>
</trkpt>
<trkpt lat="22.210793" lon="104.509674">
<ele>110.879944</ele>
<time>2011-04-28T02:26:14Z</time>
<desc>lat.=22.210793, lon.=104.509674, Alt.=110.879944m. Speed=29.591999m/h.</desc>
<speed>8.220000</speed>
</trkpt>
<trkpt lat="22.210749" lon="104.510155">
<ele>102.233459</ele>
<time>2011-04-28T02:26:19Z</time>
<desc>lat.=22.210749, lon.=104.510155, Alt.=102.233459m. Speed=30.348000m/h.</desc>
<speed>8.430000</speed>
</trkpt>
<trkpt lat="22.210659" lon="104.510536">
<ele>100.622131</ele>
<time>2011-04-28T02:26:24Z</time>
<desc>lat.=22.210659, lon.=104.510536, Alt.=100.622131m. Speed=27.323999m/h.</desc>
<speed>7.590000</speed>
</trkpt>
<trkpt lat="22.210594" lon="104.510857">
<ele>99.452209</ele>
<time>2011-04-28T02:26:29Z</time>
<desc>lat.=22.210594, lon.=104.510857, Alt.=99.452209m. Speed=17.964001m/h.</desc>
<speed>4.990000</speed>
</trkpt>
<trkpt lat="22.210503" lon="104.511093">
<ele>98.954163</ele>
<time>2011-04-28T02:26:34Z</time>
<desc>lat.=22.210503, lon.=104.511093, Alt.=98.954163m. Speed=20.700001m/h.</desc>
<speed>5.750000</speed>
</trkpt>
<trkpt lat="22.210365" lon="104.511322">
<ele>98.555725</ele>
<time>2011-04-28T02:26:39Z</time>
<desc>lat.=22.210365, lon.=104.511322, Alt.=98.555725m. Speed=17.100000m/h.</desc>
<speed>4.750000</speed>
</trkpt>
<trkpt lat="22.210258" lon="104.511543">
<ele>98.553772</ele>
<time>2011-04-28T02:26:44Z</time>
<desc>lat.=22.210258, lon.=104.511543, Alt.=98.553772m. Speed=15.984000m/h.</desc>
<speed>4.440000</speed>
</trkpt>
<trkpt lat="22.210226" lon="104.511757">
<ele>98.485413</ele>
<time>2011-04-28T02:26:49Z</time>
<desc>lat.=22.210226, lon.=104.511757, Alt.=98.485413m. Speed=15.372000m/h.</desc>
<speed>4.270000</speed>
</trkpt>
<trkpt lat="22.210148" lon="104.511993">
<ele>99.141663</ele>
<time>2011-04-28T02:26:54Z</time>
<desc>lat.=22.210148, lon.=104.511993, Alt.=99.141663m. Speed=14.076000m/h.</desc>
<speed>3.910000</speed>
</trkpt>
<trkpt lat="22.210251" lon="104.512192">
<ele>99.627991</ele>
<time>2011-04-28T02:26:59Z</time>
<desc>lat.=22.210251, lon.=104.512192, Alt.=99.627991m. Speed=15.048000m/h.</desc>
<speed>4.180000</speed>
</trkpt>
<trkpt lat="22.210438" lon="104.512383">
<ele>100.085022</ele>
<time>2011-04-28T02:27:04Z</time>
<desc>lat.=22.210438, lon.=104.512383, Alt.=100.085022m. Speed=14.652000m/h.</desc>
<speed>4.070000</speed>
</trkpt>
<trkpt lat="22.210632" lon="104.512589">
<ele>100.692444</ele>
<time>2011-04-28T02:27:09Z</time>
<desc>lat.=22.210632, lon.=104.512589, Alt.=100.692444m. Speed=14.076000m/h.</desc>
<speed>3.910000</speed>
</trkpt>
<trkpt lat="22.210844" lon="104.512794">
<ele>101.874084</ele>
<time>2011-04-28T02:27:14Z</time>
<desc>lat.=22.210844, lon.=104.512794, Alt.=101.874084m. Speed=16.452000m/h.</desc>
<speed>4.570000</speed>
</trkpt>
<trkpt lat="22.211088" lon="104.512856">
<ele>102.600647</ele>
<time>2011-04-28T02:27:19Z</time>
<desc>lat.=22.211088, lon.=104.512856, Alt.=102.600647m. Speed=16.992001m/h.</desc>
<speed>4.720000</speed>
</trkpt>
<trkpt lat="22.211338" lon="104.512825">
<ele>102.942444</ele>
<time>2011-04-28T02:27:24Z</time>
<desc>lat.=22.211338, lon.=104.512825, Alt.=102.942444m. Speed=18.972000m/h.</desc>
<speed>5.270000</speed>
</trkpt>
<trkpt lat="22.211582" lon="104.512749">
<ele>103.241272</ele>
<time>2011-04-28T02:27:29Z</time>
<desc>lat.=22.211582, lon.=104.512749, Alt.=103.241272m. Speed=17.459999m/h.</desc>
<speed>4.850000</speed>
</trkpt>
<trkpt lat="22.211815" lon="104.512619">
<ele>103.342834</ele>
<time>2011-04-28T02:27:34Z</time>
<desc>lat.=22.211815, lon.=104.512619, Alt.=103.342834m. Speed=20.375999m/h.</desc>
<speed>5.660000</speed>
</trkpt>
<trkpt lat="22.212082" lon="104.512459">
<ele>103.794006</ele>
<time>2011-04-28T02:27:39Z</time>
<desc>lat.=22.212082, lon.=104.512459, Alt.=103.794006m. Speed=25.452000m/h.</desc>
<speed>7.070000</speed>
</trkpt>
<trkpt lat="22.212347" lon="104.512291">
<ele>104.436584</ele>
<time>2011-04-28T02:27:44Z</time>
<desc>lat.=22.212347, lon.=104.512291, Alt.=104.436584m. Speed=18.864000m/h.</desc>
<speed>5.240000</speed>
</trkpt>
<trkpt lat="22.212524" lon="104.512238">
<ele>105.231506</ele>
<time>2011-04-28T02:27:49Z</time>
<desc>lat.=22.212524, lon.=104.512238, Alt.=105.231506m. Speed=9.792000m/h.</desc>
<speed>2.720000</speed>
</trkpt>
<trkpt lat="22.212652" lon="104.512314">
<ele>104.956116</ele>
<time>2011-04-28T02:27:54Z</time>
<desc>lat.=22.212652, lon.=104.512314, Alt.=104.956116m. Speed=8.352000m/h.</desc>
<speed>2.320000</speed>
</trkpt>
<trkpt lat="22.212761" lon="104.512436">
<ele>103.731506</ele>
<time>2011-04-28T02:27:59Z</time>
<desc>lat.=22.212761, lon.=104.512436, Alt.=103.731506m. Speed=8.784000m/h.</desc>
<speed>2.440000</speed>
</trkpt>
<trkpt lat="22.212793" lon="104.512520">
<ele>103.227600</ele>
<time>2011-04-28T02:28:04Z</time>
<desc>lat.=22.212793, lon.=104.512520, Alt.=103.227600m. Speed=7.992000m/h.</desc>
<speed>2.220000</speed>
</trkpt>
<trkpt lat="22.212814" lon="104.512627">
<ele>103.532288</ele>
<time>2011-04-28T02:28:09Z</time>
<desc>lat.=22.212814, lon.=104.512627, Alt.=103.532288m. Speed=6.336000m/h.</desc>
<speed>1.760000</speed>
</trkpt>
<trkpt lat="22.212843" lon="104.512764">
<ele>102.770569</ele>
<time>2011-04-28T02:28:14Z</time>
<desc>lat.=22.212843, lon.=104.512764, Alt.=102.770569m. Speed=7.272000m/h.</desc>
<speed>2.020000</speed>
</trkpt>
<trkpt lat="22.212854" lon="104.512886">
<ele>102.790100</ele>
<time>2011-04-28T02:28:19Z</time>
<desc>lat.=22.212854, lon.=104.512886, Alt.=102.790100m. Speed=5.868000m/h.</desc>
<speed>1.630000</speed>
</trkpt>
<trkpt lat="22.212818" lon="104.512962">
<ele>103.417053</ele>
<time>2011-04-28T02:28:24Z</time>
<desc>lat.=22.212818, lon.=104.512962, Alt.=103.417053m. Speed=6.120000m/h.</desc>
<speed>1.700000</speed>
</trkpt>
<trkpt lat="22.212809" lon="104.513077">
<ele>103.317444</ele>
<time>2011-04-28T02:28:29Z</time>
<desc>lat.=22.212809, lon.=104.513077, Alt.=103.317444m. Speed=6.300000m/h.</desc>
<speed>1.750000</speed>
</trkpt>
<trkpt lat="22.212795" lon="104.513191">
<ele>103.010803</ele>
<time>2011-04-28T02:28:34Z</time>
<desc>lat.=22.212795, lon.=104.513191, Alt.=103.010803m. Speed=6.012000m/h.</desc>
<speed>1.670000</speed>
</trkpt>
<trkpt lat="22.212755" lon="104.513298">
<ele>102.864319</ele>
<time>2011-04-28T02:28:39Z</time>
<desc>lat.=22.212755, lon.=104.513298, Alt.=102.864319m. Speed=6.264000m/h.</desc>
<speed>1.740000</speed>
</trkpt>
<trkpt lat="22.212765" lon="104.513390">
<ele>102.905334</ele>
<time>2011-04-28T02:28:44Z</time>
<desc>lat.=22.212765, lon.=104.513390, Alt.=102.905334m. Speed=5.184000m/h.</desc>
<speed>1.440000</speed>
</trkpt>
<trkpt lat="22.212749" lon="104.513466">
<ele>102.784241</ele>
<time>2011-04-28T02:28:49Z</time>
<desc>lat.=22.212749, lon.=104.513466, Alt.=102.784241m. Speed=5.256000m/h.</desc>
<speed>1.460000</speed>
</trkpt>
<trkpt lat="22.212784" lon="104.513603">
<ele>102.797913</ele>
<time>2011-04-28T02:28:54Z</time>
<desc>lat.=22.212784, lon.=104.513603, Alt.=102.797913m. Speed=6.228000m/h.</desc>
<speed>1.730000</speed>
</trkpt>
<trkpt lat="22.212826" lon="104.513748">
<ele>102.590881</ele>
<time>2011-04-28T02:28:59Z</time>
<desc>lat.=22.212826, lon.=104.513748, Alt.=102.590881m. Speed=6.912000m/h.</desc>
<speed>1.920000</speed>
</trkpt>
<trkpt lat="22.212835" lon="104.513863">
<ele>102.979553</ele>
<time>2011-04-28T02:29:04Z</time>
<desc>lat.=22.212835, lon.=104.513863, Alt.=102.979553m. Speed=4.680000m/h.</desc>
<speed>1.300000</speed>
</trkpt>
<trkpt lat="22.212862" lon="104.513992">
<ele>103.524475</ele>
<time>2011-04-28T02:29:09Z</time>
<desc>lat.=22.212862, lon.=104.513992, Alt.=103.524475m. Speed=6.300000m/h.</desc>
<speed>1.750000</speed>
</trkpt>
<trkpt lat="22.212900" lon="104.514084">
<ele>103.397522</ele>
<time>2011-04-28T02:29:14Z</time>
<desc>lat.=22.212900, lon.=104.514084, Alt.=103.397522m. Speed=2.916000m/h.</desc>
<speed>0.810000</speed>
</trkpt>
<trkpt lat="22.212879" lon="104.514130">
<ele>104.141663</ele>
<time>2011-04-28T02:29:19Z</time>
<desc>lat.=22.212879, lon.=104.514130, Alt.=104.141663m. Speed=4.248000m/h.</desc>
<speed>1.180000</speed>
</trkpt>
<trkpt lat="22.212839" lon="104.514214">
<ele>104.618225</ele>
<time>2011-04-28T02:29:24Z</time>
<desc>lat.=22.212839, lon.=104.514214, Alt.=104.618225m. Speed=3.600000m/h.</desc>
<speed>1.000000</speed>
</trkpt>
<trkpt lat="22.212854" lon="104.514282">
<ele>105.581116</ele>
<time>2011-04-28T02:29:29Z</time>
<desc>lat.=22.212854, lon.=104.514282, Alt.=105.581116m. Speed=2.268000m/h.</desc>
<speed>0.630000</speed>
</trkpt>
<trkpt lat="22.212831" lon="104.514290">
<ele>105.909241</ele>
<time>2011-04-28T02:29:34Z</time>
<desc>lat.=22.212831, lon.=104.514290, Alt.=105.909241m. Speed=0.468000m/h.</desc>
<speed>0.130000</speed>
</trkpt>
<trkpt lat="22.212830" lon="104.514290">
<ele>105.989319</ele>
<time>2011-04-28T02:29:39Z</time>
<desc>lat.=22.212830, lon.=104.514290, Alt.=105.989319m. Speed=0.288000m/h.</desc>
<speed>0.080000</speed>
</trkpt>
<trkpt lat="22.212837" lon="104.514290">
<ele>106.016663</ele>
<time>2011-04-28T02:29:44Z</time>
<desc>lat.=22.212837, lon.=104.514290, Alt.=106.016663m. Speed=0.756000m/h.</desc>
<speed>0.210000</speed>
</trkpt>
<trkpt lat="22.212841" lon="104.514336">
<ele>105.993225</ele>
<time>2011-04-28T02:29:49Z</time>
<desc>lat.=22.212841, lon.=104.514336, Alt.=105.993225m. Speed=2.988000m/h.</desc>
<speed>0.830000</speed>
</trkpt>
<trkpt lat="22.212824" lon="104.514450">
<ele>105.419006</ele>
<time>2011-04-28T02:29:54Z</time>
<desc>lat.=22.212824, lon.=104.514450, Alt.=105.419006m. Speed=7.668000m/h.</desc>
<speed>2.130000</speed>
</trkpt>
<trkpt lat="22.212866" lon="104.514633">
<ele>103.926819</ele>
<time>2011-04-28T02:29:59Z</time>
<desc>lat.=22.212866, lon.=104.514633, Alt.=103.926819m. Speed=8.568000m/h.</desc>
<speed>2.380000</speed>
</trkpt>
<trkpt lat="22.212872" lon="104.514793">
<ele>103.147522</ele>
<time>2011-04-28T02:30:04Z</time>
<desc>lat.=22.212872, lon.=104.514793, Alt.=103.147522m. Speed=12.780000m/h.</desc>
<speed>3.550000</speed>
</trkpt>
<trkpt lat="22.212906" lon="104.515045">
<ele>102.920959</ele>
<time>2011-04-28T02:30:09Z</time>
<desc>lat.=22.212906, lon.=104.515045, Alt.=102.920959m. Speed=16.812000m/h.</desc>
<speed>4.670000</speed>
</trkpt>
<trkpt lat="22.212961" lon="104.515297">
<ele>102.083069</ele>
<time>2011-04-28T02:30:14Z</time>
<desc>lat.=22.212961, lon.=104.515297, Alt.=102.083069m. Speed=20.340000m/h.</desc>
<speed>5.650000</speed>
</trkpt>
<trkpt lat="22.213074" lon="104.515663">
<ele>99.499084</ele>
<time>2011-04-28T02:30:19Z</time>
<desc>lat.=22.213074, lon.=104.515663, Alt.=99.499084m. Speed=24.408001m/h.</desc>
<speed>6.780000</speed>
</trkpt>
<trkpt lat="22.213041" lon="104.516068">
<ele>94.864319</ele>
<time>2011-04-28T02:30:24Z</time>
<desc>lat.=22.213041, lon.=104.516068, Alt.=94.864319m. Speed=26.639999m/h.</desc>
<speed>7.400000</speed>
</trkpt>
<trkpt lat="22.213039" lon="104.516472">
<ele>92.512756</ele>
<time>2011-04-28T02:30:29Z</time>
<desc>lat.=22.213039, lon.=104.516472, Alt.=92.512756m. Speed=25.775999m/h.</desc>
<speed>7.160000</speed>
</trkpt>
<trkpt lat="22.212971" lon="104.516815">
<ele>90.545959</ele>
<time>2011-04-28T02:30:34Z</time>
<desc>lat.=22.212971, lon.=104.516815, Alt.=90.545959m. Speed=15.876000m/h.</desc>
<speed>4.410000</speed>
</trkpt>
<trkpt lat="22.212849" lon="104.517105">
<ele>88.840881</ele>
<time>2011-04-28T02:30:39Z</time>
<desc>lat.=22.212849, lon.=104.517105, Alt.=88.840881m. Speed=21.672001m/h.</desc>
<speed>6.020000</speed>
</trkpt>
<trkpt lat="22.212667" lon="104.517372">
<ele>87.172913</ele>
<time>2011-04-28T02:30:44Z</time>
<desc>lat.=22.212667, lon.=104.517372, Alt.=87.172913m. Speed=21.563999m/h.</desc>
<speed>5.990000</speed>
</trkpt>
<trkpt lat="22.212555" lon="104.517593">
<ele>86.299866</ele>
<time>2011-04-28T02:30:49Z</time>
<desc>lat.=22.212555, lon.=104.517593, Alt.=86.299866m. Speed=14.976000m/h.</desc>
<speed>4.160000</speed>
</trkpt>
<trkpt lat="22.212473" lon="104.517860">
<ele>85.424866</ele>
<time>2011-04-28T02:30:54Z</time>
<desc>lat.=22.212473, lon.=104.517860, Alt.=85.424866m. Speed=19.152000m/h.</desc>
<speed>5.320000</speed>
</trkpt>
<trkpt lat="22.212349" lon="104.518166">
<ele>81.807678</ele>
<time>2011-04-28T02:30:59Z</time>
<desc>lat.=22.212349, lon.=104.518166, Alt.=81.807678m. Speed=18.143999m/h.</desc>
<speed>5.040000</speed>
</trkpt>
<trkpt lat="22.212271" lon="104.518425">
<ele>80.241272</ele>
<time>2011-04-28T02:31:04Z</time>
<desc>lat.=22.212271, lon.=104.518425, Alt.=80.241272m. Speed=14.724000m/h.</desc>
<speed>4.090000</speed>
</trkpt>
<trkpt lat="22.212202" lon="104.518585">
<ele>80.997131</ele>
<time>2011-04-28T02:31:09Z</time>
<desc>lat.=22.212202, lon.=104.518585, Alt.=80.997131m. Speed=13.356000m/h.</desc>
<speed>3.710000</speed>
</trkpt>
<trkpt lat="22.212118" lon="104.518753">
<ele>80.063538</ele>
<time>2011-04-28T02:31:14Z</time>
<desc>lat.=22.212118, lon.=104.518753, Alt.=80.063538m. Speed=9.324000m/h.</desc>
<speed>2.590000</speed>
</trkpt>
<trkpt lat="22.212097" lon="104.518898">
<ele>79.149475</ele>
<time>2011-04-28T02:31:19Z</time>
<desc>lat.=22.212097, lon.=104.518898, Alt.=79.149475m. Speed=8.784000m/h.</desc>
<speed>2.440000</speed>
</trkpt>
<trkpt lat="22.212069" lon="104.519073">
<ele>78.186584</ele>
<time>2011-04-28T02:31:24Z</time>
<desc>lat.=22.212069, lon.=104.519073, Alt.=78.186584m. Speed=8.676000m/h.</desc>
<speed>2.410000</speed>
</trkpt>
<trkpt lat="22.212061" lon="104.519234">
<ele>77.649475</ele>
<time>2011-04-28T02:31:29Z</time>
<desc>lat.=22.212061, lon.=104.519234, Alt.=77.649475m. Speed=4.176000m/h.</desc>
<speed>1.160000</speed>
</trkpt>
<trkpt lat="22.212070" lon="104.519341">
<ele>77.372131</ele>
<time>2011-04-28T02:31:34Z</time>
<desc>lat.=22.212070, lon.=104.519341, Alt.=77.372131m. Speed=5.184000m/h.</desc>
<speed>1.440000</speed>
</trkpt>
<trkpt lat="22.212086" lon="104.519409">
<ele>77.764709</ele>
<time>2011-04-28T02:31:39Z</time>
<desc>lat.=22.212086, lon.=104.519409, Alt.=77.764709m. Speed=0.900000m/h.</desc>
<speed>0.250000</speed>
</trkpt>
<trkpt lat="22.212065" lon="104.519424">
<ele>78.364319</ele>
<time>2011-04-28T02:31:44Z</time>
<desc>lat.=22.212065, lon.=104.519424, Alt.=78.364319m. Speed=0.936000m/h.</desc>
<speed>0.260000</speed>
</trkpt>
<trkpt lat="22.212059" lon="104.519432">
<ele>78.311584</ele>
<time>2011-04-28T02:31:49Z</time>
<desc>lat.=22.212059, lon.=104.519432, Alt.=78.311584m. Speed=0.360000m/h.</desc>
<speed>0.100000</speed>
</trkpt>
<trkpt lat="22.212057" lon="104.519432">
<ele>78.295959</ele>
<time>2011-04-28T02:31:54Z</time>
<desc>lat.=22.212057, lon.=104.519432, Alt.=78.295959m. Speed=0.360000m/h.</desc>
<speed>0.100000</speed>
</trkpt>
<trkpt lat="22.212057" lon="104.519432">
<ele>78.245178</ele>
<time>2011-04-28T02:31:59Z</time>
<desc>lat.=22.212057, lon.=104.519432, Alt.=78.245178m. Speed=0.036000m/h.</desc>
<speed>0.010000</speed>
</trkpt>
<trkpt lat="22.212059" lon="104.519432">
<ele>78.231506</ele>
<time>2011-04-28T02:32:04Z</time>
<desc>lat.=22.212059, lon.=104.519432, Alt.=78.231506m. Speed=0.036000m/h.</desc>
<speed>0.010000</speed>
</trkpt>
<trkpt lat="22.212059" lon="104.519432">
<ele>78.260803</ele>
<time>2011-04-28T02:32:09Z</time>
<desc>lat.=22.212059, lon.=104.519432, Alt.=78.260803m. Speed=0.684000m/h.</desc>
<speed>0.190000</speed>
</trkpt>
<trkpt lat="22.212051" lon="104.519440">
<ele>78.454163</ele>
<time>2011-04-28T02:32:14Z</time>
<desc>lat.=22.212051, lon.=104.519440, Alt.=78.454163m. Speed=0.936000m/h.</desc>
<speed>0.260000</speed>
</trkpt>
<trkpt lat="22.212044" lon="104.519455">
<ele>78.598694</ele>
<time>2011-04-28T02:32:19Z</time>
<desc>lat.=22.212044, lon.=104.519455, Alt.=78.598694m. Speed=0.792000m/h.</desc>
<speed>0.220000</speed>
</trkpt>
<trkpt lat="22.212046" lon="104.519463">
<ele>78.651428</ele>
<time>2011-04-28T02:32:24Z</time>
<desc>lat.=22.212046, lon.=104.519463, Alt.=78.651428m. Speed=0.324000m/h.</desc>
<speed>0.090000</speed>
</trkpt>
<trkpt lat="22.212044" lon="104.519463">
<ele>78.659241</ele>
<time>2011-04-28T02:32:29Z</time>
<desc>lat.=22.212044, lon.=104.519463, Alt.=78.659241m. Speed=0.432000m/h.</desc>
<speed>0.120000</speed>
</trkpt>
<trkpt lat="22.212036" lon="104.519470">
<ele>78.655334</ele>
<time>2011-04-28T02:32:34Z</time>
<desc>lat.=22.212036, lon.=104.519470, Alt.=78.655334m. Speed=0.756000m/h.</desc>
<speed>0.210000</speed>
</trkpt>
<trkpt lat="22.212032" lon="104.519470">
<ele>78.657288</ele>
<time>2011-04-28T02:32:39Z</time>
<desc>lat.=22.212032, lon.=104.519470, Alt.=78.657288m. Speed=0.324000m/h.</desc>
<speed>0.090000</speed>
</trkpt>
<trkpt lat="22.212032" lon="104.519470">
<ele>78.643616</ele>
<time>2011-04-28T02:32:44Z</time>
<desc>lat.=22.212032, lon.=104.519470, Alt.=78.643616m. Speed=0.504000m/h.</desc>
<speed>0.140000</speed>
</trkpt>
<trkpt lat="22.212044" lon="104.519470">
<ele>78.631897</ele>
<time>2011-04-28T02:32:49Z</time>
<desc>lat.=22.212044, lon.=104.519470, Alt.=78.631897m. Speed=0.828000m/h.</desc>
<speed>0.230000</speed>
</trkpt>
<trkpt lat="22.212044" lon="104.519470">
<ele>78.631897</ele>
<time>2011-04-28T02:32:54Z</time>
<desc>lat.=22.212044, lon.=104.519470, Alt.=78.631897m. Speed=0.540000m/h.</desc>
<speed>0.150000</speed>
</trkpt>
<trkpt lat="22.212040" lon="104.519470">
<ele>78.631897</ele>
<time>2011-04-28T02:32:59Z</time>
<desc>lat.=22.212040, lon.=104.519470, Alt.=78.631897m. Speed=0.252000m/h.</desc>
<speed>0.070000</speed>
</trkpt>
<trkpt lat="22.212040" lon="104.519463">
<ele>78.620178</ele>
<time>2011-04-28T02:33:04Z</time>
<desc>lat.=22.212040, lon.=104.519463, Alt.=78.620178m. Speed=0.396000m/h.</desc>
<speed>0.110000</speed>
</trkpt>
<trkpt lat="22.212046" lon="104.519463">
<ele>78.596741</ele>
<time>2011-04-28T02:33:09Z</time>
<desc>lat.=22.212046, lon.=104.519463, Alt.=78.596741m. Speed=0.684000m/h.</desc>
<speed>0.190000</speed>
</trkpt>
<trkpt lat="22.212055" lon="104.519463">
<ele>78.586975</ele>
<time>2011-04-28T02:33:14Z</time>
<desc>lat.=22.212055, lon.=104.519463, Alt.=78.586975m. Speed=0.504000m/h.</desc>
<speed>0.140000</speed>
</trkpt>
<trkpt lat="22.212063" lon="104.519463">
<ele>78.563538</ele>
<time>2011-04-28T02:33:19Z</time>
<desc>lat.=22.212063, lon.=104.519463, Alt.=78.563538m. Speed=0.612000m/h.</desc>
<speed>0.170000</speed>
</trkpt>
<trkpt lat="22.212067" lon="104.519470">
<ele>78.549866</ele>
<time>2011-04-28T02:33:24Z</time>
<desc>lat.=22.212067, lon.=104.519470, Alt.=78.549866m. Speed=0.144000m/h.</desc>
<speed>0.040000</speed>
</trkpt>
<trkpt lat="22.212061" lon="104.519470">
<ele>78.540100</ele>
<time>2011-04-28T02:33:29Z</time>
<desc>lat.=22.212061, lon.=104.519470, Alt.=78.540100m. Speed=0.972000m/h.</desc>
<speed>0.270000</speed>
</trkpt>
<trkpt lat="22.212051" lon="104.519463">
<ele>78.522522</ele>
<time>2011-04-28T02:33:34Z</time>
<desc>lat.=22.212051, lon.=104.519463, Alt.=78.522522m. Speed=0.684000m/h.</desc>
<speed>0.190000</speed>
</trkpt>
<trkpt lat="22.212042" lon="104.519463">
<ele>78.524475</ele>
<time>2011-04-28T02:33:39Z</time>
<desc>lat.=22.212042, lon.=104.519463, Alt.=78.524475m. Speed=0.720000m/h.</desc>
<speed>0.200000</speed>
</trkpt>
<trkpt lat="22.212032" lon="104.519463">
<ele>78.536194</ele>
<time>2011-04-28T02:33:44Z</time>
<desc>lat.=22.212032, lon.=104.519463, Alt.=78.536194m. Speed=0.684000m/h.</desc>
<speed>0.190000</speed>
</trkpt>
<trkpt lat="22.212025" lon="104.519455">
<ele>78.538147</ele>
<time>2011-04-28T02:33:49Z</time>
<desc>lat.=22.212025, lon.=104.519455, Alt.=78.538147m. Speed=0.648000m/h.</desc>
<speed>0.180000</speed>
</trkpt>
<trkpt lat="22.212013" lon="104.519463">
<ele>78.536194</ele>
<time>2011-04-28T02:33:54Z</time>
<desc>lat.=22.212013, lon.=104.519463, Alt.=78.536194m. Speed=1.008000m/h.</desc>
<speed>0.280000</speed>
</trkpt>
<trkpt lat="22.212008" lon="104.519455">
<ele>78.536194</ele>
<time>2011-04-28T02:33:59Z</time>
<desc>lat.=22.212008, lon.=104.519455, Alt.=78.536194m. Speed=0.900000m/h.</desc>
<speed>0.250000</speed>
</trkpt>
<trkpt lat="22.212000" lon="104.519447">
<ele>78.534241</ele>
<time>2011-04-28T02:34:04Z</time>
<desc>lat.=22.212000, lon.=104.519447, Alt.=78.534241m. Speed=0.360000m/h.</desc>
<speed>0.100000</speed>
</trkpt>
<trkpt lat="22.211998" lon="104.519440">
<ele>78.522522</ele>
<time>2011-04-28T02:34:09Z</time>
<desc>lat.=22.211998, lon.=104.519440, Alt.=78.522522m. Speed=0.180000m/h.</desc>
<speed>0.050000</speed>
</trkpt>
<trkpt lat="22.212002" lon="104.519440">
<ele>78.516663</ele>
<time>2011-04-28T02:34:14Z</time>
<desc>lat.=22.212002, lon.=104.519440, Alt.=78.516663m. Speed=0.612000m/h.</desc>
<speed>0.170000</speed>
</trkpt>
<trkpt lat="22.212004" lon="104.519432">
<ele>78.502991</ele>
<time>2011-04-28T02:34:19Z</time>
<desc>lat.=22.212004, lon.=104.519432, Alt.=78.502991m. Speed=0.720000m/h.</desc>
<speed>0.200000</speed>
</trkpt>
<trkpt lat="22.212006" lon="104.519417">
<ele>78.497131</ele>
<time>2011-04-28T02:34:24Z</time>
<desc>lat.=22.212006, lon.=104.519417, Alt.=78.497131m. Speed=1.152000m/h.</desc>
<speed>0.320000</speed>
</trkpt>
<trkpt lat="22.212009" lon="104.519409">
<ele>78.495178</ele>
<time>2011-04-28T02:34:29Z</time>
<desc>lat.=22.212009, lon.=104.519409, Alt.=78.495178m. Speed=0.036000m/h.</desc>
<speed>0.010000</speed>
</trkpt>
<trkpt lat="22.212008" lon="104.519402">
<ele>78.518616</ele>
<time>2011-04-28T02:34:34Z</time>
<desc>lat.=22.212008, lon.=104.519402, Alt.=78.518616m. Speed=0.324000m/h.</desc>
<speed>0.090000</speed>
</trkpt>
<trkpt lat="22.212008" lon="104.519402">
<ele>78.542053</ele>
<time>2011-04-28T02:34:39Z</time>
<desc>lat.=22.212008, lon.=104.519402, Alt.=78.542053m. Speed=0.936000m/h.</desc>
<speed>0.260000</speed>
</trkpt>
<trkpt lat="22.212004" lon="104.519386">
<ele>78.604553</ele>
<time>2011-04-28T02:34:44Z</time>
<desc>lat.=22.212004, lon.=104.519386, Alt.=78.604553m. Speed=1.332000m/h.</desc>
<speed>0.370000</speed>
</trkpt>
<trkpt lat="22.211996" lon="104.519363">
<ele>78.672913</ele>
<time>2011-04-28T02:34:49Z</time>
<desc>lat.=22.211996, lon.=104.519363, Alt.=78.672913m. Speed=1.476000m/h.</desc>
<speed>0.410000</speed>
</trkpt>
<trkpt lat="22.211994" lon="104.519348">
<ele>78.747131</ele>
<time>2011-04-28T02:34:54Z</time>
<desc>lat.=22.211994, lon.=104.519348, Alt.=78.747131m. Speed=1.548000m/h.</desc>
<speed>0.430000</speed>
</trkpt>
<trkpt lat="22.211996" lon="104.519333">
<ele>78.850647</ele>
<time>2011-04-28T02:34:59Z</time>
<desc>lat.=22.211996, lon.=104.519333, Alt.=78.850647m. Speed=0.756000m/h.</desc>
<speed>0.210000</speed>
</trkpt>
<trkpt lat="22.212006" lon="104.519325">
<ele>79.010803</ele>
<time>2011-04-28T02:35:04Z</time>
<desc>lat.=22.212006, lon.=104.519325, Alt.=79.010803m. Speed=1.188000m/h.</desc>
<speed>0.330000</speed>
</trkpt>
<trkpt lat="22.212021" lon="104.519325">
<ele>79.221741</ele>
<time>2011-04-28T02:35:09Z</time>
<desc>lat.=22.212021, lon.=104.519325, Alt.=79.221741m. Speed=1.404000m/h.</desc>
<speed>0.390000</speed>
</trkpt>
<trkpt lat="22.212036" lon="104.519341">
<ele>79.444397</ele>
<time>2011-04-28T02:35:14Z</time>
<desc>lat.=22.212036, lon.=104.519341, Alt.=79.444397m. Speed=2.952000m/h.</desc>
<speed>0.820000</speed>
</trkpt>
<trkpt lat="22.212034" lon="104.519569">
<ele>77.053772</ele>
<time>2011-04-28T02:35:19Z</time>
<desc>lat.=22.212034, lon.=104.519569, Alt.=77.053772m. Speed=12.672000m/h.</desc>
<speed>3.520000</speed>
</trkpt>
<trkpt lat="22.212051" lon="104.519798">
<ele>73.506897</ele>
<time>2011-04-28T02:35:24Z</time>
<desc>lat.=22.212051, lon.=104.519798, Alt.=73.506897m. Speed=14.796000m/h.</desc>
<speed>4.110000</speed>
</trkpt>
<trkpt lat="22.212049" lon="104.520027">
<ele>71.122131</ele>
<time>2011-04-28T02:35:29Z</time>
<desc>lat.=22.212049, lon.=104.520027, Alt.=71.122131m. Speed=16.091999m/h.</desc>
<speed>4.470000</speed>
</trkpt>
<trkpt lat="22.211979" lon="104.520332">
<ele>70.042053</ele>
<time>2011-04-28T02:35:34Z</time>
<desc>lat.=22.211979, lon.=104.520332, Alt.=70.042053m. Speed=22.392000m/h.</desc>
<speed>6.220000</speed>
</trkpt>
<trkpt lat="22.211878" lon="104.520683">
<ele>70.163147</ele>
<time>2011-04-28T02:35:39Z</time>
<desc>lat.=22.211878, lon.=104.520683, Alt.=70.163147m. Speed=22.680000m/h.</desc>
<speed>6.300000</speed>
</trkpt>
<trkpt lat="22.211790" lon="104.520988">
<ele>69.586975</ele>
<time>2011-04-28T02:35:44Z</time>
<desc>lat.=22.211790, lon.=104.520988, Alt.=69.586975m. Speed=15.984000m/h.</desc>
<speed>4.440000</speed>
</trkpt>
<trkpt lat="22.211735" lon="104.521271">
<ele>67.477600</ele>
<time>2011-04-28T02:35:49Z</time>
<desc>lat.=22.211735, lon.=104.521271, Alt.=67.477600m. Speed=14.868000m/h.</desc>
<speed>4.130000</speed>
</trkpt>
<trkpt lat="22.211653" lon="104.521492">
<ele>70.764709</ele>
<time>2011-04-28T02:35:54Z</time>
<desc>lat.=22.211653, lon.=104.521492, Alt.=70.764709m. Speed=11.592000m/h.</desc>
<speed>3.220000</speed>
</trkpt>
<trkpt lat="22.211597" lon="104.521675">
<ele>72.346741</ele>
<time>2011-04-28T02:35:59Z</time>
<desc>lat.=22.211597, lon.=104.521675, Alt.=72.346741m. Speed=12.096000m/h.</desc>
<speed>3.360000</speed>
</trkpt>
<trkpt lat="22.211527" lon="104.521896">
<ele>75.237366</ele>
<time>2011-04-28T02:36:04Z</time>
<desc>lat.=22.211527, lon.=104.521896, Alt.=75.237366m. Speed=14.400000m/h.</desc>
<speed>4.000000</speed>
</trkpt>
<trkpt lat="22.211445" lon="104.522110">
<ele>73.071350</ele>
<time>2011-04-28T02:36:09Z</time>
<desc>lat.=22.211445, lon.=104.522110, Alt.=73.071350m. Speed=10.332000m/h.</desc>
<speed>2.870000</speed>
</trkpt>
<trkpt lat="22.211369" lon="104.522301">
<ele>71.028381</ele>
<time>2011-04-28T02:36:14Z</time>
<desc>lat.=22.211369, lon.=104.522301, Alt.=71.028381m. Speed=12.132000m/h.</desc>
<speed>3.370000</speed>
</trkpt>
<trkpt lat="22.211246" lon="104.522507">
<ele>71.251038</ele>
<time>2011-04-28T02:36:19Z</time>
<desc>lat.=22.211246, lon.=104.522507, Alt.=71.251038m. Speed=15.156000m/h.</desc>
<speed>4.210000</speed>
</trkpt>
<trkpt lat="22.211143" lon="104.522728">
<ele>70.063538</ele>
<time>2011-04-28T02:36:24Z</time>
<desc>lat.=22.211143, lon.=104.522728, Alt.=70.063538m. Speed=17.172001m/h.</desc>
<speed>4.770000</speed>
</trkpt>
<trkpt lat="22.211054" lon="104.522957">
<ele>70.813538</ele>
<time>2011-04-28T02:36:29Z</time>
<desc>lat.=22.211054, lon.=104.522957, Alt.=70.813538m. Speed=17.028000m/h.</desc>
<speed>4.730000</speed>
</trkpt>
<trkpt lat="22.210958" lon="104.523232">
<ele>75.266663</ele>
<time>2011-04-28T02:36:34Z</time>
<desc>lat.=22.210958, lon.=104.523232, Alt.=75.266663m. Speed=19.548000m/h.</desc>
<speed>5.430000</speed>
</trkpt>
<trkpt lat="22.210857" lon="104.523529">
<ele>81.086975</ele>
<time>2011-04-28T02:36:39Z</time>
<desc>lat.=22.210857, lon.=104.523529, Alt.=81.086975m. Speed=26.172001m/h.</desc>
<speed>7.270000</speed>
</trkpt>
<trkpt lat="22.210770" lon="104.523911">
<ele>88.063538</ele>
<time>2011-04-28T02:36:44Z</time>
<desc>lat.=22.210770, lon.=104.523911, Alt.=88.063538m. Speed=27.143999m/h.</desc>
<speed>7.540000</speed>
</trkpt>
<trkpt lat="22.210625" lon="104.524200">
<ele>90.360413</ele>
<time>2011-04-28T02:36:49Z</time>
<desc>lat.=22.210625, lon.=104.524200, Alt.=90.360413m. Speed=21.455999m/h.</desc>
<speed>5.960000</speed>
</trkpt>
<trkpt lat="22.210451" lon="104.524437">
<ele>91.983459</ele>
<time>2011-04-28T02:36:54Z</time>
<desc>lat.=22.210451, lon.=104.524437, Alt.=91.983459m. Speed=16.812000m/h.</desc>
<speed>4.670000</speed>
</trkpt>
<trkpt lat="22.210318" lon="104.524620">
<ele>91.768616</ele>
<time>2011-04-28T02:36:59Z</time>
<desc>lat.=22.210318, lon.=104.524620, Alt.=91.768616m. Speed=15.696000m/h.</desc>
<speed>4.360000</speed>
</trkpt>
<trkpt lat="22.210148" lon="104.524788">
<ele>91.163147</ele>
<time>2011-04-28T02:37:04Z</time>
<desc>lat.=22.210148, lon.=104.524788, Alt.=91.163147m. Speed=11.772000m/h.</desc>
<speed>3.270000</speed>
</trkpt>
<trkpt lat="22.209970" lon="104.524910">
<ele>89.391663</ele>
<time>2011-04-28T02:37:09Z</time>
<desc>lat.=22.209970, lon.=104.524910, Alt.=89.391663m. Speed=12.276000m/h.</desc>
<speed>3.410000</speed>
</trkpt>
<trkpt lat="22.209866" lon="104.524986">
<ele>89.669006</ele>
<time>2011-04-28T02:37:14Z</time>
<desc>lat.=22.209866, lon.=104.524986, Alt.=89.669006m. Speed=5.580000m/h.</desc>
<speed>1.550000</speed>
</trkpt>
<trkpt lat="22.209808" lon="104.525032">
<ele>87.684631</ele>
<time>2011-04-28T02:37:19Z</time>
<desc>lat.=22.209808, lon.=104.525032, Alt.=87.684631m. Speed=0.360000m/h.</desc>
<speed>0.100000</speed>
</trkpt>
<trkpt lat="22.209799" lon="104.525040">
<ele>87.217834</ele>
<time>2011-04-28T02:37:24Z</time>
<desc>lat.=22.209799, lon.=104.525040, Alt.=87.217834m. Speed=0.288000m/h.</desc>
<speed>0.080000</speed>
</trkpt>
<trkpt lat="22.209799" lon="104.525040">
<ele>87.143616</ele>
<time>2011-04-28T02:37:29Z</time>
<desc>lat.=22.209799, lon.=104.525040, Alt.=87.143616m. Speed=0.000000m/h.</desc>
<speed>0.000000</speed>
</trkpt>
<trkpt lat="22.209829" lon="104.525070">
<ele>85.786194</ele>
<time>2011-04-28T02:37:34Z</time>
<desc>lat.=22.209829, lon.=104.525070, Alt.=85.786194m. Speed=4.068000m/h.</desc>
<speed>1.130000</speed>
</trkpt>
<trkpt lat="22.209846" lon="104.525116">
<ele>84.368225</ele>
<time>2011-04-28T02:37:39Z</time>
<desc>lat.=22.209846, lon.=104.525116, Alt.=84.368225m. Speed=1.260000m/h.</desc>
<speed>0.350000</speed>
</trkpt>
<trkpt lat="22.209846" lon="104.525108">
<ele>84.956116</ele>
<time>2011-04-28T02:37:44Z</time>
<desc>lat.=22.209846, lon.=104.525108, Alt.=84.956116m. Speed=0.288000m/h.</desc>
<speed>0.080000</speed>
</trkpt>
<trkpt lat="22.209848" lon="104.525108">
<ele>84.696350</ele>
<time>2011-04-28T02:37:49Z</time>
<desc>lat.=22.209848, lon.=104.525108, Alt.=84.696350m. Speed=0.000000m/h.</desc>
<speed>0.000000</speed>
</trkpt>
<trkpt lat="22.209845" lon="104.525116">
<ele>84.460022</ele>
<time>2011-04-28T02:37:54Z</time>
<desc>lat.=22.209845, lon.=104.525116, Alt.=84.460022m. Speed=0.612000m/h.</desc>
<speed>0.170000</speed>
</trkpt>
<trkpt lat="22.209866" lon="104.525124">
<ele>84.200256</ele>
<time>2011-04-28T02:37:59Z</time>
<desc>lat.=22.209866, lon.=104.525124, Alt.=84.200256m. Speed=0.504000m/h.</desc>
<speed>0.140000</speed>
</trkpt>
<trkpt lat="22.209875" lon="104.525124">
<ele>83.831116</ele>
<time>2011-04-28T02:38:04Z</time>
<desc>lat.=22.209875, lon.=104.525124, Alt.=83.831116m. Speed=0.000000m/h.</desc>
<speed>0.000000</speed>
</trkpt>
<trkpt lat="22.209875" lon="104.525124">
<ele>83.803772</ele>
<time>2011-04-28T02:38:09Z</time>
<desc>lat.=22.209875, lon.=104.525124, Alt.=83.803772m. Speed=0.000000m/h.</desc>
<speed>0.000000</speed>
</trkpt>
<trkpt lat="22.209877" lon="104.525124">
<ele>83.792053</ele>
<time>2011-04-28T02:38:14Z</time>
<desc>lat.=22.209877, lon.=104.525124, Alt.=83.792053m. Speed=0.000000m/h.</desc>
<speed>0.000000</speed>
</trkpt>
<trkpt lat="22.209877" lon="104.525124">
<ele>83.786194</ele>
<time>2011-04-28T02:38:19Z</time>
<desc>lat.=22.209877, lon.=104.525124, Alt.=83.786194m. Speed=0.000000m/h.</desc>
<speed>0.000000</speed>
</trkpt>
<trkpt lat="22.209877" lon="104.525124">
<ele>83.782288</ele>
<time>2011-04-28T02:38:24Z</time>
<desc>lat.=22.209877, lon.=104.525124, Alt.=83.782288m. Speed=0.000000m/h.</desc>
<speed>0.000000</speed>
</trkpt>
<trkpt lat="22.209877" lon="104.525124">
<ele>83.770569</ele>
<time>2011-04-28T02:38:29Z</time>
<desc>lat.=22.209877, lon.=104.525124, Alt.=83.770569m. Speed=0.000000m/h.</desc>
<speed>0.000000</speed>
</trkpt>
<trkpt lat="22.209877" lon="104.525124">
<ele>83.764709</ele>
<time>2011-04-28T02:38:34Z</time>
<desc>lat.=22.209877, lon.=104.525124, Alt.=83.764709m. Speed=0.000000m/h.</desc>
<speed>0.000000</speed>
</trkpt>
<trkpt lat="22.209877" lon="104.525124">
<ele>83.764709</ele>
<time>2011-04-28T02:38:39Z</time>
<desc>lat.=22.209877, lon.=104.525124, Alt.=83.764709m. Speed=0.000000m/h.</desc>
<speed>0.000000</speed>
</trkpt>
<trkpt lat="22.209877" lon="104.525124">
<ele>83.758850</ele>
<time>2011-04-28T02:38:44Z</time>
<desc>lat.=22.209877, lon.=104.525124, Alt.=83.758850m. Speed=0.000000m/h.</desc>
<speed>0.000000</speed>
</trkpt>
<trkpt lat="22.209877" lon="104.525124">
<ele>83.752991</ele>
<time>2011-04-28T02:38:49Z</time>
<desc>lat.=22.209877, lon.=104.525124, Alt.=83.752991m. Speed=0.000000m/h.</desc>
<speed>0.000000</speed>
</trkpt>
<trkpt lat="22.209877" lon="104.525124">
<ele>83.741272</ele>
<time>2011-04-28T02:38:54Z</time>
<desc>lat.=22.209877, lon.=104.525124, Alt.=83.741272m. Speed=0.000000m/h.</desc>
<speed>0.000000</speed>
</trkpt>
<trkpt lat="22.209877" lon="104.525124">
<ele>83.727600</ele>
<time>2011-04-28T02:38:59Z</time>
<desc>lat.=22.209877, lon.=104.525124, Alt.=83.727600m. Speed=0.000000m/h.</desc>
<speed>0.000000</speed>
</trkpt>
<trkpt lat="22.209877" lon="104.525124">
<ele>83.713928</ele>
<time>2011-04-28T02:39:04Z</time>
<desc>lat.=22.209877, lon.=104.525124, Alt.=83.713928m. Speed=0.000000m/h.</desc>
<speed>0.000000</speed>
</trkpt>
<trkpt lat="22.209877" lon="104.525124">
<ele>83.700256</ele>
<time>2011-04-28T02:39:09Z</time>
<desc>lat.=22.209877, lon.=104.525124, Alt.=83.700256m. Speed=0.000000m/h.</desc>
<speed>0.000000</speed>
</trkpt>
<trkpt lat="22.209877" lon="104.525124">
<ele>83.690491</ele>
<time>2011-04-28T02:39:14Z</time>
<desc>lat.=22.209877, lon.=104.525124, Alt.=83.690491m. Speed=0.000000m/h.</desc>
<speed>0.000000</speed>
</trkpt>
<trkpt lat="22.209877" lon="104.525124">
<ele>83.684631</ele>
<time>2011-04-28T02:39:19Z</time>
<desc>lat.=22.209877, lon.=104.525124, Alt.=83.684631m. Speed=0.000000m/h.</desc>
<speed>0.000000</speed>
</trkpt>
<trkpt lat="22.209877" lon="104.525124">
<ele>83.676819</ele>
<time>2011-04-28T02:39:24Z</time>
<desc>lat.=22.209877, lon.=104.525124, Alt.=83.676819m. Speed=0.000000m/h.</desc>
<speed>0.000000</speed>
</trkpt>
<trkpt lat="22.209877" lon="104.525124">
<ele>83.670959</ele>
<time>2011-04-28T02:39:29Z</time>
<desc>lat.=22.209877, lon.=104.525124, Alt.=83.670959m. Speed=0.000000m/h.</desc>
<speed>0.000000</speed>
</trkpt>
<trkpt lat="22.209877" lon="104.525124">
<ele>83.669006</ele>
<time>2011-04-28T02:39:34Z</time>
<desc>lat.=22.209877, lon.=104.525124, Alt.=83.669006m. Speed=0.000000m/h.</desc>
<speed>0.000000</speed>
</trkpt>
<trkpt lat="22.209877" lon="104.525124">
<ele>83.661194</ele>
<time>2011-04-28T02:39:39Z</time>
<desc>lat.=22.209877, lon.=104.525124, Alt.=83.661194m. Speed=0.000000m/h.</desc>
<speed>0.000000</speed>
</trkpt>
<trkpt lat="22.209877" lon="104.525124">
<ele>83.651428</ele>
<time>2011-04-28T02:39:44Z</time>
<desc>lat.=22.209877, lon.=104.525124, Alt.=83.651428m. Speed=0.000000m/h.</desc>
<speed>0.000000</speed>
</trkpt>
<trkpt lat="22.209877" lon="104.525124">
<ele>83.647522</ele>
<time>2011-04-28T02:39:49Z</time>
<desc>lat.=22.209877, lon.=104.525124, Alt.=83.647522m. Speed=0.000000m/h.</desc>
<speed>0.000000</speed>
</trkpt>
<trkpt lat="22.209877" lon="104.525124">
<ele>83.645569</ele>
<time>2011-04-28T02:39:54Z</time>
<desc>lat.=22.209877, lon.=104.525124, Alt.=83.645569m. Speed=0.000000m/h.</desc>
<speed>0.000000</speed>
</trkpt>
<trkpt lat="22.209877" lon="104.525124">
<ele>83.645569</ele>
<time>2011-04-28T02:39:59Z</time>
<desc>lat.=22.209877, lon.=104.525124, Alt.=83.645569m. Speed=0.108000m/h.</desc>
<speed>0.030000</speed>
</trkpt>
<trkpt lat="22.209877" lon="104.525124">
<ele>83.647522</ele>
<time>2011-04-28T02:40:04Z</time>
<desc>lat.=22.209877, lon.=104.525124, Alt.=83.647522m. Speed=0.036000m/h.</desc>
<speed>0.010000</speed>
</trkpt>
<trkpt lat="22.209877" lon="104.525124">
<ele>83.645569</ele>
<time>2011-04-28T02:40:09Z</time>
<desc>lat.=22.209877, lon.=104.525124, Alt.=83.645569m. Speed=0.000000m/h.</desc>
<speed>0.000000</speed>
</trkpt>
<trkpt lat="22.209877" lon="104.525124">
<ele>83.641663</ele>
<time>2011-04-28T02:40:14Z</time>
<desc>lat.=22.209877, lon.=104.525124, Alt.=83.641663m. Speed=0.000000m/h.</desc>
<speed>0.000000</speed>
</trkpt>
<trkpt lat="22.209877" lon="104.525124">
<ele>83.641663</ele>
<time>2011-04-28T02:40:19Z</time>
<desc>lat.=22.209877, lon.=104.525124, Alt.=83.641663m. Speed=0.072000m/h.</desc>
<speed>0.020000</speed>
</trkpt>
<trkpt lat="22.209877" lon="104.525124">
<ele>83.641663</ele>
<time>2011-04-28T02:40:24Z</time>
<desc>lat.=22.209877, lon.=104.525124, Alt.=83.641663m. Speed=0.000000m/h.</desc>
<speed>0.000000</speed>
</trkpt>
<trkpt lat="22.209877" lon="104.525131">
<ele>83.643616</ele>
<time>2011-04-28T02:40:29Z</time>
<desc>lat.=22.209877, lon.=104.525131, Alt.=83.643616m. Speed=0.072000m/h.</desc>
<speed>0.020000</speed>
</trkpt>
<trkpt lat="22.209879" lon="104.525131">
<ele>83.641663</ele>
<time>2011-04-28T02:40:34Z</time>
<desc>lat.=22.209879, lon.=104.525131, Alt.=83.641663m. Speed=0.036000m/h.</desc>
<speed>0.010000</speed>
</trkpt>
<trkpt lat="22.209879" lon="104.525131">
<ele>83.641663</ele>
<time>2011-04-28T02:40:39Z</time>
<desc>lat.=22.209879, lon.=104.525131, Alt.=83.641663m. Speed=0.036000m/h.</desc>
<speed>0.010000</speed>
</trkpt>
<trkpt lat="22.209879" lon="104.525131">
<ele>83.643616</ele>
<time>2011-04-28T02:40:44Z</time>
<desc>lat.=22.209879, lon.=104.525131, Alt.=83.643616m. Speed=0.216000m/h.</desc>
<speed>0.060000</speed>
</trkpt>
<trkpt lat="22.209866" lon="104.525124">
<ele>83.391663</ele>
<time>2011-04-28T02:40:49Z</time>
<desc>lat.=22.209866, lon.=104.525124, Alt.=83.391663m. Speed=0.468000m/h.</desc>
<speed>0.130000</speed>
</trkpt>
<trkpt lat="22.209824" lon="104.525146">
<ele>83.196350</ele>
<time>2011-04-28T02:40:54Z</time>
<desc>lat.=22.209824, lon.=104.525146, Alt.=83.196350m. Speed=3.420000m/h.</desc>
<speed>0.950000</speed>
</trkpt>
<trkpt lat="22.209799" lon="104.525169">
<ele>82.940491</ele>
<time>2011-04-28T02:40:59Z</time>
<desc>lat.=22.209799, lon.=104.525169, Alt.=82.940491m. Speed=1.188000m/h.</desc>
<speed>0.330000</speed>
</trkpt>
<trkpt lat="22.209785" lon="104.525169">
<ele>82.737366</ele>
<time>2011-04-28T02:41:04Z</time>
<desc>lat.=22.209785, lon.=104.525169, Alt.=82.737366m. Speed=0.072000m/h.</desc>
<speed>0.020000</speed>
</trkpt>
<trkpt lat="22.209764" lon="104.525162">
<ele>82.823303</ele>
<time>2011-04-28T02:41:09Z</time>
<desc>lat.=22.209764, lon.=104.525162, Alt.=82.823303m. Speed=0.648000m/h.</desc>
<speed>0.180000</speed>
</trkpt>
<trkpt lat="22.209740" lon="104.525154">
<ele>83.155334</ele>
<time>2011-04-28T02:41:14Z</time>
<desc>lat.=22.209740, lon.=104.525154, Alt.=83.155334m. Speed=0.216000m/h.</desc>
<speed>0.060000</speed>
</trkpt>
<trkpt lat="22.209719" lon="104.525131">
<ele>83.481506</ele>
<time>2011-04-28T02:41:19Z</time>
<desc>lat.=22.209719, lon.=104.525131, Alt.=83.481506m. Speed=0.396000m/h.</desc>
<speed>0.110000</speed>
</trkpt>
<trkpt lat="22.209694" lon="104.525116">
<ele>83.805725</ele>
<time>2011-04-28T02:41:24Z</time>
<desc>lat.=22.209694, lon.=104.525116, Alt.=83.805725m. Speed=0.684000m/h.</desc>
<speed>0.190000</speed>
</trkpt>
<trkpt lat="22.209681" lon="104.525101">
<ele>84.006897</ele>
<time>2011-04-28T02:41:29Z</time>
<desc>lat.=22.209681, lon.=104.525101, Alt.=84.006897m. Speed=0.828000m/h.</desc>
<speed>0.230000</speed>
</trkpt>
<trkpt lat="22.209673" lon="104.525093">
<ele>84.096741</ele>
<time>2011-04-28T02:41:34Z</time>
<desc>lat.=22.209673, lon.=104.525093, Alt.=84.096741m. Speed=1.080000m/h.</desc>
<speed>0.300000</speed>
</trkpt>
<trkpt lat="22.209669" lon="104.525085">
<ele>84.258850</ele>
<time>2011-04-28T02:41:39Z</time>
<desc>lat.=22.209669, lon.=104.525085, Alt.=84.258850m. Speed=0.324000m/h.</desc>
<speed>0.090000</speed>
</trkpt>
<trkpt lat="22.209671" lon="104.525078">
<ele>84.366272</ele>
<time>2011-04-28T02:41:44Z</time>
<desc>lat.=22.209671, lon.=104.525078, Alt.=84.366272m. Speed=0.468000m/h.</desc>
<speed>0.130000</speed>
</trkpt>
<trkpt lat="22.209677" lon="104.525085">
<ele>84.469788</ele>
<time>2011-04-28T02:41:49Z</time>
<desc>lat.=22.209677, lon.=104.525085, Alt.=84.469788m. Speed=0.468000m/h.</desc>
<speed>0.130000</speed>
</trkpt>
<trkpt lat="22.209681" lon="104.525085">
<ele>84.551819</ele>
<time>2011-04-28T02:41:54Z</time>
<desc>lat.=22.209681, lon.=104.525085, Alt.=84.551819m. Speed=0.252000m/h.</desc>
<speed>0.070000</speed>
</trkpt>
<trkpt lat="22.209684" lon="104.525093">
<ele>84.598694</ele>
<time>2011-04-28T02:41:59Z</time>
<desc>lat.=22.209684, lon.=104.525093, Alt.=84.598694m. Speed=0.216000m/h.</desc>
<speed>0.060000</speed>
</trkpt>
<trkpt lat="22.209684" lon="104.525093">
<ele>84.602600</ele>
<time>2011-04-28T02:42:04Z</time>
<desc>lat.=22.209684, lon.=104.525093, Alt.=84.602600m. Speed=0.144000m/h.</desc>
<speed>0.040000</speed>
</trkpt>
<trkpt lat="22.209686" lon="104.525093">
<ele>84.567444</ele>
<time>2011-04-28T02:42:09Z</time>
<desc>lat.=22.209686, lon.=104.525093, Alt.=84.567444m. Speed=0.252000m/h.</desc>
<speed>0.070000</speed>
</trkpt>
<trkpt lat="22.209688" lon="104.525093">
<ele>84.547913</ele>
<time>2011-04-28T02:42:14Z</time>
<desc>lat.=22.209688, lon.=104.525093, Alt.=84.547913m. Speed=0.000000m/h.</desc>
<speed>0.000000</speed>
</trkpt>
<trkpt lat="22.209688" lon="104.525093">
<ele>84.547913</ele>
<time>2011-04-28T02:42:19Z</time>
<desc>lat.=22.209688, lon.=104.525093, Alt.=84.547913m. Speed=0.036000m/h.</desc>
<speed>0.010000</speed>
</trkpt>
<trkpt lat="22.209688" lon="104.525093">
<ele>84.549866</ele>
<time>2011-04-28T02:42:24Z</time>
<desc>lat.=22.209688, lon.=104.525093, Alt.=84.549866m. Speed=0.180000m/h.</desc>
<speed>0.050000</speed>
</trkpt>
<trkpt lat="22.209688" lon="104.525093">
<ele>84.534241</ele>
<time>2011-04-28T02:42:29Z</time>
<desc>lat.=22.209688, lon.=104.525093, Alt.=84.534241m. Speed=0.108000m/h.</desc>
<speed>0.030000</speed>
</trkpt>
<trkpt lat="22.209688" lon="104.525093">
<ele>84.520569</ele>
<time>2011-04-28T02:42:34Z</time>
<desc>lat.=22.209688, lon.=104.525093, Alt.=84.520569m. Speed=1.836000m/h.</desc>
<speed>0.510000</speed>
</trkpt>
<trkpt lat="22.209629" lon="104.525116">
<ele>83.823303</ele>
<time>2011-04-28T02:42:39Z</time>
<desc>lat.=22.209629, lon.=104.525116, Alt.=83.823303m. Speed=8.244000m/h.</desc>
<speed>2.290000</speed>
</trkpt>
<trkpt lat="22.209538" lon="104.525169">
<ele>81.549866</ele>
<time>2011-04-28T02:42:44Z</time>
<desc>lat.=22.209538, lon.=104.525169, Alt.=81.549866m. Speed=8.604000m/h.</desc>
<speed>2.390000</speed>
</trkpt>
<trkpt lat="22.209455" lon="104.525246">
<ele>78.924866</ele>
<time>2011-04-28T02:42:49Z</time>
<desc>lat.=22.209455, lon.=104.525246, Alt.=78.924866m. Speed=8.100000m/h.</desc>
<speed>2.250000</speed>
</trkpt>
<trkpt lat="22.209393" lon="104.525284">
<ele>76.510803</ele>
<time>2011-04-28T02:42:54Z</time>
<desc>lat.=22.209393, lon.=104.525284, Alt.=76.510803m. Speed=6.048000m/h.</desc>
<speed>1.680000</speed>
</trkpt>
<trkpt lat="22.209312" lon="104.525345">
<ele>74.694397</ele>
<time>2011-04-28T02:42:59Z</time>
<desc>lat.=22.209312, lon.=104.525345, Alt.=74.694397m. Speed=9.468000m/h.</desc>
<speed>2.630000</speed>
</trkpt>
<trkpt lat="22.209221" lon="104.525406">
<ele>73.237366</ele>
<time>2011-04-28T02:43:04Z</time>
<desc>lat.=22.209221, lon.=104.525406, Alt.=73.237366m. Speed=9.288000m/h.</desc>
<speed>2.580000</speed>
</trkpt>
<trkpt lat="22.209089" lon="104.525490">
<ele>71.284241</ele>
<time>2011-04-28T02:43:09Z</time>
<desc>lat.=22.209089, lon.=104.525490, Alt.=71.284241m. Speed=10.224000m/h.</desc>
<speed>2.840000</speed>
</trkpt>
<trkpt lat="22.208904" lon="104.525589">
<ele>70.233459</ele>
<time>2011-04-28T02:43:14Z</time>
<desc>lat.=22.208904, lon.=104.525589, Alt.=70.233459m. Speed=15.768000m/h.</desc>
<speed>4.380000</speed>
</trkpt>
<trkpt lat="22.208652" lon="104.525772">
<ele>69.844788</ele>
<time>2011-04-28T02:43:19Z</time>
<desc>lat.=22.208652, lon.=104.525772, Alt.=69.844788m. Speed=25.020000m/h.</desc>
<speed>6.950000</speed>
</trkpt>
<trkpt lat="22.208408" lon="104.526024">
<ele>69.108459</ele>
<time>2011-04-28T02:43:24Z</time>
<desc>lat.=22.208408, lon.=104.526024, Alt.=69.108459m. Speed=25.379999m/h.</desc>
<speed>7.050000</speed>
</trkpt>
<trkpt lat="22.208136" lon="104.526283">
<ele>68.592834</ele>
<time>2011-04-28T02:43:29Z</time>
<desc>lat.=22.208136, lon.=104.526283, Alt.=68.592834m. Speed=25.524000m/h.</desc>
<speed>7.090000</speed>
</trkpt>
<trkpt lat="22.207884" lon="104.526482">
<ele>68.850647</ele>
<time>2011-04-28T02:43:34Z</time>
<desc>lat.=22.207884, lon.=104.526482, Alt.=68.850647m. Speed=20.916000m/h.</desc>
<speed>5.810000</speed>
</trkpt>
<trkpt lat="22.207659" lon="104.526627">
<ele>70.450256</ele>
<time>2011-04-28T02:43:39Z</time>
<desc>lat.=22.207659, lon.=104.526627, Alt.=70.450256m. Speed=20.664000m/h.</desc>
<speed>5.740000</speed>
</trkpt>
<trkpt lat="22.207502" lon="104.526855">
<ele>70.684631</ele>
<time>2011-04-28T02:43:44Z</time>
<desc>lat.=22.207502, lon.=104.526855, Alt.=70.684631m. Speed=19.044001m/h.</desc>
<speed>5.290000</speed>
</trkpt>
<trkpt lat="22.207382" lon="104.527084">
<ele>70.842834</ele>
<time>2011-04-28T02:43:49Z</time>
<desc>lat.=22.207382, lon.=104.527084, Alt.=70.842834m. Speed=17.136000m/h.</desc>
<speed>4.760000</speed>
</trkpt>
<trkpt lat="22.207273" lon="104.527306">
<ele>71.217834</ele>
<time>2011-04-28T02:43:54Z</time>
<desc>lat.=22.207273, lon.=104.527306, Alt.=71.217834m. Speed=15.048000m/h.</desc>
<speed>4.180000</speed>
</trkpt>
<trkpt lat="22.207121" lon="104.527443">
<ele>71.108459</ele>
<time>2011-04-28T02:43:59Z</time>
<desc>lat.=22.207121, lon.=104.527443, Alt.=71.108459m. Speed=14.940000m/h.</desc>
<speed>4.150000</speed>
</trkpt>
<trkpt lat="22.206974" lon="104.527550">
<ele>71.245178</ele>
<time>2011-04-28T02:44:04Z</time>
<desc>lat.=22.206974, lon.=104.527550, Alt.=71.245178m. Speed=13.464000m/h.</desc>
<speed>3.740000</speed>
</trkpt>
<trkpt lat="22.206827" lon="104.527763">
<ele>71.682678</ele>
<time>2011-04-28T02:44:09Z</time>
<desc>lat.=22.206827, lon.=104.527763, Alt.=71.682678m. Speed=19.296000m/h.</desc>
<speed>5.360000</speed>
</trkpt>
<trkpt lat="22.206709" lon="104.528030">
<ele>72.391663</ele>
<time>2011-04-28T02:44:14Z</time>
<desc>lat.=22.206709, lon.=104.528030, Alt.=72.391663m. Speed=20.195999m/h.</desc>
<speed>5.610000</speed>
</trkpt>
<trkpt lat="22.206577" lon="104.528267">
<ele>73.063538</ele>
<time>2011-04-28T02:44:19Z</time>
<desc>lat.=22.206577, lon.=104.528267, Alt.=73.063538m. Speed=16.667999m/h.</desc>
<speed>4.630000</speed>
</trkpt>
<trkpt lat="22.206476" lon="104.528503">
<ele>73.491272</ele>
<time>2011-04-28T02:44:24Z</time>
<desc>lat.=22.206476, lon.=104.528503, Alt.=73.491272m. Speed=22.643999m/h.</desc>
<speed>6.290000</speed>
</trkpt>
<trkpt lat="22.206266" lon="104.528755">
<ele>73.588928</ele>
<time>2011-04-28T02:44:29Z</time>
<desc>lat.=22.206266, lon.=104.528755, Alt.=73.588928m. Speed=25.379999m/h.</desc>
<speed>7.050000</speed>
</trkpt>
<trkpt lat="22.206066" lon="104.529007">
<ele>74.303772</ele>
<time>2011-04-28T02:44:34Z</time>
<desc>lat.=22.206066, lon.=104.529007, Alt.=74.303772m. Speed=23.724001m/h.</desc>
<speed>6.590000</speed>
</trkpt>
<trkpt lat="22.205860" lon="104.529274">
<ele>75.670959</ele>
<time>2011-04-28T02:44:39Z</time>
<desc>lat.=22.205860, lon.=104.529274, Alt.=75.670959m. Speed=24.804001m/h.</desc>
<speed>6.890000</speed>
</trkpt>
<trkpt lat="22.205692" lon="104.529549">
<ele>76.786194</ele>
<time>2011-04-28T02:44:44Z</time>
<desc>lat.=22.205692, lon.=104.529549, Alt.=76.786194m. Speed=24.228001m/h.</desc>
<speed>6.730000</speed>
</trkpt>
<trkpt lat="22.205553" lon="104.529846">
<ele>77.991272</ele>
<time>2011-04-28T02:44:49Z</time>
<desc>lat.=22.205553, lon.=104.529846, Alt.=77.991272m. Speed=21.348000m/h.</desc>
<speed>5.930000</speed>
</trkpt>
<trkpt lat="22.205429" lon="104.530136">
<ele>79.456116</ele>
<time>2011-04-28T02:44:54Z</time>
<desc>lat.=22.205429, lon.=104.530136, Alt.=79.456116m. Speed=22.176001m/h.</desc>
<speed>6.160000</speed>
</trkpt>
<trkpt lat="22.205309" lon="104.530365">
<ele>80.807678</ele>
<time>2011-04-28T02:44:59Z</time>
<desc>lat.=22.205309, lon.=104.530365, Alt.=80.807678m. Speed=15.624000m/h.</desc>
<speed>4.340000</speed>
</trkpt>
<trkpt lat="22.205200" lon="104.530533">
<ele>82.256897</ele>
<time>2011-04-28T02:45:04Z</time>
<desc>lat.=22.205200, lon.=104.530533, Alt.=82.256897m. Speed=14.868000m/h.</desc>
<speed>4.130000</speed>
</trkpt>
<trkpt lat="22.205118" lon="104.530678">
<ele>83.879944</ele>
<time>2011-04-28T02:45:09Z</time>
<desc>lat.=22.205118, lon.=104.530678, Alt.=83.879944m. Speed=7.632000m/h.</desc>
<speed>2.120000</speed>
</trkpt>
<trkpt lat="22.205078" lon="104.530838">
<ele>85.174866</ele>
<time>2011-04-28T02:45:14Z</time>
<desc>lat.=22.205078, lon.=104.530838, Alt.=85.174866m. Speed=9.612000m/h.</desc>
<speed>2.670000</speed>
</trkpt>
<trkpt lat="22.205070" lon="104.530983">
<ele>86.399475</ele>
<time>2011-04-28T02:45:19Z</time>
<desc>lat.=22.205070, lon.=104.530983, Alt.=86.399475m. Speed=2.844000m/h.</desc>
<speed>0.790000</speed>
</trkpt>
<trkpt lat="22.205063" lon="104.530975">
<ele>87.352600</ele>
<time>2011-04-28T02:45:24Z</time>
<desc>lat.=22.205063, lon.=104.530975, Alt.=87.352600m. Speed=2.268000m/h.</desc>
<speed>0.630000</speed>
</trkpt>
<trkpt lat="22.205063" lon="104.530960">
<ele>87.778381</ele>
<time>2011-04-28T02:45:29Z</time>
<desc>lat.=22.205063, lon.=104.530960, Alt.=87.778381m. Speed=0.324000m/h.</desc>
<speed>0.090000</speed>
</trkpt>
<trkpt lat="22.205061" lon="104.530952">
<ele>87.983459</ele>
<time>2011-04-28T02:45:34Z</time>
<desc>lat.=22.205061, lon.=104.530952, Alt.=87.983459m. Speed=0.504000m/h.</desc>
<speed>0.140000</speed>
</trkpt>
<trkpt lat="22.205048" lon="104.530952">
<ele>88.071350</ele>
<time>2011-04-28T02:45:39Z</time>
<desc>lat.=22.205048, lon.=104.530952, Alt.=88.071350m. Speed=1.188000m/h.</desc>
<speed>0.330000</speed>
</trkpt>
<trkpt lat="22.205038" lon="104.530952">
<ele>88.227600</ele>
<time>2011-04-28T02:45:44Z</time>
<desc>lat.=22.205038, lon.=104.530952, Alt.=88.227600m. Speed=0.540000m/h.</desc>
<speed>0.150000</speed>
</trkpt>
<trkpt lat="22.205040" lon="104.530952">
<ele>88.344788</ele>
<time>2011-04-28T02:45:49Z</time>
<desc>lat.=22.205040, lon.=104.530952, Alt.=88.344788m. Speed=0.072000m/h.</desc>
<speed>0.020000</speed>
</trkpt>
<trkpt lat="22.205044" lon="104.530960">
<ele>88.469788</ele>
<time>2011-04-28T02:45:54Z</time>
<desc>lat.=22.205044, lon.=104.530960, Alt.=88.469788m. Speed=1.800000m/h.</desc>
<speed>0.500000</speed>
</trkpt>
<trkpt lat="22.205034" lon="104.531036">
<ele>88.540100</ele>
<time>2011-04-28T02:45:59Z</time>
<desc>lat.=22.205034, lon.=104.531036, Alt.=88.540100m. Speed=6.660000m/h.</desc>
<speed>1.850000</speed>
</trkpt>
<trkpt lat="22.204994" lon="104.531174">
<ele>89.534241</ele>
<time>2011-04-28T02:46:04Z</time>
<desc>lat.=22.204994, lon.=104.531174, Alt.=89.534241m. Speed=8.748000m/h.</desc>
<speed>2.430000</speed>
</trkpt>
<trkpt lat="22.204967" lon="104.531326">
<ele>89.858459</ele>
<time>2011-04-28T02:46:09Z</time>
<desc>lat.=22.204967, lon.=104.531326, Alt.=89.858459m. Speed=10.980000m/h.</desc>
<speed>3.050000</speed>
</trkpt>
<trkpt lat="22.204876" lon="104.531464">
<ele>90.127991</ele>
<time>2011-04-28T02:46:14Z</time>
<desc>lat.=22.204876, lon.=104.531464, Alt.=90.127991m. Speed=11.628000m/h.</desc>
<speed>3.230000</speed>
</trkpt>
<trkpt lat="22.204817" lon="104.531593">
<ele>89.182678</ele>
<time>2011-04-28T02:46:19Z</time>
<desc>lat.=22.204817, lon.=104.531593, Alt.=89.182678m. Speed=8.964000m/h.</desc>
<speed>2.490000</speed>
</trkpt>
<trkpt lat="22.204744" lon="104.531708">
<ele>88.993225</ele>
<time>2011-04-28T02:46:24Z</time>
<desc>lat.=22.204744, lon.=104.531708, Alt.=88.993225m. Speed=6.552000m/h.</desc>
<speed>1.820000</speed>
</trkpt>
<trkpt lat="22.204655" lon="104.531830">
<ele>88.954163</ele>
<time>2011-04-28T02:46:29Z</time>
<desc>lat.=22.204655, lon.=104.531830, Alt.=88.954163m. Speed=8.172000m/h.</desc>
<speed>2.270000</speed>
</trkpt>
<trkpt lat="22.204592" lon="104.531929">
<ele>90.129944</ele>
<time>2011-04-28T02:46:34Z</time>
<desc>lat.=22.204592, lon.=104.531929, Alt.=90.129944m. Speed=7.236000m/h.</desc>
<speed>2.010000</speed>
</trkpt>
<trkpt lat="22.204544" lon="104.532043">
<ele>89.249084</ele>
<time>2011-04-28T02:46:39Z</time>
<desc>lat.=22.204544, lon.=104.532043, Alt.=89.249084m. Speed=6.624000m/h.</desc>
<speed>1.840000</speed>
</trkpt>
<trkpt lat="22.204439" lon="104.532104">
<ele>88.657288</ele>
<time>2011-04-28T02:46:44Z</time>
<desc>lat.=22.204439, lon.=104.532104, Alt.=88.657288m. Speed=9.036000m/h.</desc>
<speed>2.510000</speed>
</trkpt>
<trkpt lat="22.204350" lon="104.532219">
<ele>87.629944</ele>
<time>2011-04-28T02:46:49Z</time>
<desc>lat.=22.204350, lon.=104.532219, Alt.=87.629944m. Speed=12.888000m/h.</desc>
<speed>3.580000</speed>
</trkpt>
<trkpt lat="22.204184" lon="104.532288">
<ele>84.739319</ele>
<time>2011-04-28T02:46:54Z</time>
<desc>lat.=22.204184, lon.=104.532288, Alt.=84.739319m. Speed=13.644000m/h.</desc>
<speed>3.790000</speed>
</trkpt>
<trkpt lat="22.203987" lon="104.532310">
<ele>83.127991</ele>
<time>2011-04-28T02:46:59Z</time>
<desc>lat.=22.203987, lon.=104.532310, Alt.=83.127991m. Speed=19.007999m/h.</desc>
<speed>5.280000</speed>
</trkpt>
<trkpt lat="22.203745" lon="104.532318">
<ele>84.004944</ele>
<time>2011-04-28T02:47:04Z</time>
<desc>lat.=22.203745, lon.=104.532318, Alt.=84.004944m. Speed=17.496000m/h.</desc>
<speed>4.860000</speed>
</trkpt>
<trkpt lat="22.203568" lon="104.532425">
<ele>82.626038</ele>
<time>2011-04-28T02:47:09Z</time>
<desc>lat.=22.203568, lon.=104.532425, Alt.=82.626038m. Speed=16.271999m/h.</desc>
<speed>4.520000</speed>
</trkpt>
<trkpt lat="22.203468" lon="104.532631">
<ele>81.405334</ele>
<time>2011-04-28T02:47:14Z</time>
<desc>lat.=22.203468, lon.=104.532631, Alt.=81.405334m. Speed=13.824000m/h.</desc>
<speed>3.840000</speed>
</trkpt>
<trkpt lat="22.203400" lon="104.532837">
<ele>76.026428</ele>
<time>2011-04-28T02:47:19Z</time>
<desc>lat.=22.203400, lon.=104.532837, Alt.=76.026428m. Speed=11.052000m/h.</desc>
<speed>3.070000</speed>
</trkpt>
<trkpt lat="22.203411" lon="104.533058">
<ele>70.340881</ele>
<time>2011-04-28T02:47:24Z</time>
<desc>lat.=22.203411, lon.=104.533058, Alt.=70.340881m. Speed=12.888000m/h.</desc>
<speed>3.580000</speed>
</trkpt>
<trkpt lat="22.203451" lon="104.533218">
<ele>70.217834</ele>
<time>2011-04-28T02:47:29Z</time>
<desc>lat.=22.203451, lon.=104.533218, Alt.=70.217834m. Speed=12.852000m/h.</desc>
<speed>3.570000</speed>
</trkpt>
<trkpt lat="22.203558" lon="104.533401">
<ele>72.465881</ele>
<time>2011-04-28T02:47:34Z</time>
<desc>lat.=22.203558, lon.=104.533401, Alt.=72.465881m. Speed=13.788000m/h.</desc>
<speed>3.830000</speed>
</trkpt>
<trkpt lat="22.203671" lon="104.533600">
<ele>76.030334</ele>
<time>2011-04-28T02:47:39Z</time>
<desc>lat.=22.203671, lon.=104.533600, Alt.=76.030334m. Speed=15.264000m/h.</desc>
<speed>4.240000</speed>
</trkpt>
<trkpt lat="22.203720" lon="104.533783">
<ele>79.745178</ele>
<time>2011-04-28T02:47:44Z</time>
<desc>lat.=22.203720, lon.=104.533783, Alt.=79.745178m. Speed=15.660000m/h.</desc>
<speed>4.350000</speed>
</trkpt>
<trkpt lat="22.203735" lon="104.533989">
<ele>86.299866</ele>
<time>2011-04-28T02:47:49Z</time>
<desc>lat.=22.203735, lon.=104.533989, Alt.=86.299866m. Speed=10.944000m/h.</desc>
<speed>3.040000</speed>
</trkpt>
<trkpt lat="22.203741" lon="104.534073">
<ele>88.178772</ele>
<time>2011-04-28T02:47:54Z</time>
<desc>lat.=22.203741, lon.=104.534073, Alt.=88.178772m. Speed=2.340000m/h.</desc>
<speed>0.650000</speed>
</trkpt>
<trkpt lat="22.203733" lon="104.534088">
<ele>90.903381</ele>
<time>2011-04-28T02:47:59Z</time>
<desc>lat.=22.203733, lon.=104.534088, Alt.=90.903381m. Speed=0.684000m/h.</desc>
<speed>0.190000</speed>
</trkpt>
<trkpt lat="22.203730" lon="104.534081">
<ele>91.522522</ele>
<time>2011-04-28T02:48:04Z</time>
<desc>lat.=22.203730, lon.=104.534081, Alt.=91.522522m. Speed=0.324000m/h.</desc>
<speed>0.090000</speed>
</trkpt>
<trkpt lat="22.203726" lon="104.534081">
<ele>91.735413</ele>
<time>2011-04-28T02:48:09Z</time>
<desc>lat.=22.203726, lon.=104.534081, Alt.=91.735413m. Speed=1.080000m/h.</desc>
<speed>0.300000</speed>
</trkpt>
<trkpt lat="22.203712" lon="104.534088">
<ele>91.928772</ele>
<time>2011-04-28T02:48:14Z</time>
<desc>lat.=22.203712, lon.=104.534088, Alt.=91.928772m. Speed=0.900000m/h.</desc>
<speed>0.250000</speed>
</trkpt>
<trkpt lat="22.203703" lon="104.534088">
<ele>92.001038</ele>
<time>2011-04-28T02:48:19Z</time>
<desc>lat.=22.203703, lon.=104.534088, Alt.=92.001038m. Speed=0.936000m/h.</desc>
<speed>0.260000</speed>
</trkpt>
<trkpt lat="22.203695" lon="104.534088">
<ele>92.030334</ele>
<time>2011-04-28T02:48:24Z</time>
<desc>lat.=22.203695, lon.=104.534088, Alt.=92.030334m. Speed=0.216000m/h.</desc>
<speed>0.060000</speed>
</trkpt>
<trkpt lat="22.203691" lon="104.534088">
<ele>92.051819</ele>
<time>2011-04-28T02:48:29Z</time>
<desc>lat.=22.203691, lon.=104.534088, Alt.=92.051819m. Speed=0.504000m/h.</desc>
<speed>0.140000</speed>
</trkpt>
<trkpt lat="22.203688" lon="104.534103">
<ele>92.137756</ele>
<time>2011-04-28T02:48:34Z</time>
<desc>lat.=22.203688, lon.=104.534103, Alt.=92.137756m. Speed=3.240000m/h.</desc>
<speed>0.900000</speed>
</trkpt>
<trkpt lat="22.203697" lon="104.534210">
<ele>91.960022</ele>
<time>2011-04-28T02:48:39Z</time>
<desc>lat.=22.203697, lon.=104.534210, Alt.=91.960022m. Speed=9.504000m/h.</desc>
<speed>2.640000</speed>
</trkpt>
<trkpt lat="22.203659" lon="104.534416">
<ele>92.600647</ele>
<time>2011-04-28T02:48:44Z</time>
<desc>lat.=22.203659, lon.=104.534416, Alt.=92.600647m. Speed=14.328000m/h.</desc>
<speed>3.980000</speed>
</trkpt>
<trkpt lat="22.203539" lon="104.534630">
<ele>91.426819</ele>
<time>2011-04-28T02:48:49Z</time>
<desc>lat.=22.203539, lon.=104.534630, Alt.=91.426819m. Speed=18.000000m/h.</desc>
<speed>5.000000</speed>
</trkpt>
<trkpt lat="22.203388" lon="104.534943">
<ele>89.417053</ele>
<time>2011-04-28T02:48:54Z</time>
<desc>lat.=22.203388, lon.=104.534943, Alt.=89.417053m. Speed=24.156000m/h.</desc>
<speed>6.710000</speed>
</trkpt>
<trkpt lat="22.203285" lon="104.535210">
<ele>88.559631</ele>
<time>2011-04-28T02:48:59Z</time>
<desc>lat.=22.203285, lon.=104.535210, Alt.=88.559631m. Speed=14.364000m/h.</desc>
<speed>3.990000</speed>
</trkpt>
<trkpt lat="22.203190" lon="104.535439">
<ele>85.163147</ele>
<time>2011-04-28T02:49:04Z</time>
<desc>lat.=22.203190, lon.=104.535439, Alt.=85.163147m. Speed=11.988000m/h.</desc>
<speed>3.330000</speed>
</trkpt>
<trkpt lat="22.203089" lon="104.535675">
<ele>83.176819</ele>
<time>2011-04-28T02:49:09Z</time>
<desc>lat.=22.203089, lon.=104.535675, Alt.=83.176819m. Speed=18.504000m/h.</desc>
<speed>5.140000</speed>
</trkpt>
<trkpt lat="22.202906" lon="104.535934">
<ele>81.924866</ele>
<time>2011-04-28T02:49:14Z</time>
<desc>lat.=22.202906, lon.=104.535934, Alt.=81.924866m. Speed=18.648001m/h.</desc>
<speed>5.180000</speed>
</trkpt>
<trkpt lat="22.202751" lon="104.536209">
<ele>81.792053</ele>
<time>2011-04-28T02:49:19Z</time>
<desc>lat.=22.202751, lon.=104.536209, Alt.=81.792053m. Speed=18.468000m/h.</desc>
<speed>5.130000</speed>
</trkpt>
<trkpt lat="22.202667" lon="104.536446">
<ele>82.260803</ele>
<time>2011-04-28T02:49:24Z</time>
<desc>lat.=22.202667, lon.=104.536446, Alt.=82.260803m. Speed=12.060000m/h.</desc>
<speed>3.350000</speed>
</trkpt>
<trkpt lat="22.202560" lon="104.536629">
<ele>83.504944</ele>
<time>2011-04-28T02:49:29Z</time>
<desc>lat.=22.202560, lon.=104.536629, Alt.=83.504944m. Speed=13.104000m/h.</desc>
<speed>3.640000</speed>
</trkpt>
<trkpt lat="22.202436" lon="104.536758">
<ele>83.877991</ele>
<time>2011-04-28T02:49:34Z</time>
<desc>lat.=22.202436, lon.=104.536758, Alt.=83.877991m. Speed=12.816000m/h.</desc>
<speed>3.560000</speed>
</trkpt>
<trkpt lat="22.202322" lon="104.536942">
<ele>84.540100</ele>
<time>2011-04-28T02:49:39Z</time>
<desc>lat.=22.202322, lon.=104.536942, Alt.=84.540100m. Speed=12.096000m/h.</desc>
<speed>3.360000</speed>
</trkpt>
<trkpt lat="22.202164" lon="104.537125">
<ele>85.764709</ele>
<time>2011-04-28T02:49:44Z</time>
<desc>lat.=22.202164, lon.=104.537125, Alt.=85.764709m. Speed=16.884001m/h.</desc>
<speed>4.690000</speed>
</trkpt>
<trkpt lat="22.202017" lon="104.537323">
<ele>85.403381</ele>
<time>2011-04-28T02:49:49Z</time>
<desc>lat.=22.202017, lon.=104.537323, Alt.=85.403381m. Speed=17.063999m/h.</desc>
<speed>4.740000</speed>
</trkpt>
<trkpt lat="22.201860" lon="104.537506">
<ele>85.540100</ele>
<time>2011-04-28T02:49:54Z</time>
<desc>lat.=22.201860, lon.=104.537506, Alt.=85.540100m. Speed=18.576000m/h.</desc>
<speed>5.160000</speed>
</trkpt>
<trkpt lat="22.201694" lon="104.537735">
<ele>85.270569</ele>
<time>2011-04-28T02:49:59Z</time>
<desc>lat.=22.201694, lon.=104.537735, Alt.=85.270569m. Speed=21.204000m/h.</desc>
<speed>5.890000</speed>
</trkpt>
<trkpt lat="22.201456" lon="104.537964">
<ele>84.840881</ele>
<time>2011-04-28T02:50:04Z</time>
<desc>lat.=22.201456, lon.=104.537964, Alt.=84.840881m. Speed=25.308001m/h.</desc>
<speed>7.030000</speed>
</trkpt>
<trkpt lat="22.201229" lon="104.538223">
<ele>84.772522</ele>
<time>2011-04-28T02:50:09Z</time>
<desc>lat.=22.201229, lon.=104.538223, Alt.=84.772522m. Speed=20.628000m/h.</desc>
<speed>5.730000</speed>
</trkpt>
<trkpt lat="22.201139" lon="104.538528">
<ele>84.315491</ele>
<time>2011-04-28T02:50:14Z</time>
<desc>lat.=22.201139, lon.=104.538528, Alt.=84.315491m. Speed=22.427999m/h.</desc>
<speed>6.230000</speed>
</trkpt>
<trkpt lat="22.201077" lon="104.538857">
<ele>83.961975</ele>
<time>2011-04-28T02:50:19Z</time>
<desc>lat.=22.201077, lon.=104.538857, Alt.=83.961975m. Speed=24.084000m/h.</desc>
<speed>6.690000</speed>
</trkpt>
<trkpt lat="22.200974" lon="104.539124">
<ele>83.528381</ele>
<time>2011-04-28T02:50:24Z</time>
<desc>lat.=22.200974, lon.=104.539124, Alt.=83.528381m. Speed=17.351999m/h.</desc>
<speed>4.820000</speed>
</trkpt>
<trkpt lat="22.200848" lon="104.539375">
<ele>83.192444</ele>
<time>2011-04-28T02:50:29Z</time>
<desc>lat.=22.200848, lon.=104.539375, Alt.=83.192444m. Speed=17.532000m/h.</desc>
<speed>4.870000</speed>
</trkpt>
<trkpt lat="22.200764" lon="104.539619">
<ele>86.526428</ele>
<time>2011-04-28T02:50:34Z</time>
<desc>lat.=22.200764, lon.=104.539619, Alt.=86.526428m. Speed=12.312000m/h.</desc>
<speed>3.420000</speed>
</trkpt>
<trkpt lat="22.200697" lon="104.539848">
<ele>87.040100</ele>
<time>2011-04-28T02:50:39Z</time>
<desc>lat.=22.200697, lon.=104.539848, Alt.=87.040100m. Speed=13.392000m/h.</desc>
<speed>3.720000</speed>
</trkpt>
<trkpt lat="22.200617" lon="104.540039">
<ele>87.249084</ele>
<time>2011-04-28T02:50:44Z</time>
<desc>lat.=22.200617, lon.=104.540039, Alt.=87.249084m. Speed=11.412000m/h.</desc>
<speed>3.170000</speed>
</trkpt>
<trkpt lat="22.200497" lon="104.540230">
<ele>86.633850</ele>
<time>2011-04-28T02:50:49Z</time>
<desc>lat.=22.200497, lon.=104.540230, Alt.=86.633850m. Speed=12.492000m/h.</desc>
<speed>3.470000</speed>
</trkpt>
<trkpt lat="22.200350" lon="104.540428">
<ele>86.096741</ele>
<time>2011-04-28T02:50:54Z</time>
<desc>lat.=22.200350, lon.=104.540428, Alt.=86.096741m. Speed=19.260000m/h.</desc>
<speed>5.350000</speed>
</trkpt>
<trkpt lat="22.200220" lon="104.540733">
<ele>83.782288</ele>
<time>2011-04-28T02:50:59Z</time>
<desc>lat.=22.200220, lon.=104.540733, Alt.=83.782288m. Speed=22.788000m/h.</desc>
<speed>6.330000</speed>
</trkpt>
<trkpt lat="22.200178" lon="104.541054">
<ele>82.719788</ele>
<time>2011-04-28T02:51:04Z</time>
<desc>lat.=22.200178, lon.=104.541054, Alt.=82.719788m. Speed=22.464001m/h.</desc>
<speed>6.240000</speed>
</trkpt>
<trkpt lat="22.200211" lon="104.541397">
<ele>81.094788</ele>
<time>2011-04-28T02:51:09Z</time>
<desc>lat.=22.200211, lon.=104.541397, Alt.=81.094788m. Speed=21.420000m/h.</desc>
<speed>5.950000</speed>
</trkpt>
<trkpt lat="22.200211" lon="104.541702">
<ele>78.528381</ele>
<time>2011-04-28T02:51:14Z</time>
<desc>lat.=22.200211, lon.=104.541702, Alt.=78.528381m. Speed=19.728001m/h.</desc>
<speed>5.480000</speed>
</trkpt>
<trkpt lat="22.200205" lon="104.541985">
<ele>80.387756</ele>
<time>2011-04-28T02:51:19Z</time>
<desc>lat.=22.200205, lon.=104.541985, Alt.=80.387756m. Speed=21.672001m/h.</desc>
<speed>6.020000</speed>
</trkpt>
<trkpt lat="22.200161" lon="104.542252">
<ele>80.551819</ele>
<time>2011-04-28T02:51:24Z</time>
<desc>lat.=22.200161, lon.=104.542252, Alt.=80.551819m. Speed=18.252001m/h.</desc>
<speed>5.070000</speed>
</trkpt>
<trkpt lat="22.200184" lon="104.542534">
<ele>83.083069</ele>
<time>2011-04-28T02:51:29Z</time>
<desc>lat.=22.200184, lon.=104.542534, Alt.=83.083069m. Speed=17.243999m/h.</desc>
<speed>4.790000</speed>
</trkpt>
<trkpt lat="22.200163" lon="104.542809">
<ele>84.934631</ele>
<time>2011-04-28T02:51:34Z</time>
<desc>lat.=22.200163, lon.=104.542809, Alt.=84.934631m. Speed=16.596001m/h.</desc>
<speed>4.610000</speed>
</trkpt>
<trkpt lat="22.200029" lon="104.543030">
<ele>84.200256</ele>
<time>2011-04-28T02:51:39Z</time>
<desc>lat.=22.200029, lon.=104.543030, Alt.=84.200256m. Speed=16.020000m/h.</desc>
<speed>4.450000</speed>
</trkpt>
<trkpt lat="22.199837" lon="104.543144">
<ele>79.975647</ele>
<time>2011-04-28T02:51:44Z</time>
<desc>lat.=22.199837, lon.=104.543144, Alt.=79.975647m. Speed=10.548000m/h.</desc>
<speed>2.930000</speed>
</trkpt>
<trkpt lat="22.199644" lon="104.543167">
<ele>77.903381</ele>
<time>2011-04-28T02:51:49Z</time>
<desc>lat.=22.199644, lon.=104.543167, Alt.=77.903381m. Speed=15.768000m/h.</desc>
<speed>4.380000</speed>
</trkpt>
<trkpt lat="22.199463" lon="104.543182">
<ele>79.450256</ele>
<time>2011-04-28T02:51:54Z</time>
<desc>lat.=22.199463, lon.=104.543182, Alt.=79.450256m. Speed=11.664000m/h.</desc>
<speed>3.240000</speed>
</trkpt>
<trkpt lat="22.199350" lon="104.543274">
<ele>82.856506</ele>
<time>2011-04-28T02:51:59Z</time>
<desc>lat.=22.199350, lon.=104.543274, Alt.=82.856506m. Speed=13.464000m/h.</desc>
<speed>3.740000</speed>
</trkpt>
<trkpt lat="22.199205" lon="104.543465">
<ele>84.430725</ele>
<time>2011-04-28T02:52:04Z</time>
<desc>lat.=22.199205, lon.=104.543465, Alt.=84.430725m. Speed=15.984000m/h.</desc>
<speed>4.440000</speed>
</trkpt>
<trkpt lat="22.199093" lon="104.543724">
<ele>78.034241</ele>
<time>2011-04-28T02:52:09Z</time>
<desc>lat.=22.199093, lon.=104.543724, Alt.=78.034241m. Speed=14.940000m/h.</desc>
<speed>4.150000</speed>
</trkpt>
<trkpt lat="22.199060" lon="104.543915">
<ele>76.821350</ele>
<time>2011-04-28T02:52:14Z</time>
<desc>lat.=22.199060, lon.=104.543915, Alt.=76.821350m. Speed=11.556000m/h.</desc>
<speed>3.210000</speed>
</trkpt>
<trkpt lat="22.199154" lon="104.544044">
<ele>77.864319</ele>
<time>2011-04-28T02:52:19Z</time>
<desc>lat.=22.199154, lon.=104.544044, Alt.=77.864319m. Speed=12.996000m/h.</desc>
<speed>3.610000</speed>
</trkpt>
<trkpt lat="22.199329" lon="104.544174">
<ele>77.247131</ele>
<time>2011-04-28T02:52:24Z</time>
<desc>lat.=22.199329, lon.=104.544174, Alt.=77.247131m. Speed=15.372000m/h.</desc>
<speed>4.270000</speed>
</trkpt>
<trkpt lat="22.199482" lon="104.544266">
<ele>77.729553</ele>
<time>2011-04-28T02:52:29Z</time>
<desc>lat.=22.199482, lon.=104.544266, Alt.=77.729553m. Speed=12.024000m/h.</desc>
<speed>3.340000</speed>
</trkpt>
<trkpt lat="22.199532" lon="104.544464">
<ele>77.823303</ele>
<time>2011-04-28T02:52:34Z</time>
<desc>lat.=22.199532, lon.=104.544464, Alt.=77.823303m. Speed=14.688000m/h.</desc>
<speed>4.080000</speed>
</trkpt>
<trkpt lat="22.199467" lon="104.544655">
<ele>78.536194</ele>
<time>2011-04-28T02:52:39Z</time>
<desc>lat.=22.199467, lon.=104.544655, Alt.=78.536194m. Speed=13.212000m/h.</desc>
<speed>3.670000</speed>
</trkpt>
<trkpt lat="22.199423" lon="104.544830">
<ele>79.251038</ele>
<time>2011-04-28T02:52:44Z</time>
<desc>lat.=22.199423, lon.=104.544830, Alt.=79.251038m. Speed=11.808000m/h.</desc>
<speed>3.280000</speed>
</trkpt>
<trkpt lat="22.199400" lon="104.545044">
<ele>79.797913</ele>
<time>2011-04-28T02:52:49Z</time>
<desc>lat.=22.199400, lon.=104.545044, Alt.=79.797913m. Speed=14.976000m/h.</desc>
<speed>4.160000</speed>
</trkpt>
<trkpt lat="22.199442" lon="104.545288">
<ele>80.067444</ele>
<time>2011-04-28T02:52:54Z</time>
<desc>lat.=22.199442, lon.=104.545288, Alt.=80.067444m. Speed=16.488001m/h.</desc>
<speed>4.580000</speed>
</trkpt>
<trkpt lat="22.199497" lon="104.545517">
<ele>80.655334</ele>
<time>2011-04-28T02:52:59Z</time>
<desc>lat.=22.199497, lon.=104.545517, Alt.=80.655334m. Speed=16.812000m/h.</desc>
<speed>4.670000</speed>
</trkpt>
<trkpt lat="22.199486" lon="104.545753">
<ele>81.450256</ele>
<time>2011-04-28T02:53:04Z</time>
<desc>lat.=22.199486, lon.=104.545753, Alt.=81.450256m. Speed=14.364000m/h.</desc>
<speed>3.990000</speed>
</trkpt>
<trkpt lat="22.199417" lon="104.545959">
<ele>82.030334</ele>
<time>2011-04-28T02:53:09Z</time>
<desc>lat.=22.199417, lon.=104.545959, Alt.=82.030334m. Speed=14.076000m/h.</desc>
<speed>3.910000</speed>
</trkpt>
<trkpt lat="22.199457" lon="104.546181">
<ele>82.407288</ele>
<time>2011-04-28T02:53:14Z</time>
<desc>lat.=22.199457, lon.=104.546181, Alt.=82.407288m. Speed=17.063999m/h.</desc>
<speed>4.740000</speed>
</trkpt>
<trkpt lat="22.199440" lon="104.546455">
<ele>82.751038</ele>
<time>2011-04-28T02:53:19Z</time>
<desc>lat.=22.199440, lon.=104.546455, Alt.=82.751038m. Speed=15.048000m/h.</desc>
<speed>4.180000</speed>
</trkpt>
<trkpt lat="22.199440" lon="104.546700">
<ele>83.426819</ele>
<time>2011-04-28T02:53:24Z</time>
<desc>lat.=22.199440, lon.=104.546700, Alt.=83.426819m. Speed=16.704000m/h.</desc>
<speed>4.640000</speed>
</trkpt>
<trkpt lat="22.199467" lon="104.546951">
<ele>84.713928</ele>
<time>2011-04-28T02:53:29Z</time>
<desc>lat.=22.199467, lon.=104.546951, Alt.=84.713928m. Speed=19.152000m/h.</desc>
<speed>5.320000</speed>
</trkpt>
<trkpt lat="22.199572" lon="104.547173">
<ele>85.504944</ele>
<time>2011-04-28T02:53:34Z</time>
<desc>lat.=22.199572, lon.=104.547173, Alt.=85.504944m. Speed=17.316000m/h.</desc>
<speed>4.810000</speed>
</trkpt>
<trkpt lat="22.199615" lon="104.547462">
<ele>85.758850</ele>
<time>2011-04-28T02:53:39Z</time>
<desc>lat.=22.199615, lon.=104.547462, Alt.=85.758850m. Speed=17.316000m/h.</desc>
<speed>4.810000</speed>
</trkpt>
<trkpt lat="22.199625" lon="104.547752">
<ele>85.323303</ele>
<time>2011-04-28T02:53:44Z</time>
<desc>lat.=22.199625, lon.=104.547752, Alt.=85.323303m. Speed=16.704000m/h.</desc>
<speed>4.640000</speed>
</trkpt>
<trkpt lat="22.199663" lon="104.547997">
<ele>84.432678</ele>
<time>2011-04-28T02:53:49Z</time>
<desc>lat.=22.199663, lon.=104.547997, Alt.=84.432678m. Speed=13.608000m/h.</desc>
<speed>3.780000</speed>
</trkpt>
<trkpt lat="22.199680" lon="104.548187">
<ele>84.200256</ele>
<time>2011-04-28T02:53:54Z</time>
<desc>lat.=22.199680, lon.=104.548187, Alt.=84.200256m. Speed=9.504000m/h.</desc>
<speed>2.640000</speed>
</trkpt>
<trkpt lat="22.199722" lon="104.548317">
<ele>83.887756</ele>
<time>2011-04-28T02:53:59Z</time>
<desc>lat.=22.199722, lon.=104.548317, Alt.=83.887756m. Speed=10.188000m/h.</desc>
<speed>2.830000</speed>
</trkpt>
<trkpt lat="22.199726" lon="104.548492">
<ele>83.629944</ele>
<time>2011-04-28T02:54:04Z</time>
<desc>lat.=22.199726, lon.=104.548492, Alt.=83.629944m. Speed=9.504000m/h.</desc>
<speed>2.640000</speed>
</trkpt>
<trkpt lat="22.199730" lon="104.548668">
<ele>83.362366</ele>
<time>2011-04-28T02:54:09Z</time>
<desc>lat.=22.199730, lon.=104.548668, Alt.=83.362366m. Speed=8.244000m/h.</desc>
<speed>2.290000</speed>
</trkpt>
<trkpt lat="22.199749" lon="104.548828">
<ele>83.583069</ele>
<time>2011-04-28T02:54:14Z</time>
<desc>lat.=22.199749, lon.=104.548828, Alt.=83.583069m. Speed=11.088000m/h.</desc>
<speed>3.080000</speed>
</trkpt>
<trkpt lat="22.199781" lon="104.548996">
<ele>82.991272</ele>
<time>2011-04-28T02:54:19Z</time>
<desc>lat.=22.199781, lon.=104.548996, Alt.=82.991272m. Speed=11.448000m/h.</desc>
<speed>3.180000</speed>
</trkpt>
<trkpt lat="22.199814" lon="104.549164">
<ele>82.917053</ele>
<time>2011-04-28T02:54:24Z</time>
<desc>lat.=22.199814, lon.=104.549164, Alt.=82.917053m. Speed=13.212000m/h.</desc>
<speed>3.670000</speed>
</trkpt>
<trkpt lat="22.199894" lon="104.549324">
<ele>82.364319</ele>
<time>2011-04-28T02:54:29Z</time>
<desc>lat.=22.199894, lon.=104.549324, Alt.=82.364319m. Speed=15.300000m/h.</desc>
<speed>4.250000</speed>
</trkpt>
<trkpt lat="22.200125" lon="104.549492">
<ele>82.229553</ele>
<time>2011-04-28T02:54:34Z</time>
<desc>lat.=22.200125, lon.=104.549492, Alt.=82.229553m. Speed=20.952000m/h.</desc>
<speed>5.820000</speed>
</trkpt>
<trkpt lat="22.200287" lon="104.549782">
<ele>82.356506</ele>
<time>2011-04-28T02:54:39Z</time>
<desc>lat.=22.200287, lon.=104.549782, Alt.=82.356506m. Speed=26.136000m/h.</desc>
<speed>7.260000</speed>
</trkpt>
<trkpt lat="22.200445" lon="104.550133">
<ele>82.647522</ele>
<time>2011-04-28T02:54:44Z</time>
<desc>lat.=22.200445, lon.=104.550133, Alt.=82.647522m. Speed=24.048000m/h.</desc>
<speed>6.680000</speed>
</trkpt>
<trkpt lat="22.200407" lon="104.550430">
<ele>82.745178</ele>
<time>2011-04-28T02:54:49Z</time>
<desc>lat.=22.200407, lon.=104.550430, Alt.=82.745178m. Speed=18.900000m/h.</desc>
<speed>5.250000</speed>
</trkpt>
<trkpt lat="22.200308" lon="104.550697">
<ele>83.469788</ele>
<time>2011-04-28T02:54:54Z</time>
<desc>lat.=22.200308, lon.=104.550697, Alt.=83.469788m. Speed=15.912000m/h.</desc>
<speed>4.420000</speed>
</trkpt>
<trkpt lat="22.200201" lon="104.550934">
<ele>83.860413</ele>
<time>2011-04-28T02:54:59Z</time>
<desc>lat.=22.200201, lon.=104.550934, Alt.=83.860413m. Speed=18.972000m/h.</desc>
<speed>5.270000</speed>
</trkpt>
<trkpt lat="22.200172" lon="104.551186">
<ele>85.362366</ele>
<time>2011-04-28T02:55:04Z</time>
<desc>lat.=22.200172, lon.=104.551186, Alt.=85.362366m. Speed=16.020000m/h.</desc>
<speed>4.450000</speed>
</trkpt>
<trkpt lat="22.200127" lon="104.551437">
<ele>85.178772</ele>
<time>2011-04-28T02:55:09Z</time>
<desc>lat.=22.200127, lon.=104.551437, Alt.=85.178772m. Speed=17.208000m/h.</desc>
<speed>4.780000</speed>
</trkpt>
<trkpt lat="22.200054" lon="104.551712">
<ele>86.387756</ele>
<time>2011-04-28T02:55:14Z</time>
<desc>lat.=22.200054, lon.=104.551712, Alt.=86.387756m. Speed=20.016001m/h.</desc>
<speed>5.560000</speed>
</trkpt>
<trkpt lat="22.199883" lon="104.551971">
<ele>86.260803</ele>
<time>2011-04-28T02:55:19Z</time>
<desc>lat.=22.199883, lon.=104.551971, Alt.=86.260803m. Speed=21.024000m/h.</desc>
<speed>5.840000</speed>
</trkpt>
<trkpt lat="22.199673" lon="104.552170">
<ele>86.471741</ele>
<time>2011-04-28T02:55:24Z</time>
<desc>lat.=22.199673, lon.=104.552170, Alt.=86.471741m. Speed=19.403999m/h.</desc>
<speed>5.390000</speed>
</trkpt>
<trkpt lat="22.199480" lon="104.552322">
<ele>87.161194</ele>
<time>2011-04-28T02:55:29Z</time>
<desc>lat.=22.199480, lon.=104.552322, Alt.=87.161194m. Speed=19.115999m/h.</desc>
<speed>5.310000</speed>
</trkpt>
<trkpt lat="22.199345" lon="104.552490">
<ele>87.167053</ele>
<time>2011-04-28T02:55:34Z</time>
<desc>lat.=22.199345, lon.=104.552490, Alt.=87.167053m. Speed=13.824000m/h.</desc>
<speed>3.840000</speed>
</trkpt>
<trkpt lat="22.199282" lon="104.552689">
<ele>87.692444</ele>
<time>2011-04-28T02:55:39Z</time>
<desc>lat.=22.199282, lon.=104.552689, Alt.=87.692444m. Speed=12.960000m/h.</desc>
<speed>3.600000</speed>
</trkpt>
<trkpt lat="22.199177" lon="104.552910">
<ele>88.579163</ele>
<time>2011-04-28T02:55:44Z</time>
<desc>lat.=22.199177, lon.=104.552910, Alt.=88.579163m. Speed=13.032000m/h.</desc>
<speed>3.620000</speed>
</trkpt>
<trkpt lat="22.199062" lon="104.553078">
<ele>89.440491</ele>
<time>2011-04-28T02:55:49Z</time>
<desc>lat.=22.199062, lon.=104.553078, Alt.=89.440491m. Speed=11.772000m/h.</desc>
<speed>3.270000</speed>
</trkpt>
<trkpt lat="22.198839" lon="104.553207">
<ele>90.161194</ele>
<time>2011-04-28T02:55:54Z</time>
<desc>lat.=22.198839, lon.=104.553207, Alt.=90.161194m. Speed=17.063999m/h.</desc>
<speed>4.740000</speed>
</trkpt>
<trkpt lat="22.198656" lon="104.553329">
<ele>90.600647</ele>
<time>2011-04-28T02:55:59Z</time>
<desc>lat.=22.198656, lon.=104.553329, Alt.=90.600647m. Speed=17.316000m/h.</desc>
<speed>4.810000</speed>
</trkpt>
<trkpt lat="22.198511" lon="104.553581">
<ele>90.942444</ele>
<time>2011-04-28T02:56:04Z</time>
<desc>lat.=22.198511, lon.=104.553581, Alt.=90.942444m. Speed=15.264000m/h.</desc>
<speed>4.240000</speed>
</trkpt>
<trkpt lat="22.198406" lon="104.553780">
<ele>91.292053</ele>
<time>2011-04-28T02:56:09Z</time>
<desc>lat.=22.198406, lon.=104.553780, Alt.=91.292053m. Speed=13.032000m/h.</desc>
<speed>3.620000</speed>
</trkpt>
<trkpt lat="22.198280" lon="104.553970">
<ele>91.891663</ele>
<time>2011-04-28T02:56:14Z</time>
<desc>lat.=22.198280, lon.=104.553970, Alt.=91.891663m. Speed=13.176000m/h.</desc>
<speed>3.660000</speed>
</trkpt>
<trkpt lat="22.198206" lon="104.554146">
<ele>92.960022</ele>
<time>2011-04-28T02:56:19Z</time>
<desc>lat.=22.198206, lon.=104.554146, Alt.=92.960022m. Speed=9.360000m/h.</desc>
<speed>2.600000</speed>
</trkpt>
<trkpt lat="22.198069" lon="104.554405">
<ele>91.669006</ele>
<time>2011-04-28T02:56:24Z</time>
<desc>lat.=22.198069, lon.=104.554405, Alt.=91.669006m. Speed=15.300000m/h.</desc>
<speed>4.250000</speed>
</trkpt>
<trkpt lat="22.197935" lon="104.554649">
<ele>91.624084</ele>
<time>2011-04-28T02:56:29Z</time>
<desc>lat.=22.197935, lon.=104.554649, Alt.=91.624084m. Speed=16.848000m/h.</desc>
<speed>4.680000</speed>
</trkpt>
<trkpt lat="22.197855" lon="104.554817">
<ele>91.790100</ele>
<time>2011-04-28T02:56:34Z</time>
<desc>lat.=22.197855, lon.=104.554817, Alt.=91.790100m. Speed=12.960000m/h.</desc>
<speed>3.600000</speed>
</trkpt>
<trkpt lat="22.197731" lon="104.555031">
<ele>92.249084</ele>
<time>2011-04-28T02:56:39Z</time>
<desc>lat.=22.197731, lon.=104.555031, Alt.=92.249084m. Speed=14.868000m/h.</desc>
<speed>4.130000</speed>
</trkpt>
<trkpt lat="22.197552" lon="104.555214">
<ele>92.864319</ele>
<time>2011-04-28T02:56:44Z</time>
<desc>lat.=22.197552, lon.=104.555214, Alt.=92.864319m. Speed=16.344000m/h.</desc>
<speed>4.540000</speed>
</trkpt>
<trkpt lat="22.197495" lon="104.555412">
<ele>93.467834</ele>
<time>2011-04-28T02:56:49Z</time>
<desc>lat.=22.197495, lon.=104.555412, Alt.=93.467834m. Speed=15.912000m/h.</desc>
<speed>4.420000</speed>
</trkpt>
<trkpt lat="22.197519" lon="104.555634">
<ele>94.190491</ele>
<time>2011-04-28T02:56:54Z</time>
<desc>lat.=22.197519, lon.=104.555634, Alt.=94.190491m. Speed=13.032000m/h.</desc>
<speed>3.620000</speed>
</trkpt>
<trkpt lat="22.197496" lon="104.555794">
<ele>94.983459</ele>
<time>2011-04-28T02:56:59Z</time>
<desc>lat.=22.197496, lon.=104.555794, Alt.=94.983459m. Speed=7.884000m/h.</desc>
<speed>2.190000</speed>
</trkpt>
<trkpt lat="22.197498" lon="104.555931">
<ele>96.210022</ele>
<time>2011-04-28T02:57:04Z</time>
<desc>lat.=22.197498, lon.=104.555931, Alt.=96.210022m. Speed=8.388000m/h.</desc>
<speed>2.330000</speed>
</trkpt>
<trkpt lat="22.197487" lon="104.556061">
<ele>96.993225</ele>
<time>2011-04-28T02:57:09Z</time>
<desc>lat.=22.197487, lon.=104.556061, Alt.=96.993225m. Speed=7.992000m/h.</desc>
<speed>2.220000</speed>
</trkpt>
<trkpt lat="22.197454" lon="104.556175">
<ele>97.573303</ele>
<time>2011-04-28T02:57:14Z</time>
<desc>lat.=22.197454, lon.=104.556175, Alt.=97.573303m. Speed=8.280000m/h.</desc>
<speed>2.300000</speed>
</trkpt>
<trkpt lat="22.197393" lon="104.556305">
<ele>98.251038</ele>
<time>2011-04-28T02:57:19Z</time>
<desc>lat.=22.197393, lon.=104.556305, Alt.=98.251038m. Speed=7.056000m/h.</desc>
<speed>1.960000</speed>
</trkpt>
<trkpt lat="22.197332" lon="104.556412">
<ele>98.512756</ele>
<time>2011-04-28T02:57:24Z</time>
<desc>lat.=22.197332, lon.=104.556412, Alt.=98.512756m. Speed=6.840000m/h.</desc>
<speed>1.900000</speed>
</trkpt>
<trkpt lat="22.197252" lon="104.556549">
<ele>98.737366</ele>
<time>2011-04-28T02:57:29Z</time>
<desc>lat.=22.197252, lon.=104.556549, Alt.=98.737366m. Speed=12.348000m/h.</desc>
<speed>3.430000</speed>
</trkpt>
<trkpt lat="22.197071" lon="104.556778">
<ele>98.952209</ele>
<time>2011-04-28T02:57:34Z</time>
<desc>lat.=22.197071, lon.=104.556778, Alt.=98.952209m. Speed=20.591999m/h.</desc>
<speed>5.720000</speed>
</trkpt>
<trkpt lat="22.196917" lon="104.557037">
<ele>99.475647</ele>
<time>2011-04-28T02:57:39Z</time>
<desc>lat.=22.196917, lon.=104.557037, Alt.=99.475647m. Speed=19.872000m/h.</desc>
<speed>5.520000</speed>
</trkpt>
<trkpt lat="22.196867" lon="104.557373">
<ele>100.323303</ele>
<time>2011-04-28T02:57:44Z</time>
<desc>lat.=22.196867, lon.=104.557373, Alt.=100.323303m. Speed=22.068001m/h.</desc>
<speed>6.130000</speed>
</trkpt>
<trkpt lat="22.196812" lon="104.557671">
<ele>100.157288</ele>
<time>2011-04-28T02:57:49Z</time>
<desc>lat.=22.196812, lon.=104.557671, Alt.=100.157288m. Speed=20.412001m/h.</desc>
<speed>5.670000</speed>
</trkpt>
<trkpt lat="22.196722" lon="104.557945">
<ele>99.708069</ele>
<time>2011-04-28T02:57:54Z</time>
<desc>lat.=22.196722, lon.=104.557945, Alt.=99.708069m. Speed=17.784000m/h.</desc>
<speed>4.940000</speed>
</trkpt>
<trkpt lat="22.196692" lon="104.558174">
<ele>99.430725</ele>
<time>2011-04-28T02:57:59Z</time>
<desc>lat.=22.196692, lon.=104.558174, Alt.=99.430725m. Speed=15.840000m/h.</desc>
<speed>4.400000</speed>
</trkpt>
<trkpt lat="22.196661" lon="104.558449">
<ele>98.202209</ele>
<time>2011-04-28T02:58:04Z</time>
<desc>lat.=22.196661, lon.=104.558449, Alt.=98.202209m. Speed=15.264000m/h.</desc>
<speed>4.240000</speed>
</trkpt>
<trkpt lat="22.196573" lon="104.558685">
<ele>98.497131</ele>
<time>2011-04-28T02:58:09Z</time>
<desc>lat.=22.196573, lon.=104.558685, Alt.=98.497131m. Speed=15.336000m/h.</desc>
<speed>4.260000</speed>
</trkpt>
<trkpt lat="22.196274" lon="104.559029">
<ele>90.086975</ele>
<time>2011-04-28T02:58:14Z</time>
<desc>lat.=22.196274, lon.=104.559029, Alt.=90.086975m. Speed=16.091999m/h.</desc>
<speed>4.470000</speed>
</trkpt>
<trkpt lat="22.196146" lon="104.559242">
<ele>85.626038</ele>
<time>2011-04-28T02:58:19Z</time>
<desc>lat.=22.196146, lon.=104.559242, Alt.=85.626038m. Speed=13.896000m/h.</desc>
<speed>3.860000</speed>
</trkpt>
<trkpt lat="22.196035" lon="104.559418">
<ele>82.702209</ele>
<time>2011-04-28T02:58:24Z</time>
<desc>lat.=22.196035, lon.=104.559418, Alt.=82.702209m. Speed=15.768000m/h.</desc>
<speed>4.380000</speed>
</trkpt>
<trkpt lat="22.195889" lon="104.559601">
<ele>82.260803</ele>
<time>2011-04-28T02:58:29Z</time>
<desc>lat.=22.195889, lon.=104.559601, Alt.=82.260803m. Speed=18.827999m/h.</desc>
<speed>5.230000</speed>
</trkpt>
<trkpt lat="22.195747" lon="104.559792">
<ele>82.295959</ele>
<time>2011-04-28T02:58:34Z</time>
<desc>lat.=22.195747, lon.=104.559792, Alt.=82.295959m. Speed=17.496000m/h.</desc>
<speed>4.860000</speed>
</trkpt>
<trkpt lat="22.195662" lon="104.560013">
<ele>81.948303</ele>
<time>2011-04-28T02:58:39Z</time>
<desc>lat.=22.195662, lon.=104.560013, Alt.=81.948303m. Speed=16.344000m/h.</desc>
<speed>4.540000</speed>
</trkpt>
<trkpt lat="22.195660" lon="104.560234">
<ele>81.713928</ele>
<time>2011-04-28T02:58:44Z</time>
<desc>lat.=22.195660, lon.=104.560234, Alt.=81.713928m. Speed=12.672000m/h.</desc>
<speed>3.520000</speed>
</trkpt>
<trkpt lat="22.195681" lon="104.560440">
<ele>81.256897</ele>
<time>2011-04-28T02:58:49Z</time>
<desc>lat.=22.195681, lon.=104.560440, Alt.=81.256897m. Speed=10.152000m/h.</desc>
<speed>2.820000</speed>
</trkpt>
<trkpt lat="22.195690" lon="104.560631">
<ele>80.696350</ele>
<time>2011-04-28T02:58:54Z</time>
<desc>lat.=22.195690, lon.=104.560631, Alt.=80.696350m. Speed=11.376000m/h.</desc>
<speed>3.160000</speed>
</trkpt>
<trkpt lat="22.195728" lon="104.560844">
<ele>80.522522</ele>
<time>2011-04-28T02:58:59Z</time>
<desc>lat.=22.195728, lon.=104.560844, Alt.=80.522522m. Speed=11.628000m/h.</desc>
<speed>3.230000</speed>
</trkpt>
<trkpt lat="22.195724" lon="104.561012">
<ele>80.993225</ele>
<time>2011-04-28T02:59:04Z</time>
<desc>lat.=22.195724, lon.=104.561012, Alt.=80.993225m. Speed=9.216000m/h.</desc>
<speed>2.560000</speed>
</trkpt>
<trkpt lat="22.195717" lon="104.561249">
<ele>83.663147</ele>
<time>2011-04-28T02:59:09Z</time>
<desc>lat.=22.195717, lon.=104.561249, Alt.=83.663147m. Speed=10.620000m/h.</desc>
<speed>2.950000</speed>
</trkpt>
<trkpt lat="22.195652" lon="104.561348">
<ele>84.405334</ele>
<time>2011-04-28T02:59:14Z</time>
<desc>lat.=22.195652, lon.=104.561348, Alt.=84.405334m. Speed=7.812000m/h.</desc>
<speed>2.170000</speed>
</trkpt>
<trkpt lat="22.195593" lon="104.561409">
<ele>85.696350</ele>
<time>2011-04-28T02:59:19Z</time>
<desc>lat.=22.195593, lon.=104.561409, Alt.=85.696350m. Speed=7.200000m/h.</desc>
<speed>2.000000</speed>
</trkpt>
<trkpt lat="22.195532" lon="104.561478">
<ele>87.282288</ele>
<time>2011-04-28T02:59:24Z</time>
<desc>lat.=22.195532, lon.=104.561478, Alt.=87.282288m. Speed=6.912000m/h.</desc>
<speed>1.920000</speed>
</trkpt>
<trkpt lat="22.195450" lon="104.561539">
<ele>88.633850</ele>
<time>2011-04-28T02:59:29Z</time>
<desc>lat.=22.195450, lon.=104.561539, Alt.=88.633850m. Speed=6.408000m/h.</desc>
<speed>1.780000</speed>
</trkpt>
<trkpt lat="22.195385" lon="104.561615">
<ele>90.319397</ele>
<time>2011-04-28T02:59:34Z</time>
<desc>lat.=22.195385, lon.=104.561615, Alt.=90.319397m. Speed=5.868000m/h.</desc>
<speed>1.630000</speed>
</trkpt>
<trkpt lat="22.195347" lon="104.561661">
<ele>92.426819</ele>
<time>2011-04-28T02:59:39Z</time>
<desc>lat.=22.195347, lon.=104.561661, Alt.=92.426819m. Speed=3.744000m/h.</desc>
<speed>1.040000</speed>
</trkpt>
<trkpt lat="22.195311" lon="104.561729">
<ele>93.977600</ele>
<time>2011-04-28T02:59:44Z</time>
<desc>lat.=22.195311, lon.=104.561729, Alt.=93.977600m. Speed=3.168000m/h.</desc>
<speed>0.880000</speed>
</trkpt>
<trkpt lat="22.195278" lon="104.561790">
<ele>95.096741</ele>
<time>2011-04-28T02:59:49Z</time>
<desc>lat.=22.195278, lon.=104.561790, Alt.=95.096741m. Speed=5.580000m/h.</desc>
<speed>1.550000</speed>
</trkpt>
<trkpt lat="22.195246" lon="104.561852">
<ele>96.348694</ele>
<time>2011-04-28T02:59:54Z</time>
<desc>lat.=22.195246, lon.=104.561852, Alt.=96.348694m. Speed=4.428000m/h.</desc>
<speed>1.230000</speed>
</trkpt>
<trkpt lat="22.195198" lon="104.561897">
<ele>97.651428</ele>
<time>2011-04-28T02:59:59Z</time>
<desc>lat.=22.195198, lon.=104.561897, Alt.=97.651428m. Speed=4.500000m/h.</desc>
<speed>1.250000</speed>
</trkpt>
<trkpt lat="22.195156" lon="104.561943">
<ele>98.526428</ele>
<time>2011-04-28T03:00:04Z</time>
<desc>lat.=22.195156, lon.=104.561943, Alt.=98.526428m. Speed=3.888000m/h.</desc>
<speed>1.080000</speed>
</trkpt>
<trkpt lat="22.195223" lon="104.561966">
<ele>98.835022</ele>
<time>2011-04-28T03:00:09Z</time>
<desc>lat.=22.195223, lon.=104.561966, Alt.=98.835022m. Speed=7.092000m/h.</desc>
<speed>1.970000</speed>
</trkpt>
<trkpt lat="22.195288" lon="104.561913">
<ele>96.215881</ele>
<time>2011-04-28T03:00:14Z</time>
<desc>lat.=22.195288, lon.=104.561913, Alt.=96.215881m. Speed=1.944000m/h.</desc>
<speed>0.540000</speed>
</trkpt>
<trkpt lat="22.195301" lon="104.561905">
<ele>95.825256</ele>
<time>2011-04-28T03:00:19Z</time>
<desc>lat.=22.195301, lon.=104.561905, Alt.=95.825256m. Speed=0.108000m/h.</desc>
<speed>0.030000</speed>
</trkpt>
<trkpt lat="22.195301" lon="104.561905">
<ele>96.030334</ele>
<time>2011-04-28T03:00:24Z</time>
<desc>lat.=22.195301, lon.=104.561905, Alt.=96.030334m. Speed=0.252000m/h.</desc>
<speed>0.070000</speed>
</trkpt>
<trkpt lat="22.195301" lon="104.561905">
<ele>96.104553</ele>
<time>2011-04-28T03:00:29Z</time>
<desc>lat.=22.195301, lon.=104.561905, Alt.=96.104553m. Speed=0.216000m/h.</desc>
<speed>0.060000</speed>
</trkpt>
<trkpt lat="22.195299" lon="104.561905">
<ele>96.170959</ele>
<time>2011-04-28T03:00:34Z</time>
<desc>lat.=22.195299, lon.=104.561905, Alt.=96.170959m. Speed=1.728000m/h.</desc>
<speed>0.480000</speed>
</trkpt>
<trkpt lat="22.195280" lon="104.561897">
<ele>96.047913</ele>
<time>2011-04-28T03:00:39Z</time>
<desc>lat.=22.195280, lon.=104.561897, Alt.=96.047913m. Speed=5.256000m/h.</desc>
<speed>1.460000</speed>
</trkpt>
<trkpt lat="22.195234" lon="104.561989">
<ele>95.940491</ele>
<time>2011-04-28T03:00:44Z</time>
<desc>lat.=22.195234, lon.=104.561989, Alt.=95.940491m. Speed=5.076000m/h.</desc>
<speed>1.410000</speed>
</trkpt>
<trkpt lat="22.195160" lon="104.562065">
<ele>96.135803</ele>
<time>2011-04-28T03:00:49Z</time>
<desc>lat.=22.195160, lon.=104.562065, Alt.=96.135803m. Speed=9.432000m/h.</desc>
<speed>2.620000</speed>
</trkpt>
<trkpt lat="22.195080" lon="104.562141">
<ele>96.465881</ele>
<time>2011-04-28T03:00:54Z</time>
<desc>lat.=22.195080, lon.=104.562141, Alt.=96.465881m. Speed=8.820000m/h.</desc>
<speed>2.450000</speed>
</trkpt>
<trkpt lat="22.194996" lon="104.562241">
<ele>96.969788</ele>
<time>2011-04-28T03:00:59Z</time>
<desc>lat.=22.194996, lon.=104.562241, Alt.=96.969788m. Speed=7.632000m/h.</desc>
<speed>2.120000</speed>
</trkpt>
<trkpt lat="22.194937" lon="104.562347">
<ele>97.432678</ele>
<time>2011-04-28T03:01:04Z</time>
<desc>lat.=22.194937, lon.=104.562347, Alt.=97.432678m. Speed=7.704000m/h.</desc>
<speed>2.140000</speed>
</trkpt>
<trkpt lat="22.194841" lon="104.562454">
<ele>98.059631</ele>
<time>2011-04-28T03:01:09Z</time>
<desc>lat.=22.194841, lon.=104.562454, Alt.=98.059631m. Speed=7.560000m/h.</desc>
<speed>2.100000</speed>
</trkpt>
<trkpt lat="22.194756" lon="104.562569">
<ele>99.331116</ele>
<time>2011-04-28T03:01:14Z</time>
<desc>lat.=22.194756, lon.=104.562569, Alt.=99.331116m. Speed=7.920000m/h.</desc>
<speed>2.200000</speed>
</trkpt>
<trkpt lat="22.194689" lon="104.562706">
<ele>100.776428</ele>
<time>2011-04-28T03:01:19Z</time>
<desc>lat.=22.194689, lon.=104.562706, Alt.=100.776428m. Speed=8.460000m/h.</desc>
<speed>2.350000</speed>
</trkpt>
<trkpt lat="22.194624" lon="104.562828">
<ele>101.835022</ele>
<time>2011-04-28T03:01:24Z</time>
<desc>lat.=22.194624, lon.=104.562828, Alt.=101.835022m. Speed=7.092000m/h.</desc>
<speed>1.970000</speed>
</trkpt>
<trkpt lat="22.194540" lon="104.562920">
<ele>102.903381</ele>
<time>2011-04-28T03:01:29Z</time>
<desc>lat.=22.194540, lon.=104.562920, Alt.=102.903381m. Speed=9.432000m/h.</desc>
<speed>2.620000</speed>
</trkpt>
<trkpt lat="22.194475" lon="104.563042">
<ele>104.034241</ele>
<time>2011-04-28T03:01:34Z</time>
<desc>lat.=22.194475, lon.=104.563042, Alt.=104.034241m. Speed=8.748000m/h.</desc>
<speed>2.430000</speed>
</trkpt>
<trkpt lat="22.194395" lon="104.563148">
<ele>105.340881</ele>
<time>2011-04-28T03:01:39Z</time>
<desc>lat.=22.194395, lon.=104.563148, Alt.=105.340881m. Speed=6.948000m/h.</desc>
<speed>1.930000</speed>
</trkpt>
<trkpt lat="22.194319" lon="104.563217">
<ele>106.944397</ele>
<time>2011-04-28T03:01:44Z</time>
<desc>lat.=22.194319, lon.=104.563217, Alt.=106.944397m. Speed=5.832000m/h.</desc>
<speed>1.620000</speed>
</trkpt>
<trkpt lat="22.194275" lon="104.563316">
<ele>107.749084</ele>
<time>2011-04-28T03:01:49Z</time>
<desc>lat.=22.194275, lon.=104.563316, Alt.=107.749084m. Speed=10.044000m/h.</desc>
<speed>2.790000</speed>
</trkpt>
<trkpt lat="22.194216" lon="104.563469">
<ele>108.210022</ele>
<time>2011-04-28T03:01:54Z</time>
<desc>lat.=22.194216, lon.=104.563469, Alt.=108.210022m. Speed=10.692000m/h.</desc>
<speed>2.970000</speed>
</trkpt>
<trkpt lat="22.194151" lon="104.563576">
<ele>109.448303</ele>
<time>2011-04-28T03:01:59Z</time>
<desc>lat.=22.194151, lon.=104.563576, Alt.=109.448303m. Speed=7.596000m/h.</desc>
<speed>2.110000</speed>
</trkpt>
<trkpt lat="22.194075" lon="104.563736">
<ele>109.836975</ele>
<time>2011-04-28T03:02:04Z</time>
<desc>lat.=22.194075, lon.=104.563736, Alt.=109.836975m. Speed=14.976000m/h.</desc>
<speed>4.160000</speed>
</trkpt>
<trkpt lat="22.193960" lon="104.564018">
<ele>109.481506</ele>
<time>2011-04-28T03:02:09Z</time>
<desc>lat.=22.193960, lon.=104.564018, Alt.=109.481506m. Speed=20.808001m/h.</desc>
<speed>5.780000</speed>
</trkpt>
<trkpt lat="22.193783" lon="104.564247">
<ele>105.292053</ele>
<time>2011-04-28T03:02:14Z</time>
<desc>lat.=22.193783, lon.=104.564247, Alt.=105.292053m. Speed=18.900000m/h.</desc>
<speed>5.250000</speed>
</trkpt>
<trkpt lat="22.193615" lon="104.564499">
<ele>101.710022</ele>
<time>2011-04-28T03:02:19Z</time>
<desc>lat.=22.193615, lon.=104.564499, Alt.=101.710022m. Speed=18.180000m/h.</desc>
<speed>5.050000</speed>
</trkpt>
<trkpt lat="22.193367" lon="104.564789">
<ele>98.653381</ele>
<time>2011-04-28T03:02:24Z</time>
<desc>lat.=22.193367, lon.=104.564789, Alt.=98.653381m. Speed=22.931999m/h.</desc>
<speed>6.370000</speed>
</trkpt>
<trkpt lat="22.193192" lon="104.565079">
<ele>94.522522</ele>
<time>2011-04-28T03:02:29Z</time>
<desc>lat.=22.193192, lon.=104.565079, Alt.=94.522522m. Speed=23.688000m/h.</desc>
<speed>6.580000</speed>
</trkpt>
<trkpt lat="22.193018" lon="104.565269">
<ele>92.180725</ele>
<time>2011-04-28T03:02:34Z</time>
<desc>lat.=22.193018, lon.=104.565269, Alt.=92.180725m. Speed=15.768000m/h.</desc>
<speed>4.380000</speed>
</trkpt>
<trkpt lat="22.192781" lon="104.565315">
<ele>90.184631</ele>
<time>2011-04-28T03:02:39Z</time>
<desc>lat.=22.192781, lon.=104.565315, Alt.=90.184631m. Speed=22.716000m/h.</desc>
<speed>6.310000</speed>
</trkpt>
<trkpt lat="22.192465" lon="104.565254">
<ele>88.647522</ele>
<time>2011-04-28T03:02:44Z</time>
<desc>lat.=22.192465, lon.=104.565254, Alt.=88.647522m. Speed=25.164000m/h.</desc>
<speed>6.990000</speed>
</trkpt>
<trkpt lat="22.192165" lon="104.565155">
<ele>87.555725</ele>
<time>2011-04-28T03:02:49Z</time>
<desc>lat.=22.192165, lon.=104.565155, Alt.=87.555725m. Speed=23.436001m/h.</desc>
<speed>6.510000</speed>
</trkpt>
<trkpt lat="22.191944" lon="104.565140">
<ele>87.456116</ele>
<time>2011-04-28T03:02:54Z</time>
<desc>lat.=22.191944, lon.=104.565140, Alt.=87.456116m. Speed=21.059999m/h.</desc>
<speed>5.850000</speed>
</trkpt>
<trkpt lat="22.191717" lon="104.565300">
<ele>86.290100</ele>
<time>2011-04-28T03:02:59Z</time>
<desc>lat.=22.191717, lon.=104.565300, Alt.=86.290100m. Speed=18.035999m/h.</desc>
<speed>5.010000</speed>
</trkpt>
<trkpt lat="22.191580" lon="104.565704">
<ele>85.893616</ele>
<time>2011-04-28T03:03:04Z</time>
<desc>lat.=22.191580, lon.=104.565704, Alt.=85.893616m. Speed=28.007999m/h.</desc>
<speed>7.780000</speed>
</trkpt>
<trkpt lat="22.191425" lon="104.566132">
<ele>85.108459</ele>
<time>2011-04-28T03:03:09Z</time>
<desc>lat.=22.191425, lon.=104.566132, Alt.=85.108459m. Speed=26.100000m/h.</desc>
<speed>7.250000</speed>
</trkpt>
<trkpt lat="22.191277" lon="104.566399">
<ele>84.411194</ele>
<time>2011-04-28T03:03:14Z</time>
<desc>lat.=22.191277, lon.=104.566399, Alt.=84.411194m. Speed=17.028000m/h.</desc>
<speed>4.730000</speed>
</trkpt>
<trkpt lat="22.191105" lon="104.566559">
<ele>84.141663</ele>
<time>2011-04-28T03:03:19Z</time>
<desc>lat.=22.191105, lon.=104.566559, Alt.=84.141663m. Speed=15.624000m/h.</desc>
<speed>4.340000</speed>
</trkpt>
<trkpt lat="22.190893" lon="104.566719">
<ele>83.862366</ele>
<time>2011-04-28T03:03:24Z</time>
<desc>lat.=22.190893, lon.=104.566719, Alt.=83.862366m. Speed=17.136000m/h.</desc>
<speed>4.760000</speed>
</trkpt>
<trkpt lat="22.190649" lon="104.566864">
<ele>83.936584</ele>
<time>2011-04-28T03:03:29Z</time>
<desc>lat.=22.190649, lon.=104.566864, Alt.=83.936584m. Speed=18.936001m/h.</desc>
<speed>5.260000</speed>
</trkpt>
<trkpt lat="22.190376" lon="104.566978">
<ele>83.870178</ele>
<time>2011-04-28T03:03:34Z</time>
<desc>lat.=22.190376, lon.=104.566978, Alt.=83.870178m. Speed=19.368000m/h.</desc>
<speed>5.380000</speed>
</trkpt>
<trkpt lat="22.190250" lon="104.567139">
<ele>84.514709</ele>
<time>2011-04-28T03:03:39Z</time>
<desc>lat.=22.190250, lon.=104.567139, Alt.=84.514709m. Speed=15.120000m/h.</desc>
<speed>4.200000</speed>
</trkpt>
<trkpt lat="22.190142" lon="104.567337">
<ele>85.366272</ele>
<time>2011-04-28T03:03:44Z</time>
<desc>lat.=22.190142, lon.=104.567337, Alt.=85.366272m. Speed=13.320000m/h.</desc>
<speed>3.700000</speed>
</trkpt>
<trkpt lat="22.190042" lon="104.567581">
<ele>85.368225</ele>
<time>2011-04-28T03:03:49Z</time>
<desc>lat.=22.190042, lon.=104.567581, Alt.=85.368225m. Speed=13.968000m/h.</desc>
<speed>3.880000</speed>
</trkpt>
<trkpt lat="22.189880" lon="104.567795">
<ele>85.538147</ele>
<time>2011-04-28T03:03:54Z</time>
<desc>lat.=22.189880, lon.=104.567795, Alt.=85.538147m. Speed=16.524000m/h.</desc>
<speed>4.590000</speed>
</trkpt>
<trkpt lat="22.189762" lon="104.567986">
<ele>85.991272</ele>
<time>2011-04-28T03:03:59Z</time>
<desc>lat.=22.189762, lon.=104.567986, Alt.=85.991272m. Speed=15.012000m/h.</desc>
<speed>4.170000</speed>
</trkpt>
<trkpt lat="22.189653" lon="104.568192">
<ele>84.993225</ele>
<time>2011-04-28T03:04:04Z</time>
<desc>lat.=22.189653, lon.=104.568192, Alt.=84.993225m. Speed=11.160000m/h.</desc>
<speed>3.100000</speed>
</trkpt>
<trkpt lat="22.189596" lon="104.568268">
<ele>83.571350</ele>
<time>2011-04-28T03:04:09Z</time>
<desc>lat.=22.189596, lon.=104.568268, Alt.=83.571350m. Speed=1.008000m/h.</desc>
<speed>0.280000</speed>
</trkpt>
<trkpt lat="22.189606" lon="104.568275">
<ele>83.272522</ele>
<time>2011-04-28T03:04:14Z</time>
<desc>lat.=22.189606, lon.=104.568275, Alt.=83.272522m. Speed=0.108000m/h.</desc>
<speed>0.030000</speed>
</trkpt>
<trkpt lat="22.189604" lon="104.568275">
<ele>83.196350</ele>
<time>2011-04-28T03:04:19Z</time>
<desc>lat.=22.189604, lon.=104.568275, Alt.=83.196350m. Speed=1.404000m/h.</desc>
<speed>0.390000</speed>
</trkpt>
<trkpt lat="22.189602" lon="104.568298">
<ele>83.124084</ele>
<time>2011-04-28T03:04:24Z</time>
<desc>lat.=22.189602, lon.=104.568298, Alt.=83.124084m. Speed=0.432000m/h.</desc>
<speed>0.120000</speed>
</trkpt>
<trkpt lat="22.189594" lon="104.568298">
<ele>83.073303</ele>
<time>2011-04-28T03:04:29Z</time>
<desc>lat.=22.189594, lon.=104.568298, Alt.=83.073303m. Speed=0.324000m/h.</desc>
<speed>0.090000</speed>
</trkpt>
<trkpt lat="22.189589" lon="104.568306">
<ele>83.042053</ele>
<time>2011-04-28T03:04:34Z</time>
<desc>lat.=22.189589, lon.=104.568306, Alt.=83.042053m. Speed=0.216000m/h.</desc>
<speed>0.060000</speed>
</trkpt>
<trkpt lat="22.189581" lon="104.568306">
<ele>83.030334</ele>
<time>2011-04-28T03:04:39Z</time>
<desc>lat.=22.189581, lon.=104.568306, Alt.=83.030334m. Speed=0.828000m/h.</desc>
<speed>0.230000</speed>
</trkpt>
<trkpt lat="22.189568" lon="104.568314">
<ele>83.030334</ele>
<time>2011-04-28T03:04:44Z</time>
<desc>lat.=22.189568, lon.=104.568314, Alt.=83.030334m. Speed=1.440000m/h.</desc>
<speed>0.400000</speed>
</trkpt>
<trkpt lat="22.189554" lon="104.568405">
<ele>83.426819</ele>
<time>2011-04-28T03:04:49Z</time>
<desc>lat.=22.189554, lon.=104.568405, Alt.=83.426819m. Speed=9.468000m/h.</desc>
<speed>2.630000</speed>
</trkpt>
<trkpt lat="22.189539" lon="104.568558">
<ele>83.690491</ele>
<time>2011-04-28T03:04:54Z</time>
<desc>lat.=22.189539, lon.=104.568558, Alt.=83.690491m. Speed=8.640000m/h.</desc>
<speed>2.400000</speed>
</trkpt>
<trkpt lat="22.189514" lon="104.568756">
<ele>82.741272</ele>
<time>2011-04-28T03:04:59Z</time>
<desc>lat.=22.189514, lon.=104.568756, Alt.=82.741272m. Speed=11.592000m/h.</desc>
<speed>3.220000</speed>
</trkpt>
<trkpt lat="22.189486" lon="104.568962">
<ele>82.204163</ele>
<time>2011-04-28T03:05:04Z</time>
<desc>lat.=22.189486, lon.=104.568962, Alt.=82.204163m. Speed=12.492000m/h.</desc>
<speed>3.470000</speed>
</trkpt>
<trkpt lat="22.189423" lon="104.569176">
<ele>81.245178</ele>
<time>2011-04-28T03:05:09Z</time>
<desc>lat.=22.189423, lon.=104.569176, Alt.=81.245178m. Speed=12.636000m/h.</desc>
<speed>3.510000</speed>
</trkpt>
<trkpt lat="22.189402" lon="104.569359">
<ele>79.604553</ele>
<time>2011-04-28T03:05:14Z</time>
<desc>lat.=22.189402, lon.=104.569359, Alt.=79.604553m. Speed=10.476000m/h.</desc>
<speed>2.910000</speed>
</trkpt>
<trkpt lat="22.189297" lon="104.569550">
<ele>80.799866</ele>
<time>2011-04-28T03:05:19Z</time>
<desc>lat.=22.189297, lon.=104.569550, Alt.=80.799866m. Speed=15.228000m/h.</desc>
<speed>4.230000</speed>
</trkpt>
<trkpt lat="22.189203" lon="104.569801">
<ele>81.264709</ele>
<time>2011-04-28T03:05:24Z</time>
<desc>lat.=22.189203, lon.=104.569801, Alt.=81.264709m. Speed=14.400000m/h.</desc>
<speed>4.000000</speed>
</trkpt>
<trkpt lat="22.189102" lon="104.570007">
<ele>80.883850</ele>
<time>2011-04-28T03:05:29Z</time>
<desc>lat.=22.189102, lon.=104.570007, Alt.=80.883850m. Speed=13.428000m/h.</desc>
<speed>3.730000</speed>
</trkpt>
<trkpt lat="22.188976" lon="104.570190">
<ele>79.622131</ele>
<time>2011-04-28T03:05:34Z</time>
<desc>lat.=22.188976, lon.=104.570190, Alt.=79.622131m. Speed=14.004000m/h.</desc>
<speed>3.890000</speed>
</trkpt>
<trkpt lat="22.188868" lon="104.570358">
<ele>77.860413</ele>
<time>2011-04-28T03:05:39Z</time>
<desc>lat.=22.188868, lon.=104.570358, Alt.=77.860413m. Speed=13.536000m/h.</desc>
<speed>3.760000</speed>
</trkpt>
<trkpt lat="22.188705" lon="104.570564">
<ele>74.557678</ele>
<time>2011-04-28T03:05:44Z</time>
<desc>lat.=22.188705, lon.=104.570564, Alt.=74.557678m. Speed=14.688000m/h.</desc>
<speed>4.080000</speed>
</trkpt>
<trkpt lat="22.188572" lon="104.570740">
<ele>72.596741</ele>
<time>2011-04-28T03:05:49Z</time>
<desc>lat.=22.188572, lon.=104.570740, Alt.=72.596741m. Speed=16.379999m/h.</desc>
<speed>4.550000</speed>
</trkpt>
<trkpt lat="22.188478" lon="104.570946">
<ele>71.059631</ele>
<time>2011-04-28T03:05:54Z</time>
<desc>lat.=22.188478, lon.=104.570946, Alt.=71.059631m. Speed=14.580000m/h.</desc>
<speed>4.050000</speed>
</trkpt>
<trkpt lat="22.188387" lon="104.571114">
<ele>69.381897</ele>
<time>2011-04-28T03:05:59Z</time>
<desc>lat.=22.188387, lon.=104.571114, Alt.=69.381897m. Speed=15.948000m/h.</desc>
<speed>4.430000</speed>
</trkpt>
<trkpt lat="22.188309" lon="104.571297">
<ele>66.965881</ele>
<time>2011-04-28T03:06:04Z</time>
<desc>lat.=22.188309, lon.=104.571297, Alt.=66.965881m. Speed=11.412000m/h.</desc>
<speed>3.170000</speed>
</trkpt>
<trkpt lat="22.188229" lon="104.571419">
<ele>65.889709</ele>
<time>2011-04-28T03:06:09Z</time>
<desc>lat.=22.188229, lon.=104.571419, Alt.=65.889709m. Speed=12.708000m/h.</desc>
<speed>3.530000</speed>
</trkpt>
<trkpt lat="22.188110" lon="104.571602">
<ele>65.399475</ele>
<time>2011-04-28T03:06:14Z</time>
<desc>lat.=22.188110, lon.=104.571602, Alt.=65.399475m. Speed=15.228000m/h.</desc>
<speed>4.230000</speed>
</trkpt>
<trkpt lat="22.187981" lon="104.571770">
<ele>64.893616</ele>
<time>2011-04-28T03:06:19Z</time>
<desc>lat.=22.187981, lon.=104.571770, Alt.=64.893616m. Speed=15.228000m/h.</desc>
<speed>4.230000</speed>
</trkpt>
<trkpt lat="22.187824" lon="104.571892">
<ele>64.835022</ele>
<time>2011-04-28T03:06:24Z</time>
<desc>lat.=22.187824, lon.=104.571892, Alt.=64.835022m. Speed=16.632000m/h.</desc>
<speed>4.620000</speed>
</trkpt>
<trkpt lat="22.187641" lon="104.572029">
<ele>65.536194</ele>
<time>2011-04-28T03:06:29Z</time>
<desc>lat.=22.187641, lon.=104.572029, Alt.=65.536194m. Speed=18.936001m/h.</desc>
<speed>5.260000</speed>
</trkpt>
<trkpt lat="22.187454" lon="104.572174">
<ele>65.303772</ele>
<time>2011-04-28T03:06:34Z</time>
<desc>lat.=22.187454, lon.=104.572174, Alt.=65.303772m. Speed=19.368000m/h.</desc>
<speed>5.380000</speed>
</trkpt>
<trkpt lat="22.187260" lon="104.572334">
<ele>64.823303</ele>
<time>2011-04-28T03:06:39Z</time>
<desc>lat.=22.187260, lon.=104.572334, Alt.=64.823303m. Speed=17.639999m/h.</desc>
<speed>4.900000</speed>
</trkpt>
<trkpt lat="22.187086" lon="104.572533">
<ele>62.947784</ele>
<time>2011-04-28T03:06:44Z</time>
<desc>lat.=22.187086, lon.=104.572533, Alt.=62.947784m. Speed=17.532000m/h.</desc>
<speed>4.870000</speed>
</trkpt>
<trkpt lat="22.187002" lon="104.572716">
<ele>63.033722</ele>
<time>2011-04-28T03:06:49Z</time>
<desc>lat.=22.187002, lon.=104.572716, Alt.=63.033722m. Speed=12.384000m/h.</desc>
<speed>3.440000</speed>
</trkpt>
<trkpt lat="22.186941" lon="104.572861">
<ele>62.549347</ele>
<time>2011-04-28T03:06:54Z</time>
<desc>lat.=22.186941, lon.=104.572861, Alt.=62.549347m. Speed=11.484000m/h.</desc>
<speed>3.190000</speed>
</trkpt>
<trkpt lat="22.186861" lon="104.572990">
<ele>61.911652</ele>
<time>2011-04-28T03:06:59Z</time>
<desc>lat.=22.186861, lon.=104.572990, Alt.=61.911652m. Speed=12.600000m/h.</desc>
<speed>3.500000</speed>
</trkpt>
<trkpt lat="22.186781" lon="104.573128">
<ele>60.696808</ele>
<time>2011-04-28T03:07:04Z</time>
<desc>lat.=22.186781, lon.=104.573128, Alt.=60.696808m. Speed=10.944000m/h.</desc>
<speed>3.040000</speed>
</trkpt>
<trkpt lat="22.186672" lon="104.573257">
<ele>59.418488</ele>
<time>2011-04-28T03:07:09Z</time>
<desc>lat.=22.186672, lon.=104.573257, Alt.=59.418488m. Speed=11.304000m/h.</desc>
<speed>3.140000</speed>
</trkpt>
<trkpt lat="22.186567" lon="104.573349">
<ele>59.378448</ele>
<time>2011-04-28T03:07:14Z</time>
<desc>lat.=22.186567, lon.=104.573349, Alt.=59.378448m. Speed=11.592000m/h.</desc>
<speed>3.220000</speed>
</trkpt>
<trkpt lat="22.186451" lon="104.573448">
<ele>59.724152</ele>
<time>2011-04-28T03:07:19Z</time>
<desc>lat.=22.186451, lon.=104.573448, Alt.=59.724152m. Speed=11.304000m/h.</desc>
<speed>3.140000</speed>
</trkpt>
<trkpt lat="22.186325" lon="104.573555">
<ele>61.651886</ele>
<time>2011-04-28T03:07:24Z</time>
<desc>lat.=22.186325, lon.=104.573555, Alt.=61.651886m. Speed=11.268000m/h.</desc>
<speed>3.130000</speed>
</trkpt>
<trkpt lat="22.186193" lon="104.573639">
<ele>62.404816</ele>
<time>2011-04-28T03:07:29Z</time>
<desc>lat.=22.186193, lon.=104.573639, Alt.=62.404816m. Speed=9.972000m/h.</desc>
<speed>2.770000</speed>
</trkpt>
<trkpt lat="22.186085" lon="104.573730">
<ele>64.799866</ele>
<time>2011-04-28T03:07:34Z</time>
<desc>lat.=22.186085, lon.=104.573730, Alt.=64.799866m. Speed=10.260000m/h.</desc>
<speed>2.850000</speed>
</trkpt>
<trkpt lat="22.186014" lon="104.573807">
<ele>65.713928</ele>
<time>2011-04-28T03:07:39Z</time>
<desc>lat.=22.186014, lon.=104.573807, Alt.=65.713928m. Speed=9.612000m/h.</desc>
<speed>2.670000</speed>
</trkpt>
<trkpt lat="22.185925" lon="104.573898">
<ele>65.889709</ele>
<time>2011-04-28T03:07:44Z</time>
<desc>lat.=22.185925, lon.=104.573898, Alt.=65.889709m. Speed=10.260000m/h.</desc>
<speed>2.850000</speed>
</trkpt>
<trkpt lat="22.185844" lon="104.574013">
<ele>66.655334</ele>
<time>2011-04-28T03:07:49Z</time>
<desc>lat.=22.185844, lon.=104.574013, Alt.=66.655334m. Speed=10.008000m/h.</desc>
<speed>2.780000</speed>
</trkpt>
<trkpt lat="22.185720" lon="104.574112">
<ele>68.706116</ele>
<time>2011-04-28T03:07:54Z</time>
<desc>lat.=22.185720, lon.=104.574112, Alt.=68.706116m. Speed=10.800000m/h.</desc>
<speed>3.000000</speed>
</trkpt>
<trkpt lat="22.185583" lon="104.574203">
<ele>70.170959</ele>
<time>2011-04-28T03:07:59Z</time>
<desc>lat.=22.185583, lon.=104.574203, Alt.=70.170959m. Speed=13.896000m/h.</desc>
<speed>3.860000</speed>
</trkpt>
<trkpt lat="22.185427" lon="104.574303">
<ele>72.243225</ele>
<time>2011-04-28T03:08:04Z</time>
<desc>lat.=22.185427, lon.=104.574303, Alt.=72.243225m. Speed=14.688000m/h.</desc>
<speed>4.080000</speed>
</trkpt>
<trkpt lat="22.185263" lon="104.574402">
<ele>74.124084</ele>
<time>2011-04-28T03:08:09Z</time>
<desc>lat.=22.185263, lon.=104.574402, Alt.=74.124084m. Speed=13.572000m/h.</desc>
<speed>3.770000</speed>
</trkpt>
<trkpt lat="22.185114" lon="104.574516">
<ele>76.196350</ele>
<time>2011-04-28T03:08:14Z</time>
<desc>lat.=22.185114, lon.=104.574516, Alt.=76.196350m. Speed=13.716000m/h.</desc>
<speed>3.810000</speed>
</trkpt>
<trkpt lat="22.185001" lon="104.574669">
<ele>76.860413</ele>
<time>2011-04-28T03:08:19Z</time>
<desc>lat.=22.185001, lon.=104.574669, Alt.=76.860413m. Speed=14.184000m/h.</desc>
<speed>3.940000</speed>
</trkpt>
<trkpt lat="22.184855" lon="104.574890">
<ele>76.626038</ele>
<time>2011-04-28T03:08:24Z</time>
<desc>lat.=22.184855, lon.=104.574890, Alt.=76.626038m. Speed=17.927999m/h.</desc>
<speed>4.980000</speed>
</trkpt>
<trkpt lat="22.184727" lon="104.575134">
<ele>77.700256</ele>
<time>2011-04-28T03:08:29Z</time>
<desc>lat.=22.184727, lon.=104.575134, Alt.=77.700256m. Speed=21.672001m/h.</desc>
<speed>6.020000</speed>
</trkpt>
<trkpt lat="22.184605" lon="104.575378">
<ele>78.295959</ele>
<time>2011-04-28T03:08:34Z</time>
<desc>lat.=22.184605, lon.=104.575378, Alt.=78.295959m. Speed=17.964001m/h.</desc>
<speed>4.990000</speed>
</trkpt>
<trkpt lat="22.184471" lon="104.575615">
<ele>79.247131</ele>
<time>2011-04-28T03:08:39Z</time>
<desc>lat.=22.184471, lon.=104.575615, Alt.=79.247131m. Speed=18.719999m/h.</desc>
<speed>5.200000</speed>
</trkpt>
<trkpt lat="22.184347" lon="104.575851">
<ele>79.983459</ele>
<time>2011-04-28T03:08:44Z</time>
<desc>lat.=22.184347, lon.=104.575851, Alt.=79.983459m. Speed=15.768000m/h.</desc>
<speed>4.380000</speed>
</trkpt>
<trkpt lat="22.184229" lon="104.576019">
<ele>80.575256</ele>
<time>2011-04-28T03:08:49Z</time>
<desc>lat.=22.184229, lon.=104.576019, Alt.=80.575256m. Speed=14.148000m/h.</desc>
<speed>3.930000</speed>
</trkpt>
<trkpt lat="22.184103" lon="104.576164">
<ele>81.200256</ele>
<time>2011-04-28T03:08:54Z</time>
<desc>lat.=22.184103, lon.=104.576164, Alt.=81.200256m. Speed=14.616000m/h.</desc>
<speed>4.060000</speed>
</trkpt>
<trkpt lat="22.183929" lon="104.576309">
<ele>82.290100</ele>
<time>2011-04-28T03:08:59Z</time>
<desc>lat.=22.183929, lon.=104.576309, Alt.=82.290100m. Speed=12.420000m/h.</desc>
<speed>3.450000</speed>
</trkpt>
<trkpt lat="22.183861" lon="104.576431">
<ele>83.153381</ele>
<time>2011-04-28T03:09:04Z</time>
<desc>lat.=22.183861, lon.=104.576431, Alt.=83.153381m. Speed=11.304000m/h.</desc>
<speed>3.140000</speed>
</trkpt>
<trkpt lat="22.183828" lon="104.576584">
<ele>85.663147</ele>
<time>2011-04-28T03:09:09Z</time>
<desc>lat.=22.183828, lon.=104.576584, Alt.=85.663147m. Speed=9.936000m/h.</desc>
<speed>2.760000</speed>
</trkpt>
<trkpt lat="22.183758" lon="104.576736">
<ele>88.836975</ele>
<time>2011-04-28T03:09:14Z</time>
<desc>lat.=22.183758, lon.=104.576736, Alt.=88.836975m. Speed=14.040000m/h.</desc>
<speed>3.900000</speed>
</trkpt>
<trkpt lat="22.183594" lon="104.577019">
<ele>93.237366</ele>
<time>2011-04-28T03:09:19Z</time>
<desc>lat.=22.183594, lon.=104.577019, Alt.=93.237366m. Speed=21.851999m/h.</desc>
<speed>6.070000</speed>
</trkpt>
<trkpt lat="22.183393" lon="104.577324">
<ele>94.274475</ele>
<time>2011-04-28T03:09:24Z</time>
<desc>lat.=22.183393, lon.=104.577324, Alt.=94.274475m. Speed=21.924000m/h.</desc>
<speed>6.090000</speed>
</trkpt>
<trkpt lat="22.183214" lon="104.577599">
<ele>96.383850</ele>
<time>2011-04-28T03:09:29Z</time>
<desc>lat.=22.183214, lon.=104.577599, Alt.=96.383850m. Speed=19.872000m/h.</desc>
<speed>5.520000</speed>
</trkpt>
<trkpt lat="22.183046" lon="104.577820">
<ele>99.301819</ele>
<time>2011-04-28T03:09:34Z</time>
<desc>lat.=22.183046, lon.=104.577820, Alt.=99.301819m. Speed=15.012000m/h.</desc>
<speed>4.170000</speed>
</trkpt>
<trkpt lat="22.182859" lon="104.578018">
<ele>103.670959</ele>
<time>2011-04-28T03:09:39Z</time>
<desc>lat.=22.182859, lon.=104.578018, Alt.=103.670959m. Speed=13.896000m/h.</desc>
<speed>3.860000</speed>
</trkpt>
<trkpt lat="22.182758" lon="104.578163">
<ele>106.075256</ele>
<time>2011-04-28T03:09:44Z</time>
<desc>lat.=22.182758, lon.=104.578163, Alt.=106.075256m. Speed=10.332000m/h.</desc>
<speed>2.870000</speed>
</trkpt>
<trkpt lat="22.182709" lon="104.578224">
<ele>106.899475</ele>
<time>2011-04-28T03:09:49Z</time>
<desc>lat.=22.182709, lon.=104.578224, Alt.=106.899475m. Speed=0.684000m/h.</desc>
<speed>0.190000</speed>
</trkpt>
<trkpt lat="22.182697" lon="104.578232">
<ele>106.133850</ele>
<time>2011-04-28T03:09:54Z</time>
<desc>lat.=22.182697, lon.=104.578232, Alt.=106.133850m. Speed=0.504000m/h.</desc>
<speed>0.140000</speed>
</trkpt>
<trkpt lat="22.182688" lon="104.578232">
<ele>106.124084</ele>
<time>2011-04-28T03:09:59Z</time>
<desc>lat.=22.182688, lon.=104.578232, Alt.=106.124084m. Speed=1.332000m/h.</desc>
<speed>0.370000</speed>
</trkpt>
<trkpt lat="22.182673" lon="104.578232">
<ele>106.096741</ele>
<time>2011-04-28T03:10:04Z</time>
<desc>lat.=22.182673, lon.=104.578232, Alt.=106.096741m. Speed=0.540000m/h.</desc>
<speed>0.150000</speed>
</trkpt>
<trkpt lat="22.182659" lon="104.578239">
<ele>106.071350</ele>
<time>2011-04-28T03:10:09Z</time>
<desc>lat.=22.182659, lon.=104.578239, Alt.=106.071350m. Speed=4.068000m/h.</desc>
<speed>1.130000</speed>
</trkpt>
<trkpt lat="22.182524" lon="104.578377">
<ele>104.672913</ele>
<time>2011-04-28T03:10:14Z</time>
<desc>lat.=22.182524, lon.=104.578377, Alt.=104.672913m. Speed=13.068000m/h.</desc>
<speed>3.630000</speed>
</trkpt>
<trkpt lat="22.182360" lon="104.578583">
<ele>102.756897</ele>
<time>2011-04-28T03:10:19Z</time>
<desc>lat.=22.182360, lon.=104.578583, Alt.=102.756897m. Speed=20.340000m/h.</desc>
<speed>5.650000</speed>
</trkpt>
<trkpt lat="22.182159" lon="104.578819">
<ele>98.690491</ele>
<time>2011-04-28T03:10:24Z</time>
<desc>lat.=22.182159, lon.=104.578819, Alt.=98.690491m. Speed=21.924000m/h.</desc>
<speed>6.090000</speed>
</trkpt>
<trkpt lat="22.181938" lon="104.579124">
<ele>95.288147</ele>
<time>2011-04-28T03:10:29Z</time>
<desc>lat.=22.181938, lon.=104.579124, Alt.=95.288147m. Speed=26.639999m/h.</desc>
<speed>7.400000</speed>
</trkpt>
<trkpt lat="22.181768" lon="104.579475">
<ele>92.553772</ele>
<time>2011-04-28T03:10:34Z</time>
<desc>lat.=22.181768, lon.=104.579475, Alt.=92.553772m. Speed=31.068001m/h.</desc>
<speed>8.630000</speed>
</trkpt>
<trkpt lat="22.181629" lon="104.579903">
<ele>89.260803</ele>
<time>2011-04-28T03:10:39Z</time>
<desc>lat.=22.181629, lon.=104.579903, Alt.=89.260803m. Speed=33.515999m/h.</desc>
<speed>9.310000</speed>
</trkpt>
<trkpt lat="22.181496" lon="104.580299">
<ele>86.368225</ele>
<time>2011-04-28T03:10:44Z</time>
<desc>lat.=22.181496, lon.=104.580299, Alt.=86.368225m. Speed=27.756001m/h.</desc>
<speed>7.710000</speed>
</trkpt>
<trkpt lat="22.181347" lon="104.580582">
<ele>83.993225</ele>
<time>2011-04-28T03:10:49Z</time>
<desc>lat.=22.181347, lon.=104.580582, Alt.=83.993225m. Speed=18.576000m/h.</desc>
<speed>5.160000</speed>
</trkpt>
<trkpt lat="22.181086" lon="104.580658">
<ele>81.096741</ele>
<time>2011-04-28T03:10:54Z</time>
<desc>lat.=22.181086, lon.=104.580658, Alt.=81.096741m. Speed=21.455999m/h.</desc>
<speed>5.960000</speed>
</trkpt>
<trkpt lat="22.180845" lon="104.580666">
<ele>78.629944</ele>
<time>2011-04-28T03:10:59Z</time>
<desc>lat.=22.180845, lon.=104.580666, Alt.=78.629944m. Speed=19.476000m/h.</desc>
<speed>5.410000</speed>
</trkpt>
<trkpt lat="22.180630" lon="104.580711">
<ele>77.497131</ele>
<time>2011-04-28T03:11:04Z</time>
<desc>lat.=22.180630, lon.=104.580711, Alt.=77.497131m. Speed=18.431999m/h.</desc>
<speed>5.120000</speed>
</trkpt>
<trkpt lat="22.180496" lon="104.580956">
<ele>75.944397</ele>
<time>2011-04-28T03:11:09Z</time>
<desc>lat.=22.180496, lon.=104.580956, Alt.=75.944397m. Speed=21.492001m/h.</desc>
<speed>5.970000</speed>
</trkpt>
<trkpt lat="22.180414" lon="104.581261">
<ele>74.190491</ele>
<time>2011-04-28T03:11:14Z</time>
<desc>lat.=22.180414, lon.=104.581261, Alt.=74.190491m. Speed=22.139999m/h.</desc>
<speed>6.150000</speed>
</trkpt>
<trkpt lat="22.180367" lon="104.581566">
<ele>73.264709</ele>
<time>2011-04-28T03:11:19Z</time>
<desc>lat.=22.180367, lon.=104.581566, Alt.=73.264709m. Speed=18.431999m/h.</desc>
<speed>5.120000</speed>
</trkpt>
<trkpt lat="22.180296" lon="104.581772">
<ele>72.932678</ele>
<time>2011-04-28T03:11:24Z</time>
<desc>lat.=22.180296, lon.=104.581772, Alt.=72.932678m. Speed=11.160000m/h.</desc>
<speed>3.100000</speed>
</trkpt>
<trkpt lat="22.180183" lon="104.581848">
<ele>74.762756</ele>
<time>2011-04-28T03:11:29Z</time>
<desc>lat.=22.180183, lon.=104.581848, Alt.=74.762756m. Speed=10.872000m/h.</desc>
<speed>3.020000</speed>
</trkpt>
<trkpt lat="22.180092" lon="104.581932">
<ele>75.446350</ele>
<time>2011-04-28T03:11:34Z</time>
<desc>lat.=22.180092, lon.=104.581932, Alt.=75.446350m. Speed=14.760000m/h.</desc>
<speed>4.100000</speed>
</trkpt>
<trkpt lat="22.179892" lon="104.582047">
<ele>75.676819</ele>
<time>2011-04-28T03:11:39Z</time>
<desc>lat.=22.179892, lon.=104.582047, Alt.=75.676819m. Speed=17.459999m/h.</desc>
<speed>4.850000</speed>
</trkpt>
<trkpt lat="22.179695" lon="104.582169">
<ele>75.877991</ele>
<time>2011-04-28T03:11:44Z</time>
<desc>lat.=22.179695, lon.=104.582169, Alt.=75.877991m. Speed=15.156000m/h.</desc>
<speed>4.210000</speed>
</trkpt>
<trkpt lat="22.179518" lon="104.582298">
<ele>75.569397</ele>
<time>2011-04-28T03:11:49Z</time>
<desc>lat.=22.179518, lon.=104.582298, Alt.=75.569397m. Speed=15.912000m/h.</desc>
<speed>4.420000</speed>
</trkpt>
<trkpt lat="22.179361" lon="104.582481">
<ele>75.475647</ele>
<time>2011-04-28T03:11:54Z</time>
<desc>lat.=22.179361, lon.=104.582481, Alt.=75.475647m. Speed=19.403999m/h.</desc>
<speed>5.390000</speed>
</trkpt>
<trkpt lat="22.179173" lon="104.582710">
<ele>74.721741</ele>
<time>2011-04-28T03:11:59Z</time>
<desc>lat.=22.179173, lon.=104.582710, Alt.=74.721741m. Speed=24.011999m/h.</desc>
<speed>6.670000</speed>
</trkpt>
<trkpt lat="22.178925" lon="104.582932">
<ele>74.266663</ele>
<time>2011-04-28T03:12:04Z</time>
<desc>lat.=22.178925, lon.=104.582932, Alt.=74.266663m. Speed=24.768000m/h.</desc>
<speed>6.880000</speed>
</trkpt>
<trkpt lat="22.178663" lon="104.583191">
<ele>74.024475</ele>
<time>2011-04-28T03:12:09Z</time>
<desc>lat.=22.178663, lon.=104.583191, Alt.=74.024475m. Speed=26.927999m/h.</desc>
<speed>7.480000</speed>
</trkpt>
<trkpt lat="22.178467" lon="104.583458">
<ele>73.549866</ele>
<time>2011-04-28T03:12:14Z</time>
<desc>lat.=22.178467, lon.=104.583458, Alt.=73.549866m. Speed=22.896000m/h.</desc>
<speed>6.360000</speed>
</trkpt>
<trkpt lat="22.178303" lon="104.583633">
<ele>73.231506</ele>
<time>2011-04-28T03:12:19Z</time>
<desc>lat.=22.178303, lon.=104.583633, Alt.=73.231506m. Speed=18.035999m/h.</desc>
<speed>5.010000</speed>
</trkpt>
<trkpt lat="22.178093" lon="104.583740">
<ele>72.213928</ele>
<time>2011-04-28T03:12:24Z</time>
<desc>lat.=22.178093, lon.=104.583740, Alt.=72.213928m. Speed=13.356000m/h.</desc>
<speed>3.710000</speed>
</trkpt>
<trkpt lat="22.177946" lon="104.583710">
<ele>71.815491</ele>
<time>2011-04-28T03:12:29Z</time>
<desc>lat.=22.177946, lon.=104.583710, Alt.=71.815491m. Speed=9.972000m/h.</desc>
<speed>2.770000</speed>
</trkpt>
<trkpt lat="22.177799" lon="104.583595">
<ele>71.872131</ele>
<time>2011-04-28T03:12:34Z</time>
<desc>lat.=22.177799, lon.=104.583595, Alt.=71.872131m. Speed=12.780000m/h.</desc>
<speed>3.550000</speed>
</trkpt>
<trkpt lat="22.177624" lon="104.583542">
<ele>71.635803</ele>
<time>2011-04-28T03:12:39Z</time>
<desc>lat.=22.177624, lon.=104.583542, Alt.=71.635803m. Speed=11.628000m/h.</desc>
<speed>3.230000</speed>
</trkpt>
<trkpt lat="22.177513" lon="104.583565">
<ele>71.583069</ele>
<time>2011-04-28T03:12:44Z</time>
<desc>lat.=22.177513, lon.=104.583565, Alt.=71.583069m. Speed=3.024000m/h.</desc>
<speed>0.840000</speed>
</trkpt>
<trkpt lat="22.177511" lon="104.583588">
<ele>73.319397</ele>
<time>2011-04-28T03:12:49Z</time>
<desc>lat.=22.177511, lon.=104.583588, Alt.=73.319397m. Speed=1.476000m/h.</desc>
<speed>0.410000</speed>
</trkpt>
<trkpt lat="22.177502" lon="104.583595">
<ele>74.295959</ele>
<time>2011-04-28T03:12:54Z</time>
<desc>lat.=22.177502, lon.=104.583595, Alt.=74.295959m. Speed=0.288000m/h.</desc>
<speed>0.080000</speed>
</trkpt>
<trkpt lat="22.177502" lon="104.583595">
<ele>74.495178</ele>
<time>2011-04-28T03:12:59Z</time>
<desc>lat.=22.177502, lon.=104.583595, Alt.=74.495178m. Speed=0.036000m/h.</desc>
<speed>0.010000</speed>
</trkpt>
<trkpt lat="22.177502" lon="104.583595">
<ele>74.442444</ele>
<time>2011-04-28T03:13:04Z</time>
<desc>lat.=22.177502, lon.=104.583595, Alt.=74.442444m. Speed=0.252000m/h.</desc>
<speed>0.070000</speed>
</trkpt>
<trkpt lat="22.177500" lon="104.583595">
<ele>74.448303</ele>
<time>2011-04-28T03:13:09Z</time>
<desc>lat.=22.177500, lon.=104.583595, Alt.=74.448303m. Speed=0.252000m/h.</desc>
<speed>0.070000</speed>
</trkpt>
<trkpt lat="22.177498" lon="104.583595">
<ele>74.460022</ele>
<time>2011-04-28T03:13:14Z</time>
<desc>lat.=22.177498, lon.=104.583595, Alt.=74.460022m. Speed=0.072000m/h.</desc>
<speed>0.020000</speed>
</trkpt>
<trkpt lat="22.177498" lon="104.583595">
<ele>74.514709</ele>
<time>2011-04-28T03:13:19Z</time>
<desc>lat.=22.177498, lon.=104.583595, Alt.=74.514709m. Speed=0.072000m/h.</desc>
<speed>0.020000</speed>
</trkpt>
<trkpt lat="22.177498" lon="104.583595">
<ele>74.588928</ele>
<time>2011-04-28T03:13:24Z</time>
<desc>lat.=22.177498, lon.=104.583595, Alt.=74.588928m. Speed=0.000000m/h.</desc>
<speed>0.000000</speed>
</trkpt>
<trkpt lat="22.177496" lon="104.583595">
<ele>74.581116</ele>
<time>2011-04-28T03:13:29Z</time>
<desc>lat.=22.177496, lon.=104.583595, Alt.=74.581116m. Speed=0.252000m/h.</desc>
<speed>0.070000</speed>
</trkpt>
<trkpt lat="22.177498" lon="104.583595">
<ele>74.669006</ele>
<time>2011-04-28T03:13:34Z</time>
<desc>lat.=22.177498, lon.=104.583595, Alt.=74.669006m. Speed=0.216000m/h.</desc>
<speed>0.060000</speed>
</trkpt>
<trkpt lat="22.177498" lon="104.583595">
<ele>74.731506</ele>
<time>2011-04-28T03:13:39Z</time>
<desc>lat.=22.177498, lon.=104.583595, Alt.=74.731506m. Speed=0.072000m/h.</desc>
<speed>0.020000</speed>
</trkpt>
<trkpt lat="22.177504" lon="104.583588">
<ele>74.825256</ele>
<time>2011-04-28T03:13:44Z</time>
<desc>lat.=22.177504, lon.=104.583588, Alt.=74.825256m. Speed=0.900000m/h.</desc>
<speed>0.250000</speed>
</trkpt>
<trkpt lat="22.177511" lon="104.583588">
<ele>74.885803</ele>
<time>2011-04-28T03:13:49Z</time>
<desc>lat.=22.177511, lon.=104.583588, Alt.=74.885803m. Speed=0.576000m/h.</desc>
<speed>0.160000</speed>
</trkpt>
<trkpt lat="22.177513" lon="104.583588">
<ele>74.907288</ele>
<time>2011-04-28T03:13:54Z</time>
<desc>lat.=22.177513, lon.=104.583588, Alt.=74.907288m. Speed=0.432000m/h.</desc>
<speed>0.120000</speed>
</trkpt>
<trkpt lat="22.177507" lon="104.583588">
<ele>74.922913</ele>
<time>2011-04-28T03:13:59Z</time>
<desc>lat.=22.177507, lon.=104.583588, Alt.=74.922913m. Speed=0.540000m/h.</desc>
<speed>0.150000</speed>
</trkpt>
<trkpt lat="22.177504" lon="104.583595">
<ele>74.924866</ele>
<time>2011-04-28T03:14:04Z</time>
<desc>lat.=22.177504, lon.=104.583595, Alt.=74.924866m. Speed=0.864000m/h.</desc>
<speed>0.240000</speed>
</trkpt>
<trkpt lat="22.177498" lon="104.583595">
<ele>74.901428</ele>
<time>2011-04-28T03:14:09Z</time>
<desc>lat.=22.177498, lon.=104.583595, Alt.=74.901428m. Speed=0.468000m/h.</desc>
<speed>0.130000</speed>
</trkpt>
<trkpt lat="22.177490" lon="104.583603">
<ele>74.850647</ele>
<time>2011-04-28T03:14:14Z</time>
<desc>lat.=22.177490, lon.=104.583603, Alt.=74.850647m. Speed=1.152000m/h.</desc>
<speed>0.320000</speed>
</trkpt>
<trkpt lat="22.177481" lon="104.583611">
<ele>74.811584</ele>
<time>2011-04-28T03:14:19Z</time>
<desc>lat.=22.177481, lon.=104.583611, Alt.=74.811584m. Speed=0.288000m/h.</desc>
<speed>0.080000</speed>
</trkpt>
<trkpt lat="22.177473" lon="104.583611">
<ele>74.756897</ele>
<time>2011-04-28T03:14:24Z</time>
<desc>lat.=22.177473, lon.=104.583611, Alt.=74.756897m. Speed=1.008000m/h.</desc>
<speed>0.280000</speed>
</trkpt>
<trkpt lat="22.177458" lon="104.583618">
<ele>74.692444</ele>
<time>2011-04-28T03:14:29Z</time>
<desc>lat.=22.177458, lon.=104.583618, Alt.=74.692444m. Speed=0.900000m/h.</desc>
<speed>0.250000</speed>
</trkpt>
<trkpt lat="22.177444" lon="104.583618">
<ele>74.612366</ele>
<time>2011-04-28T03:14:34Z</time>
<desc>lat.=22.177444, lon.=104.583618, Alt.=74.612366m. Speed=1.008000m/h.</desc>
<speed>0.280000</speed>
</trkpt>
<trkpt lat="22.177431" lon="104.583626">
<ele>74.536194</ele>
<time>2011-04-28T03:14:39Z</time>
<desc>lat.=22.177431, lon.=104.583626, Alt.=74.536194m. Speed=1.476000m/h.</desc>
<speed>0.410000</speed>
</trkpt>
<trkpt lat="22.177395" lon="104.583679">
<ele>74.469788</ele>
<time>2011-04-28T03:14:44Z</time>
<desc>lat.=22.177395, lon.=104.583679, Alt.=74.469788m. Speed=7.884000m/h.</desc>
<speed>2.190000</speed>
</trkpt>
<trkpt lat="22.177305" lon="104.583809">
<ele>75.014709</ele>
<time>2011-04-28T03:14:49Z</time>
<desc>lat.=22.177305, lon.=104.583809, Alt.=75.014709m. Speed=5.580000m/h.</desc>
<speed>1.550000</speed>
</trkpt>
<trkpt lat="22.177263" lon="104.583931">
<ele>75.497131</ele>
<time>2011-04-28T03:14:54Z</time>
<desc>lat.=22.177263, lon.=104.583931, Alt.=75.497131m. Speed=8.892000m/h.</desc>
<speed>2.470000</speed>
</trkpt>
<trkpt lat="22.177330" lon="104.584129">
<ele>75.366272</ele>
<time>2011-04-28T03:14:59Z</time>
<desc>lat.=22.177330, lon.=104.584129, Alt.=75.366272m. Speed=7.488000m/h.</desc>
<speed>2.080000</speed>
</trkpt>
<trkpt lat="22.177334" lon="104.584267">
<ele>74.516663</ele>
<time>2011-04-28T03:15:04Z</time>
<desc>lat.=22.177334, lon.=104.584267, Alt.=74.516663m. Speed=6.984000m/h.</desc>
<speed>1.940000</speed>
</trkpt>
<trkpt lat="22.177313" lon="104.584389">
<ele>73.639709</ele>
<time>2011-04-28T03:15:09Z</time>
<desc>lat.=22.177313, lon.=104.584389, Alt.=73.639709m. Speed=8.640000m/h.</desc>
<speed>2.400000</speed>
</trkpt>
<trkpt lat="22.177282" lon="104.584511">
<ele>72.858459</ele>
<time>2011-04-28T03:15:14Z</time>
<desc>lat.=22.177282, lon.=104.584511, Alt.=72.858459m. Speed=7.272000m/h.</desc>
<speed>2.020000</speed>
</trkpt>
<trkpt lat="22.177238" lon="104.584595">
<ele>73.723694</ele>
<time>2011-04-28T03:15:19Z</time>
<desc>lat.=22.177238, lon.=104.584595, Alt.=73.723694m. Speed=7.272000m/h.</desc>
<speed>2.020000</speed>
</trkpt>
<trkpt lat="22.177200" lon="104.584679">
<ele>74.549866</ele>
<time>2011-04-28T03:15:24Z</time>
<desc>lat.=22.177200, lon.=104.584679, Alt.=74.549866m. Speed=5.580000m/h.</desc>
<speed>1.550000</speed>
</trkpt>
<trkpt lat="22.177143" lon="104.584755">
<ele>74.897522</ele>
<time>2011-04-28T03:15:29Z</time>
<desc>lat.=22.177143, lon.=104.584755, Alt.=74.897522m. Speed=5.328000m/h.</desc>
<speed>1.480000</speed>
</trkpt>
<trkpt lat="22.177053" lon="104.584846">
<ele>74.874084</ele>
<time>2011-04-28T03:15:34Z</time>
<desc>lat.=22.177053, lon.=104.584846, Alt.=74.874084m. Speed=5.940000m/h.</desc>
<speed>1.650000</speed>
</trkpt>
<trkpt lat="22.176987" lon="104.584930">
<ele>74.991272</ele>
<time>2011-04-28T03:15:39Z</time>
<desc>lat.=22.176987, lon.=104.584930, Alt.=74.991272m. Speed=6.264000m/h.</desc>
<speed>1.740000</speed>
</trkpt>
<trkpt lat="22.176937" lon="104.585022">
<ele>76.036194</ele>
<time>2011-04-28T03:15:44Z</time>
<desc>lat.=22.176937, lon.=104.585022, Alt.=76.036194m. Speed=8.064000m/h.</desc>
<speed>2.240000</speed>
</trkpt>
<trkpt lat="22.176893" lon="104.585098">
<ele>76.167053</ele>
<time>2011-04-28T03:15:49Z</time>
<desc>lat.=22.176893, lon.=104.585098, Alt.=76.167053m. Speed=3.240000m/h.</desc>
<speed>0.900000</speed>
</trkpt>
<trkpt lat="22.176840" lon="104.585190">
<ele>76.706116</ele>
<time>2011-04-28T03:15:54Z</time>
<desc>lat.=22.176840, lon.=104.585190, Alt.=76.706116m. Speed=5.760000m/h.</desc>
<speed>1.600000</speed>
</trkpt>
<trkpt lat="22.176735" lon="104.585297">
<ele>74.483459</ele>
<time>2011-04-28T03:15:59Z</time>
<desc>lat.=22.176735, lon.=104.585297, Alt.=74.483459m. Speed=8.352000m/h.</desc>
<speed>2.320000</speed>
</trkpt>
<trkpt lat="22.176641" lon="104.585373">
<ele>73.585022</ele>
<time>2011-04-28T03:16:04Z</time>
<desc>lat.=22.176641, lon.=104.585373, Alt.=73.585022m. Speed=6.228000m/h.</desc>
<speed>1.730000</speed>
</trkpt>
<trkpt lat="22.176731" lon="104.585571">
<ele>73.612366</ele>
<time>2011-04-28T03:16:09Z</time>
<desc>lat.=22.176731, lon.=104.585571, Alt.=73.612366m. Speed=19.080000m/h.</desc>
<speed>5.300000</speed>
</trkpt>
<trkpt lat="22.176884" lon="104.585899">
<ele>72.411194</ele>
<time>2011-04-28T03:16:14Z</time>
<desc>lat.=22.176884, lon.=104.585899, Alt.=72.411194m. Speed=24.516001m/h.</desc>
<speed>6.810000</speed>
</trkpt>
<trkpt lat="22.176950" lon="104.586273">
<ele>72.325256</ele>
<time>2011-04-28T03:16:19Z</time>
<desc>lat.=22.176950, lon.=104.586273, Alt.=72.325256m. Speed=27.612000m/h.</desc>
<speed>7.670000</speed>
</trkpt>
<trkpt lat="22.176952" lon="104.586670">
<ele>71.545959</ele>
<time>2011-04-28T03:16:24Z</time>
<desc>lat.=22.176952, lon.=104.586670, Alt.=71.545959m. Speed=23.184000m/h.</desc>
<speed>6.440000</speed>
</trkpt>
<trkpt lat="22.176868" lon="104.587036">
<ele>69.590881</ele>
<time>2011-04-28T03:16:29Z</time>
<desc>lat.=22.176868, lon.=104.587036, Alt.=69.590881m. Speed=22.284000m/h.</desc>
<speed>6.190000</speed>
</trkpt>
<trkpt lat="22.176748" lon="104.587288">
<ele>70.467834</ele>
<time>2011-04-28T03:16:34Z</time>
<desc>lat.=22.176748, lon.=104.587288, Alt.=70.467834m. Speed=18.468000m/h.</desc>
<speed>5.130000</speed>
</trkpt>
<trkpt lat="22.176613" lon="104.587463">
<ele>69.204163</ele>
<time>2011-04-28T03:16:39Z</time>
<desc>lat.=22.176613, lon.=104.587463, Alt.=69.204163m. Speed=17.532000m/h.</desc>
<speed>4.870000</speed>
</trkpt>
<trkpt lat="22.176460" lon="104.587631">
<ele>69.192444</ele>
<time>2011-04-28T03:16:44Z</time>
<desc>lat.=22.176460, lon.=104.587631, Alt.=69.192444m. Speed=16.920000m/h.</desc>
<speed>4.700000</speed>
</trkpt>
<trkpt lat="22.176311" lon="104.587837">
<ele>68.696350</ele>
<time>2011-04-28T03:16:49Z</time>
<desc>lat.=22.176311, lon.=104.587837, Alt.=68.696350m. Speed=16.812000m/h.</desc>
<speed>4.670000</speed>
</trkpt>
<trkpt lat="22.176195" lon="104.588058">
<ele>68.356506</ele>
<time>2011-04-28T03:16:54Z</time>
<desc>lat.=22.176195, lon.=104.588058, Alt.=68.356506m. Speed=16.920000m/h.</desc>
<speed>4.700000</speed>
</trkpt>
<trkpt lat="22.176098" lon="104.588249">
<ele>67.838928</ele>
<time>2011-04-28T03:16:59Z</time>
<desc>lat.=22.176098, lon.=104.588249, Alt.=67.838928m. Speed=15.552000m/h.</desc>
<speed>4.320000</speed>
</trkpt>
<trkpt lat="22.176016" lon="104.588455">
<ele>66.010803</ele>
<time>2011-04-28T03:17:04Z</time>
<desc>lat.=22.176016, lon.=104.588455, Alt.=66.010803m. Speed=14.256000m/h.</desc>
<speed>3.960000</speed>
</trkpt>
<trkpt lat="22.175905" lon="104.588638">
<ele>69.336975</ele>
<time>2011-04-28T03:17:09Z</time>
<desc>lat.=22.175905, lon.=104.588638, Alt.=69.336975m. Speed=14.544000m/h.</desc>
<speed>4.040000</speed>
</trkpt>
<trkpt lat="22.175798" lon="104.588760">
<ele>70.524475</ele>
<time>2011-04-28T03:17:14Z</time>
<desc>lat.=22.175798, lon.=104.588760, Alt.=70.524475m. Speed=11.772000m/h.</desc>
<speed>3.270000</speed>
</trkpt>
<trkpt lat="22.175695" lon="104.588882">
<ele>70.883850</ele>
<time>2011-04-28T03:17:19Z</time>
<desc>lat.=22.175695, lon.=104.588882, Alt.=70.883850m. Speed=12.636000m/h.</desc>
<speed>3.510000</speed>
</trkpt>
<trkpt lat="22.175640" lon="104.589058">
<ele>70.010803</ele>
<time>2011-04-28T03:17:24Z</time>
<desc>lat.=22.175640, lon.=104.589058, Alt.=70.010803m. Speed=14.688000m/h.</desc>
<speed>4.080000</speed>
</trkpt>
<trkpt lat="22.175657" lon="104.589272">
<ele>70.251038</ele>
<time>2011-04-28T03:17:29Z</time>
<desc>lat.=22.175657, lon.=104.589272, Alt.=70.251038m. Speed=15.156000m/h.</desc>
<speed>4.210000</speed>
</trkpt>
<trkpt lat="22.175680" lon="104.589485">
<ele>71.335022</ele>
<time>2011-04-28T03:17:34Z</time>
<desc>lat.=22.175680, lon.=104.589485, Alt.=71.335022m. Speed=15.984000m/h.</desc>
<speed>4.440000</speed>
</trkpt>
<trkpt lat="22.175632" lon="104.589668">
<ele>72.563538</ele>
<time>2011-04-28T03:17:39Z</time>
<desc>lat.=22.175632, lon.=104.589668, Alt.=72.563538m. Speed=10.836000m/h.</desc>
<speed>3.010000</speed>
</trkpt>
<trkpt lat="22.175556" lon="104.589783">
<ele>73.381897</ele>
<time>2011-04-28T03:17:44Z</time>
<desc>lat.=22.175556, lon.=104.589783, Alt.=73.381897m. Speed=10.800000m/h.</desc>
<speed>3.000000</speed>
</trkpt>
<trkpt lat="22.175430" lon="104.589874">
<ele>75.077209</ele>
<time>2011-04-28T03:17:49Z</time>
<desc>lat.=22.175430, lon.=104.589874, Alt.=75.077209m. Speed=11.916000m/h.</desc>
<speed>3.310000</speed>
</trkpt>
<trkpt lat="22.175222" lon="104.589874">
<ele>76.415100</ele>
<time>2011-04-28T03:17:54Z</time>
<desc>lat.=22.175222, lon.=104.589874, Alt.=76.415100m. Speed=13.248000m/h.</desc>
<speed>3.680000</speed>
</trkpt>
<trkpt lat="22.175072" lon="104.589874">
<ele>78.086975</ele>
<time>2011-04-28T03:17:59Z</time>
<desc>lat.=22.175072, lon.=104.589874, Alt.=78.086975m. Speed=8.712000m/h.</desc>
<speed>2.420000</speed>
</trkpt>
<trkpt lat="22.174944" lon="104.590019">
<ele>77.461975</ele>
<time>2011-04-28T03:18:04Z</time>
<desc>lat.=22.174944, lon.=104.590019, Alt.=77.461975m. Speed=9.864000m/h.</desc>
<speed>2.740000</speed>
</trkpt>
<trkpt lat="22.174868" lon="104.590187">
<ele>76.969788</ele>
<time>2011-04-28T03:18:09Z</time>
<desc>lat.=22.174868, lon.=104.590187, Alt.=76.969788m. Speed=12.348000m/h.</desc>
<speed>3.430000</speed>
</trkpt>
<trkpt lat="22.174822" lon="104.590340">
<ele>77.102600</ele>
<time>2011-04-28T03:18:14Z</time>
<desc>lat.=22.174822, lon.=104.590340, Alt.=77.102600m. Speed=11.880000m/h.</desc>
<speed>3.300000</speed>
</trkpt>
<trkpt lat="22.174732" lon="104.590492">
<ele>77.381897</ele>
<time>2011-04-28T03:18:19Z</time>
<desc>lat.=22.174732, lon.=104.590492, Alt.=77.381897m. Speed=10.872000m/h.</desc>
<speed>3.020000</speed>
</trkpt>
<trkpt lat="22.174627" lon="104.590569">
<ele>77.940491</ele>
<time>2011-04-28T03:18:24Z</time>
<desc>lat.=22.174627, lon.=104.590569, Alt.=77.940491m. Speed=6.660000m/h.</desc>
<speed>1.850000</speed>
</trkpt>
<trkpt lat="22.174576" lon="104.590599">
<ele>78.463928</ele>
<time>2011-04-28T03:18:29Z</time>
<desc>lat.=22.174576, lon.=104.590599, Alt.=78.463928m. Speed=5.688000m/h.</desc>
<speed>1.580000</speed>
</trkpt>
<trkpt lat="22.174473" lon="104.590652">
<ele>78.852600</ele>
<time>2011-04-28T03:18:34Z</time>
<desc>lat.=22.174473, lon.=104.590652, Alt.=78.852600m. Speed=8.712000m/h.</desc>
<speed>2.420000</speed>
</trkpt>
<trkpt lat="22.174398" lon="104.590683">
<ele>79.104553</ele>
<time>2011-04-28T03:18:39Z</time>
<desc>lat.=22.174398, lon.=104.590683, Alt.=79.104553m. Speed=5.940000m/h.</desc>
<speed>1.650000</speed>
</trkpt>
<trkpt lat="22.174309" lon="104.590744">
<ele>79.756897</ele>
<time>2011-04-28T03:18:44Z</time>
<desc>lat.=22.174309, lon.=104.590744, Alt.=79.756897m. Speed=5.760000m/h.</desc>
<speed>1.600000</speed>
</trkpt>
<trkpt lat="22.174202" lon="104.590805">
<ele>80.114319</ele>
<time>2011-04-28T03:18:49Z</time>
<desc>lat.=22.174202, lon.=104.590805, Alt.=80.114319m. Speed=7.344000m/h.</desc>
<speed>2.040000</speed>
</trkpt>
<trkpt lat="22.174114" lon="104.590889">
<ele>80.676819</ele>
<time>2011-04-28T03:18:54Z</time>
<desc>lat.=22.174114, lon.=104.590889, Alt.=80.676819m. Speed=6.696000m/h.</desc>
<speed>1.860000</speed>
</trkpt>
<trkpt lat="22.174025" lon="104.590958">
<ele>81.276428</ele>
<time>2011-04-28T03:18:59Z</time>
<desc>lat.=22.174025, lon.=104.590958, Alt.=81.276428m. Speed=5.832000m/h.</desc>
<speed>1.620000</speed>
</trkpt>
<trkpt lat="22.173958" lon="104.590996">
<ele>82.090881</ele>
<time>2011-04-28T03:19:04Z</time>
<desc>lat.=22.173958, lon.=104.590996, Alt.=82.090881m. Speed=5.148000m/h.</desc>
<speed>1.430000</speed>
</trkpt>
<trkpt lat="22.173891" lon="104.591042">
<ele>82.862366</ele>
<time>2011-04-28T03:19:09Z</time>
<desc>lat.=22.173891, lon.=104.591042, Alt.=82.862366m. Speed=5.652000m/h.</desc>
<speed>1.570000</speed>
</trkpt>
<trkpt lat="22.173796" lon="104.591103">
<ele>84.135803</ele>
<time>2011-04-28T03:19:14Z</time>
<desc>lat.=22.173796, lon.=104.591103, Alt.=84.135803m. Speed=7.380000m/h.</desc>
<speed>2.050000</speed>
</trkpt>
<trkpt lat="22.173698" lon="104.591171">
<ele>84.780334</ele>
<time>2011-04-28T03:19:19Z</time>
<desc>lat.=22.173698, lon.=104.591171, Alt.=84.780334m. Speed=8.172000m/h.</desc>
<speed>2.270000</speed>
</trkpt>
<trkpt lat="22.173592" lon="104.591309">
<ele>84.536194</ele>
<time>2011-04-28T03:19:24Z</time>
<desc>lat.=22.173592, lon.=104.591309, Alt.=84.536194m. Speed=10.728000m/h.</desc>
<speed>2.980000</speed>
</trkpt>
<trkpt lat="22.173492" lon="104.591469">
<ele>83.920959</ele>
<time>2011-04-28T03:19:29Z</time>
<desc>lat.=22.173492, lon.=104.591469, Alt.=83.920959m. Speed=13.572000m/h.</desc>
<speed>3.770000</speed>
</trkpt>
<trkpt lat="22.173391" lon="104.591637">
<ele>83.772522</ele>
<time>2011-04-28T03:19:34Z</time>
<desc>lat.=22.173391, lon.=104.591637, Alt.=83.772522m. Speed=14.112000m/h.</desc>
<speed>3.920000</speed>
</trkpt>
<trkpt lat="22.173330" lon="104.591858">
<ele>83.448303</ele>
<time>2011-04-28T03:19:39Z</time>
<desc>lat.=22.173330, lon.=104.591858, Alt.=83.448303m. Speed=17.172001m/h.</desc>
<speed>4.770000</speed>
</trkpt>
<trkpt lat="22.173265" lon="104.592110">
<ele>81.641663</ele>
<time>2011-04-28T03:19:44Z</time>
<desc>lat.=22.173265, lon.=104.592110, Alt.=81.641663m. Speed=20.087999m/h.</desc>
<speed>5.580000</speed>
</trkpt>
<trkpt lat="22.173132" lon="104.592346">
<ele>80.991272</ele>
<time>2011-04-28T03:19:49Z</time>
<desc>lat.=22.173132, lon.=104.592346, Alt.=80.991272m. Speed=19.332001m/h.</desc>
<speed>5.370000</speed>
</trkpt>
<trkpt lat="22.172974" lon="104.592552">
<ele>80.258850</ele>
<time>2011-04-28T03:19:54Z</time>
<desc>lat.=22.172974, lon.=104.592552, Alt.=80.258850m. Speed=18.936001m/h.</desc>
<speed>5.260000</speed>
</trkpt>
<trkpt lat="22.172815" lon="104.592758">
<ele>80.161194</ele>
<time>2011-04-28T03:19:59Z</time>
<desc>lat.=22.172815, lon.=104.592758, Alt.=80.161194m. Speed=19.115999m/h.</desc>
<speed>5.310000</speed>
</trkpt>
<trkpt lat="22.172632" lon="104.592934">
<ele>79.938538</ele>
<time>2011-04-28T03:20:04Z</time>
<desc>lat.=22.172632, lon.=104.592934, Alt.=79.938538m. Speed=19.656000m/h.</desc>
<speed>5.460000</speed>
</trkpt>
<trkpt lat="22.172436" lon="104.593040">
<ele>80.844788</ele>
<time>2011-04-28T03:20:09Z</time>
<desc>lat.=22.172436, lon.=104.593040, Alt.=80.844788m. Speed=15.804000m/h.</desc>
<speed>4.390000</speed>
</trkpt>
<trkpt lat="22.172262" lon="104.593163">
<ele>81.819397</ele>
<time>2011-04-28T03:20:14Z</time>
<desc>lat.=22.172262, lon.=104.593163, Alt.=81.819397m. Speed=13.680000m/h.</desc>
<speed>3.800000</speed>
</trkpt>
<trkpt lat="22.172155" lon="104.593307">
<ele>82.497131</ele>
<time>2011-04-28T03:20:19Z</time>
<desc>lat.=22.172155, lon.=104.593307, Alt.=82.497131m. Speed=9.792000m/h.</desc>
<speed>2.720000</speed>
</trkpt>
<trkpt lat="22.172060" lon="104.593430">
<ele>82.581116</ele>
<time>2011-04-28T03:20:24Z</time>
<desc>lat.=22.172060, lon.=104.593430, Alt.=82.581116m. Speed=9.324000m/h.</desc>
<speed>2.590000</speed>
</trkpt>
<trkpt lat="22.171991" lon="104.593529">
<ele>83.479553</ele>
<time>2011-04-28T03:20:29Z</time>
<desc>lat.=22.171991, lon.=104.593529, Alt.=83.479553m. Speed=9.756000m/h.</desc>
<speed>2.710000</speed>
</trkpt>
<trkpt lat="22.171911" lon="104.593651">
<ele>83.563538</ele>
<time>2011-04-28T03:20:34Z</time>
<desc>lat.=22.171911, lon.=104.593651, Alt.=83.563538m. Speed=9.216000m/h.</desc>
<speed>2.560000</speed>
</trkpt>
<trkpt lat="22.171865" lon="104.593803">
<ele>81.081116</ele>
<time>2011-04-28T03:20:39Z</time>
<desc>lat.=22.171865, lon.=104.593803, Alt.=81.081116m. Speed=11.916000m/h.</desc>
<speed>3.310000</speed>
</trkpt>
<trkpt lat="22.171791" lon="104.594017">
<ele>80.241272</ele>
<time>2011-04-28T03:20:44Z</time>
<desc>lat.=22.171791, lon.=104.594017, Alt.=80.241272m. Speed=18.396000m/h.</desc>
<speed>5.110000</speed>
</trkpt>
<trkpt lat="22.171659" lon="104.594246">
<ele>79.122131</ele>
<time>2011-04-28T03:20:49Z</time>
<desc>lat.=22.171659, lon.=104.594246, Alt.=79.122131m. Speed=21.455999m/h.</desc>
<speed>5.960000</speed>
</trkpt>
<trkpt lat="22.171480" lon="104.594498">
<ele>77.163147</ele>
<time>2011-04-28T03:20:54Z</time>
<desc>lat.=22.171480, lon.=104.594498, Alt.=77.163147m. Speed=22.860001m/h.</desc>
<speed>6.350000</speed>
</trkpt>
<trkpt lat="22.171303" lon="104.594765">
<ele>78.797913</ele>
<time>2011-04-28T03:20:59Z</time>
<desc>lat.=22.171303, lon.=104.594765, Alt.=78.797913m. Speed=22.139999m/h.</desc>
<speed>6.150000</speed>
</trkpt>
<trkpt lat="22.171158" lon="104.595032">
<ele>78.471741</ele>
<time>2011-04-28T03:21:04Z</time>
<desc>lat.=22.171158, lon.=104.595032, Alt.=78.471741m. Speed=21.059999m/h.</desc>
<speed>5.850000</speed>
</trkpt>
<trkpt lat="22.171041" lon="104.595245">
<ele>78.606506</ele>
<time>2011-04-28T03:21:09Z</time>
<desc>lat.=22.171041, lon.=104.595245, Alt.=78.606506m. Speed=18.612000m/h.</desc>
<speed>5.170000</speed>
</trkpt>
<trkpt lat="22.170918" lon="104.595413">
<ele>80.508850</ele>
<time>2011-04-28T03:21:14Z</time>
<desc>lat.=22.170918, lon.=104.595413, Alt.=80.508850m. Speed=13.536000m/h.</desc>
<speed>3.760000</speed>
</trkpt>
<trkpt lat="22.170828" lon="104.595573">
<ele>81.079163</ele>
<time>2011-04-28T03:21:19Z</time>
<desc>lat.=22.170828, lon.=104.595573, Alt.=81.079163m. Speed=10.764000m/h.</desc>
<speed>2.990000</speed>
</trkpt>
<trkpt lat="22.170824" lon="104.595718">
<ele>81.694397</ele>
<time>2011-04-28T03:21:24Z</time>
<desc>lat.=22.170824, lon.=104.595718, Alt.=81.694397m. Speed=11.808000m/h.</desc>
<speed>3.280000</speed>
</trkpt>
<trkpt lat="22.170845" lon="104.595863">
<ele>82.223694</ele>
<time>2011-04-28T03:21:29Z</time>
<desc>lat.=22.170845, lon.=104.595863, Alt.=82.223694m. Speed=11.592000m/h.</desc>
<speed>3.220000</speed>
</trkpt>
<trkpt lat="22.170860" lon="104.596001">
<ele>82.868225</ele>
<time>2011-04-28T03:21:34Z</time>
<desc>lat.=22.170860, lon.=104.596001, Alt.=82.868225m. Speed=8.532000m/h.</desc>
<speed>2.370000</speed>
</trkpt>
<trkpt lat="22.170870" lon="104.596100">
<ele>83.854553</ele>
<time>2011-04-28T03:21:39Z</time>
<desc>lat.=22.170870, lon.=104.596100, Alt.=83.854553m. Speed=5.040000m/h.</desc>
<speed>1.400000</speed>
</trkpt>
<trkpt lat="22.170876" lon="104.596115">
<ele>84.372131</ele>
<time>2011-04-28T03:21:44Z</time>
<desc>lat.=22.170876, lon.=104.596115, Alt.=84.372131m. Speed=0.504000m/h.</desc>
<speed>0.140000</speed>
</trkpt>
<trkpt lat="22.170877" lon="104.596115">
<ele>84.434631</ele>
<time>2011-04-28T03:21:49Z</time>
<desc>lat.=22.170877, lon.=104.596115, Alt.=84.434631m. Speed=0.108000m/h.</desc>
<speed>0.030000</speed>
</trkpt>
<trkpt lat="22.170879" lon="104.596123">
<ele>84.471741</ele>
<time>2011-04-28T03:21:54Z</time>
<desc>lat.=22.170879, lon.=104.596123, Alt.=84.471741m. Speed=0.288000m/h.</desc>
<speed>0.080000</speed>
</trkpt>
<trkpt lat="22.170879" lon="104.596123">
<ele>84.469788</ele>
<time>2011-04-28T03:21:59Z</time>
<desc>lat.=22.170879, lon.=104.596123, Alt.=84.469788m. Speed=0.108000m/h.</desc>
<speed>0.030000</speed>
</trkpt>
<trkpt lat="22.170877" lon="104.596123">
<ele>84.475647</ele>
<time>2011-04-28T03:22:04Z</time>
<desc>lat.=22.170877, lon.=104.596123, Alt.=84.475647m. Speed=0.108000m/h.</desc>
<speed>0.030000</speed>
</trkpt>
<trkpt lat="22.170877" lon="104.596123">
<ele>84.506897</ele>
<time>2011-04-28T03:22:09Z</time>
<desc>lat.=22.170877, lon.=104.596123, Alt.=84.506897m. Speed=0.288000m/h.</desc>
<speed>0.080000</speed>
</trkpt>
<trkpt lat="22.170876" lon="104.596123">
<ele>84.524475</ele>
<time>2011-04-28T03:22:14Z</time>
<desc>lat.=22.170876, lon.=104.596123, Alt.=84.524475m. Speed=0.180000m/h.</desc>
<speed>0.050000</speed>
</trkpt>
<trkpt lat="22.170876" lon="104.596123">
<ele>84.504944</ele>
<time>2011-04-28T03:22:19Z</time>
<desc>lat.=22.170876, lon.=104.596123, Alt.=84.504944m. Speed=0.612000m/h.</desc>
<speed>0.170000</speed>
</trkpt>
<trkpt lat="22.170876" lon="104.596130">
<ele>84.545959</ele>
<time>2011-04-28T03:22:24Z</time>
<desc>lat.=22.170876, lon.=104.596130, Alt.=84.545959m. Speed=0.324000m/h.</desc>
<speed>0.090000</speed>
</trkpt>
<trkpt lat="22.170876" lon="104.596130">
<ele>84.571350</ele>
<time>2011-04-28T03:22:29Z</time>
<desc>lat.=22.170876, lon.=104.596130, Alt.=84.571350m. Speed=0.072000m/h.</desc>
<speed>0.020000</speed>
</trkpt>
<trkpt lat="22.170876" lon="104.596123">
<ele>84.586975</ele>
<time>2011-04-28T03:22:34Z</time>
<desc>lat.=22.170876, lon.=104.596123, Alt.=84.586975m. Speed=0.000000m/h.</desc>
<speed>0.000000</speed>
</trkpt>
<trkpt lat="22.170876" lon="104.596123">
<ele>84.590881</ele>
<time>2011-04-28T03:22:39Z</time>
<desc>lat.=22.170876, lon.=104.596123, Alt.=84.590881m. Speed=0.108000m/h.</desc>
<speed>0.030000</speed>
</trkpt>
<trkpt lat="22.170876" lon="104.596123">
<ele>84.596741</ele>
<time>2011-04-28T03:22:44Z</time>
<desc>lat.=22.170876, lon.=104.596123, Alt.=84.596741m. Speed=0.036000m/h.</desc>
<speed>0.010000</speed>
</trkpt>
<trkpt lat="22.170876" lon="104.596123">
<ele>84.596741</ele>
<time>2011-04-28T03:22:49Z</time>
<desc>lat.=22.170876, lon.=104.596123, Alt.=84.596741m. Speed=0.036000m/h.</desc>
<speed>0.010000</speed>
</trkpt>
<trkpt lat="22.170876" lon="104.596123">
<ele>84.608459</ele>
<time>2011-04-28T03:22:54Z</time>
<desc>lat.=22.170876, lon.=104.596123, Alt.=84.608459m. Speed=0.036000m/h.</desc>
<speed>0.010000</speed>
</trkpt>
<trkpt lat="22.170876" lon="104.596123">
<ele>84.606506</ele>
<time>2011-04-28T03:22:59Z</time>
<desc>lat.=22.170876, lon.=104.596123, Alt.=84.606506m. Speed=0.000000m/h.</desc>
<speed>0.000000</speed>
</trkpt>
<trkpt lat="22.170876" lon="104.596123">
<ele>84.598694</ele>
<time>2011-04-28T03:23:04Z</time>
<desc>lat.=22.170876, lon.=104.596123, Alt.=84.598694m. Speed=0.036000m/h.</desc>
<speed>0.010000</speed>
</trkpt>
<trkpt lat="22.170876" lon="104.596123">
<ele>84.598694</ele>
<time>2011-04-28T03:23:09Z</time>
<desc>lat.=22.170876, lon.=104.596123, Alt.=84.598694m. Speed=0.036000m/h.</desc>
<speed>0.010000</speed>
</trkpt>
<trkpt lat="22.170876" lon="104.596123">
<ele>84.616272</ele>
<time>2011-04-28T03:23:14Z</time>
<desc>lat.=22.170876, lon.=104.596123, Alt.=84.616272m. Speed=0.072000m/h.</desc>
<speed>0.020000</speed>
</trkpt>
<trkpt lat="22.170876" lon="104.596123">
<ele>84.616272</ele>
<time>2011-04-28T03:23:19Z</time>
<desc>lat.=22.170876, lon.=104.596123, Alt.=84.616272m. Speed=0.036000m/h.</desc>
<speed>0.010000</speed>
</trkpt>
<trkpt lat="22.170876" lon="104.596123">
<ele>84.612366</ele>
<time>2011-04-28T03:23:24Z</time>
<desc>lat.=22.170876, lon.=104.596123, Alt.=84.612366m. Speed=0.036000m/h.</desc>
<speed>0.010000</speed>
</trkpt>
<trkpt lat="22.170876" lon="104.596130">
<ele>84.641663</ele>
<time>2011-04-28T03:23:29Z</time>
<desc>lat.=22.170876, lon.=104.596130, Alt.=84.641663m. Speed=0.072000m/h.</desc>
<speed>0.020000</speed>
</trkpt>
<trkpt lat="22.170876" lon="104.596130">
<ele>84.696350</ele>
<time>2011-04-28T03:23:34Z</time>
<desc>lat.=22.170876, lon.=104.596130, Alt.=84.696350m. Speed=0.108000m/h.</desc>
<speed>0.030000</speed>
</trkpt>
<trkpt lat="22.170876" lon="104.596130">
<ele>84.776428</ele>
<time>2011-04-28T03:23:39Z</time>
<desc>lat.=22.170876, lon.=104.596130, Alt.=84.776428m. Speed=0.000000m/h.</desc>
<speed>0.000000</speed>
</trkpt>
<trkpt lat="22.170874" lon="104.596130">
<ele>84.909241</ele>
<time>2011-04-28T03:23:44Z</time>
<desc>lat.=22.170874, lon.=104.596130, Alt.=84.909241m. Speed=0.036000m/h.</desc>
<speed>0.010000</speed>
</trkpt>
<trkpt lat="22.170874" lon="104.596130">
<ele>84.991272</ele>
<time>2011-04-28T03:23:49Z</time>
<desc>lat.=22.170874, lon.=104.596130, Alt.=84.991272m. Speed=0.036000m/h.</desc>
<speed>0.010000</speed>
</trkpt>
<trkpt lat="22.170874" lon="104.596130">
<ele>85.026428</ele>
<time>2011-04-28T03:23:54Z</time>
<desc>lat.=22.170874, lon.=104.596130, Alt.=85.026428m. Speed=0.072000m/h.</desc>
<speed>0.020000</speed>
</trkpt>
<trkpt lat="22.170874" lon="104.596130">
<ele>85.020569</ele>
<time>2011-04-28T03:23:59Z</time>
<desc>lat.=22.170874, lon.=104.596130, Alt.=85.020569m. Speed=0.036000m/h.</desc>
<speed>0.010000</speed>
</trkpt>
<trkpt lat="22.170876" lon="104.596130">
<ele>85.014709</ele>
<time>2011-04-28T03:24:04Z</time>
<desc>lat.=22.170876, lon.=104.596130, Alt.=85.014709m. Speed=0.216000m/h.</desc>
<speed>0.060000</speed>
</trkpt>
<trkpt lat="22.170876" lon="104.596130">
<ele>85.020569</ele>
<time>2011-04-28T03:24:09Z</time>
<desc>lat.=22.170876, lon.=104.596130, Alt.=85.020569m. Speed=0.072000m/h.</desc>
<speed>0.020000</speed>
</trkpt>
<trkpt lat="22.170876" lon="104.596130">
<ele>85.020569</ele>
<time>2011-04-28T03:24:14Z</time>
<desc>lat.=22.170876, lon.=104.596130, Alt.=85.020569m. Speed=0.180000m/h.</desc>
<speed>0.050000</speed>
</trkpt>
<trkpt lat="22.170874" lon="104.596130">
<ele>85.051819</ele>
<time>2011-04-28T03:24:19Z</time>
<desc>lat.=22.170874, lon.=104.596130, Alt.=85.051819m. Speed=0.144000m/h.</desc>
<speed>0.040000</speed>
</trkpt>
<trkpt lat="22.170874" lon="104.596130">
<ele>85.044006</ele>
<time>2011-04-28T03:24:24Z</time>
<desc>lat.=22.170874, lon.=104.596130, Alt.=85.044006m. Speed=0.036000m/h.</desc>
<speed>0.010000</speed>
</trkpt>
<trkpt lat="22.170874" lon="104.596130">
<ele>85.061584</ele>
<time>2011-04-28T03:24:29Z</time>
<desc>lat.=22.170874, lon.=104.596130, Alt.=85.061584m. Speed=0.000000m/h.</desc>
<speed>0.000000</speed>
</trkpt>
<trkpt lat="22.170874" lon="104.596130">
<ele>85.073303</ele>
<time>2011-04-28T03:24:34Z</time>
<desc>lat.=22.170874, lon.=104.596130, Alt.=85.073303m. Speed=0.000000m/h.</desc>
<speed>0.000000</speed>
</trkpt>
<trkpt lat="22.170874" lon="104.596130">
<ele>85.112366</ele>
<time>2011-04-28T03:24:39Z</time>
<desc>lat.=22.170874, lon.=104.596130, Alt.=85.112366m. Speed=0.000000m/h.</desc>
<speed>0.000000</speed>
</trkpt>
<trkpt lat="22.170874" lon="104.596130">
<ele>85.155334</ele>
<time>2011-04-28T03:24:44Z</time>
<desc>lat.=22.170874, lon.=104.596130, Alt.=85.155334m. Speed=0.000000m/h.</desc>
<speed>0.000000</speed>
</trkpt>
<trkpt lat="22.170874" lon="104.596130">
<ele>85.149475</ele>
<time>2011-04-28T03:24:49Z</time>
<desc>lat.=22.170874, lon.=104.596130, Alt.=85.149475m. Speed=0.108000m/h.</desc>
<speed>0.030000</speed>
</trkpt>
<trkpt lat="22.170874" lon="104.596130">
<ele>85.153381</ele>
<time>2011-04-28T03:24:54Z</time>
<desc>lat.=22.170874, lon.=104.596130, Alt.=85.153381m. Speed=0.072000m/h.</desc>
<speed>0.020000</speed>
</trkpt>
<trkpt lat="22.170874" lon="104.596130">
<ele>85.159241</ele>
<time>2011-04-28T03:24:59Z</time>
<desc>lat.=22.170874, lon.=104.596130, Alt.=85.159241m. Speed=0.000000m/h.</desc>
<speed>0.000000</speed>
</trkpt>
<trkpt lat="22.170874" lon="104.596130">
<ele>85.170959</ele>
<time>2011-04-28T03:25:04Z</time>
<desc>lat.=22.170874, lon.=104.596130, Alt.=85.170959m. Speed=0.072000m/h.</desc>
<speed>0.020000</speed>
</trkpt>
<trkpt lat="22.170874" lon="104.596130">
<ele>85.180725</ele>
<time>2011-04-28T03:25:09Z</time>
<desc>lat.=22.170874, lon.=104.596130, Alt.=85.180725m. Speed=0.000000m/h.</desc>
<speed>0.000000</speed>
</trkpt>
<trkpt lat="22.170874" lon="104.596130">
<ele>85.194397</ele>
<time>2011-04-28T03:25:14Z</time>
<desc>lat.=22.170874, lon.=104.596130, Alt.=85.194397m. Speed=0.000000m/h.</desc>
<speed>0.000000</speed>
</trkpt>
<trkpt lat="22.170874" lon="104.596130">
<ele>85.210022</ele>
<time>2011-04-28T03:25:19Z</time>
<desc>lat.=22.170874, lon.=104.596130, Alt.=85.210022m. Speed=0.072000m/h.</desc>
<speed>0.020000</speed>
</trkpt>
<trkpt lat="22.170874" lon="104.596130">
<ele>85.229553</ele>
<time>2011-04-28T03:25:24Z</time>
<desc>lat.=22.170874, lon.=104.596130, Alt.=85.229553m. Speed=0.072000m/h.</desc>
<speed>0.020000</speed>
</trkpt>
<trkpt lat="22.170874" lon="104.596130">
<ele>85.249084</ele>
<time>2011-04-28T03:25:29Z</time>
<desc>lat.=22.170874, lon.=104.596130, Alt.=85.249084m. Speed=0.108000m/h.</desc>
<speed>0.030000</speed>
</trkpt>
<trkpt lat="22.170874" lon="104.596138">
<ele>85.270569</ele>
<time>2011-04-28T03:25:34Z</time>
<desc>lat.=22.170874, lon.=104.596138, Alt.=85.270569m. Speed=0.144000m/h.</desc>
<speed>0.040000</speed>
</trkpt>
<trkpt lat="22.170874" lon="104.596138">
<ele>85.299866</ele>
<time>2011-04-28T03:25:39Z</time>
<desc>lat.=22.170874, lon.=104.596138, Alt.=85.299866m. Speed=0.360000m/h.</desc>
<speed>0.100000</speed>
</trkpt>
<trkpt lat="22.170872" lon="104.596146">
<ele>85.331116</ele>
<time>2011-04-28T03:25:44Z</time>
<desc>lat.=22.170872, lon.=104.596146, Alt.=85.331116m. Speed=0.648000m/h.</desc>
<speed>0.180000</speed>
</trkpt>
<trkpt lat="22.170870" lon="104.596161">
<ele>85.360413</ele>
<time>2011-04-28T03:25:49Z</time>
<desc>lat.=22.170870, lon.=104.596161, Alt.=85.360413m. Speed=1.080000m/h.</desc>
<speed>0.300000</speed>
</trkpt>
<trkpt lat="22.170868" lon="104.596176">
<ele>85.432678</ele>
<time>2011-04-28T03:25:54Z</time>
<desc>lat.=22.170868, lon.=104.596176, Alt.=85.432678m. Speed=1.080000m/h.</desc>
<speed>0.300000</speed>
</trkpt>
<trkpt lat="22.170866" lon="104.596176">
<ele>85.538147</ele>
<time>2011-04-28T03:25:59Z</time>
<desc>lat.=22.170866, lon.=104.596176, Alt.=85.538147m. Speed=0.540000m/h.</desc>
<speed>0.150000</speed>
</trkpt>
<trkpt lat="22.170864" lon="104.596184">
<ele>85.561584</ele>
<time>2011-04-28T03:26:04Z</time>
<desc>lat.=22.170864, lon.=104.596184, Alt.=85.561584m. Speed=0.288000m/h.</desc>
<speed>0.080000</speed>
</trkpt>
<trkpt lat="22.170866" lon="104.596184">
<ele>85.579163</ele>
<time>2011-04-28T03:26:09Z</time>
<desc>lat.=22.170866, lon.=104.596184, Alt.=85.579163m. Speed=0.036000m/h.</desc>
<speed>0.010000</speed>
</trkpt>
<trkpt lat="22.170866" lon="104.596184">
<ele>85.583069</ele>
<time>2011-04-28T03:26:14Z</time>
<desc>lat.=22.170866, lon.=104.596184, Alt.=85.583069m. Speed=0.108000m/h.</desc>
<speed>0.030000</speed>
</trkpt>
<trkpt lat="22.170864" lon="104.596184">
<ele>85.569397</ele>
<time>2011-04-28T03:26:19Z</time>
<desc>lat.=22.170864, lon.=104.596184, Alt.=85.569397m. Speed=0.036000m/h.</desc>
<speed>0.010000</speed>
</trkpt>
<trkpt lat="22.170864" lon="104.596176">
<ele>85.180725</ele>
<time>2011-04-28T03:26:24Z</time>
<desc>lat.=22.170864, lon.=104.596176, Alt.=85.180725m. Speed=0.144000m/h.</desc>
<speed>0.040000</speed>
</trkpt>
<trkpt lat="22.170862" lon="104.596169">
<ele>84.903381</ele>
<time>2011-04-28T03:26:29Z</time>
<desc>lat.=22.170862, lon.=104.596169, Alt.=84.903381m. Speed=0.108000m/h.</desc>
<speed>0.030000</speed>
</trkpt>
<trkpt lat="22.170862" lon="104.596169">
<ele>84.585022</ele>
<time>2011-04-28T03:26:34Z</time>
<desc>lat.=22.170862, lon.=104.596169, Alt.=84.585022m. Speed=0.072000m/h.</desc>
<speed>0.020000</speed>
</trkpt>
<trkpt lat="22.170858" lon="104.596191">
<ele>84.032288</ele>
<time>2011-04-28T03:26:39Z</time>
<desc>lat.=22.170858, lon.=104.596191, Alt.=84.032288m. Speed=0.072000m/h.</desc>
<speed>0.020000</speed>
</trkpt>
<trkpt lat="22.170868" lon="104.596176">
<ele>84.313538</ele>
<time>2011-04-28T03:26:44Z</time>
<desc>lat.=22.170868, lon.=104.596176, Alt.=84.313538m. Speed=0.108000m/h.</desc>
<speed>0.030000</speed>
</trkpt>
<trkpt lat="22.170870" lon="104.596222">
<ele>84.198303</ele>
<time>2011-04-28T03:26:49Z</time>
<desc>lat.=22.170870, lon.=104.596222, Alt.=84.198303m. Speed=4.788000m/h.</desc>
<speed>1.330000</speed>
</trkpt>
<trkpt lat="22.170866" lon="104.596291">
<ele>84.129944</ele>
<time>2011-04-28T03:26:54Z</time>
<desc>lat.=22.170866, lon.=104.596291, Alt.=84.129944m. Speed=3.924000m/h.</desc>
<speed>1.090000</speed>
</trkpt>
<trkpt lat="22.170866" lon="104.596275">
<ele>84.600647</ele>
<time>2011-04-28T03:26:59Z</time>
<desc>lat.=22.170866, lon.=104.596275, Alt.=84.600647m. Speed=0.108000m/h.</desc>
<speed>0.030000</speed>
</trkpt>
<trkpt lat="22.170860" lon="104.596237">
<ele>85.049866</ele>
<time>2011-04-28T03:27:04Z</time>
<desc>lat.=22.170860, lon.=104.596237, Alt.=85.049866m. Speed=0.756000m/h.</desc>
<speed>0.210000</speed>
</trkpt>
<trkpt lat="22.170860" lon="104.596237">
<ele>85.393616</ele>
<time>2011-04-28T03:27:09Z</time>
<desc>lat.=22.170860, lon.=104.596237, Alt.=85.393616m. Speed=0.324000m/h.</desc>
<speed>0.090000</speed>
</trkpt>
<trkpt lat="22.170860" lon="104.596245">
<ele>85.719788</ele>
<time>2011-04-28T03:27:14Z</time>
<desc>lat.=22.170860, lon.=104.596245, Alt.=85.719788m. Speed=0.000000m/h.</desc>
<speed>0.000000</speed>
</trkpt>
<trkpt lat="22.170858" lon="104.596245">
<ele>85.682678</ele>
<time>2011-04-28T03:27:19Z</time>
<desc>lat.=22.170858, lon.=104.596245, Alt.=85.682678m. Speed=1.116000m/h.</desc>
<speed>0.310000</speed>
</trkpt>
<trkpt lat="22.170847" lon="104.596252">
<ele>86.817444</ele>
<time>2011-04-28T03:27:24Z</time>
<desc>lat.=22.170847, lon.=104.596252, Alt.=86.817444m. Speed=0.792000m/h.</desc>
<speed>0.220000</speed>
</trkpt>
<trkpt lat="22.170847" lon="104.596252">
<ele>86.643616</ele>
<time>2011-04-28T03:27:29Z</time>
<desc>lat.=22.170847, lon.=104.596252, Alt.=86.643616m. Speed=0.180000m/h.</desc>
<speed>0.050000</speed>
</trkpt>
<trkpt lat="22.170849" lon="104.596252">
<ele>86.374084</ele>
<time>2011-04-28T03:27:34Z</time>
<desc>lat.=22.170849, lon.=104.596252, Alt.=86.374084m. Speed=0.252000m/h.</desc>
<speed>0.070000</speed>
</trkpt>
<trkpt lat="22.170849" lon="104.596252">
<ele>86.346741</ele>
<time>2011-04-28T03:27:39Z</time>
<desc>lat.=22.170849, lon.=104.596252, Alt.=86.346741m. Speed=0.000000m/h.</desc>
<speed>0.000000</speed>
</trkpt>
<trkpt lat="22.170849" lon="104.596252">
<ele>86.340881</ele>
<time>2011-04-28T03:27:44Z</time>
<desc>lat.=22.170849, lon.=104.596252, Alt.=86.340881m. Speed=0.072000m/h.</desc>
<speed>0.020000</speed>
</trkpt>
<trkpt lat="22.170849" lon="104.596252">
<ele>86.333069</ele>
<time>2011-04-28T03:27:49Z</time>
<desc>lat.=22.170849, lon.=104.596252, Alt.=86.333069m. Speed=0.072000m/h.</desc>
<speed>0.020000</speed>
</trkpt>
<trkpt lat="22.170851" lon="104.596252">
<ele>86.331116</ele>
<time>2011-04-28T03:27:54Z</time>
<desc>lat.=22.170851, lon.=104.596252, Alt.=86.331116m. Speed=0.036000m/h.</desc>
<speed>0.010000</speed>
</trkpt>
<trkpt lat="22.170851" lon="104.596252">
<ele>86.333069</ele>
<time>2011-04-28T03:27:59Z</time>
<desc>lat.=22.170851, lon.=104.596252, Alt.=86.333069m. Speed=0.108000m/h.</desc>
<speed>0.030000</speed>
</trkpt>
<trkpt lat="22.170851" lon="104.596245">
<ele>86.344788</ele>
<time>2011-04-28T03:28:04Z</time>
<desc>lat.=22.170851, lon.=104.596245, Alt.=86.344788m. Speed=0.108000m/h.</desc>
<speed>0.030000</speed>
</trkpt>
<trkpt lat="22.170853" lon="104.596245">
<ele>86.360413</ele>
<time>2011-04-28T03:28:09Z</time>
<desc>lat.=22.170853, lon.=104.596245, Alt.=86.360413m. Speed=0.144000m/h.</desc>
<speed>0.040000</speed>
</trkpt>
<trkpt lat="22.170853" lon="104.596245">
<ele>86.370178</ele>
<time>2011-04-28T03:28:14Z</time>
<desc>lat.=22.170853, lon.=104.596245, Alt.=86.370178m. Speed=0.072000m/h.</desc>
<speed>0.020000</speed>
</trkpt>
<trkpt lat="22.170853" lon="104.596245">
<ele>86.376038</ele>
<time>2011-04-28T03:28:19Z</time>
<desc>lat.=22.170853, lon.=104.596245, Alt.=86.376038m. Speed=0.000000m/h.</desc>
<speed>0.000000</speed>
</trkpt>
<trkpt lat="22.170853" lon="104.596245">
<ele>86.397522</ele>
<time>2011-04-28T03:28:24Z</time>
<desc>lat.=22.170853, lon.=104.596245, Alt.=86.397522m. Speed=0.036000m/h.</desc>
<speed>0.010000</speed>
</trkpt>
<trkpt lat="22.170855" lon="104.596245">
<ele>86.422913</ele>
<time>2011-04-28T03:28:29Z</time>
<desc>lat.=22.170855, lon.=104.596245, Alt.=86.422913m. Speed=0.000000m/h.</desc>
<speed>0.000000</speed>
</trkpt>
<trkpt lat="22.170855" lon="104.596245">
<ele>86.419006</ele>
<time>2011-04-28T03:28:34Z</time>
<desc>lat.=22.170855, lon.=104.596245, Alt.=86.419006m. Speed=0.036000m/h.</desc>
<speed>0.010000</speed>
</trkpt>
<trkpt lat="22.170855" lon="104.596245">
<ele>86.422913</ele>
<time>2011-04-28T03:28:39Z</time>
<desc>lat.=22.170855, lon.=104.596245, Alt.=86.422913m. Speed=0.072000m/h.</desc>
<speed>0.020000</speed>
</trkpt>
<trkpt lat="22.170855" lon="104.596245">
<ele>86.444397</ele>
<time>2011-04-28T03:28:44Z</time>
<desc>lat.=22.170855, lon.=104.596245, Alt.=86.444397m. Speed=0.072000m/h.</desc>
<speed>0.020000</speed>
</trkpt>
<trkpt lat="22.170855" lon="104.596245">
<ele>86.461975</ele>
<time>2011-04-28T03:28:49Z</time>
<desc>lat.=22.170855, lon.=104.596245, Alt.=86.461975m. Speed=0.072000m/h.</desc>
<speed>0.020000</speed>
</trkpt>
<trkpt lat="22.170856" lon="104.596245">
<ele>86.471741</ele>
<time>2011-04-28T03:28:54Z</time>
<desc>lat.=22.170856, lon.=104.596245, Alt.=86.471741m. Speed=0.036000m/h.</desc>
<speed>0.010000</speed>
</trkpt>
<trkpt lat="22.170856" lon="104.596245">
<ele>86.501038</ele>
<time>2011-04-28T03:28:59Z</time>
<desc>lat.=22.170856, lon.=104.596245, Alt.=86.501038m. Speed=0.036000m/h.</desc>
<speed>0.010000</speed>
</trkpt>
<trkpt lat="22.170856" lon="104.596252">
<ele>86.536194</ele>
<time>2011-04-28T03:29:04Z</time>
<desc>lat.=22.170856, lon.=104.596252, Alt.=86.536194m. Speed=0.072000m/h.</desc>
<speed>0.020000</speed>
</trkpt>
<trkpt lat="22.170856" lon="104.596252">
<ele>86.547913</ele>
<time>2011-04-28T03:29:09Z</time>
<desc>lat.=22.170856, lon.=104.596252, Alt.=86.547913m. Speed=0.000000m/h.</desc>
<speed>0.000000</speed>
</trkpt>
<trkpt lat="22.170856" lon="104.596252">
<ele>86.559631</ele>
<time>2011-04-28T03:29:14Z</time>
<desc>lat.=22.170856, lon.=104.596252, Alt.=86.559631m. Speed=0.000000m/h.</desc>
<speed>0.000000</speed>
</trkpt>
<trkpt lat="22.170856" lon="104.596252">
<ele>86.585022</ele>
<time>2011-04-28T03:29:19Z</time>
<desc>lat.=22.170856, lon.=104.596252, Alt.=86.585022m. Speed=0.000000m/h.</desc>
<speed>0.000000</speed>
</trkpt>
<trkpt lat="22.170856" lon="104.596252">
<ele>86.602600</ele>
<time>2011-04-28T03:29:24Z</time>
<desc>lat.=22.170856, lon.=104.596252, Alt.=86.602600m. Speed=0.036000m/h.</desc>
<speed>0.010000</speed>
</trkpt>
<trkpt lat="22.170858" lon="104.596252">
<ele>86.645569</ele>
<time>2011-04-28T03:29:29Z</time>
<desc>lat.=22.170858, lon.=104.596252, Alt.=86.645569m. Speed=0.072000m/h.</desc>
<speed>0.020000</speed>
</trkpt>
<trkpt lat="22.170858" lon="104.596252">
<ele>86.694397</ele>
<time>2011-04-28T03:29:34Z</time>
<desc>lat.=22.170858, lon.=104.596252, Alt.=86.694397m. Speed=0.072000m/h.</desc>
<speed>0.020000</speed>
</trkpt>
<trkpt lat="22.170860" lon="104.596252">
<ele>86.752991</ele>
<time>2011-04-28T03:29:39Z</time>
<desc>lat.=22.170860, lon.=104.596252, Alt.=86.752991m. Speed=0.216000m/h.</desc>
<speed>0.060000</speed>
</trkpt>
<trkpt lat="22.170860" lon="104.596252">
<ele>86.770569</ele>
<time>2011-04-28T03:29:44Z</time>
<desc>lat.=22.170860, lon.=104.596252, Alt.=86.770569m. Speed=0.036000m/h.</desc>
<speed>0.010000</speed>
</trkpt>
<trkpt lat="22.170860" lon="104.596252">
<ele>86.788147</ele>
<time>2011-04-28T03:29:49Z</time>
<desc>lat.=22.170860, lon.=104.596252, Alt.=86.788147m. Speed=0.036000m/h.</desc>
<speed>0.010000</speed>
</trkpt>
<trkpt lat="22.170860" lon="104.596252">
<ele>86.786194</ele>
<time>2011-04-28T03:29:54Z</time>
<desc>lat.=22.170860, lon.=104.596252, Alt.=86.786194m. Speed=0.000000m/h.</desc>
<speed>0.000000</speed>
</trkpt>
<trkpt lat="22.170860" lon="104.596252">
<ele>86.815491</ele>
<time>2011-04-28T03:29:59Z</time>
<desc>lat.=22.170860, lon.=104.596252, Alt.=86.815491m. Speed=0.072000m/h.</desc>
<speed>0.020000</speed>
</trkpt>
<trkpt lat="22.170860" lon="104.596252">
<ele>86.838928</ele>
<time>2011-04-28T03:30:04Z</time>
<desc>lat.=22.170860, lon.=104.596252, Alt.=86.838928m. Speed=0.036000m/h.</desc>
<speed>0.010000</speed>
</trkpt>
<trkpt lat="22.170862" lon="104.596252">
<ele>86.856506</ele>
<time>2011-04-28T03:30:09Z</time>
<desc>lat.=22.170862, lon.=104.596252, Alt.=86.856506m. Speed=0.072000m/h.</desc>
<speed>0.020000</speed>
</trkpt>
<trkpt lat="22.170862" lon="104.596252">
<ele>86.887756</ele>
<time>2011-04-28T03:30:14Z</time>
<desc>lat.=22.170862, lon.=104.596252, Alt.=86.887756m. Speed=0.108000m/h.</desc>
<speed>0.030000</speed>
</trkpt>
<trkpt lat="22.170862" lon="104.596252">
<ele>86.928772</ele>
<time>2011-04-28T03:30:19Z</time>
<desc>lat.=22.170862, lon.=104.596252, Alt.=86.928772m. Speed=0.072000m/h.</desc>
<speed>0.020000</speed>
</trkpt>
<trkpt lat="22.170862" lon="104.596252">
<ele>86.950256</ele>
<time>2011-04-28T03:30:24Z</time>
<desc>lat.=22.170862, lon.=104.596252, Alt.=86.950256m. Speed=0.036000m/h.</desc>
<speed>0.010000</speed>
</trkpt>
<trkpt lat="22.170862" lon="104.596252">
<ele>86.950256</ele>
<time>2011-04-28T03:30:29Z</time>
<desc>lat.=22.170862, lon.=104.596252, Alt.=86.950256m. Speed=0.108000m/h.</desc>
<speed>0.030000</speed>
</trkpt>
<trkpt lat="22.170862" lon="104.596252">
<ele>86.940491</ele>
<time>2011-04-28T03:30:34Z</time>
<desc>lat.=22.170862, lon.=104.596252, Alt.=86.940491m. Speed=0.216000m/h.</desc>
<speed>0.060000</speed>
</trkpt>
<trkpt lat="22.170862" lon="104.596252">
<ele>86.938538</ele>
<time>2011-04-28T03:30:39Z</time>
<desc>lat.=22.170862, lon.=104.596252, Alt.=86.938538m. Speed=0.180000m/h.</desc>
<speed>0.050000</speed>
</trkpt>
<trkpt lat="22.170868" lon="104.596329">
<ele>86.788147</ele>
<time>2011-04-28T03:30:44Z</time>
<desc>lat.=22.170868, lon.=104.596329, Alt.=86.788147m. Speed=8.424000m/h.</desc>
<speed>2.340000</speed>
</trkpt>
<trkpt lat="22.170858" lon="104.596474">
<ele>86.290100</ele>
<time>2011-04-28T03:30:49Z</time>
<desc>lat.=22.170858, lon.=104.596474, Alt.=86.290100m. Speed=11.628000m/h.</desc>
<speed>3.230000</speed>
</trkpt>
<trkpt lat="22.170816" lon="104.596703">
<ele>85.083069</ele>
<time>2011-04-28T03:30:54Z</time>
<desc>lat.=22.170816, lon.=104.596703, Alt.=85.083069m. Speed=17.243999m/h.</desc>
<speed>4.790000</speed>
</trkpt>
<trkpt lat="22.170677" lon="104.596924">
<ele>84.079163</ele>
<time>2011-04-28T03:30:59Z</time>
<desc>lat.=22.170677, lon.=104.596924, Alt.=84.079163m. Speed=20.160000m/h.</desc>
<speed>5.600000</speed>
</trkpt>
<trkpt lat="22.170427" lon="104.596977">
<ele>83.229553</ele>
<time>2011-04-28T03:31:04Z</time>
<desc>lat.=22.170427, lon.=104.596977, Alt.=83.229553m. Speed=21.384001m/h.</desc>
<speed>5.940000</speed>
</trkpt>
<trkpt lat="22.170191" lon="104.596954">
<ele>82.315491</ele>
<time>2011-04-28T03:31:09Z</time>
<desc>lat.=22.170191, lon.=104.596954, Alt.=82.315491m. Speed=16.128000m/h.</desc>
<speed>4.480000</speed>
</trkpt>
<trkpt lat="22.169977" lon="104.597015">
<ele>81.036194</ele>
<time>2011-04-28T03:31:14Z</time>
<desc>lat.=22.169977, lon.=104.597015, Alt.=81.036194m. Speed=14.724000m/h.</desc>
<speed>4.090000</speed>
</trkpt>
<trkpt lat="22.169821" lon="104.597153">
<ele>79.440491</ele>
<time>2011-04-28T03:31:19Z</time>
<desc>lat.=22.169821, lon.=104.597153, Alt.=79.440491m. Speed=11.124000m/h.</desc>
<speed>3.090000</speed>
</trkpt>
<trkpt lat="22.169796" lon="104.597290">
<ele>79.536194</ele>
<time>2011-04-28T03:31:24Z</time>
<desc>lat.=22.169796, lon.=104.597290, Alt.=79.536194m. Speed=8.352000m/h.</desc>
<speed>2.320000</speed>
</trkpt>
<trkpt lat="22.169868" lon="104.597443">
<ele>80.059631</ele>
<time>2011-04-28T03:31:29Z</time>
<desc>lat.=22.169868, lon.=104.597443, Alt.=80.059631m. Speed=13.464000m/h.</desc>
<speed>3.740000</speed>
</trkpt>
<trkpt lat="22.169947" lon="104.597580">
<ele>80.018616</ele>
<time>2011-04-28T03:31:34Z</time>
<desc>lat.=22.169947, lon.=104.597580, Alt.=80.018616m. Speed=8.964000m/h.</desc>
<speed>2.490000</speed>
</trkpt>
<trkpt lat="22.169893" lon="104.597725">
<ele>79.776428</ele>
<time>2011-04-28T03:31:39Z</time>
<desc>lat.=22.169893, lon.=104.597725, Alt.=79.776428m. Speed=16.164000m/h.</desc>
<speed>4.490000</speed>
</trkpt>
<trkpt lat="22.169800" lon="104.598030">
<ele>79.989319</ele>
<time>2011-04-28T03:31:44Z</time>
<desc>lat.=22.169800, lon.=104.598030, Alt.=79.989319m. Speed=17.424000m/h.</desc>
<speed>4.840000</speed>
</trkpt>
<trkpt lat="22.169695" lon="104.598259">
<ele>80.270569</ele>
<time>2011-04-28T03:31:49Z</time>
<desc>lat.=22.169695, lon.=104.598259, Alt.=80.270569m. Speed=16.596001m/h.</desc>
<speed>4.610000</speed>
</trkpt>
<trkpt lat="22.169584" lon="104.598488">
<ele>80.364319</ele>
<time>2011-04-28T03:31:54Z</time>
<desc>lat.=22.169584, lon.=104.598488, Alt.=80.364319m. Speed=18.360001m/h.</desc>
<speed>5.100000</speed>
</trkpt>
<trkpt lat="22.169479" lon="104.598701">
<ele>80.565491</ele>
<time>2011-04-28T03:31:59Z</time>
<desc>lat.=22.169479, lon.=104.598701, Alt.=80.565491m. Speed=18.000000m/h.</desc>
<speed>5.000000</speed>
</trkpt>
<trkpt lat="22.169365" lon="104.598923">
<ele>80.661194</ele>
<time>2011-04-28T03:32:04Z</time>
<desc>lat.=22.169365, lon.=104.598923, Alt.=80.661194m. Speed=17.172001m/h.</desc>
<speed>4.770000</speed>
</trkpt>
<trkpt lat="22.169266" lon="104.599129">
<ele>80.745178</ele>
<time>2011-04-28T03:32:09Z</time>
<desc>lat.=22.169266, lon.=104.599129, Alt.=80.745178m. Speed=17.172001m/h.</desc>
<speed>4.770000</speed>
</trkpt>
<trkpt lat="22.169147" lon="104.599342">
<ele>80.614319</ele>
<time>2011-04-28T03:32:14Z</time>
<desc>lat.=22.169147, lon.=104.599342, Alt.=80.614319m. Speed=17.496000m/h.</desc>
<speed>4.860000</speed>
</trkpt>
<trkpt lat="22.168997" lon="104.599518">
<ele>81.081116</ele>
<time>2011-04-28T03:32:19Z</time>
<desc>lat.=22.168997, lon.=104.599518, Alt.=81.081116m. Speed=15.156000m/h.</desc>
<speed>4.210000</speed>
</trkpt>
<trkpt lat="22.168856" lon="104.599670">
<ele>81.307678</ele>
<time>2011-04-28T03:32:24Z</time>
<desc>lat.=22.168856, lon.=104.599670, Alt.=81.307678m. Speed=15.912000m/h.</desc>
<speed>4.420000</speed>
</trkpt>
<trkpt lat="22.168707" lon="104.599785">
<ele>80.944397</ele>
<time>2011-04-28T03:32:29Z</time>
<desc>lat.=22.168707, lon.=104.599785, Alt.=80.944397m. Speed=13.896000m/h.</desc>
<speed>3.860000</speed>
</trkpt>
<trkpt lat="22.168621" lon="104.599823">
<ele>80.936584</ele>
<time>2011-04-28T03:32:34Z</time>
<desc>lat.=22.168621, lon.=104.599823, Alt.=80.936584m. Speed=6.984000m/h.</desc>
<speed>1.940000</speed>
</trkpt>
<trkpt lat="22.168562" lon="104.599838">
<ele>80.856506</ele>
<time>2011-04-28T03:32:39Z</time>
<desc>lat.=22.168562, lon.=104.599838, Alt.=80.856506m. Speed=5.616000m/h.</desc>
<speed>1.560000</speed>
</trkpt>
<trkpt lat="22.168549" lon="104.599831">
<ele>80.506897</ele>
<time>2011-04-28T03:32:44Z</time>
<desc>lat.=22.168549, lon.=104.599831, Alt.=80.506897m. Speed=0.576000m/h.</desc>
<speed>0.160000</speed>
</trkpt>
<trkpt lat="22.168547" lon="104.599831">
<ele>80.426819</ele>
<time>2011-04-28T03:32:49Z</time>
<desc>lat.=22.168547, lon.=104.599831, Alt.=80.426819m. Speed=0.252000m/h.</desc>
<speed>0.070000</speed>
</trkpt>
<trkpt lat="22.168547" lon="104.599831">
<ele>80.401428</ele>
<time>2011-04-28T03:32:54Z</time>
<desc>lat.=22.168547, lon.=104.599831, Alt.=80.401428m. Speed=1.116000m/h.</desc>
<speed>0.310000</speed>
</trkpt>
<trkpt lat="22.168484" lon="104.599808">
<ele>80.586975</ele>
<time>2011-04-28T03:32:59Z</time>
<desc>lat.=22.168484, lon.=104.599808, Alt.=80.586975m. Speed=10.440000m/h.</desc>
<speed>2.900000</speed>
</trkpt>
<trkpt lat="22.168310" lon="104.599785">
<ele>80.590881</ele>
<time>2011-04-28T03:33:04Z</time>
<desc>lat.=22.168310, lon.=104.599785, Alt.=80.590881m. Speed=12.636000m/h.</desc>
<speed>3.510000</speed>
</trkpt>
<trkpt lat="22.168169" lon="104.599846">
<ele>80.471741</ele>
<time>2011-04-28T03:33:09Z</time>
<desc>lat.=22.168169, lon.=104.599846, Alt.=80.471741m. Speed=18.180000m/h.</desc>
<speed>5.050000</speed>
</trkpt>
<trkpt lat="22.167925" lon="104.599983">
<ele>79.317444</ele>
<time>2011-04-28T03:33:14Z</time>
<desc>lat.=22.167925, lon.=104.599983, Alt.=79.317444m. Speed=17.747999m/h.</desc>
<speed>4.930000</speed>
</trkpt>
<trkpt lat="22.167713" lon="104.600159">
<ele>79.504944</ele>
<time>2011-04-28T03:33:19Z</time>
<desc>lat.=22.167713, lon.=104.600159, Alt.=79.504944m. Speed=19.296000m/h.</desc>
<speed>5.360000</speed>
</trkpt>
<trkpt lat="22.167467" lon="104.600273">
<ele>79.344788</ele>
<time>2011-04-28T03:33:24Z</time>
<desc>lat.=22.167467, lon.=104.600273, Alt.=79.344788m. Speed=15.840000m/h.</desc>
<speed>4.400000</speed>
</trkpt>
<trkpt lat="22.167212" lon="104.600380">
<ele>79.854553</ele>
<time>2011-04-28T03:33:29Z</time>
<desc>lat.=22.167212, lon.=104.600380, Alt.=79.854553m. Speed=22.427999m/h.</desc>
<speed>6.230000</speed>
</trkpt>
<trkpt lat="22.166927" lon="104.600502">
<ele>80.356506</ele>
<time>2011-04-28T03:33:34Z</time>
<desc>lat.=22.166927, lon.=104.600502, Alt.=80.356506m. Speed=21.420000m/h.</desc>
<speed>5.950000</speed>
</trkpt>
<trkpt lat="22.166685" lon="104.600624">
<ele>81.227600</ele>
<time>2011-04-28T03:33:39Z</time>
<desc>lat.=22.166685, lon.=104.600624, Alt.=81.227600m. Speed=15.228000m/h.</desc>
<speed>4.230000</speed>
</trkpt>
<trkpt lat="22.166494" lon="104.600708">
<ele>82.049866</ele>
<time>2011-04-28T03:33:44Z</time>
<desc>lat.=22.166494, lon.=104.600708, Alt.=82.049866m. Speed=12.348000m/h.</desc>
<speed>3.430000</speed>
</trkpt>
<trkpt lat="22.166332" lon="104.600777">
<ele>82.924866</ele>
<time>2011-04-28T03:33:49Z</time>
<desc>lat.=22.166332, lon.=104.600777, Alt.=82.924866m. Speed=13.752000m/h.</desc>
<speed>3.820000</speed>
</trkpt>
<trkpt lat="22.166140" lon="104.600853">
<ele>83.604553</ele>
<time>2011-04-28T03:33:54Z</time>
<desc>lat.=22.166140, lon.=104.600853, Alt.=83.604553m. Speed=12.600000m/h.</desc>
<speed>3.500000</speed>
</trkpt>
<trkpt lat="22.165974" lon="104.600891">
<ele>85.028381</ele>
<time>2011-04-28T03:33:59Z</time>
<desc>lat.=22.165974, lon.=104.600891, Alt.=85.028381m. Speed=12.996000m/h.</desc>
<speed>3.610000</speed>
</trkpt>
<trkpt lat="22.165777" lon="104.600937">
<ele>85.426819</ele>
<time>2011-04-28T03:34:04Z</time>
<desc>lat.=22.165777, lon.=104.600937, Alt.=85.426819m. Speed=13.824000m/h.</desc>
<speed>3.840000</speed>
</trkpt>
<trkpt lat="22.165623" lon="104.600983">
<ele>85.465881</ele>
<time>2011-04-28T03:34:09Z</time>
<desc>lat.=22.165623, lon.=104.600983, Alt.=85.465881m. Speed=11.160000m/h.</desc>
<speed>3.100000</speed>
</trkpt>
<trkpt lat="22.165503" lon="104.601013">
<ele>85.928772</ele>
<time>2011-04-28T03:34:14Z</time>
<desc>lat.=22.165503, lon.=104.601013, Alt.=85.928772m. Speed=9.396000m/h.</desc>
<speed>2.610000</speed>
</trkpt>
<trkpt lat="22.165392" lon="104.601051">
<ele>86.579163</ele>
<time>2011-04-28T03:34:19Z</time>
<desc>lat.=22.165392, lon.=104.601051, Alt.=86.579163m. Speed=8.280000m/h.</desc>
<speed>2.300000</speed>
</trkpt>
<trkpt lat="22.165253" lon="104.601128">
<ele>87.835022</ele>
<time>2011-04-28T03:34:24Z</time>
<desc>lat.=22.165253, lon.=104.601128, Alt.=87.835022m. Speed=11.232000m/h.</desc>
<speed>3.120000</speed>
</trkpt>
<trkpt lat="22.165150" lon="104.601219">
<ele>89.366272</ele>
<time>2011-04-28T03:34:29Z</time>
<desc>lat.=22.165150, lon.=104.601219, Alt.=89.366272m. Speed=9.972000m/h.</desc>
<speed>2.770000</speed>
</trkpt>
<trkpt lat="22.165070" lon="104.601349">
<ele>90.831116</ele>
<time>2011-04-28T03:34:34Z</time>
<desc>lat.=22.165070, lon.=104.601349, Alt.=90.831116m. Speed=11.196000m/h.</desc>
<speed>3.110000</speed>
</trkpt>
<trkpt lat="22.165026" lon="104.601471">
<ele>92.292053</ele>
<time>2011-04-28T03:34:39Z</time>
<desc>lat.=22.165026, lon.=104.601471, Alt.=92.292053m. Speed=10.512000m/h.</desc>
<speed>2.920000</speed>
</trkpt>
<trkpt lat="22.164951" lon="104.601585">
<ele>92.919006</ele>
<time>2011-04-28T03:34:44Z</time>
<desc>lat.=22.164951, lon.=104.601585, Alt.=92.919006m. Speed=9.936000m/h.</desc>
<speed>2.760000</speed>
</trkpt>
<trkpt lat="22.164877" lon="104.601715">
<ele>93.391663</ele>
<time>2011-04-28T03:34:49Z</time>
<desc>lat.=22.164877, lon.=104.601715, Alt.=93.391663m. Speed=9.972000m/h.</desc>
<speed>2.770000</speed>
</trkpt>
<trkpt lat="22.164791" lon="104.601830">
<ele>92.975647</ele>
<time>2011-04-28T03:34:54Z</time>
<desc>lat.=22.164791, lon.=104.601830, Alt.=92.975647m. Speed=9.936000m/h.</desc>
<speed>2.760000</speed>
</trkpt>
<trkpt lat="22.164724" lon="104.601959">
<ele>94.278381</ele>
<time>2011-04-28T03:34:59Z</time>
<desc>lat.=22.164724, lon.=104.601959, Alt.=94.278381m. Speed=9.576000m/h.</desc>
<speed>2.660000</speed>
</trkpt>
<trkpt lat="22.164682" lon="104.602081">
<ele>95.827209</ele>
<time>2011-04-28T03:35:04Z</time>
<desc>lat.=22.164682, lon.=104.602081, Alt.=95.827209m. Speed=9.252000m/h.</desc>
<speed>2.570000</speed>
</trkpt>
<trkpt lat="22.164700" lon="104.602203">
<ele>97.188538</ele>
<time>2011-04-28T03:35:09Z</time>
<desc>lat.=22.164700, lon.=104.602203, Alt.=97.188538m. Speed=9.216000m/h.</desc>
<speed>2.560000</speed>
</trkpt>
<trkpt lat="22.164736" lon="104.602325">
<ele>98.729553</ele>
<time>2011-04-28T03:35:14Z</time>
<desc>lat.=22.164736, lon.=104.602325, Alt.=98.729553m. Speed=8.244000m/h.</desc>
<speed>2.290000</speed>
</trkpt>
<trkpt lat="22.164789" lon="104.602455">
<ele>100.157288</ele>
<time>2011-04-28T03:35:19Z</time>
<desc>lat.=22.164789, lon.=104.602455, Alt.=100.157288m. Speed=10.692000m/h.</desc>
<speed>2.970000</speed>
</trkpt>
<trkpt lat="22.164843" lon="104.602570">
<ele>101.542053</ele>
<time>2011-04-28T03:35:24Z</time>
<desc>lat.=22.164843, lon.=104.602570, Alt.=101.542053m. Speed=8.064000m/h.</desc>
<speed>2.240000</speed>
</trkpt>
<trkpt lat="22.164881" lon="104.602684">
<ele>102.688538</ele>
<time>2011-04-28T03:35:29Z</time>
<desc>lat.=22.164881, lon.=104.602684, Alt.=102.688538m. Speed=7.668000m/h.</desc>
<speed>2.130000</speed>
</trkpt>
<trkpt lat="22.164923" lon="104.602783">
<ele>103.766663</ele>
<time>2011-04-28T03:35:34Z</time>
<desc>lat.=22.164923, lon.=104.602783, Alt.=103.766663m. Speed=4.932000m/h.</desc>
<speed>1.370000</speed>
</trkpt>
<trkpt lat="22.164982" lon="104.602905">
<ele>105.104553</ele>
<time>2011-04-28T03:35:39Z</time>
<desc>lat.=22.164982, lon.=104.602905, Alt.=105.104553m. Speed=11.016000m/h.</desc>
<speed>3.060000</speed>
</trkpt>
<trkpt lat="22.165068" lon="104.603149">
<ele>105.626038</ele>
<time>2011-04-28T03:35:44Z</time>
<desc>lat.=22.165068, lon.=104.603149, Alt.=105.626038m. Speed=15.948000m/h.</desc>
<speed>4.430000</speed>
</trkpt>
<trkpt lat="22.165205" lon="104.603485">
<ele>104.961975</ele>
<time>2011-04-28T03:35:49Z</time>
<desc>lat.=22.165205, lon.=104.603485, Alt.=104.961975m. Speed=19.620001m/h.</desc>
<speed>5.450000</speed>
</trkpt>
<trkpt lat="22.165289" lon="104.603806">
<ele>104.756897</ele>
<time>2011-04-28T03:35:54Z</time>
<desc>lat.=22.165289, lon.=104.603806, Alt.=104.756897m. Speed=23.400000m/h.</desc>
<speed>6.500000</speed>
</trkpt>
<trkpt lat="22.165218" lon="104.604073">
<ele>104.237366</ele>
<time>2011-04-28T03:35:59Z</time>
<desc>lat.=22.165218, lon.=104.604073, Alt.=104.237366m. Speed=17.208000m/h.</desc>
<speed>4.780000</speed>
</trkpt>
<trkpt lat="22.165098" lon="104.604317">
<ele>104.141663</ele>
<time>2011-04-28T03:36:04Z</time>
<desc>lat.=22.165098, lon.=104.604317, Alt.=104.141663m. Speed=17.892000m/h.</desc>
<speed>4.970000</speed>
</trkpt>
<trkpt lat="22.164923" lon="104.604538">
<ele>104.657288</ele>
<time>2011-04-28T03:36:09Z</time>
<desc>lat.=22.164923, lon.=104.604538, Alt.=104.657288m. Speed=18.900000m/h.</desc>
<speed>5.250000</speed>
</trkpt>
<trkpt lat="22.164762" lon="104.604675">
<ele>105.342834</ele>
<time>2011-04-28T03:36:14Z</time>
<desc>lat.=22.164762, lon.=104.604675, Alt.=105.342834m. Speed=15.084000m/h.</desc>
<speed>4.190000</speed>
</trkpt>
<trkpt lat="22.164570" lon="104.604805">
<ele>105.772522</ele>
<time>2011-04-28T03:36:19Z</time>
<desc>lat.=22.164570, lon.=104.604805, Alt.=105.772522m. Speed=16.452000m/h.</desc>
<speed>4.570000</speed>
</trkpt>
<trkpt lat="22.164440" lon="104.604980">
<ele>105.436584</ele>
<time>2011-04-28T03:36:24Z</time>
<desc>lat.=22.164440, lon.=104.604980, Alt.=105.436584m. Speed=14.220000m/h.</desc>
<speed>3.950000</speed>
</trkpt>
<trkpt lat="22.164373" lon="104.605186">
<ele>105.795959</ele>
<time>2011-04-28T03:36:29Z</time>
<desc>lat.=22.164373, lon.=104.605186, Alt.=105.795959m. Speed=15.336000m/h.</desc>
<speed>4.260000</speed>
</trkpt>
<trkpt lat="22.164280" lon="104.605377">
<ele>105.502991</ele>
<time>2011-04-28T03:36:34Z</time>
<desc>lat.=22.164280, lon.=104.605377, Alt.=105.502991m. Speed=14.076000m/h.</desc>
<speed>3.910000</speed>
</trkpt>
<trkpt lat="22.164165" lon="104.605568">
<ele>106.059631</ele>
<time>2011-04-28T03:36:39Z</time>
<desc>lat.=22.164165, lon.=104.605568, Alt.=106.059631m. Speed=11.988000m/h.</desc>
<speed>3.330000</speed>
</trkpt>
<trkpt lat="22.164057" lon="104.605667">
<ele>106.387756</ele>
<time>2011-04-28T03:36:44Z</time>
<desc>lat.=22.164057, lon.=104.605667, Alt.=106.387756m. Speed=10.584000m/h.</desc>
<speed>2.940000</speed>
</trkpt>
<trkpt lat="22.163900" lon="104.605690">
<ele>107.006897</ele>
<time>2011-04-28T03:36:49Z</time>
<desc>lat.=22.163900, lon.=104.605690, Alt.=107.006897m. Speed=7.632000m/h.</desc>
<speed>2.120000</speed>
</trkpt>
<trkpt lat="22.163748" lon="104.605644">
<ele>107.934631</ele>
<time>2011-04-28T03:36:54Z</time>
<desc>lat.=22.163748, lon.=104.605644, Alt.=107.934631m. Speed=13.572000m/h.</desc>
<speed>3.770000</speed>
</trkpt>
<trkpt lat="22.163551" lon="104.605576">
<ele>108.196350</ele>
<time>2011-04-28T03:36:59Z</time>
<desc>lat.=22.163551, lon.=104.605576, Alt.=108.196350m. Speed=15.516000m/h.</desc>
<speed>4.310000</speed>
</trkpt>
<trkpt lat="22.163342" lon="104.605537">
<ele>107.856506</ele>
<time>2011-04-28T03:37:04Z</time>
<desc>lat.=22.163342, lon.=104.605537, Alt.=107.856506m. Speed=15.660000m/h.</desc>
<speed>4.350000</speed>
</trkpt>
<trkpt lat="22.163136" lon="104.605492">
<ele>108.311584</ele>
<time>2011-04-28T03:37:09Z</time>
<desc>lat.=22.163136, lon.=104.605492, Alt.=108.311584m. Speed=17.028000m/h.</desc>
<speed>4.730000</speed>
</trkpt>
<trkpt lat="22.162939" lon="104.605484">
<ele>107.993225</ele>
<time>2011-04-28T03:37:14Z</time>
<desc>lat.=22.162939, lon.=104.605484, Alt.=107.993225m. Speed=12.636000m/h.</desc>
<speed>3.510000</speed>
</trkpt>
<trkpt lat="22.162746" lon="104.605515">
<ele>108.081116</ele>
<time>2011-04-28T03:37:19Z</time>
<desc>lat.=22.162746, lon.=104.605515, Alt.=108.081116m. Speed=14.508000m/h.</desc>
<speed>4.030000</speed>
</trkpt>
<trkpt lat="22.162516" lon="104.605621">
<ele>107.254944</ele>
<time>2011-04-28T03:37:24Z</time>
<desc>lat.=22.162516, lon.=104.605621, Alt.=107.254944m. Speed=14.472000m/h.</desc>
<speed>4.020000</speed>
</trkpt>
<trkpt lat="22.162313" lon="104.605728">
<ele>106.835022</ele>
<time>2011-04-28T03:37:29Z</time>
<desc>lat.=22.162313, lon.=104.605728, Alt.=106.835022m. Speed=17.604000m/h.</desc>
<speed>4.890000</speed>
</trkpt>
<trkpt lat="22.162088" lon="104.605812">
<ele>106.549866</ele>
<time>2011-04-28T03:37:34Z</time>
<desc>lat.=22.162088, lon.=104.605812, Alt.=106.549866m. Speed=20.340000m/h.</desc>
<speed>5.650000</speed>
</trkpt>
<trkpt lat="22.161842" lon="104.605896">
<ele>106.940491</ele>
<time>2011-04-28T03:37:39Z</time>
<desc>lat.=22.161842, lon.=104.605896, Alt.=106.940491m. Speed=22.212000m/h.</desc>
<speed>6.170000</speed>
</trkpt>
<trkpt lat="22.161610" lon="104.606094">
<ele>106.446350</ele>
<time>2011-04-28T03:37:44Z</time>
<desc>lat.=22.161610, lon.=104.606094, Alt.=106.446350m. Speed=24.804001m/h.</desc>
<speed>6.890000</speed>
</trkpt>
<trkpt lat="22.161343" lon="104.606247">
<ele>106.706116</ele>
<time>2011-04-28T03:37:49Z</time>
<desc>lat.=22.161343, lon.=104.606247, Alt.=106.706116m. Speed=22.032000m/h.</desc>
<speed>6.120000</speed>
</trkpt>
<trkpt lat="22.161110" lon="104.606369">
<ele>107.624084</ele>
<time>2011-04-28T03:37:54Z</time>
<desc>lat.=22.161110, lon.=104.606369, Alt.=107.624084m. Speed=18.143999m/h.</desc>
<speed>5.040000</speed>
</trkpt>
<trkpt lat="22.160934" lon="104.606506">
<ele>108.004944</ele>
<time>2011-04-28T03:37:59Z</time>
<desc>lat.=22.160934, lon.=104.606506, Alt.=108.004944m. Speed=15.048000m/h.</desc>
<speed>4.180000</speed>
</trkpt>
<trkpt lat="22.160791" lon="104.606590">
<ele>108.327209</ele>
<time>2011-04-28T03:38:04Z</time>
<desc>lat.=22.160791, lon.=104.606590, Alt.=108.327209m. Speed=10.332000m/h.</desc>
<speed>2.870000</speed>
</trkpt>
<trkpt lat="22.160639" lon="104.606628">
<ele>109.219788</ele>
<time>2011-04-28T03:38:09Z</time>
<desc>lat.=22.160639, lon.=104.606628, Alt.=109.219788m. Speed=11.448000m/h.</desc>
<speed>3.180000</speed>
</trkpt>
<trkpt lat="22.160490" lon="104.606682">
<ele>110.456116</ele>
<time>2011-04-28T03:38:14Z</time>
<desc>lat.=22.160490, lon.=104.606682, Alt.=110.456116m. Speed=9.720000m/h.</desc>
<speed>2.700000</speed>
</trkpt>
<trkpt lat="22.160398" lon="104.606758">
<ele>113.422913</ele>
<time>2011-04-28T03:38:19Z</time>
<desc>lat.=22.160398, lon.=104.606758, Alt.=113.422913m. Speed=8.604000m/h.</desc>
<speed>2.390000</speed>
</trkpt>
<trkpt lat="22.160345" lon="104.606834">
<ele>115.399475</ele>
<time>2011-04-28T03:38:24Z</time>
<desc>lat.=22.160345, lon.=104.606834, Alt.=115.399475m. Speed=3.852000m/h.</desc>
<speed>1.070000</speed>
</trkpt>
<trkpt lat="22.160299" lon="104.606888">
<ele>114.702209</ele>
<time>2011-04-28T03:38:29Z</time>
<desc>lat.=22.160299, lon.=104.606888, Alt.=114.702209m. Speed=6.624000m/h.</desc>
<speed>1.840000</speed>
</trkpt>
<trkpt lat="22.160255" lon="104.606979">
<ele>114.819397</ele>
<time>2011-04-28T03:38:34Z</time>
<desc>lat.=22.160255, lon.=104.606979, Alt.=114.819397m. Speed=4.608000m/h.</desc>
<speed>1.280000</speed>
</trkpt>
<trkpt lat="22.160236" lon="104.607048">
<ele>115.985413</ele>
<time>2011-04-28T03:38:39Z</time>
<desc>lat.=22.160236, lon.=104.607048, Alt.=115.985413m. Speed=4.680000m/h.</desc>
<speed>1.300000</speed>
</trkpt>
<trkpt lat="22.160213" lon="104.607094">
<ele>117.225647</ele>
<time>2011-04-28T03:38:44Z</time>
<desc>lat.=22.160213, lon.=104.607094, Alt.=117.225647m. Speed=4.428000m/h.</desc>
<speed>1.230000</speed>
</trkpt>
<trkpt lat="22.160196" lon="104.607193">
<ele>116.725647</ele>
<time>2011-04-28T03:38:49Z</time>
<desc>lat.=22.160196, lon.=104.607193, Alt.=116.725647m. Speed=5.256000m/h.</desc>
<speed>1.460000</speed>
</trkpt>
<trkpt lat="22.160198" lon="104.607300">
<ele>115.512756</ele>
<time>2011-04-28T03:38:54Z</time>
<desc>lat.=22.160198, lon.=104.607300, Alt.=115.512756m. Speed=8.064000m/h.</desc>
<speed>2.240000</speed>
</trkpt>
<trkpt lat="22.160215" lon="104.607399">
<ele>114.729553</ele>
<time>2011-04-28T03:38:59Z</time>
<desc>lat.=22.160215, lon.=104.607399, Alt.=114.729553m. Speed=9.036000m/h.</desc>
<speed>2.510000</speed>
</trkpt>
<trkpt lat="22.160250" lon="104.607521">
<ele>114.167053</ele>
<time>2011-04-28T03:39:04Z</time>
<desc>lat.=22.160250, lon.=104.607521, Alt.=114.167053m. Speed=7.308000m/h.</desc>
<speed>2.030000</speed>
</trkpt>
<trkpt lat="22.160275" lon="104.607620">
<ele>114.124084</ele>
<time>2011-04-28T03:39:09Z</time>
<desc>lat.=22.160275, lon.=104.607620, Alt.=114.124084m. Speed=7.128000m/h.</desc>
<speed>1.980000</speed>
</trkpt>
<trkpt lat="22.160257" lon="104.607719">
<ele>114.012756</ele>
<time>2011-04-28T03:39:14Z</time>
<desc>lat.=22.160257, lon.=104.607719, Alt.=114.012756m. Speed=5.004000m/h.</desc>
<speed>1.390000</speed>
</trkpt>
<trkpt lat="22.160185" lon="104.607796">
<ele>114.067444</ele>
<time>2011-04-28T03:39:19Z</time>
<desc>lat.=22.160185, lon.=104.607796, Alt.=114.067444m. Speed=7.560000m/h.</desc>
<speed>2.100000</speed>
</trkpt>
<trkpt lat="22.160076" lon="104.607864">
<ele>114.526428</ele>
<time>2011-04-28T03:39:24Z</time>
<desc>lat.=22.160076, lon.=104.607864, Alt.=114.526428m. Speed=7.452000m/h.</desc>
<speed>2.070000</speed>
</trkpt>
<trkpt lat="22.159996" lon="104.607918">
<ele>114.670959</ele>
<time>2011-04-28T03:39:29Z</time>
<desc>lat.=22.159996, lon.=104.607918, Alt.=114.670959m. Speed=7.524000m/h.</desc>
<speed>2.090000</speed>
</trkpt>
<trkpt lat="22.159910" lon="104.607933">
<ele>114.739319</ele>
<time>2011-04-28T03:39:34Z</time>
<desc>lat.=22.159910, lon.=104.607933, Alt.=114.739319m. Speed=6.372000m/h.</desc>
<speed>1.770000</speed>
</trkpt>
<trkpt lat="22.159821" lon="104.607948">
<ele>114.792053</ele>
<time>2011-04-28T03:39:39Z</time>
<desc>lat.=22.159821, lon.=104.607948, Alt.=114.792053m. Speed=7.092000m/h.</desc>
<speed>1.970000</speed>
</trkpt>
<trkpt lat="22.159702" lon="104.607986">
<ele>114.620178</ele>
<time>2011-04-28T03:39:44Z</time>
<desc>lat.=22.159702, lon.=104.607986, Alt.=114.620178m. Speed=6.696000m/h.</desc>
<speed>1.860000</speed>
</trkpt>
<trkpt lat="22.159615" lon="104.608002">
<ele>115.284241</ele>
<time>2011-04-28T03:39:49Z</time>
<desc>lat.=22.159615, lon.=104.608002, Alt.=115.284241m. Speed=6.300000m/h.</desc>
<speed>1.750000</speed>
</trkpt>
<trkpt lat="22.159531" lon="104.608040">
<ele>115.782288</ele>
<time>2011-04-28T03:39:54Z</time>
<desc>lat.=22.159531, lon.=104.608040, Alt.=115.782288m. Speed=6.840000m/h.</desc>
<speed>1.900000</speed>
</trkpt>
<trkpt lat="22.159439" lon="104.608101">
<ele>116.696350</ele>
<time>2011-04-28T03:39:59Z</time>
<desc>lat.=22.159439, lon.=104.608101, Alt.=116.696350m. Speed=6.732000m/h.</desc>
<speed>1.870000</speed>
</trkpt>
<trkpt lat="22.159349" lon="104.608170">
<ele>117.415100</ele>
<time>2011-04-28T03:40:04Z</time>
<desc>lat.=22.159349, lon.=104.608170, Alt.=117.415100m. Speed=6.228000m/h.</desc>
<speed>1.730000</speed>
</trkpt>
<trkpt lat="22.159246" lon="104.608238">
<ele>118.323303</ele>
<time>2011-04-28T03:40:09Z</time>
<desc>lat.=22.159246, lon.=104.608238, Alt.=118.323303m. Speed=7.956000m/h.</desc>
<speed>2.210000</speed>
</trkpt>
<trkpt lat="22.159128" lon="104.608292">
<ele>118.749084</ele>
<time>2011-04-28T03:40:14Z</time>
<desc>lat.=22.159128, lon.=104.608292, Alt.=118.749084m. Speed=7.776000m/h.</desc>
<speed>2.160000</speed>
</trkpt>
<trkpt lat="22.159042" lon="104.608353">
<ele>119.044006</ele>
<time>2011-04-28T03:40:19Z</time>
<desc>lat.=22.159042, lon.=104.608353, Alt.=119.044006m. Speed=7.164000m/h.</desc>
<speed>1.990000</speed>
</trkpt>
<trkpt lat="22.158945" lon="104.608414">
<ele>121.344788</ele>
<time>2011-04-28T03:40:24Z</time>
<desc>lat.=22.158945, lon.=104.608414, Alt.=121.344788m. Speed=8.172000m/h.</desc>
<speed>2.270000</speed>
</trkpt>
<trkpt lat="22.158852" lon="104.608482">
<ele>121.881897</ele>
<time>2011-04-28T03:40:29Z</time>
<desc>lat.=22.158852, lon.=104.608482, Alt.=121.881897m. Speed=8.316000m/h.</desc>
<speed>2.310000</speed>
</trkpt>
<trkpt lat="22.158777" lon="104.608528">
<ele>122.887756</ele>
<time>2011-04-28T03:40:34Z</time>
<desc>lat.=22.158777, lon.=104.608528, Alt.=122.887756m. Speed=5.256000m/h.</desc>
<speed>1.460000</speed>
</trkpt>
<trkpt lat="22.158705" lon="104.608582">
<ele>124.710022</ele>
<time>2011-04-28T03:40:39Z</time>
<desc>lat.=22.158705, lon.=104.608582, Alt.=124.710022m. Speed=7.632000m/h.</desc>
<speed>2.120000</speed>
</trkpt>
<trkpt lat="22.158611" lon="104.608650">
<ele>125.870178</ele>
<time>2011-04-28T03:40:44Z</time>
<desc>lat.=22.158611, lon.=104.608650, Alt.=125.870178m. Speed=5.976000m/h.</desc>
<speed>1.660000</speed>
</trkpt>
<trkpt lat="22.158522" lon="104.608719">
<ele>127.995178</ele>
<time>2011-04-28T03:40:49Z</time>
<desc>lat.=22.158522, lon.=104.608719, Alt.=127.995178m. Speed=6.696000m/h.</desc>
<speed>1.860000</speed>
</trkpt>
<trkpt lat="22.158422" lon="104.608795">
<ele>131.162231</ele>
<time>2011-04-28T03:40:54Z</time>
<desc>lat.=22.158422, lon.=104.608795, Alt.=131.162231m. Speed=7.236000m/h.</desc>
<speed>2.010000</speed>
</trkpt>
<trkpt lat="22.158339" lon="104.608879">
<ele>133.345825</ele>
<time>2011-04-28T03:40:59Z</time>
<desc>lat.=22.158339, lon.=104.608879, Alt.=133.345825m. Speed=7.596000m/h.</desc>
<speed>2.110000</speed>
</trkpt>
<trkpt lat="22.158289" lon="104.608971">
<ele>134.463013</ele>
<time>2011-04-28T03:41:04Z</time>
<desc>lat.=22.158289, lon.=104.608971, Alt.=134.463013m. Speed=6.912000m/h.</desc>
<speed>1.920000</speed>
</trkpt>
<trkpt lat="22.158281" lon="104.609077">
<ele>136.404419</ele>
<time>2011-04-28T03:41:09Z</time>
<desc>lat.=22.158281, lon.=104.609077, Alt.=136.404419m. Speed=5.076000m/h.</desc>
<speed>1.410000</speed>
</trkpt>
<trkpt lat="22.158243" lon="104.609261">
<ele>131.966919</ele>
<time>2011-04-28T03:41:14Z</time>
<desc>lat.=22.158243, lon.=104.609261, Alt.=131.966919m. Speed=6.876000m/h.</desc>
<speed>1.910000</speed>
</trkpt>
<trkpt lat="22.158241" lon="104.609375">
<ele>127.694397</ele>
<time>2011-04-28T03:41:19Z</time>
<desc>lat.=22.158241, lon.=104.609375, Alt.=127.694397m. Speed=8.208000m/h.</desc>
<speed>2.280000</speed>
</trkpt>
<trkpt lat="22.158215" lon="104.609543">
<ele>125.395569</ele>
<time>2011-04-28T03:41:24Z</time>
<desc>lat.=22.158215, lon.=104.609543, Alt.=125.395569m. Speed=11.340000m/h.</desc>
<speed>3.150000</speed>
</trkpt>
<trkpt lat="22.158123" lon="104.609642">
<ele>124.854553</ele>
<time>2011-04-28T03:41:29Z</time>
<desc>lat.=22.158123, lon.=104.609642, Alt.=124.854553m. Speed=9.396000m/h.</desc>
<speed>2.610000</speed>
</trkpt>
<trkpt lat="22.158028" lon="104.609741">
<ele>124.829163</ele>
<time>2011-04-28T03:41:34Z</time>
<desc>lat.=22.158028, lon.=104.609741, Alt.=124.829163m. Speed=8.532000m/h.</desc>
<speed>2.370000</speed>
</trkpt>
<trkpt lat="22.157927" lon="104.609787">
<ele>124.391663</ele>
<time>2011-04-28T03:41:39Z</time>
<desc>lat.=22.157927, lon.=104.609787, Alt.=124.391663m. Speed=7.740000m/h.</desc>
<speed>2.150000</speed>
</trkpt>
<trkpt lat="22.157827" lon="104.609833">
<ele>124.085022</ele>
<time>2011-04-28T03:41:44Z</time>
<desc>lat.=22.157827, lon.=104.609833, Alt.=124.085022m. Speed=7.560000m/h.</desc>
<speed>2.100000</speed>
</trkpt>
<trkpt lat="22.157734" lon="104.609886">
<ele>124.165100</ele>
<time>2011-04-28T03:41:49Z</time>
<desc>lat.=22.157734, lon.=104.609886, Alt.=124.165100m. Speed=8.352000m/h.</desc>
<speed>2.320000</speed>
</trkpt>
<trkpt lat="22.157639" lon="104.609962">
<ele>124.432678</ele>
<time>2011-04-28T03:41:54Z</time>
<desc>lat.=22.157639, lon.=104.609962, Alt.=124.432678m. Speed=8.964000m/h.</desc>
<speed>2.490000</speed>
</trkpt>
<trkpt lat="22.157551" lon="104.610054">
<ele>124.475647</ele>
<time>2011-04-28T03:41:59Z</time>
<desc>lat.=22.157551, lon.=104.610054, Alt.=124.475647m. Speed=7.920000m/h.</desc>
<speed>2.200000</speed>
</trkpt>
<trkpt lat="22.157490" lon="104.610161">
<ele>124.745178</ele>
<time>2011-04-28T03:42:04Z</time>
<desc>lat.=22.157490, lon.=104.610161, Alt.=124.745178m. Speed=7.740000m/h.</desc>
<speed>2.150000</speed>
</trkpt>
<trkpt lat="22.157413" lon="104.610252">
<ele>123.684631</ele>
<time>2011-04-28T03:42:09Z</time>
<desc>lat.=22.157413, lon.=104.610252, Alt.=123.684631m. Speed=10.548000m/h.</desc>
<speed>2.930000</speed>
</trkpt>
<trkpt lat="22.157339" lon="104.610336">
<ele>123.266663</ele>
<time>2011-04-28T03:42:14Z</time>
<desc>lat.=22.157339, lon.=104.610336, Alt.=123.266663m. Speed=8.352000m/h.</desc>
<speed>2.320000</speed>
</trkpt>
<trkpt lat="22.157280" lon="104.610458">
<ele>124.073303</ele>
<time>2011-04-28T03:42:19Z</time>
<desc>lat.=22.157280, lon.=104.610458, Alt.=124.073303m. Speed=9.000000m/h.</desc>
<speed>2.500000</speed>
</trkpt>
<trkpt lat="22.157234" lon="104.610497">
<ele>126.299866</ele>
<time>2011-04-28T03:42:24Z</time>
<desc>lat.=22.157234, lon.=104.610497, Alt.=126.299866m. Speed=0.576000m/h.</desc>
<speed>0.160000</speed>
</trkpt>
<trkpt lat="22.157234" lon="104.610489">
<ele>126.348694</ele>
<time>2011-04-28T03:42:29Z</time>
<desc>lat.=22.157234, lon.=104.610489, Alt.=126.348694m. Speed=0.036000m/h.</desc>
<speed>0.010000</speed>
</trkpt>
<trkpt lat="22.157232" lon="104.610489">
<ele>126.493225</ele>
<time>2011-04-28T03:42:34Z</time>
<desc>lat.=22.157232, lon.=104.610489, Alt.=126.493225m. Speed=0.360000m/h.</desc>
<speed>0.100000</speed>
</trkpt>
<trkpt lat="22.157228" lon="104.610481">
<ele>126.581116</ele>
<time>2011-04-28T03:42:39Z</time>
<desc>lat.=22.157228, lon.=104.610481, Alt.=126.581116m. Speed=0.432000m/h.</desc>
<speed>0.120000</speed>
</trkpt>
<trkpt lat="22.157223" lon="104.610489">
<ele>126.633850</ele>
<time>2011-04-28T03:42:44Z</time>
<desc>lat.=22.157223, lon.=104.610489, Alt.=126.633850m. Speed=0.216000m/h.</desc>
<speed>0.060000</speed>
</trkpt>
<trkpt lat="22.157227" lon="104.610489">
<ele>126.639709</ele>
<time>2011-04-28T03:42:49Z</time>
<desc>lat.=22.157227, lon.=104.610489, Alt.=126.639709m. Speed=0.468000m/h.</desc>
<speed>0.130000</speed>
</trkpt>
<trkpt lat="22.157234" lon="104.610489">
<ele>126.627991</ele>
<time>2011-04-28T03:42:54Z</time>
<desc>lat.=22.157234, lon.=104.610489, Alt.=126.627991m. Speed=0.756000m/h.</desc>
<speed>0.210000</speed>
</trkpt>
<trkpt lat="22.157244" lon="104.610489">
<ele>126.594788</ele>
<time>2011-04-28T03:42:59Z</time>
<desc>lat.=22.157244, lon.=104.610489, Alt.=126.594788m. Speed=1.116000m/h.</desc>
<speed>0.310000</speed>
</trkpt>
<trkpt lat="22.157255" lon="104.610489">
<ele>126.545959</ele>
<time>2011-04-28T03:43:04Z</time>
<desc>lat.=22.157255, lon.=104.610489, Alt.=126.545959m. Speed=0.792000m/h.</desc>
<speed>0.220000</speed>
</trkpt>
<trkpt lat="22.157259" lon="104.610481">
<ele>126.534241</ele>
<time>2011-04-28T03:43:09Z</time>
<desc>lat.=22.157259, lon.=104.610481, Alt.=126.534241m. Speed=0.252000m/h.</desc>
<speed>0.070000</speed>
</trkpt>
<trkpt lat="22.157257" lon="104.610481">
<ele>126.540100</ele>
<time>2011-04-28T03:43:14Z</time>
<desc>lat.=22.157257, lon.=104.610481, Alt.=126.540100m. Speed=0.108000m/h.</desc>
<speed>0.030000</speed>
</trkpt>
<trkpt lat="22.157259" lon="104.610481">
<ele>126.540100</ele>
<time>2011-04-28T03:43:19Z</time>
<desc>lat.=22.157259, lon.=104.610481, Alt.=126.540100m. Speed=0.972000m/h.</desc>
<speed>0.270000</speed>
</trkpt>
<trkpt lat="22.157269" lon="104.610481">
<ele>126.524475</ele>
<time>2011-04-28T03:43:24Z</time>
<desc>lat.=22.157269, lon.=104.610481, Alt.=126.524475m. Speed=0.648000m/h.</desc>
<speed>0.180000</speed>
</trkpt>
<trkpt lat="22.157280" lon="104.610474">
<ele>126.518616</ele>
<time>2011-04-28T03:43:29Z</time>
<desc>lat.=22.157280, lon.=104.610474, Alt.=126.518616m. Speed=0.828000m/h.</desc>
<speed>0.230000</speed>
</trkpt>
<trkpt lat="22.157290" lon="104.610474">
<ele>126.530334</ele>
<time>2011-04-28T03:43:34Z</time>
<desc>lat.=22.157290, lon.=104.610474, Alt.=126.530334m. Speed=0.900000m/h.</desc>
<speed>0.250000</speed>
</trkpt>
<trkpt lat="22.157299" lon="104.610466">
<ele>126.555725</ele>
<time>2011-04-28T03:43:39Z</time>
<desc>lat.=22.157299, lon.=104.610466, Alt.=126.555725m. Speed=0.396000m/h.</desc>
<speed>0.110000</speed>
</trkpt>
<trkpt lat="22.157297" lon="104.610458">
<ele>126.585022</ele>
<time>2011-04-28T03:43:44Z</time>
<desc>lat.=22.157297, lon.=104.610458, Alt.=126.585022m. Speed=0.468000m/h.</desc>
<speed>0.130000</speed>
</trkpt>
<trkpt lat="22.157291" lon="104.610458">
<ele>126.612366</ele>
<time>2011-04-28T03:43:49Z</time>
<desc>lat.=22.157291, lon.=104.610458, Alt.=126.612366m. Speed=0.972000m/h.</desc>
<speed>0.270000</speed>
</trkpt>
<trkpt lat="22.157286" lon="104.610458">
<ele>126.598694</ele>
<time>2011-04-28T03:43:54Z</time>
<desc>lat.=22.157286, lon.=104.610458, Alt.=126.598694m. Speed=0.108000m/h.</desc>
<speed>0.030000</speed>
</trkpt>
<trkpt lat="22.157288" lon="104.610466">
<ele>126.549866</ele>
<time>2011-04-28T03:43:59Z</time>
<desc>lat.=22.157288, lon.=104.610466, Alt.=126.549866m. Speed=0.216000m/h.</desc>
<speed>0.060000</speed>
</trkpt>
<trkpt lat="22.157290" lon="104.610466">
<ele>126.501038</ele>
<time>2011-04-28T03:44:04Z</time>
<desc>lat.=22.157290, lon.=104.610466, Alt.=126.501038m. Speed=0.180000m/h.</desc>
<speed>0.050000</speed>
</trkpt>
<trkpt lat="22.157290" lon="104.610458">
<ele>126.452209</ele>
<time>2011-04-28T03:44:09Z</time>
<desc>lat.=22.157290, lon.=104.610458, Alt.=126.452209m. Speed=0.072000m/h.</desc>
<speed>0.020000</speed>
</trkpt>
<trkpt lat="22.157288" lon="104.610466">
<ele>126.426819</ele>
<time>2011-04-28T03:44:14Z</time>
<desc>lat.=22.157288, lon.=104.610466, Alt.=126.426819m. Speed=0.432000m/h.</desc>
<speed>0.120000</speed>
</trkpt>
<trkpt lat="22.157286" lon="104.610466">
<ele>126.342834</ele>
<time>2011-04-28T03:44:19Z</time>
<desc>lat.=22.157286, lon.=104.610466, Alt.=126.342834m. Speed=0.180000m/h.</desc>
<speed>0.050000</speed>
</trkpt>
<trkpt lat="22.157284" lon="104.610466">
<ele>126.317444</ele>
<time>2011-04-28T03:44:24Z</time>
<desc>lat.=22.157284, lon.=104.610466, Alt.=126.317444m. Speed=0.072000m/h.</desc>
<speed>0.020000</speed>
</trkpt>
<trkpt lat="22.157284" lon="104.610466">
<ele>126.323303</ele>
<time>2011-04-28T03:44:29Z</time>
<desc>lat.=22.157284, lon.=104.610466, Alt.=126.323303m. Speed=0.072000m/h.</desc>
<speed>0.020000</speed>
</trkpt>
<trkpt lat="22.157282" lon="104.610466">
<ele>126.251038</ele>
<time>2011-04-28T03:44:34Z</time>
<desc>lat.=22.157282, lon.=104.610466, Alt.=126.251038m. Speed=0.252000m/h.</desc>
<speed>0.070000</speed>
</trkpt>
<trkpt lat="22.157284" lon="104.610466">
<ele>126.217834</ele>
<time>2011-04-28T03:44:39Z</time>
<desc>lat.=22.157284, lon.=104.610466, Alt.=126.217834m. Speed=0.288000m/h.</desc>
<speed>0.080000</speed>
</trkpt>
<trkpt lat="22.157290" lon="104.610466">
<ele>126.176819</ele>
<time>2011-04-28T03:44:44Z</time>
<desc>lat.=22.157290, lon.=104.610466, Alt.=126.176819m. Speed=0.684000m/h.</desc>
<speed>0.190000</speed>
</trkpt>
<trkpt lat="22.157299" lon="104.610458">
<ele>126.198303</ele>
<time>2011-04-28T03:44:49Z</time>
<desc>lat.=22.157299, lon.=104.610458, Alt.=126.198303m. Speed=0.504000m/h.</desc>
<speed>0.140000</speed>
</trkpt>
<trkpt lat="22.157309" lon="104.610451">
<ele>126.206116</ele>
<time>2011-04-28T03:44:54Z</time>
<desc>lat.=22.157309, lon.=104.610451, Alt.=126.206116m. Speed=0.648000m/h.</desc>
<speed>0.180000</speed>
</trkpt>
<trkpt lat="22.157318" lon="104.610451">
<ele>126.206116</ele>
<time>2011-04-28T03:44:59Z</time>
<desc>lat.=22.157318, lon.=104.610451, Alt.=126.206116m. Speed=1.476000m/h.</desc>
<speed>0.410000</speed>
</trkpt>
<trkpt lat="22.157330" lon="104.610443">
<ele>126.167053</ele>
<time>2011-04-28T03:45:04Z</time>
<desc>lat.=22.157330, lon.=104.610443, Alt.=126.167053m. Speed=0.288000m/h.</desc>
<speed>0.080000</speed>
</trkpt>
<trkpt lat="22.157331" lon="104.610443">
<ele>126.120178</ele>
<time>2011-04-28T03:45:09Z</time>
<desc>lat.=22.157331, lon.=104.610443, Alt.=126.120178m. Speed=0.108000m/h.</desc>
<speed>0.030000</speed>
</trkpt>
<trkpt lat="22.157330" lon="104.610443">
<ele>126.004944</ele>
<time>2011-04-28T03:45:14Z</time>
<desc>lat.=22.157330, lon.=104.610443, Alt.=126.004944m. Speed=0.144000m/h.</desc>
<speed>0.040000</speed>
</trkpt>
<trkpt lat="22.157328" lon="104.610443">
<ele>125.776428</ele>
<time>2011-04-28T03:45:19Z</time>
<desc>lat.=22.157328, lon.=104.610443, Alt.=125.776428m. Speed=0.216000m/h.</desc>
<speed>0.060000</speed>
</trkpt>
<trkpt lat="22.157326" lon="104.610451">
<ele>125.461975</ele>
<time>2011-04-28T03:45:24Z</time>
<desc>lat.=22.157326, lon.=104.610451, Alt.=125.461975m. Speed=0.144000m/h.</desc>
<speed>0.040000</speed>
</trkpt>
<trkpt lat="22.157326" lon="104.610451">
<ele>125.032288</ele>
<time>2011-04-28T03:45:29Z</time>
<desc>lat.=22.157326, lon.=104.610451, Alt.=125.032288m. Speed=0.180000m/h.</desc>
<speed>0.050000</speed>
</trkpt>
<trkpt lat="22.157326" lon="104.610451">
<ele>124.588928</ele>
<time>2011-04-28T03:45:34Z</time>
<desc>lat.=22.157326, lon.=104.610451, Alt.=124.588928m. Speed=0.108000m/h.</desc>
<speed>0.030000</speed>
</trkpt>
<trkpt lat="22.157326" lon="104.610458">
<ele>124.106506</ele>
<time>2011-04-28T03:45:39Z</time>
<desc>lat.=22.157326, lon.=104.610458, Alt.=124.106506m. Speed=0.180000m/h.</desc>
<speed>0.050000</speed>
</trkpt>
<trkpt lat="22.157326" lon="104.610458">
<ele>123.643616</ele>
<time>2011-04-28T03:45:44Z</time>
<desc>lat.=22.157326, lon.=104.610458, Alt.=123.643616m. Speed=0.144000m/h.</desc>
<speed>0.040000</speed>
</trkpt>
<trkpt lat="22.157326" lon="104.610458">
<ele>123.262756</ele>
<time>2011-04-28T03:45:49Z</time>
<desc>lat.=22.157326, lon.=104.610458, Alt.=123.262756m. Speed=0.108000m/h.</desc>
<speed>0.030000</speed>
</trkpt>
<trkpt lat="22.157328" lon="104.610466">
<ele>122.905334</ele>
<time>2011-04-28T03:45:54Z</time>
<desc>lat.=22.157328, lon.=104.610466, Alt.=122.905334m. Speed=0.180000m/h.</desc>
<speed>0.050000</speed>
</trkpt>
<trkpt lat="22.157330" lon="104.610466">
<ele>122.424866</ele>
<time>2011-04-28T03:45:59Z</time>
<desc>lat.=22.157330, lon.=104.610466, Alt.=122.424866m. Speed=0.072000m/h.</desc>
<speed>0.020000</speed>
</trkpt>
<trkpt lat="22.157326" lon="104.610466">
<ele>121.823303</ele>
<time>2011-04-28T03:46:04Z</time>
<desc>lat.=22.157326, lon.=104.610466, Alt.=121.823303m. Speed=0.504000m/h.</desc>
<speed>0.140000</speed>
</trkpt>
<trkpt lat="22.157320" lon="104.610466">
<ele>121.163147</ele>
<time>2011-04-28T03:46:09Z</time>
<desc>lat.=22.157320, lon.=104.610466, Alt.=121.163147m. Speed=0.360000m/h.</desc>
<speed>0.100000</speed>
</trkpt>
<trkpt lat="22.157316" lon="104.610474">
<ele>120.413147</ele>
<time>2011-04-28T03:46:14Z</time>
<desc>lat.=22.157316, lon.=104.610474, Alt.=120.413147m. Speed=0.252000m/h.</desc>
<speed>0.070000</speed>
</trkpt>
<trkpt lat="22.157314" lon="104.610474">
<ele>119.581116</ele>
<time>2011-04-28T03:46:19Z</time>
<desc>lat.=22.157314, lon.=104.610474, Alt.=119.581116m. Speed=0.252000m/h.</desc>
<speed>0.070000</speed>
</trkpt>
<trkpt lat="22.157310" lon="104.610474">
<ele>118.706116</ele>
<time>2011-04-28T03:46:24Z</time>
<desc>lat.=22.157310, lon.=104.610474, Alt.=118.706116m. Speed=0.396000m/h.</desc>
<speed>0.110000</speed>
</trkpt>
<trkpt lat="22.157303" lon="104.610474">
<ele>117.856506</ele>
<time>2011-04-28T03:46:29Z</time>
<desc>lat.=22.157303, lon.=104.610474, Alt.=117.856506m. Speed=0.576000m/h.</desc>
<speed>0.160000</speed>
</trkpt>
<trkpt lat="22.157295" lon="104.610466">
<ele>116.995178</ele>
<time>2011-04-28T03:46:34Z</time>
<desc>lat.=22.157295, lon.=104.610466, Alt.=116.995178m. Speed=0.648000m/h.</desc>
<speed>0.180000</speed>
</trkpt>
<trkpt lat="22.157288" lon="104.610466">
<ele>116.143616</ele>
<time>2011-04-28T03:46:39Z</time>
<desc>lat.=22.157288, lon.=104.610466, Alt.=116.143616m. Speed=0.828000m/h.</desc>
<speed>0.230000</speed>
</trkpt>
<trkpt lat="22.157278" lon="104.610458">
<ele>115.313538</ele>
<time>2011-04-28T03:46:44Z</time>
<desc>lat.=22.157278, lon.=104.610458, Alt.=115.313538m. Speed=0.828000m/h.</desc>
<speed>0.230000</speed>
</trkpt>
<trkpt lat="22.157269" lon="104.610451">
<ele>114.510803</ele>
<time>2011-04-28T03:46:49Z</time>
<desc>lat.=22.157269, lon.=104.610451, Alt.=114.510803m. Speed=0.972000m/h.</desc>
<speed>0.270000</speed>
</trkpt>
<trkpt lat="22.157175" lon="104.610413">
<ele>113.874084</ele>
<time>2011-04-28T03:46:54Z</time>
<desc>lat.=22.157175, lon.=104.610413, Alt.=113.874084m. Speed=1.980000m/h.</desc>
<speed>0.550000</speed>
</trkpt>
<trkpt lat="22.157164" lon="104.610413">
<ele>112.866272</ele>
<time>2011-04-28T03:46:59Z</time>
<desc>lat.=22.157164, lon.=104.610413, Alt.=112.866272m. Speed=1.476000m/h.</desc>
<speed>0.410000</speed>
</trkpt>
<trkpt lat="22.157213" lon="104.610466">
<ele>112.627991</ele>
<time>2011-04-28T03:47:04Z</time>
<desc>lat.=22.157213, lon.=104.610466, Alt.=112.627991m. Speed=0.252000m/h.</desc>
<speed>0.070000</speed>
</trkpt>
<trkpt lat="22.157219" lon="104.610466">
<ele>112.030334</ele>
<time>2011-04-28T03:47:09Z</time>
<desc>lat.=22.157219, lon.=104.610466, Alt.=112.030334m. Speed=0.468000m/h.</desc>
<speed>0.130000</speed>
</trkpt>
<trkpt lat="22.157223" lon="104.610466">
<ele>111.526428</ele>
<time>2011-04-28T03:47:14Z</time>
<desc>lat.=22.157223, lon.=104.610466, Alt.=111.526428m. Speed=0.180000m/h.</desc>
<speed>0.050000</speed>
</trkpt>
<trkpt lat="22.157227" lon="104.610466">
<ele>111.051819</ele>
<time>2011-04-28T03:47:19Z</time>
<desc>lat.=22.157227, lon.=104.610466, Alt.=111.051819m. Speed=0.468000m/h.</desc>
<speed>0.130000</speed>
</trkpt>
<trkpt lat="22.157232" lon="104.610466">
<ele>110.563538</ele>
<time>2011-04-28T03:47:24Z</time>
<desc>lat.=22.157232, lon.=104.610466, Alt.=110.563538m. Speed=0.252000m/h.</desc>
<speed>0.070000</speed>
</trkpt>
<trkpt lat="22.157236" lon="104.610474">
<ele>110.211975</ele>
<time>2011-04-28T03:47:29Z</time>
<desc>lat.=22.157236, lon.=104.610474, Alt.=110.211975m. Speed=0.468000m/h.</desc>
<speed>0.130000</speed>
</trkpt>
<trkpt lat="22.157242" lon="104.610474">
<ele>109.897522</ele>
<time>2011-04-28T03:47:34Z</time>
<desc>lat.=22.157242, lon.=104.610474, Alt.=109.897522m. Speed=0.576000m/h.</desc>
<speed>0.160000</speed>
</trkpt>
<trkpt lat="22.157248" lon="104.610481">
<ele>109.520569</ele>
<time>2011-04-28T03:47:39Z</time>
<desc>lat.=22.157248, lon.=104.610481, Alt.=109.520569m. Speed=0.648000m/h.</desc>
<speed>0.180000</speed>
</trkpt>
<trkpt lat="22.157253" lon="104.610481">
<ele>109.122131</ele>
<time>2011-04-28T03:47:44Z</time>
<desc>lat.=22.157253, lon.=104.610481, Alt.=109.122131m. Speed=0.108000m/h.</desc>
<speed>0.030000</speed>
</trkpt>
<trkpt lat="22.157253" lon="104.610481">
<ele>108.739319</ele>
<time>2011-04-28T03:47:49Z</time>
<desc>lat.=22.157253, lon.=104.610481, Alt.=108.739319m. Speed=0.144000m/h.</desc>
<speed>0.040000</speed>
</trkpt>
<trkpt lat="22.157257" lon="104.610481">
<ele>108.327209</ele>
<time>2011-04-28T03:47:54Z</time>
<desc>lat.=22.157257, lon.=104.610481, Alt.=108.327209m. Speed=0.756000m/h.</desc>
<speed>0.210000</speed>
</trkpt>
<trkpt lat="22.157261" lon="104.610481">
<ele>107.897522</ele>
<time>2011-04-28T03:47:59Z</time>
<desc>lat.=22.157261, lon.=104.610481, Alt.=107.897522m. Speed=0.072000m/h.</desc>
<speed>0.020000</speed>
</trkpt>
<trkpt lat="22.157263" lon="104.610481">
<ele>107.514709</ele>
<time>2011-04-28T03:48:04Z</time>
<desc>lat.=22.157263, lon.=104.610481, Alt.=107.514709m. Speed=0.432000m/h.</desc>
<speed>0.120000</speed>
</trkpt>
<trkpt lat="22.157267" lon="104.610474">
<ele>107.157288</ele>
<time>2011-04-28T03:48:09Z</time>
<desc>lat.=22.157267, lon.=104.610474, Alt.=107.157288m. Speed=0.612000m/h.</desc>
<speed>0.170000</speed>
</trkpt>
<trkpt lat="22.157270" lon="104.610466">
<ele>106.772522</ele>
<time>2011-04-28T03:48:14Z</time>
<desc>lat.=22.157270, lon.=104.610466, Alt.=106.772522m. Speed=0.612000m/h.</desc>
<speed>0.170000</speed>
</trkpt>
<trkpt lat="22.157274" lon="104.610458">
<ele>106.329163</ele>
<time>2011-04-28T03:48:19Z</time>
<desc>lat.=22.157274, lon.=104.610458, Alt.=106.329163m. Speed=0.576000m/h.</desc>
<speed>0.160000</speed>
</trkpt>
<trkpt lat="22.157272" lon="104.610451">
<ele>105.919006</ele>
<time>2011-04-28T03:48:24Z</time>
<desc>lat.=22.157272, lon.=104.610451, Alt.=105.919006m. Speed=0.468000m/h.</desc>
<speed>0.130000</speed>
</trkpt>
<trkpt lat="22.157267" lon="104.610451">
<ele>105.491272</ele>
<time>2011-04-28T03:48:29Z</time>
<desc>lat.=22.157267, lon.=104.610451, Alt.=105.491272m. Speed=0.576000m/h.</desc>
<speed>0.160000</speed>
</trkpt>
<trkpt lat="22.157259" lon="104.610443">
<ele>105.270569</ele>
<time>2011-04-28T03:48:34Z</time>
<desc>lat.=22.157259, lon.=104.610443, Alt.=105.270569m. Speed=0.900000m/h.</desc>
<speed>0.250000</speed>
</trkpt>
<trkpt lat="22.157251" lon="104.610435">
<ele>105.249084</ele>
<time>2011-04-28T03:48:39Z</time>
<desc>lat.=22.157251, lon.=104.610435, Alt.=105.249084m. Speed=0.684000m/h.</desc>
<speed>0.190000</speed>
</trkpt>
<trkpt lat="22.157244" lon="104.610428">
<ele>105.401428</ele>
<time>2011-04-28T03:48:44Z</time>
<desc>lat.=22.157244, lon.=104.610428, Alt.=105.401428m. Speed=0.648000m/h.</desc>
<speed>0.180000</speed>
</trkpt>
<trkpt lat="22.157240" lon="104.610420">
<ele>105.706116</ele>
<time>2011-04-28T03:48:49Z</time>
<desc>lat.=22.157240, lon.=104.610420, Alt.=105.706116m. Speed=0.648000m/h.</desc>
<speed>0.180000</speed>
</trkpt>
<trkpt lat="22.157234" lon="104.610413">
<ele>105.874084</ele>
<time>2011-04-28T03:48:54Z</time>
<desc>lat.=22.157234, lon.=104.610413, Alt.=105.874084m. Speed=0.576000m/h.</desc>
<speed>0.160000</speed>
</trkpt>
<trkpt lat="22.157230" lon="104.610405">
<ele>106.024475</ele>
<time>2011-04-28T03:48:59Z</time>
<desc>lat.=22.157230, lon.=104.610405, Alt.=106.024475m. Speed=1.044000m/h.</desc>
<speed>0.290000</speed>
</trkpt>
<trkpt lat="22.157190" lon="104.610359">
<ele>105.389709</ele>
<time>2011-04-28T03:49:04Z</time>
<desc>lat.=22.157190, lon.=104.610359, Alt.=105.389709m. Speed=8.316000m/h.</desc>
<speed>2.310000</speed>
</trkpt>
<trkpt lat="22.157104" lon="104.610336">
<ele>104.596741</ele>
<time>2011-04-28T03:49:09Z</time>
<desc>lat.=22.157104, lon.=104.610336, Alt.=104.596741m. Speed=6.588000m/h.</desc>
<speed>1.830000</speed>
</trkpt>
<trkpt lat="22.157043" lon="104.610352">
<ele>105.018616</ele>
<time>2011-04-28T03:49:14Z</time>
<desc>lat.=22.157043, lon.=104.610352, Alt.=105.018616m. Speed=4.140000m/h.</desc>
<speed>1.150000</speed>
</trkpt>
<trkpt lat="22.156929" lon="104.610405">
<ele>105.159241</ele>
<time>2011-04-28T03:49:19Z</time>
<desc>lat.=22.156929, lon.=104.610405, Alt.=105.159241m. Speed=9.396000m/h.</desc>
<speed>2.610000</speed>
</trkpt>
<trkpt lat="22.156809" lon="104.610497">
<ele>106.670959</ele>
<time>2011-04-28T03:49:24Z</time>
<desc>lat.=22.156809, lon.=104.610497, Alt.=106.670959m. Speed=9.108000m/h.</desc>
<speed>2.530000</speed>
</trkpt>
<trkpt lat="22.156677" lon="104.610588">
<ele>112.879944</ele>
<time>2011-04-28T03:49:29Z</time>
<desc>lat.=22.156677, lon.=104.610588, Alt.=112.879944m. Speed=6.300000m/h.</desc>
<speed>1.750000</speed>
</trkpt>
<trkpt lat="22.156555" lon="104.610703">
<ele>117.131897</ele>
<time>2011-04-28T03:49:34Z</time>
<desc>lat.=22.156555, lon.=104.610703, Alt.=117.131897m. Speed=7.596000m/h.</desc>
<speed>2.110000</speed>
</trkpt>
<trkpt lat="22.156479" lon="104.610786">
<ele>119.733459</ele>
<time>2011-04-28T03:49:39Z</time>
<desc>lat.=22.156479, lon.=104.610786, Alt.=119.733459m. Speed=9.036000m/h.</desc>
<speed>2.510000</speed>
</trkpt>
<trkpt lat="22.156370" lon="104.610901">
<ele>119.626038</ele>
<time>2011-04-28T03:49:44Z</time>
<desc>lat.=22.156370, lon.=104.610901, Alt.=119.626038m. Speed=10.080000m/h.</desc>
<speed>2.800000</speed>
</trkpt>
<trkpt lat="22.156231" lon="104.611015">
<ele>120.747131</ele>
<time>2011-04-28T03:49:49Z</time>
<desc>lat.=22.156231, lon.=104.611015, Alt.=120.747131m. Speed=11.304000m/h.</desc>
<speed>3.140000</speed>
</trkpt>
<trkpt lat="22.156122" lon="104.611053">
<ele>121.463928</ele>
<time>2011-04-28T03:49:54Z</time>
<desc>lat.=22.156122, lon.=104.611053, Alt.=121.463928m. Speed=8.748000m/h.</desc>
<speed>2.430000</speed>
</trkpt>
<trkpt lat="22.155998" lon="104.611099">
<ele>123.430725</ele>
<time>2011-04-28T03:49:59Z</time>
<desc>lat.=22.155998, lon.=104.611099, Alt.=123.430725m. Speed=10.764000m/h.</desc>
<speed>2.990000</speed>
</trkpt>
<trkpt lat="22.155899" lon="104.611237">
<ele>122.737366</ele>
<time>2011-04-28T03:50:04Z</time>
<desc>lat.=22.155899, lon.=104.611237, Alt.=122.737366m. Speed=9.828000m/h.</desc>
<speed>2.730000</speed>
</trkpt>
<trkpt lat="22.155827" lon="104.611328">
<ele>123.711975</ele>
<time>2011-04-28T03:50:09Z</time>
<desc>lat.=22.155827, lon.=104.611328, Alt.=123.711975m. Speed=7.128000m/h.</desc>
<speed>1.980000</speed>
</trkpt>
<trkpt lat="22.155716" lon="104.611473">
<ele>124.169006</ele>
<time>2011-04-28T03:50:14Z</time>
<desc>lat.=22.155716, lon.=104.611473, Alt.=124.169006m. Speed=11.628000m/h.</desc>
<speed>3.230000</speed>
</trkpt>
<trkpt lat="22.155640" lon="104.611557">
<ele>125.243225</ele>
<time>2011-04-28T03:50:19Z</time>
<desc>lat.=22.155640, lon.=104.611557, Alt.=125.243225m. Speed=6.444000m/h.</desc>
<speed>1.790000</speed>
</trkpt>
<trkpt lat="22.155586" lon="104.611603">
<ele>126.085022</ele>
<time>2011-04-28T03:50:24Z</time>
<desc>lat.=22.155586, lon.=104.611603, Alt.=126.085022m. Speed=3.888000m/h.</desc>
<speed>1.080000</speed>
</trkpt>
<trkpt lat="22.155540" lon="104.611694">
<ele>126.530334</ele>
<time>2011-04-28T03:50:29Z</time>
<desc>lat.=22.155540, lon.=104.611694, Alt.=126.530334m. Speed=5.688000m/h.</desc>
<speed>1.580000</speed>
</trkpt>
<trkpt lat="22.155516" lon="104.611786">
<ele>127.774475</ele>
<time>2011-04-28T03:50:34Z</time>
<desc>lat.=22.155516, lon.=104.611786, Alt.=127.774475m. Speed=5.472000m/h.</desc>
<speed>1.520000</speed>
</trkpt>
<trkpt lat="22.155516" lon="104.611877">
<ele>128.896606</ele>
<time>2011-04-28T03:50:39Z</time>
<desc>lat.=22.155516, lon.=104.611877, Alt.=128.896606m. Speed=6.336000m/h.</desc>
<speed>1.760000</speed>
</trkpt>
<trkpt lat="22.155537" lon="104.611984">
<ele>129.939575</ele>
<time>2011-04-28T03:50:44Z</time>
<desc>lat.=22.155537, lon.=104.611984, Alt.=129.939575m. Speed=5.184000m/h.</desc>
<speed>1.440000</speed>
</trkpt>
<trkpt lat="22.155558" lon="104.612091">
<ele>131.310669</ele>
<time>2011-04-28T03:50:49Z</time>
<desc>lat.=22.155558, lon.=104.612091, Alt.=131.310669m. Speed=5.940000m/h.</desc>
<speed>1.650000</speed>
</trkpt>
<trkpt lat="22.155544" lon="104.612175">
<ele>131.373169</ele>
<time>2011-04-28T03:50:54Z</time>
<desc>lat.=22.155544, lon.=104.612175, Alt.=131.373169m. Speed=5.256000m/h.</desc>
<speed>1.460000</speed>
</trkpt>
<trkpt lat="22.155499" lon="104.612244">
<ele>131.013794</ele>
<time>2011-04-28T03:50:59Z</time>
<desc>lat.=22.155499, lon.=104.612244, Alt.=131.013794m. Speed=5.112000m/h.</desc>
<speed>1.420000</speed>
</trkpt>
<trkpt lat="22.155441" lon="104.612297">
<ele>131.630981</ele>
<time>2011-04-28T03:51:04Z</time>
<desc>lat.=22.155441, lon.=104.612297, Alt.=131.630981m. Speed=5.688000m/h.</desc>
<speed>1.580000</speed>
</trkpt>
<trkpt lat="22.155367" lon="104.612373">
<ele>134.099731</ele>
<time>2011-04-28T03:51:09Z</time>
<desc>lat.=22.155367, lon.=104.612373, Alt.=134.099731m. Speed=5.724000m/h.</desc>
<speed>1.590000</speed>
</trkpt>
<trkpt lat="22.155306" lon="104.612434">
<ele>135.892700</ele>
<time>2011-04-28T03:51:14Z</time>
<desc>lat.=22.155306, lon.=104.612434, Alt.=135.892700m. Speed=4.968000m/h.</desc>
<speed>1.380000</speed>
</trkpt>
<trkpt lat="22.155251" lon="104.612488">
<ele>135.197388</ele>
<time>2011-04-28T03:51:19Z</time>
<desc>lat.=22.155251, lon.=104.612488, Alt.=135.197388m. Speed=6.228000m/h.</desc>
<speed>1.730000</speed>
</trkpt>
<trkpt lat="22.155182" lon="104.612534">
<ele>134.787231</ele>
<time>2011-04-28T03:51:24Z</time>
<desc>lat.=22.155182, lon.=104.612534, Alt.=134.787231m. Speed=6.552000m/h.</desc>
<speed>1.820000</speed>
</trkpt>
<trkpt lat="22.155111" lon="104.612572">
<ele>134.755981</ele>
<time>2011-04-28T03:51:29Z</time>
<desc>lat.=22.155111, lon.=104.612572, Alt.=134.755981m. Speed=5.796000m/h.</desc>
<speed>1.610000</speed>
</trkpt>
<trkpt lat="22.155048" lon="104.612602">
<ele>134.880981</ele>
<time>2011-04-28T03:51:34Z</time>
<desc>lat.=22.155048, lon.=104.612602, Alt.=134.880981m. Speed=5.796000m/h.</desc>
<speed>1.610000</speed>
</trkpt>
<trkpt lat="22.154984" lon="104.612640">
<ele>134.834106</ele>
<time>2011-04-28T03:51:39Z</time>
<desc>lat.=22.154984, lon.=104.612640, Alt.=134.834106m. Speed=6.300000m/h.</desc>
<speed>1.750000</speed>
</trkpt>
<trkpt lat="22.154902" lon="104.612663">
<ele>135.197388</ele>
<time>2011-04-28T03:51:44Z</time>
<desc>lat.=22.154902, lon.=104.612663, Alt.=135.197388m. Speed=5.148000m/h.</desc>
<speed>1.430000</speed>
</trkpt>
<trkpt lat="22.154823" lon="104.612679">
<ele>135.412231</ele>
<time>2011-04-28T03:51:49Z</time>
<desc>lat.=22.154823, lon.=104.612679, Alt.=135.412231m. Speed=3.456000m/h.</desc>
<speed>0.960000</speed>
</trkpt>
<trkpt lat="22.154743" lon="104.612701">
<ele>135.416138</ele>
<time>2011-04-28T03:51:54Z</time>
<desc>lat.=22.154743, lon.=104.612701, Alt.=135.416138m. Speed=4.716000m/h.</desc>
<speed>1.310000</speed>
</trkpt>
<trkpt lat="22.154671" lon="104.612732">
<ele>135.267700</ele>
<time>2011-04-28T03:51:59Z</time>
<desc>lat.=22.154671, lon.=104.612732, Alt.=135.267700m. Speed=5.256000m/h.</desc>
<speed>1.460000</speed>
</trkpt>
<trkpt lat="22.154606" lon="104.612755">
<ele>135.611450</ele>
<time>2011-04-28T03:52:04Z</time>
<desc>lat.=22.154606, lon.=104.612755, Alt.=135.611450m. Speed=4.752000m/h.</desc>
<speed>1.320000</speed>
</trkpt>
<trkpt lat="22.154543" lon="104.612785">
<ele>136.138794</ele>
<time>2011-04-28T03:52:09Z</time>
<desc>lat.=22.154543, lon.=104.612785, Alt.=136.138794m. Speed=7.200000m/h.</desc>
<speed>2.000000</speed>
</trkpt>
<trkpt lat="22.154453" lon="104.612846">
<ele>136.951294</ele>
<time>2011-04-28T03:52:14Z</time>
<desc>lat.=22.154453, lon.=104.612846, Alt.=136.951294m. Speed=8.208000m/h.</desc>
<speed>2.280000</speed>
</trkpt>
<trkpt lat="22.154339" lon="104.612930">
<ele>141.638794</ele>
<time>2011-04-28T03:52:19Z</time>
<desc>lat.=22.154339, lon.=104.612930, Alt.=141.638794m. Speed=4.716000m/h.</desc>
<speed>1.310000</speed>
</trkpt>
<trkpt lat="22.154297" lon="104.613014">
<ele>141.697388</ele>
<time>2011-04-28T03:52:24Z</time>
<desc>lat.=22.154297, lon.=104.613014, Alt.=141.697388m. Speed=5.292000m/h.</desc>
<speed>1.470000</speed>
</trkpt>
<trkpt lat="22.154243" lon="104.613075">
<ele>142.181763</ele>
<time>2011-04-28T03:52:29Z</time>
<desc>lat.=22.154243, lon.=104.613075, Alt.=142.181763m. Speed=5.256000m/h.</desc>
<speed>1.460000</speed>
</trkpt>
<trkpt lat="22.154169" lon="104.613152">
<ele>142.017700</ele>
<time>2011-04-28T03:52:34Z</time>
<desc>lat.=22.154169, lon.=104.613152, Alt.=142.017700m. Speed=7.092000m/h.</desc>
<speed>1.970000</speed>
</trkpt>
<trkpt lat="22.154099" lon="104.613213">
<ele>141.959106</ele>
<time>2011-04-28T03:52:39Z</time>
<desc>lat.=22.154099, lon.=104.613213, Alt.=141.959106m. Speed=6.048000m/h.</desc>
<speed>1.680000</speed>
</trkpt>
<trkpt lat="22.154051" lon="104.613274">
<ele>142.181763</ele>
<time>2011-04-28T03:52:44Z</time>
<desc>lat.=22.154051, lon.=104.613274, Alt.=142.181763m. Speed=5.040000m/h.</desc>
<speed>1.400000</speed>
</trkpt>
<trkpt lat="22.154016" lon="104.613342">
<ele>144.017700</ele>
<time>2011-04-28T03:52:49Z</time>
<desc>lat.=22.154016, lon.=104.613342, Alt.=144.017700m. Speed=4.608000m/h.</desc>
<speed>1.280000</speed>
</trkpt>
<trkpt lat="22.153963" lon="104.613403">
<ele>144.326294</ele>
<time>2011-04-28T03:52:54Z</time>
<desc>lat.=22.153963, lon.=104.613403, Alt.=144.326294m. Speed=4.500000m/h.</desc>
<speed>1.250000</speed>
</trkpt>
<trkpt lat="22.153894" lon="104.613441">
<ele>144.912231</ele>
<time>2011-04-28T03:52:59Z</time>
<desc>lat.=22.153894, lon.=104.613441, Alt.=144.912231m. Speed=4.824000m/h.</desc>
<speed>1.340000</speed>
</trkpt>
<trkpt lat="22.153812" lon="104.613449">
<ele>144.943481</ele>
<time>2011-04-28T03:53:04Z</time>
<desc>lat.=22.153812, lon.=104.613449, Alt.=144.943481m. Speed=3.888000m/h.</desc>
<speed>1.080000</speed>
</trkpt>
<trkpt lat="22.153759" lon="104.613441">
<ele>145.107544</ele>
<time>2011-04-28T03:53:09Z</time>
<desc>lat.=22.153759, lon.=104.613441, Alt.=145.107544m. Speed=3.240000m/h.</desc>
<speed>0.900000</speed>
</trkpt>
<trkpt lat="22.153679" lon="104.613449">
<ele>145.306763</ele>
<time>2011-04-28T03:53:14Z</time>
<desc>lat.=22.153679, lon.=104.613449, Alt.=145.306763m. Speed=4.356000m/h.</desc>
<speed>1.210000</speed>
</trkpt>
<trkpt lat="22.153563" lon="104.613449">
<ele>145.177856</ele>
<time>2011-04-28T03:53:19Z</time>
<desc>lat.=22.153563, lon.=104.613449, Alt.=145.177856m. Speed=3.744000m/h.</desc>
<speed>1.040000</speed>
</trkpt>
<trkpt lat="22.153509" lon="104.613464">
<ele>144.920044</ele>
<time>2011-04-28T03:53:24Z</time>
<desc>lat.=22.153509, lon.=104.613464, Alt.=144.920044m. Speed=4.176000m/h.</desc>
<speed>1.160000</speed>
</trkpt>
<trkpt lat="22.153446" lon="104.613480">
<ele>144.435669</ele>
<time>2011-04-28T03:53:29Z</time>
<desc>lat.=22.153446, lon.=104.613480, Alt.=144.435669m. Speed=4.680000m/h.</desc>
<speed>1.300000</speed>
</trkpt>
<trkpt lat="22.153416" lon="104.613480">
<ele>144.806763</ele>
<time>2011-04-28T03:53:34Z</time>
<desc>lat.=22.153416, lon.=104.613480, Alt.=144.806763m. Speed=1.296000m/h.</desc>
<speed>0.360000</speed>
</trkpt>
<trkpt lat="22.153393" lon="104.613472">
<ele>144.853638</ele>
<time>2011-04-28T03:53:39Z</time>
<desc>lat.=22.153393, lon.=104.613472, Alt.=144.853638m. Speed=0.216000m/h.</desc>
<speed>0.060000</speed>
</trkpt>
<trkpt lat="22.153391" lon="104.613472">
<ele>144.935669</ele>
<time>2011-04-28T03:53:44Z</time>
<desc>lat.=22.153391, lon.=104.613472, Alt.=144.935669m. Speed=0.288000m/h.</desc>
<speed>0.080000</speed>
</trkpt>
<trkpt lat="22.153389" lon="104.613472">
<ele>144.994263</ele>
<time>2011-04-28T03:53:49Z</time>
<desc>lat.=22.153389, lon.=104.613472, Alt.=144.994263m. Speed=0.288000m/h.</desc>
<speed>0.080000</speed>
</trkpt>
<trkpt lat="22.153389" lon="104.613480">
<ele>145.084106</ele>
<time>2011-04-28T03:53:54Z</time>
<desc>lat.=22.153389, lon.=104.613480, Alt.=145.084106m. Speed=0.612000m/h.</desc>
<speed>0.170000</speed>
</trkpt>
<trkpt lat="22.153391" lon="104.613487">
<ele>145.138794</ele>
<time>2011-04-28T03:53:59Z</time>
<desc>lat.=22.153391, lon.=104.613487, Alt.=145.138794m. Speed=0.576000m/h.</desc>
<speed>0.160000</speed>
</trkpt>
<trkpt lat="22.153385" lon="104.613510">
<ele>145.408325</ele>
<time>2011-04-28T03:54:04Z</time>
<desc>lat.=22.153385, lon.=104.613510, Alt.=145.408325m. Speed=2.412000m/h.</desc>
<speed>0.670000</speed>
</trkpt>
<trkpt lat="22.153376" lon="104.613518">
<ele>145.416138</ele>
<time>2011-04-28T03:54:09Z</time>
<desc>lat.=22.153376, lon.=104.613518, Alt.=145.416138m. Speed=0.612000m/h.</desc>
<speed>0.170000</speed>
</trkpt>
<trkpt lat="22.153374" lon="104.613518">
<ele>145.463013</ele>
<time>2011-04-28T03:54:14Z</time>
<desc>lat.=22.153374, lon.=104.613518, Alt.=145.463013m. Speed=0.036000m/h.</desc>
<speed>0.010000</speed>
</trkpt>
<trkpt lat="22.153376" lon="104.613518">
<ele>145.509888</ele>
<time>2011-04-28T03:54:19Z</time>
<desc>lat.=22.153376, lon.=104.613518, Alt.=145.509888m. Speed=0.036000m/h.</desc>
<speed>0.010000</speed>
</trkpt>
<trkpt lat="22.153374" lon="104.613518">
<ele>145.533325</ele>
<time>2011-04-28T03:54:24Z</time>
<desc>lat.=22.153374, lon.=104.613518, Alt.=145.533325m. Speed=0.036000m/h.</desc>
<speed>0.010000</speed>
</trkpt>
<trkpt lat="22.153374" lon="104.613518">
<ele>145.568481</ele>
<time>2011-04-28T03:54:29Z</time>
<desc>lat.=22.153374, lon.=104.613518, Alt.=145.568481m. Speed=0.000000m/h.</desc>
<speed>0.000000</speed>
</trkpt>
<trkpt lat="22.153374" lon="104.613518">
<ele>145.599731</ele>
<time>2011-04-28T03:54:34Z</time>
<desc>lat.=22.153374, lon.=104.613518, Alt.=145.599731m. Speed=0.000000m/h.</desc>
<speed>0.000000</speed>
</trkpt>
<trkpt lat="22.153374" lon="104.613518">
<ele>145.713013</ele>
<time>2011-04-28T03:54:39Z</time>
<desc>lat.=22.153374, lon.=104.613518, Alt.=145.713013m. Speed=0.036000m/h.</desc>
<speed>0.010000</speed>
</trkpt>
<trkpt lat="22.153374" lon="104.613518">
<ele>145.857544</ele>
<time>2011-04-28T03:54:44Z</time>
<desc>lat.=22.153374, lon.=104.613518, Alt.=145.857544m. Speed=0.108000m/h.</desc>
<speed>0.030000</speed>
</trkpt>
<trkpt lat="22.153374" lon="104.613525">
<ele>146.013794</ele>
<time>2011-04-28T03:54:49Z</time>
<desc>lat.=22.153374, lon.=104.613525, Alt.=146.013794m. Speed=0.144000m/h.</desc>
<speed>0.040000</speed>
</trkpt>
<trkpt lat="22.153372" lon="104.613525">
<ele>146.185669</ele>
<time>2011-04-28T03:54:54Z</time>
<desc>lat.=22.153372, lon.=104.613525, Alt.=146.185669m. Speed=0.072000m/h.</desc>
<speed>0.020000</speed>
</trkpt>
<trkpt lat="22.153372" lon="104.613525">
<ele>146.298950</ele>
<time>2011-04-28T03:54:59Z</time>
<desc>lat.=22.153372, lon.=104.613525, Alt.=146.298950m. Speed=0.000000m/h.</desc>
<speed>0.000000</speed>
</trkpt>
<trkpt lat="22.153372" lon="104.613525">
<ele>146.326294</ele>
<time>2011-04-28T03:55:04Z</time>
<desc>lat.=22.153372, lon.=104.613525, Alt.=146.326294m. Speed=0.000000m/h.</desc>
<speed>0.000000</speed>
</trkpt>
<trkpt lat="22.153372" lon="104.613525">
<ele>146.338013</ele>
<time>2011-04-28T03:55:09Z</time>
<desc>lat.=22.153372, lon.=104.613525, Alt.=146.338013m. Speed=0.000000m/h.</desc>
<speed>0.000000</speed>
</trkpt>
<trkpt lat="22.153372" lon="104.613525">
<ele>146.334106</ele>
<time>2011-04-28T03:55:14Z</time>
<desc>lat.=22.153372, lon.=104.613525, Alt.=146.334106m. Speed=0.000000m/h.</desc>
<speed>0.000000</speed>
</trkpt>
<trkpt lat="22.153372" lon="104.613525">
<ele>146.298950</ele>
<time>2011-04-28T03:55:19Z</time>
<desc>lat.=22.153372, lon.=104.613525, Alt.=146.298950m. Speed=0.036000m/h.</desc>
<speed>0.010000</speed>
</trkpt>
<trkpt lat="22.153372" lon="104.613525">
<ele>146.267700</ele>
<time>2011-04-28T03:55:24Z</time>
<desc>lat.=22.153372, lon.=104.613525, Alt.=146.267700m. Speed=0.036000m/h.</desc>
<speed>0.010000</speed>
</trkpt>
<trkpt lat="22.153372" lon="104.613525">
<ele>146.232544</ele>
<time>2011-04-28T03:55:29Z</time>
<desc>lat.=22.153372, lon.=104.613525, Alt.=146.232544m. Speed=0.036000m/h.</desc>
<speed>0.010000</speed>
</trkpt>
<trkpt lat="22.153372" lon="104.613525">
<ele>146.170044</ele>
<time>2011-04-28T03:55:34Z</time>
<desc>lat.=22.153372, lon.=104.613525, Alt.=146.170044m. Speed=0.000000m/h.</desc>
<speed>0.000000</speed>
</trkpt>
<trkpt lat="22.153372" lon="104.613525">
<ele>146.084106</ele>
<time>2011-04-28T03:55:39Z</time>
<desc>lat.=22.153372, lon.=104.613525, Alt.=146.084106m. Speed=0.036000m/h.</desc>
<speed>0.010000</speed>
</trkpt>
<trkpt lat="22.153372" lon="104.613525">
<ele>146.060669</ele>
<time>2011-04-28T03:55:44Z</time>
<desc>lat.=22.153372, lon.=104.613525, Alt.=146.060669m. Speed=0.000000m/h.</desc>
<speed>0.000000</speed>
</trkpt>
<trkpt lat="22.153372" lon="104.613525">
<ele>146.123169</ele>
<time>2011-04-28T03:55:49Z</time>
<desc>lat.=22.153372, lon.=104.613525, Alt.=146.123169m. Speed=0.072000m/h.</desc>
<speed>0.020000</speed>
</trkpt>
<trkpt lat="22.153372" lon="104.613525">
<ele>146.287231</ele>
<time>2011-04-28T03:55:54Z</time>
<desc>lat.=22.153372, lon.=104.613525, Alt.=146.287231m. Speed=0.036000m/h.</desc>
<speed>0.010000</speed>
</trkpt>
<trkpt lat="22.153372" lon="104.613525">
<ele>146.338013</ele>
<time>2011-04-28T03:55:59Z</time>
<desc>lat.=22.153372, lon.=104.613525, Alt.=146.338013m. Speed=0.000000m/h.</desc>
<speed>0.000000</speed>
</trkpt>
<trkpt lat="22.153372" lon="104.613525">
<ele>146.349731</ele>
<time>2011-04-28T03:56:04Z</time>
<desc>lat.=22.153372, lon.=104.613525, Alt.=146.349731m. Speed=0.000000m/h.</desc>
<speed>0.000000</speed>
</trkpt>
<trkpt lat="22.153372" lon="104.613525">
<ele>146.345825</ele>
<time>2011-04-28T03:56:09Z</time>
<desc>lat.=22.153372, lon.=104.613525, Alt.=146.345825m. Speed=0.000000m/h.</desc>
<speed>0.000000</speed>
</trkpt>
<trkpt lat="22.153372" lon="104.613525">
<ele>146.369263</ele>
<time>2011-04-28T03:56:14Z</time>
<desc>lat.=22.153372, lon.=104.613525, Alt.=146.369263m. Speed=0.036000m/h.</desc>
<speed>0.010000</speed>
</trkpt>
<trkpt lat="22.153372" lon="104.613525">
<ele>146.392700</ele>
<time>2011-04-28T03:56:19Z</time>
<desc>lat.=22.153372, lon.=104.613525, Alt.=146.392700m. Speed=0.000000m/h.</desc>
<speed>0.000000</speed>
</trkpt>
<trkpt lat="22.153372" lon="104.613525">
<ele>146.384888</ele>
<time>2011-04-28T03:56:24Z</time>
<desc>lat.=22.153372, lon.=104.613525, Alt.=146.384888m. Speed=0.036000m/h.</desc>
<speed>0.010000</speed>
</trkpt>
<trkpt lat="22.153372" lon="104.613525">
<ele>146.412231</ele>
<time>2011-04-28T03:56:29Z</time>
<desc>lat.=22.153372, lon.=104.613525, Alt.=146.412231m. Speed=0.072000m/h.</desc>
<speed>0.020000</speed>
</trkpt>
<trkpt lat="22.153370" lon="104.613525">
<ele>146.423950</ele>
<time>2011-04-28T03:56:34Z</time>
<desc>lat.=22.153370, lon.=104.613525, Alt.=146.423950m. Speed=0.108000m/h.</desc>
<speed>0.030000</speed>
</trkpt>
<trkpt lat="22.153370" lon="104.613533">
<ele>146.416138</ele>
<time>2011-04-28T03:56:39Z</time>
<desc>lat.=22.153370, lon.=104.613533, Alt.=146.416138m. Speed=0.684000m/h.</desc>
<speed>0.190000</speed>
</trkpt>
<trkpt lat="22.153366" lon="104.613541">
<ele>146.423950</ele>
<time>2011-04-28T03:56:44Z</time>
<desc>lat.=22.153366, lon.=104.613541, Alt.=146.423950m. Speed=0.144000m/h.</desc>
<speed>0.040000</speed>
</trkpt>
<trkpt lat="22.153366" lon="104.613541">
<ele>146.474731</ele>
<time>2011-04-28T03:56:49Z</time>
<desc>lat.=22.153366, lon.=104.613541, Alt.=146.474731m. Speed=0.144000m/h.</desc>
<speed>0.040000</speed>
</trkpt>
<trkpt lat="22.153364" lon="104.613548">
<ele>146.505981</ele>
<time>2011-04-28T03:56:54Z</time>
<desc>lat.=22.153364, lon.=104.613548, Alt.=146.505981m. Speed=1.008000m/h.</desc>
<speed>0.280000</speed>
</trkpt>
<trkpt lat="22.153278" lon="104.613663">
<ele>144.892700</ele>
<time>2011-04-28T03:56:59Z</time>
<desc>lat.=22.153278, lon.=104.613663, Alt.=144.892700m. Speed=16.271999m/h.</desc>
<speed>4.520000</speed>
</trkpt>
<trkpt lat="22.153164" lon="104.613930">
<ele>142.713013</ele>
<time>2011-04-28T03:57:04Z</time>
<desc>lat.=22.153164, lon.=104.613930, Alt.=142.713013m. Speed=22.068001m/h.</desc>
<speed>6.130000</speed>
</trkpt>
<trkpt lat="22.153078" lon="104.614288">
<ele>138.935669</ele>
<time>2011-04-28T03:57:09Z</time>
<desc>lat.=22.153078, lon.=104.614288, Alt.=138.935669m. Speed=27.756001m/h.</desc>
<speed>7.710000</speed>
</trkpt>
<trkpt lat="22.152975" lon="104.614632">
<ele>136.642700</ele>
<time>2011-04-28T03:57:14Z</time>
<desc>lat.=22.152975, lon.=104.614632, Alt.=136.642700m. Speed=27.864000m/h.</desc>
<speed>7.740000</speed>
</trkpt>
<trkpt lat="22.152643" lon="104.614929">
<ele>139.220825</ele>
<time>2011-04-28T03:57:19Z</time>
<desc>lat.=22.152643, lon.=104.614929, Alt.=139.220825m. Speed=30.059999m/h.</desc>
<speed>8.350000</speed>
</trkpt>
<trkpt lat="22.152294" lon="104.615135">
<ele>138.877075</ele>
<time>2011-04-28T03:57:24Z</time>
<desc>lat.=22.152294, lon.=104.615135, Alt.=138.877075m. Speed=31.680000m/h.</desc>
<speed>8.800000</speed>
</trkpt>
<trkpt lat="22.151991" lon="104.615311">
<ele>138.822388</ele>
<time>2011-04-28T03:57:29Z</time>
<desc>lat.=22.151991, lon.=104.615311, Alt.=138.822388m. Speed=21.132000m/h.</desc>
<speed>5.870000</speed>
</trkpt>
<trkpt lat="22.151773" lon="104.615364">
<ele>137.494263</ele>
<time>2011-04-28T03:57:34Z</time>
<desc>lat.=22.151773, lon.=104.615364, Alt.=137.494263m. Speed=10.332000m/h.</desc>
<speed>2.870000</speed>
</trkpt>
<trkpt lat="22.151506" lon="104.615433">
<ele>134.935669</ele>
<time>2011-04-28T03:57:39Z</time>
<desc>lat.=22.151506, lon.=104.615433, Alt.=134.935669m. Speed=19.296000m/h.</desc>
<speed>5.360000</speed>
</trkpt>
<trkpt lat="22.151247" lon="104.615616">
<ele>134.158325</ele>
<time>2011-04-28T03:57:44Z</time>
<desc>lat.=22.151247, lon.=104.615616, Alt.=134.158325m. Speed=22.356001m/h.</desc>
<speed>6.210000</speed>
</trkpt>
<trkpt lat="22.151133" lon="104.615898">
<ele>130.541138</ele>
<time>2011-04-28T03:57:49Z</time>
<desc>lat.=22.151133, lon.=104.615898, Alt.=130.541138m. Speed=21.024000m/h.</desc>
<speed>5.840000</speed>
</trkpt>
<trkpt lat="22.151009" lon="104.616203">
<ele>129.646606</ele>
<time>2011-04-28T03:57:54Z</time>
<desc>lat.=22.151009, lon.=104.616203, Alt.=129.646606m. Speed=26.351999m/h.</desc>
<speed>7.320000</speed>
</trkpt>
<trkpt lat="22.150702" lon="104.616501">
<ele>127.708069</ele>
<time>2011-04-28T03:57:59Z</time>
<desc>lat.=22.150702, lon.=104.616501, Alt.=127.708069m. Speed=32.507999m/h.</desc>
<speed>9.030000</speed>
</trkpt>
<trkpt lat="22.150440" lon="104.616737">
<ele>126.983459</ele>
<time>2011-04-28T03:58:04Z</time>
<desc>lat.=22.150440, lon.=104.616737, Alt.=126.983459m. Speed=26.964001m/h.</desc>
<speed>7.490000</speed>
</trkpt>
<trkpt lat="22.150335" lon="104.617088">
<ele>125.758850</ele>
<time>2011-04-28T03:58:09Z</time>
<desc>lat.=22.150335, lon.=104.617088, Alt.=125.758850m. Speed=29.016001m/h.</desc>
<speed>8.060000</speed>
</trkpt>
<trkpt lat="22.150402" lon="104.617500">
<ele>124.042053</ele>
<time>2011-04-28T03:58:14Z</time>
<desc>lat.=22.150402, lon.=104.617500, Alt.=124.042053m. Speed=28.656000m/h.</desc>
<speed>7.960000</speed>
</trkpt>
<trkpt lat="22.150457" lon="104.617935">
<ele>122.856506</ele>
<time>2011-04-28T03:58:19Z</time>
<desc>lat.=22.150457, lon.=104.617935, Alt.=122.856506m. Speed=29.304001m/h.</desc>
<speed>8.140000</speed>
</trkpt>
<trkpt lat="22.150442" lon="104.618370">
<ele>122.264709</ele>
<time>2011-04-28T03:58:24Z</time>
<desc>lat.=22.150442, lon.=104.618370, Alt.=122.264709m. Speed=28.260000m/h.</desc>
<speed>7.850000</speed>
</trkpt>
<trkpt lat="22.150341" lon="104.618782">
<ele>121.393616</ele>
<time>2011-04-28T03:58:29Z</time>
<desc>lat.=22.150341, lon.=104.618782, Alt.=121.393616m. Speed=30.636000m/h.</desc>
<speed>8.510000</speed>
</trkpt>
<trkpt lat="22.150190" lon="104.619171">
<ele>120.782288</ele>
<time>2011-04-28T03:58:34Z</time>
<desc>lat.=22.150190, lon.=104.619171, Alt.=120.782288m. Speed=29.664000m/h.</desc>
<speed>8.240000</speed>
</trkpt>
<trkpt lat="22.149965" lon="104.619522">
<ele>118.436584</ele>
<time>2011-04-28T03:58:39Z</time>
<desc>lat.=22.149965, lon.=104.619522, Alt.=118.436584m. Speed=32.903999m/h.</desc>
<speed>9.140000</speed>
</trkpt>
<trkpt lat="22.149673" lon="104.619797">
<ele>116.950256</ele>
<time>2011-04-28T03:58:44Z</time>
<desc>lat.=22.149673, lon.=104.619797, Alt.=116.950256m. Speed=29.628000m/h.</desc>
<speed>8.230000</speed>
</trkpt>
<trkpt lat="22.149422" lon="104.620110">
<ele>115.372131</ele>
<time>2011-04-28T03:58:49Z</time>
<desc>lat.=22.149422, lon.=104.620110, Alt.=115.372131m. Speed=29.844000m/h.</desc>
<speed>8.290000</speed>
</trkpt>
<trkpt lat="22.149233" lon="104.620476">
<ele>114.368225</ele>
<time>2011-04-28T03:58:54Z</time>
<desc>lat.=22.149233, lon.=104.620476, Alt.=114.368225m. Speed=28.152000m/h.</desc>
<speed>7.820000</speed>
</trkpt>
<trkpt lat="22.149105" lon="104.620865">
<ele>112.758850</ele>
<time>2011-04-28T03:58:59Z</time>
<desc>lat.=22.149105, lon.=104.620865, Alt.=112.758850m. Speed=28.836000m/h.</desc>
<speed>8.010000</speed>
</trkpt>
<trkpt lat="22.148911" lon="104.621208">
<ele>111.661194</ele>
<time>2011-04-28T03:59:04Z</time>
<desc>lat.=22.148911, lon.=104.621208, Alt.=111.661194m. Speed=28.511999m/h.</desc>
<speed>7.920000</speed>
</trkpt>
<trkpt lat="22.148705" lon="104.621552">
<ele>110.192444</ele>
<time>2011-04-28T03:59:09Z</time>
<desc>lat.=22.148705, lon.=104.621552, Alt.=110.192444m. Speed=29.591999m/h.</desc>
<speed>8.220000</speed>
</trkpt>
<trkpt lat="22.148489" lon="104.621864">
<ele>108.528381</ele>
<time>2011-04-28T03:59:14Z</time>
<desc>lat.=22.148489, lon.=104.621864, Alt.=108.528381m. Speed=28.511999m/h.</desc>
<speed>7.920000</speed>
</trkpt>
<trkpt lat="22.148314" lon="104.622108">
<ele>107.551819</ele>
<time>2011-04-28T03:59:19Z</time>
<desc>lat.=22.148314, lon.=104.622108, Alt.=107.551819m. Speed=20.844000m/h.</desc>
<speed>5.790000</speed>
</trkpt>
<trkpt lat="22.148092" lon="104.622314">
<ele>109.434631</ele>
<time>2011-04-28T03:59:24Z</time>
<desc>lat.=22.148092, lon.=104.622314, Alt.=109.434631m. Speed=15.912000m/h.</desc>
<speed>4.420000</speed>
</trkpt>
<trkpt lat="22.147915" lon="104.622437">
<ele>109.754944</ele>
<time>2011-04-28T03:59:29Z</time>
<desc>lat.=22.147915, lon.=104.622437, Alt.=109.754944m. Speed=15.984000m/h.</desc>
<speed>4.440000</speed>
</trkpt>
<trkpt lat="22.147745" lon="104.622528">
<ele>108.434631</ele>
<time>2011-04-28T03:59:34Z</time>
<desc>lat.=22.147745, lon.=104.622528, Alt.=108.434631m. Speed=12.600000m/h.</desc>
<speed>3.500000</speed>
</trkpt>
<trkpt lat="22.147577" lon="104.622643">
<ele>107.596741</ele>
<time>2011-04-28T03:59:39Z</time>
<desc>lat.=22.147577, lon.=104.622643, Alt.=107.596741m. Speed=10.800000m/h.</desc>
<speed>3.000000</speed>
</trkpt>
<trkpt lat="22.147392" lon="104.622742">
<ele>105.997131</ele>
<time>2011-04-28T03:59:44Z</time>
<desc>lat.=22.147392, lon.=104.622742, Alt.=105.997131m. Speed=15.192000m/h.</desc>
<speed>4.220000</speed>
</trkpt>
<trkpt lat="22.147221" lon="104.622894">
<ele>103.942444</ele>
<time>2011-04-28T03:59:49Z</time>
<desc>lat.=22.147221, lon.=104.622894, Alt.=103.942444m. Speed=16.164000m/h.</desc>
<speed>4.490000</speed>
</trkpt>
<trkpt lat="22.147142" lon="104.623093">
<ele>102.274475</ele>
<time>2011-04-28T03:59:54Z</time>
<desc>lat.=22.147142, lon.=104.623093, Alt.=102.274475m. Speed=15.264000m/h.</desc>
<speed>4.240000</speed>
</trkpt>
<trkpt lat="22.147057" lon="104.623367">
<ele>100.444397</ele>
<time>2011-04-28T03:59:59Z</time>
<desc>lat.=22.147057, lon.=104.623367, Alt.=100.444397m. Speed=24.011999m/h.</desc>
<speed>6.670000</speed>
</trkpt>
<trkpt lat="22.146788" lon="104.623596">
<ele>102.215881</ele>
<time>2011-04-28T04:00:04Z</time>
<desc>lat.=22.146788, lon.=104.623596, Alt.=102.215881m. Speed=23.940001m/h.</desc>
<speed>6.650000</speed>
</trkpt>
<trkpt lat="22.146538" lon="104.623802">
<ele>99.794006</ele>
<time>2011-04-28T04:00:09Z</time>
<desc>lat.=22.146538, lon.=104.623802, Alt.=99.794006m. Speed=24.516001m/h.</desc>
<speed>6.810000</speed>
</trkpt>
<trkpt lat="22.146418" lon="104.624138">
<ele>99.219788</ele>
<time>2011-04-28T04:00:14Z</time>
<desc>lat.=22.146418, lon.=104.624138, Alt.=99.219788m. Speed=25.308001m/h.</desc>
<speed>7.030000</speed>
</trkpt>
<trkpt lat="22.146210" lon="104.624435">
<ele>98.108459</ele>
<time>2011-04-28T04:00:19Z</time>
<desc>lat.=22.146210, lon.=104.624435, Alt.=98.108459m. Speed=24.768000m/h.</desc>
<speed>6.880000</speed>
</trkpt>
<trkpt lat="22.145990" lon="104.624680">
<ele>98.309631</ele>
<time>2011-04-28T04:00:24Z</time>
<desc>lat.=22.145990, lon.=104.624680, Alt.=98.309631m. Speed=19.764000m/h.</desc>
<speed>5.490000</speed>
</trkpt>
<trkpt lat="22.145826" lon="104.624901">
<ele>98.225647</ele>
<time>2011-04-28T04:00:29Z</time>
<desc>lat.=22.145826, lon.=104.624901, Alt.=98.225647m. Speed=18.504000m/h.</desc>
<speed>5.140000</speed>
</trkpt>
<trkpt lat="22.145653" lon="104.625061">
<ele>98.862366</ele>
<time>2011-04-28T04:00:34Z</time>
<desc>lat.=22.145653, lon.=104.625061, Alt.=98.862366m. Speed=15.048000m/h.</desc>
<speed>4.180000</speed>
</trkpt>
<trkpt lat="22.145521" lon="104.625175">
<ele>98.717834</ele>
<time>2011-04-28T04:00:39Z</time>
<desc>lat.=22.145521, lon.=104.625175, Alt.=98.717834m. Speed=13.644000m/h.</desc>
<speed>3.790000</speed>
</trkpt>
<trkpt lat="22.145361" lon="104.625298">
<ele>98.040100</ele>
<time>2011-04-28T04:00:44Z</time>
<desc>lat.=22.145361, lon.=104.625298, Alt.=98.040100m. Speed=16.200001m/h.</desc>
<speed>4.500000</speed>
</trkpt>
<trkpt lat="22.145159" lon="104.625412">
<ele>97.436584</ele>
<time>2011-04-28T04:00:49Z</time>
<desc>lat.=22.145159, lon.=104.625412, Alt.=97.436584m. Speed=18.972000m/h.</desc>
<speed>5.270000</speed>
</trkpt>
<trkpt lat="22.144917" lon="104.625534">
<ele>96.522522</ele>
<time>2011-04-28T04:00:54Z</time>
<desc>lat.=22.144917, lon.=104.625534, Alt.=96.522522m. Speed=22.176001m/h.</desc>
<speed>6.160000</speed>
</trkpt>
<trkpt lat="22.144678" lon="104.625725">
<ele>96.065491</ele>
<time>2011-04-28T04:00:59Z</time>
<desc>lat.=22.144678, lon.=104.625725, Alt.=96.065491m. Speed=24.732000m/h.</desc>
<speed>6.870000</speed>
</trkpt>
<trkpt lat="22.144449" lon="104.625977">
<ele>95.169006</ele>
<time>2011-04-28T04:01:04Z</time>
<desc>lat.=22.144449, lon.=104.625977, Alt.=95.169006m. Speed=25.308001m/h.</desc>
<speed>7.030000</speed>
</trkpt>
<trkpt lat="22.144243" lon="104.626221">
<ele>94.393616</ele>
<time>2011-04-28T04:01:09Z</time>
<desc>lat.=22.144243, lon.=104.626221, Alt.=94.393616m. Speed=22.860001m/h.</desc>
<speed>6.350000</speed>
</trkpt>
<trkpt lat="22.144096" lon="104.626465">
<ele>93.399475</ele>
<time>2011-04-28T04:01:14Z</time>
<desc>lat.=22.144096, lon.=104.626465, Alt.=93.399475m. Speed=18.000000m/h.</desc>
<speed>5.000000</speed>
</trkpt>
<trkpt lat="22.144081" lon="104.626747">
<ele>93.112366</ele>
<time>2011-04-28T04:01:19Z</time>
<desc>lat.=22.144081, lon.=104.626747, Alt.=93.112366m. Speed=19.584000m/h.</desc>
<speed>5.440000</speed>
</trkpt>
<trkpt lat="22.143990" lon="104.627007">
<ele>92.596741</ele>
<time>2011-04-28T04:01:24Z</time>
<desc>lat.=22.143990, lon.=104.627007, Alt.=92.596741m. Speed=20.448000m/h.</desc>
<speed>5.680000</speed>
</trkpt>
<trkpt lat="22.143801" lon="104.627190">
<ele>93.071350</ele>
<time>2011-04-28T04:01:29Z</time>
<desc>lat.=22.143801, lon.=104.627190, Alt.=93.071350m. Speed=17.568001m/h.</desc>
<speed>4.880000</speed>
</trkpt>
<trkpt lat="22.143606" lon="104.627380">
<ele>94.286194</ele>
<time>2011-04-28T04:01:34Z</time>
<desc>lat.=22.143606, lon.=104.627380, Alt.=94.286194m. Speed=19.152000m/h.</desc>
<speed>5.320000</speed>
</trkpt>
<trkpt lat="22.143404" lon="104.627541">
<ele>93.510803</ele>
<time>2011-04-28T04:01:39Z</time>
<desc>lat.=22.143404, lon.=104.627541, Alt.=93.510803m. Speed=20.628000m/h.</desc>
<speed>5.730000</speed>
</trkpt>
<trkpt lat="22.143200" lon="104.627670">
<ele>94.129944</ele>
<time>2011-04-28T04:01:44Z</time>
<desc>lat.=22.143200, lon.=104.627670, Alt.=94.129944m. Speed=16.596001m/h.</desc>
<speed>4.610000</speed>
</trkpt>
<trkpt lat="22.142996" lon="104.627777">
<ele>93.997131</ele>
<time>2011-04-28T04:01:49Z</time>
<desc>lat.=22.142996, lon.=104.627777, Alt.=93.997131m. Speed=17.028000m/h.</desc>
<speed>4.730000</speed>
</trkpt>
<trkpt lat="22.142832" lon="104.627960">
<ele>93.577209</ele>
<time>2011-04-28T04:01:54Z</time>
<desc>lat.=22.142832, lon.=104.627960, Alt.=93.577209m. Speed=17.856001m/h.</desc>
<speed>4.960000</speed>
</trkpt>
<trkpt lat="22.142679" lon="104.628159">
<ele>92.127991</ele>
<time>2011-04-28T04:01:59Z</time>
<desc>lat.=22.142679, lon.=104.628159, Alt.=92.127991m. Speed=17.172001m/h.</desc>
<speed>4.770000</speed>
</trkpt>
<trkpt lat="22.142508" lon="104.628296">
<ele>91.893616</ele>
<time>2011-04-28T04:02:04Z</time>
<desc>lat.=22.142508, lon.=104.628296, Alt.=91.893616m. Speed=17.063999m/h.</desc>
<speed>4.740000</speed>
</trkpt>
<trkpt lat="22.142319" lon="104.628418">
<ele>92.389709</ele>
<time>2011-04-28T04:02:09Z</time>
<desc>lat.=22.142319, lon.=104.628418, Alt.=92.389709m. Speed=13.428000m/h.</desc>
<speed>3.730000</speed>
</trkpt>
<trkpt lat="22.142178" lon="104.628456">
<ele>92.549866</ele>
<time>2011-04-28T04:02:14Z</time>
<desc>lat.=22.142178, lon.=104.628456, Alt.=92.549866m. Speed=10.512000m/h.</desc>
<speed>2.920000</speed>
</trkpt>
<trkpt lat="22.141968" lon="104.628487">
<ele>93.368225</ele>
<time>2011-04-28T04:02:19Z</time>
<desc>lat.=22.141968, lon.=104.628487, Alt.=93.368225m. Speed=15.156000m/h.</desc>
<speed>4.210000</speed>
</trkpt>
<trkpt lat="22.141747" lon="104.628586">
<ele>93.895569</ele>
<time>2011-04-28T04:02:24Z</time>
<desc>lat.=22.141747, lon.=104.628586, Alt.=93.895569m. Speed=16.091999m/h.</desc>
<speed>4.470000</speed>
</trkpt>
<trkpt lat="22.141655" lon="104.628777">
<ele>94.292053</ele>
<time>2011-04-28T04:02:29Z</time>
<desc>lat.=22.141655, lon.=104.628777, Alt.=94.292053m. Speed=15.156000m/h.</desc>
<speed>4.210000</speed>
</trkpt>
<trkpt lat="22.141653" lon="104.628975">
<ele>93.879944</ele>
<time>2011-04-28T04:02:34Z</time>
<desc>lat.=22.141653, lon.=104.628975, Alt.=93.879944m. Speed=14.364000m/h.</desc>
<speed>3.990000</speed>
</trkpt>
<trkpt lat="22.141708" lon="104.629120">
<ele>93.225647</ele>
<time>2011-04-28T04:02:39Z</time>
<desc>lat.=22.141708, lon.=104.629120, Alt.=93.225647m. Speed=8.568000m/h.</desc>
<speed>2.380000</speed>
</trkpt>
<trkpt lat="22.141737" lon="104.629280">
<ele>92.233459</ele>
<time>2011-04-28T04:02:44Z</time>
<desc>lat.=22.141737, lon.=104.629280, Alt.=92.233459m. Speed=12.456000m/h.</desc>
<speed>3.460000</speed>
</trkpt>
<trkpt lat="22.141697" lon="104.629570">
<ele>91.663147</ele>
<time>2011-04-28T04:02:49Z</time>
<desc>lat.=22.141697, lon.=104.629570, Alt.=91.663147m. Speed=17.424000m/h.</desc>
<speed>4.840000</speed>
</trkpt>
<trkpt lat="22.141655" lon="104.629822">
<ele>90.458069</ele>
<time>2011-04-28T04:02:54Z</time>
<desc>lat.=22.141655, lon.=104.629822, Alt.=90.458069m. Speed=17.639999m/h.</desc>
<speed>4.900000</speed>
</trkpt>
<trkpt lat="22.141638" lon="104.630035">
<ele>88.790100</ele>
<time>2011-04-28T04:02:59Z</time>
<desc>lat.=22.141638, lon.=104.630035, Alt.=88.790100m. Speed=13.716000m/h.</desc>
<speed>3.810000</speed>
</trkpt>
<trkpt lat="22.141504" lon="104.630272">
<ele>87.004944</ele>
<time>2011-04-28T04:03:04Z</time>
<desc>lat.=22.141504, lon.=104.630272, Alt.=87.004944m. Speed=20.988001m/h.</desc>
<speed>5.830000</speed>
</trkpt>
<trkpt lat="22.141361" lon="104.630547">
<ele>86.141663</ele>
<time>2011-04-28T04:03:09Z</time>
<desc>lat.=22.141361, lon.=104.630547, Alt.=86.141663m. Speed=20.520000m/h.</desc>
<speed>5.700000</speed>
</trkpt>
<trkpt lat="22.141190" lon="104.630775">
<ele>85.559631</ele>
<time>2011-04-28T04:03:14Z</time>
<desc>lat.=22.141190, lon.=104.630775, Alt.=85.559631m. Speed=19.728001m/h.</desc>
<speed>5.480000</speed>
</trkpt>
<trkpt lat="22.140997" lon="104.630981">
<ele>86.434631</ele>
<time>2011-04-28T04:03:19Z</time>
<desc>lat.=22.140997, lon.=104.630981, Alt.=86.434631m. Speed=16.200001m/h.</desc>
<speed>4.500000</speed>
</trkpt>
<trkpt lat="22.140827" lon="104.631096">
<ele>86.792053</ele>
<time>2011-04-28T04:03:24Z</time>
<desc>lat.=22.140827, lon.=104.631096, Alt.=86.792053m. Speed=14.544000m/h.</desc>
<speed>4.040000</speed>
</trkpt>
<trkpt lat="22.140654" lon="104.631187">
<ele>87.424866</ele>
<time>2011-04-28T04:03:29Z</time>
<desc>lat.=22.140654, lon.=104.631187, Alt.=87.424866m. Speed=13.284000m/h.</desc>
<speed>3.690000</speed>
</trkpt>
<trkpt lat="22.140482" lon="104.631271">
<ele>87.739319</ele>
<time>2011-04-28T04:03:34Z</time>
<desc>lat.=22.140482, lon.=104.631271, Alt.=87.739319m. Speed=12.528000m/h.</desc>
<speed>3.480000</speed>
</trkpt>
<trkpt lat="22.140306" lon="104.631355">
<ele>87.864319</ele>
<time>2011-04-28T04:03:39Z</time>
<desc>lat.=22.140306, lon.=104.631355, Alt.=87.864319m. Speed=14.472000m/h.</desc>
<speed>4.020000</speed>
</trkpt>
<trkpt lat="22.140121" lon="104.631454">
<ele>87.866272</ele>
<time>2011-04-28T04:03:44Z</time>
<desc>lat.=22.140121, lon.=104.631454, Alt.=87.866272m. Speed=16.128000m/h.</desc>
<speed>4.480000</speed>
</trkpt>
<trkpt lat="22.139919" lon="104.631592">
<ele>88.153381</ele>
<time>2011-04-28T04:03:49Z</time>
<desc>lat.=22.139919, lon.=104.631592, Alt.=88.153381m. Speed=16.992001m/h.</desc>
<speed>4.720000</speed>
</trkpt>
<trkpt lat="22.139727" lon="104.631668">
<ele>89.020569</ele>
<time>2011-04-28T04:03:54Z</time>
<desc>lat.=22.139727, lon.=104.631668, Alt.=89.020569m. Speed=15.228000m/h.</desc>
<speed>4.230000</speed>
</trkpt>
<trkpt lat="22.139563" lon="104.631813">
<ele>88.745178</ele>
<time>2011-04-28T04:03:59Z</time>
<desc>lat.=22.139563, lon.=104.631813, Alt.=88.745178m. Speed=13.032000m/h.</desc>
<speed>3.620000</speed>
</trkpt>
<trkpt lat="22.139435" lon="104.631966">
<ele>86.497131</ele>
<time>2011-04-28T04:04:04Z</time>
<desc>lat.=22.139435, lon.=104.631966, Alt.=86.497131m. Speed=16.416000m/h.</desc>
<speed>4.560000</speed>
</trkpt>
<trkpt lat="22.139297" lon="104.632133">
<ele>85.948303</ele>
<time>2011-04-28T04:04:09Z</time>
<desc>lat.=22.139297, lon.=104.632133, Alt.=85.948303m. Speed=15.228000m/h.</desc>
<speed>4.230000</speed>
</trkpt>
<trkpt lat="22.139114" lon="104.632240">
<ele>86.085022</ele>
<time>2011-04-28T04:04:14Z</time>
<desc>lat.=22.139114, lon.=104.632240, Alt.=86.085022m. Speed=15.264000m/h.</desc>
<speed>4.240000</speed>
</trkpt>
<trkpt lat="22.138960" lon="104.632378">
<ele>87.876038</ele>
<time>2011-04-28T04:04:19Z</time>
<desc>lat.=22.138960, lon.=104.632378, Alt.=87.876038m. Speed=14.400000m/h.</desc>
<speed>4.000000</speed>
</trkpt>
<trkpt lat="22.138809" lon="104.632469">
<ele>86.139709</ele>
<time>2011-04-28T04:04:24Z</time>
<desc>lat.=22.138809, lon.=104.632469, Alt.=86.139709m. Speed=13.896000m/h.</desc>
<speed>3.860000</speed>
</trkpt>
<trkpt lat="22.138653" lon="104.632561">
<ele>86.110413</ele>
<time>2011-04-28T04:04:29Z</time>
<desc>lat.=22.138653, lon.=104.632561, Alt.=86.110413m. Speed=13.176000m/h.</desc>
<speed>3.660000</speed>
</trkpt>
<trkpt lat="22.138544" lon="104.632683">
<ele>85.858459</ele>
<time>2011-04-28T04:04:34Z</time>
<desc>lat.=22.138544, lon.=104.632683, Alt.=85.858459m. Speed=11.916000m/h.</desc>
<speed>3.310000</speed>
</trkpt>
<trkpt lat="22.138496" lon="104.632820">
<ele>86.430725</ele>
<time>2011-04-28T04:04:39Z</time>
<desc>lat.=22.138496, lon.=104.632820, Alt.=86.430725m. Speed=7.164000m/h.</desc>
<speed>1.990000</speed>
</trkpt>
<trkpt lat="22.138479" lon="104.632843">
<ele>86.426819</ele>
<time>2011-04-28T04:04:44Z</time>
<desc>lat.=22.138479, lon.=104.632843, Alt.=86.426819m. Speed=0.648000m/h.</desc>
<speed>0.180000</speed>
</trkpt>
<trkpt lat="22.138483" lon="104.632851">
<ele>86.610413</ele>
<time>2011-04-28T04:04:49Z</time>
<desc>lat.=22.138483, lon.=104.632851, Alt.=86.610413m. Speed=0.360000m/h.</desc>
<speed>0.100000</speed>
</trkpt>
<trkpt lat="22.138483" lon="104.632851">
<ele>86.649475</ele>
<time>2011-04-28T04:04:54Z</time>
<desc>lat.=22.138483, lon.=104.632851, Alt.=86.649475m. Speed=0.036000m/h.</desc>
<speed>0.010000</speed>
</trkpt>
<trkpt lat="22.138487" lon="104.632851">
<ele>86.665100</ele>
<time>2011-04-28T04:04:59Z</time>
<desc>lat.=22.138487, lon.=104.632851, Alt.=86.665100m. Speed=0.396000m/h.</desc>
<speed>0.110000</speed>
</trkpt>
<trkpt lat="22.138489" lon="104.632858">
<ele>86.690491</ele>
<time>2011-04-28T04:05:04Z</time>
<desc>lat.=22.138489, lon.=104.632858, Alt.=86.690491m. Speed=0.144000m/h.</desc>
<speed>0.040000</speed>
</trkpt>
<trkpt lat="22.138489" lon="104.632858">
<ele>86.692444</ele>
<time>2011-04-28T04:05:09Z</time>
<desc>lat.=22.138489, lon.=104.632858, Alt.=86.692444m. Speed=0.432000m/h.</desc>
<speed>0.120000</speed>
</trkpt>
<trkpt lat="22.138485" lon="104.632851">
<ele>86.678772</ele>
<time>2011-04-28T04:05:14Z</time>
<desc>lat.=22.138485, lon.=104.632851, Alt.=86.678772m. Speed=0.540000m/h.</desc>
<speed>0.150000</speed>
</trkpt>
<trkpt lat="22.138487" lon="104.632858">
<ele>86.690491</ele>
<time>2011-04-28T04:05:19Z</time>
<desc>lat.=22.138487, lon.=104.632858, Alt.=86.690491m. Speed=0.576000m/h.</desc>
<speed>0.160000</speed>
</trkpt>
<trkpt lat="22.138489" lon="104.632866">
<ele>86.702209</ele>
<time>2011-04-28T04:05:24Z</time>
<desc>lat.=22.138489, lon.=104.632866, Alt.=86.702209m. Speed=0.612000m/h.</desc>
<speed>0.170000</speed>
</trkpt>
<trkpt lat="22.138494" lon="104.632874">
<ele>86.727600</ele>
<time>2011-04-28T04:05:29Z</time>
<desc>lat.=22.138494, lon.=104.632874, Alt.=86.727600m. Speed=0.360000m/h.</desc>
<speed>0.100000</speed>
</trkpt>
<trkpt lat="22.138494" lon="104.632881">
<ele>86.751038</ele>
<time>2011-04-28T04:05:34Z</time>
<desc>lat.=22.138494, lon.=104.632881, Alt.=86.751038m. Speed=0.684000m/h.</desc>
<speed>0.190000</speed>
</trkpt>
<trkpt lat="22.138487" lon="104.632874">
<ele>86.766663</ele>
<time>2011-04-28T04:05:39Z</time>
<desc>lat.=22.138487, lon.=104.632874, Alt.=86.766663m. Speed=0.396000m/h.</desc>
<speed>0.110000</speed>
</trkpt>
<trkpt lat="22.138487" lon="104.632874">
<ele>86.754944</ele>
<time>2011-04-28T04:05:44Z</time>
<desc>lat.=22.138487, lon.=104.632874, Alt.=86.754944m. Speed=0.108000m/h.</desc>
<speed>0.030000</speed>
</trkpt>
<trkpt lat="22.138487" lon="104.632874">
<ele>86.717834</ele>
<time>2011-04-28T04:05:49Z</time>
<desc>lat.=22.138487, lon.=104.632874, Alt.=86.717834m. Speed=0.252000m/h.</desc>
<speed>0.070000</speed>
</trkpt>
<trkpt lat="22.138491" lon="104.632866">
<ele>86.696350</ele>
<time>2011-04-28T04:05:54Z</time>
<desc>lat.=22.138491, lon.=104.632866, Alt.=86.696350m. Speed=0.252000m/h.</desc>
<speed>0.070000</speed>
</trkpt>
<trkpt lat="22.138493" lon="104.632866">
<ele>86.708069</ele>
<time>2011-04-28T04:05:59Z</time>
<desc>lat.=22.138493, lon.=104.632866, Alt.=86.708069m. Speed=0.108000m/h.</desc>
<speed>0.030000</speed>
</trkpt>
<trkpt lat="22.138494" lon="104.632874">
<ele>86.731506</ele>
<time>2011-04-28T04:06:04Z</time>
<desc>lat.=22.138494, lon.=104.632874, Alt.=86.731506m. Speed=0.324000m/h.</desc>
<speed>0.090000</speed>
</trkpt>
<trkpt lat="22.138498" lon="104.632874">
<ele>86.739319</ele>
<time>2011-04-28T04:06:09Z</time>
<desc>lat.=22.138498, lon.=104.632874, Alt.=86.739319m. Speed=0.180000m/h.</desc>
<speed>0.050000</speed>
</trkpt>
<trkpt lat="22.138494" lon="104.632866">
<ele>86.756897</ele>
<time>2011-04-28T04:06:14Z</time>
<desc>lat.=22.138494, lon.=104.632866, Alt.=86.756897m. Speed=0.360000m/h.</desc>
<speed>0.100000</speed>
</trkpt>
<trkpt lat="22.138493" lon="104.632866">
<ele>86.780334</ele>
<time>2011-04-28T04:06:19Z</time>
<desc>lat.=22.138493, lon.=104.632866, Alt.=86.780334m. Speed=0.324000m/h.</desc>
<speed>0.090000</speed>
</trkpt>
<trkpt lat="22.138494" lon="104.632866">
<ele>86.811584</ele>
<time>2011-04-28T04:06:24Z</time>
<desc>lat.=22.138494, lon.=104.632866, Alt.=86.811584m. Speed=0.504000m/h.</desc>
<speed>0.140000</speed>
</trkpt>
<trkpt lat="22.138498" lon="104.632866">
<ele>86.852600</ele>
<time>2011-04-28T04:06:29Z</time>
<desc>lat.=22.138498, lon.=104.632866, Alt.=86.852600m. Speed=0.108000m/h.</desc>
<speed>0.030000</speed>
</trkpt>
<trkpt lat="22.138498" lon="104.632866">
<ele>86.870178</ele>
<time>2011-04-28T04:06:34Z</time>
<desc>lat.=22.138498, lon.=104.632866, Alt.=86.870178m. Speed=0.360000m/h.</desc>
<speed>0.100000</speed>
</trkpt>
<trkpt lat="22.138502" lon="104.632866">
<ele>86.897522</ele>
<time>2011-04-28T04:06:39Z</time>
<desc>lat.=22.138502, lon.=104.632866, Alt.=86.897522m. Speed=0.180000m/h.</desc>
<speed>0.050000</speed>
</trkpt>
<trkpt lat="22.138504" lon="104.632858">
<ele>86.907288</ele>
<time>2011-04-28T04:06:44Z</time>
<desc>lat.=22.138504, lon.=104.632858, Alt.=86.907288m. Speed=0.324000m/h.</desc>
<speed>0.090000</speed>
</trkpt>
<trkpt lat="22.138504" lon="104.632866">
<ele>86.866272</ele>
<time>2011-04-28T04:06:49Z</time>
<desc>lat.=22.138504, lon.=104.632866, Alt.=86.866272m. Speed=0.036000m/h.</desc>
<speed>0.010000</speed>
</trkpt>
<trkpt lat="22.138504" lon="104.632866">
<ele>86.831116</ele>
<time>2011-04-28T04:06:54Z</time>
<desc>lat.=22.138504, lon.=104.632866, Alt.=86.831116m. Speed=0.324000m/h.</desc>
<speed>0.090000</speed>
</trkpt>
<trkpt lat="22.138506" lon="104.632866">
<ele>86.770569</ele>
<time>2011-04-28T04:06:59Z</time>
<desc>lat.=22.138506, lon.=104.632866, Alt.=86.770569m. Speed=0.216000m/h.</desc>
<speed>0.060000</speed>
</trkpt>
<trkpt lat="22.138504" lon="104.632874">
<ele>86.678772</ele>
<time>2011-04-28T04:07:04Z</time>
<desc>lat.=22.138504, lon.=104.632874, Alt.=86.678772m. Speed=0.216000m/h.</desc>
<speed>0.060000</speed>
</trkpt>
<trkpt lat="22.138502" lon="104.632874">
<ele>86.559631</ele>
<time>2011-04-28T04:07:09Z</time>
<desc>lat.=22.138502, lon.=104.632874, Alt.=86.559631m. Speed=0.180000m/h.</desc>
<speed>0.050000</speed>
</trkpt>
<trkpt lat="22.138500" lon="104.632874">
<ele>86.424866</ele>
<time>2011-04-28T04:07:14Z</time>
<desc>lat.=22.138500, lon.=104.632874, Alt.=86.424866m. Speed=0.180000m/h.</desc>
<speed>0.050000</speed>
</trkpt>
<trkpt lat="22.138498" lon="104.632874">
<ele>86.264709</ele>
<time>2011-04-28T04:07:19Z</time>
<desc>lat.=22.138498, lon.=104.632874, Alt.=86.264709m. Speed=0.864000m/h.</desc>
<speed>0.240000</speed>
</trkpt>
<trkpt lat="22.138475" lon="104.632965">
<ele>85.813538</ele>
<time>2011-04-28T04:07:24Z</time>
<desc>lat.=22.138475, lon.=104.632965, Alt.=85.813538m. Speed=12.456000m/h.</desc>
<speed>3.460000</speed>
</trkpt>
<trkpt lat="22.138403" lon="104.633163">
<ele>85.463928</ele>
<time>2011-04-28T04:07:29Z</time>
<desc>lat.=22.138403, lon.=104.633163, Alt.=85.463928m. Speed=13.536000m/h.</desc>
<speed>3.760000</speed>
</trkpt>
<trkpt lat="22.138235" lon="104.633339">
<ele>85.528381</ele>
<time>2011-04-28T04:07:34Z</time>
<desc>lat.=22.138235, lon.=104.633339, Alt.=85.528381m. Speed=20.052000m/h.</desc>
<speed>5.570000</speed>
</trkpt>
<trkpt lat="22.137999" lon="104.633560">
<ele>87.338928</ele>
<time>2011-04-28T04:07:39Z</time>
<desc>lat.=22.137999, lon.=104.633560, Alt.=87.338928m. Speed=21.743999m/h.</desc>
<speed>6.040000</speed>
</trkpt>
<trkpt lat="22.137772" lon="104.633736">
<ele>86.836975</ele>
<time>2011-04-28T04:07:44Z</time>
<desc>lat.=22.137772, lon.=104.633736, Alt.=86.836975m. Speed=18.360001m/h.</desc>
<speed>5.100000</speed>
</trkpt>
<trkpt lat="22.137650" lon="104.633865">
<ele>88.661194</ele>
<time>2011-04-28T04:07:49Z</time>
<desc>lat.=22.137650, lon.=104.633865, Alt.=88.661194m. Speed=8.172000m/h.</desc>
<speed>2.270000</speed>
</trkpt>
<trkpt lat="22.137585" lon="104.634026">
<ele>89.772522</ele>
<time>2011-04-28T04:07:54Z</time>
<desc>lat.=22.137585, lon.=104.634026, Alt.=89.772522m. Speed=11.484000m/h.</desc>
<speed>3.190000</speed>
</trkpt>
<trkpt lat="22.137459" lon="104.634201">
<ele>89.547913</ele>
<time>2011-04-28T04:07:59Z</time>
<desc>lat.=22.137459, lon.=104.634201, Alt.=89.547913m. Speed=13.032000m/h.</desc>
<speed>3.620000</speed>
</trkpt>
<trkpt lat="22.137354" lon="104.634354">
<ele>89.510803</ele>
<time>2011-04-28T04:08:04Z</time>
<desc>lat.=22.137354, lon.=104.634354, Alt.=89.510803m. Speed=10.908000m/h.</desc>
<speed>3.030000</speed>
</trkpt>
<trkpt lat="22.137228" lon="104.634506">
<ele>89.889709</ele>
<time>2011-04-28T04:08:09Z</time>
<desc>lat.=22.137228, lon.=104.634506, Alt.=89.889709m. Speed=15.336000m/h.</desc>
<speed>4.260000</speed>
</trkpt>
<trkpt lat="22.137121" lon="104.634811">
<ele>90.762756</ele>
<time>2011-04-28T04:08:14Z</time>
<desc>lat.=22.137121, lon.=104.634811, Alt.=90.762756m. Speed=24.048000m/h.</desc>
<speed>6.680000</speed>
</trkpt>
<trkpt lat="22.136957" lon="104.635124">
<ele>91.840881</ele>
<time>2011-04-28T04:08:19Z</time>
<desc>lat.=22.136957, lon.=104.635124, Alt.=91.840881m. Speed=25.559999m/h.</desc>
<speed>7.100000</speed>
</trkpt>
<trkpt lat="22.136621" lon="104.635376">
<ele>92.510803</ele>
<time>2011-04-28T04:08:24Z</time>
<desc>lat.=22.136621, lon.=104.635376, Alt.=92.510803m. Speed=27.719999m/h.</desc>
<speed>7.700000</speed>
</trkpt>
<trkpt lat="22.136322" lon="104.635628">
<ele>91.870178</ele>
<time>2011-04-28T04:08:29Z</time>
<desc>lat.=22.136322, lon.=104.635628, Alt.=91.870178m. Speed=25.164000m/h.</desc>
<speed>6.990000</speed>
</trkpt>
<trkpt lat="22.136068" lon="104.635811">
<ele>92.514709</ele>
<time>2011-04-28T04:08:34Z</time>
<desc>lat.=22.136068, lon.=104.635811, Alt.=92.514709m. Speed=22.284000m/h.</desc>
<speed>6.190000</speed>
</trkpt>
<trkpt lat="22.135832" lon="104.636017">
<ele>94.901428</ele>
<time>2011-04-28T04:08:39Z</time>
<desc>lat.=22.135832, lon.=104.636017, Alt.=94.901428m. Speed=21.924000m/h.</desc>
<speed>6.090000</speed>
</trkpt>
<trkpt lat="22.135595" lon="104.636139">
<ele>95.688538</ele>
<time>2011-04-28T04:08:44Z</time>
<desc>lat.=22.135595, lon.=104.636139, Alt.=95.688538m. Speed=18.900000m/h.</desc>
<speed>5.250000</speed>
</trkpt>
<trkpt lat="22.135391" lon="104.636337">
<ele>95.247131</ele>
<time>2011-04-28T04:08:49Z</time>
<desc>lat.=22.135391, lon.=104.636337, Alt.=95.247131m. Speed=22.643999m/h.</desc>
<speed>6.290000</speed>
</trkpt>
<trkpt lat="22.135172" lon="104.636559">
<ele>95.465881</ele>
<time>2011-04-28T04:08:54Z</time>
<desc>lat.=22.135172, lon.=104.636559, Alt.=95.465881m. Speed=21.455999m/h.</desc>
<speed>5.960000</speed>
</trkpt>
<trkpt lat="22.134966" lon="104.636765">
<ele>95.877991</ele>
<time>2011-04-28T04:08:59Z</time>
<desc>lat.=22.134966, lon.=104.636765, Alt.=95.877991m. Speed=21.204000m/h.</desc>
<speed>5.890000</speed>
</trkpt>
<trkpt lat="22.134806" lon="104.636971">
<ele>96.282288</ele>
<time>2011-04-28T04:09:04Z</time>
<desc>lat.=22.134806, lon.=104.636971, Alt.=96.282288m. Speed=18.431999m/h.</desc>
<speed>5.120000</speed>
</trkpt>
<trkpt lat="22.134684" lon="104.637215">
<ele>95.631897</ele>
<time>2011-04-28T04:09:09Z</time>
<desc>lat.=22.134684, lon.=104.637215, Alt.=95.631897m. Speed=18.684000m/h.</desc>
<speed>5.190000</speed>
</trkpt>
<trkpt lat="22.134666" lon="104.637489">
<ele>95.151428</ele>
<time>2011-04-28T04:09:14Z</time>
<desc>lat.=22.134666, lon.=104.637489, Alt.=95.151428m. Speed=18.540001m/h.</desc>
<speed>5.150000</speed>
</trkpt>
<trkpt lat="22.134661" lon="104.637726">
<ele>94.192444</ele>
<time>2011-04-28T04:09:19Z</time>
<desc>lat.=22.134661, lon.=104.637726, Alt.=94.192444m. Speed=16.667999m/h.</desc>
<speed>4.630000</speed>
</trkpt>
<trkpt lat="22.134558" lon="104.637932">
<ele>93.278381</ele>
<time>2011-04-28T04:09:24Z</time>
<desc>lat.=22.134558, lon.=104.637932, Alt.=93.278381m. Speed=18.827999m/h.</desc>
<speed>5.230000</speed>
</trkpt>
<trkpt lat="22.134336" lon="104.638016">
<ele>90.454163</ele>
<time>2011-04-28T04:09:29Z</time>
<desc>lat.=22.134336, lon.=104.638016, Alt.=90.454163m. Speed=19.908001m/h.</desc>
<speed>5.530000</speed>
</trkpt>
<trkpt lat="22.134102" lon="104.638161">
<ele>90.645569</ele>
<time>2011-04-28T04:09:34Z</time>
<desc>lat.=22.134102, lon.=104.638161, Alt.=90.645569m. Speed=21.924000m/h.</desc>
<speed>6.090000</speed>
</trkpt>
<trkpt lat="22.133919" lon="104.638374">
<ele>90.760803</ele>
<time>2011-04-28T04:09:39Z</time>
<desc>lat.=22.133919, lon.=104.638374, Alt.=90.760803m. Speed=21.455999m/h.</desc>
<speed>5.960000</speed>
</trkpt>
<trkpt lat="22.133713" lon="104.638504">
<ele>90.602600</ele>
<time>2011-04-28T04:09:44Z</time>
<desc>lat.=22.133713, lon.=104.638504, Alt.=90.602600m. Speed=18.468000m/h.</desc>
<speed>5.130000</speed>
</trkpt>
<trkpt lat="22.133520" lon="104.638634">
<ele>90.528381</ele>
<time>2011-04-28T04:09:49Z</time>
<desc>lat.=22.133520, lon.=104.638634, Alt.=90.528381m. Speed=18.756001m/h.</desc>
<speed>5.210000</speed>
</trkpt>
<trkpt lat="22.133387" lon="104.638863">
<ele>87.901428</ele>
<time>2011-04-28T04:09:54Z</time>
<desc>lat.=22.133387, lon.=104.638863, Alt.=87.901428m. Speed=19.188000m/h.</desc>
<speed>5.330000</speed>
</trkpt>
<trkpt lat="22.133333" lon="104.639099">
<ele>84.833069</ele>
<time>2011-04-28T04:09:59Z</time>
<desc>lat.=22.133333, lon.=104.639099, Alt.=84.833069m. Speed=15.408000m/h.</desc>
<speed>4.280000</speed>
</trkpt>
<trkpt lat="22.133282" lon="104.639297">
<ele>83.024475</ele>
<time>2011-04-28T04:10:04Z</time>
<desc>lat.=22.133282, lon.=104.639297, Alt.=83.024475m. Speed=14.472000m/h.</desc>
<speed>4.020000</speed>
</trkpt>
<trkpt lat="22.133192" lon="104.639458">
<ele>83.952209</ele>
<time>2011-04-28T04:10:09Z</time>
<desc>lat.=22.133192, lon.=104.639458, Alt.=83.952209m. Speed=9.792000m/h.</desc>
<speed>2.720000</speed>
</trkpt>
<trkpt lat="22.133099" lon="104.639580">
<ele>84.081116</ele>
<time>2011-04-28T04:10:14Z</time>
<desc>lat.=22.133099, lon.=104.639580, Alt.=84.081116m. Speed=13.788000m/h.</desc>
<speed>3.830000</speed>
</trkpt>
<trkpt lat="22.132984" lon="104.639671">
<ele>83.428772</ele>
<time>2011-04-28T04:10:19Z</time>
<desc>lat.=22.132984, lon.=104.639671, Alt.=83.428772m. Speed=9.864000m/h.</desc>
<speed>2.740000</speed>
</trkpt>
<trkpt lat="22.132875" lon="104.639740">
<ele>82.889709</ele>
<time>2011-04-28T04:10:24Z</time>
<desc>lat.=22.132875, lon.=104.639740, Alt.=82.889709m. Speed=6.156000m/h.</desc>
<speed>1.710000</speed>
</trkpt>
<trkpt lat="22.132725" lon="104.639809">
<ele>81.526428</ele>
<time>2011-04-28T04:10:29Z</time>
<desc>lat.=22.132725, lon.=104.639809, Alt.=81.526428m. Speed=11.772000m/h.</desc>
<speed>3.270000</speed>
</trkpt>
<trkpt lat="22.132549" lon="104.639877">
<ele>81.501038</ele>
<time>2011-04-28T04:10:34Z</time>
<desc>lat.=22.132549, lon.=104.639877, Alt.=81.501038m. Speed=17.676001m/h.</desc>
<speed>4.910000</speed>
</trkpt>
<trkpt lat="22.132311" lon="104.640015">
<ele>78.725647</ele>
<time>2011-04-28T04:10:39Z</time>
<desc>lat.=22.132311, lon.=104.640015, Alt.=78.725647m. Speed=21.959999m/h.</desc>
<speed>6.100000</speed>
</trkpt>
<trkpt lat="22.132128" lon="104.640221">
<ele>78.276428</ele>
<time>2011-04-28T04:10:44Z</time>
<desc>lat.=22.132128, lon.=104.640221, Alt.=78.276428m. Speed=21.167999m/h.</desc>
<speed>5.880000</speed>
</trkpt>
<trkpt lat="22.132011" lon="104.640396">
<ele>79.303772</ele>
<time>2011-04-28T04:10:49Z</time>
<desc>lat.=22.132011, lon.=104.640396, Alt.=79.303772m. Speed=14.040000m/h.</desc>
<speed>3.900000</speed>
</trkpt>
<trkpt lat="22.131895" lon="104.640549">
<ele>80.274475</ele>
<time>2011-04-28T04:10:54Z</time>
<desc>lat.=22.131895, lon.=104.640549, Alt.=80.274475m. Speed=13.212000m/h.</desc>
<speed>3.670000</speed>
</trkpt>
<trkpt lat="22.131784" lon="104.640686">
<ele>80.928772</ele>
<time>2011-04-28T04:10:59Z</time>
<desc>lat.=22.131784, lon.=104.640686, Alt.=80.928772m. Speed=13.644000m/h.</desc>
<speed>3.790000</speed>
</trkpt>
<trkpt lat="22.131641" lon="104.640854">
<ele>83.223694</ele>
<time>2011-04-28T04:11:04Z</time>
<desc>lat.=22.131641, lon.=104.640854, Alt.=83.223694m. Speed=16.344000m/h.</desc>
<speed>4.540000</speed>
</trkpt>
<trkpt lat="22.131525" lon="104.640968">
<ele>85.848694</ele>
<time>2011-04-28T04:11:09Z</time>
<desc>lat.=22.131525, lon.=104.640968, Alt.=85.848694m. Speed=10.332000m/h.</desc>
<speed>2.870000</speed>
</trkpt>
<trkpt lat="22.131449" lon="104.641167">
<ele>86.831116</ele>
<time>2011-04-28T04:11:14Z</time>
<desc>lat.=22.131449, lon.=104.641167, Alt.=86.831116m. Speed=16.200001m/h.</desc>
<speed>4.500000</speed>
</trkpt>
<trkpt lat="22.131372" lon="104.641357">
<ele>89.008850</ele>
<time>2011-04-28T04:11:19Z</time>
<desc>lat.=22.131372, lon.=104.641357, Alt.=89.008850m. Speed=15.696000m/h.</desc>
<speed>4.360000</speed>
</trkpt>
<trkpt lat="22.131285" lon="104.641609">
<ele>89.409241</ele>
<time>2011-04-28T04:11:24Z</time>
<desc>lat.=22.131285, lon.=104.641609, Alt.=89.409241m. Speed=13.212000m/h.</desc>
<speed>3.670000</speed>
</trkpt>
<trkpt lat="22.131235" lon="104.641884">
<ele>89.481506</ele>
<time>2011-04-28T04:11:29Z</time>
<desc>lat.=22.131235, lon.=104.641884, Alt.=89.481506m. Speed=18.072001m/h.</desc>
<speed>5.020000</speed>
</trkpt>
<trkpt lat="22.131235" lon="104.642220">
<ele>86.588928</ele>
<time>2011-04-28T04:11:34Z</time>
<desc>lat.=22.131235, lon.=104.642220, Alt.=86.588928m. Speed=18.900000m/h.</desc>
<speed>5.250000</speed>
</trkpt>
<trkpt lat="22.131313" lon="104.642479">
<ele>84.024475</ele>
<time>2011-04-28T04:11:39Z</time>
<desc>lat.=22.131313, lon.=104.642479, Alt.=84.024475m. Speed=18.143999m/h.</desc>
<speed>5.040000</speed>
</trkpt>
<trkpt lat="22.131393" lon="104.642708">
<ele>82.819397</ele>
<time>2011-04-28T04:11:44Z</time>
<desc>lat.=22.131393, lon.=104.642708, Alt.=82.819397m. Speed=16.056000m/h.</desc>
<speed>4.460000</speed>
</trkpt>
<trkpt lat="22.131500" lon="104.642914">
<ele>81.502991</ele>
<time>2011-04-28T04:11:49Z</time>
<desc>lat.=22.131500, lon.=104.642914, Alt.=81.502991m. Speed=14.256000m/h.</desc>
<speed>3.960000</speed>
</trkpt>
<trkpt lat="22.131609" lon="104.643097">
<ele>80.010803</ele>
<time>2011-04-28T04:11:54Z</time>
<desc>lat.=22.131609, lon.=104.643097, Alt.=80.010803m. Speed=15.264000m/h.</desc>
<speed>4.240000</speed>
</trkpt>
<trkpt lat="22.131746" lon="104.643288">
<ele>78.829163</ele>
<time>2011-04-28T04:11:59Z</time>
<desc>lat.=22.131746, lon.=104.643288, Alt.=78.829163m. Speed=17.496000m/h.</desc>
<speed>4.860000</speed>
</trkpt>
<trkpt lat="22.131857" lon="104.643478">
<ele>77.538147</ele>
<time>2011-04-28T04:12:04Z</time>
<desc>lat.=22.131857, lon.=104.643478, Alt.=77.538147m. Speed=14.868000m/h.</desc>
<speed>4.130000</speed>
</trkpt>
<trkpt lat="22.131916" lon="104.643646">
<ele>75.247131</ele>
<time>2011-04-28T04:12:09Z</time>
<desc>lat.=22.131916, lon.=104.643646, Alt.=75.247131m. Speed=14.616000m/h.</desc>
<speed>4.060000</speed>
</trkpt>
<trkpt lat="22.131956" lon="104.643875">
<ele>75.807678</ele>
<time>2011-04-28T04:12:14Z</time>
<desc>lat.=22.131956, lon.=104.643875, Alt.=75.807678m. Speed=16.740000m/h.</desc>
<speed>4.650000</speed>
</trkpt>
<trkpt lat="22.131952" lon="104.644073">
<ele>75.335022</ele>
<time>2011-04-28T04:12:19Z</time>
<desc>lat.=22.131952, lon.=104.644073, Alt.=75.335022m. Speed=11.556000m/h.</desc>
<speed>3.210000</speed>
</trkpt>
<trkpt lat="22.131861" lon="104.644234">
<ele>75.391663</ele>
<time>2011-04-28T04:12:24Z</time>
<desc>lat.=22.131861, lon.=104.644234, Alt.=75.391663m. Speed=17.927999m/h.</desc>
<speed>4.980000</speed>
</trkpt>
<trkpt lat="22.131666" lon="104.644371">
<ele>75.651428</ele>
<time>2011-04-28T04:12:29Z</time>
<desc>lat.=22.131666, lon.=104.644371, Alt.=75.651428m. Speed=18.216000m/h.</desc>
<speed>5.060000</speed>
</trkpt>
<trkpt lat="22.131447" lon="104.644524">
<ele>75.477600</ele>
<time>2011-04-28T04:12:34Z</time>
<desc>lat.=22.131447, lon.=104.644524, Alt.=75.477600m. Speed=16.020000m/h.</desc>
<speed>4.450000</speed>
</trkpt>
<trkpt lat="22.131248" lon="104.644638">
<ele>75.721741</ele>
<time>2011-04-28T04:12:39Z</time>
<desc>lat.=22.131248, lon.=104.644638, Alt.=75.721741m. Speed=11.376000m/h.</desc>
<speed>3.160000</speed>
</trkpt>
<trkpt lat="22.131109" lon="104.644638">
<ele>76.262756</ele>
<time>2011-04-28T04:12:44Z</time>
<desc>lat.=22.131109, lon.=104.644638, Alt.=76.262756m. Speed=8.856000m/h.</desc>
<speed>2.460000</speed>
</trkpt>
<trkpt lat="22.130981" lon="104.644661">
<ele>76.907288</ele>
<time>2011-04-28T04:12:49Z</time>
<desc>lat.=22.130981, lon.=104.644661, Alt.=76.907288m. Speed=11.052000m/h.</desc>
<speed>3.070000</speed>
</trkpt>
<trkpt lat="22.130823" lon="104.644707">
<ele>77.438538</ele>
<time>2011-04-28T04:12:54Z</time>
<desc>lat.=22.130823, lon.=104.644707, Alt.=77.438538m. Speed=11.988000m/h.</desc>
<speed>3.330000</speed>
</trkpt>
<trkpt lat="22.130676" lon="104.644745">
<ele>78.032288</ele>
<time>2011-04-28T04:12:59Z</time>
<desc>lat.=22.130676, lon.=104.644745, Alt.=78.032288m. Speed=9.288000m/h.</desc>
<speed>2.580000</speed>
</trkpt>
<trkpt lat="22.130644" lon="104.644783">
<ele>77.885803</ele>
<time>2011-04-28T04:13:04Z</time>
<desc>lat.=22.130644, lon.=104.644783, Alt.=77.885803m. Speed=0.540000m/h.</desc>
<speed>0.150000</speed>
</trkpt>
<trkpt lat="22.130644" lon="104.644783">
<ele>78.026428</ele>
<time>2011-04-28T04:13:09Z</time>
<desc>lat.=22.130644, lon.=104.644783, Alt.=78.026428m. Speed=0.000000m/h.</desc>
<speed>0.000000</speed>
</trkpt>
<trkpt lat="22.130644" lon="104.644783">
<ele>78.018616</ele>
<time>2011-04-28T04:13:14Z</time>
<desc>lat.=22.130644, lon.=104.644783, Alt.=78.018616m. Speed=0.036000m/h.</desc>
<speed>0.010000</speed>
</trkpt>
<trkpt lat="22.130644" lon="104.644791">
<ele>77.993225</ele>
<time>2011-04-28T04:13:19Z</time>
<desc>lat.=22.130644, lon.=104.644791, Alt.=77.993225m. Speed=0.036000m/h.</desc>
<speed>0.010000</speed>
</trkpt>
<trkpt lat="22.130644" lon="104.644791">
<ele>78.014709</ele>
<time>2011-04-28T04:13:24Z</time>
<desc>lat.=22.130644, lon.=104.644791, Alt.=78.014709m. Speed=0.036000m/h.</desc>
<speed>0.010000</speed>
</trkpt>
<trkpt lat="22.130642" lon="104.644791">
<ele>78.040100</ele>
<time>2011-04-28T04:13:29Z</time>
<desc>lat.=22.130642, lon.=104.644791, Alt.=78.040100m. Speed=0.612000m/h.</desc>
<speed>0.170000</speed>
</trkpt>
<trkpt lat="22.130640" lon="104.644791">
<ele>78.073303</ele>
<time>2011-04-28T04:13:34Z</time>
<desc>lat.=22.130640, lon.=104.644791, Alt.=78.073303m. Speed=0.108000m/h.</desc>
<speed>0.030000</speed>
</trkpt>
<trkpt lat="22.130644" lon="104.644791">
<ele>78.102600</ele>
<time>2011-04-28T04:13:39Z</time>
<desc>lat.=22.130644, lon.=104.644791, Alt.=78.102600m. Speed=0.792000m/h.</desc>
<speed>0.220000</speed>
</trkpt>
<trkpt lat="22.130651" lon="104.644791">
<ele>78.127991</ele>
<time>2011-04-28T04:13:44Z</time>
<desc>lat.=22.130651, lon.=104.644791, Alt.=78.127991m. Speed=0.108000m/h.</desc>
<speed>0.030000</speed>
</trkpt>
<trkpt lat="22.130642" lon="104.644791">
<ele>78.151428</ele>
<time>2011-04-28T04:13:49Z</time>
<desc>lat.=22.130642, lon.=104.644791, Alt.=78.151428m. Speed=2.232000m/h.</desc>
<speed>0.620000</speed>
</trkpt>
<trkpt lat="22.130615" lon="104.644791">
<ele>78.169006</ele>
<time>2011-04-28T04:13:54Z</time>
<desc>lat.=22.130615, lon.=104.644791, Alt.=78.169006m. Speed=5.400000m/h.</desc>
<speed>1.500000</speed>
</trkpt>
<trkpt lat="22.130512" lon="104.644814">
<ele>77.860413</ele>
<time>2011-04-28T04:13:59Z</time>
<desc>lat.=22.130512, lon.=104.644814, Alt.=77.860413m. Speed=7.884000m/h.</desc>
<speed>2.190000</speed>
</trkpt>
<trkpt lat="22.130423" lon="104.644829">
<ele>77.481506</ele>
<time>2011-04-28T04:14:04Z</time>
<desc>lat.=22.130423, lon.=104.644829, Alt.=77.481506m. Speed=6.336000m/h.</desc>
<speed>1.760000</speed>
</trkpt>
<trkpt lat="22.130302" lon="104.644852">
<ele>77.311584</ele>
<time>2011-04-28T04:14:09Z</time>
<desc>lat.=22.130302, lon.=104.644852, Alt.=77.311584m. Speed=11.772000m/h.</desc>
<speed>3.270000</speed>
</trkpt>
<trkpt lat="22.130119" lon="104.644913">
<ele>75.797913</ele>
<time>2011-04-28T04:14:14Z</time>
<desc>lat.=22.130119, lon.=104.644913, Alt.=75.797913m. Speed=17.388000m/h.</desc>
<speed>4.830000</speed>
</trkpt>
<trkpt lat="22.129910" lon="104.644951">
<ele>74.512756</ele>
<time>2011-04-28T04:14:19Z</time>
<desc>lat.=22.129910, lon.=104.644951, Alt.=74.512756m. Speed=16.812000m/h.</desc>
<speed>4.670000</speed>
</trkpt>
<trkpt lat="22.129625" lon="104.644981">
<ele>70.876038</ele>
<time>2011-04-28T04:14:24Z</time>
<desc>lat.=22.129625, lon.=104.644981, Alt.=70.876038m. Speed=22.139999m/h.</desc>
<speed>6.150000</speed>
</trkpt>
<trkpt lat="22.129299" lon="104.644958">
<ele>67.835022</ele>
<time>2011-04-28T04:14:29Z</time>
<desc>lat.=22.129299, lon.=104.644958, Alt.=67.835022m. Speed=18.612000m/h.</desc>
<speed>5.170000</speed>
</trkpt>
<trkpt lat="22.129066" lon="104.645042">
<ele>65.487366</ele>
<time>2011-04-28T04:14:34Z</time>
<desc>lat.=22.129066, lon.=104.645042, Alt.=65.487366m. Speed=15.300000m/h.</desc>
<speed>4.250000</speed>
</trkpt>
<trkpt lat="22.128872" lon="104.645126">
<ele>63.910675</ele>
<time>2011-04-28T04:14:39Z</time>
<desc>lat.=22.128872, lon.=104.645126, Alt.=63.910675m. Speed=13.860000m/h.</desc>
<speed>3.850000</speed>
</trkpt>
<trkpt lat="22.128712" lon="104.645149">
<ele>62.172394</ele>
<time>2011-04-28T04:14:44Z</time>
<desc>lat.=22.128712, lon.=104.645149, Alt.=62.172394m. Speed=10.404000m/h.</desc>
<speed>2.890000</speed>
</trkpt>
<trkpt lat="22.128559" lon="104.645172">
<ele>59.649933</ele>
<time>2011-04-28T04:14:49Z</time>
<desc>lat.=22.128559, lon.=104.645172, Alt.=59.649933m. Speed=12.024000m/h.</desc>
<speed>3.340000</speed>
</trkpt>
<trkpt lat="22.128387" lon="104.645157">
<ele>57.214386</ele>
<time>2011-04-28T04:14:54Z</time>
<desc>lat.=22.128387, lon.=104.645157, Alt.=57.214386m. Speed=12.060000m/h.</desc>
<speed>3.350000</speed>
</trkpt>
<trkpt lat="22.128220" lon="104.645172">
<ele>56.103058</ele>
<time>2011-04-28T04:14:59Z</time>
<desc>lat.=22.128220, lon.=104.645172, Alt.=56.103058m. Speed=14.184000m/h.</desc>
<speed>3.940000</speed>
</trkpt>
<trkpt lat="22.127987" lon="104.645248">
<ele>61.431183</ele>
<time>2011-04-28T04:15:04Z</time>
<desc>lat.=22.127987, lon.=104.645248, Alt.=61.431183m. Speed=17.784000m/h.</desc>
<speed>4.940000</speed>
</trkpt>
<trkpt lat="22.127821" lon="104.645424">
<ele>64.350647</ele>
<time>2011-04-28T04:15:09Z</time>
<desc>lat.=22.127821, lon.=104.645424, Alt.=64.350647m. Speed=20.052000m/h.</desc>
<speed>5.570000</speed>
</trkpt>
<trkpt lat="22.127695" lon="104.645683">
<ele>67.833069</ele>
<time>2011-04-28T04:15:14Z</time>
<desc>lat.=22.127695, lon.=104.645683, Alt.=67.833069m. Speed=19.980000m/h.</desc>
<speed>5.550000</speed>
</trkpt>
<trkpt lat="22.127514" lon="104.645851">
<ele>71.893616</ele>
<time>2011-04-28T04:15:19Z</time>
<desc>lat.=22.127514, lon.=104.645851, Alt.=71.893616m. Speed=20.771999m/h.</desc>
<speed>5.770000</speed>
</trkpt>
<trkpt lat="22.127342" lon="104.645981">
<ele>76.426819</ele>
<time>2011-04-28T04:15:24Z</time>
<desc>lat.=22.127342, lon.=104.645981, Alt.=76.426819m. Speed=17.172001m/h.</desc>
<speed>4.770000</speed>
</trkpt>
<trkpt lat="22.127174" lon="104.646187">
<ele>80.085022</ele>
<time>2011-04-28T04:15:29Z</time>
<desc>lat.=22.127174, lon.=104.646187, Alt.=80.085022m. Speed=18.468000m/h.</desc>
<speed>5.130000</speed>
</trkpt>
<trkpt lat="22.126942" lon="104.646362">
<ele>84.704163</ele>
<time>2011-04-28T04:15:34Z</time>
<desc>lat.=22.126942, lon.=104.646362, Alt.=84.704163m. Speed=20.520000m/h.</desc>
<speed>5.700000</speed>
</trkpt>
<trkpt lat="22.126724" lon="104.646446">
<ele>86.907288</ele>
<time>2011-04-28T04:15:39Z</time>
<desc>lat.=22.126724, lon.=104.646446, Alt.=86.907288m. Speed=15.588000m/h.</desc>
<speed>4.330000</speed>
</trkpt>
<trkpt lat="22.126513" lon="104.646484">
<ele>87.792053</ele>
<time>2011-04-28T04:15:44Z</time>
<desc>lat.=22.126513, lon.=104.646484, Alt.=87.792053m. Speed=9.396000m/h.</desc>
<speed>2.610000</speed>
</trkpt>
<trkpt lat="22.126381" lon="104.646530">
<ele>90.581116</ele>
<time>2011-04-28T04:15:49Z</time>
<desc>lat.=22.126381, lon.=104.646530, Alt.=90.581116m. Speed=9.252000m/h.</desc>
<speed>2.570000</speed>
</trkpt>
<trkpt lat="22.126257" lon="104.646599">
<ele>93.506897</ele>
<time>2011-04-28T04:15:54Z</time>
<desc>lat.=22.126257, lon.=104.646599, Alt.=93.506897m. Speed=6.840000m/h.</desc>
<speed>1.900000</speed>
</trkpt>
<trkpt lat="22.126162" lon="104.646637">
<ele>94.028381</ele>
<time>2011-04-28T04:15:59Z</time>
<desc>lat.=22.126162, lon.=104.646637, Alt.=94.028381m. Speed=4.608000m/h.</desc>
<speed>1.280000</speed>
</trkpt>
<trkpt lat="22.126087" lon="104.646698">
<ele>94.184631</ele>
<time>2011-04-28T04:16:04Z</time>
<desc>lat.=22.126087, lon.=104.646698, Alt.=94.184631m. Speed=5.616000m/h.</desc>
<speed>1.560000</speed>
</trkpt>
<trkpt lat="22.126022" lon="104.646729">
<ele>92.774475</ele>
<time>2011-04-28T04:16:09Z</time>
<desc>lat.=22.126022, lon.=104.646729, Alt.=92.774475m. Speed=5.292000m/h.</desc>
<speed>1.470000</speed>
</trkpt>
<trkpt lat="22.126003" lon="104.646736">
<ele>91.372131</ele>
<time>2011-04-28T04:16:14Z</time>
<desc>lat.=22.126003, lon.=104.646736, Alt.=91.372131m. Speed=0.144000m/h.</desc>
<speed>0.040000</speed>
</trkpt>
<trkpt lat="22.126001" lon="104.646736">
<ele>91.799866</ele>
<time>2011-04-28T04:16:19Z</time>
<desc>lat.=22.126001, lon.=104.646736, Alt.=91.799866m. Speed=0.180000m/h.</desc>
<speed>0.050000</speed>
</trkpt>
<trkpt lat="22.126005" lon="104.646736">
<ele>91.850647</ele>
<time>2011-04-28T04:16:24Z</time>
<desc>lat.=22.126005, lon.=104.646736, Alt.=91.850647m. Speed=0.180000m/h.</desc>
<speed>0.050000</speed>
</trkpt>
<trkpt lat="22.126005" lon="104.646736">
<ele>91.797913</ele>
<time>2011-04-28T04:16:29Z</time>
<desc>lat.=22.126005, lon.=104.646736, Alt.=91.797913m. Speed=0.108000m/h.</desc>
<speed>0.030000</speed>
</trkpt>
<trkpt lat="22.126005" lon="104.646736">
<ele>91.706116</ele>
<time>2011-04-28T04:16:34Z</time>
<desc>lat.=22.126005, lon.=104.646736, Alt.=91.706116m. Speed=0.036000m/h.</desc>
<speed>0.010000</speed>
</trkpt>
<trkpt lat="22.126005" lon="104.646736">
<ele>91.661194</ele>
<time>2011-04-28T04:16:39Z</time>
<desc>lat.=22.126005, lon.=104.646736, Alt.=91.661194m. Speed=0.072000m/h.</desc>
<speed>0.020000</speed>
</trkpt>
<trkpt lat="22.126005" lon="104.646736">
<ele>91.602600</ele>
<time>2011-04-28T04:16:44Z</time>
<desc>lat.=22.126005, lon.=104.646736, Alt.=91.602600m. Speed=0.036000m/h.</desc>
<speed>0.010000</speed>
</trkpt>
<trkpt lat="22.126005" lon="104.646736">
<ele>91.555725</ele>
<time>2011-04-28T04:16:49Z</time>
<desc>lat.=22.126005, lon.=104.646736, Alt.=91.555725m. Speed=0.036000m/h.</desc>
<speed>0.010000</speed>
</trkpt>
<trkpt lat="22.126005" lon="104.646736">
<ele>91.518616</ele>
<time>2011-04-28T04:16:54Z</time>
<desc>lat.=22.126005, lon.=104.646736, Alt.=91.518616m. Speed=0.000000m/h.</desc>
<speed>0.000000</speed>
</trkpt>
<trkpt lat="22.126005" lon="104.646736">
<ele>91.479553</ele>
<time>2011-04-28T04:16:59Z</time>
<desc>lat.=22.126005, lon.=104.646736, Alt.=91.479553m. Speed=0.000000m/h.</desc>
<speed>0.000000</speed>
</trkpt>
<trkpt lat="22.126005" lon="104.646736">
<ele>91.442444</ele>
<time>2011-04-28T04:17:04Z</time>
<desc>lat.=22.126005, lon.=104.646736, Alt.=91.442444m. Speed=0.036000m/h.</desc>
<speed>0.010000</speed>
</trkpt>
<trkpt lat="22.126005" lon="104.646736">
<ele>91.430725</ele>
<time>2011-04-28T04:17:09Z</time>
<desc>lat.=22.126005, lon.=104.646736, Alt.=91.430725m. Speed=0.036000m/h.</desc>
<speed>0.010000</speed>
</trkpt>
<trkpt lat="22.126005" lon="104.646736">
<ele>91.417053</ele>
<time>2011-04-28T04:17:14Z</time>
<desc>lat.=22.126005, lon.=104.646736, Alt.=91.417053m. Speed=0.036000m/h.</desc>
<speed>0.010000</speed>
</trkpt>
<trkpt lat="22.126007" lon="104.646736">
<ele>91.325256</ele>
<time>2011-04-28T04:17:19Z</time>
<desc>lat.=22.126007, lon.=104.646736, Alt.=91.325256m. Speed=0.000000m/h.</desc>
<speed>0.000000</speed>
</trkpt>
<trkpt lat="22.126007" lon="104.646736">
<ele>91.280334</ele>
<time>2011-04-28T04:17:24Z</time>
<desc>lat.=22.126007, lon.=104.646736, Alt.=91.280334m. Speed=0.000000m/h.</desc>
<speed>0.000000</speed>
</trkpt>
<trkpt lat="22.126007" lon="104.646736">
<ele>91.231506</ele>
<time>2011-04-28T04:17:29Z</time>
<desc>lat.=22.126007, lon.=104.646736, Alt.=91.231506m. Speed=0.000000m/h.</desc>
<speed>0.000000</speed>
</trkpt>
<trkpt lat="22.126007" lon="104.646736">
<ele>91.122131</ele>
<time>2011-04-28T04:17:34Z</time>
<desc>lat.=22.126007, lon.=104.646736, Alt.=91.122131m. Speed=0.000000m/h.</desc>
<speed>0.000000</speed>
</trkpt>
<trkpt lat="22.126007" lon="104.646736">
<ele>91.001038</ele>
<time>2011-04-28T04:17:39Z</time>
<desc>lat.=22.126007, lon.=104.646736, Alt.=91.001038m. Speed=0.036000m/h.</desc>
<speed>0.010000</speed>
</trkpt>
<trkpt lat="22.126007" lon="104.646736">
<ele>90.950256</ele>
<time>2011-04-28T04:17:44Z</time>
<desc>lat.=22.126007, lon.=104.646736, Alt.=90.950256m. Speed=0.000000m/h.</desc>
<speed>0.000000</speed>
</trkpt>
<trkpt lat="22.126009" lon="104.646736">
<ele>90.924866</ele>
<time>2011-04-28T04:17:49Z</time>
<desc>lat.=22.126009, lon.=104.646736, Alt.=90.924866m. Speed=0.036000m/h.</desc>
<speed>0.010000</speed>
</trkpt>
<trkpt lat="22.126009" lon="104.646736">
<ele>90.907288</ele>
<time>2011-04-28T04:17:54Z</time>
<desc>lat.=22.126009, lon.=104.646736, Alt.=90.907288m. Speed=0.000000m/h.</desc>
<speed>0.000000</speed>
</trkpt>
<trkpt lat="22.126009" lon="104.646736">
<ele>90.883850</ele>
<time>2011-04-28T04:17:59Z</time>
<desc>lat.=22.126009, lon.=104.646736, Alt.=90.883850m. Speed=0.036000m/h.</desc>
<speed>0.010000</speed>
</trkpt>
<trkpt lat="22.126009" lon="104.646736">
<ele>90.856506</ele>
<time>2011-04-28T04:18:04Z</time>
<desc>lat.=22.126009, lon.=104.646736, Alt.=90.856506m. Speed=0.108000m/h.</desc>
<speed>0.030000</speed>
</trkpt>
<trkpt lat="22.126007" lon="104.646736">
<ele>90.833069</ele>
<time>2011-04-28T04:18:09Z</time>
<desc>lat.=22.126007, lon.=104.646736, Alt.=90.833069m. Speed=0.072000m/h.</desc>
<speed>0.020000</speed>
</trkpt>
<trkpt lat="22.126007" lon="104.646736">
<ele>90.799866</ele>
<time>2011-04-28T04:18:14Z</time>
<desc>lat.=22.126007, lon.=104.646736, Alt.=90.799866m. Speed=0.036000m/h.</desc>
<speed>0.010000</speed>
</trkpt>
<trkpt lat="22.126007" lon="104.646736">
<ele>90.745178</ele>
<time>2011-04-28T04:18:19Z</time>
<desc>lat.=22.126007, lon.=104.646736, Alt.=90.745178m. Speed=0.036000m/h.</desc>
<speed>0.010000</speed>
</trkpt>
<trkpt lat="22.126007" lon="104.646736">
<ele>90.670959</ele>
<time>2011-04-28T04:18:24Z</time>
<desc>lat.=22.126007, lon.=104.646736, Alt.=90.670959m. Speed=0.396000m/h.</desc>
<speed>0.110000</speed>
</trkpt>
<trkpt lat="22.126007" lon="104.646736">
<ele>90.635803</ele>
<time>2011-04-28T04:18:29Z</time>
<desc>lat.=22.126007, lon.=104.646736, Alt.=90.635803m. Speed=0.000000m/h.</desc>
<speed>0.000000</speed>
</trkpt>
<trkpt lat="22.126007" lon="104.646736">
<ele>90.573303</ele>
<time>2011-04-28T04:18:34Z</time>
<desc>lat.=22.126007, lon.=104.646736, Alt.=90.573303m. Speed=0.036000m/h.</desc>
<speed>0.010000</speed>
</trkpt>
<trkpt lat="22.126007" lon="104.646736">
<ele>90.502991</ele>
<time>2011-04-28T04:18:39Z</time>
<desc>lat.=22.126007, lon.=104.646736, Alt.=90.502991m. Speed=0.072000m/h.</desc>
<speed>0.020000</speed>
</trkpt>
<trkpt lat="22.126007" lon="104.646736">
<ele>90.448303</ele>
<time>2011-04-28T04:18:44Z</time>
<desc>lat.=22.126007, lon.=104.646736, Alt.=90.448303m. Speed=0.036000m/h.</desc>
<speed>0.010000</speed>
</trkpt>
<trkpt lat="22.126009" lon="104.646736">
<ele>90.428772</ele>
<time>2011-04-28T04:18:49Z</time>
<desc>lat.=22.126009, lon.=104.646736, Alt.=90.428772m. Speed=0.000000m/h.</desc>
<speed>0.000000</speed>
</trkpt>
<trkpt lat="22.126013" lon="104.646736">
<ele>89.295959</ele>
<time>2011-04-28T04:18:54Z</time>
<desc>lat.=22.126013, lon.=104.646736, Alt.=89.295959m. Speed=0.000000m/h.</desc>
<speed>0.000000</speed>
</trkpt>
<trkpt lat="22.126015" lon="104.646736">
<ele>87.251038</ele>
<time>2011-04-28T04:18:59Z</time>
<desc>lat.=22.126015, lon.=104.646736, Alt.=87.251038m. Speed=0.036000m/h.</desc>
<speed>0.010000</speed>
</trkpt>
<trkpt lat="22.126017" lon="104.646736">
<ele>85.317444</ele>
<time>2011-04-28T04:19:04Z</time>
<desc>lat.=22.126017, lon.=104.646736, Alt.=85.317444m. Speed=0.000000m/h.</desc>
<speed>0.000000</speed>
</trkpt>
<trkpt lat="22.126017" lon="104.646729">
<ele>84.254944</ele>
<time>2011-04-28T04:19:09Z</time>
<desc>lat.=22.126017, lon.=104.646729, Alt.=84.254944m. Speed=0.072000m/h.</desc>
<speed>0.020000</speed>
</trkpt>
<trkpt lat="22.126017" lon="104.646713">
<ele>82.819397</ele>
<time>2011-04-28T04:19:14Z</time>
<desc>lat.=22.126017, lon.=104.646713, Alt.=82.819397m. Speed=0.000000m/h.</desc>
<speed>0.000000</speed>
</trkpt>
<trkpt lat="22.126020" lon="104.646683">
<ele>81.206116</ele>
<time>2011-04-28T04:19:19Z</time>
<desc>lat.=22.126020, lon.=104.646683, Alt.=81.206116m. Speed=0.072000m/h.</desc>
<speed>0.020000</speed>
</trkpt>
<trkpt lat="22.126020" lon="104.646667">
<ele>80.848694</ele>
<time>2011-04-28T04:19:24Z</time>
<desc>lat.=22.126020, lon.=104.646667, Alt.=80.848694m. Speed=0.000000m/h.</desc>
<speed>0.000000</speed>
</trkpt>
<trkpt lat="22.126028" lon="104.646675">
<ele>80.831116</ele>
<time>2011-04-28T04:19:29Z</time>
<desc>lat.=22.126028, lon.=104.646675, Alt.=80.831116m. Speed=0.036000m/h.</desc>
<speed>0.010000</speed>
</trkpt>
<trkpt lat="22.126024" lon="104.646675">
<ele>79.411194</ele>
<time>2011-04-28T04:19:34Z</time>
<desc>lat.=22.126024, lon.=104.646675, Alt.=79.411194m. Speed=0.036000m/h.</desc>
<speed>0.010000</speed>
</trkpt>
<trkpt lat="22.126024" lon="104.646675">
<ele>79.399475</ele>
<time>2011-04-28T04:19:39Z</time>
<desc>lat.=22.126024, lon.=104.646675, Alt.=79.399475m. Speed=0.036000m/h.</desc>
<speed>0.010000</speed>
</trkpt>
<trkpt lat="22.126024" lon="104.646675">
<ele>79.389709</ele>
<time>2011-04-28T04:19:44Z</time>
<desc>lat.=22.126024, lon.=104.646675, Alt.=79.389709m. Speed=0.072000m/h.</desc>
<speed>0.020000</speed>
</trkpt>
<trkpt lat="22.126024" lon="104.646675">
<ele>79.391663</ele>
<time>2011-04-28T04:19:49Z</time>
<desc>lat.=22.126024, lon.=104.646675, Alt.=79.391663m. Speed=0.000000m/h.</desc>
<speed>0.000000</speed>
</trkpt>
<trkpt lat="22.126022" lon="104.646675">
<ele>79.391663</ele>
<time>2011-04-28T04:19:54Z</time>
<desc>lat.=22.126022, lon.=104.646675, Alt.=79.391663m. Speed=0.000000m/h.</desc>
<speed>0.000000</speed>
</trkpt>
<trkpt lat="22.126022" lon="104.646675">
<ele>79.344788</ele>
<time>2011-04-28T04:19:59Z</time>
<desc>lat.=22.126022, lon.=104.646675, Alt.=79.344788m. Speed=0.072000m/h.</desc>
<speed>0.020000</speed>
</trkpt>
<trkpt lat="22.126024" lon="104.646675">
<ele>79.313538</ele>
<time>2011-04-28T04:20:04Z</time>
<desc>lat.=22.126024, lon.=104.646675, Alt.=79.313538m. Speed=0.000000m/h.</desc>
<speed>0.000000</speed>
</trkpt>
<trkpt lat="22.126022" lon="104.646675">
<ele>79.292053</ele>
<time>2011-04-28T04:20:09Z</time>
<desc>lat.=22.126022, lon.=104.646675, Alt.=79.292053m. Speed=0.108000m/h.</desc>
<speed>0.030000</speed>
</trkpt>
<trkpt lat="22.126022" lon="104.646675">
<ele>79.270569</ele>
<time>2011-04-28T04:20:14Z</time>
<desc>lat.=22.126022, lon.=104.646675, Alt.=79.270569m. Speed=0.072000m/h.</desc>
<speed>0.020000</speed>
</trkpt>
<trkpt lat="22.126022" lon="104.646675">
<ele>79.258850</ele>
<time>2011-04-28T04:20:19Z</time>
<desc>lat.=22.126022, lon.=104.646675, Alt.=79.258850m. Speed=0.036000m/h.</desc>
<speed>0.010000</speed>
</trkpt>
<trkpt lat="22.126022" lon="104.646675">
<ele>79.223694</ele>
<time>2011-04-28T04:20:24Z</time>
<desc>lat.=22.126022, lon.=104.646675, Alt.=79.223694m. Speed=0.036000m/h.</desc>
<speed>0.010000</speed>
</trkpt>
<trkpt lat="22.126022" lon="104.646675">
<ele>79.188538</ele>
<time>2011-04-28T04:20:29Z</time>
<desc>lat.=22.126022, lon.=104.646675, Alt.=79.188538m. Speed=0.000000m/h.</desc>
<speed>0.000000</speed>
</trkpt>
<trkpt lat="22.126022" lon="104.646675">
<ele>79.161194</ele>
<time>2011-04-28T04:20:34Z</time>
<desc>lat.=22.126022, lon.=104.646675, Alt.=79.161194m. Speed=0.000000m/h.</desc>
<speed>0.000000</speed>
</trkpt>
<trkpt lat="22.126022" lon="104.646675">
<ele>79.139709</ele>
<time>2011-04-28T04:20:39Z</time>
<desc>lat.=22.126022, lon.=104.646675, Alt.=79.139709m. Speed=0.000000m/h.</desc>
<speed>0.000000</speed>
</trkpt>
<trkpt lat="22.126022" lon="104.646675">
<ele>79.129944</ele>
<time>2011-04-28T04:20:44Z</time>
<desc>lat.=22.126022, lon.=104.646675, Alt.=79.129944m. Speed=0.036000m/h.</desc>
<speed>0.010000</speed>
</trkpt>
<trkpt lat="22.126022" lon="104.646675">
<ele>79.112366</ele>
<time>2011-04-28T04:20:49Z</time>
<desc>lat.=22.126022, lon.=104.646675, Alt.=79.112366m. Speed=0.000000m/h.</desc>
<speed>0.000000</speed>
</trkpt>
<trkpt lat="22.126022" lon="104.646675">
<ele>79.118225</ele>
<time>2011-04-28T04:20:54Z</time>
<desc>lat.=22.126022, lon.=104.646675, Alt.=79.118225m. Speed=0.036000m/h.</desc>
<speed>0.010000</speed>
</trkpt>
<trkpt lat="22.126022" lon="104.646675">
<ele>79.094788</ele>
<time>2011-04-28T04:20:59Z</time>
<desc>lat.=22.126022, lon.=104.646675, Alt.=79.094788m. Speed=0.036000m/h.</desc>
<speed>0.010000</speed>
</trkpt>
<trkpt lat="22.126022" lon="104.646675">
<ele>79.065491</ele>
<time>2011-04-28T04:21:04Z</time>
<desc>lat.=22.126022, lon.=104.646675, Alt.=79.065491m. Speed=0.000000m/h.</desc>
<speed>0.000000</speed>
</trkpt>
<trkpt lat="22.126022" lon="104.646675">
<ele>79.081116</ele>
<time>2011-04-28T04:21:09Z</time>
<desc>lat.=22.126022, lon.=104.646675, Alt.=79.081116m. Speed=0.072000m/h.</desc>
<speed>0.020000</speed>
</trkpt>
<trkpt lat="22.126022" lon="104.646675">
<ele>79.110413</ele>
<time>2011-04-28T04:21:14Z</time>
<desc>lat.=22.126022, lon.=104.646675, Alt.=79.110413m. Speed=0.036000m/h.</desc>
<speed>0.010000</speed>
</trkpt>
<trkpt lat="22.126022" lon="104.646683">
<ele>79.116272</ele>
<time>2011-04-28T04:21:19Z</time>
<desc>lat.=22.126022, lon.=104.646683, Alt.=79.116272m. Speed=0.108000m/h.</desc>
<speed>0.030000</speed>
</trkpt>
<trkpt lat="22.126022" lon="104.646683">
<ele>79.098694</ele>
<time>2011-04-28T04:21:24Z</time>
<desc>lat.=22.126022, lon.=104.646683, Alt.=79.098694m. Speed=0.072000m/h.</desc>
<speed>0.020000</speed>
</trkpt>
<trkpt lat="22.126022" lon="104.646683">
<ele>79.112366</ele>
<time>2011-04-28T04:21:29Z</time>
<desc>lat.=22.126022, lon.=104.646683, Alt.=79.112366m. Speed=0.072000m/h.</desc>
<speed>0.020000</speed>
</trkpt>
<trkpt lat="22.126022" lon="104.646683">
<ele>79.073303</ele>
<time>2011-04-28T04:21:34Z</time>
<desc>lat.=22.126022, lon.=104.646683, Alt.=79.073303m. Speed=0.000000m/h.</desc>
<speed>0.000000</speed>
</trkpt>
<trkpt lat="22.126022" lon="104.646683">
<ele>79.034241</ele>
<time>2011-04-28T04:21:39Z</time>
<desc>lat.=22.126022, lon.=104.646683, Alt.=79.034241m. Speed=0.000000m/h.</desc>
<speed>0.000000</speed>
</trkpt>
<trkpt lat="22.126022" lon="104.646683">
<ele>79.008850</ele>
<time>2011-04-28T04:21:44Z</time>
<desc>lat.=22.126022, lon.=104.646683, Alt.=79.008850m. Speed=0.036000m/h.</desc>
<speed>0.010000</speed>
</trkpt>
<trkpt lat="22.126022" lon="104.646683">
<ele>79.016663</ele>
<time>2011-04-28T04:21:49Z</time>
<desc>lat.=22.126022, lon.=104.646683, Alt.=79.016663m. Speed=0.000000m/h.</desc>
<speed>0.000000</speed>
</trkpt>
<trkpt lat="22.126022" lon="104.646683">
<ele>79.004944</ele>
<time>2011-04-28T04:21:54Z</time>
<desc>lat.=22.126022, lon.=104.646683, Alt.=79.004944m. Speed=0.000000m/h.</desc>
<speed>0.000000</speed>
</trkpt>
<trkpt lat="22.126022" lon="104.646683">
<ele>78.987366</ele>
<time>2011-04-28T04:21:59Z</time>
<desc>lat.=22.126022, lon.=104.646683, Alt.=78.987366m. Speed=0.036000m/h.</desc>
<speed>0.010000</speed>
</trkpt>
<trkpt lat="22.126022" lon="104.646683">
<ele>78.987366</ele>
<time>2011-04-28T04:22:04Z</time>
<desc>lat.=22.126022, lon.=104.646683, Alt.=78.987366m. Speed=0.000000m/h.</desc>
<speed>0.000000</speed>
</trkpt>
<trkpt lat="22.126022" lon="104.646683">
<ele>79.020569</ele>
<time>2011-04-28T04:22:09Z</time>
<desc>lat.=22.126022, lon.=104.646683, Alt.=79.020569m. Speed=0.072000m/h.</desc>
<speed>0.020000</speed>
</trkpt>
<trkpt lat="22.126022" lon="104.646683">
<ele>79.032288</ele>
<time>2011-04-28T04:22:14Z</time>
<desc>lat.=22.126022, lon.=104.646683, Alt.=79.032288m. Speed=0.036000m/h.</desc>
<speed>0.010000</speed>
</trkpt>
<trkpt lat="22.126022" lon="104.646683">
<ele>79.012756</ele>
<time>2011-04-28T04:22:19Z</time>
<desc>lat.=22.126022, lon.=104.646683, Alt.=79.012756m. Speed=0.036000m/h.</desc>
<speed>0.010000</speed>
</trkpt>
<trkpt lat="22.126022" lon="104.646683">
<ele>78.995178</ele>
<time>2011-04-28T04:22:24Z</time>
<desc>lat.=22.126022, lon.=104.646683, Alt.=78.995178m. Speed=0.000000m/h.</desc>
<speed>0.000000</speed>
</trkpt>
<trkpt lat="22.126022" lon="104.646683">
<ele>79.004944</ele>
<time>2011-04-28T04:22:29Z</time>
<desc>lat.=22.126022, lon.=104.646683, Alt.=79.004944m. Speed=0.036000m/h.</desc>
<speed>0.010000</speed>
</trkpt>
<trkpt lat="22.126022" lon="104.646683">
<ele>79.030334</ele>
<time>2011-04-28T04:22:34Z</time>
<desc>lat.=22.126022, lon.=104.646683, Alt.=79.030334m. Speed=0.000000m/h.</desc>
<speed>0.000000</speed>
</trkpt>
<trkpt lat="22.126022" lon="104.646683">
<ele>79.040100</ele>
<time>2011-04-28T04:22:39Z</time>
<desc>lat.=22.126022, lon.=104.646683, Alt.=79.040100m. Speed=0.072000m/h.</desc>
<speed>0.020000</speed>
</trkpt>
<trkpt lat="22.126022" lon="104.646683">
<ele>79.040100</ele>
<time>2011-04-28T04:22:44Z</time>
<desc>lat.=22.126022, lon.=104.646683, Alt.=79.040100m. Speed=0.072000m/h.</desc>
<speed>0.020000</speed>
</trkpt>
<trkpt lat="22.126022" lon="104.646683">
<ele>79.047913</ele>
<time>2011-04-28T04:22:49Z</time>
<desc>lat.=22.126022, lon.=104.646683, Alt.=79.047913m. Speed=0.036000m/h.</desc>
<speed>0.010000</speed>
</trkpt>
<trkpt lat="22.126022" lon="104.646683">
<ele>79.047913</ele>
<time>2011-04-28T04:22:54Z</time>
<desc>lat.=22.126022, lon.=104.646683, Alt.=79.047913m. Speed=0.072000m/h.</desc>
<speed>0.020000</speed>
</trkpt>
<trkpt lat="22.126022" lon="104.646683">
<ele>79.047913</ele>
<time>2011-04-28T04:22:59Z</time>
<desc>lat.=22.126022, lon.=104.646683, Alt.=79.047913m. Speed=0.000000m/h.</desc>
<speed>0.000000</speed>
</trkpt>
<trkpt lat="22.126022" lon="104.646683">
<ele>79.042053</ele>
<time>2011-04-28T04:23:04Z</time>
<desc>lat.=22.126022, lon.=104.646683, Alt.=79.042053m. Speed=0.036000m/h.</desc>
<speed>0.010000</speed>
</trkpt>
<trkpt lat="22.126022" lon="104.646683">
<ele>79.018616</ele>
<time>2011-04-28T04:23:09Z</time>
<desc>lat.=22.126022, lon.=104.646683, Alt.=79.018616m. Speed=0.036000m/h.</desc>
<speed>0.010000</speed>
</trkpt>
<trkpt lat="22.126022" lon="104.646683">
<ele>79.008850</ele>
<time>2011-04-28T04:23:14Z</time>
<desc>lat.=22.126022, lon.=104.646683, Alt.=79.008850m. Speed=0.036000m/h.</desc>
<speed>0.010000</speed>
</trkpt>
<trkpt lat="22.126022" lon="104.646683">
<ele>79.018616</ele>
<time>2011-04-28T04:23:19Z</time>
<desc>lat.=22.126022, lon.=104.646683, Alt.=79.018616m. Speed=0.000000m/h.</desc>
<speed>0.000000</speed>
</trkpt>
<trkpt lat="22.126022" lon="104.646690">
<ele>79.004944</ele>
<time>2011-04-28T04:23:24Z</time>
<desc>lat.=22.126022, lon.=104.646690, Alt.=79.004944m. Speed=0.000000m/h.</desc>
<speed>0.000000</speed>
</trkpt>
<trkpt lat="22.126022" lon="104.646690">
<ele>79.001038</ele>
<time>2011-04-28T04:23:29Z</time>
<desc>lat.=22.126022, lon.=104.646690, Alt.=79.001038m. Speed=0.000000m/h.</desc>
<speed>0.000000</speed>
</trkpt>
<trkpt lat="22.126022" lon="104.646690">
<ele>79.022522</ele>
<time>2011-04-28T04:23:34Z</time>
<desc>lat.=22.126022, lon.=104.646690, Alt.=79.022522m. Speed=0.000000m/h.</desc>
<speed>0.000000</speed>
</trkpt>
<trkpt lat="22.126022" lon="104.646690">
<ele>79.045959</ele>
<time>2011-04-28T04:23:39Z</time>
<desc>lat.=22.126022, lon.=104.646690, Alt.=79.045959m. Speed=0.072000m/h.</desc>
<speed>0.020000</speed>
</trkpt>
<trkpt lat="22.126022" lon="104.646690">
<ele>79.038147</ele>
<time>2011-04-28T04:23:44Z</time>
<desc>lat.=22.126022, lon.=104.646690, Alt.=79.038147m. Speed=0.000000m/h.</desc>
<speed>0.000000</speed>
</trkpt>
<trkpt lat="22.126022" lon="104.646690">
<ele>79.024475</ele>
<time>2011-04-28T04:23:49Z</time>
<desc>lat.=22.126022, lon.=104.646690, Alt.=79.024475m. Speed=0.000000m/h.</desc>
<speed>0.000000</speed>
</trkpt>
<trkpt lat="22.126022" lon="104.646690">
<ele>79.034241</ele>
<time>2011-04-28T04:23:54Z</time>
<desc>lat.=22.126022, lon.=104.646690, Alt.=79.034241m. Speed=0.036000m/h.</desc>
<speed>0.010000</speed>
</trkpt>
<trkpt lat="22.126022" lon="104.646690">
<ele>79.047913</ele>
<time>2011-04-28T04:23:59Z</time>
<desc>lat.=22.126022, lon.=104.646690, Alt.=79.047913m. Speed=0.000000m/h.</desc>
<speed>0.000000</speed>
</trkpt>
<trkpt lat="22.126022" lon="104.646690">
<ele>79.042053</ele>
<time>2011-04-28T04:24:04Z</time>
<desc>lat.=22.126022, lon.=104.646690, Alt.=79.042053m. Speed=0.000000m/h.</desc>
<speed>0.000000</speed>
</trkpt>
<trkpt lat="22.126020" lon="104.646690">
<ele>79.047913</ele>
<time>2011-04-28T04:24:09Z</time>
<desc>lat.=22.126020, lon.=104.646690, Alt.=79.047913m. Speed=0.072000m/h.</desc>
<speed>0.020000</speed>
</trkpt>
<trkpt lat="22.126020" lon="104.646690">
<ele>79.061584</ele>
<time>2011-04-28T04:24:14Z</time>
<desc>lat.=22.126020, lon.=104.646690, Alt.=79.061584m. Speed=0.108000m/h.</desc>
<speed>0.030000</speed>
</trkpt>
<trkpt lat="22.126020" lon="104.646690">
<ele>79.065491</ele>
<time>2011-04-28T04:24:19Z</time>
<desc>lat.=22.126020, lon.=104.646690, Alt.=79.065491m. Speed=0.072000m/h.</desc>
<speed>0.020000</speed>
</trkpt>
<trkpt lat="22.126020" lon="104.646690">
<ele>79.057678</ele>
<time>2011-04-28T04:24:24Z</time>
<desc>lat.=22.126020, lon.=104.646690, Alt.=79.057678m. Speed=0.036000m/h.</desc>
<speed>0.010000</speed>
</trkpt>
<trkpt lat="22.126020" lon="104.646690">
<ele>79.055725</ele>
<time>2011-04-28T04:24:29Z</time>
<desc>lat.=22.126020, lon.=104.646690, Alt.=79.055725m. Speed=0.000000m/h.</desc>
<speed>0.000000</speed>
</trkpt>
<trkpt lat="22.126020" lon="104.646690">
<ele>79.059631</ele>
<time>2011-04-28T04:24:34Z</time>
<desc>lat.=22.126020, lon.=104.646690, Alt.=79.059631m. Speed=0.072000m/h.</desc>
<speed>0.020000</speed>
</trkpt>
<trkpt lat="22.126020" lon="104.646690">
<ele>79.032288</ele>
<time>2011-04-28T04:24:39Z</time>
<desc>lat.=22.126020, lon.=104.646690, Alt.=79.032288m. Speed=0.036000m/h.</desc>
<speed>0.010000</speed>
</trkpt>
<trkpt lat="22.126020" lon="104.646690">
<ele>79.045959</ele>
<time>2011-04-28T04:24:44Z</time>
<desc>lat.=22.126020, lon.=104.646690, Alt.=79.045959m. Speed=0.000000m/h.</desc>
<speed>0.000000</speed>
</trkpt>
<trkpt lat="22.126020" lon="104.646690">
<ele>79.075256</ele>
<time>2011-04-28T04:24:49Z</time>
<desc>lat.=22.126020, lon.=104.646690, Alt.=79.075256m. Speed=0.036000m/h.</desc>
<speed>0.010000</speed>
</trkpt>
<trkpt lat="22.126020" lon="104.646690">
<ele>79.061584</ele>
<time>2011-04-28T04:24:54Z</time>
<desc>lat.=22.126020, lon.=104.646690, Alt.=79.061584m. Speed=0.036000m/h.</desc>
<speed>0.010000</speed>
</trkpt>
<trkpt lat="22.126020" lon="104.646690">
<ele>79.053772</ele>
<time>2011-04-28T04:24:59Z</time>
<desc>lat.=22.126020, lon.=104.646690, Alt.=79.053772m. Speed=0.036000m/h.</desc>
<speed>0.010000</speed>
</trkpt>
<trkpt lat="22.126020" lon="104.646690">
<ele>79.069397</ele>
<time>2011-04-28T04:25:04Z</time>
<desc>lat.=22.126020, lon.=104.646690, Alt.=79.069397m. Speed=0.072000m/h.</desc>
<speed>0.020000</speed>
</trkpt>
<trkpt lat="22.126020" lon="104.646690">
<ele>79.067444</ele>
<time>2011-04-28T04:25:09Z</time>
<desc>lat.=22.126020, lon.=104.646690, Alt.=79.067444m. Speed=0.252000m/h.</desc>
<speed>0.070000</speed>
</trkpt>
<trkpt lat="22.125919" lon="104.646736">
<ele>79.012756</ele>
<time>2011-04-28T04:25:14Z</time>
<desc>lat.=22.125919, lon.=104.646736, Alt.=79.012756m. Speed=11.448000m/h.</desc>
<speed>3.180000</speed>
</trkpt>
<trkpt lat="22.125708" lon="104.646820">
<ele>79.768616</ele>
<time>2011-04-28T04:25:19Z</time>
<desc>lat.=22.125708, lon.=104.646820, Alt.=79.768616m. Speed=18.180000m/h.</desc>
<speed>5.050000</speed>
</trkpt>
<trkpt lat="22.125444" lon="104.646935">
<ele>80.243225</ele>
<time>2011-04-28T04:25:24Z</time>
<desc>lat.=22.125444, lon.=104.646935, Alt.=80.243225m. Speed=21.600000m/h.</desc>
<speed>6.000000</speed>
</trkpt>
<trkpt lat="22.125214" lon="104.647087">
<ele>81.670959</ele>
<time>2011-04-28T04:25:29Z</time>
<desc>lat.=22.125214, lon.=104.647087, Alt.=81.670959m. Speed=20.988001m/h.</desc>
<speed>5.830000</speed>
</trkpt>
<trkpt lat="22.125008" lon="104.647270">
<ele>85.319397</ele>
<time>2011-04-28T04:25:34Z</time>
<desc>lat.=22.125008, lon.=104.647270, Alt.=85.319397m. Speed=23.507999m/h.</desc>
<speed>6.530000</speed>
</trkpt>
<trkpt lat="22.124842" lon="104.647476">
<ele>90.702209</ele>
<time>2011-04-28T04:25:39Z</time>
<desc>lat.=22.124842, lon.=104.647476, Alt.=90.702209m. Speed=16.452000m/h.</desc>
<speed>4.570000</speed>
</trkpt>
<trkpt lat="22.124716" lon="104.647606">
<ele>93.327209</ele>
<time>2011-04-28T04:25:44Z</time>
<desc>lat.=22.124716, lon.=104.647606, Alt.=93.327209m. Speed=10.836000m/h.</desc>
<speed>3.010000</speed>
</trkpt>
<trkpt lat="22.124590" lon="104.647736">
<ele>97.981506</ele>
<time>2011-04-28T04:25:49Z</time>
<desc>lat.=22.124590, lon.=104.647736, Alt.=97.981506m. Speed=12.528000m/h.</desc>
<speed>3.480000</speed>
</trkpt>
<trkpt lat="22.124481" lon="104.647827">
<ele>99.799866</ele>
<time>2011-04-28T04:25:54Z</time>
<desc>lat.=22.124481, lon.=104.647827, Alt.=99.799866m. Speed=9.144000m/h.</desc>
<speed>2.540000</speed>
</trkpt>
<trkpt lat="22.124376" lon="104.647926">
<ele>101.856506</ele>
<time>2011-04-28T04:25:59Z</time>
<desc>lat.=22.124376, lon.=104.647926, Alt.=101.856506m. Speed=7.704000m/h.</desc>
<speed>2.140000</speed>
</trkpt>
<trkpt lat="22.124315" lon="104.648010">
<ele>103.608459</ele>
<time>2011-04-28T04:26:04Z</time>
<desc>lat.=22.124315, lon.=104.648010, Alt.=103.608459m. Speed=5.652000m/h.</desc>
<speed>1.570000</speed>
</trkpt>
<trkpt lat="22.124208" lon="104.648170">
<ele>106.335022</ele>
<time>2011-04-28T04:26:09Z</time>
<desc>lat.=22.124208, lon.=104.648170, Alt.=106.335022m. Speed=12.672000m/h.</desc>
<speed>3.520000</speed>
</trkpt>
<trkpt lat="22.124119" lon="104.648338">
<ele>106.991272</ele>
<time>2011-04-28T04:26:14Z</time>
<desc>lat.=22.124119, lon.=104.648338, Alt.=106.991272m. Speed=12.888000m/h.</desc>
<speed>3.580000</speed>
</trkpt>
<trkpt lat="22.123985" lon="104.648483">
<ele>108.241272</ele>
<time>2011-04-28T04:26:19Z</time>
<desc>lat.=22.123985, lon.=104.648483, Alt.=108.241272m. Speed=13.752000m/h.</desc>
<speed>3.820000</speed>
</trkpt>
<trkpt lat="22.123829" lon="104.648628">
<ele>108.960022</ele>
<time>2011-04-28T04:26:24Z</time>
<desc>lat.=22.123829, lon.=104.648628, Alt.=108.960022m. Speed=15.552000m/h.</desc>
<speed>4.320000</speed>
</trkpt>
<trkpt lat="22.123634" lon="104.648758">
<ele>107.754944</ele>
<time>2011-04-28T04:26:29Z</time>
<desc>lat.=22.123634, lon.=104.648758, Alt.=107.754944m. Speed=14.472000m/h.</desc>
<speed>4.020000</speed>
</trkpt>
<trkpt lat="22.123486" lon="104.648903">
<ele>108.792053</ele>
<time>2011-04-28T04:26:34Z</time>
<desc>lat.=22.123486, lon.=104.648903, Alt.=108.792053m. Speed=14.580000m/h.</desc>
<speed>4.050000</speed>
</trkpt>
<trkpt lat="22.123339" lon="104.649124">
<ele>110.309631</ele>
<time>2011-04-28T04:26:39Z</time>
<desc>lat.=22.123339, lon.=104.649124, Alt.=110.309631m. Speed=13.968000m/h.</desc>
<speed>3.880000</speed>
</trkpt>
<trkpt lat="22.123196" lon="104.649261">
<ele>108.081116</ele>
<time>2011-04-28T04:26:44Z</time>
<desc>lat.=22.123196, lon.=104.649261, Alt.=108.081116m. Speed=14.940000m/h.</desc>
<speed>4.150000</speed>
</trkpt>
<trkpt lat="22.123049" lon="104.649384">
<ele>103.538147</ele>
<time>2011-04-28T04:26:49Z</time>
<desc>lat.=22.123049, lon.=104.649384, Alt.=103.538147m. Speed=11.880000m/h.</desc>
<speed>3.300000</speed>
</trkpt>
<trkpt lat="22.122904" lon="104.649506">
<ele>102.801819</ele>
<time>2011-04-28T04:26:54Z</time>
<desc>lat.=22.122904, lon.=104.649506, Alt.=102.801819m. Speed=12.708000m/h.</desc>
<speed>3.530000</speed>
</trkpt>
<trkpt lat="22.122786" lon="104.649597">
<ele>100.454163</ele>
<time>2011-04-28T04:26:59Z</time>
<desc>lat.=22.122786, lon.=104.649597, Alt.=100.454163m. Speed=13.824000m/h.</desc>
<speed>3.840000</speed>
</trkpt>
<trkpt lat="22.122681" lon="104.649796">
<ele>102.545959</ele>
<time>2011-04-28T04:27:04Z</time>
<desc>lat.=22.122681, lon.=104.649796, Alt.=102.545959m. Speed=18.252001m/h.</desc>
<speed>5.070000</speed>
</trkpt>
<trkpt lat="22.122517" lon="104.650108">
<ele>99.321350</ele>
<time>2011-04-28T04:27:09Z</time>
<desc>lat.=22.122517, lon.=104.650108, Alt.=99.321350m. Speed=23.148001m/h.</desc>
<speed>6.430000</speed>
</trkpt>
<trkpt lat="22.122322" lon="104.650383">
<ele>96.817444</ele>
<time>2011-04-28T04:27:14Z</time>
<desc>lat.=22.122322, lon.=104.650383, Alt.=96.817444m. Speed=20.736000m/h.</desc>
<speed>5.760000</speed>
</trkpt>
<trkpt lat="22.122137" lon="104.650589">
<ele>93.100647</ele>
<time>2011-04-28T04:27:19Z</time>
<desc>lat.=22.122137, lon.=104.650589, Alt.=93.100647m. Speed=19.728001m/h.</desc>
<speed>5.480000</speed>
</trkpt>
<trkpt lat="22.121925" lon="104.650772">
<ele>90.754944</ele>
<time>2011-04-28T04:27:24Z</time>
<desc>lat.=22.121925, lon.=104.650772, Alt.=90.754944m. Speed=16.884001m/h.</desc>
<speed>4.690000</speed>
</trkpt>
<trkpt lat="22.121729" lon="104.650871">
<ele>89.127991</ele>
<time>2011-04-28T04:27:29Z</time>
<desc>lat.=22.121729, lon.=104.650871, Alt.=89.127991m. Speed=17.136000m/h.</desc>
<speed>4.760000</speed>
</trkpt>
<trkpt lat="22.121542" lon="104.650978">
<ele>84.495178</ele>
<time>2011-04-28T04:27:34Z</time>
<desc>lat.=22.121542, lon.=104.650978, Alt.=84.495178m. Speed=18.792000m/h.</desc>
<speed>5.220000</speed>
</trkpt>
<trkpt lat="22.121346" lon="104.651161">
<ele>83.598694</ele>
<time>2011-04-28T04:27:39Z</time>
<desc>lat.=22.121346, lon.=104.651161, Alt.=83.598694m. Speed=22.068001m/h.</desc>
<speed>6.130000</speed>
</trkpt>
<trkpt lat="22.121124" lon="104.651390">
<ele>82.215881</ele>
<time>2011-04-28T04:27:44Z</time>
<desc>lat.=22.121124, lon.=104.651390, Alt.=82.215881m. Speed=20.988001m/h.</desc>
<speed>5.830000</speed>
</trkpt>
<trkpt lat="22.120934" lon="104.651611">
<ele>82.321350</ele>
<time>2011-04-28T04:27:49Z</time>
<desc>lat.=22.120934, lon.=104.651611, Alt.=82.321350m. Speed=21.528000m/h.</desc>
<speed>5.980000</speed>
</trkpt>
<trkpt lat="22.120754" lon="104.651787">
<ele>79.368225</ele>
<time>2011-04-28T04:27:54Z</time>
<desc>lat.=22.120754, lon.=104.651787, Alt.=79.368225m. Speed=19.296000m/h.</desc>
<speed>5.360000</speed>
</trkpt>
<trkpt lat="22.120569" lon="104.651947">
<ele>77.969788</ele>
<time>2011-04-28T04:27:59Z</time>
<desc>lat.=22.120569, lon.=104.651947, Alt.=77.969788m. Speed=17.676001m/h.</desc>
<speed>4.910000</speed>
</trkpt>
<trkpt lat="22.120390" lon="104.652100">
<ele>77.752991</ele>
<time>2011-04-28T04:28:04Z</time>
<desc>lat.=22.120390, lon.=104.652100, Alt.=77.752991m. Speed=18.504000m/h.</desc>
<speed>5.140000</speed>
</trkpt>
<trkpt lat="22.120171" lon="104.652252">
<ele>80.456116</ele>
<time>2011-04-28T04:28:09Z</time>
<desc>lat.=22.120171, lon.=104.652252, Alt.=80.456116m. Speed=17.604000m/h.</desc>
<speed>4.890000</speed>
</trkpt>
<trkpt lat="22.119955" lon="104.652306">
<ele>79.067444</ele>
<time>2011-04-28T04:28:14Z</time>
<desc>lat.=22.119955, lon.=104.652306, Alt.=79.067444m. Speed=15.804000m/h.</desc>
<speed>4.390000</speed>
</trkpt>
<trkpt lat="22.119743" lon="104.652351">
<ele>79.844788</ele>
<time>2011-04-28T04:28:19Z</time>
<desc>lat.=22.119743, lon.=104.652351, Alt.=79.844788m. Speed=16.812000m/h.</desc>
<speed>4.670000</speed>
</trkpt>
<trkpt lat="22.119541" lon="104.652397">
<ele>81.754944</ele>
<time>2011-04-28T04:28:24Z</time>
<desc>lat.=22.119541, lon.=104.652397, Alt.=81.754944m. Speed=16.488001m/h.</desc>
<speed>4.580000</speed>
</trkpt>
<trkpt lat="22.119324" lon="104.652458">
<ele>84.307678</ele>
<time>2011-04-28T04:28:29Z</time>
<desc>lat.=22.119324, lon.=104.652458, Alt.=84.307678m. Speed=14.652000m/h.</desc>
<speed>4.070000</speed>
</trkpt>
<trkpt lat="22.119223" lon="104.652664">
<ele>85.116272</ele>
<time>2011-04-28T04:28:34Z</time>
<desc>lat.=22.119223, lon.=104.652664, Alt.=85.116272m. Speed=17.243999m/h.</desc>
<speed>4.790000</speed>
</trkpt>
<trkpt lat="22.119263" lon="104.652885">
<ele>84.835022</ele>
<time>2011-04-28T04:28:39Z</time>
<desc>lat.=22.119263, lon.=104.652885, Alt.=84.835022m. Speed=14.544000m/h.</desc>
<speed>4.040000</speed>
</trkpt>
<trkpt lat="22.119307" lon="104.653130">
<ele>83.733459</ele>
<time>2011-04-28T04:28:44Z</time>
<desc>lat.=22.119307, lon.=104.653130, Alt.=83.733459m. Speed=17.712000m/h.</desc>
<speed>4.920000</speed>
</trkpt>
<trkpt lat="22.119339" lon="104.653397">
<ele>84.196350</ele>
<time>2011-04-28T04:28:49Z</time>
<desc>lat.=22.119339, lon.=104.653397, Alt.=84.196350m. Speed=19.836000m/h.</desc>
<speed>5.510000</speed>
</trkpt>
<trkpt lat="22.119278" lon="104.653671">
<ele>83.350647</ele>
<time>2011-04-28T04:28:54Z</time>
<desc>lat.=22.119278, lon.=104.653671, Alt.=83.350647m. Speed=21.384001m/h.</desc>
<speed>5.940000</speed>
</trkpt>
<trkpt lat="22.119133" lon="104.653885">
<ele>83.956116</ele>
<time>2011-04-28T04:28:59Z</time>
<desc>lat.=22.119133, lon.=104.653885, Alt.=83.956116m. Speed=14.004000m/h.</desc>
<speed>3.890000</speed>
</trkpt>
<trkpt lat="22.119043" lon="104.653984">
<ele>84.821350</ele>
<time>2011-04-28T04:29:04Z</time>
<desc>lat.=22.119043, lon.=104.653984, Alt.=84.821350m. Speed=8.244000m/h.</desc>
<speed>2.290000</speed>
</trkpt>
<trkpt lat="22.118986" lon="104.654083">
<ele>84.954163</ele>
<time>2011-04-28T04:29:09Z</time>
<desc>lat.=22.118986, lon.=104.654083, Alt.=84.954163m. Speed=9.576000m/h.</desc>
<speed>2.660000</speed>
</trkpt>
<trkpt lat="22.118893" lon="104.654213">
<ele>87.948303</ele>
<time>2011-04-28T04:29:14Z</time>
<desc>lat.=22.118893, lon.=104.654213, Alt.=87.948303m. Speed=12.060000m/h.</desc>
<speed>3.350000</speed>
</trkpt>
<trkpt lat="22.118792" lon="104.654343">
<ele>89.333069</ele>
<time>2011-04-28T04:29:19Z</time>
<desc>lat.=22.118792, lon.=104.654343, Alt.=89.333069m. Speed=14.580000m/h.</desc>
<speed>4.050000</speed>
</trkpt>
<trkpt lat="22.118658" lon="104.654526">
<ele>91.836975</ele>
<time>2011-04-28T04:29:24Z</time>
<desc>lat.=22.118658, lon.=104.654526, Alt.=91.836975m. Speed=15.912000m/h.</desc>
<speed>4.420000</speed>
</trkpt>
<trkpt lat="22.118515" lon="104.654663">
<ele>93.139709</ele>
<time>2011-04-28T04:29:29Z</time>
<desc>lat.=22.118515, lon.=104.654663, Alt.=93.139709m. Speed=15.336000m/h.</desc>
<speed>4.260000</speed>
</trkpt>
<trkpt lat="22.118364" lon="104.654816">
<ele>96.512756</ele>
<time>2011-04-28T04:29:34Z</time>
<desc>lat.=22.118364, lon.=104.654816, Alt.=96.512756m. Speed=18.360001m/h.</desc>
<speed>5.100000</speed>
</trkpt>
<trkpt lat="22.118233" lon="104.654915">
<ele>98.772522</ele>
<time>2011-04-28T04:29:39Z</time>
<desc>lat.=22.118233, lon.=104.654915, Alt.=98.772522m. Speed=11.988000m/h.</desc>
<speed>3.330000</speed>
</trkpt>
<trkpt lat="22.118105" lon="104.655029">
<ele>100.417053</ele>
<time>2011-04-28T04:29:44Z</time>
<desc>lat.=22.118105, lon.=104.655029, Alt.=100.417053m. Speed=13.788000m/h.</desc>
<speed>3.830000</speed>
</trkpt>
<trkpt lat="22.117945" lon="104.655151">
<ele>102.126038</ele>
<time>2011-04-28T04:29:49Z</time>
<desc>lat.=22.117945, lon.=104.655151, Alt.=102.126038m. Speed=15.552000m/h.</desc>
<speed>4.320000</speed>
</trkpt>
<trkpt lat="22.117769" lon="104.655304">
<ele>102.674866</ele>
<time>2011-04-28T04:29:54Z</time>
<desc>lat.=22.117769, lon.=104.655304, Alt.=102.674866m. Speed=18.323999m/h.</desc>
<speed>5.090000</speed>
</trkpt>
<trkpt lat="22.117598" lon="104.655464">
<ele>101.387756</ele>
<time>2011-04-28T04:29:59Z</time>
<desc>lat.=22.117598, lon.=104.655464, Alt.=101.387756m. Speed=17.892000m/h.</desc>
<speed>4.970000</speed>
</trkpt>
<trkpt lat="22.117426" lon="104.655632">
<ele>100.604553</ele>
<time>2011-04-28T04:30:04Z</time>
<desc>lat.=22.117426, lon.=104.655632, Alt.=100.604553m. Speed=15.084000m/h.</desc>
<speed>4.190000</speed>
</trkpt>
<trkpt lat="22.117306" lon="104.655777">
<ele>100.200256</ele>
<time>2011-04-28T04:30:09Z</time>
<desc>lat.=22.117306, lon.=104.655777, Alt.=100.200256m. Speed=13.680000m/h.</desc>
<speed>3.800000</speed>
</trkpt>
<trkpt lat="22.117210" lon="104.655930">
<ele>99.340881</ele>
<time>2011-04-28T04:30:14Z</time>
<desc>lat.=22.117210, lon.=104.655930, Alt.=99.340881m. Speed=14.544000m/h.</desc>
<speed>4.040000</speed>
</trkpt>
<trkpt lat="22.117144" lon="104.656143">
<ele>98.663147</ele>
<time>2011-04-28T04:30:19Z</time>
<desc>lat.=22.117144, lon.=104.656143, Alt.=98.663147m. Speed=16.379999m/h.</desc>
<speed>4.550000</speed>
</trkpt>
<trkpt lat="22.117062" lon="104.656357">
<ele>98.180725</ele>
<time>2011-04-28T04:30:24Z</time>
<desc>lat.=22.117062, lon.=104.656357, Alt.=98.180725m. Speed=14.580000m/h.</desc>
<speed>4.050000</speed>
</trkpt>
<trkpt lat="22.116982" lon="104.656563">
<ele>97.508850</ele>
<time>2011-04-28T04:30:29Z</time>
<desc>lat.=22.116982, lon.=104.656563, Alt.=97.508850m. Speed=16.740000m/h.</desc>
<speed>4.650000</speed>
</trkpt>
<trkpt lat="22.116890" lon="104.656754">
<ele>95.506897</ele>
<time>2011-04-28T04:30:34Z</time>
<desc>lat.=22.116890, lon.=104.656754, Alt.=95.506897m. Speed=13.428000m/h.</desc>
<speed>3.730000</speed>
</trkpt>
<trkpt lat="22.116800" lon="104.656944">
<ele>95.549866</ele>
<time>2011-04-28T04:30:39Z</time>
<desc>lat.=22.116800, lon.=104.656944, Alt.=95.549866m. Speed=16.344000m/h.</desc>
<speed>4.540000</speed>
</trkpt>
<trkpt lat="22.116701" lon="104.657104">
<ele>95.167053</ele>
<time>2011-04-28T04:30:44Z</time>
<desc>lat.=22.116701, lon.=104.657104, Alt.=95.167053m. Speed=15.408000m/h.</desc>
<speed>4.280000</speed>
</trkpt>
<trkpt lat="22.116571" lon="104.657272">
<ele>94.510803</ele>
<time>2011-04-28T04:30:49Z</time>
<desc>lat.=22.116571, lon.=104.657272, Alt.=94.510803m. Speed=17.100000m/h.</desc>
<speed>4.750000</speed>
</trkpt>
<trkpt lat="22.116423" lon="104.657425">
<ele>94.262756</ele>
<time>2011-04-28T04:30:54Z</time>
<desc>lat.=22.116423, lon.=104.657425, Alt.=94.262756m. Speed=15.696000m/h.</desc>
<speed>4.360000</speed>
</trkpt>
<trkpt lat="22.116276" lon="104.657562">
<ele>93.395569</ele>
<time>2011-04-28T04:30:59Z</time>
<desc>lat.=22.116276, lon.=104.657562, Alt.=93.395569m. Speed=16.775999m/h.</desc>
<speed>4.660000</speed>
</trkpt>
<trkpt lat="22.116100" lon="104.657707">
<ele>94.456116</ele>
<time>2011-04-28T04:31:04Z</time>
<desc>lat.=22.116100, lon.=104.657707, Alt.=94.456116m. Speed=17.028000m/h.</desc>
<speed>4.730000</speed>
</trkpt>
<trkpt lat="22.115952" lon="104.657852">
<ele>94.682678</ele>
<time>2011-04-28T04:31:09Z</time>
<desc>lat.=22.115952, lon.=104.657852, Alt.=94.682678m. Speed=16.596001m/h.</desc>
<speed>4.610000</speed>
</trkpt>
<trkpt lat="22.115782" lon="104.657974">
<ele>93.747131</ele>
<time>2011-04-28T04:31:14Z</time>
<desc>lat.=22.115782, lon.=104.657974, Alt.=93.747131m. Speed=14.760000m/h.</desc>
<speed>4.100000</speed>
</trkpt>
<trkpt lat="22.115623" lon="104.658035">
<ele>92.903381</ele>
<time>2011-04-28T04:31:19Z</time>
<desc>lat.=22.115623, lon.=104.658035, Alt.=92.903381m. Speed=11.520000m/h.</desc>
<speed>3.200000</speed>
</trkpt>
<trkpt lat="22.115501" lon="104.658089">
<ele>92.585022</ele>
<time>2011-04-28T04:31:24Z</time>
<desc>lat.=22.115501, lon.=104.658089, Alt.=92.585022m. Speed=10.980000m/h.</desc>
<speed>3.050000</speed>
</trkpt>
<trkpt lat="22.115391" lon="104.658195">
<ele>93.045959</ele>
<time>2011-04-28T04:31:29Z</time>
<desc>lat.=22.115391, lon.=104.658195, Alt.=93.045959m. Speed=12.204000m/h.</desc>
<speed>3.390000</speed>
</trkpt>
<trkpt lat="22.115309" lon="104.658371">
<ele>93.040100</ele>
<time>2011-04-28T04:31:34Z</time>
<desc>lat.=22.115309, lon.=104.658371, Alt.=93.040100m. Speed=13.500000m/h.</desc>
<speed>3.750000</speed>
</trkpt>
<trkpt lat="22.115292" lon="104.658524">
<ele>92.465881</ele>
<time>2011-04-28T04:31:39Z</time>
<desc>lat.=22.115292, lon.=104.658524, Alt.=92.465881m. Speed=13.572000m/h.</desc>
<speed>3.770000</speed>
</trkpt>
<trkpt lat="22.115301" lon="104.658676">
<ele>91.069397</ele>
<time>2011-04-28T04:31:44Z</time>
<desc>lat.=22.115301, lon.=104.658676, Alt.=91.069397m. Speed=12.780000m/h.</desc>
<speed>3.550000</speed>
</trkpt>
<trkpt lat="22.115351" lon="104.658875">
<ele>88.020569</ele>
<time>2011-04-28T04:31:49Z</time>
<desc>lat.=22.115351, lon.=104.658875, Alt.=88.020569m. Speed=13.176000m/h.</desc>
<speed>3.660000</speed>
</trkpt>
<trkpt lat="22.115396" lon="104.659035">
<ele>87.963928</ele>
<time>2011-04-28T04:31:54Z</time>
<desc>lat.=22.115396, lon.=104.659035, Alt.=87.963928m. Speed=12.348000m/h.</desc>
<speed>3.430000</speed>
</trkpt>
<trkpt lat="22.115450" lon="104.659195">
<ele>87.778381</ele>
<time>2011-04-28T04:31:59Z</time>
<desc>lat.=22.115450, lon.=104.659195, Alt.=87.778381m. Speed=10.368000m/h.</desc>
<speed>2.880000</speed>
</trkpt>
<trkpt lat="22.115488" lon="104.659332">
<ele>87.713928</ele>
<time>2011-04-28T04:32:04Z</time>
<desc>lat.=22.115488, lon.=104.659332, Alt.=87.713928m. Speed=10.620000m/h.</desc>
<speed>2.950000</speed>
</trkpt>
<trkpt lat="22.115507" lon="104.659470">
<ele>88.190491</ele>
<time>2011-04-28T04:32:09Z</time>
<desc>lat.=22.115507, lon.=104.659470, Alt.=88.190491m. Speed=9.684000m/h.</desc>
<speed>2.690000</speed>
</trkpt>
<trkpt lat="22.115490" lon="104.659592">
<ele>89.583069</ele>
<time>2011-04-28T04:32:14Z</time>
<desc>lat.=22.115490, lon.=104.659592, Alt.=89.583069m. Speed=8.604000m/h.</desc>
<speed>2.390000</speed>
</trkpt>
<trkpt lat="22.115450" lon="104.659706">
<ele>91.217834</ele>
<time>2011-04-28T04:32:19Z</time>
<desc>lat.=22.115450, lon.=104.659706, Alt.=91.217834m. Speed=8.964000m/h.</desc>
<speed>2.490000</speed>
</trkpt>
<trkpt lat="22.115425" lon="104.659813">
<ele>92.639709</ele>
<time>2011-04-28T04:32:24Z</time>
<desc>lat.=22.115425, lon.=104.659813, Alt.=92.639709m. Speed=8.604000m/h.</desc>
<speed>2.390000</speed>
</trkpt>
<trkpt lat="22.115396" lon="104.659927">
<ele>94.450256</ele>
<time>2011-04-28T04:32:29Z</time>
<desc>lat.=22.115396, lon.=104.659927, Alt.=94.450256m. Speed=9.000000m/h.</desc>
<speed>2.500000</speed>
</trkpt>
<trkpt lat="22.115297" lon="104.660034">
<ele>95.504944</ele>
<time>2011-04-28T04:32:34Z</time>
<desc>lat.=22.115297, lon.=104.660034, Alt.=95.504944m. Speed=12.780000m/h.</desc>
<speed>3.550000</speed>
</trkpt>
<trkpt lat="22.115126" lon="104.660072">
<ele>95.944397</ele>
<time>2011-04-28T04:32:39Z</time>
<desc>lat.=22.115126, lon.=104.660072, Alt.=95.944397m. Speed=15.984000m/h.</desc>
<speed>4.440000</speed>
</trkpt>
<trkpt lat="22.114933" lon="104.660133">
<ele>97.176819</ele>
<time>2011-04-28T04:32:44Z</time>
<desc>lat.=22.114933, lon.=104.660133, Alt.=97.176819m. Speed=18.180000m/h.</desc>
<speed>5.050000</speed>
</trkpt>
<trkpt lat="22.114702" lon="104.660278">
<ele>99.581116</ele>
<time>2011-04-28T04:32:49Z</time>
<desc>lat.=22.114702, lon.=104.660278, Alt.=99.581116m. Speed=18.576000m/h.</desc>
<speed>5.160000</speed>
</trkpt>
<trkpt lat="22.114477" lon="104.660484">
<ele>101.532288</ele>
<time>2011-04-28T04:32:54Z</time>
<desc>lat.=22.114477, lon.=104.660484, Alt.=101.532288m. Speed=23.903999m/h.</desc>
<speed>6.640000</speed>
</trkpt>
<trkpt lat="22.114210" lon="104.660675">
<ele>103.096741</ele>
<time>2011-04-28T04:32:59Z</time>
<desc>lat.=22.114210, lon.=104.660675, Alt.=103.096741m. Speed=23.615999m/h.</desc>
<speed>6.560000</speed>
</trkpt>
<trkpt lat="22.113951" lon="104.660843">
<ele>104.045959</ele>
<time>2011-04-28T04:33:04Z</time>
<desc>lat.=22.113951, lon.=104.660843, Alt.=104.045959m. Speed=22.427999m/h.</desc>
<speed>6.230000</speed>
</trkpt>
<trkpt lat="22.113693" lon="104.660950">
<ele>106.930725</ele>
<time>2011-04-28T04:33:09Z</time>
<desc>lat.=22.113693, lon.=104.660950, Alt.=106.930725m. Speed=20.520000m/h.</desc>
<speed>5.700000</speed>
</trkpt>
<trkpt lat="22.113518" lon="104.661140">
<ele>106.954163</ele>
<time>2011-04-28T04:33:14Z</time>
<desc>lat.=22.113518, lon.=104.661140, Alt.=106.954163m. Speed=18.576000m/h.</desc>
<speed>5.160000</speed>
</trkpt>
<trkpt lat="22.113329" lon="104.661308">
<ele>106.075256</ele>
<time>2011-04-28T04:33:19Z</time>
<desc>lat.=22.113329, lon.=104.661308, Alt.=106.075256m. Speed=19.080000m/h.</desc>
<speed>5.300000</speed>
</trkpt>
<trkpt lat="22.113150" lon="104.661469">
<ele>105.399475</ele>
<time>2011-04-28T04:33:24Z</time>
<desc>lat.=22.113150, lon.=104.661469, Alt.=105.399475m. Speed=18.756001m/h.</desc>
<speed>5.210000</speed>
</trkpt>
<trkpt lat="22.112991" lon="104.661682">
<ele>105.838928</ele>
<time>2011-04-28T04:33:29Z</time>
<desc>lat.=22.112991, lon.=104.661682, Alt.=105.838928m. Speed=20.591999m/h.</desc>
<speed>5.720000</speed>
</trkpt>
<trkpt lat="22.112812" lon="104.661903">
<ele>105.116272</ele>
<time>2011-04-28T04:33:34Z</time>
<desc>lat.=22.112812, lon.=104.661903, Alt.=105.116272m. Speed=21.743999m/h.</desc>
<speed>6.040000</speed>
</trkpt>
<trkpt lat="22.112541" lon="104.661972">
<ele>104.637756</ele>
<time>2011-04-28T04:33:39Z</time>
<desc>lat.=22.112541, lon.=104.661972, Alt.=104.637756m. Speed=18.108000m/h.</desc>
<speed>5.030000</speed>
</trkpt>
<trkpt lat="22.112309" lon="104.661972">
<ele>104.981506</ele>
<time>2011-04-28T04:33:44Z</time>
<desc>lat.=22.112309, lon.=104.661972, Alt.=104.981506m. Speed=17.712000m/h.</desc>
<speed>4.920000</speed>
</trkpt>
<trkpt lat="22.112099" lon="104.661980">
<ele>105.643616</ele>
<time>2011-04-28T04:33:49Z</time>
<desc>lat.=22.112099, lon.=104.661980, Alt.=105.643616m. Speed=16.308001m/h.</desc>
<speed>4.530000</speed>
</trkpt>
<trkpt lat="22.111855" lon="104.661949">
<ele>105.422913</ele>
<time>2011-04-28T04:33:54Z</time>
<desc>lat.=22.111855, lon.=104.661949, Alt.=105.422913m. Speed=17.532000m/h.</desc>
<speed>4.870000</speed>
</trkpt>
<trkpt lat="22.111635" lon="104.661972">
<ele>105.635803</ele>
<time>2011-04-28T04:33:59Z</time>
<desc>lat.=22.111635, lon.=104.661972, Alt.=105.635803m. Speed=16.632000m/h.</desc>
<speed>4.620000</speed>
</trkpt>
<trkpt lat="22.111469" lon="104.662064">
<ele>105.952209</ele>
<time>2011-04-28T04:34:04Z</time>
<desc>lat.=22.111469, lon.=104.662064, Alt.=105.952209m. Speed=15.372000m/h.</desc>
<speed>4.270000</speed>
</trkpt>
<trkpt lat="22.111334" lon="104.662193">
<ele>106.874084</ele>
<time>2011-04-28T04:34:09Z</time>
<desc>lat.=22.111334, lon.=104.662193, Alt.=106.874084m. Speed=14.436000m/h.</desc>
<speed>4.010000</speed>
</trkpt>
<trkpt lat="22.111189" lon="104.662323">
<ele>107.460022</ele>
<time>2011-04-28T04:34:14Z</time>
<desc>lat.=22.111189, lon.=104.662323, Alt.=107.460022m. Speed=15.336000m/h.</desc>
<speed>4.260000</speed>
</trkpt>
<trkpt lat="22.111032" lon="104.662476">
<ele>108.024475</ele>
<time>2011-04-28T04:34:19Z</time>
<desc>lat.=22.111032, lon.=104.662476, Alt.=108.024475m. Speed=15.264000m/h.</desc>
<speed>4.240000</speed>
</trkpt>
<trkpt lat="22.110889" lon="104.662613">
<ele>107.952209</ele>
<time>2011-04-28T04:34:24Z</time>
<desc>lat.=22.110889, lon.=104.662613, Alt.=107.952209m. Speed=14.364000m/h.</desc>
<speed>3.990000</speed>
</trkpt>
<trkpt lat="22.110760" lon="104.662727">
<ele>108.022522</ele>
<time>2011-04-28T04:34:29Z</time>
<desc>lat.=22.110760, lon.=104.662727, Alt.=108.022522m. Speed=12.924000m/h.</desc>
<speed>3.590000</speed>
</trkpt>
<trkpt lat="22.110620" lon="104.662834">
<ele>107.965881</ele>
<time>2011-04-28T04:34:34Z</time>
<desc>lat.=22.110620, lon.=104.662834, Alt.=107.965881m. Speed=13.284000m/h.</desc>
<speed>3.690000</speed>
</trkpt>
<trkpt lat="22.110497" lon="104.662949">
<ele>107.872131</ele>
<time>2011-04-28T04:34:39Z</time>
<desc>lat.=22.110497, lon.=104.662949, Alt.=107.872131m. Speed=12.204000m/h.</desc>
<speed>3.390000</speed>
</trkpt>
<trkpt lat="22.110355" lon="104.663048">
<ele>104.420959</ele>
<time>2011-04-28T04:34:44Z</time>
<desc>lat.=22.110355, lon.=104.663048, Alt.=104.420959m. Speed=10.044000m/h.</desc>
<speed>2.790000</speed>
</trkpt>
<trkpt lat="22.110237" lon="104.663155">
<ele>103.831116</ele>
<time>2011-04-28T04:34:49Z</time>
<desc>lat.=22.110237, lon.=104.663155, Alt.=103.831116m. Speed=13.680000m/h.</desc>
<speed>3.800000</speed>
</trkpt>
<trkpt lat="22.110147" lon="104.663322">
<ele>101.684631</ele>
<time>2011-04-28T04:34:54Z</time>
<desc>lat.=22.110147, lon.=104.663322, Alt.=101.684631m. Speed=14.652000m/h.</desc>
<speed>4.070000</speed>
</trkpt>
<trkpt lat="22.110071" lon="104.663490">
<ele>101.178772</ele>
<time>2011-04-28T04:34:59Z</time>
<desc>lat.=22.110071, lon.=104.663490, Alt.=101.178772m. Speed=13.464000m/h.</desc>
<speed>3.740000</speed>
</trkpt>
<trkpt lat="22.109989" lon="104.663658">
<ele>99.598694</ele>
<time>2011-04-28T04:35:04Z</time>
<desc>lat.=22.109989, lon.=104.663658, Alt.=99.598694m. Speed=13.104000m/h.</desc>
<speed>3.640000</speed>
</trkpt>
<trkpt lat="22.109901" lon="104.663834">
<ele>96.788147</ele>
<time>2011-04-28T04:35:09Z</time>
<desc>lat.=22.109901, lon.=104.663834, Alt.=96.788147m. Speed=13.788000m/h.</desc>
<speed>3.830000</speed>
</trkpt>
<trkpt lat="22.109812" lon="104.663994">
<ele>96.479553</ele>
<time>2011-04-28T04:35:14Z</time>
<desc>lat.=22.109812, lon.=104.663994, Alt.=96.479553m. Speed=12.852000m/h.</desc>
<speed>3.570000</speed>
</trkpt>
<trkpt lat="22.109722" lon="104.664169">
<ele>96.186584</ele>
<time>2011-04-28T04:35:19Z</time>
<desc>lat.=22.109722, lon.=104.664169, Alt.=96.186584m. Speed=14.940000m/h.</desc>
<speed>4.150000</speed>
</trkpt>
<trkpt lat="22.109650" lon="104.664337">
<ele>96.047913</ele>
<time>2011-04-28T04:35:24Z</time>
<desc>lat.=22.109650, lon.=104.664337, Alt.=96.047913m. Speed=14.040000m/h.</desc>
<speed>3.900000</speed>
</trkpt>
<trkpt lat="22.109583" lon="104.664497">
<ele>95.639709</ele>
<time>2011-04-28T04:35:29Z</time>
<desc>lat.=22.109583, lon.=104.664497, Alt.=95.639709m. Speed=13.212000m/h.</desc>
<speed>3.670000</speed>
</trkpt>
<trkpt lat="22.109545" lon="104.664688">
<ele>95.311584</ele>
<time>2011-04-28T04:35:34Z</time>
<desc>lat.=22.109545, lon.=104.664688, Alt.=95.311584m. Speed=14.256000m/h.</desc>
<speed>3.960000</speed>
</trkpt>
<trkpt lat="22.109522" lon="104.664894">
<ele>93.028381</ele>
<time>2011-04-28T04:35:39Z</time>
<desc>lat.=22.109522, lon.=104.664894, Alt.=93.028381m. Speed=14.004000m/h.</desc>
<speed>3.890000</speed>
</trkpt>
<trkpt lat="22.109476" lon="104.665077">
<ele>92.856506</ele>
<time>2011-04-28T04:35:44Z</time>
<desc>lat.=22.109476, lon.=104.665077, Alt.=92.856506m. Speed=14.184000m/h.</desc>
<speed>3.940000</speed>
</trkpt>
<trkpt lat="22.109428" lon="104.665237">
<ele>92.801819</ele>
<time>2011-04-28T04:35:49Z</time>
<desc>lat.=22.109428, lon.=104.665237, Alt.=92.801819m. Speed=8.208000m/h.</desc>
<speed>2.280000</speed>
</trkpt>
<trkpt lat="22.109390" lon="104.665382">
<ele>94.805725</ele>
<time>2011-04-28T04:35:54Z</time>
<desc>lat.=22.109390, lon.=104.665382, Alt.=94.805725m. Speed=9.396000m/h.</desc>
<speed>2.610000</speed>
</trkpt>
<trkpt lat="22.109352" lon="104.665550">
<ele>95.256897</ele>
<time>2011-04-28T04:35:59Z</time>
<desc>lat.=22.109352, lon.=104.665550, Alt.=95.256897m. Speed=12.852000m/h.</desc>
<speed>3.570000</speed>
</trkpt>
<trkpt lat="22.109301" lon="104.665710">
<ele>96.680725</ele>
<time>2011-04-28T04:36:04Z</time>
<desc>lat.=22.109301, lon.=104.665710, Alt.=96.680725m. Speed=12.420000m/h.</desc>
<speed>3.450000</speed>
</trkpt>
<trkpt lat="22.109226" lon="104.665871">
<ele>99.518616</ele>
<time>2011-04-28T04:36:09Z</time>
<desc>lat.=22.109226, lon.=104.665871, Alt.=99.518616m. Speed=12.276000m/h.</desc>
<speed>3.410000</speed>
</trkpt>
<trkpt lat="22.109171" lon="104.666008">
<ele>100.319397</ele>
<time>2011-04-28T04:36:14Z</time>
<desc>lat.=22.109171, lon.=104.666008, Alt.=100.319397m. Speed=12.780000m/h.</desc>
<speed>3.550000</speed>
</trkpt>
<trkpt lat="22.109070" lon="104.666176">
<ele>99.624084</ele>
<time>2011-04-28T04:36:19Z</time>
<desc>lat.=22.109070, lon.=104.666176, Alt.=99.624084m. Speed=16.559999m/h.</desc>
<speed>4.600000</speed>
</trkpt>
<trkpt lat="22.108912" lon="104.666374">
<ele>100.241272</ele>
<time>2011-04-28T04:36:24Z</time>
<desc>lat.=22.108912, lon.=104.666374, Alt.=100.241272m. Speed=18.936001m/h.</desc>
<speed>5.260000</speed>
</trkpt>
<trkpt lat="22.108730" lon="104.666580">
<ele>101.045959</ele>
<time>2011-04-28T04:36:29Z</time>
<desc>lat.=22.108730, lon.=104.666580, Alt.=101.045959m. Speed=21.636000m/h.</desc>
<speed>6.010000</speed>
</trkpt>
<trkpt lat="22.108568" lon="104.666809">
<ele>101.108459</ele>
<time>2011-04-28T04:36:34Z</time>
<desc>lat.=22.108568, lon.=104.666809, Alt.=101.108459m. Speed=16.091999m/h.</desc>
<speed>4.470000</speed>
</trkpt>
<trkpt lat="22.108381" lon="104.667046">
<ele>100.586975</ele>
<time>2011-04-28T04:36:39Z</time>
<desc>lat.=22.108381, lon.=104.667046, Alt.=100.586975m. Speed=20.160000m/h.</desc>
<speed>5.600000</speed>
</trkpt>
<trkpt lat="22.108215" lon="104.667244">
<ele>101.116272</ele>
<time>2011-04-28T04:36:44Z</time>
<desc>lat.=22.108215, lon.=104.667244, Alt.=101.116272m. Speed=16.775999m/h.</desc>
<speed>4.660000</speed>
</trkpt>
<trkpt lat="22.108089" lon="104.667366">
<ele>101.004944</ele>
<time>2011-04-28T04:36:49Z</time>
<desc>lat.=22.108089, lon.=104.667366, Alt.=101.004944m. Speed=12.744000m/h.</desc>
<speed>3.540000</speed>
</trkpt>
<trkpt lat="22.107933" lon="104.667503">
<ele>101.942444</ele>
<time>2011-04-28T04:36:54Z</time>
<desc>lat.=22.107933, lon.=104.667503, Alt.=101.942444m. Speed=15.048000m/h.</desc>
<speed>4.180000</speed>
</trkpt>
<trkpt lat="22.107803" lon="104.667633">
<ele>102.190491</ele>
<time>2011-04-28T04:36:59Z</time>
<desc>lat.=22.107803, lon.=104.667633, Alt.=102.190491m. Speed=11.736000m/h.</desc>
<speed>3.260000</speed>
</trkpt>
<trkpt lat="22.107670" lon="104.667862">
<ele>102.866272</ele>
<time>2011-04-28T04:37:04Z</time>
<desc>lat.=22.107670, lon.=104.667862, Alt.=102.866272m. Speed=18.936001m/h.</desc>
<speed>5.260000</speed>
</trkpt>
<trkpt lat="22.107611" lon="104.668167">
<ele>103.706116</ele>
<time>2011-04-28T04:37:09Z</time>
<desc>lat.=22.107611, lon.=104.668167, Alt.=103.706116m. Speed=24.408001m/h.</desc>
<speed>6.780000</speed>
</trkpt>
<trkpt lat="22.107666" lon="104.668594">
<ele>100.393616</ele>
<time>2011-04-28T04:37:14Z</time>
<desc>lat.=22.107666, lon.=104.668594, Alt.=100.393616m. Speed=32.616001m/h.</desc>
<speed>9.060000</speed>
</trkpt>
<trkpt lat="22.107422" lon="104.668900">
<ele>100.489319</ele>
<time>2011-04-28T04:37:19Z</time>
<desc>lat.=22.107422, lon.=104.668900, Alt.=100.489319m. Speed=27.468000m/h.</desc>
<speed>7.630000</speed>
</trkpt>
<trkpt lat="22.107170" lon="104.669174">
<ele>100.163147</ele>
<time>2011-04-28T04:37:24Z</time>
<desc>lat.=22.107170, lon.=104.669174, Alt.=100.163147m. Speed=27.756001m/h.</desc>
<speed>7.710000</speed>
</trkpt>
<trkpt lat="22.106905" lon="104.669441">
<ele>101.061584</ele>
<time>2011-04-28T04:37:29Z</time>
<desc>lat.=22.106905, lon.=104.669441, Alt.=101.061584m. Speed=25.740000m/h.</desc>
<speed>7.150000</speed>
</trkpt>
<trkpt lat="22.106617" lon="104.669647">
<ele>102.958069</ele>
<time>2011-04-28T04:37:34Z</time>
<desc>lat.=22.106617, lon.=104.669647, Alt.=102.958069m. Speed=25.488001m/h.</desc>
<speed>7.080000</speed>
</trkpt>
<trkpt lat="22.106312" lon="104.669846">
<ele>107.129944</ele>
<time>2011-04-28T04:37:39Z</time>
<desc>lat.=22.106312, lon.=104.669846, Alt.=107.129944m. Speed=21.924000m/h.</desc>
<speed>6.090000</speed>
</trkpt>
<trkpt lat="22.106045" lon="104.670029">
<ele>111.364319</ele>
<time>2011-04-28T04:37:44Z</time>
<desc>lat.=22.106045, lon.=104.670029, Alt.=111.364319m. Speed=21.348000m/h.</desc>
<speed>5.930000</speed>
</trkpt>
<trkpt lat="22.105801" lon="104.670166">
<ele>115.022522</ele>
<time>2011-04-28T04:37:49Z</time>
<desc>lat.=22.105801, lon.=104.670166, Alt.=115.022522m. Speed=21.851999m/h.</desc>
<speed>6.070000</speed>
</trkpt>
<trkpt lat="22.105536" lon="104.670357">
<ele>118.352600</ele>
<time>2011-04-28T04:37:54Z</time>
<desc>lat.=22.105536, lon.=104.670357, Alt.=118.352600m. Speed=25.236000m/h.</desc>
<speed>7.010000</speed>
</trkpt>
<trkpt lat="22.105291" lon="104.670692">
<ele>120.588928</ele>
<time>2011-04-28T04:37:59Z</time>
<desc>lat.=22.105291, lon.=104.670692, Alt.=120.588928m. Speed=29.412001m/h.</desc>
<speed>8.170000</speed>
</trkpt>
<trkpt lat="22.105068" lon="104.670998">
<ele>123.495178</ele>
<time>2011-04-28T04:38:04Z</time>
<desc>lat.=22.105068, lon.=104.670998, Alt.=123.495178m. Speed=23.652000m/h.</desc>
<speed>6.570000</speed>
</trkpt>
<trkpt lat="22.104866" lon="104.671165">
<ele>125.686584</ele>
<time>2011-04-28T04:38:09Z</time>
<desc>lat.=22.104866, lon.=104.671165, Alt.=125.686584m. Speed=18.323999m/h.</desc>
<speed>5.090000</speed>
</trkpt>
<trkpt lat="22.104675" lon="104.671349">
<ele>127.360413</ele>
<time>2011-04-28T04:38:14Z</time>
<desc>lat.=22.104675, lon.=104.671349, Alt.=127.360413m. Speed=17.532000m/h.</desc>
<speed>4.870000</speed>
</trkpt>
<trkpt lat="22.104584" lon="104.671661">
<ele>127.340881</ele>
<time>2011-04-28T04:38:19Z</time>
<desc>lat.=22.104584, lon.=104.671661, Alt.=127.340881m. Speed=20.736000m/h.</desc>
<speed>5.760000</speed>
</trkpt>
<trkpt lat="22.104425" lon="104.671936">
<ele>125.219788</ele>
<time>2011-04-28T04:38:24Z</time>
<desc>lat.=22.104425, lon.=104.671936, Alt.=125.219788m. Speed=22.788000m/h.</desc>
<speed>6.330000</speed>
</trkpt>
<trkpt lat="22.104218" lon="104.672165">
<ele>122.633850</ele>
<time>2011-04-28T04:38:29Z</time>
<desc>lat.=22.104218, lon.=104.672165, Alt.=122.633850m. Speed=20.628000m/h.</desc>
<speed>5.730000</speed>
</trkpt>
<trkpt lat="22.104055" lon="104.672386">
<ele>124.010803</ele>
<time>2011-04-28T04:38:34Z</time>
<desc>lat.=22.104055, lon.=104.672386, Alt.=124.010803m. Speed=20.844000m/h.</desc>
<speed>5.790000</speed>
</trkpt>
<trkpt lat="22.103846" lon="104.672607">
<ele>121.182678</ele>
<time>2011-04-28T04:38:39Z</time>
<desc>lat.=22.103846, lon.=104.672607, Alt.=121.182678m. Speed=24.480000m/h.</desc>
<speed>6.800000</speed>
</trkpt>
<trkpt lat="22.103565" lon="104.672836">
<ele>121.829163</ele>
<time>2011-04-28T04:38:44Z</time>
<desc>lat.=22.103565, lon.=104.672836, Alt.=121.829163m. Speed=28.080000m/h.</desc>
<speed>7.800000</speed>
</trkpt>
<trkpt lat="22.103325" lon="104.673103">
<ele>122.602600</ele>
<time>2011-04-28T04:38:49Z</time>
<desc>lat.=22.103325, lon.=104.673103, Alt.=122.602600m. Speed=27.648001m/h.</desc>
<speed>7.680000</speed>
</trkpt>
<trkpt lat="22.103092" lon="104.673378">
<ele>122.829163</ele>
<time>2011-04-28T04:38:54Z</time>
<desc>lat.=22.103092, lon.=104.673378, Alt.=122.829163m. Speed=25.056000m/h.</desc>
<speed>6.960000</speed>
</trkpt>
<trkpt lat="22.102800" lon="104.673615">
<ele>122.301819</ele>
<time>2011-04-28T04:38:59Z</time>
<desc>lat.=22.102800, lon.=104.673615, Alt.=122.301819m. Speed=28.260000m/h.</desc>
<speed>7.850000</speed>
</trkpt>
<trkpt lat="22.102499" lon="104.673828">
<ele>123.626038</ele>
<time>2011-04-28T04:39:04Z</time>
<desc>lat.=22.102499, lon.=104.673828, Alt.=123.626038m. Speed=24.336000m/h.</desc>
<speed>6.760000</speed>
</trkpt>
<trkpt lat="22.102226" lon="104.674026">
<ele>122.475647</ele>
<time>2011-04-28T04:39:09Z</time>
<desc>lat.=22.102226, lon.=104.674026, Alt.=122.475647m. Speed=24.336000m/h.</desc>
<speed>6.760000</speed>
</trkpt>
<trkpt lat="22.101965" lon="104.674255">
<ele>122.969788</ele>
<time>2011-04-28T04:39:14Z</time>
<desc>lat.=22.101965, lon.=104.674255, Alt.=122.969788m. Speed=23.903999m/h.</desc>
<speed>6.640000</speed>
</trkpt>
<trkpt lat="22.101780" lon="104.674576">
<ele>119.567444</ele>
<time>2011-04-28T04:39:19Z</time>
<desc>lat.=22.101780, lon.=104.674576, Alt.=119.567444m. Speed=24.624001m/h.</desc>
<speed>6.840000</speed>
</trkpt>
<trkpt lat="22.101564" lon="104.674713">
<ele>120.647522</ele>
<time>2011-04-28T04:39:24Z</time>
<desc>lat.=22.101564, lon.=104.674713, Alt.=120.647522m. Speed=18.612000m/h.</desc>
<speed>5.170000</speed>
</trkpt>
<trkpt lat="22.101337" lon="104.674797">
<ele>121.348694</ele>
<time>2011-04-28T04:39:29Z</time>
<desc>lat.=22.101337, lon.=104.674797, Alt.=121.348694m. Speed=18.972000m/h.</desc>
<speed>5.270000</speed>
</trkpt>
<trkpt lat="22.101084" lon="104.674881">
<ele>120.422913</ele>
<time>2011-04-28T04:39:34Z</time>
<desc>lat.=22.101084, lon.=104.674881, Alt.=120.422913m. Speed=19.511999m/h.</desc>
<speed>5.420000</speed>
</trkpt>
<trkpt lat="22.100840" lon="104.675011">
<ele>115.129944</ele>
<time>2011-04-28T04:39:39Z</time>
<desc>lat.=22.100840, lon.=104.675011, Alt.=115.129944m. Speed=21.600000m/h.</desc>
<speed>6.000000</speed>
</trkpt>
<trkpt lat="22.100592" lon="104.675133">
<ele>111.057678</ele>
<time>2011-04-28T04:39:44Z</time>
<desc>lat.=22.100592, lon.=104.675133, Alt.=111.057678m. Speed=17.892000m/h.</desc>
<speed>4.970000</speed>
</trkpt>
<trkpt lat="22.100340" lon="104.675209">
<ele>109.292053</ele>
<time>2011-04-28T04:39:49Z</time>
<desc>lat.=22.100340, lon.=104.675209, Alt.=109.292053m. Speed=20.340000m/h.</desc>
<speed>5.650000</speed>
</trkpt>
<trkpt lat="22.100044" lon="104.675301">
<ele>107.641663</ele>
<time>2011-04-28T04:39:54Z</time>
<desc>lat.=22.100044, lon.=104.675301, Alt.=107.641663m. Speed=24.948000m/h.</desc>
<speed>6.930000</speed>
</trkpt>
<trkpt lat="22.099728" lon="104.675423">
<ele>106.575256</ele>
<time>2011-04-28T04:39:59Z</time>
<desc>lat.=22.099728, lon.=104.675423, Alt.=106.575256m. Speed=23.148001m/h.</desc>
<speed>6.430000</speed>
</trkpt>
<trkpt lat="22.099487" lon="104.675682">
<ele>105.518616</ele>
<time>2011-04-28T04:40:04Z</time>
<desc>lat.=22.099487, lon.=104.675682, Alt.=105.518616m. Speed=24.228001m/h.</desc>
<speed>6.730000</speed>
</trkpt>
<trkpt lat="22.099342" lon="104.676033">
<ele>99.090881</ele>
<time>2011-04-28T04:40:09Z</time>
<desc>lat.=22.099342, lon.=104.676033, Alt.=99.090881m. Speed=18.827999m/h.</desc>
<speed>5.230000</speed>
</trkpt>
<trkpt lat="22.099270" lon="104.676262">
<ele>94.563538</ele>
<time>2011-04-28T04:40:14Z</time>
<desc>lat.=22.099270, lon.=104.676262, Alt.=94.563538m. Speed=14.904000m/h.</desc>
<speed>4.140000</speed>
</trkpt>
<trkpt lat="22.099154" lon="104.676392">
<ele>88.477600</ele>
<time>2011-04-28T04:40:19Z</time>
<desc>lat.=22.099154, lon.=104.676392, Alt.=88.477600m. Speed=13.284000m/h.</desc>
<speed>3.690000</speed>
</trkpt>
<trkpt lat="22.098995" lon="104.676529">
<ele>88.086975</ele>
<time>2011-04-28T04:40:24Z</time>
<desc>lat.=22.098995, lon.=104.676529, Alt.=88.086975m. Speed=12.132000m/h.</desc>
<speed>3.370000</speed>
</trkpt>
<trkpt lat="22.098827" lon="104.676636">
<ele>88.350647</ele>
<time>2011-04-28T04:40:29Z</time>
<desc>lat.=22.098827, lon.=104.676636, Alt.=88.350647m. Speed=13.716000m/h.</desc>
<speed>3.810000</speed>
</trkpt>
<trkpt lat="22.098625" lon="104.676682">
<ele>88.051819</ele>
<time>2011-04-28T04:40:34Z</time>
<desc>lat.=22.098625, lon.=104.676682, Alt.=88.051819m. Speed=14.040000m/h.</desc>
<speed>3.900000</speed>
</trkpt>
<trkpt lat="22.098421" lon="104.676704">
<ele>88.194397</ele>
<time>2011-04-28T04:40:39Z</time>
<desc>lat.=22.098421, lon.=104.676704, Alt.=88.194397m. Speed=15.984000m/h.</desc>
<speed>4.440000</speed>
</trkpt>
<trkpt lat="22.098257" lon="104.676697">
<ele>87.325256</ele>
<time>2011-04-28T04:40:44Z</time>
<desc>lat.=22.098257, lon.=104.676697, Alt.=87.325256m. Speed=7.704000m/h.</desc>
<speed>2.140000</speed>
</trkpt>
<trkpt lat="22.098206" lon="104.676674">
<ele>88.237366</ele>
<time>2011-04-28T04:40:49Z</time>
<desc>lat.=22.098206, lon.=104.676674, Alt.=88.237366m. Speed=0.612000m/h.</desc>
<speed>0.170000</speed>
</trkpt>
<trkpt lat="22.098209" lon="104.676674">
<ele>88.424866</ele>
<time>2011-04-28T04:40:54Z</time>
<desc>lat.=22.098209, lon.=104.676674, Alt.=88.424866m. Speed=0.216000m/h.</desc>
<speed>0.060000</speed>
</trkpt>
<trkpt lat="22.098211" lon="104.676674">
<ele>88.530334</ele>
<time>2011-04-28T04:40:59Z</time>
<desc>lat.=22.098211, lon.=104.676674, Alt.=88.530334m. Speed=0.324000m/h.</desc>
<speed>0.090000</speed>
</trkpt>
<trkpt lat="22.098211" lon="104.676674">
<ele>88.618225</ele>
<time>2011-04-28T04:41:04Z</time>
<desc>lat.=22.098211, lon.=104.676674, Alt.=88.618225m. Speed=0.324000m/h.</desc>
<speed>0.090000</speed>
</trkpt>
<trkpt lat="22.098213" lon="104.676682">
<ele>88.618225</ele>
<time>2011-04-28T04:41:09Z</time>
<desc>lat.=22.098213, lon.=104.676682, Alt.=88.618225m. Speed=0.108000m/h.</desc>
<speed>0.030000</speed>
</trkpt>
<trkpt lat="22.098213" lon="104.676682">
<ele>88.583069</ele>
<time>2011-04-28T04:41:14Z</time>
<desc>lat.=22.098213, lon.=104.676682, Alt.=88.583069m. Speed=0.468000m/h.</desc>
<speed>0.130000</speed>
</trkpt>
<trkpt lat="22.098217" lon="104.676689">
<ele>88.598694</ele>
<time>2011-04-28T04:41:19Z</time>
<desc>lat.=22.098217, lon.=104.676689, Alt.=88.598694m. Speed=0.576000m/h.</desc>
<speed>0.160000</speed>
</trkpt>
<trkpt lat="22.098219" lon="104.676689">
<ele>88.678772</ele>
<time>2011-04-28T04:41:24Z</time>
<desc>lat.=22.098219, lon.=104.676689, Alt.=88.678772m. Speed=0.324000m/h.</desc>
<speed>0.090000</speed>
</trkpt>
<trkpt lat="22.098223" lon="104.676689">
<ele>88.799866</ele>
<time>2011-04-28T04:41:29Z</time>
<desc>lat.=22.098223, lon.=104.676689, Alt.=88.799866m. Speed=0.720000m/h.</desc>
<speed>0.200000</speed>
</trkpt>
<trkpt lat="22.098221" lon="104.676697">
<ele>88.891663</ele>
<time>2011-04-28T04:41:34Z</time>
<desc>lat.=22.098221, lon.=104.676697, Alt.=88.891663m. Speed=0.288000m/h.</desc>
<speed>0.080000</speed>
</trkpt>
<trkpt lat="22.098219" lon="104.676697">
<ele>89.065491</ele>
<time>2011-04-28T04:41:39Z</time>
<desc>lat.=22.098219, lon.=104.676697, Alt.=89.065491m. Speed=0.072000m/h.</desc>
<speed>0.020000</speed>
</trkpt>
<trkpt lat="22.098219" lon="104.676697">
<ele>89.174866</ele>
<time>2011-04-28T04:41:44Z</time>
<desc>lat.=22.098219, lon.=104.676697, Alt.=89.174866m. Speed=0.252000m/h.</desc>
<speed>0.070000</speed>
</trkpt>
<trkpt lat="22.098215" lon="104.676689">
<ele>89.299866</ele>
<time>2011-04-28T04:41:49Z</time>
<desc>lat.=22.098215, lon.=104.676689, Alt.=89.299866m. Speed=0.360000m/h.</desc>
<speed>0.100000</speed>
</trkpt>
<trkpt lat="22.098211" lon="104.676689">
<ele>89.381897</ele>
<time>2011-04-28T04:41:54Z</time>
<desc>lat.=22.098211, lon.=104.676689, Alt.=89.381897m. Speed=0.432000m/h.</desc>
<speed>0.120000</speed>
</trkpt>
<trkpt lat="22.098209" lon="104.676682">
<ele>89.415100</ele>
<time>2011-04-28T04:41:59Z</time>
<desc>lat.=22.098209, lon.=104.676682, Alt.=89.415100m. Speed=0.432000m/h.</desc>
<speed>0.120000</speed>
</trkpt>
<trkpt lat="22.098207" lon="104.676674">
<ele>89.376038</ele>
<time>2011-04-28T04:42:04Z</time>
<desc>lat.=22.098207, lon.=104.676674, Alt.=89.376038m. Speed=0.216000m/h.</desc>
<speed>0.060000</speed>
</trkpt>
<trkpt lat="22.098206" lon="104.676674">
<ele>89.350647</ele>
<time>2011-04-28T04:42:09Z</time>
<desc>lat.=22.098206, lon.=104.676674, Alt.=89.350647m. Speed=0.540000m/h.</desc>
<speed>0.150000</speed>
</trkpt>
<trkpt lat="22.098206" lon="104.676674">
<ele>89.258850</ele>
<time>2011-04-28T04:42:14Z</time>
<desc>lat.=22.098206, lon.=104.676674, Alt.=89.258850m. Speed=0.180000m/h.</desc>
<speed>0.050000</speed>
</trkpt>
<trkpt lat="22.098204" lon="104.676674">
<ele>89.217834</ele>
<time>2011-04-28T04:42:19Z</time>
<desc>lat.=22.098204, lon.=104.676674, Alt.=89.217834m. Speed=0.144000m/h.</desc>
<speed>0.040000</speed>
</trkpt>
<trkpt lat="22.098204" lon="104.676674">
<ele>89.241272</ele>
<time>2011-04-28T04:42:24Z</time>
<desc>lat.=22.098204, lon.=104.676674, Alt.=89.241272m. Speed=0.000000m/h.</desc>
<speed>0.000000</speed>
</trkpt>
<trkpt lat="22.098200" lon="104.676674">
<ele>89.268616</ele>
<time>2011-04-28T04:42:29Z</time>
<desc>lat.=22.098200, lon.=104.676674, Alt.=89.268616m. Speed=2.160000m/h.</desc>
<speed>0.600000</speed>
</trkpt>
<trkpt lat="22.098118" lon="104.676689">
<ele>89.057678</ele>
<time>2011-04-28T04:42:34Z</time>
<desc>lat.=22.098118, lon.=104.676689, Alt.=89.057678m. Speed=8.244000m/h.</desc>
<speed>2.290000</speed>
</trkpt>
<trkpt lat="22.097967" lon="104.676781">
<ele>88.180725</ele>
<time>2011-04-28T04:42:39Z</time>
<desc>lat.=22.097967, lon.=104.676781, Alt.=88.180725m. Speed=15.012000m/h.</desc>
<speed>4.170000</speed>
</trkpt>
<trkpt lat="22.097836" lon="104.676941">
<ele>88.237366</ele>
<time>2011-04-28T04:42:44Z</time>
<desc>lat.=22.097836, lon.=104.676941, Alt.=88.237366m. Speed=16.992001m/h.</desc>
<speed>4.720000</speed>
</trkpt>
<trkpt lat="22.097677" lon="104.677200">
<ele>88.450256</ele>
<time>2011-04-28T04:42:49Z</time>
<desc>lat.=22.097677, lon.=104.677200, Alt.=88.450256m. Speed=20.304001m/h.</desc>
<speed>5.640000</speed>
</trkpt>
<trkpt lat="22.097513" lon="104.677383">
<ele>88.547913</ele>
<time>2011-04-28T04:42:54Z</time>
<desc>lat.=22.097513, lon.=104.677383, Alt.=88.547913m. Speed=18.180000m/h.</desc>
<speed>5.050000</speed>
</trkpt>
<trkpt lat="22.097326" lon="104.677498">
<ele>88.682678</ele>
<time>2011-04-28T04:42:59Z</time>
<desc>lat.=22.097326, lon.=104.677498, Alt.=88.682678m. Speed=13.644000m/h.</desc>
<speed>3.790000</speed>
</trkpt>
<trkpt lat="22.097176" lon="104.677574">
<ele>88.913147</ele>
<time>2011-04-28T04:43:04Z</time>
<desc>lat.=22.097176, lon.=104.677574, Alt.=88.913147m. Speed=12.240000m/h.</desc>
<speed>3.400000</speed>
</trkpt>
<trkpt lat="22.097040" lon="104.677658">
<ele>88.881897</ele>
<time>2011-04-28T04:43:09Z</time>
<desc>lat.=22.097040, lon.=104.677658, Alt.=88.881897m. Speed=9.576000m/h.</desc>
<speed>2.660000</speed>
</trkpt>
<trkpt lat="22.096916" lon="104.677719">
<ele>89.249084</ele>
<time>2011-04-28T04:43:14Z</time>
<desc>lat.=22.096916, lon.=104.677719, Alt.=89.249084m. Speed=8.316000m/h.</desc>
<speed>2.310000</speed>
</trkpt>
<trkpt lat="22.096746" lon="104.677803">
<ele>89.940491</ele>
<time>2011-04-28T04:43:19Z</time>
<desc>lat.=22.096746, lon.=104.677803, Alt.=89.940491m. Speed=13.284000m/h.</desc>
<speed>3.690000</speed>
</trkpt>
<trkpt lat="22.096548" lon="104.677879">
<ele>89.979553</ele>
<time>2011-04-28T04:43:24Z</time>
<desc>lat.=22.096548, lon.=104.677879, Alt.=89.979553m. Speed=18.576000m/h.</desc>
<speed>5.160000</speed>
</trkpt>
<trkpt lat="22.096294" lon="104.677940">
<ele>89.850647</ele>
<time>2011-04-28T04:43:29Z</time>
<desc>lat.=22.096294, lon.=104.677940, Alt.=89.850647m. Speed=19.584000m/h.</desc>
<speed>5.440000</speed>
</trkpt>
<trkpt lat="22.096115" lon="104.677963">
<ele>88.704163</ele>
<time>2011-04-28T04:43:34Z</time>
<desc>lat.=22.096115, lon.=104.677963, Alt.=88.704163m. Speed=8.280000m/h.</desc>
<speed>2.300000</speed>
</trkpt>
<trkpt lat="22.096092" lon="104.677956">
<ele>88.542053</ele>
<time>2011-04-28T04:43:39Z</time>
<desc>lat.=22.096092, lon.=104.677956, Alt.=88.542053m. Speed=0.432000m/h.</desc>
<speed>0.120000</speed>
</trkpt>
<trkpt lat="22.096090" lon="104.677963">
<ele>88.594788</ele>
<time>2011-04-28T04:43:44Z</time>
<desc>lat.=22.096090, lon.=104.677963, Alt.=88.594788m. Speed=0.360000m/h.</desc>
<speed>0.100000</speed>
</trkpt>
<trkpt lat="22.096088" lon="104.677963">
<ele>88.577209</ele>
<time>2011-04-28T04:43:49Z</time>
<desc>lat.=22.096088, lon.=104.677963, Alt.=88.577209m. Speed=0.324000m/h.</desc>
<speed>0.090000</speed>
</trkpt>
<trkpt lat="22.096085" lon="104.677963">
<ele>88.563538</ele>
<time>2011-04-28T04:43:54Z</time>
<desc>lat.=22.096085, lon.=104.677963, Alt.=88.563538m. Speed=0.612000m/h.</desc>
<speed>0.170000</speed>
</trkpt>
<trkpt lat="22.096079" lon="104.677956">
<ele>88.542053</ele>
<time>2011-04-28T04:43:59Z</time>
<desc>lat.=22.096079, lon.=104.677956, Alt.=88.542053m. Speed=0.504000m/h.</desc>
<speed>0.140000</speed>
</trkpt>
<trkpt lat="22.096075" lon="104.677956">
<ele>88.526428</ele>
<time>2011-04-28T04:44:04Z</time>
<desc>lat.=22.096075, lon.=104.677956, Alt.=88.526428m. Speed=0.576000m/h.</desc>
<speed>0.160000</speed>
</trkpt>
<trkpt lat="22.096073" lon="104.677956">
<ele>88.481506</ele>
<time>2011-04-28T04:44:09Z</time>
<desc>lat.=22.096073, lon.=104.677956, Alt.=88.481506m. Speed=0.000000m/h.</desc>
<speed>0.000000</speed>
</trkpt>
<trkpt lat="22.096071" lon="104.677956">
<ele>88.444397</ele>
<time>2011-04-28T04:44:14Z</time>
<desc>lat.=22.096071, lon.=104.677956, Alt.=88.444397m. Speed=0.468000m/h.</desc>
<speed>0.130000</speed>
</trkpt>
<trkpt lat="22.096067" lon="104.677956">
<ele>88.444397</ele>
<time>2011-04-28T04:44:19Z</time>
<desc>lat.=22.096067, lon.=104.677956, Alt.=88.444397m. Speed=0.288000m/h.</desc>
<speed>0.080000</speed>
</trkpt>
<trkpt lat="22.096066" lon="104.677956">
<ele>88.440491</ele>
<time>2011-04-28T04:44:24Z</time>
<desc>lat.=22.096066, lon.=104.677956, Alt.=88.440491m. Speed=0.216000m/h.</desc>
<speed>0.060000</speed>
</trkpt>
<trkpt lat="22.096064" lon="104.677956">
<ele>88.426819</ele>
<time>2011-04-28T04:44:29Z</time>
<desc>lat.=22.096064, lon.=104.677956, Alt.=88.426819m. Speed=0.036000m/h.</desc>
<speed>0.010000</speed>
</trkpt>
<trkpt lat="22.096066" lon="104.677956">
<ele>88.379944</ele>
<time>2011-04-28T04:44:34Z</time>
<desc>lat.=22.096066, lon.=104.677956, Alt.=88.379944m. Speed=0.144000m/h.</desc>
<speed>0.040000</speed>
</trkpt>
<trkpt lat="22.096067" lon="104.677956">
<ele>88.338928</ele>
<time>2011-04-28T04:44:39Z</time>
<desc>lat.=22.096067, lon.=104.677956, Alt.=88.338928m. Speed=0.648000m/h.</desc>
<speed>0.180000</speed>
</trkpt>
<trkpt lat="22.096069" lon="104.677963">
<ele>88.299866</ele>
<time>2011-04-28T04:44:44Z</time>
<desc>lat.=22.096069, lon.=104.677963, Alt.=88.299866m. Speed=0.396000m/h.</desc>
<speed>0.110000</speed>
</trkpt>
<trkpt lat="22.096071" lon="104.677971">
<ele>88.272522</ele>
<time>2011-04-28T04:44:49Z</time>
<desc>lat.=22.096071, lon.=104.677971, Alt.=88.272522m. Speed=1.044000m/h.</desc>
<speed>0.290000</speed>
</trkpt>
<trkpt lat="22.096088" lon="104.677994">
<ele>87.821350</ele>
<time>2011-04-28T04:44:54Z</time>
<desc>lat.=22.096088, lon.=104.677994, Alt.=87.821350m. Speed=1.152000m/h.</desc>
<speed>0.320000</speed>
</trkpt>
<trkpt lat="22.096098" lon="104.678009">
<ele>87.079163</ele>
<time>2011-04-28T04:44:59Z</time>
<desc>lat.=22.096098, lon.=104.678009, Alt.=87.079163m. Speed=0.684000m/h.</desc>
<speed>0.190000</speed>
</trkpt>
<trkpt lat="22.096052" lon="104.677979">
<ele>85.116272</ele>
<time>2011-04-28T04:45:04Z</time>
<desc>lat.=22.096052, lon.=104.677979, Alt.=85.116272m. Speed=8.964000m/h.</desc>
<speed>2.490000</speed>
</trkpt>
<trkpt lat="22.095892" lon="104.678055">
<ele>83.426819</ele>
<time>2011-04-28T04:45:09Z</time>
<desc>lat.=22.095892, lon.=104.678055, Alt.=83.426819m. Speed=16.992001m/h.</desc>
<speed>4.720000</speed>
</trkpt>
<trkpt lat="22.095695" lon="104.678238">
<ele>80.635803</ele>
<time>2011-04-28T04:45:14Z</time>
<desc>lat.=22.095695, lon.=104.678238, Alt.=80.635803m. Speed=22.823999m/h.</desc>
<speed>6.340000</speed>
</trkpt>
<trkpt lat="22.095440" lon="104.678490">
<ele>77.231506</ele>
<time>2011-04-28T04:45:19Z</time>
<desc>lat.=22.095440, lon.=104.678490, Alt.=77.231506m. Speed=25.632000m/h.</desc>
<speed>7.120000</speed>
</trkpt>
<trkpt lat="22.095173" lon="104.678802">
<ele>75.604553</ele>
<time>2011-04-28T04:45:24Z</time>
<desc>lat.=22.095173, lon.=104.678802, Alt.=75.604553m. Speed=30.167999m/h.</desc>
<speed>8.380000</speed>
</trkpt>
<trkpt lat="22.094872" lon="104.679092">
<ele>73.561584</ele>
<time>2011-04-28T04:45:29Z</time>
<desc>lat.=22.094872, lon.=104.679092, Alt.=73.561584m. Speed=32.580002m/h.</desc>
<speed>9.050001</speed>
</trkpt>
<trkpt lat="22.094467" lon="104.679077">
<ele>70.116272</ele>
<time>2011-04-28T04:45:34Z</time>
<desc>lat.=22.094467, lon.=104.679077, Alt.=70.116272m. Speed=26.208000m/h.</desc>
<speed>7.280000</speed>
</trkpt>
<trkpt lat="22.094294" lon="104.678848">
<ele>70.360413</ele>
<time>2011-04-28T04:45:39Z</time>
<desc>lat.=22.094294, lon.=104.678848, Alt.=70.360413m. Speed=17.063999m/h.</desc>
<speed>4.740000</speed>
</trkpt>
<trkpt lat="22.094252" lon="104.678680">
<ele>71.971741</ele>
<time>2011-04-28T04:45:44Z</time>
<desc>lat.=22.094252, lon.=104.678680, Alt.=71.971741m. Speed=11.988000m/h.</desc>
<speed>3.330000</speed>
</trkpt>
<trkpt lat="22.094202" lon="104.678497">
<ele>73.672913</ele>
<time>2011-04-28T04:45:49Z</time>
<desc>lat.=22.094202, lon.=104.678497, Alt.=73.672913m. Speed=11.124000m/h.</desc>
<speed>3.090000</speed>
</trkpt>
<trkpt lat="22.094128" lon="104.678337">
<ele>74.737366</ele>
<time>2011-04-28T04:45:54Z</time>
<desc>lat.=22.094128, lon.=104.678337, Alt.=74.737366m. Speed=7.956000m/h.</desc>
<speed>2.210000</speed>
</trkpt>
<trkpt lat="22.094061" lon="104.678131">
<ele>77.940491</ele>
<time>2011-04-28T04:45:59Z</time>
<desc>lat.=22.094061, lon.=104.678131, Alt.=77.940491m. Speed=12.528000m/h.</desc>
<speed>3.480000</speed>
</trkpt>
<trkpt lat="22.094034" lon="104.677925">
<ele>78.614319</ele>
<time>2011-04-28T04:46:04Z</time>
<desc>lat.=22.094034, lon.=104.677925, Alt.=78.614319m. Speed=12.996000m/h.</desc>
<speed>3.610000</speed>
</trkpt>
<trkpt lat="22.094063" lon="104.677750">
<ele>79.086975</ele>
<time>2011-04-28T04:46:09Z</time>
<desc>lat.=22.094063, lon.=104.677750, Alt.=79.086975m. Speed=11.376000m/h.</desc>
<speed>3.160000</speed>
</trkpt>
<trkpt lat="22.094088" lon="104.677589">
<ele>79.856506</ele>
<time>2011-04-28T04:46:14Z</time>
<desc>lat.=22.094088, lon.=104.677589, Alt.=79.856506m. Speed=11.700000m/h.</desc>
<speed>3.250000</speed>
</trkpt>
<trkpt lat="22.094128" lon="104.677429">
<ele>80.438538</ele>
<time>2011-04-28T04:46:19Z</time>
<desc>lat.=22.094128, lon.=104.677429, Alt.=80.438538m. Speed=13.068000m/h.</desc>
<speed>3.630000</speed>
</trkpt>
<trkpt lat="22.094128" lon="104.677246">
<ele>80.688538</ele>
<time>2011-04-28T04:46:24Z</time>
<desc>lat.=22.094128, lon.=104.677246, Alt.=80.688538m. Speed=10.692000m/h.</desc>
<speed>2.970000</speed>
</trkpt>
<trkpt lat="22.094105" lon="104.677063">
<ele>81.282288</ele>
<time>2011-04-28T04:46:29Z</time>
<desc>lat.=22.094105, lon.=104.677063, Alt.=81.282288m. Speed=12.492000m/h.</desc>
<speed>3.470000</speed>
</trkpt>
<trkpt lat="22.094053" lon="104.676872">
<ele>81.356506</ele>
<time>2011-04-28T04:46:34Z</time>
<desc>lat.=22.094053, lon.=104.676872, Alt.=81.356506m. Speed=13.212000m/h.</desc>
<speed>3.670000</speed>
</trkpt>
<trkpt lat="22.093996" lon="104.676704">
<ele>82.303772</ele>
<time>2011-04-28T04:46:39Z</time>
<desc>lat.=22.093996, lon.=104.676704, Alt.=82.303772m. Speed=10.512000m/h.</desc>
<speed>2.920000</speed>
</trkpt>
<trkpt lat="22.093903" lon="104.676567">
<ele>82.969788</ele>
<time>2011-04-28T04:46:44Z</time>
<desc>lat.=22.093903, lon.=104.676567, Alt.=82.969788m. Speed=9.468000m/h.</desc>
<speed>2.630000</speed>
</trkpt>
<trkpt lat="22.093754" lon="104.676407">
<ele>83.561584</ele>
<time>2011-04-28T04:46:49Z</time>
<desc>lat.=22.093754, lon.=104.676407, Alt.=83.561584m. Speed=13.680000m/h.</desc>
<speed>3.800000</speed>
</trkpt>
<trkpt lat="22.093594" lon="104.676308">
<ele>82.530334</ele>
<time>2011-04-28T04:46:54Z</time>
<desc>lat.=22.093594, lon.=104.676308, Alt.=82.530334m. Speed=15.768000m/h.</desc>
<speed>4.380000</speed>
</trkpt>
<trkpt lat="22.093466" lon="104.676163">
<ele>82.159241</ele>
<time>2011-04-28T04:46:59Z</time>
<desc>lat.=22.093466, lon.=104.676163, Alt.=82.159241m. Speed=13.680000m/h.</desc>
<speed>3.800000</speed>
</trkpt>
<trkpt lat="22.093399" lon="104.675987">
<ele>80.909241</ele>
<time>2011-04-28T04:47:04Z</time>
<desc>lat.=22.093399, lon.=104.675987, Alt.=80.909241m. Speed=12.744000m/h.</desc>
<speed>3.540000</speed>
</trkpt>
<trkpt lat="22.093307" lon="104.675873">
<ele>79.661194</ele>
<time>2011-04-28T04:47:09Z</time>
<desc>lat.=22.093307, lon.=104.675873, Alt.=79.661194m. Speed=9.648000m/h.</desc>
<speed>2.680000</speed>
</trkpt>
<trkpt lat="22.093220" lon="104.675797">
<ele>78.192444</ele>
<time>2011-04-28T04:47:14Z</time>
<desc>lat.=22.093220, lon.=104.675797, Alt.=78.192444m. Speed=11.700000m/h.</desc>
<speed>3.250000</speed>
</trkpt>
<trkpt lat="22.093084" lon="104.675644">
<ele>77.536194</ele>
<time>2011-04-28T04:47:19Z</time>
<desc>lat.=22.093084, lon.=104.675644, Alt.=77.536194m. Speed=14.760000m/h.</desc>
<speed>4.100000</speed>
</trkpt>
<trkpt lat="22.093166" lon="104.675354">
<ele>76.018616</ele>
<time>2011-04-28T04:47:24Z</time>
<desc>lat.=22.093166, lon.=104.675354, Alt.=76.018616m. Speed=24.732000m/h.</desc>
<speed>6.870000</speed>
</trkpt>
<trkpt lat="22.093376" lon="104.675095">
<ele>74.635803</ele>
<time>2011-04-28T04:47:29Z</time>
<desc>lat.=22.093376, lon.=104.675095, Alt.=74.635803m. Speed=25.091999m/h.</desc>
<speed>6.970000</speed>
</trkpt>
<trkpt lat="22.093620" lon="104.674927">
<ele>73.184631</ele>
<time>2011-04-28T04:47:34Z</time>
<desc>lat.=22.093620, lon.=104.674927, Alt.=73.184631m. Speed=17.927999m/h.</desc>
<speed>4.980000</speed>
</trkpt>
<trkpt lat="22.093832" lon="104.674782">
<ele>72.723694</ele>
<time>2011-04-28T04:47:39Z</time>
<desc>lat.=22.093832, lon.=104.674782, Alt.=72.723694m. Speed=17.351999m/h.</desc>
<speed>4.820000</speed>
</trkpt>
<trkpt lat="22.093954" lon="104.674599">
<ele>73.374084</ele>
<time>2011-04-28T04:47:44Z</time>
<desc>lat.=22.093954, lon.=104.674599, Alt.=73.374084m. Speed=15.768000m/h.</desc>
<speed>4.380000</speed>
</trkpt>
<trkpt lat="22.093908" lon="104.674355">
<ele>73.487366</ele>
<time>2011-04-28T04:47:49Z</time>
<desc>lat.=22.093908, lon.=104.674355, Alt.=73.487366m. Speed=18.035999m/h.</desc>
<speed>5.010000</speed>
</trkpt>
<trkpt lat="22.093674" lon="104.674171">
<ele>69.206116</ele>
<time>2011-04-28T04:47:54Z</time>
<desc>lat.=22.093674, lon.=104.674171, Alt.=69.206116m. Speed=24.191999m/h.</desc>
<speed>6.720000</speed>
</trkpt>
<trkpt lat="22.093370" lon="104.674026">
<ele>67.473694</ele>
<time>2011-04-28T04:47:59Z</time>
<desc>lat.=22.093370, lon.=104.674026, Alt.=67.473694m. Speed=27.035999m/h.</desc>
<speed>7.510000</speed>
</trkpt>
<trkpt lat="22.093079" lon="104.673820">
<ele>64.975647</ele>
<time>2011-04-28T04:48:04Z</time>
<desc>lat.=22.093079, lon.=104.673820, Alt.=64.975647m. Speed=25.920000m/h.</desc>
<speed>7.200000</speed>
</trkpt>
<trkpt lat="22.092781" lon="104.673691">
<ele>63.349152</ele>
<time>2011-04-28T04:48:09Z</time>
<desc>lat.=22.092781, lon.=104.673691, Alt.=63.349152m. Speed=19.944000m/h.</desc>
<speed>5.540000</speed>
</trkpt>
<trkpt lat="22.092569" lon="104.673615">
<ele>63.372589</ele>
<time>2011-04-28T04:48:14Z</time>
<desc>lat.=22.092569, lon.=104.673615, Alt.=63.372589m. Speed=11.304000m/h.</desc>
<speed>3.140000</speed>
</trkpt>
<trkpt lat="22.092426" lon="104.673553">
<ele>62.982941</ele>
<time>2011-04-28T04:48:19Z</time>
<desc>lat.=22.092426, lon.=104.673553, Alt.=62.982941m. Speed=10.368000m/h.</desc>
<speed>2.880000</speed>
</trkpt>
<trkpt lat="22.092281" lon="104.673531">
<ele>61.382355</ele>
<time>2011-04-28T04:48:24Z</time>
<desc>lat.=22.092281, lon.=104.673531, Alt.=61.382355m. Speed=8.100000m/h.</desc>
<speed>2.250000</speed>
</trkpt>
<trkpt lat="22.092150" lon="104.673492">
<ele>57.733917</ele>
<time>2011-04-28T04:48:29Z</time>
<desc>lat.=22.092150, lon.=104.673492, Alt.=57.733917m. Speed=10.944000m/h.</desc>
<speed>3.040000</speed>
</trkpt>
<trkpt lat="22.092033" lon="104.673492">
<ele>56.583527</ele>
<time>2011-04-28T04:48:34Z</time>
<desc>lat.=22.092033, lon.=104.673492, Alt.=56.583527m. Speed=8.748000m/h.</desc>
<speed>2.430000</speed>
</trkpt>
<trkpt lat="22.091915" lon="104.673492">
<ele>55.757355</ele>
<time>2011-04-28T04:48:39Z</time>
<desc>lat.=22.091915, lon.=104.673492, Alt.=55.757355m. Speed=7.308000m/h.</desc>
<speed>2.030000</speed>
</trkpt>
<trkpt lat="22.091829" lon="104.673470">
<ele>55.041534</ele>
<time>2011-04-28T04:48:44Z</time>
<desc>lat.=22.091829, lon.=104.673470, Alt.=55.041534m. Speed=5.040000m/h.</desc>
<speed>1.400000</speed>
</trkpt>
<trkpt lat="22.091747" lon="104.673409">
<ele>56.067902</ele>
<time>2011-04-28T04:48:49Z</time>
<desc>lat.=22.091747, lon.=104.673409, Alt.=56.067902m. Speed=6.696000m/h.</desc>
<speed>1.860000</speed>
</trkpt>
<trkpt lat="22.091684" lon="104.673355">
<ele>58.015167</ele>
<time>2011-04-28T04:48:54Z</time>
<desc>lat.=22.091684, lon.=104.673355, Alt.=58.015167m. Speed=7.452000m/h.</desc>
<speed>2.070000</speed>
</trkpt>
<trkpt lat="22.091646" lon="104.673256">
<ele>58.949738</ele>
<time>2011-04-28T04:48:59Z</time>
<desc>lat.=22.091646, lon.=104.673256, Alt.=58.949738m. Speed=6.624000m/h.</desc>
<speed>1.840000</speed>
</trkpt>
<trkpt lat="22.091644" lon="104.673149">
<ele>59.534698</ele>
<time>2011-04-28T04:49:04Z</time>
<desc>lat.=22.091644, lon.=104.673149, Alt.=59.534698m. Speed=7.668000m/h.</desc>
<speed>2.130000</speed>
</trkpt>
<trkpt lat="22.091639" lon="104.673065">
<ele>62.339386</ele>
<time>2011-04-28T04:49:09Z</time>
<desc>lat.=22.091639, lon.=104.673065, Alt.=62.339386m. Speed=7.416000m/h.</desc>
<speed>2.060000</speed>
</trkpt>
<trkpt lat="22.091625" lon="104.672958">
<ele>64.362366</ele>
<time>2011-04-28T04:49:14Z</time>
<desc>lat.=22.091625, lon.=104.672958, Alt.=64.362366m. Speed=4.716000m/h.</desc>
<speed>1.310000</speed>
</trkpt>
<trkpt lat="22.091627" lon="104.672890">
<ele>64.430725</ele>
<time>2011-04-28T04:49:19Z</time>
<desc>lat.=22.091627, lon.=104.672890, Alt.=64.430725m. Speed=3.744000m/h.</desc>
<speed>1.040000</speed>
</trkpt>
<trkpt lat="22.091629" lon="104.672882">
<ele>64.073303</ele>
<time>2011-04-28T04:49:24Z</time>
<desc>lat.=22.091629, lon.=104.672882, Alt.=64.073303m. Speed=0.180000m/h.</desc>
<speed>0.050000</speed>
</trkpt>
<trkpt lat="22.091619" lon="104.672890">
<ele>66.612366</ele>
<time>2011-04-28T04:49:29Z</time>
<desc>lat.=22.091619, lon.=104.672890, Alt.=66.612366m. Speed=0.000000m/h.</desc>
<speed>0.000000</speed>
</trkpt>
<trkpt lat="22.091616" lon="104.672897">
<ele>68.641663</ele>
<time>2011-04-28T04:49:34Z</time>
<desc>lat.=22.091616, lon.=104.672897, Alt.=68.641663m. Speed=0.036000m/h.</desc>
<speed>0.010000</speed>
</trkpt>
<trkpt lat="22.091614" lon="104.672897">
<ele>70.252991</ele>
<time>2011-04-28T04:49:39Z</time>
<desc>lat.=22.091614, lon.=104.672897, Alt.=70.252991m. Speed=0.000000m/h.</desc>
<speed>0.000000</speed>
</trkpt>
<trkpt lat="22.091621" lon="104.672897">
<ele>71.602600</ele>
<time>2011-04-28T04:49:44Z</time>
<desc>lat.=22.091621, lon.=104.672897, Alt.=71.602600m. Speed=0.000000m/h.</desc>
<speed>0.000000</speed>
</trkpt>
<trkpt lat="22.091621" lon="104.672897">
<ele>72.481506</ele>
<time>2011-04-28T04:49:49Z</time>
<desc>lat.=22.091621, lon.=104.672897, Alt.=72.481506m. Speed=0.036000m/h.</desc>
<speed>0.010000</speed>
</trkpt>
<trkpt lat="22.091614" lon="104.672897">
<ele>72.797913</ele>
<time>2011-04-28T04:49:54Z</time>
<desc>lat.=22.091614, lon.=104.672897, Alt.=72.797913m. Speed=0.036000m/h.</desc>
<speed>0.010000</speed>
</trkpt>
<trkpt lat="22.091619" lon="104.672897">
<ele>74.624084</ele>
<time>2011-04-28T04:49:59Z</time>
<desc>lat.=22.091619, lon.=104.672897, Alt.=74.624084m. Speed=0.072000m/h.</desc>
<speed>0.020000</speed>
</trkpt>
<trkpt lat="22.091623" lon="104.672897">
<ele>76.258850</ele>
<time>2011-04-28T04:50:04Z</time>
<desc>lat.=22.091623, lon.=104.672897, Alt.=76.258850m. Speed=0.036000m/h.</desc>
<speed>0.010000</speed>
</trkpt>
<trkpt lat="22.091629" lon="104.672905">
<ele>78.788147</ele>
<time>2011-04-28T04:50:09Z</time>
<desc>lat.=22.091629, lon.=104.672905, Alt.=78.788147m. Speed=0.000000m/h.</desc>
<speed>0.000000</speed>
</trkpt>
<trkpt lat="22.091633" lon="104.672905">
<ele>80.786194</ele>
<time>2011-04-28T04:50:14Z</time>
<desc>lat.=22.091633, lon.=104.672905, Alt.=80.786194m. Speed=0.000000m/h.</desc>
<speed>0.000000</speed>
</trkpt>
<trkpt lat="22.091635" lon="104.672897">
<ele>79.108459</ele>
<time>2011-04-28T04:50:19Z</time>
<desc>lat.=22.091635, lon.=104.672897, Alt.=79.108459m. Speed=0.108000m/h.</desc>
<speed>0.030000</speed>
</trkpt>
<trkpt lat="22.091640" lon="104.672890">
<ele>77.252991</ele>
<time>2011-04-28T04:50:24Z</time>
<desc>lat.=22.091640, lon.=104.672890, Alt.=77.252991m. Speed=0.072000m/h.</desc>
<speed>0.020000</speed>
</trkpt>
<trkpt lat="22.091639" lon="104.672882">
<ele>74.542053</ele>
<time>2011-04-28T04:50:29Z</time>
<desc>lat.=22.091639, lon.=104.672882, Alt.=74.542053m. Speed=0.036000m/h.</desc>
<speed>0.010000</speed>
</trkpt>
<trkpt lat="22.091642" lon="104.672867">
<ele>72.487366</ele>
<time>2011-04-28T04:50:34Z</time>
<desc>lat.=22.091642, lon.=104.672867, Alt.=72.487366m. Speed=0.036000m/h.</desc>
<speed>0.010000</speed>
</trkpt>
<trkpt lat="22.091640" lon="104.672852">
<ele>70.586975</ele>
<time>2011-04-28T04:50:39Z</time>
<desc>lat.=22.091640, lon.=104.672852, Alt.=70.586975m. Speed=0.000000m/h.</desc>
<speed>0.000000</speed>
</trkpt>
<trkpt lat="22.091639" lon="104.672852">
<ele>70.018616</ele>
<time>2011-04-28T04:50:44Z</time>
<desc>lat.=22.091639, lon.=104.672852, Alt.=70.018616m. Speed=0.036000m/h.</desc>
<speed>0.010000</speed>
</trkpt>
<trkpt lat="22.091637" lon="104.672852">
<ele>70.690491</ele>
<time>2011-04-28T04:50:49Z</time>
<desc>lat.=22.091637, lon.=104.672852, Alt.=70.690491m. Speed=0.000000m/h.</desc>
<speed>0.000000</speed>
</trkpt>
<trkpt lat="22.091635" lon="104.672859">
<ele>71.321350</ele>
<time>2011-04-28T04:50:54Z</time>
<desc>lat.=22.091635, lon.=104.672859, Alt.=71.321350m. Speed=0.036000m/h.</desc>
<speed>0.010000</speed>
</trkpt>
<trkpt lat="22.091629" lon="104.672859">
<ele>71.266663</ele>
<time>2011-04-28T04:50:59Z</time>
<desc>lat.=22.091629, lon.=104.672859, Alt.=71.266663m. Speed=0.000000m/h.</desc>
<speed>0.000000</speed>
</trkpt>
<trkpt lat="22.091627" lon="104.672867">
<ele>71.723694</ele>
<time>2011-04-28T04:51:04Z</time>
<desc>lat.=22.091627, lon.=104.672867, Alt.=71.723694m. Speed=0.000000m/h.</desc>
<speed>0.000000</speed>
</trkpt>
<trkpt lat="22.091627" lon="104.672867">
<ele>71.731506</ele>
<time>2011-04-28T04:51:09Z</time>
<desc>lat.=22.091627, lon.=104.672867, Alt.=71.731506m. Speed=0.036000m/h.</desc>
<speed>0.010000</speed>
</trkpt>
<trkpt lat="22.091627" lon="104.672867">
<ele>71.745178</ele>
<time>2011-04-28T04:51:14Z</time>
<desc>lat.=22.091627, lon.=104.672867, Alt.=71.745178m. Speed=0.072000m/h.</desc>
<speed>0.020000</speed>
</trkpt>
<trkpt lat="22.091627" lon="104.672867">
<ele>71.762756</ele>
<time>2011-04-28T04:51:19Z</time>
<desc>lat.=22.091627, lon.=104.672867, Alt.=71.762756m. Speed=0.000000m/h.</desc>
<speed>0.000000</speed>
</trkpt>
<trkpt lat="22.091627" lon="104.672867">
<ele>71.774475</ele>
<time>2011-04-28T04:51:24Z</time>
<desc>lat.=22.091627, lon.=104.672867, Alt.=71.774475m. Speed=0.000000m/h.</desc>
<speed>0.000000</speed>
</trkpt>
<trkpt lat="22.091629" lon="104.672867">
<ele>71.797913</ele>
<time>2011-04-28T04:51:29Z</time>
<desc>lat.=22.091629, lon.=104.672867, Alt.=71.797913m. Speed=0.036000m/h.</desc>
<speed>0.010000</speed>
</trkpt>
<trkpt lat="22.091629" lon="104.672867">
<ele>71.809631</ele>
<time>2011-04-28T04:51:34Z</time>
<desc>lat.=22.091629, lon.=104.672867, Alt.=71.809631m. Speed=0.036000m/h.</desc>
<speed>0.010000</speed>
</trkpt>
<trkpt lat="22.091629" lon="104.672867">
<ele>71.811584</ele>
<time>2011-04-28T04:51:39Z</time>
<desc>lat.=22.091629, lon.=104.672867, Alt.=71.811584m. Speed=0.000000m/h.</desc>
<speed>0.000000</speed>
</trkpt>
<trkpt lat="22.091629" lon="104.672867">
<ele>71.807678</ele>
<time>2011-04-28T04:51:44Z</time>
<desc>lat.=22.091629, lon.=104.672867, Alt.=71.807678m. Speed=0.000000m/h.</desc>
<speed>0.000000</speed>
</trkpt>
<trkpt lat="22.091629" lon="104.672867">
<ele>71.807678</ele>
<time>2011-04-28T04:51:49Z</time>
<desc>lat.=22.091629, lon.=104.672867, Alt.=71.807678m. Speed=0.000000m/h.</desc>
<speed>0.000000</speed>
</trkpt>
<trkpt lat="22.091635" lon="104.672867">
<ele>71.965881</ele>
<time>2011-04-28T04:51:54Z</time>
<desc>lat.=22.091635, lon.=104.672867, Alt.=71.965881m. Speed=0.000000m/h.</desc>
<speed>0.000000</speed>
</trkpt>
<trkpt lat="22.091650" lon="104.672859">
<ele>71.752991</ele>
<time>2011-04-28T04:51:59Z</time>
<desc>lat.=22.091650, lon.=104.672859, Alt.=71.752991m. Speed=0.000000m/h.</desc>
<speed>0.000000</speed>
</trkpt>
<trkpt lat="22.091656" lon="104.672859">
<ele>71.155334</ele>
<time>2011-04-28T04:52:04Z</time>
<desc>lat.=22.091656, lon.=104.672859, Alt.=71.155334m. Speed=0.000000m/h.</desc>
<speed>0.000000</speed>
</trkpt>
<trkpt lat="22.091661" lon="104.672859">
<ele>71.045959</ele>
<time>2011-04-28T04:52:09Z</time>
<desc>lat.=22.091661, lon.=104.672859, Alt.=71.045959m. Speed=0.000000m/h.</desc>
<speed>0.000000</speed>
</trkpt>
<trkpt lat="22.091663" lon="104.672867">
<ele>70.803772</ele>
<time>2011-04-28T04:52:14Z</time>
<desc>lat.=22.091663, lon.=104.672867, Alt.=70.803772m. Speed=0.000000m/h.</desc>
<speed>0.000000</speed>
</trkpt>
<trkpt lat="22.091667" lon="104.672859">
<ele>70.309631</ele>
<time>2011-04-28T04:52:19Z</time>
<desc>lat.=22.091667, lon.=104.672859, Alt.=70.309631m. Speed=0.036000m/h.</desc>
<speed>0.010000</speed>
</trkpt>
<trkpt lat="22.091669" lon="104.672859">
<ele>69.583069</ele>
<time>2011-04-28T04:52:24Z</time>
<desc>lat.=22.091669, lon.=104.672859, Alt.=69.583069m. Speed=0.036000m/h.</desc>
<speed>0.010000</speed>
</trkpt>
<trkpt lat="22.091665" lon="104.672852">
<ele>69.137756</ele>
<time>2011-04-28T04:52:29Z</time>
<desc>lat.=22.091665, lon.=104.672852, Alt.=69.137756m. Speed=0.036000m/h.</desc>
<speed>0.010000</speed>
</trkpt>
<trkpt lat="22.091654" lon="104.672844">
<ele>68.397522</ele>
<time>2011-04-28T04:52:34Z</time>
<desc>lat.=22.091654, lon.=104.672844, Alt.=68.397522m. Speed=0.108000m/h.</desc>
<speed>0.030000</speed>
</trkpt>
<trkpt lat="22.091644" lon="104.672844">
<ele>67.575256</ele>
<time>2011-04-28T04:52:39Z</time>
<desc>lat.=22.091644, lon.=104.672844, Alt.=67.575256m. Speed=0.000000m/h.</desc>
<speed>0.000000</speed>
</trkpt>
<trkpt lat="22.091635" lon="104.672836">
<ele>66.815491</ele>
<time>2011-04-28T04:52:44Z</time>
<desc>lat.=22.091635, lon.=104.672836, Alt.=66.815491m. Speed=0.036000m/h.</desc>
<speed>0.010000</speed>
</trkpt>
<trkpt lat="22.091635" lon="104.672836">
<ele>66.803772</ele>
<time>2011-04-28T04:52:49Z</time>
<desc>lat.=22.091635, lon.=104.672836, Alt.=66.803772m. Speed=0.072000m/h.</desc>
<speed>0.020000</speed>
</trkpt>
<trkpt lat="22.091635" lon="104.672836">
<ele>66.790100</ele>
<time>2011-04-28T04:52:54Z</time>
<desc>lat.=22.091635, lon.=104.672836, Alt.=66.790100m. Speed=0.036000m/h.</desc>
<speed>0.010000</speed>
</trkpt>
<trkpt lat="22.091635" lon="104.672836">
<ele>66.774475</ele>
<time>2011-04-28T04:52:59Z</time>
<desc>lat.=22.091635, lon.=104.672836, Alt.=66.774475m. Speed=0.036000m/h.</desc>
<speed>0.010000</speed>
</trkpt>
<trkpt lat="22.091635" lon="104.672836">
<ele>66.735413</ele>
<time>2011-04-28T04:53:04Z</time>
<desc>lat.=22.091635, lon.=104.672836, Alt.=66.735413m. Speed=0.108000m/h.</desc>
<speed>0.030000</speed>
</trkpt>
<trkpt lat="22.091635" lon="104.672836">
<ele>66.713928</ele>
<time>2011-04-28T04:53:09Z</time>
<desc>lat.=22.091635, lon.=104.672836, Alt.=66.713928m. Speed=0.360000m/h.</desc>
<speed>0.100000</speed>
</trkpt>
<trkpt lat="22.091637" lon="104.672844">
<ele>66.725647</ele>
<time>2011-04-28T04:53:14Z</time>
<desc>lat.=22.091637, lon.=104.672844, Alt.=66.725647m. Speed=0.252000m/h.</desc>
<speed>0.070000</speed>
</trkpt>
<trkpt lat="22.091635" lon="104.672844">
<ele>66.737366</ele>
<time>2011-04-28T04:53:19Z</time>
<desc>lat.=22.091635, lon.=104.672844, Alt.=66.737366m. Speed=0.072000m/h.</desc>
<speed>0.020000</speed>
</trkpt>
<trkpt lat="22.091635" lon="104.672844">
<ele>66.741272</ele>
<time>2011-04-28T04:53:24Z</time>
<desc>lat.=22.091635, lon.=104.672844, Alt.=66.741272m. Speed=0.000000m/h.</desc>
<speed>0.000000</speed>
</trkpt>
<trkpt lat="22.091635" lon="104.672844">
<ele>66.756897</ele>
<time>2011-04-28T04:53:29Z</time>
<desc>lat.=22.091635, lon.=104.672844, Alt.=66.756897m. Speed=0.000000m/h.</desc>
<speed>0.000000</speed>
</trkpt>
<trkpt lat="22.091637" lon="104.672844">
<ele>66.733459</ele>
<time>2011-04-28T04:53:34Z</time>
<desc>lat.=22.091637, lon.=104.672844, Alt.=66.733459m. Speed=0.036000m/h.</desc>
<speed>0.010000</speed>
</trkpt>
<trkpt lat="22.091635" lon="104.672844">
<ele>66.727600</ele>
<time>2011-04-28T04:53:39Z</time>
<desc>lat.=22.091635, lon.=104.672844, Alt.=66.727600m. Speed=0.036000m/h.</desc>
<speed>0.010000</speed>
</trkpt>
<trkpt lat="22.091635" lon="104.672844">
<ele>66.745178</ele>
<time>2011-04-28T04:53:44Z</time>
<desc>lat.=22.091635, lon.=104.672844, Alt.=66.745178m. Speed=0.036000m/h.</desc>
<speed>0.010000</speed>
</trkpt>
<trkpt lat="22.091635" lon="104.672844">
<ele>66.752991</ele>
<time>2011-04-28T04:53:49Z</time>
<desc>lat.=22.091635, lon.=104.672844, Alt.=66.752991m. Speed=0.072000m/h.</desc>
<speed>0.020000</speed>
</trkpt>
<trkpt lat="22.091635" lon="104.672844">
<ele>66.752991</ele>
<time>2011-04-28T04:53:54Z</time>
<desc>lat.=22.091635, lon.=104.672844, Alt.=66.752991m. Speed=0.036000m/h.</desc>
<speed>0.010000</speed>
</trkpt>
<trkpt lat="22.091635" lon="104.672844">
<ele>66.751038</ele>
<time>2011-04-28T04:53:59Z</time>
<desc>lat.=22.091635, lon.=104.672844, Alt.=66.751038m. Speed=0.036000m/h.</desc>
<speed>0.010000</speed>
</trkpt>
<trkpt lat="22.091635" lon="104.672844">
<ele>66.752991</ele>
<time>2011-04-28T04:54:04Z</time>
<desc>lat.=22.091635, lon.=104.672844, Alt.=66.752991m. Speed=0.036000m/h.</desc>
<speed>0.010000</speed>
</trkpt>
<trkpt lat="22.091635" lon="104.672844">
<ele>66.749084</ele>
<time>2011-04-28T04:54:09Z</time>
<desc>lat.=22.091635, lon.=104.672844, Alt.=66.749084m. Speed=0.072000m/h.</desc>
<speed>0.020000</speed>
</trkpt>
<trkpt lat="22.091635" lon="104.672844">
<ele>66.747131</ele>
<time>2011-04-28T04:54:14Z</time>
<desc>lat.=22.091635, lon.=104.672844, Alt.=66.747131m. Speed=0.072000m/h.</desc>
<speed>0.020000</speed>
</trkpt>
<trkpt lat="22.091633" lon="104.672844">
<ele>66.762756</ele>
<time>2011-04-28T04:54:19Z</time>
<desc>lat.=22.091633, lon.=104.672844, Alt.=66.762756m. Speed=0.072000m/h.</desc>
<speed>0.020000</speed>
</trkpt>
<trkpt lat="22.091633" lon="104.672844">
<ele>66.751038</ele>
<time>2011-04-28T04:54:24Z</time>
<desc>lat.=22.091633, lon.=104.672844, Alt.=66.751038m. Speed=0.072000m/h.</desc>
<speed>0.020000</speed>
</trkpt>
<trkpt lat="22.091633" lon="104.672844">
<ele>66.713928</ele>
<time>2011-04-28T04:54:29Z</time>
<desc>lat.=22.091633, lon.=104.672844, Alt.=66.713928m. Speed=0.000000m/h.</desc>
<speed>0.000000</speed>
</trkpt>
<trkpt lat="22.091633" lon="104.672844">
<ele>66.676819</ele>
<time>2011-04-28T04:54:34Z</time>
<desc>lat.=22.091633, lon.=104.672844, Alt.=66.676819m. Speed=0.072000m/h.</desc>
<speed>0.020000</speed>
</trkpt>
<trkpt lat="22.091633" lon="104.672844">
<ele>66.616272</ele>
<time>2011-04-28T04:54:39Z</time>
<desc>lat.=22.091633, lon.=104.672844, Alt.=66.616272m. Speed=0.036000m/h.</desc>
<speed>0.010000</speed>
</trkpt>
<trkpt lat="22.091633" lon="104.672844">
<ele>66.585022</ele>
<time>2011-04-28T04:54:44Z</time>
<desc>lat.=22.091633, lon.=104.672844, Alt.=66.585022m. Speed=0.000000m/h.</desc>
<speed>0.000000</speed>
</trkpt>
<trkpt lat="22.091633" lon="104.672844">
<ele>66.522522</ele>
<time>2011-04-28T04:54:49Z</time>
<desc>lat.=22.091633, lon.=104.672844, Alt.=66.522522m. Speed=0.108000m/h.</desc>
<speed>0.030000</speed>
</trkpt>
<trkpt lat="22.091612" lon="104.672791">
<ele>65.399475</ele>
<time>2011-04-28T04:54:54Z</time>
<desc>lat.=22.091612, lon.=104.672791, Alt.=65.399475m. Speed=10.368000m/h.</desc>
<speed>2.880000</speed>
</trkpt>
<trkpt lat="22.091532" lon="104.672630">
<ele>64.745178</ele>
<time>2011-04-28T04:54:59Z</time>
<desc>lat.=22.091532, lon.=104.672630, Alt.=64.745178m. Speed=14.976000m/h.</desc>
<speed>4.160000</speed>
</trkpt>
<trkpt lat="22.091438" lon="104.672493">
<ele>64.174866</ele>
<time>2011-04-28T04:55:04Z</time>
<desc>lat.=22.091438, lon.=104.672493, Alt.=64.174866m. Speed=9.072000m/h.</desc>
<speed>2.520000</speed>
</trkpt>
<trkpt lat="22.091347" lon="104.672371">
<ele>64.044006</ele>
<time>2011-04-28T04:55:09Z</time>
<desc>lat.=22.091347, lon.=104.672371, Alt.=64.044006m. Speed=13.572000m/h.</desc>
<speed>3.770000</speed>
</trkpt>
<trkpt lat="22.091234" lon="104.672234">
<ele>65.370178</ele>
<time>2011-04-28T04:55:14Z</time>
<desc>lat.=22.091234, lon.=104.672234, Alt.=65.370178m. Speed=9.684000m/h.</desc>
<speed>2.690000</speed>
</trkpt>
<trkpt lat="22.091173" lon="104.672119">
<ele>66.026428</ele>
<time>2011-04-28T04:55:19Z</time>
<desc>lat.=22.091173, lon.=104.672119, Alt.=66.026428m. Speed=9.576000m/h.</desc>
<speed>2.660000</speed>
</trkpt>
<trkpt lat="22.091129" lon="104.671982">
<ele>66.911194</ele>
<time>2011-04-28T04:55:24Z</time>
<desc>lat.=22.091129, lon.=104.671982, Alt.=66.911194m. Speed=11.880000m/h.</desc>
<speed>3.300000</speed>
</trkpt>
<trkpt lat="22.091084" lon="104.671829">
<ele>66.733459</ele>
<time>2011-04-28T04:55:29Z</time>
<desc>lat.=22.091084, lon.=104.671829, Alt.=66.733459m. Speed=13.320000m/h.</desc>
<speed>3.700000</speed>
</trkpt>
<trkpt lat="22.091030" lon="104.671646">
<ele>69.559631</ele>
<time>2011-04-28T04:55:34Z</time>
<desc>lat.=22.091030, lon.=104.671646, Alt.=69.559631m. Speed=14.184000m/h.</desc>
<speed>3.940000</speed>
</trkpt>
<trkpt lat="22.090975" lon="104.671486">
<ele>71.495178</ele>
<time>2011-04-28T04:55:39Z</time>
<desc>lat.=22.090975, lon.=104.671486, Alt.=71.495178m. Speed=10.620000m/h.</desc>
<speed>2.950000</speed>
</trkpt>
<trkpt lat="22.090914" lon="104.671303">
<ele>72.393616</ele>
<time>2011-04-28T04:55:44Z</time>
<desc>lat.=22.090914, lon.=104.671303, Alt.=72.393616m. Speed=12.456000m/h.</desc>
<speed>3.460000</speed>
</trkpt>
<trkpt lat="22.090837" lon="104.671082">
<ele>73.295959</ele>
<time>2011-04-28T04:55:49Z</time>
<desc>lat.=22.090837, lon.=104.671082, Alt.=73.295959m. Speed=15.552000m/h.</desc>
<speed>4.320000</speed>
</trkpt>
<trkpt lat="22.090815" lon="104.670853">
<ele>73.563538</ele>
<time>2011-04-28T04:55:54Z</time>
<desc>lat.=22.090815, lon.=104.670853, Alt.=73.563538m. Speed=13.392000m/h.</desc>
<speed>3.720000</speed>
</trkpt>
<trkpt lat="22.090776" lon="104.670639">
<ele>73.483459</ele>
<time>2011-04-28T04:55:59Z</time>
<desc>lat.=22.090776, lon.=104.670639, Alt.=73.483459m. Speed=9.684000m/h.</desc>
<speed>2.690000</speed>
</trkpt>
<trkpt lat="22.090784" lon="104.670494">
<ele>74.891663</ele>
<time>2011-04-28T04:56:04Z</time>
<desc>lat.=22.090784, lon.=104.670494, Alt.=74.891663m. Speed=9.288000m/h.</desc>
<speed>2.580000</speed>
</trkpt>
<trkpt lat="22.090786" lon="104.670303">
<ele>75.674866</ele>
<time>2011-04-28T04:56:09Z</time>
<desc>lat.=22.090786, lon.=104.670303, Alt.=75.674866m. Speed=9.324000m/h.</desc>
<speed>2.590000</speed>
</trkpt>
<trkpt lat="22.090767" lon="104.670143">
<ele>76.223694</ele>
<time>2011-04-28T04:56:14Z</time>
<desc>lat.=22.090767, lon.=104.670143, Alt.=76.223694m. Speed=9.324000m/h.</desc>
<speed>2.590000</speed>
</trkpt>
<trkpt lat="22.090645" lon="104.669960">
<ele>76.749084</ele>
<time>2011-04-28T04:56:19Z</time>
<desc>lat.=22.090645, lon.=104.669960, Alt.=76.749084m. Speed=10.800000m/h.</desc>
<speed>3.000000</speed>
</trkpt>
<trkpt lat="22.090542" lon="104.669807">
<ele>77.512756</ele>
<time>2011-04-28T04:56:24Z</time>
<desc>lat.=22.090542, lon.=104.669807, Alt.=77.512756m. Speed=6.912000m/h.</desc>
<speed>1.920000</speed>
</trkpt>
<trkpt lat="22.090418" lon="104.669701">
<ele>78.368225</ele>
<time>2011-04-28T04:56:29Z</time>
<desc>lat.=22.090418, lon.=104.669701, Alt.=78.368225m. Speed=5.328000m/h.</desc>
<speed>1.480000</speed>
</trkpt>
<trkpt lat="22.090382" lon="104.669655">
<ele>78.377991</ele>
<time>2011-04-28T04:56:34Z</time>
<desc>lat.=22.090382, lon.=104.669655, Alt.=78.377991m. Speed=0.180000m/h.</desc>
<speed>0.050000</speed>
</trkpt>
<trkpt lat="22.090384" lon="104.669655">
<ele>78.555725</ele>
<time>2011-04-28T04:56:39Z</time>
<desc>lat.=22.090384, lon.=104.669655, Alt.=78.555725m. Speed=0.288000m/h.</desc>
<speed>0.080000</speed>
</trkpt>
<trkpt lat="22.090382" lon="104.669655">
<ele>78.594788</ele>
<time>2011-04-28T04:56:44Z</time>
<desc>lat.=22.090382, lon.=104.669655, Alt.=78.594788m. Speed=0.144000m/h.</desc>
<speed>0.040000</speed>
</trkpt>
<trkpt lat="22.090382" lon="104.669655">
<ele>78.629944</ele>
<time>2011-04-28T04:56:49Z</time>
<desc>lat.=22.090382, lon.=104.669655, Alt.=78.629944m. Speed=0.072000m/h.</desc>
<speed>0.020000</speed>
</trkpt>
<trkpt lat="22.090380" lon="104.669655">
<ele>78.631897</ele>
<time>2011-04-28T04:56:54Z</time>
<desc>lat.=22.090380, lon.=104.669655, Alt.=78.631897m. Speed=0.648000m/h.</desc>
<speed>0.180000</speed>
</trkpt>
<trkpt lat="22.090374" lon="104.669662">
<ele>78.639709</ele>
<time>2011-04-28T04:56:59Z</time>
<desc>lat.=22.090374, lon.=104.669662, Alt.=78.639709m. Speed=0.324000m/h.</desc>
<speed>0.090000</speed>
</trkpt>
<trkpt lat="22.090359" lon="104.669655">
<ele>78.653381</ele>
<time>2011-04-28T04:57:04Z</time>
<desc>lat.=22.090359, lon.=104.669655, Alt.=78.653381m. Speed=4.824000m/h.</desc>
<speed>1.340000</speed>
</trkpt>
<trkpt lat="22.090258" lon="104.669609">
<ele>78.610413</ele>
<time>2011-04-28T04:57:09Z</time>
<desc>lat.=22.090258, lon.=104.669609, Alt.=78.610413m. Speed=7.524000m/h.</desc>
<speed>2.090000</speed>
</trkpt>
<trkpt lat="22.090118" lon="104.669624">
<ele>78.170959</ele>
<time>2011-04-28T04:57:14Z</time>
<desc>lat.=22.090118, lon.=104.669624, Alt.=78.170959m. Speed=10.980000m/h.</desc>
<speed>3.050000</speed>
</trkpt>
<trkpt lat="22.089956" lon="104.669670">
<ele>78.602600</ele>
<time>2011-04-28T04:57:19Z</time>
<desc>lat.=22.089956, lon.=104.669670, Alt.=78.602600m. Speed=11.016000m/h.</desc>
<speed>3.060000</speed>
</trkpt>
<trkpt lat="22.089796" lon="104.669716">
<ele>78.901428</ele>
<time>2011-04-28T04:57:24Z</time>
<desc>lat.=22.089796, lon.=104.669716, Alt.=78.901428m. Speed=11.916000m/h.</desc>
<speed>3.310000</speed>
</trkpt>
<trkpt lat="22.089642" lon="104.669807">
<ele>79.088928</ele>
<time>2011-04-28T04:57:29Z</time>
<desc>lat.=22.089642, lon.=104.669807, Alt.=79.088928m. Speed=13.608000m/h.</desc>
<speed>3.780000</speed>
</trkpt>
<trkpt lat="22.089500" lon="104.669914">
<ele>78.678772</ele>
<time>2011-04-28T04:57:34Z</time>
<desc>lat.=22.089500, lon.=104.669914, Alt.=78.678772m. Speed=12.312000m/h.</desc>
<speed>3.420000</speed>
</trkpt>
<trkpt lat="22.089371" lon="104.670074">
<ele>78.479553</ele>
<time>2011-04-28T04:57:39Z</time>
<desc>lat.=22.089371, lon.=104.670074, Alt.=78.479553m. Speed=16.704000m/h.</desc>
<speed>4.640000</speed>
</trkpt>
<trkpt lat="22.089333" lon="104.670364">
<ele>76.809631</ele>
<time>2011-04-28T04:57:44Z</time>
<desc>lat.=22.089333, lon.=104.670364, Alt.=76.809631m. Speed=25.236000m/h.</desc>
<speed>7.010000</speed>
</trkpt>
<trkpt lat="22.089287" lon="104.670715">
<ele>74.508850</ele>
<time>2011-04-28T04:57:49Z</time>
<desc>lat.=22.089287, lon.=104.670715, Alt.=74.508850m. Speed=29.879999m/h.</desc>
<speed>8.300000</speed>
</trkpt>
<trkpt lat="22.088915" lon="104.670822">
<ele>73.294006</ele>
<time>2011-04-28T04:57:54Z</time>
<desc>lat.=22.088915, lon.=104.670822, Alt.=73.294006m. Speed=33.264000m/h.</desc>
<speed>9.240000</speed>
</trkpt>
<trkpt lat="22.088472" lon="104.670975">
<ele>71.129944</ele>
<time>2011-04-28T04:57:59Z</time>
<desc>lat.=22.088472, lon.=104.670975, Alt.=71.129944m. Speed=37.332001m/h.</desc>
<speed>10.370000</speed>
</trkpt>
<trkpt lat="22.088055" lon="104.671257">
<ele>68.424866</ele>
<time>2011-04-28T04:58:04Z</time>
<desc>lat.=22.088055, lon.=104.671257, Alt.=68.424866m. Speed=37.080002m/h.</desc>
<speed>10.300001</speed>
</trkpt>
<trkpt lat="22.087700" lon="104.671265">
<ele>67.262756</ele>
<time>2011-04-28T04:58:09Z</time>
<desc>lat.=22.087700, lon.=104.671265, Alt.=67.262756m. Speed=22.356001m/h.</desc>
<speed>6.210000</speed>
</trkpt>
<trkpt lat="22.087484" lon="104.671150">
<ele>66.454163</ele>
<time>2011-04-28T04:58:14Z</time>
<desc>lat.=22.087484, lon.=104.671150, Alt.=66.454163m. Speed=12.672000m/h.</desc>
<speed>3.520000</speed>
</trkpt>
<trkpt lat="22.087318" lon="104.671059">
<ele>65.786194</ele>
<time>2011-04-28T04:58:19Z</time>
<desc>lat.=22.087318, lon.=104.671059, Alt.=65.786194m. Speed=10.548000m/h.</desc>
<speed>2.930000</speed>
</trkpt>
<trkpt lat="22.087200" lon="104.670921">
<ele>64.169006</ele>
<time>2011-04-28T04:58:24Z</time>
<desc>lat.=22.087200, lon.=104.670921, Alt.=64.169006m. Speed=10.368000m/h.</desc>
<speed>2.880000</speed>
</trkpt>
<trkpt lat="22.087086" lon="104.670815">
<ele>63.838409</ele>
<time>2011-04-28T04:58:29Z</time>
<desc>lat.=22.087086, lon.=104.670815, Alt.=63.838409m. Speed=9.396000m/h.</desc>
<speed>2.610000</speed>
</trkpt>
<trkpt lat="22.086960" lon="104.670769">
<ele>66.485413</ele>
<time>2011-04-28T04:58:34Z</time>
<desc>lat.=22.086960, lon.=104.670769, Alt.=66.485413m. Speed=9.288000m/h.</desc>
<speed>2.580000</speed>
</trkpt>
<trkpt lat="22.086859" lon="104.670685">
<ele>68.417053</ele>
<time>2011-04-28T04:58:39Z</time>
<desc>lat.=22.086859, lon.=104.670685, Alt.=68.417053m. Speed=9.000000m/h.</desc>
<speed>2.500000</speed>
</trkpt>
<trkpt lat="22.086794" lon="104.670570">
<ele>70.790100</ele>
<time>2011-04-28T04:58:44Z</time>
<desc>lat.=22.086794, lon.=104.670570, Alt.=70.790100m. Speed=8.496000m/h.</desc>
<speed>2.360000</speed>
</trkpt>
<trkpt lat="22.086725" lon="104.670471">
<ele>71.502991</ele>
<time>2011-04-28T04:58:49Z</time>
<desc>lat.=22.086725, lon.=104.670471, Alt.=71.502991m. Speed=8.316000m/h.</desc>
<speed>2.310000</speed>
</trkpt>
<trkpt lat="22.086607" lon="104.670410">
<ele>72.579163</ele>
<time>2011-04-28T04:58:54Z</time>
<desc>lat.=22.086607, lon.=104.670410, Alt.=72.579163m. Speed=7.992000m/h.</desc>
<speed>2.220000</speed>
</trkpt>
<trkpt lat="22.086515" lon="104.670311">
<ele>72.831116</ele>
<time>2011-04-28T04:58:59Z</time>
<desc>lat.=22.086515, lon.=104.670311, Alt.=72.831116m. Speed=9.072000m/h.</desc>
<speed>2.520000</speed>
</trkpt>
<trkpt lat="22.086372" lon="104.670227">
<ele>73.948303</ele>
<time>2011-04-28T04:59:04Z</time>
<desc>lat.=22.086372, lon.=104.670227, Alt.=73.948303m. Speed=6.876000m/h.</desc>
<speed>1.910000</speed>
</trkpt>
<trkpt lat="22.086283" lon="104.670212">
<ele>74.251038</ele>
<time>2011-04-28T04:59:09Z</time>
<desc>lat.=22.086283, lon.=104.670212, Alt.=74.251038m. Speed=7.884000m/h.</desc>
<speed>2.190000</speed>
</trkpt>
<trkpt lat="22.086143" lon="104.670181">
<ele>75.536194</ele>
<time>2011-04-28T04:59:14Z</time>
<desc>lat.=22.086143, lon.=104.670181, Alt.=75.536194m. Speed=7.668000m/h.</desc>
<speed>2.130000</speed>
</trkpt>
<trkpt lat="22.086031" lon="104.670128">
<ele>77.085022</ele>
<time>2011-04-28T04:59:19Z</time>
<desc>lat.=22.086031, lon.=104.670128, Alt.=77.085022m. Speed=6.264000m/h.</desc>
<speed>1.740000</speed>
</trkpt>
<trkpt lat="22.085941" lon="104.670006">
<ele>76.294006</ele>
<time>2011-04-28T04:59:24Z</time>
<desc>lat.=22.085941, lon.=104.670006, Alt.=76.294006m. Speed=11.664000m/h.</desc>
<speed>3.240000</speed>
</trkpt>
<trkpt lat="22.085857" lon="104.669853">
<ele>76.583069</ele>
<time>2011-04-28T04:59:29Z</time>
<desc>lat.=22.085857, lon.=104.669853, Alt.=76.583069m. Speed=14.040000m/h.</desc>
<speed>3.900000</speed>
</trkpt>
<trkpt lat="22.085686" lon="104.669739">
<ele>74.042053</ele>
<time>2011-04-28T04:59:34Z</time>
<desc>lat.=22.085686, lon.=104.669739, Alt.=74.042053m. Speed=12.996000m/h.</desc>
<speed>3.610000</speed>
</trkpt>
<trkpt lat="22.085514" lon="104.669617">
<ele>71.596741</ele>
<time>2011-04-28T04:59:39Z</time>
<desc>lat.=22.085514, lon.=104.669617, Alt.=71.596741m. Speed=13.320000m/h.</desc>
<speed>3.700000</speed>
</trkpt>
<trkpt lat="22.085291" lon="104.669617">
<ele>64.780334</ele>
<time>2011-04-28T04:59:44Z</time>
<desc>lat.=22.085291, lon.=104.669617, Alt.=64.780334m. Speed=19.691999m/h.</desc>
<speed>5.470000</speed>
</trkpt>
<trkpt lat="22.085003" lon="104.669792">
<ele>60.698761</ele>
<time>2011-04-28T04:59:49Z</time>
<desc>lat.=22.085003, lon.=104.669792, Alt.=60.698761m. Speed=30.024000m/h.</desc>
<speed>8.340000</speed>
</trkpt>
<trkpt lat="22.084656" lon="104.670128">
<ele>57.432159</ele>
<time>2011-04-28T04:59:54Z</time>
<desc>lat.=22.084656, lon.=104.670128, Alt.=57.432159m. Speed=36.647999m/h.</desc>
<speed>10.180000</speed>
</trkpt>
<trkpt lat="22.084305" lon="104.670525">
<ele>54.184113</ele>
<time>2011-04-28T04:59:59Z</time>
<desc>lat.=22.084305, lon.=104.670525, Alt.=54.184113m. Speed=38.520000m/h.</desc>
<speed>10.700000</speed>
</trkpt>
<trkpt lat="22.083960" lon="104.670784">
<ele>50.586456</ele>
<time>2011-04-28T05:00:04Z</time>
<desc>lat.=22.083960, lon.=104.670784, Alt.=50.586456m. Speed=31.212000m/h.</desc>
<speed>8.670000</speed>
</trkpt>
<trkpt lat="22.083679" lon="104.670601">
<ele>49.247589</ele>
<time>2011-04-28T05:00:09Z</time>
<desc>lat.=22.083679, lon.=104.670601, Alt.=49.247589m. Speed=24.264000m/h.</desc>
<speed>6.740000</speed>
</trkpt>
<trkpt lat="22.083385" lon="104.670502">
<ele>49.669464</ele>
<time>2011-04-28T05:00:14Z</time>
<desc>lat.=22.083385, lon.=104.670502, Alt.=49.669464m. Speed=22.284000m/h.</desc>
<speed>6.190000</speed>
</trkpt>
<trkpt lat="22.083143" lon="104.670616">
<ele>49.898956</ele>
<time>2011-04-28T05:00:19Z</time>
<desc>lat.=22.083143, lon.=104.670616, Alt.=49.898956m. Speed=18.252001m/h.</desc>
<speed>5.070000</speed>
</trkpt>
<trkpt lat="22.082958" lon="104.670708">
<ele>49.641144</ele>
<time>2011-04-28T05:00:24Z</time>
<desc>lat.=22.082958, lon.=104.670708, Alt.=49.641144m. Speed=13.536000m/h.</desc>
<speed>3.760000</speed>
</trkpt>
<trkpt lat="22.082808" lon="104.670723">
<ele>49.072784</ele>
<time>2011-04-28T05:00:29Z</time>
<desc>lat.=22.082808, lon.=104.670723, Alt.=49.072784m. Speed=9.720000m/h.</desc>
<speed>2.700000</speed>
</trkpt>
<trkpt lat="22.082706" lon="104.670570">
<ele>55.841339</ele>
<time>2011-04-28T05:00:34Z</time>
<desc>lat.=22.082706, lon.=104.670570, Alt.=55.841339m. Speed=13.788000m/h.</desc>
<speed>3.830000</speed>
</trkpt>
<trkpt lat="22.082676" lon="104.670372">
<ele>57.428253</ele>
<time>2011-04-28T05:00:39Z</time>
<desc>lat.=22.082676, lon.=104.670372, Alt.=57.428253m. Speed=13.932000m/h.</desc>
<speed>3.870000</speed>
</trkpt>
<trkpt lat="22.082649" lon="104.670158">
<ele>59.651886</ele>
<time>2011-04-28T05:00:44Z</time>
<desc>lat.=22.082649, lon.=104.670158, Alt.=59.651886m. Speed=14.292000m/h.</desc>
<speed>3.970000</speed>
</trkpt>
<trkpt lat="22.082642" lon="104.669975">
<ele>60.403839</ele>
<time>2011-04-28T05:00:49Z</time>
<desc>lat.=22.082642, lon.=104.669975, Alt.=60.403839m. Speed=12.240000m/h.</desc>
<speed>3.400000</speed>
</trkpt>
<trkpt lat="22.082623" lon="104.669823">
<ele>60.677277</ele>
<time>2011-04-28T05:00:54Z</time>
<desc>lat.=22.082623, lon.=104.669823, Alt.=60.677277m. Speed=11.340000m/h.</desc>
<speed>3.150000</speed>
</trkpt>
<trkpt lat="22.082602" lon="104.669662">
<ele>60.660675</ele>
<time>2011-04-28T05:00:59Z</time>
<desc>lat.=22.082602, lon.=104.669662, Alt.=60.660675m. Speed=10.332000m/h.</desc>
<speed>2.870000</speed>
</trkpt>
<trkpt lat="22.082539" lon="104.669441">
<ele>61.190948</ele>
<time>2011-04-28T05:01:04Z</time>
<desc>lat.=22.082539, lon.=104.669441, Alt.=61.190948m. Speed=12.996000m/h.</desc>
<speed>3.610000</speed>
</trkpt>
<trkpt lat="22.082424" lon="104.669266">
<ele>61.951691</ele>
<time>2011-04-28T05:01:09Z</time>
<desc>lat.=22.082424, lon.=104.669266, Alt.=61.951691m. Speed=14.472000m/h.</desc>
<speed>4.020000</speed>
</trkpt>
<trkpt lat="22.082289" lon="104.669067">
<ele>63.900909</ele>
<time>2011-04-28T05:01:14Z</time>
<desc>lat.=22.082289, lon.=104.669067, Alt.=63.900909m. Speed=14.508000m/h.</desc>
<speed>4.030000</speed>
</trkpt>
<trkpt lat="22.082193" lon="104.668915">
<ele>64.565491</ele>
<time>2011-04-28T05:01:19Z</time>
<desc>lat.=22.082193, lon.=104.668915, Alt.=64.565491m. Speed=13.320000m/h.</desc>
<speed>3.700000</speed>
</trkpt>
<trkpt lat="22.082052" lon="104.668724">
<ele>65.020569</ele>
<time>2011-04-28T05:01:24Z</time>
<desc>lat.=22.082052, lon.=104.668724, Alt.=65.020569m. Speed=15.228000m/h.</desc>
<speed>4.230000</speed>
</trkpt>
<trkpt lat="22.081942" lon="104.668571">
<ele>66.215881</ele>
<time>2011-04-28T05:01:29Z</time>
<desc>lat.=22.081942, lon.=104.668571, Alt.=66.215881m. Speed=13.968000m/h.</desc>
<speed>3.880000</speed>
</trkpt>
<trkpt lat="22.081911" lon="104.668388">
<ele>66.661194</ele>
<time>2011-04-28T05:01:34Z</time>
<desc>lat.=22.081911, lon.=104.668388, Alt.=66.661194m. Speed=12.780000m/h.</desc>
<speed>3.550000</speed>
</trkpt>
<trkpt lat="22.081877" lon="104.668266">
<ele>68.151428</ele>
<time>2011-04-28T05:01:39Z</time>
<desc>lat.=22.081877, lon.=104.668266, Alt.=68.151428m. Speed=8.820000m/h.</desc>
<speed>2.450000</speed>
</trkpt>
<trkpt lat="22.081839" lon="104.668076">
<ele>69.573303</ele>
<time>2011-04-28T05:01:44Z</time>
<desc>lat.=22.081839, lon.=104.668076, Alt.=69.573303m. Speed=14.508000m/h.</desc>
<speed>4.030000</speed>
</trkpt>
<trkpt lat="22.081709" lon="104.667862">
<ele>70.327209</ele>
<time>2011-04-28T05:01:49Z</time>
<desc>lat.=22.081709, lon.=104.667862, Alt.=70.327209m. Speed=16.632000m/h.</desc>
<speed>4.620000</speed>
</trkpt>
<trkpt lat="22.081516" lon="104.667725">
<ele>70.594788</ele>
<time>2011-04-28T05:01:54Z</time>
<desc>lat.=22.081516, lon.=104.667725, Alt.=70.594788m. Speed=18.756001m/h.</desc>
<speed>5.210000</speed>
</trkpt>
<trkpt lat="22.081285" lon="104.667709">
<ele>71.254944</ele>
<time>2011-04-28T05:01:59Z</time>
<desc>lat.=22.081285, lon.=104.667709, Alt.=71.254944m. Speed=18.252001m/h.</desc>
<speed>5.070000</speed>
</trkpt>
<trkpt lat="22.081018" lon="104.667740">
<ele>72.514709</ele>
<time>2011-04-28T05:02:04Z</time>
<desc>lat.=22.081018, lon.=104.667740, Alt.=72.514709m. Speed=19.332001m/h.</desc>
<speed>5.370000</speed>
</trkpt>
<trkpt lat="22.080795" lon="104.667862">
<ele>75.014709</ele>
<time>2011-04-28T05:02:09Z</time>
<desc>lat.=22.080795, lon.=104.667862, Alt.=75.014709m. Speed=17.856001m/h.</desc>
<speed>4.960000</speed>
</trkpt>
<trkpt lat="22.080673" lon="104.668106">
<ele>76.215881</ele>
<time>2011-04-28T05:02:14Z</time>
<desc>lat.=22.080673, lon.=104.668106, Alt.=76.215881m. Speed=24.695999m/h.</desc>
<speed>6.860000</speed>
</trkpt>
<trkpt lat="22.080544" lon="104.668457">
<ele>76.836975</ele>
<time>2011-04-28T05:02:19Z</time>
<desc>lat.=22.080544, lon.=104.668457, Alt.=76.836975m. Speed=28.260000m/h.</desc>
<speed>7.850000</speed>
</trkpt>
<trkpt lat="22.080349" lon="104.668892">
<ele>78.006897</ele>
<time>2011-04-28T05:02:24Z</time>
<desc>lat.=22.080349, lon.=104.668892, Alt.=78.006897m. Speed=33.840000m/h.</desc>
<speed>9.400000</speed>
</trkpt>
<trkpt lat="22.080141" lon="104.669312">
<ele>78.239319</ele>
<time>2011-04-28T05:02:29Z</time>
<desc>lat.=22.080141, lon.=104.669312, Alt.=78.239319m. Speed=30.780001m/h.</desc>
<speed>8.550000</speed>
</trkpt>
<trkpt lat="22.079945" lon="104.669670">
<ele>81.342834</ele>
<time>2011-04-28T05:02:34Z</time>
<desc>lat.=22.079945, lon.=104.669670, Alt.=81.342834m. Speed=25.740000m/h.</desc>
<speed>7.150000</speed>
</trkpt>
<trkpt lat="22.079803" lon="104.669960">
<ele>83.733459</ele>
<time>2011-04-28T05:02:39Z</time>
<desc>lat.=22.079803, lon.=104.669960, Alt.=83.733459m. Speed=19.908001m/h.</desc>
<speed>5.530000</speed>
</trkpt>
<trkpt lat="22.079727" lon="104.670158">
<ele>85.290100</ele>
<time>2011-04-28T05:02:44Z</time>
<desc>lat.=22.079727, lon.=104.670158, Alt.=85.290100m. Speed=10.692000m/h.</desc>
<speed>2.970000</speed>
</trkpt>
<trkpt lat="22.079681" lon="104.670280">
<ele>86.835022</ele>
<time>2011-04-28T05:02:49Z</time>
<desc>lat.=22.079681, lon.=104.670280, Alt.=86.835022m. Speed=9.648000m/h.</desc>
<speed>2.680000</speed>
</trkpt>
<trkpt lat="22.079615" lon="104.670395">
<ele>89.286194</ele>
<time>2011-04-28T05:02:54Z</time>
<desc>lat.=22.079615, lon.=104.670395, Alt.=89.286194m. Speed=10.008000m/h.</desc>
<speed>2.780000</speed>
</trkpt>
<trkpt lat="22.079550" lon="104.670525">
<ele>91.333069</ele>
<time>2011-04-28T05:02:59Z</time>
<desc>lat.=22.079550, lon.=104.670525, Alt.=91.333069m. Speed=10.836000m/h.</desc>
<speed>3.010000</speed>
</trkpt>
<trkpt lat="22.079498" lon="104.670670">
<ele>93.227600</ele>
<time>2011-04-28T05:03:04Z</time>
<desc>lat.=22.079498, lon.=104.670670, Alt.=93.227600m. Speed=9.936000m/h.</desc>
<speed>2.760000</speed>
</trkpt>
<trkpt lat="22.079445" lon="104.670799">
<ele>94.571350</ele>
<time>2011-04-28T05:03:09Z</time>
<desc>lat.=22.079445, lon.=104.670799, Alt.=94.571350m. Speed=11.124000m/h.</desc>
<speed>3.090000</speed>
</trkpt>
<trkpt lat="22.079407" lon="104.670944">
<ele>93.229553</ele>
<time>2011-04-28T05:03:14Z</time>
<desc>lat.=22.079407, lon.=104.670944, Alt.=93.229553m. Speed=10.908000m/h.</desc>
<speed>3.030000</speed>
</trkpt>
<trkpt lat="22.079340" lon="104.671066">
<ele>91.577209</ele>
<time>2011-04-28T05:03:19Z</time>
<desc>lat.=22.079340, lon.=104.671066, Alt.=91.577209m. Speed=11.736000m/h.</desc>
<speed>3.260000</speed>
</trkpt>
<trkpt lat="22.079266" lon="104.671181">
<ele>91.920959</ele>
<time>2011-04-28T05:03:24Z</time>
<desc>lat.=22.079266, lon.=104.671181, Alt.=91.920959m. Speed=10.260000m/h.</desc>
<speed>2.850000</speed>
</trkpt>
<trkpt lat="22.079168" lon="104.671310">
<ele>91.870178</ele>
<time>2011-04-28T05:03:29Z</time>
<desc>lat.=22.079168, lon.=104.671310, Alt.=91.870178m. Speed=11.520000m/h.</desc>
<speed>3.200000</speed>
</trkpt>
<trkpt lat="22.079062" lon="104.671425">
<ele>92.008850</ele>
<time>2011-04-28T05:03:34Z</time>
<desc>lat.=22.079062, lon.=104.671425, Alt.=92.008850m. Speed=10.152000m/h.</desc>
<speed>2.820000</speed>
</trkpt>
<trkpt lat="22.078981" lon="104.671516">
<ele>92.338928</ele>
<time>2011-04-28T05:03:39Z</time>
<desc>lat.=22.078981, lon.=104.671516, Alt.=92.338928m. Speed=11.160000m/h.</desc>
<speed>3.100000</speed>
</trkpt>
<trkpt lat="22.078844" lon="104.671608">
<ele>92.647522</ele>
<time>2011-04-28T05:03:44Z</time>
<desc>lat.=22.078844, lon.=104.671608, Alt.=92.647522m. Speed=10.152000m/h.</desc>
<speed>2.820000</speed>
</trkpt>
<trkpt lat="22.078739" lon="104.671631">
<ele>92.950256</ele>
<time>2011-04-28T05:03:49Z</time>
<desc>lat.=22.078739, lon.=104.671631, Alt.=92.950256m. Speed=6.264000m/h.</desc>
<speed>1.740000</speed>
</trkpt>
<trkpt lat="22.078674" lon="104.671623">
<ele>92.637756</ele>
<time>2011-04-28T05:03:54Z</time>
<desc>lat.=22.078674, lon.=104.671623, Alt.=92.637756m. Speed=5.832000m/h.</desc>
<speed>1.620000</speed>
</trkpt>
<trkpt lat="22.078667" lon="104.671608">
<ele>92.565491</ele>
<time>2011-04-28T05:03:59Z</time>
<desc>lat.=22.078667, lon.=104.671608, Alt.=92.565491m. Speed=0.360000m/h.</desc>
<speed>0.100000</speed>
</trkpt>
<trkpt lat="22.078669" lon="104.671608">
<ele>92.708069</ele>
<time>2011-04-28T05:04:04Z</time>
<desc>lat.=22.078669, lon.=104.671608, Alt.=92.708069m. Speed=0.324000m/h.</desc>
<speed>0.090000</speed>
</trkpt>
<trkpt lat="22.078667" lon="104.671608">
<ele>92.735413</ele>
<time>2011-04-28T05:04:09Z</time>
<desc>lat.=22.078667, lon.=104.671608, Alt.=92.735413m. Speed=0.252000m/h.</desc>
<speed>0.070000</speed>
</trkpt>
<trkpt lat="22.078663" lon="104.671608">
<ele>92.706116</ele>
<time>2011-04-28T05:04:14Z</time>
<desc>lat.=22.078663, lon.=104.671608, Alt.=92.706116m. Speed=0.072000m/h.</desc>
<speed>0.020000</speed>
</trkpt>
<trkpt lat="22.078663" lon="104.671608">
<ele>92.672913</ele>
<time>2011-04-28T05:04:19Z</time>
<desc>lat.=22.078663, lon.=104.671608, Alt.=92.672913m. Speed=0.000000m/h.</desc>
<speed>0.000000</speed>
</trkpt>
<trkpt lat="22.078663" lon="104.671608">
<ele>92.626038</ele>
<time>2011-04-28T05:04:24Z</time>
<desc>lat.=22.078663, lon.=104.671608, Alt.=92.626038m. Speed=0.000000m/h.</desc>
<speed>0.000000</speed>
</trkpt>
<trkpt lat="22.078663" lon="104.671608">
<ele>92.618225</ele>
<time>2011-04-28T05:04:29Z</time>
<desc>lat.=22.078663, lon.=104.671608, Alt.=92.618225m. Speed=0.036000m/h.</desc>
<speed>0.010000</speed>
</trkpt>
<trkpt lat="22.078663" lon="104.671608">
<ele>92.633850</ele>
<time>2011-04-28T05:04:34Z</time>
<desc>lat.=22.078663, lon.=104.671608, Alt.=92.633850m. Speed=0.000000m/h.</desc>
<speed>0.000000</speed>
</trkpt>
<trkpt lat="22.078667" lon="104.671608">
<ele>92.663147</ele>
<time>2011-04-28T05:04:39Z</time>
<desc>lat.=22.078667, lon.=104.671608, Alt.=92.663147m. Speed=0.396000m/h.</desc>
<speed>0.110000</speed>
</trkpt>
<trkpt lat="22.078669" lon="104.671608">
<ele>92.690491</ele>
<time>2011-04-28T05:04:44Z</time>
<desc>lat.=22.078669, lon.=104.671608, Alt.=92.690491m. Speed=0.108000m/h.</desc>
<speed>0.030000</speed>
</trkpt>
<trkpt lat="22.078669" lon="104.671608">
<ele>92.733459</ele>
<time>2011-04-28T05:04:49Z</time>
<desc>lat.=22.078669, lon.=104.671608, Alt.=92.733459m. Speed=0.180000m/h.</desc>
<speed>0.050000</speed>
</trkpt>
<trkpt lat="22.078669" lon="104.671608">
<ele>92.754944</ele>
<time>2011-04-28T05:04:54Z</time>
<desc>lat.=22.078669, lon.=104.671608, Alt.=92.754944m. Speed=0.540000m/h.</desc>
<speed>0.150000</speed>
</trkpt>
<trkpt lat="22.078671" lon="104.671608">
<ele>92.794006</ele>
<time>2011-04-28T05:04:59Z</time>
<desc>lat.=22.078671, lon.=104.671608, Alt.=92.794006m. Speed=0.216000m/h.</desc>
<speed>0.060000</speed>
</trkpt>
<trkpt lat="22.078667" lon="104.671608">
<ele>92.797913</ele>
<time>2011-04-28T05:05:04Z</time>
<desc>lat.=22.078667, lon.=104.671608, Alt.=92.797913m. Speed=0.144000m/h.</desc>
<speed>0.040000</speed>
</trkpt>
<trkpt lat="22.078665" lon="104.671608">
<ele>92.786194</ele>
<time>2011-04-28T05:05:09Z</time>
<desc>lat.=22.078665, lon.=104.671608, Alt.=92.786194m. Speed=0.360000m/h.</desc>
<speed>0.100000</speed>
</trkpt>
<trkpt lat="22.078665" lon="104.671600">
<ele>92.770569</ele>
<time>2011-04-28T05:05:14Z</time>
<desc>lat.=22.078665, lon.=104.671600, Alt.=92.770569m. Speed=0.360000m/h.</desc>
<speed>0.100000</speed>
</trkpt>
<trkpt lat="22.078667" lon="104.671600">
<ele>92.770569</ele>
<time>2011-04-28T05:05:19Z</time>
<desc>lat.=22.078667, lon.=104.671600, Alt.=92.770569m. Speed=0.216000m/h.</desc>
<speed>0.060000</speed>
</trkpt>
<trkpt lat="22.078663" lon="104.671600">
<ele>92.743225</ele>
<time>2011-04-28T05:05:24Z</time>
<desc>lat.=22.078663, lon.=104.671600, Alt.=92.743225m. Speed=0.216000m/h.</desc>
<speed>0.060000</speed>
</trkpt>
<trkpt lat="22.078661" lon="104.671600">
<ele>92.737366</ele>
<time>2011-04-28T05:05:29Z</time>
<desc>lat.=22.078661, lon.=104.671600, Alt.=92.737366m. Speed=0.072000m/h.</desc>
<speed>0.020000</speed>
</trkpt>
<trkpt lat="22.078659" lon="104.671593">
<ele>92.696350</ele>
<time>2011-04-28T05:05:34Z</time>
<desc>lat.=22.078659, lon.=104.671593, Alt.=92.696350m. Speed=0.072000m/h.</desc>
<speed>0.020000</speed>
</trkpt>
<trkpt lat="22.078659" lon="104.671600">
<ele>92.844788</ele>
<time>2011-04-28T05:05:39Z</time>
<desc>lat.=22.078659, lon.=104.671600, Alt.=92.844788m. Speed=0.108000m/h.</desc>
<speed>0.030000</speed>
</trkpt>
<trkpt lat="22.078651" lon="104.671593">
<ele>93.124084</ele>
<time>2011-04-28T05:05:44Z</time>
<desc>lat.=22.078651, lon.=104.671593, Alt.=93.124084m. Speed=0.360000m/h.</desc>
<speed>0.100000</speed>
</trkpt>
<trkpt lat="22.078646" lon="104.671593">
<ele>93.336975</ele>
<time>2011-04-28T05:05:49Z</time>
<desc>lat.=22.078646, lon.=104.671593, Alt.=93.336975m. Speed=0.036000m/h.</desc>
<speed>0.010000</speed>
</trkpt>
<trkpt lat="22.078644" lon="104.671593">
<ele>93.649475</ele>
<time>2011-04-28T05:05:54Z</time>
<desc>lat.=22.078644, lon.=104.671593, Alt.=93.649475m. Speed=0.252000m/h.</desc>
<speed>0.070000</speed>
</trkpt>
<trkpt lat="22.078640" lon="104.671577">
<ele>93.915100</ele>
<time>2011-04-28T05:05:59Z</time>
<desc>lat.=22.078640, lon.=104.671577, Alt.=93.915100m. Speed=0.036000m/h.</desc>
<speed>0.010000</speed>
</trkpt>
<trkpt lat="22.078638" lon="104.671593">
<ele>94.032288</ele>
<time>2011-04-28T05:06:04Z</time>
<desc>lat.=22.078638, lon.=104.671593, Alt.=94.032288m. Speed=0.252000m/h.</desc>
<speed>0.070000</speed>
</trkpt>
<trkpt lat="22.078648" lon="104.671593">
<ele>94.520569</ele>
<time>2011-04-28T05:06:09Z</time>
<desc>lat.=22.078648, lon.=104.671593, Alt.=94.520569m. Speed=0.576000m/h.</desc>
<speed>0.160000</speed>
</trkpt>
<trkpt lat="22.078655" lon="104.671600">
<ele>95.049866</ele>
<time>2011-04-28T05:06:14Z</time>
<desc>lat.=22.078655, lon.=104.671600, Alt.=95.049866m. Speed=0.144000m/h.</desc>
<speed>0.040000</speed>
</trkpt>
<trkpt lat="22.078651" lon="104.671593">
<ele>95.385803</ele>
<time>2011-04-28T05:06:19Z</time>
<desc>lat.=22.078651, lon.=104.671593, Alt.=95.385803m. Speed=0.108000m/h.</desc>
<speed>0.030000</speed>
</trkpt>
<trkpt lat="22.078653" lon="104.671593">
<ele>95.432678</ele>
<time>2011-04-28T05:06:24Z</time>
<desc>lat.=22.078653, lon.=104.671593, Alt.=95.432678m. Speed=0.072000m/h.</desc>
<speed>0.020000</speed>
</trkpt>
<trkpt lat="22.078655" lon="104.671593">
<ele>95.471741</ele>
<time>2011-04-28T05:06:29Z</time>
<desc>lat.=22.078655, lon.=104.671593, Alt.=95.471741m. Speed=0.144000m/h.</desc>
<speed>0.040000</speed>
</trkpt>
<trkpt lat="22.078655" lon="104.671593">
<ele>95.516663</ele>
<time>2011-04-28T05:06:34Z</time>
<desc>lat.=22.078655, lon.=104.671593, Alt.=95.516663m. Speed=0.144000m/h.</desc>
<speed>0.040000</speed>
</trkpt>
<trkpt lat="22.078655" lon="104.671593">
<ele>95.559631</ele>
<time>2011-04-28T05:06:39Z</time>
<desc>lat.=22.078655, lon.=104.671593, Alt.=95.559631m. Speed=0.108000m/h.</desc>
<speed>0.030000</speed>
</trkpt>
<trkpt lat="22.078653" lon="104.671593">
<ele>95.598694</ele>
<time>2011-04-28T05:06:44Z</time>
<desc>lat.=22.078653, lon.=104.671593, Alt.=95.598694m. Speed=0.000000m/h.</desc>
<speed>0.000000</speed>
</trkpt>
<trkpt lat="22.078653" lon="104.671593">
<ele>95.610413</ele>
<time>2011-04-28T05:06:49Z</time>
<desc>lat.=22.078653, lon.=104.671593, Alt.=95.610413m. Speed=0.072000m/h.</desc>
<speed>0.020000</speed>
</trkpt>
<trkpt lat="22.078653" lon="104.671593">
<ele>95.626038</ele>
<time>2011-04-28T05:06:54Z</time>
<desc>lat.=22.078653, lon.=104.671593, Alt.=95.626038m. Speed=0.072000m/h.</desc>
<speed>0.020000</speed>
</trkpt>
<trkpt lat="22.078653" lon="104.671593">
<ele>95.667053</ele>
<time>2011-04-28T05:06:59Z</time>
<desc>lat.=22.078653, lon.=104.671593, Alt.=95.667053m. Speed=0.036000m/h.</desc>
<speed>0.010000</speed>
</trkpt>
<trkpt lat="22.078653" lon="104.671593">
<ele>95.692444</ele>
<time>2011-04-28T05:07:04Z</time>
<desc>lat.=22.078653, lon.=104.671593, Alt.=95.692444m. Speed=0.036000m/h.</desc>
<speed>0.010000</speed>
</trkpt>
<trkpt lat="22.078653" lon="104.671593">
<ele>95.706116</ele>
<time>2011-04-28T05:07:09Z</time>
<desc>lat.=22.078653, lon.=104.671593, Alt.=95.706116m. Speed=0.072000m/h.</desc>
<speed>0.020000</speed>
</trkpt>
<trkpt lat="22.078653" lon="104.671593">
<ele>95.682678</ele>
<time>2011-04-28T05:07:14Z</time>
<desc>lat.=22.078653, lon.=104.671593, Alt.=95.682678m. Speed=0.000000m/h.</desc>
<speed>0.000000</speed>
</trkpt>
<trkpt lat="22.078653" lon="104.671593">
<ele>95.698303</ele>
<time>2011-04-28T05:07:19Z</time>
<desc>lat.=22.078653, lon.=104.671593, Alt.=95.698303m. Speed=0.036000m/h.</desc>
<speed>0.010000</speed>
</trkpt>
<trkpt lat="22.078653" lon="104.671593">
<ele>95.727600</ele>
<time>2011-04-28T05:07:24Z</time>
<desc>lat.=22.078653, lon.=104.671593, Alt.=95.727600m. Speed=0.000000m/h.</desc>
<speed>0.000000</speed>
</trkpt>
<trkpt lat="22.078653" lon="104.671593">
<ele>95.731506</ele>
<time>2011-04-28T05:07:29Z</time>
<desc>lat.=22.078653, lon.=104.671593, Alt.=95.731506m. Speed=0.000000m/h.</desc>
<speed>0.000000</speed>
</trkpt>
<trkpt lat="22.078653" lon="104.671593">
<ele>95.735413</ele>
<time>2011-04-28T05:07:34Z</time>
<desc>lat.=22.078653, lon.=104.671593, Alt.=95.735413m. Speed=0.036000m/h.</desc>
<speed>0.010000</speed>
</trkpt>
<trkpt lat="22.078653" lon="104.671593">
<ele>95.739319</ele>
<time>2011-04-28T05:07:39Z</time>
<desc>lat.=22.078653, lon.=104.671593, Alt.=95.739319m. Speed=0.036000m/h.</desc>
<speed>0.010000</speed>
</trkpt>
<trkpt lat="22.078653" lon="104.671593">
<ele>95.719788</ele>
<time>2011-04-28T05:07:44Z</time>
<desc>lat.=22.078653, lon.=104.671593, Alt.=95.719788m. Speed=0.036000m/h.</desc>
<speed>0.010000</speed>
</trkpt>
<trkpt lat="22.078653" lon="104.671593">
<ele>95.696350</ele>
<time>2011-04-28T05:07:49Z</time>
<desc>lat.=22.078653, lon.=104.671593, Alt.=95.696350m. Speed=0.072000m/h.</desc>
<speed>0.020000</speed>
</trkpt>
<trkpt lat="22.078642" lon="104.671600">
<ele>95.528381</ele>
<time>2011-04-28T05:07:54Z</time>
<desc>lat.=22.078642, lon.=104.671600, Alt.=95.528381m. Speed=7.704000m/h.</desc>
<speed>2.140000</speed>
</trkpt>
<trkpt lat="22.078493" lon="104.671600">
<ele>93.676819</ele>
<time>2011-04-28T05:07:59Z</time>
<desc>lat.=22.078493, lon.=104.671600, Alt.=93.676819m. Speed=13.896000m/h.</desc>
<speed>3.860000</speed>
</trkpt>
<trkpt lat="22.078268" lon="104.671593">
<ele>92.124084</ele>
<time>2011-04-28T05:08:04Z</time>
<desc>lat.=22.078268, lon.=104.671593, Alt.=92.124084m. Speed=18.288000m/h.</desc>
<speed>5.080000</speed>
</trkpt>
<trkpt lat="22.078020" lon="104.671669">
<ele>88.585022</ele>
<time>2011-04-28T05:08:09Z</time>
<desc>lat.=22.078020, lon.=104.671669, Alt.=88.585022m. Speed=19.548000m/h.</desc>
<speed>5.430000</speed>
</trkpt>
<trkpt lat="22.077789" lon="104.671883">
<ele>85.180725</ele>
<time>2011-04-28T05:08:14Z</time>
<desc>lat.=22.077789, lon.=104.671883, Alt.=85.180725m. Speed=23.148001m/h.</desc>
<speed>6.430000</speed>
</trkpt>
<trkpt lat="22.077574" lon="104.672096">
<ele>82.792053</ele>
<time>2011-04-28T05:08:19Z</time>
<desc>lat.=22.077574, lon.=104.672096, Alt.=82.792053m. Speed=24.624001m/h.</desc>
<speed>6.840000</speed>
</trkpt>
<trkpt lat="22.077257" lon="104.672157">
<ele>80.284241</ele>
<time>2011-04-28T05:08:24Z</time>
<desc>lat.=22.077257, lon.=104.672157, Alt.=80.284241m. Speed=24.299999m/h.</desc>
<speed>6.750000</speed>
</trkpt>
<trkpt lat="22.077028" lon="104.672195">
<ele>78.018616</ele>
<time>2011-04-28T05:08:29Z</time>
<desc>lat.=22.077028, lon.=104.672195, Alt.=78.018616m. Speed=10.872000m/h.</desc>
<speed>3.020000</speed>
</trkpt>
<trkpt lat="22.076931" lon="104.672279">
<ele>77.600647</ele>
<time>2011-04-28T05:08:34Z</time>
<desc>lat.=22.076931, lon.=104.672279, Alt.=77.600647m. Speed=9.468000m/h.</desc>
<speed>2.630000</speed>
</trkpt>
<trkpt lat="22.076870" lon="104.672386">
<ele>76.829163</ele>
<time>2011-04-28T05:08:39Z</time>
<desc>lat.=22.076870, lon.=104.672386, Alt.=76.829163m. Speed=6.300000m/h.</desc>
<speed>1.750000</speed>
</trkpt>
<trkpt lat="22.076792" lon="104.672501">
<ele>76.928772</ele>
<time>2011-04-28T05:08:44Z</time>
<desc>lat.=22.076792, lon.=104.672501, Alt.=76.928772m. Speed=8.100000m/h.</desc>
<speed>2.250000</speed>
</trkpt>
<trkpt lat="22.076725" lon="104.672592">
<ele>76.551819</ele>
<time>2011-04-28T05:08:49Z</time>
<desc>lat.=22.076725, lon.=104.672592, Alt.=76.551819m. Speed=6.660000m/h.</desc>
<speed>1.850000</speed>
</trkpt>
<trkpt lat="22.076647" lon="104.672707">
<ele>74.815491</ele>
<time>2011-04-28T05:08:54Z</time>
<desc>lat.=22.076647, lon.=104.672707, Alt.=74.815491m. Speed=8.712000m/h.</desc>
<speed>2.420000</speed>
</trkpt>
<trkpt lat="22.076584" lon="104.672813">
<ele>73.579163</ele>
<time>2011-04-28T05:08:59Z</time>
<desc>lat.=22.076584, lon.=104.672813, Alt.=73.579163m. Speed=6.408000m/h.</desc>
<speed>1.780000</speed>
</trkpt>
<trkpt lat="22.076508" lon="104.672920">
<ele>72.301819</ele>
<time>2011-04-28T05:09:04Z</time>
<desc>lat.=22.076508, lon.=104.672920, Alt.=72.301819m. Speed=10.080000m/h.</desc>
<speed>2.800000</speed>
</trkpt>
<trkpt lat="22.076410" lon="104.673035">
<ele>72.995178</ele>
<time>2011-04-28T05:09:09Z</time>
<desc>lat.=22.076410, lon.=104.673035, Alt.=72.995178m. Speed=9.072000m/h.</desc>
<speed>2.520000</speed>
</trkpt>
<trkpt lat="22.076326" lon="104.673103">
<ele>69.715881</ele>
<time>2011-04-28T05:09:14Z</time>
<desc>lat.=22.076326, lon.=104.673103, Alt.=69.715881m. Speed=9.936000m/h.</desc>
<speed>2.760000</speed>
</trkpt>
<trkpt lat="22.076260" lon="104.673164">
<ele>66.143616</ele>
<time>2011-04-28T05:09:19Z</time>
<desc>lat.=22.076260, lon.=104.673164, Alt.=66.143616m. Speed=5.364000m/h.</desc>
<speed>1.490000</speed>
</trkpt>
<trkpt lat="22.076187" lon="104.673203">
<ele>65.153381</ele>
<time>2011-04-28T05:09:24Z</time>
<desc>lat.=22.076187, lon.=104.673203, Alt.=65.153381m. Speed=6.660000m/h.</desc>
<speed>1.850000</speed>
</trkpt>
<trkpt lat="22.076115" lon="104.673233">
<ele>65.598694</ele>
<time>2011-04-28T05:09:29Z</time>
<desc>lat.=22.076115, lon.=104.673233, Alt.=65.598694m. Speed=5.868000m/h.</desc>
<speed>1.630000</speed>
</trkpt>
<trkpt lat="22.076054" lon="104.673264">
<ele>65.131897</ele>
<time>2011-04-28T05:09:34Z</time>
<desc>lat.=22.076054, lon.=104.673264, Alt.=65.131897m. Speed=6.444000m/h.</desc>
<speed>1.790000</speed>
</trkpt>
<trkpt lat="22.075972" lon="104.673271">
<ele>64.567444</ele>
<time>2011-04-28T05:09:39Z</time>
<desc>lat.=22.075972, lon.=104.673271, Alt.=64.567444m. Speed=6.012000m/h.</desc>
<speed>1.670000</speed>
</trkpt>
<trkpt lat="22.075880" lon="104.673279">
<ele>63.966339</ele>
<time>2011-04-28T05:09:44Z</time>
<desc>lat.=22.075880, lon.=104.673279, Alt.=63.966339m. Speed=7.488000m/h.</desc>
<speed>2.080000</speed>
</trkpt>
<trkpt lat="22.075794" lon="104.673302">
<ele>62.797394</ele>
<time>2011-04-28T05:09:49Z</time>
<desc>lat.=22.075794, lon.=104.673302, Alt.=62.797394m. Speed=7.596000m/h.</desc>
<speed>2.110000</speed>
</trkpt>
<trkpt lat="22.075710" lon="104.673294">
<ele>63.106964</ele>
<time>2011-04-28T05:09:54Z</time>
<desc>lat.=22.075710, lon.=104.673294, Alt.=63.106964m. Speed=7.884000m/h.</desc>
<speed>2.190000</speed>
</trkpt>
<trkpt lat="22.075634" lon="104.673256">
<ele>62.541534</ele>
<time>2011-04-28T05:09:59Z</time>
<desc>lat.=22.075634, lon.=104.673256, Alt.=62.541534m. Speed=5.004000m/h.</desc>
<speed>1.390000</speed>
</trkpt>
<trkpt lat="22.075539" lon="104.673203">
<ele>62.308136</ele>
<time>2011-04-28T05:10:04Z</time>
<desc>lat.=22.075539, lon.=104.673203, Alt.=62.308136m. Speed=9.540000m/h.</desc>
<speed>2.650000</speed>
</trkpt>
<trkpt lat="22.075438" lon="104.673180">
<ele>61.973175</ele>
<time>2011-04-28T05:10:09Z</time>
<desc>lat.=22.075438, lon.=104.673180, Alt.=61.973175m. Speed=7.596000m/h.</desc>
<speed>2.110000</speed>
</trkpt>
<trkpt lat="22.075302" lon="104.673141">
<ele>65.551819</ele>
<time>2011-04-28T05:10:14Z</time>
<desc>lat.=22.075302, lon.=104.673141, Alt.=65.551819m. Speed=9.072000m/h.</desc>
<speed>2.520000</speed>
</trkpt>
<trkpt lat="22.075207" lon="104.673103">
<ele>65.276428</ele>
<time>2011-04-28T05:10:19Z</time>
<desc>lat.=22.075207, lon.=104.673103, Alt.=65.276428m. Speed=6.588000m/h.</desc>
<speed>1.830000</speed>
</trkpt>
<trkpt lat="22.075134" lon="104.673065">
<ele>64.116272</ele>
<time>2011-04-28T05:10:24Z</time>
<desc>lat.=22.075134, lon.=104.673065, Alt.=64.116272m. Speed=6.624000m/h.</desc>
<speed>1.840000</speed>
</trkpt>
<trkpt lat="22.075054" lon="104.673027">
<ele>63.566925</ele>
<time>2011-04-28T05:10:29Z</time>
<desc>lat.=22.075054, lon.=104.673027, Alt.=63.566925m. Speed=5.508000m/h.</desc>
<speed>1.530000</speed>
</trkpt>
<trkpt lat="22.074976" lon="104.673012">
<ele>63.489777</ele>
<time>2011-04-28T05:10:34Z</time>
<desc>lat.=22.074976, lon.=104.673012, Alt.=63.489777m. Speed=5.904000m/h.</desc>
<speed>1.640000</speed>
</trkpt>
<trkpt lat="22.074903" lon="104.672981">
<ele>64.169006</ele>
<time>2011-04-28T05:10:39Z</time>
<desc>lat.=22.074903, lon.=104.672981, Alt.=64.169006m. Speed=6.120000m/h.</desc>
<speed>1.700000</speed>
</trkpt>
<trkpt lat="22.074827" lon="104.672958">
<ele>63.855988</ele>
<time>2011-04-28T05:10:44Z</time>
<desc>lat.=22.074827, lon.=104.672958, Alt.=63.855988m. Speed=6.660000m/h.</desc>
<speed>1.850000</speed>
</trkpt>
<trkpt lat="22.074724" lon="104.672951">
<ele>63.894073</ele>
<time>2011-04-28T05:10:49Z</time>
<desc>lat.=22.074724, lon.=104.672951, Alt.=63.894073m. Speed=7.020000m/h.</desc>
<speed>1.950000</speed>
</trkpt>
<trkpt lat="22.074615" lon="104.672913">
<ele>64.569397</ele>
<time>2011-04-28T05:10:54Z</time>
<desc>lat.=22.074615, lon.=104.672913, Alt.=64.569397m. Speed=9.072000m/h.</desc>
<speed>2.520000</speed>
</trkpt>
<trkpt lat="22.074511" lon="104.672859">
<ele>64.909241</ele>
<time>2011-04-28T05:10:59Z</time>
<desc>lat.=22.074511, lon.=104.672859, Alt.=64.909241m. Speed=6.480000m/h.</desc>
<speed>1.800000</speed>
</trkpt>
<trkpt lat="22.074425" lon="104.672829">
<ele>64.288147</ele>
<time>2011-04-28T05:11:04Z</time>
<desc>lat.=22.074425, lon.=104.672829, Alt.=64.288147m. Speed=4.284000m/h.</desc>
<speed>1.190000</speed>
</trkpt>
<trkpt lat="22.074343" lon="104.672806">
<ele>65.251038</ele>
<time>2011-04-28T05:11:09Z</time>
<desc>lat.=22.074343, lon.=104.672806, Alt.=65.251038m. Speed=4.860000m/h.</desc>
<speed>1.350000</speed>
</trkpt>
<trkpt lat="22.074263" lon="104.672783">
<ele>64.557678</ele>
<time>2011-04-28T05:11:14Z</time>
<desc>lat.=22.074263, lon.=104.672783, Alt.=64.557678m. Speed=7.884000m/h.</desc>
<speed>2.190000</speed>
</trkpt>
<trkpt lat="22.074162" lon="104.672768">
<ele>63.059113</ele>
<time>2011-04-28T05:11:19Z</time>
<desc>lat.=22.074162, lon.=104.672768, Alt.=63.059113m. Speed=4.644000m/h.</desc>
<speed>1.290000</speed>
</trkpt>
<trkpt lat="22.074070" lon="104.672768">
<ele>62.807159</ele>
<time>2011-04-28T05:11:24Z</time>
<desc>lat.=22.074070, lon.=104.672768, Alt.=62.807159m. Speed=7.452000m/h.</desc>
<speed>2.070000</speed>
</trkpt>
<trkpt lat="22.073971" lon="104.672729">
<ele>62.907745</ele>
<time>2011-04-28T05:11:29Z</time>
<desc>lat.=22.073971, lon.=104.672729, Alt.=62.907745m. Speed=6.228000m/h.</desc>
<speed>1.730000</speed>
</trkpt>
<trkpt lat="22.073910" lon="104.672699">
<ele>62.462433</ele>
<time>2011-04-28T05:11:34Z</time>
<desc>lat.=22.073910, lon.=104.672699, Alt.=62.462433m. Speed=5.112000m/h.</desc>
<speed>1.420000</speed>
</trkpt>
<trkpt lat="22.073822" lon="104.672653">
<ele>60.977081</ele>
<time>2011-04-28T05:11:39Z</time>
<desc>lat.=22.073822, lon.=104.672653, Alt.=60.977081m. Speed=7.596000m/h.</desc>
<speed>2.110000</speed>
</trkpt>
<trkpt lat="22.073734" lon="104.672607">
<ele>61.211456</ele>
<time>2011-04-28T05:11:44Z</time>
<desc>lat.=22.073734, lon.=104.672607, Alt.=61.211456m. Speed=5.544000m/h.</desc>
<speed>1.540000</speed>
</trkpt>
<trkpt lat="22.073631" lon="104.672577">
<ele>59.940948</ele>
<time>2011-04-28T05:11:49Z</time>
<desc>lat.=22.073631, lon.=104.672577, Alt.=59.940948m. Speed=8.460000m/h.</desc>
<speed>2.350000</speed>
</trkpt>
<trkpt lat="22.073507" lon="104.672577">
<ele>61.355988</ele>
<time>2011-04-28T05:11:54Z</time>
<desc>lat.=22.073507, lon.=104.672577, Alt.=61.355988m. Speed=9.036000m/h.</desc>
<speed>2.510000</speed>
</trkpt>
<trkpt lat="22.073381" lon="104.672562">
<ele>61.208527</ele>
<time>2011-04-28T05:11:59Z</time>
<desc>lat.=22.073381, lon.=104.672562, Alt.=61.208527m. Speed=7.704000m/h.</desc>
<speed>2.140000</speed>
</trkpt>
<trkpt lat="22.073263" lon="104.672546">
<ele>61.704620</ele>
<time>2011-04-28T05:12:04Z</time>
<desc>lat.=22.073263, lon.=104.672546, Alt.=61.704620m. Speed=8.316000m/h.</desc>
<speed>2.310000</speed>
</trkpt>
<trkpt lat="22.073149" lon="104.672546">
<ele>62.619659</ele>
<time>2011-04-28T05:12:09Z</time>
<desc>lat.=22.073149, lon.=104.672546, Alt.=62.619659m. Speed=7.776000m/h.</desc>
<speed>2.160000</speed>
</trkpt>
<trkpt lat="22.073057" lon="104.672569">
<ele>65.426819</ele>
<time>2011-04-28T05:12:14Z</time>
<desc>lat.=22.073057, lon.=104.672569, Alt.=65.426819m. Speed=5.508000m/h.</desc>
<speed>1.530000</speed>
</trkpt>
<trkpt lat="22.072926" lon="104.672585">
<ele>66.555725</ele>
<time>2011-04-28T05:12:19Z</time>
<desc>lat.=22.072926, lon.=104.672585, Alt.=66.555725m. Speed=9.576000m/h.</desc>
<speed>2.660000</speed>
</trkpt>
<trkpt lat="22.072752" lon="104.672653">
<ele>63.734894</ele>
<time>2011-04-28T05:12:24Z</time>
<desc>lat.=22.072752, lon.=104.672653, Alt.=63.734894m. Speed=12.276000m/h.</desc>
<speed>3.410000</speed>
</trkpt>
<trkpt lat="22.072578" lon="104.672729">
<ele>63.278839</ele>
<time>2011-04-28T05:12:29Z</time>
<desc>lat.=22.072578, lon.=104.672729, Alt.=63.278839m. Speed=14.508000m/h.</desc>
<speed>4.030000</speed>
</trkpt>
<trkpt lat="22.072411" lon="104.672783">
<ele>63.829620</ele>
<time>2011-04-28T05:12:34Z</time>
<desc>lat.=22.072411, lon.=104.672783, Alt.=63.829620m. Speed=14.832000m/h.</desc>
<speed>4.120000</speed>
</trkpt>
<trkpt lat="22.072233" lon="104.672821">
<ele>62.038605</ele>
<time>2011-04-28T05:12:39Z</time>
<desc>lat.=22.072233, lon.=104.672821, Alt.=62.038605m. Speed=14.508000m/h.</desc>
<speed>4.030000</speed>
</trkpt>
<trkpt lat="22.072001" lon="104.672836">
<ele>62.342316</ele>
<time>2011-04-28T05:12:44Z</time>
<desc>lat.=22.072001, lon.=104.672836, Alt.=62.342316m. Speed=13.500000m/h.</desc>
<speed>3.750000</speed>
</trkpt>
<trkpt lat="22.071840" lon="104.672859">
<ele>62.855011</ele>
<time>2011-04-28T05:12:49Z</time>
<desc>lat.=22.071840, lon.=104.672859, Alt.=62.855011m. Speed=9.900000m/h.</desc>
<speed>2.750000</speed>
</trkpt>
<trkpt lat="22.071711" lon="104.672852">
<ele>63.633331</ele>
<time>2011-04-28T05:12:54Z</time>
<desc>lat.=22.071711, lon.=104.672852, Alt.=63.633331m. Speed=7.596000m/h.</desc>
<speed>2.110000</speed>
</trkpt>
<trkpt lat="22.071659" lon="104.672867">
<ele>64.270569</ele>
<time>2011-04-28T05:12:59Z</time>
<desc>lat.=22.071659, lon.=104.672867, Alt.=64.270569m. Speed=5.472000m/h.</desc>
<speed>1.520000</speed>
</trkpt>
<trkpt lat="22.071705" lon="104.672997">
<ele>65.206116</ele>
<time>2011-04-28T05:13:04Z</time>
<desc>lat.=22.071705, lon.=104.672997, Alt.=65.206116m. Speed=0.648000m/h.</desc>
<speed>0.180000</speed>
</trkpt>
<trkpt lat="22.071739" lon="104.672997">
<ele>62.604034</ele>
<time>2011-04-28T05:13:09Z</time>
<desc>lat.=22.071739, lon.=104.672997, Alt.=62.604034m. Speed=0.468000m/h.</desc>
<speed>0.130000</speed>
</trkpt>
<trkpt lat="22.071741" lon="104.672997">
<ele>62.569855</ele>
<time>2011-04-28T05:13:14Z</time>
<desc>lat.=22.071741, lon.=104.672997, Alt.=62.569855m. Speed=0.504000m/h.</desc>
<speed>0.140000</speed>
</trkpt>
<trkpt lat="22.071730" lon="104.673012">
<ele>64.231506</ele>
<time>2011-04-28T05:13:19Z</time>
<desc>lat.=22.071730, lon.=104.673012, Alt.=64.231506m. Speed=0.324000m/h.</desc>
<speed>0.090000</speed>
</trkpt>
<trkpt lat="22.071730" lon="104.673027">
<ele>63.787628</ele>
<time>2011-04-28T05:13:24Z</time>
<desc>lat.=22.071730, lon.=104.673027, Alt.=63.787628m. Speed=1.296000m/h.</desc>
<speed>0.360000</speed>
</trkpt>
<trkpt lat="22.071749" lon="104.673035">
<ele>64.309631</ele>
<time>2011-04-28T05:13:29Z</time>
<desc>lat.=22.071749, lon.=104.673035, Alt.=64.309631m. Speed=0.540000m/h.</desc>
<speed>0.150000</speed>
</trkpt>
<trkpt lat="22.071739" lon="104.673050">
<ele>65.598694</ele>
<time>2011-04-28T05:13:34Z</time>
<desc>lat.=22.071739, lon.=104.673050, Alt.=65.598694m. Speed=0.828000m/h.</desc>
<speed>0.230000</speed>
</trkpt>
<trkpt lat="22.071739" lon="104.673050">
<ele>65.717834</ele>
<time>2011-04-28T05:13:39Z</time>
<desc>lat.=22.071739, lon.=104.673050, Alt.=65.717834m. Speed=0.216000m/h.</desc>
<speed>0.060000</speed>
</trkpt>
<trkpt lat="22.071733" lon="104.673050">
<ele>65.825256</ele>
<time>2011-04-28T05:13:44Z</time>
<desc>lat.=22.071733, lon.=104.673050, Alt.=65.825256m. Speed=0.360000m/h.</desc>
<speed>0.100000</speed>
</trkpt>
<trkpt lat="22.071724" lon="104.673050">
<ele>66.342834</ele>
<time>2011-04-28T05:13:49Z</time>
<desc>lat.=22.071724, lon.=104.673050, Alt.=66.342834m. Speed=0.180000m/h.</desc>
<speed>0.050000</speed>
</trkpt>
<trkpt lat="22.071705" lon="104.673035">
<ele>66.862366</ele>
<time>2011-04-28T05:13:54Z</time>
<desc>lat.=22.071705, lon.=104.673035, Alt.=66.862366m. Speed=0.720000m/h.</desc>
<speed>0.200000</speed>
</trkpt>
<trkpt lat="22.071672" lon="104.673004">
<ele>67.649475</ele>
<time>2011-04-28T05:13:59Z</time>
<desc>lat.=22.071672, lon.=104.673004, Alt.=67.649475m. Speed=0.216000m/h.</desc>
<speed>0.060000</speed>
</trkpt>
<trkpt lat="22.071630" lon="104.672966">
<ele>67.868225</ele>
<time>2011-04-28T05:14:04Z</time>
<desc>lat.=22.071630, lon.=104.672966, Alt.=67.868225m. Speed=0.360000m/h.</desc>
<speed>0.100000</speed>
</trkpt>
<trkpt lat="22.071609" lon="104.672935">
<ele>67.852600</ele>
<time>2011-04-28T05:14:09Z</time>
<desc>lat.=22.071609, lon.=104.672935, Alt.=67.852600m. Speed=0.972000m/h.</desc>
<speed>0.270000</speed>
</trkpt>
<trkpt lat="22.071602" lon="104.672928">
<ele>67.813538</ele>
<time>2011-04-28T05:14:14Z</time>
<desc>lat.=22.071602, lon.=104.672928, Alt.=67.813538m. Speed=0.396000m/h.</desc>
<speed>0.110000</speed>
</trkpt>
<trkpt lat="22.071602" lon="104.672928">
<ele>67.848694</ele>
<time>2011-04-28T05:14:19Z</time>
<desc>lat.=22.071602, lon.=104.672928, Alt.=67.848694m. Speed=0.288000m/h.</desc>
<speed>0.080000</speed>
</trkpt>
<trkpt lat="22.071598" lon="104.672920">
<ele>67.885803</ele>
<time>2011-04-28T05:14:24Z</time>
<desc>lat.=22.071598, lon.=104.672920, Alt.=67.885803m. Speed=0.396000m/h.</desc>
<speed>0.110000</speed>
</trkpt>
<trkpt lat="22.071598" lon="104.672928">
<ele>67.922913</ele>
<time>2011-04-28T05:14:29Z</time>
<desc>lat.=22.071598, lon.=104.672928, Alt.=67.922913m. Speed=0.180000m/h.</desc>
<speed>0.050000</speed>
</trkpt>
<trkpt lat="22.071598" lon="104.672928">
<ele>67.940491</ele>
<time>2011-04-28T05:14:34Z</time>
<desc>lat.=22.071598, lon.=104.672928, Alt.=67.940491m. Speed=0.468000m/h.</desc>
<speed>0.130000</speed>
</trkpt>
<trkpt lat="22.071608" lon="104.672935">
<ele>67.944397</ele>
<time>2011-04-28T05:14:39Z</time>
<desc>lat.=22.071608, lon.=104.672935, Alt.=67.944397m. Speed=0.900000m/h.</desc>
<speed>0.250000</speed>
</trkpt>
<trkpt lat="22.071617" lon="104.672958">
<ele>68.163147</ele>
<time>2011-04-28T05:14:44Z</time>
<desc>lat.=22.071617, lon.=104.672958, Alt.=68.163147m. Speed=0.936000m/h.</desc>
<speed>0.260000</speed>
</trkpt>
<trkpt lat="22.071613" lon="104.672958">
<ele>68.542053</ele>
<time>2011-04-28T05:14:49Z</time>
<desc>lat.=22.071613, lon.=104.672958, Alt.=68.542053m. Speed=0.288000m/h.</desc>
<speed>0.080000</speed>
</trkpt>
<trkpt lat="22.071615" lon="104.672966">
<ele>68.561584</ele>
<time>2011-04-28T05:14:54Z</time>
<desc>lat.=22.071615, lon.=104.672966, Alt.=68.561584m. Speed=0.540000m/h.</desc>
<speed>0.150000</speed>
</trkpt>
<trkpt lat="22.071619" lon="104.672974">
<ele>68.581116</ele>
<time>2011-04-28T05:14:59Z</time>
<desc>lat.=22.071619, lon.=104.672974, Alt.=68.581116m. Speed=0.936000m/h.</desc>
<speed>0.260000</speed>
</trkpt>
<trkpt lat="22.071634" lon="104.672997">
<ele>68.774475</ele>
<time>2011-04-28T05:15:04Z</time>
<desc>lat.=22.071634, lon.=104.672997, Alt.=68.774475m. Speed=1.188000m/h.</desc>
<speed>0.330000</speed>
</trkpt>
<trkpt lat="22.071644" lon="104.673035">
<ele>69.079163</ele>
<time>2011-04-28T05:15:09Z</time>
<desc>lat.=22.071644, lon.=104.673035, Alt.=69.079163m. Speed=1.296000m/h.</desc>
<speed>0.360000</speed>
</trkpt>
<trkpt lat="22.071659" lon="104.673073">
<ele>69.350647</ele>
<time>2011-04-28T05:15:14Z</time>
<desc>lat.=22.071659, lon.=104.673073, Alt.=69.350647m. Speed=1.620000m/h.</desc>
<speed>0.450000</speed>
</trkpt>
<trkpt lat="22.071684" lon="104.673111">
<ele>69.637756</ele>
<time>2011-04-28T05:15:19Z</time>
<desc>lat.=22.071684, lon.=104.673111, Alt.=69.637756m. Speed=1.836000m/h.</desc>
<speed>0.510000</speed>
</trkpt>
<trkpt lat="22.071701" lon="104.673134">
<ele>69.891663</ele>
<time>2011-04-28T05:15:24Z</time>
<desc>lat.=22.071701, lon.=104.673134, Alt.=69.891663m. Speed=1.440000m/h.</desc>
<speed>0.400000</speed>
</trkpt>
<trkpt lat="22.071718" lon="104.673149">
<ele>70.010803</ele>
<time>2011-04-28T05:15:29Z</time>
<desc>lat.=22.071718, lon.=104.673149, Alt.=70.010803m. Speed=1.296000m/h.</desc>
<speed>0.360000</speed>
</trkpt>
<trkpt lat="22.071716" lon="104.673126">
<ele>70.079163</ele>
<time>2011-04-28T05:15:34Z</time>
<desc>lat.=22.071716, lon.=104.673126, Alt.=70.079163m. Speed=0.756000m/h.</desc>
<speed>0.210000</speed>
</trkpt>
<trkpt lat="22.071720" lon="104.673126">
<ele>70.114319</ele>
<time>2011-04-28T05:15:39Z</time>
<desc>lat.=22.071720, lon.=104.673126, Alt.=70.114319m. Speed=0.216000m/h.</desc>
<speed>0.060000</speed>
</trkpt>
<trkpt lat="22.071716" lon="104.673126">
<ele>70.141663</ele>
<time>2011-04-28T05:15:44Z</time>
<desc>lat.=22.071716, lon.=104.673126, Alt.=70.141663m. Speed=0.396000m/h.</desc>
<speed>0.110000</speed>
</trkpt>
<trkpt lat="22.071712" lon="104.673119">
<ele>70.176819</ele>
<time>2011-04-28T05:15:49Z</time>
<desc>lat.=22.071712, lon.=104.673119, Alt.=70.176819m. Speed=0.396000m/h.</desc>
<speed>0.110000</speed>
</trkpt>
<trkpt lat="22.071709" lon="104.673111">
<ele>70.213928</ele>
<time>2011-04-28T05:15:54Z</time>
<desc>lat.=22.071709, lon.=104.673111, Alt.=70.213928m. Speed=0.612000m/h.</desc>
<speed>0.170000</speed>
</trkpt>
<trkpt lat="22.071703" lon="104.673103">
<ele>70.256897</ele>
<time>2011-04-28T05:15:59Z</time>
<desc>lat.=22.071703, lon.=104.673103, Alt.=70.256897m. Speed=0.684000m/h.</desc>
<speed>0.190000</speed>
</trkpt>
<trkpt lat="22.071697" lon="104.673103">
<ele>70.282288</ele>
<time>2011-04-28T05:16:04Z</time>
<desc>lat.=22.071697, lon.=104.673103, Alt.=70.282288m. Speed=0.504000m/h.</desc>
<speed>0.140000</speed>
</trkpt>
<trkpt lat="22.071693" lon="104.673096">
<ele>70.313538</ele>
<time>2011-04-28T05:16:09Z</time>
<desc>lat.=22.071693, lon.=104.673096, Alt.=70.313538m. Speed=0.252000m/h.</desc>
<speed>0.070000</speed>
</trkpt>
<trkpt lat="22.071692" lon="104.673096">
<ele>70.358459</ele>
<time>2011-04-28T05:16:14Z</time>
<desc>lat.=22.071692, lon.=104.673096, Alt.=70.358459m. Speed=0.360000m/h.</desc>
<speed>0.100000</speed>
</trkpt>
<trkpt lat="22.071690" lon="104.673088">
<ele>70.391663</ele>
<time>2011-04-28T05:16:19Z</time>
<desc>lat.=22.071690, lon.=104.673088, Alt.=70.391663m. Speed=0.216000m/h.</desc>
<speed>0.060000</speed>
</trkpt>
<trkpt lat="22.071686" lon="104.673088">
<ele>70.430725</ele>
<time>2011-04-28T05:16:24Z</time>
<desc>lat.=22.071686, lon.=104.673088, Alt.=70.430725m. Speed=0.432000m/h.</desc>
<speed>0.120000</speed>
</trkpt>
<trkpt lat="22.071682" lon="104.673080">
<ele>70.475647</ele>
<time>2011-04-28T05:16:29Z</time>
<desc>lat.=22.071682, lon.=104.673080, Alt.=70.475647m. Speed=0.288000m/h.</desc>
<speed>0.080000</speed>
</trkpt>
<trkpt lat="22.071682" lon="104.673080">
<ele>70.520569</ele>
<time>2011-04-28T05:16:34Z</time>
<desc>lat.=22.071682, lon.=104.673080, Alt.=70.520569m. Speed=0.216000m/h.</desc>
<speed>0.060000</speed>
</trkpt>
<trkpt lat="22.071680" lon="104.673073">
<ele>70.569397</ele>
<time>2011-04-28T05:16:39Z</time>
<desc>lat.=22.071680, lon.=104.673073, Alt.=70.569397m. Speed=0.144000m/h.</desc>
<speed>0.040000</speed>
</trkpt>
<trkpt lat="22.071680" lon="104.673073">
<ele>70.626038</ele>
<time>2011-04-28T05:16:44Z</time>
<desc>lat.=22.071680, lon.=104.673073, Alt.=70.626038m. Speed=0.180000m/h.</desc>
<speed>0.050000</speed>
</trkpt>
<trkpt lat="22.071680" lon="104.673073">
<ele>70.694397</ele>
<time>2011-04-28T05:16:49Z</time>
<desc>lat.=22.071680, lon.=104.673073, Alt.=70.694397m. Speed=0.072000m/h.</desc>
<speed>0.020000</speed>
</trkpt>
<trkpt lat="22.071682" lon="104.673065">
<ele>70.754944</ele>
<time>2011-04-28T05:16:54Z</time>
<desc>lat.=22.071682, lon.=104.673065, Alt.=70.754944m. Speed=0.360000m/h.</desc>
<speed>0.100000</speed>
</trkpt>
<trkpt lat="22.071682" lon="104.673065">
<ele>70.823303</ele>
<time>2011-04-28T05:16:59Z</time>
<desc>lat.=22.071682, lon.=104.673065, Alt.=70.823303m. Speed=0.324000m/h.</desc>
<speed>0.090000</speed>
</trkpt>
<trkpt lat="22.071684" lon="104.673065">
<ele>70.920959</ele>
<time>2011-04-28T05:17:04Z</time>
<desc>lat.=22.071684, lon.=104.673065, Alt.=70.920959m. Speed=0.360000m/h.</desc>
<speed>0.100000</speed>
</trkpt>
<trkpt lat="22.071682" lon="104.673058">
<ele>71.063538</ele>
<time>2011-04-28T05:17:09Z</time>
<desc>lat.=22.071682, lon.=104.673058, Alt.=71.063538m. Speed=0.216000m/h.</desc>
<speed>0.060000</speed>
</trkpt>
<trkpt lat="22.071682" lon="104.673058">
<ele>71.227600</ele>
<time>2011-04-28T05:17:14Z</time>
<desc>lat.=22.071682, lon.=104.673058, Alt.=71.227600m. Speed=0.000000m/h.</desc>
<speed>0.000000</speed>
</trkpt>
<trkpt lat="22.071682" lon="104.673058">
<ele>71.268616</ele>
<time>2011-04-28T05:17:19Z</time>
<desc>lat.=22.071682, lon.=104.673058, Alt.=71.268616m. Speed=0.072000m/h.</desc>
<speed>0.020000</speed>
</trkpt>
<trkpt lat="22.071667" lon="104.673050">
<ele>71.639709</ele>
<time>2011-04-28T05:17:24Z</time>
<desc>lat.=22.071667, lon.=104.673050, Alt.=71.639709m. Speed=2.844000m/h.</desc>
<speed>0.790000</speed>
</trkpt>
<trkpt lat="22.071583" lon="104.673027">
<ele>74.797913</ele>
<time>2011-04-28T05:17:29Z</time>
<desc>lat.=22.071583, lon.=104.673027, Alt.=74.797913m. Speed=4.212000m/h.</desc>
<speed>1.170000</speed>
</trkpt>
<trkpt lat="22.071495" lon="104.673050">
<ele>76.098694</ele>
<time>2011-04-28T05:17:34Z</time>
<desc>lat.=22.071495, lon.=104.673050, Alt.=76.098694m. Speed=5.796000m/h.</desc>
<speed>1.610000</speed>
</trkpt>
<trkpt lat="22.071356" lon="104.673080">
<ele>76.280334</ele>
<time>2011-04-28T05:17:39Z</time>
<desc>lat.=22.071356, lon.=104.673080, Alt.=76.280334m. Speed=12.564000m/h.</desc>
<speed>3.490000</speed>
</trkpt>
<trkpt lat="22.071152" lon="104.673058">
<ele>75.233459</ele>
<time>2011-04-28T05:17:44Z</time>
<desc>lat.=22.071152, lon.=104.673058, Alt.=75.233459m. Speed=15.084000m/h.</desc>
<speed>4.190000</speed>
</trkpt>
<trkpt lat="22.070963" lon="104.672981">
<ele>71.231506</ele>
<time>2011-04-28T05:17:49Z</time>
<desc>lat.=22.070963, lon.=104.672981, Alt.=71.231506m. Speed=12.060000m/h.</desc>
<speed>3.350000</speed>
</trkpt>
<trkpt lat="22.070820" lon="104.672890">
<ele>69.573303</ele>
<time>2011-04-28T05:17:54Z</time>
<desc>lat.=22.070820, lon.=104.672890, Alt.=69.573303m. Speed=12.060000m/h.</desc>
<speed>3.350000</speed>
</trkpt>
<trkpt lat="22.070587" lon="104.672874">
<ele>67.963928</ele>
<time>2011-04-28T05:17:59Z</time>
<desc>lat.=22.070587, lon.=104.672874, Alt.=67.963928m. Speed=15.804000m/h.</desc>
<speed>4.390000</speed>
</trkpt>
<trkpt lat="22.070364" lon="104.672867">
<ele>64.870178</ele>
<time>2011-04-28T05:18:04Z</time>
<desc>lat.=22.070364, lon.=104.672867, Alt.=64.870178m. Speed=13.680000m/h.</desc>
<speed>3.800000</speed>
</trkpt>
<trkpt lat="22.070156" lon="104.672859">
<ele>61.431183</ele>
<time>2011-04-28T05:18:09Z</time>
<desc>lat.=22.070156, lon.=104.672859, Alt.=61.431183m. Speed=14.148000m/h.</desc>
<speed>3.930000</speed>
</trkpt>
<trkpt lat="22.069965" lon="104.672813">
<ele>61.351105</ele>
<time>2011-04-28T05:18:14Z</time>
<desc>lat.=22.069965, lon.=104.672813, Alt.=61.351105m. Speed=15.372000m/h.</desc>
<speed>4.270000</speed>
</trkpt>
<trkpt lat="22.069799" lon="104.672714">
<ele>61.021027</ele>
<time>2011-04-28T05:18:19Z</time>
<desc>lat.=22.069799, lon.=104.672714, Alt.=61.021027m. Speed=10.620000m/h.</desc>
<speed>2.950000</speed>
</trkpt>
<trkpt lat="22.069668" lon="104.672577">
<ele>59.188995</ele>
<time>2011-04-28T05:18:24Z</time>
<desc>lat.=22.069668, lon.=104.672577, Alt.=59.188995m. Speed=14.796000m/h.</desc>
<speed>4.110000</speed>
</trkpt>
<trkpt lat="22.069548" lon="104.672409">
<ele>58.493683</ele>
<time>2011-04-28T05:18:29Z</time>
<desc>lat.=22.069548, lon.=104.672409, Alt.=58.493683m. Speed=15.552000m/h.</desc>
<speed>4.320000</speed>
</trkpt>
<trkpt lat="22.069389" lon="104.672318">
<ele>57.575714</ele>
<time>2011-04-28T05:18:34Z</time>
<desc>lat.=22.069389, lon.=104.672318, Alt.=57.575714m. Speed=12.420000m/h.</desc>
<speed>3.450000</speed>
</trkpt>
<trkpt lat="22.069128" lon="104.672348">
<ele>63.475128</ele>
<time>2011-04-28T05:18:39Z</time>
<desc>lat.=22.069128, lon.=104.672348, Alt.=63.475128m. Speed=17.424000m/h.</desc>
<speed>4.840000</speed>
</trkpt>
<trkpt lat="22.068928" lon="104.672508">
<ele>65.348694</ele>
<time>2011-04-28T05:18:44Z</time>
<desc>lat.=22.068928, lon.=104.672508, Alt.=65.348694m. Speed=17.927999m/h.</desc>
<speed>4.980000</speed>
</trkpt>
<trkpt lat="22.068716" lon="104.672577">
<ele>64.627991</ele>
<time>2011-04-28T05:18:49Z</time>
<desc>lat.=22.068716, lon.=104.672577, Alt.=64.627991m. Speed=16.848000m/h.</desc>
<speed>4.680000</speed>
</trkpt>
<trkpt lat="22.068527" lon="104.672592">
<ele>63.006378</ele>
<time>2011-04-28T05:18:54Z</time>
<desc>lat.=22.068527, lon.=104.672592, Alt.=63.006378m. Speed=14.148000m/h.</desc>
<speed>3.930000</speed>
</trkpt>
<trkpt lat="22.068369" lon="104.672607">
<ele>62.751495</ele>
<time>2011-04-28T05:18:59Z</time>
<desc>lat.=22.068369, lon.=104.672607, Alt.=62.751495m. Speed=11.952000m/h.</desc>
<speed>3.320000</speed>
</trkpt>
<trkpt lat="22.068230" lon="104.672592">
<ele>63.014191</ele>
<time>2011-04-28T05:19:04Z</time>
<desc>lat.=22.068230, lon.=104.672592, Alt.=63.014191m. Speed=12.060000m/h.</desc>
<speed>3.350000</speed>
</trkpt>
<trkpt lat="22.068102" lon="104.672554">
<ele>67.762756</ele>
<time>2011-04-28T05:19:09Z</time>
<desc>lat.=22.068102, lon.=104.672554, Alt.=67.762756m. Speed=10.872000m/h.</desc>
<speed>3.020000</speed>
</trkpt>
<trkpt lat="22.067953" lon="104.672493">
<ele>71.485413</ele>
<time>2011-04-28T05:19:14Z</time>
<desc>lat.=22.067953, lon.=104.672493, Alt.=71.485413m. Speed=9.900000m/h.</desc>
<speed>2.750000</speed>
</trkpt>
<trkpt lat="22.067797" lon="104.672447">
<ele>73.514709</ele>
<time>2011-04-28T05:19:19Z</time>
<desc>lat.=22.067797, lon.=104.672447, Alt.=73.514709m. Speed=8.352000m/h.</desc>
<speed>2.320000</speed>
</trkpt>
<trkpt lat="22.067669" lon="104.672409">
<ele>76.352600</ele>
<time>2011-04-28T05:19:24Z</time>
<desc>lat.=22.067669, lon.=104.672409, Alt.=76.352600m. Speed=10.080000m/h.</desc>
<speed>2.800000</speed>
</trkpt>
<trkpt lat="22.067537" lon="104.672371">
<ele>78.670959</ele>
<time>2011-04-28T05:19:29Z</time>
<desc>lat.=22.067537, lon.=104.672371, Alt.=78.670959m. Speed=9.864000m/h.</desc>
<speed>2.740000</speed>
</trkpt>
<trkpt lat="22.067400" lon="104.672333">
<ele>81.571350</ele>
<time>2011-04-28T05:19:34Z</time>
<desc>lat.=22.067400, lon.=104.672333, Alt.=81.571350m. Speed=9.360000m/h.</desc>
<speed>2.600000</speed>
</trkpt>
<trkpt lat="22.067299" lon="104.672325">
<ele>83.946350</ele>
<time>2011-04-28T05:19:39Z</time>
<desc>lat.=22.067299, lon.=104.672325, Alt.=83.946350m. Speed=3.024000m/h.</desc>
<speed>0.840000</speed>
</trkpt>
<trkpt lat="22.067240" lon="104.672287">
<ele>86.919006</ele>
<time>2011-04-28T05:19:44Z</time>
<desc>lat.=22.067240, lon.=104.672287, Alt.=86.919006m. Speed=3.564000m/h.</desc>
<speed>0.990000</speed>
</trkpt>
<trkpt lat="22.067225" lon="104.672272">
<ele>87.467834</ele>
<time>2011-04-28T05:19:49Z</time>
<desc>lat.=22.067225, lon.=104.672272, Alt.=87.467834m. Speed=0.288000m/h.</desc>
<speed>0.080000</speed>
</trkpt>
<trkpt lat="22.067219" lon="104.672264">
<ele>87.860413</ele>
<time>2011-04-28T05:19:54Z</time>
<desc>lat.=22.067219, lon.=104.672264, Alt.=87.860413m. Speed=0.216000m/h.</desc>
<speed>0.060000</speed>
</trkpt>
<trkpt lat="22.067215" lon="104.672256">
<ele>87.971741</ele>
<time>2011-04-28T05:19:59Z</time>
<desc>lat.=22.067215, lon.=104.672256, Alt.=87.971741m. Speed=0.108000m/h.</desc>
<speed>0.030000</speed>
</trkpt>
<trkpt lat="22.067221" lon="104.672264">
<ele>87.704163</ele>
<time>2011-04-28T05:20:04Z</time>
<desc>lat.=22.067221, lon.=104.672264, Alt.=87.704163m. Speed=0.180000m/h.</desc>
<speed>0.050000</speed>
</trkpt>
<trkpt lat="22.067211" lon="104.672272">
<ele>88.713928</ele>
<time>2011-04-28T05:20:09Z</time>
<desc>lat.=22.067211, lon.=104.672272, Alt.=88.713928m. Speed=1.080000m/h.</desc>
<speed>0.300000</speed>
</trkpt>
<trkpt lat="22.067219" lon="104.672256">
<ele>87.958069</ele>
<time>2011-04-28T05:20:14Z</time>
<desc>lat.=22.067219, lon.=104.672256, Alt.=87.958069m. Speed=0.936000m/h.</desc>
<speed>0.260000</speed>
</trkpt>
<trkpt lat="22.067228" lon="104.672256">
<ele>87.610413</ele>
<time>2011-04-28T05:20:19Z</time>
<desc>lat.=22.067228, lon.=104.672256, Alt.=87.610413m. Speed=0.504000m/h.</desc>
<speed>0.140000</speed>
</trkpt>
<trkpt lat="22.067236" lon="104.672256">
<ele>87.096741</ele>
<time>2011-04-28T05:20:24Z</time>
<desc>lat.=22.067236, lon.=104.672256, Alt.=87.096741m. Speed=0.684000m/h.</desc>
<speed>0.190000</speed>
</trkpt>
<trkpt lat="22.067226" lon="104.672264">
<ele>87.229553</ele>
<time>2011-04-28T05:20:29Z</time>
<desc>lat.=22.067226, lon.=104.672264, Alt.=87.229553m. Speed=0.324000m/h.</desc>
<speed>0.090000</speed>
</trkpt>
<trkpt lat="22.067215" lon="104.672302">
<ele>89.877991</ele>
<time>2011-04-28T05:20:34Z</time>
<desc>lat.=22.067215, lon.=104.672302, Alt.=89.877991m. Speed=0.288000m/h.</desc>
<speed>0.080000</speed>
</trkpt>
<trkpt lat="22.067194" lon="104.672302">
<ele>89.704163</ele>
<time>2011-04-28T05:20:39Z</time>
<desc>lat.=22.067194, lon.=104.672302, Alt.=89.704163m. Speed=0.576000m/h.</desc>
<speed>0.160000</speed>
</trkpt>
<trkpt lat="22.067196" lon="104.672279">
<ele>88.805725</ele>
<time>2011-04-28T05:20:44Z</time>
<desc>lat.=22.067196, lon.=104.672279, Alt.=88.805725m. Speed=0.720000m/h.</desc>
<speed>0.200000</speed>
</trkpt>
<trkpt lat="22.067196" lon="104.672249">
<ele>87.458069</ele>
<time>2011-04-28T05:20:49Z</time>
<desc>lat.=22.067196, lon.=104.672249, Alt.=87.458069m. Speed=0.828000m/h.</desc>
<speed>0.230000</speed>
</trkpt>
<trkpt lat="22.067202" lon="104.672195">
<ele>86.376038</ele>
<time>2011-04-28T05:20:54Z</time>
<desc>lat.=22.067202, lon.=104.672195, Alt.=86.376038m. Speed=0.684000m/h.</desc>
<speed>0.190000</speed>
</trkpt>
<trkpt lat="22.067192" lon="104.672142">
<ele>86.153381</ele>
<time>2011-04-28T05:20:59Z</time>
<desc>lat.=22.067192, lon.=104.672142, Alt.=86.153381m. Speed=0.360000m/h.</desc>
<speed>0.100000</speed>
</trkpt>
<trkpt lat="22.067165" lon="104.672096">
<ele>86.774475</ele>
<time>2011-04-28T05:21:04Z</time>
<desc>lat.=22.067165, lon.=104.672096, Alt.=86.774475m. Speed=0.756000m/h.</desc>
<speed>0.210000</speed>
</trkpt>
<trkpt lat="22.067188" lon="104.672127">
<ele>89.122131</ele>
<time>2011-04-28T05:21:09Z</time>
<desc>lat.=22.067188, lon.=104.672127, Alt.=89.122131m. Speed=0.720000m/h.</desc>
<speed>0.200000</speed>
</trkpt>
<trkpt lat="22.067156" lon="104.672119">
<ele>89.385803</ele>
<time>2011-04-28T05:21:14Z</time>
<desc>lat.=22.067156, lon.=104.672119, Alt.=89.385803m. Speed=0.792000m/h.</desc>
<speed>0.220000</speed>
</trkpt>
<trkpt lat="22.067152" lon="104.672134">
<ele>89.452209</ele>
<time>2011-04-28T05:21:19Z</time>
<desc>lat.=22.067152, lon.=104.672134, Alt.=89.452209m. Speed=0.648000m/h.</desc>
<speed>0.180000</speed>
</trkpt>
<trkpt lat="22.067150" lon="104.672127">
<ele>89.165100</ele>
<time>2011-04-28T05:21:24Z</time>
<desc>lat.=22.067150, lon.=104.672127, Alt.=89.165100m. Speed=1.080000m/h.</desc>
<speed>0.300000</speed>
</trkpt>
<trkpt lat="22.067152" lon="104.672119">
<ele>89.604553</ele>
<time>2011-04-28T05:21:29Z</time>
<desc>lat.=22.067152, lon.=104.672119, Alt.=89.604553m. Speed=0.036000m/h.</desc>
<speed>0.010000</speed>
</trkpt>
<trkpt lat="22.067148" lon="104.672119">
<ele>89.797913</ele>
<time>2011-04-28T05:21:34Z</time>
<desc>lat.=22.067148, lon.=104.672119, Alt.=89.797913m. Speed=0.972000m/h.</desc>
<speed>0.270000</speed>
</trkpt>
<trkpt lat="22.067142" lon="104.672119">
<ele>89.811584</ele>
<time>2011-04-28T05:21:39Z</time>
<desc>lat.=22.067142, lon.=104.672119, Alt.=89.811584m. Speed=0.828000m/h.</desc>
<speed>0.230000</speed>
</trkpt>
<trkpt lat="22.067133" lon="104.672127">
<ele>89.838928</ele>
<time>2011-04-28T05:21:44Z</time>
<desc>lat.=22.067133, lon.=104.672127, Alt.=89.838928m. Speed=1.008000m/h.</desc>
<speed>0.280000</speed>
</trkpt>
<trkpt lat="22.067123" lon="104.672127">
<ele>89.883850</ele>
<time>2011-04-28T05:21:49Z</time>
<desc>lat.=22.067123, lon.=104.672127, Alt.=89.883850m. Speed=0.756000m/h.</desc>
<speed>0.210000</speed>
</trkpt>
<trkpt lat="22.067120" lon="104.672134">
<ele>89.915100</ele>
<time>2011-04-28T05:21:54Z</time>
<desc>lat.=22.067120, lon.=104.672134, Alt.=89.915100m. Speed=0.252000m/h.</desc>
<speed>0.070000</speed>
</trkpt>
<trkpt lat="22.067122" lon="104.672134">
<ele>89.948303</ele>
<time>2011-04-28T05:21:59Z</time>
<desc>lat.=22.067122, lon.=104.672134, Alt.=89.948303m. Speed=0.000000m/h.</desc>
<speed>0.000000</speed>
</trkpt>
<trkpt lat="22.067122" lon="104.672134">
<ele>89.981506</ele>
<time>2011-04-28T05:22:04Z</time>
<desc>lat.=22.067122, lon.=104.672134, Alt.=89.981506m. Speed=0.144000m/h.</desc>
<speed>0.040000</speed>
</trkpt>
<trkpt lat="22.067125" lon="104.672142">
<ele>89.989319</ele>
<time>2011-04-28T05:22:09Z</time>
<desc>lat.=22.067125, lon.=104.672142, Alt.=89.989319m. Speed=1.368000m/h.</desc>
<speed>0.380000</speed>
</trkpt>
<trkpt lat="22.067131" lon="104.672211">
<ele>89.710022</ele>
<time>2011-04-28T05:22:14Z</time>
<desc>lat.=22.067131, lon.=104.672211, Alt.=89.710022m. Speed=1.728000m/h.</desc>
<speed>0.480000</speed>
</trkpt>
<trkpt lat="22.067141" lon="104.672256">
<ele>89.698303</ele>
<time>2011-04-28T05:22:19Z</time>
<desc>lat.=22.067141, lon.=104.672256, Alt.=89.698303m. Speed=1.656000m/h.</desc>
<speed>0.460000</speed>
</trkpt>
<trkpt lat="22.067137" lon="104.672287">
<ele>89.768616</ele>
<time>2011-04-28T05:22:24Z</time>
<desc>lat.=22.067137, lon.=104.672287, Alt.=89.768616m. Speed=1.404000m/h.</desc>
<speed>0.390000</speed>
</trkpt>
<trkpt lat="22.067129" lon="104.672302">
<ele>89.419006</ele>
<time>2011-04-28T05:22:29Z</time>
<desc>lat.=22.067129, lon.=104.672302, Alt.=89.419006m. Speed=1.152000m/h.</desc>
<speed>0.320000</speed>
</trkpt>
<trkpt lat="22.067129" lon="104.672302">
<ele>88.926819</ele>
<time>2011-04-28T05:22:34Z</time>
<desc>lat.=22.067129, lon.=104.672302, Alt.=88.926819m. Speed=0.792000m/h.</desc>
<speed>0.220000</speed>
</trkpt>
<trkpt lat="22.067112" lon="104.672264">
<ele>88.358459</ele>
<time>2011-04-28T05:22:39Z</time>
<desc>lat.=22.067112, lon.=104.672264, Alt.=88.358459m. Speed=0.288000m/h.</desc>
<speed>0.080000</speed>
</trkpt>
<trkpt lat="22.067118" lon="104.672195">
<ele>88.020569</ele>
<time>2011-04-28T05:22:44Z</time>
<desc>lat.=22.067118, lon.=104.672195, Alt.=88.020569m. Speed=1.260000m/h.</desc>
<speed>0.350000</speed>
</trkpt>
<trkpt lat="22.067120" lon="104.672188">
<ele>86.292053</ele>
<time>2011-04-28T05:22:49Z</time>
<desc>lat.=22.067120, lon.=104.672188, Alt.=86.292053m. Speed=3.348000m/h.</desc>
<speed>0.930000</speed>
</trkpt>
<trkpt lat="22.067051" lon="104.672112">
<ele>83.561584</ele>
<time>2011-04-28T05:22:54Z</time>
<desc>lat.=22.067051, lon.=104.672112, Alt.=83.561584m. Speed=12.888000m/h.</desc>
<speed>3.580000</speed>
</trkpt>
<trkpt lat="22.066957" lon="104.671890">
<ele>79.565491</ele>
<time>2011-04-28T05:22:59Z</time>
<desc>lat.=22.066957, lon.=104.671890, Alt.=79.565491m. Speed=17.927999m/h.</desc>
<speed>4.980000</speed>
</trkpt>
<trkpt lat="22.066978" lon="104.671562">
<ele>76.532288</ele>
<time>2011-04-28T05:23:04Z</time>
<desc>lat.=22.066978, lon.=104.671562, Alt.=76.532288m. Speed=23.544001m/h.</desc>
<speed>6.540000</speed>
</trkpt>
<trkpt lat="22.066925" lon="104.671204">
<ele>74.747131</ele>
<time>2011-04-28T05:23:09Z</time>
<desc>lat.=22.066925, lon.=104.671204, Alt.=74.747131m. Speed=27.792000m/h.</desc>
<speed>7.720000</speed>
</trkpt>
<trkpt lat="22.066574" lon="104.671082">
<ele>75.092834</ele>
<time>2011-04-28T05:23:14Z</time>
<desc>lat.=22.066574, lon.=104.671082, Alt.=75.092834m. Speed=24.875999m/h.</desc>
<speed>6.910000</speed>
</trkpt>
<trkpt lat="22.066254" lon="104.671043">
<ele>75.536194</ele>
<time>2011-04-28T05:23:19Z</time>
<desc>lat.=22.066254, lon.=104.671043, Alt.=75.536194m. Speed=22.068001m/h.</desc>
<speed>6.130000</speed>
</trkpt>
<trkpt lat="22.065987" lon="104.671036">
<ele>77.077209</ele>
<time>2011-04-28T05:23:24Z</time>
<desc>lat.=22.065987, lon.=104.671036, Alt.=77.077209m. Speed=17.676001m/h.</desc>
<speed>4.910000</speed>
</trkpt>
<trkpt lat="22.065760" lon="104.671036">
<ele>77.008850</ele>
<time>2011-04-28T05:23:29Z</time>
<desc>lat.=22.065760, lon.=104.671036, Alt.=77.008850m. Speed=16.164000m/h.</desc>
<speed>4.490000</speed>
</trkpt>
<trkpt lat="22.065544" lon="104.671097">
<ele>80.553772</ele>
<time>2011-04-28T05:23:34Z</time>
<desc>lat.=22.065544, lon.=104.671097, Alt.=80.553772m. Speed=17.208000m/h.</desc>
<speed>4.780000</speed>
</trkpt>
<trkpt lat="22.065327" lon="104.671181">
<ele>80.817444</ele>
<time>2011-04-28T05:23:39Z</time>
<desc>lat.=22.065327, lon.=104.671181, Alt.=80.817444m. Speed=15.732000m/h.</desc>
<speed>4.370000</speed>
</trkpt>
<trkpt lat="22.065182" lon="104.671242">
<ele>81.979553</ele>
<time>2011-04-28T05:23:44Z</time>
<desc>lat.=22.065182, lon.=104.671242, Alt.=81.979553m. Speed=13.356000m/h.</desc>
<speed>3.710000</speed>
</trkpt>
<trkpt lat="22.065008" lon="104.671349">
<ele>83.897522</ele>
<time>2011-04-28T05:23:49Z</time>
<desc>lat.=22.065008, lon.=104.671349, Alt.=83.897522m. Speed=16.416000m/h.</desc>
<speed>4.560000</speed>
</trkpt>
<trkpt lat="22.064838" lon="104.671448">
<ele>85.077209</ele>
<time>2011-04-28T05:23:54Z</time>
<desc>lat.=22.064838, lon.=104.671448, Alt.=85.077209m. Speed=13.176000m/h.</desc>
<speed>3.660000</speed>
</trkpt>
<trkpt lat="22.064663" lon="104.671562">
<ele>84.411194</ele>
<time>2011-04-28T05:23:59Z</time>
<desc>lat.=22.064663, lon.=104.671562, Alt.=84.411194m. Speed=16.091999m/h.</desc>
<speed>4.470000</speed>
</trkpt>
<trkpt lat="22.064455" lon="104.671654">
<ele>83.393616</ele>
<time>2011-04-28T05:24:04Z</time>
<desc>lat.=22.064455, lon.=104.671654, Alt.=83.393616m. Speed=13.932000m/h.</desc>
<speed>3.870000</speed>
</trkpt>
<trkpt lat="22.064274" lon="104.671692">
<ele>81.006897</ele>
<time>2011-04-28T05:24:09Z</time>
<desc>lat.=22.064274, lon.=104.671692, Alt.=81.006897m. Speed=15.120000m/h.</desc>
<speed>4.200000</speed>
</trkpt>
<trkpt lat="22.064102" lon="104.671692">
<ele>81.344788</ele>
<time>2011-04-28T05:24:14Z</time>
<desc>lat.=22.064102, lon.=104.671692, Alt.=81.344788m. Speed=12.312000m/h.</desc>
<speed>3.420000</speed>
</trkpt>
<trkpt lat="22.063951" lon="104.671631">
<ele>79.827209</ele>
<time>2011-04-28T05:24:19Z</time>
<desc>lat.=22.063951, lon.=104.671631, Alt.=79.827209m. Speed=12.924000m/h.</desc>
<speed>3.590000</speed>
</trkpt>
<trkpt lat="22.063780" lon="104.671486">
<ele>75.938538</ele>
<time>2011-04-28T05:24:24Z</time>
<desc>lat.=22.063780, lon.=104.671486, Alt.=75.938538m. Speed=20.375999m/h.</desc>
<speed>5.660000</speed>
</trkpt>
<trkpt lat="22.063650" lon="104.671280">
<ele>72.577209</ele>
<time>2011-04-28T05:24:29Z</time>
<desc>lat.=22.063650, lon.=104.671280, Alt.=72.577209m. Speed=17.243999m/h.</desc>
<speed>4.790000</speed>
</trkpt>
<trkpt lat="22.063553" lon="104.671066">
<ele>70.510803</ele>
<time>2011-04-28T05:24:34Z</time>
<desc>lat.=22.063553, lon.=104.671066, Alt.=70.510803m. Speed=15.084000m/h.</desc>
<speed>4.190000</speed>
</trkpt>
<trkpt lat="22.063456" lon="104.670868">
<ele>68.889709</ele>
<time>2011-04-28T05:24:39Z</time>
<desc>lat.=22.063456, lon.=104.670868, Alt.=68.889709m. Speed=18.072001m/h.</desc>
<speed>5.020000</speed>
</trkpt>
<trkpt lat="22.063353" lon="104.670609">
<ele>68.637756</ele>
<time>2011-04-28T05:24:44Z</time>
<desc>lat.=22.063353, lon.=104.670609, Alt.=68.637756m. Speed=16.955999m/h.</desc>
<speed>4.710000</speed>
</trkpt>
<trkpt lat="22.063267" lon="104.670357">
<ele>67.672913</ele>
<time>2011-04-28T05:24:49Z</time>
<desc>lat.=22.063267, lon.=104.670357, Alt.=67.672913m. Speed=18.252001m/h.</desc>
<speed>5.070000</speed>
</trkpt>
<trkpt lat="22.063238" lon="104.670120">
<ele>66.940491</ele>
<time>2011-04-28T05:24:54Z</time>
<desc>lat.=22.063238, lon.=104.670120, Alt.=66.940491m. Speed=15.228000m/h.</desc>
<speed>4.230000</speed>
</trkpt>
<trkpt lat="22.063210" lon="104.669907">
<ele>67.079163</ele>
<time>2011-04-28T05:24:59Z</time>
<desc>lat.=22.063210, lon.=104.669907, Alt.=67.079163m. Speed=14.832000m/h.</desc>
<speed>4.120000</speed>
</trkpt>
<trkpt lat="22.063219" lon="104.669685">
<ele>67.333069</ele>
<time>2011-04-28T05:25:04Z</time>
<desc>lat.=22.063219, lon.=104.669685, Alt.=67.333069m. Speed=14.220000m/h.</desc>
<speed>3.950000</speed>
</trkpt>
<trkpt lat="22.063131" lon="104.669571">
<ele>67.106506</ele>
<time>2011-04-28T05:25:09Z</time>
<desc>lat.=22.063131, lon.=104.669571, Alt.=67.106506m. Speed=13.968000m/h.</desc>
<speed>3.880000</speed>
</trkpt>
<trkpt lat="22.062853" lon="104.669434">
<ele>67.280334</ele>
<time>2011-04-28T05:25:14Z</time>
<desc>lat.=22.062853, lon.=104.669434, Alt.=67.280334m. Speed=21.600000m/h.</desc>
<speed>6.000000</speed>
</trkpt>
<trkpt lat="22.062578" lon="104.669357">
<ele>67.700256</ele>
<time>2011-04-28T05:25:19Z</time>
<desc>lat.=22.062578, lon.=104.669357, Alt.=67.700256m. Speed=19.836000m/h.</desc>
<speed>5.510000</speed>
</trkpt>
<trkpt lat="22.062334" lon="104.669319">
<ele>69.274475</ele>
<time>2011-04-28T05:25:24Z</time>
<desc>lat.=22.062334, lon.=104.669319, Alt.=69.274475m. Speed=15.300000m/h.</desc>
<speed>4.250000</speed>
</trkpt>
<trkpt lat="22.062174" lon="104.669281">
<ele>70.061584</ele>
<time>2011-04-28T05:25:29Z</time>
<desc>lat.=22.062174, lon.=104.669281, Alt.=70.061584m. Speed=8.784000m/h.</desc>
<speed>2.440000</speed>
</trkpt>
<trkpt lat="22.062119" lon="104.669243">
<ele>70.446350</ele>
<time>2011-04-28T05:25:34Z</time>
<desc>lat.=22.062119, lon.=104.669243, Alt.=70.446350m. Speed=4.824000m/h.</desc>
<speed>1.340000</speed>
</trkpt>
<trkpt lat="22.062048" lon="104.669220">
<ele>70.657288</ele>
<time>2011-04-28T05:25:39Z</time>
<desc>lat.=22.062048, lon.=104.669220, Alt.=70.657288m. Speed=5.652000m/h.</desc>
<speed>1.570000</speed>
</trkpt>
<trkpt lat="22.061958" lon="104.669128">
<ele>71.643616</ele>
<time>2011-04-28T05:25:44Z</time>
<desc>lat.=22.061958, lon.=104.669128, Alt.=71.643616m. Speed=10.152000m/h.</desc>
<speed>2.820000</speed>
</trkpt>
<trkpt lat="22.061855" lon="104.669014">
<ele>72.383850</ele>
<time>2011-04-28T05:25:49Z</time>
<desc>lat.=22.061855, lon.=104.669014, Alt.=72.383850m. Speed=13.248000m/h.</desc>
<speed>3.680000</speed>
</trkpt>
<trkpt lat="22.061768" lon="104.668861">
<ele>72.719788</ele>
<time>2011-04-28T05:25:54Z</time>
<desc>lat.=22.061768, lon.=104.668861, Alt.=72.719788m. Speed=12.888000m/h.</desc>
<speed>3.580000</speed>
</trkpt>
<trkpt lat="22.061676" lon="104.668724">
<ele>73.415100</ele>
<time>2011-04-28T05:25:59Z</time>
<desc>lat.=22.061676, lon.=104.668724, Alt.=73.415100m. Speed=11.664000m/h.</desc>
<speed>3.240000</speed>
</trkpt>
<trkpt lat="22.061584" lon="104.668556">
<ele>74.342834</ele>
<time>2011-04-28T05:26:04Z</time>
<desc>lat.=22.061584, lon.=104.668556, Alt.=74.342834m. Speed=14.508000m/h.</desc>
<speed>4.030000</speed>
</trkpt>
<trkpt lat="22.061459" lon="104.668419">
<ele>73.653381</ele>
<time>2011-04-28T05:26:09Z</time>
<desc>lat.=22.061459, lon.=104.668419, Alt.=73.653381m. Speed=11.592000m/h.</desc>
<speed>3.220000</speed>
</trkpt>
<trkpt lat="22.061270" lon="104.668304">
<ele>72.774475</ele>
<time>2011-04-28T05:26:14Z</time>
<desc>lat.=22.061270, lon.=104.668304, Alt.=72.774475m. Speed=15.300000m/h.</desc>
<speed>4.250000</speed>
</trkpt>
<trkpt lat="22.061123" lon="104.668190">
<ele>73.401428</ele>
<time>2011-04-28T05:26:19Z</time>
<desc>lat.=22.061123, lon.=104.668190, Alt.=73.401428m. Speed=12.600000m/h.</desc>
<speed>3.500000</speed>
</trkpt>
<trkpt lat="22.061026" lon="104.668045">
<ele>75.127991</ele>
<time>2011-04-28T05:26:24Z</time>
<desc>lat.=22.061026, lon.=104.668045, Alt.=75.127991m. Speed=12.240000m/h.</desc>
<speed>3.400000</speed>
</trkpt>
<trkpt lat="22.060898" lon="104.667931">
<ele>76.792053</ele>
<time>2011-04-28T05:26:29Z</time>
<desc>lat.=22.060898, lon.=104.667931, Alt.=76.792053m. Speed=15.624000m/h.</desc>
<speed>4.340000</speed>
</trkpt>
<trkpt lat="22.060675" lon="104.667816">
<ele>80.346741</ele>
<time>2011-04-28T05:26:34Z</time>
<desc>lat.=22.060675, lon.=104.667816, Alt.=80.346741m. Speed=17.243999m/h.</desc>
<speed>4.790000</speed>
</trkpt>
<trkpt lat="22.060417" lon="104.667717">
<ele>81.874084</ele>
<time>2011-04-28T05:26:39Z</time>
<desc>lat.=22.060417, lon.=104.667717, Alt.=81.874084m. Speed=15.336000m/h.</desc>
<speed>4.260000</speed>
</trkpt>
<trkpt lat="22.060211" lon="104.667664">
<ele>82.237366</ele>
<time>2011-04-28T05:26:44Z</time>
<desc>lat.=22.060211, lon.=104.667664, Alt.=82.237366m. Speed=14.220000m/h.</desc>
<speed>3.950000</speed>
</trkpt>
<trkpt lat="22.059982" lon="104.667664">
<ele>81.157288</ele>
<time>2011-04-28T05:26:49Z</time>
<desc>lat.=22.059982, lon.=104.667664, Alt.=81.157288m. Speed=19.548000m/h.</desc>
<speed>5.430000</speed>
</trkpt>
<trkpt lat="22.059694" lon="104.667786">
<ele>80.141663</ele>
<time>2011-04-28T05:26:54Z</time>
<desc>lat.=22.059694, lon.=104.667786, Alt.=80.141663m. Speed=28.260000m/h.</desc>
<speed>7.850000</speed>
</trkpt>
<trkpt lat="22.059368" lon="104.667786">
<ele>80.272522</ele>
<time>2011-04-28T05:26:59Z</time>
<desc>lat.=22.059368, lon.=104.667786, Alt.=80.272522m. Speed=24.480000m/h.</desc>
<speed>6.800000</speed>
</trkpt>
<trkpt lat="22.059093" lon="104.667747">
<ele>82.258850</ele>
<time>2011-04-28T05:27:04Z</time>
<desc>lat.=22.059093, lon.=104.667747, Alt.=82.258850m. Speed=21.888000m/h.</desc>
<speed>6.080000</speed>
</trkpt>
<trkpt lat="22.058846" lon="104.667725">
<ele>83.835022</ele>
<time>2011-04-28T05:27:09Z</time>
<desc>lat.=22.058846, lon.=104.667725, Alt.=83.835022m. Speed=17.820000m/h.</desc>
<speed>4.950000</speed>
</trkpt>
<trkpt lat="22.058615" lon="104.667702">
<ele>86.442444</ele>
<time>2011-04-28T05:27:14Z</time>
<desc>lat.=22.058615, lon.=104.667702, Alt.=86.442444m. Speed=13.968000m/h.</desc>
<speed>3.880000</speed>
</trkpt>
<trkpt lat="22.058445" lon="104.667656">
<ele>89.229553</ele>
<time>2011-04-28T05:27:19Z</time>
<desc>lat.=22.058445, lon.=104.667656, Alt.=89.229553m. Speed=10.188000m/h.</desc>
<speed>2.830000</speed>
</trkpt>
<trkpt lat="22.058327" lon="104.667595">
<ele>89.495178</ele>
<time>2011-04-28T05:27:24Z</time>
<desc>lat.=22.058327, lon.=104.667595, Alt.=89.495178m. Speed=5.688000m/h.</desc>
<speed>1.580000</speed>
</trkpt>
<trkpt lat="22.058237" lon="104.667503">
<ele>90.139709</ele>
<time>2011-04-28T05:27:29Z</time>
<desc>lat.=22.058237, lon.=104.667503, Alt.=90.139709m. Speed=8.352000m/h.</desc>
<speed>2.320000</speed>
</trkpt>
<trkpt lat="22.058163" lon="104.667389">
<ele>90.516663</ele>
<time>2011-04-28T05:27:34Z</time>
<desc>lat.=22.058163, lon.=104.667389, Alt.=90.516663m. Speed=7.236000m/h.</desc>
<speed>2.010000</speed>
</trkpt>
<trkpt lat="22.058067" lon="104.667274">
<ele>90.497131</ele>
<time>2011-04-28T05:27:39Z</time>
<desc>lat.=22.058067, lon.=104.667274, Alt.=90.497131m. Speed=9.576000m/h.</desc>
<speed>2.660000</speed>
</trkpt>
<trkpt lat="22.057949" lon="104.667175">
<ele>90.247131</ele>
<time>2011-04-28T05:27:44Z</time>
<desc>lat.=22.057949, lon.=104.667175, Alt.=90.247131m. Speed=11.304000m/h.</desc>
<speed>3.140000</speed>
</trkpt>
<trkpt lat="22.057827" lon="104.667130">
<ele>91.436584</ele>
<time>2011-04-28T05:27:49Z</time>
<desc>lat.=22.057827, lon.=104.667130, Alt.=91.436584m. Speed=7.884000m/h.</desc>
<speed>2.190000</speed>
</trkpt>
<trkpt lat="22.057695" lon="104.667145">
<ele>91.973694</ele>
<time>2011-04-28T05:27:54Z</time>
<desc>lat.=22.057695, lon.=104.667145, Alt.=91.973694m. Speed=11.628000m/h.</desc>
<speed>3.230000</speed>
</trkpt>
<trkpt lat="22.057594" lon="104.667221">
<ele>92.670959</ele>
<time>2011-04-28T05:27:59Z</time>
<desc>lat.=22.057594, lon.=104.667221, Alt.=92.670959m. Speed=8.712000m/h.</desc>
<speed>2.420000</speed>
</trkpt>
<trkpt lat="22.057449" lon="104.667328">
<ele>92.331116</ele>
<time>2011-04-28T05:28:04Z</time>
<desc>lat.=22.057449, lon.=104.667328, Alt.=92.331116m. Speed=10.764000m/h.</desc>
<speed>2.990000</speed>
</trkpt>
<trkpt lat="22.057331" lon="104.667450">
<ele>92.622131</ele>
<time>2011-04-28T05:28:09Z</time>
<desc>lat.=22.057331, lon.=104.667450, Alt.=92.622131m. Speed=11.556000m/h.</desc>
<speed>3.210000</speed>
</trkpt>
<trkpt lat="22.057234" lon="104.667572">
<ele>93.249084</ele>
<time>2011-04-28T05:28:14Z</time>
<desc>lat.=22.057234, lon.=104.667572, Alt.=93.249084m. Speed=10.728000m/h.</desc>
<speed>2.980000</speed>
</trkpt>
<trkpt lat="22.057159" lon="104.667694">
<ele>93.891663</ele>
<time>2011-04-28T05:28:19Z</time>
<desc>lat.=22.057159, lon.=104.667694, Alt.=93.891663m. Speed=11.412000m/h.</desc>
<speed>3.170000</speed>
</trkpt>
<trkpt lat="22.057072" lon="104.667847">
<ele>94.495178</ele>
<time>2011-04-28T05:28:24Z</time>
<desc>lat.=22.057072, lon.=104.667847, Alt.=94.495178m. Speed=16.775999m/h.</desc>
<speed>4.660000</speed>
</trkpt>
<trkpt lat="22.056913" lon="104.668053">
<ele>94.290100</ele>
<time>2011-04-28T05:28:29Z</time>
<desc>lat.=22.056913, lon.=104.668053, Alt.=94.290100m. Speed=20.483999m/h.</desc>
<speed>5.690000</speed>
</trkpt>
<trkpt lat="22.056686" lon="104.668221">
<ele>94.413147</ele>
<time>2011-04-28T05:28:34Z</time>
<desc>lat.=22.056686, lon.=104.668221, Alt.=94.413147m. Speed=23.652000m/h.</desc>
<speed>6.570000</speed>
</trkpt>
<trkpt lat="22.056421" lon="104.668365">
<ele>94.678772</ele>
<time>2011-04-28T05:28:39Z</time>
<desc>lat.=22.056421, lon.=104.668365, Alt.=94.678772m. Speed=23.256001m/h.</desc>
<speed>6.460000</speed>
</trkpt>
<trkpt lat="22.056135" lon="104.668449">
<ele>95.733459</ele>
<time>2011-04-28T05:28:44Z</time>
<desc>lat.=22.056135, lon.=104.668449, Alt.=95.733459m. Speed=23.327999m/h.</desc>
<speed>6.480000</speed>
</trkpt>
<trkpt lat="22.055830" lon="104.668358">
<ele>97.807678</ele>
<time>2011-04-28T05:28:49Z</time>
<desc>lat.=22.055830, lon.=104.668358, Alt.=97.807678m. Speed=23.040001m/h.</desc>
<speed>6.400000</speed>
</trkpt>
<trkpt lat="22.055620" lon="104.668243">
<ele>99.731506</ele>
<time>2011-04-28T05:28:54Z</time>
<desc>lat.=22.055620, lon.=104.668243, Alt.=99.731506m. Speed=18.216000m/h.</desc>
<speed>5.060000</speed>
</trkpt>
<trkpt lat="22.055450" lon="104.668098">
<ele>101.469788</ele>
<time>2011-04-28T05:28:59Z</time>
<desc>lat.=22.055450, lon.=104.668098, Alt.=101.469788m. Speed=14.868000m/h.</desc>
<speed>4.130000</speed>
</trkpt>
<trkpt lat="22.055330" lon="104.667953">
<ele>102.649475</ele>
<time>2011-04-28T05:29:04Z</time>
<desc>lat.=22.055330, lon.=104.667953, Alt.=102.649475m. Speed=13.176000m/h.</desc>
<speed>3.660000</speed>
</trkpt>
<trkpt lat="22.055229" lon="104.667801">
<ele>105.760803</ele>
<time>2011-04-28T05:29:09Z</time>
<desc>lat.=22.055229, lon.=104.667801, Alt.=105.760803m. Speed=13.644000m/h.</desc>
<speed>3.790000</speed>
</trkpt>
<trkpt lat="22.055088" lon="104.667656">
<ele>106.895569</ele>
<time>2011-04-28T05:29:14Z</time>
<desc>lat.=22.055088, lon.=104.667656, Alt.=106.895569m. Speed=8.712000m/h.</desc>
<speed>2.420000</speed>
</trkpt>
<trkpt lat="22.054968" lon="104.667542">
<ele>106.735413</ele>
<time>2011-04-28T05:29:19Z</time>
<desc>lat.=22.054968, lon.=104.667542, Alt.=106.735413m. Speed=8.892000m/h.</desc>
<speed>2.470000</speed>
</trkpt>
<trkpt lat="22.054827" lon="104.667419">
<ele>107.321350</ele>
<time>2011-04-28T05:29:24Z</time>
<desc>lat.=22.054827, lon.=104.667419, Alt.=107.321350m. Speed=10.080000m/h.</desc>
<speed>2.800000</speed>
</trkpt>
<trkpt lat="22.054644" lon="104.667274">
<ele>109.063538</ele>
<time>2011-04-28T05:29:29Z</time>
<desc>lat.=22.054644, lon.=104.667274, Alt.=109.063538m. Speed=8.352000m/h.</desc>
<speed>2.320000</speed>
</trkpt>
<trkpt lat="22.054550" lon="104.667206">
<ele>109.604553</ele>
<time>2011-04-28T05:29:34Z</time>
<desc>lat.=22.054550, lon.=104.667206, Alt.=109.604553m. Speed=3.852000m/h.</desc>
<speed>1.070000</speed>
</trkpt>
<trkpt lat="22.054525" lon="104.667183">
<ele>111.444397</ele>
<time>2011-04-28T05:29:39Z</time>
<desc>lat.=22.054525, lon.=104.667183, Alt.=111.444397m. Speed=0.792000m/h.</desc>
<speed>0.220000</speed>
</trkpt>
<trkpt lat="22.054520" lon="104.667183">
<ele>112.368225</ele>
<time>2011-04-28T05:29:44Z</time>
<desc>lat.=22.054520, lon.=104.667183, Alt.=112.368225m. Speed=0.036000m/h.</desc>
<speed>0.010000</speed>
</trkpt>
<trkpt lat="22.054522" lon="104.667183">
<ele>112.643616</ele>
<time>2011-04-28T05:29:49Z</time>
<desc>lat.=22.054522, lon.=104.667183, Alt.=112.643616m. Speed=0.432000m/h.</desc>
<speed>0.120000</speed>
</trkpt>
<trkpt lat="22.054523" lon="104.667183">
<ele>112.745178</ele>
<time>2011-04-28T05:29:54Z</time>
<desc>lat.=22.054523, lon.=104.667183, Alt.=112.745178m. Speed=0.360000m/h.</desc>
<speed>0.100000</speed>
</trkpt>
<trkpt lat="22.054523" lon="104.667183">
<ele>112.752991</ele>
<time>2011-04-28T05:29:59Z</time>
<desc>lat.=22.054523, lon.=104.667183, Alt.=112.752991m. Speed=0.072000m/h.</desc>
<speed>0.020000</speed>
</trkpt>
<trkpt lat="22.054525" lon="104.667175">
<ele>112.762756</ele>
<time>2011-04-28T05:30:04Z</time>
<desc>lat.=22.054525, lon.=104.667175, Alt.=112.762756m. Speed=0.144000m/h.</desc>
<speed>0.040000</speed>
</trkpt>
<trkpt lat="22.054523" lon="104.667183">
<ele>112.743225</ele>
<time>2011-04-28T05:30:09Z</time>
<desc>lat.=22.054523, lon.=104.667183, Alt.=112.743225m. Speed=0.396000m/h.</desc>
<speed>0.110000</speed>
</trkpt>
<trkpt lat="22.054522" lon="104.667183">
<ele>112.706116</ele>
<time>2011-04-28T05:30:14Z</time>
<desc>lat.=22.054522, lon.=104.667183, Alt.=112.706116m. Speed=0.108000m/h.</desc>
<speed>0.030000</speed>
</trkpt>
<trkpt lat="22.054520" lon="104.667183">
<ele>112.678772</ele>
<time>2011-04-28T05:30:19Z</time>
<desc>lat.=22.054520, lon.=104.667183, Alt.=112.678772m. Speed=0.072000m/h.</desc>
<speed>0.020000</speed>
</trkpt>
<trkpt lat="22.054520" lon="104.667183">
<ele>112.635803</ele>
<time>2011-04-28T05:30:24Z</time>
<desc>lat.=22.054520, lon.=104.667183, Alt.=112.635803m. Speed=0.036000m/h.</desc>
<speed>0.010000</speed>
</trkpt>
<trkpt lat="22.054520" lon="104.667183">
<ele>112.594788</ele>
<time>2011-04-28T05:30:29Z</time>
<desc>lat.=22.054520, lon.=104.667183, Alt.=112.594788m. Speed=0.072000m/h.</desc>
<speed>0.020000</speed>
</trkpt>
<trkpt lat="22.054522" lon="104.667183">
<ele>112.538147</ele>
<time>2011-04-28T05:30:34Z</time>
<desc>lat.=22.054522, lon.=104.667183, Alt.=112.538147m. Speed=0.252000m/h.</desc>
<speed>0.070000</speed>
</trkpt>
<trkpt lat="22.054520" lon="104.667183">
<ele>112.502991</ele>
<time>2011-04-28T05:30:39Z</time>
<desc>lat.=22.054520, lon.=104.667183, Alt.=112.502991m. Speed=0.252000m/h.</desc>
<speed>0.070000</speed>
</trkpt>
<trkpt lat="22.054520" lon="104.667183">
<ele>112.458069</ele>
<time>2011-04-28T05:30:44Z</time>
<desc>lat.=22.054520, lon.=104.667183, Alt.=112.458069m. Speed=0.036000m/h.</desc>
<speed>0.010000</speed>
</trkpt>
<trkpt lat="22.054520" lon="104.667183">
<ele>112.458069</ele>
<time>2011-04-28T05:30:49Z</time>
<desc>lat.=22.054520, lon.=104.667183, Alt.=112.458069m. Speed=0.072000m/h.</desc>
<speed>0.020000</speed>
</trkpt>
<trkpt lat="22.054518" lon="104.667183">
<ele>112.452209</ele>
<time>2011-04-28T05:30:54Z</time>
<desc>lat.=22.054518, lon.=104.667183, Alt.=112.452209m. Speed=1.620000m/h.</desc>
<speed>0.450000</speed>
</trkpt>
<trkpt lat="22.054464" lon="104.667152">
<ele>112.264709</ele>
<time>2011-04-28T05:30:59Z</time>
<desc>lat.=22.054464, lon.=104.667152, Alt.=112.264709m. Speed=8.028000m/h.</desc>
<speed>2.230000</speed>
</trkpt>
<trkpt lat="22.054316" lon="104.667145">
<ele>111.620178</ele>
<time>2011-04-28T05:31:04Z</time>
<desc>lat.=22.054316, lon.=104.667145, Alt.=111.620178m. Speed=10.944000m/h.</desc>
<speed>3.040000</speed>
</trkpt>
<trkpt lat="22.054182" lon="104.667114">
<ele>110.815491</ele>
<time>2011-04-28T05:31:09Z</time>
<desc>lat.=22.054182, lon.=104.667114, Alt.=110.815491m. Speed=11.016000m/h.</desc>
<speed>3.060000</speed>
</trkpt>
<trkpt lat="22.054007" lon="104.667053">
<ele>110.446350</ele>
<time>2011-04-28T05:31:14Z</time>
<desc>lat.=22.054007, lon.=104.667053, Alt.=110.446350m. Speed=12.960000m/h.</desc>
<speed>3.600000</speed>
</trkpt>
<trkpt lat="22.053762" lon="104.666985">
<ele>110.120178</ele>
<time>2011-04-28T05:31:19Z</time>
<desc>lat.=22.053762, lon.=104.666985, Alt.=110.120178m. Speed=11.952000m/h.</desc>
<speed>3.320000</speed>
</trkpt>
<trkpt lat="22.053627" lon="104.666855">
<ele>110.948303</ele>
<time>2011-04-28T05:31:24Z</time>
<desc>lat.=22.053627, lon.=104.666855, Alt.=110.948303m. Speed=13.716000m/h.</desc>
<speed>3.810000</speed>
</trkpt>
<trkpt lat="22.053478" lon="104.666695">
<ele>113.251038</ele>
<time>2011-04-28T05:31:29Z</time>
<desc>lat.=22.053478, lon.=104.666695, Alt.=113.251038m. Speed=12.060000m/h.</desc>
<speed>3.350000</speed>
</trkpt>
<trkpt lat="22.053316" lon="104.666641">
<ele>112.522522</ele>
<time>2011-04-28T05:31:34Z</time>
<desc>lat.=22.053316, lon.=104.666641, Alt.=112.522522m. Speed=12.636000m/h.</desc>
<speed>3.510000</speed>
</trkpt>
<trkpt lat="22.053137" lon="104.666641">
<ele>112.405334</ele>
<time>2011-04-28T05:31:39Z</time>
<desc>lat.=22.053137, lon.=104.666641, Alt.=112.405334m. Speed=9.972000m/h.</desc>
<speed>2.770000</speed>
</trkpt>
<trkpt lat="22.052938" lon="104.666641">
<ele>112.006897</ele>
<time>2011-04-28T05:31:44Z</time>
<desc>lat.=22.052938, lon.=104.666641, Alt.=112.006897m. Speed=14.004000m/h.</desc>
<speed>3.890000</speed>
</trkpt>
<trkpt lat="22.052706" lon="104.666634">
<ele>112.364319</ele>
<time>2011-04-28T05:31:49Z</time>
<desc>lat.=22.052706, lon.=104.666634, Alt.=112.364319m. Speed=15.624000m/h.</desc>
<speed>4.340000</speed>
</trkpt>
<trkpt lat="22.052496" lon="104.666634">
<ele>112.698303</ele>
<time>2011-04-28T05:31:54Z</time>
<desc>lat.=22.052496, lon.=104.666634, Alt.=112.698303m. Speed=14.544000m/h.</desc>
<speed>4.040000</speed>
</trkpt>
<trkpt lat="22.052288" lon="104.666664">
<ele>113.331116</ele>
<time>2011-04-28T05:31:59Z</time>
<desc>lat.=22.052288, lon.=104.666664, Alt.=113.331116m. Speed=13.212000m/h.</desc>
<speed>3.670000</speed>
</trkpt>
<trkpt lat="22.052040" lon="104.666725">
<ele>113.153381</ele>
<time>2011-04-28T05:32:04Z</time>
<desc>lat.=22.052040, lon.=104.666725, Alt.=113.153381m. Speed=14.544000m/h.</desc>
<speed>4.040000</speed>
</trkpt>
<trkpt lat="22.051895" lon="104.666763">
<ele>114.174866</ele>
<time>2011-04-28T05:32:09Z</time>
<desc>lat.=22.051895, lon.=104.666763, Alt.=114.174866m. Speed=8.892000m/h.</desc>
<speed>2.470000</speed>
</trkpt>
<trkpt lat="22.051722" lon="104.666801">
<ele>115.723694</ele>
<time>2011-04-28T05:32:14Z</time>
<desc>lat.=22.051722, lon.=104.666801, Alt.=115.723694m. Speed=11.340000m/h.</desc>
<speed>3.150000</speed>
</trkpt>
<trkpt lat="22.051620" lon="104.666832">
<ele>117.188538</ele>
<time>2011-04-28T05:32:19Z</time>
<desc>lat.=22.051620, lon.=104.666832, Alt.=117.188538m. Speed=6.876000m/h.</desc>
<speed>1.910000</speed>
</trkpt>
<trkpt lat="22.051491" lon="104.666885">
<ele>118.305725</ele>
<time>2011-04-28T05:32:24Z</time>
<desc>lat.=22.051491, lon.=104.666885, Alt.=118.305725m. Speed=5.472000m/h.</desc>
<speed>1.520000</speed>
</trkpt>
<trkpt lat="22.051394" lon="104.666916">
<ele>119.303772</ele>
<time>2011-04-28T05:32:29Z</time>
<desc>lat.=22.051394, lon.=104.666916, Alt.=119.303772m. Speed=7.200000m/h.</desc>
<speed>2.000000</speed>
</trkpt>
<trkpt lat="22.051306" lon="104.666954">
<ele>120.229553</ele>
<time>2011-04-28T05:32:34Z</time>
<desc>lat.=22.051306, lon.=104.666954, Alt.=120.229553m. Speed=5.256000m/h.</desc>
<speed>1.460000</speed>
</trkpt>
<trkpt lat="22.051193" lon="104.666992">
<ele>120.141663</ele>
<time>2011-04-28T05:32:39Z</time>
<desc>lat.=22.051193, lon.=104.666992, Alt.=120.141663m. Speed=6.552000m/h.</desc>
<speed>1.820000</speed>
</trkpt>
<trkpt lat="22.051010" lon="104.667053">
<ele>118.688538</ele>
<time>2011-04-28T05:32:44Z</time>
<desc>lat.=22.051010, lon.=104.667053, Alt.=118.688538m. Speed=7.272000m/h.</desc>
<speed>2.020000</speed>
</trkpt>
<trkpt lat="22.050924" lon="104.667076">
<ele>118.200256</ele>
<time>2011-04-28T05:32:49Z</time>
<desc>lat.=22.050924, lon.=104.667076, Alt.=118.200256m. Speed=4.320000m/h.</desc>
<speed>1.200000</speed>
</trkpt>
<trkpt lat="22.050859" lon="104.667091">
<ele>118.782288</ele>
<time>2011-04-28T05:32:54Z</time>
<desc>lat.=22.050859, lon.=104.667091, Alt.=118.782288m. Speed=3.528000m/h.</desc>
<speed>0.980000</speed>
</trkpt>
<trkpt lat="22.050810" lon="104.667137">
<ele>119.538147</ele>
<time>2011-04-28T05:32:59Z</time>
<desc>lat.=22.050810, lon.=104.667137, Alt.=119.538147m. Speed=4.392000m/h.</desc>
<speed>1.220000</speed>
</trkpt>
<trkpt lat="22.050770" lon="104.667213">
<ele>119.751038</ele>
<time>2011-04-28T05:33:04Z</time>
<desc>lat.=22.050770, lon.=104.667213, Alt.=119.751038m. Speed=7.344000m/h.</desc>
<speed>2.040000</speed>
</trkpt>
<trkpt lat="22.050678" lon="104.667336">
<ele>119.626038</ele>
<time>2011-04-28T05:33:09Z</time>
<desc>lat.=22.050678, lon.=104.667336, Alt.=119.626038m. Speed=9.468000m/h.</desc>
<speed>2.630000</speed>
</trkpt>
<trkpt lat="22.050570" lon="104.667473">
<ele>119.522522</ele>
<time>2011-04-28T05:33:14Z</time>
<desc>lat.=22.050570, lon.=104.667473, Alt.=119.522522m. Speed=7.704000m/h.</desc>
<speed>2.140000</speed>
</trkpt>
<trkpt lat="22.050499" lon="104.667580">
<ele>119.676819</ele>
<time>2011-04-28T05:33:19Z</time>
<desc>lat.=22.050499, lon.=104.667580, Alt.=119.676819m. Speed=5.508000m/h.</desc>
<speed>1.530000</speed>
</trkpt>
<trkpt lat="22.050413" lon="104.667694">
<ele>120.167053</ele>
<time>2011-04-28T05:33:24Z</time>
<desc>lat.=22.050413, lon.=104.667694, Alt.=120.167053m. Speed=7.884000m/h.</desc>
<speed>2.190000</speed>
</trkpt>
<trkpt lat="22.050371" lon="104.667824">
<ele>120.262756</ele>
<time>2011-04-28T05:33:29Z</time>
<desc>lat.=22.050371, lon.=104.667824, Alt.=120.262756m. Speed=7.704000m/h.</desc>
<speed>2.140000</speed>
</trkpt>
<trkpt lat="22.050350" lon="104.667923">
<ele>119.866272</ele>
<time>2011-04-28T05:33:34Z</time>
<desc>lat.=22.050350, lon.=104.667923, Alt.=119.866272m. Speed=5.832000m/h.</desc>
<speed>1.620000</speed>
</trkpt>
<trkpt lat="22.050329" lon="104.667976">
<ele>120.100647</ele>
<time>2011-04-28T05:33:39Z</time>
<desc>lat.=22.050329, lon.=104.667976, Alt.=120.100647m. Speed=2.304000m/h.</desc>
<speed>0.640000</speed>
</trkpt>
<trkpt lat="22.050320" lon="104.668030">
<ele>120.360413</ele>
<time>2011-04-28T05:33:44Z</time>
<desc>lat.=22.050320, lon.=104.668030, Alt.=120.360413m. Speed=1.116000m/h.</desc>
<speed>0.310000</speed>
</trkpt>
<trkpt lat="22.050312" lon="104.668030">
<ele>120.817444</ele>
<time>2011-04-28T05:33:49Z</time>
<desc>lat.=22.050312, lon.=104.668030, Alt.=120.817444m. Speed=0.720000m/h.</desc>
<speed>0.200000</speed>
</trkpt>
<trkpt lat="22.050308" lon="104.668030">
<ele>120.893616</ele>
<time>2011-04-28T05:33:54Z</time>
<desc>lat.=22.050308, lon.=104.668030, Alt.=120.893616m. Speed=1.188000m/h.</desc>
<speed>0.330000</speed>
</trkpt>
<trkpt lat="22.050312" lon="104.668030">
<ele>120.887756</ele>
<time>2011-04-28T05:33:59Z</time>
<desc>lat.=22.050312, lon.=104.668030, Alt.=120.887756m. Speed=0.612000m/h.</desc>
<speed>0.170000</speed>
</trkpt>
<trkpt lat="22.050308" lon="104.668030">
<ele>120.811584</ele>
<time>2011-04-28T05:34:04Z</time>
<desc>lat.=22.050308, lon.=104.668030, Alt.=120.811584m. Speed=0.324000m/h.</desc>
<speed>0.090000</speed>
</trkpt>
<trkpt lat="22.050314" lon="104.668030">
<ele>120.749084</ele>
<time>2011-04-28T05:34:09Z</time>
<desc>lat.=22.050314, lon.=104.668030, Alt.=120.749084m. Speed=0.828000m/h.</desc>
<speed>0.230000</speed>
</trkpt>
<trkpt lat="22.050323" lon="104.668030">
<ele>120.669006</ele>
<time>2011-04-28T05:34:14Z</time>
<desc>lat.=22.050323, lon.=104.668030, Alt.=120.669006m. Speed=0.648000m/h.</desc>
<speed>0.180000</speed>
</trkpt>
<trkpt lat="22.050329" lon="104.668030">
<ele>120.581116</ele>
<time>2011-04-28T05:34:19Z</time>
<desc>lat.=22.050329, lon.=104.668030, Alt.=120.581116m. Speed=1.908000m/h.</desc>
<speed>0.530000</speed>
</trkpt>
<trkpt lat="22.050339" lon="104.668007">
<ele>120.538147</ele>
<time>2011-04-28T05:34:24Z</time>
<desc>lat.=22.050339, lon.=104.668007, Alt.=120.538147m. Speed=1.512000m/h.</desc>
<speed>0.420000</speed>
</trkpt>
<trkpt lat="22.050346" lon="104.667992">
<ele>120.501038</ele>
<time>2011-04-28T05:34:29Z</time>
<desc>lat.=22.050346, lon.=104.667992, Alt.=120.501038m. Speed=0.576000m/h.</desc>
<speed>0.160000</speed>
</trkpt>
<trkpt lat="22.050354" lon="104.667999">
<ele>120.465881</ele>
<time>2011-04-28T05:34:34Z</time>
<desc>lat.=22.050354, lon.=104.667999, Alt.=120.465881m. Speed=0.252000m/h.</desc>
<speed>0.070000</speed>
</trkpt>
<trkpt lat="22.050352" lon="104.667999">
<ele>120.454163</ele>
<time>2011-04-28T05:34:39Z</time>
<desc>lat.=22.050352, lon.=104.667999, Alt.=120.454163m. Speed=1.260000m/h.</desc>
<speed>0.350000</speed>
</trkpt>
<trkpt lat="22.050354" lon="104.668015">
<ele>120.477600</ele>
<time>2011-04-28T05:34:44Z</time>
<desc>lat.=22.050354, lon.=104.668015, Alt.=120.477600m. Speed=1.044000m/h.</desc>
<speed>0.290000</speed>
</trkpt>
<trkpt lat="22.050358" lon="104.668030">
<ele>120.481506</ele>
<time>2011-04-28T05:34:49Z</time>
<desc>lat.=22.050358, lon.=104.668030, Alt.=120.481506m. Speed=1.368000m/h.</desc>
<speed>0.380000</speed>
</trkpt>
<trkpt lat="22.050362" lon="104.668045">
<ele>120.479553</ele>
<time>2011-04-28T05:34:54Z</time>
<desc>lat.=22.050362, lon.=104.668045, Alt.=120.479553m. Speed=0.972000m/h.</desc>
<speed>0.270000</speed>
</trkpt>
<trkpt lat="22.050365" lon="104.668053">
<ele>120.477600</ele>
<time>2011-04-28T05:34:59Z</time>
<desc>lat.=22.050365, lon.=104.668053, Alt.=120.477600m. Speed=0.864000m/h.</desc>
<speed>0.240000</speed>
</trkpt>
<trkpt lat="22.050375" lon="104.668076">
<ele>120.473694</ele>
<time>2011-04-28T05:35:04Z</time>
<desc>lat.=22.050375, lon.=104.668076, Alt.=120.473694m. Speed=1.620000m/h.</desc>
<speed>0.450000</speed>
</trkpt>
<trkpt lat="22.050383" lon="104.668091">
<ele>120.475647</ele>
<time>2011-04-28T05:35:09Z</time>
<desc>lat.=22.050383, lon.=104.668091, Alt.=120.475647m. Speed=1.332000m/h.</desc>
<speed>0.370000</speed>
</trkpt>
<trkpt lat="22.050390" lon="104.668098">
<ele>120.493225</ele>
<time>2011-04-28T05:35:14Z</time>
<desc>lat.=22.050390, lon.=104.668098, Alt.=120.493225m. Speed=0.684000m/h.</desc>
<speed>0.190000</speed>
</trkpt>
<trkpt lat="22.050402" lon="104.668106">
<ele>120.501038</ele>
<time>2011-04-28T05:35:19Z</time>
<desc>lat.=22.050402, lon.=104.668106, Alt.=120.501038m. Speed=1.404000m/h.</desc>
<speed>0.390000</speed>
</trkpt>
<trkpt lat="22.050409" lon="104.668121">
<ele>120.506897</ele>
<time>2011-04-28T05:35:24Z</time>
<desc>lat.=22.050409, lon.=104.668121, Alt.=120.506897m. Speed=0.360000m/h.</desc>
<speed>0.100000</speed>
</trkpt>
<trkpt lat="22.050406" lon="104.668121">
<ele>120.489319</ele>
<time>2011-04-28T05:35:29Z</time>
<desc>lat.=22.050406, lon.=104.668121, Alt.=120.489319m. Speed=0.684000m/h.</desc>
<speed>0.190000</speed>
</trkpt>
<trkpt lat="22.050402" lon="104.668121">
<ele>120.473694</ele>
<time>2011-04-28T05:35:34Z</time>
<desc>lat.=22.050402, lon.=104.668121, Alt.=120.473694m. Speed=0.000000m/h.</desc>
<speed>0.000000</speed>
</trkpt>
<trkpt lat="22.050406" lon="104.668121">
<ele>120.460022</ele>
<time>2011-04-28T05:35:39Z</time>
<desc>lat.=22.050406, lon.=104.668121, Alt.=120.460022m. Speed=0.324000m/h.</desc>
<speed>0.090000</speed>
</trkpt>
<trkpt lat="22.050409" lon="104.668121">
<ele>120.465881</ele>
<time>2011-04-28T05:35:44Z</time>
<desc>lat.=22.050409, lon.=104.668121, Alt.=120.465881m. Speed=1.008000m/h.</desc>
<speed>0.280000</speed>
</trkpt>
<trkpt lat="22.050425" lon="104.668129">
<ele>120.477600</ele>
<time>2011-04-28T05:35:49Z</time>
<desc>lat.=22.050425, lon.=104.668129, Alt.=120.477600m. Speed=0.612000m/h.</desc>
<speed>0.170000</speed>
</trkpt>
<trkpt lat="22.050434" lon="104.668137">
<ele>120.481506</ele>
<time>2011-04-28T05:35:54Z</time>
<desc>lat.=22.050434, lon.=104.668137, Alt.=120.481506m. Speed=1.152000m/h.</desc>
<speed>0.320000</speed>
</trkpt>
<trkpt lat="22.050453" lon="104.668137">
<ele>120.475647</ele>
<time>2011-04-28T05:35:59Z</time>
<desc>lat.=22.050453, lon.=104.668137, Alt.=120.475647m. Speed=1.656000m/h.</desc>
<speed>0.460000</speed>
</trkpt>
<trkpt lat="22.050463" lon="104.668152">
<ele>120.479553</ele>
<time>2011-04-28T05:36:04Z</time>
<desc>lat.=22.050463, lon.=104.668152, Alt.=120.479553m. Speed=1.008000m/h.</desc>
<speed>0.280000</speed>
</trkpt>
<trkpt lat="22.050470" lon="104.668159">
<ele>120.479553</ele>
<time>2011-04-28T05:36:09Z</time>
<desc>lat.=22.050470, lon.=104.668159, Alt.=120.479553m. Speed=0.612000m/h.</desc>
<speed>0.170000</speed>
</trkpt>
<trkpt lat="22.050467" lon="104.668167">
<ele>120.477600</ele>
<time>2011-04-28T05:36:14Z</time>
<desc>lat.=22.050467, lon.=104.668167, Alt.=120.477600m. Speed=0.432000m/h.</desc>
<speed>0.120000</speed>
</trkpt>
<trkpt lat="22.050459" lon="104.668167">
<ele>120.463928</ele>
<time>2011-04-28T05:36:19Z</time>
<desc>lat.=22.050459, lon.=104.668167, Alt.=120.463928m. Speed=0.864000m/h.</desc>
<speed>0.240000</speed>
</trkpt>
<trkpt lat="22.050465" lon="104.668175">
<ele>120.465881</ele>
<time>2011-04-28T05:36:24Z</time>
<desc>lat.=22.050465, lon.=104.668175, Alt.=120.465881m. Speed=0.792000m/h.</desc>
<speed>0.220000</speed>
</trkpt>
<trkpt lat="22.050499" lon="104.668213">
<ele>120.561584</ele>
<time>2011-04-28T05:36:29Z</time>
<desc>lat.=22.050499, lon.=104.668213, Alt.=120.561584m. Speed=1.764000m/h.</desc>
<speed>0.490000</speed>
</trkpt>
<trkpt lat="22.050526" lon="104.668266">
<ele>120.788147</ele>
<time>2011-04-28T05:36:34Z</time>
<desc>lat.=22.050526, lon.=104.668266, Alt.=120.788147m. Speed=1.908000m/h.</desc>
<speed>0.530000</speed>
</trkpt>
<trkpt lat="22.050528" lon="104.668282">
<ele>121.174866</ele>
<time>2011-04-28T05:36:39Z</time>
<desc>lat.=22.050528, lon.=104.668282, Alt.=121.174866m. Speed=1.152000m/h.</desc>
<speed>0.320000</speed>
</trkpt>
<trkpt lat="22.050528" lon="104.668282">
<ele>121.446350</ele>
<time>2011-04-28T05:36:44Z</time>
<desc>lat.=22.050528, lon.=104.668282, Alt.=121.446350m. Speed=0.864000m/h.</desc>
<speed>0.240000</speed>
</trkpt>
<trkpt lat="22.050526" lon="104.668289">
<ele>121.477600</ele>
<time>2011-04-28T05:36:49Z</time>
<desc>lat.=22.050526, lon.=104.668289, Alt.=121.477600m. Speed=0.180000m/h.</desc>
<speed>0.050000</speed>
</trkpt>
<trkpt lat="22.050528" lon="104.668289">
<ele>121.491272</ele>
<time>2011-04-28T05:36:54Z</time>
<desc>lat.=22.050528, lon.=104.668289, Alt.=121.491272m. Speed=0.612000m/h.</desc>
<speed>0.170000</speed>
</trkpt>
<trkpt lat="22.050524" lon="104.668297">
<ele>121.213928</ele>
<time>2011-04-28T05:36:59Z</time>
<desc>lat.=22.050524, lon.=104.668297, Alt.=121.213928m. Speed=0.720000m/h.</desc>
<speed>0.200000</speed>
</trkpt>
<trkpt lat="22.050497" lon="104.668282">
<ele>120.815491</ele>
<time>2011-04-28T05:37:04Z</time>
<desc>lat.=22.050497, lon.=104.668282, Alt.=120.815491m. Speed=1.584000m/h.</desc>
<speed>0.440000</speed>
</trkpt>
<trkpt lat="22.050465" lon="104.668236">
<ele>119.848694</ele>
<time>2011-04-28T05:37:09Z</time>
<desc>lat.=22.050465, lon.=104.668236, Alt.=119.848694m. Speed=1.404000m/h.</desc>
<speed>0.390000</speed>
</trkpt>
<trkpt lat="22.050453" lon="104.668205">
<ele>119.649475</ele>
<time>2011-04-28T05:37:14Z</time>
<desc>lat.=22.050453, lon.=104.668205, Alt.=119.649475m. Speed=0.612000m/h.</desc>
<speed>0.170000</speed>
</trkpt>
<trkpt lat="22.050451" lon="104.668198">
<ele>119.631897</ele>
<time>2011-04-28T05:37:19Z</time>
<desc>lat.=22.050451, lon.=104.668198, Alt.=119.631897m. Speed=0.972000m/h.</desc>
<speed>0.270000</speed>
</trkpt>
<trkpt lat="22.050449" lon="104.668190">
<ele>119.600647</ele>
<time>2011-04-28T05:37:24Z</time>
<desc>lat.=22.050449, lon.=104.668190, Alt.=119.600647m. Speed=0.288000m/h.</desc>
<speed>0.080000</speed>
</trkpt>
<trkpt lat="22.050451" lon="104.668190">
<ele>119.575256</ele>
<time>2011-04-28T05:37:29Z</time>
<desc>lat.=22.050451, lon.=104.668190, Alt.=119.575256m. Speed=1.044000m/h.</desc>
<speed>0.290000</speed>
</trkpt>
<trkpt lat="22.050459" lon="104.668190">
<ele>119.544006</ele>
<time>2011-04-28T05:37:34Z</time>
<desc>lat.=22.050459, lon.=104.668190, Alt.=119.544006m. Speed=0.468000m/h.</desc>
<speed>0.130000</speed>
</trkpt>
<trkpt lat="22.050467" lon="104.668190">
<ele>119.508850</ele>
<time>2011-04-28T05:37:39Z</time>
<desc>lat.=22.050467, lon.=104.668190, Alt.=119.508850m. Speed=0.252000m/h.</desc>
<speed>0.070000</speed>
</trkpt>
<trkpt lat="22.050467" lon="104.668190">
<ele>119.454163</ele>
<time>2011-04-28T05:37:44Z</time>
<desc>lat.=22.050467, lon.=104.668190, Alt.=119.454163m. Speed=0.324000m/h.</desc>
<speed>0.090000</speed>
</trkpt>
<trkpt lat="22.050468" lon="104.668190">
<ele>119.417053</ele>
<time>2011-04-28T05:37:49Z</time>
<desc>lat.=22.050468, lon.=104.668190, Alt.=119.417053m. Speed=0.684000m/h.</desc>
<speed>0.190000</speed>
</trkpt>
<trkpt lat="22.050459" lon="104.668213">
<ele>119.233459</ele>
<time>2011-04-28T05:37:54Z</time>
<desc>lat.=22.050459, lon.=104.668213, Alt.=119.233459m. Speed=1.152000m/h.</desc>
<speed>0.320000</speed>
</trkpt>
<trkpt lat="22.050453" lon="104.668228">
<ele>118.684631</ele>
<time>2011-04-28T05:37:59Z</time>
<desc>lat.=22.050453, lon.=104.668228, Alt.=118.684631m. Speed=0.792000m/h.</desc>
<speed>0.220000</speed>
</trkpt>
<trkpt lat="22.050457" lon="104.668236">
<ele>118.686584</ele>
<time>2011-04-28T05:38:04Z</time>
<desc>lat.=22.050457, lon.=104.668236, Alt.=118.686584m. Speed=0.864000m/h.</desc>
<speed>0.240000</speed>
</trkpt>
<trkpt lat="22.050472" lon="104.668251">
<ele>117.635803</ele>
<time>2011-04-28T05:38:09Z</time>
<desc>lat.=22.050472, lon.=104.668251, Alt.=117.635803m. Speed=1.152000m/h.</desc>
<speed>0.320000</speed>
</trkpt>
<trkpt lat="22.050486" lon="104.668259">
<ele>117.499084</ele>
<time>2011-04-28T05:38:14Z</time>
<desc>lat.=22.050486, lon.=104.668259, Alt.=117.499084m. Speed=0.828000m/h.</desc>
<speed>0.230000</speed>
</trkpt>
<trkpt lat="22.050499" lon="104.668259">
<ele>117.200256</ele>
<time>2011-04-28T05:38:19Z</time>
<desc>lat.=22.050499, lon.=104.668259, Alt.=117.200256m. Speed=0.648000m/h.</desc>
<speed>0.180000</speed>
</trkpt>
<trkpt lat="22.050501" lon="104.668259">
<ele>117.229553</ele>
<time>2011-04-28T05:38:24Z</time>
<desc>lat.=22.050501, lon.=104.668259, Alt.=117.229553m. Speed=0.504000m/h.</desc>
<speed>0.140000</speed>
</trkpt>
<trkpt lat="22.050505" lon="104.668259">
<ele>117.247131</ele>
<time>2011-04-28T05:38:29Z</time>
<desc>lat.=22.050505, lon.=104.668259, Alt.=117.247131m. Speed=0.324000m/h.</desc>
<speed>0.090000</speed>
</trkpt>
<trkpt lat="22.050512" lon="104.668259">
<ele>117.266663</ele>
<time>2011-04-28T05:38:34Z</time>
<desc>lat.=22.050512, lon.=104.668259, Alt.=117.266663m. Speed=0.216000m/h.</desc>
<speed>0.060000</speed>
</trkpt>
<trkpt lat="22.050520" lon="104.668259">
<ele>117.286194</ele>
<time>2011-04-28T05:38:39Z</time>
<desc>lat.=22.050520, lon.=104.668259, Alt.=117.286194m. Speed=0.612000m/h.</desc>
<speed>0.170000</speed>
</trkpt>
<trkpt lat="22.050524" lon="104.668259">
<ele>117.294006</ele>
<time>2011-04-28T05:38:44Z</time>
<desc>lat.=22.050524, lon.=104.668259, Alt.=117.294006m. Speed=0.324000m/h.</desc>
<speed>0.090000</speed>
</trkpt>
<trkpt lat="22.050526" lon="104.668259">
<ele>117.303772</ele>
<time>2011-04-28T05:38:49Z</time>
<desc>lat.=22.050526, lon.=104.668259, Alt.=117.303772m. Speed=0.180000m/h.</desc>
<speed>0.050000</speed>
</trkpt>
<trkpt lat="22.050524" lon="104.668259">
<ele>117.358459</ele>
<time>2011-04-28T05:38:54Z</time>
<desc>lat.=22.050524, lon.=104.668259, Alt.=117.358459m. Speed=0.216000m/h.</desc>
<speed>0.060000</speed>
</trkpt>
<trkpt lat="22.050520" lon="104.668243">
<ele>117.877991</ele>
<time>2011-04-28T05:38:59Z</time>
<desc>lat.=22.050520, lon.=104.668243, Alt.=117.877991m. Speed=0.144000m/h.</desc>
<speed>0.040000</speed>
</trkpt>
<trkpt lat="22.050512" lon="104.668243">
<ele>118.585022</ele>
<time>2011-04-28T05:39:04Z</time>
<desc>lat.=22.050512, lon.=104.668243, Alt.=118.585022m. Speed=0.252000m/h.</desc>
<speed>0.070000</speed>
</trkpt>
<trkpt lat="22.050503" lon="104.668236">
<ele>119.083069</ele>
<time>2011-04-28T05:39:09Z</time>
<desc>lat.=22.050503, lon.=104.668236, Alt.=119.083069m. Speed=0.540000m/h.</desc>
<speed>0.150000</speed>
</trkpt>
<trkpt lat="22.050499" lon="104.668236">
<ele>119.813538</ele>
<time>2011-04-28T05:39:14Z</time>
<desc>lat.=22.050499, lon.=104.668236, Alt.=119.813538m. Speed=0.216000m/h.</desc>
<speed>0.060000</speed>
</trkpt>
<trkpt lat="22.050508" lon="104.668221">
<ele>119.764709</ele>
<time>2011-04-28T05:39:19Z</time>
<desc>lat.=22.050508, lon.=104.668221, Alt.=119.764709m. Speed=0.144000m/h.</desc>
<speed>0.040000</speed>
</trkpt>
<trkpt lat="22.050508" lon="104.668198">
<ele>119.172913</ele>
<time>2011-04-28T05:39:24Z</time>
<desc>lat.=22.050508, lon.=104.668198, Alt.=119.172913m. Speed=0.072000m/h.</desc>
<speed>0.020000</speed>
</trkpt>
<trkpt lat="22.050524" lon="104.668228">
<ele>119.145569</ele>
<time>2011-04-28T05:39:29Z</time>
<desc>lat.=22.050524, lon.=104.668228, Alt.=119.145569m. Speed=0.000000m/h.</desc>
<speed>0.000000</speed>
</trkpt>
<trkpt lat="22.050522" lon="104.668236">
<ele>119.124084</ele>
<time>2011-04-28T05:39:34Z</time>
<desc>lat.=22.050522, lon.=104.668236, Alt.=119.124084m. Speed=0.000000m/h.</desc>
<speed>0.000000</speed>
</trkpt>
<trkpt lat="22.050512" lon="104.668228">
<ele>119.305725</ele>
<time>2011-04-28T05:39:39Z</time>
<desc>lat.=22.050512, lon.=104.668228, Alt.=119.305725m. Speed=0.036000m/h.</desc>
<speed>0.010000</speed>
</trkpt>
<trkpt lat="22.050508" lon="104.668228">
<ele>119.415100</ele>
<time>2011-04-28T05:39:44Z</time>
<desc>lat.=22.050508, lon.=104.668228, Alt.=119.415100m. Speed=0.036000m/h.</desc>
<speed>0.010000</speed>
</trkpt>
<trkpt lat="22.050508" lon="104.668228">
<ele>119.420959</ele>
<time>2011-04-28T05:39:49Z</time>
<desc>lat.=22.050508, lon.=104.668228, Alt.=119.420959m. Speed=0.036000m/h.</desc>
<speed>0.010000</speed>
</trkpt>
<trkpt lat="22.050508" lon="104.668228">
<ele>119.442444</ele>
<time>2011-04-28T05:39:54Z</time>
<desc>lat.=22.050508, lon.=104.668228, Alt.=119.442444m. Speed=0.000000m/h.</desc>
<speed>0.000000</speed>
</trkpt>
<trkpt lat="22.050508" lon="104.668228">
<ele>119.460022</ele>
<time>2011-04-28T05:39:59Z</time>
<desc>lat.=22.050508, lon.=104.668228, Alt.=119.460022m. Speed=0.000000m/h.</desc>
<speed>0.000000</speed>
</trkpt>
<trkpt lat="22.050508" lon="104.668228">
<ele>119.454163</ele>
<time>2011-04-28T05:40:04Z</time>
<desc>lat.=22.050508, lon.=104.668228, Alt.=119.454163m. Speed=0.144000m/h.</desc>
<speed>0.040000</speed>
</trkpt>
<trkpt lat="22.050507" lon="104.668228">
<ele>119.419006</ele>
<time>2011-04-28T05:40:09Z</time>
<desc>lat.=22.050507, lon.=104.668228, Alt.=119.419006m. Speed=0.072000m/h.</desc>
<speed>0.020000</speed>
</trkpt>
<trkpt lat="22.050508" lon="104.668221">
<ele>119.430725</ele>
<time>2011-04-28T05:40:14Z</time>
<desc>lat.=22.050508, lon.=104.668221, Alt.=119.430725m. Speed=0.072000m/h.</desc>
<speed>0.020000</speed>
</trkpt>
<trkpt lat="22.050508" lon="104.668221">
<ele>119.506897</ele>
<time>2011-04-28T05:40:19Z</time>
<desc>lat.=22.050508, lon.=104.668221, Alt.=119.506897m. Speed=0.036000m/h.</desc>
<speed>0.010000</speed>
</trkpt>
<trkpt lat="22.050510" lon="104.668221">
<ele>119.528381</ele>
<time>2011-04-28T05:40:24Z</time>
<desc>lat.=22.050510, lon.=104.668221, Alt.=119.528381m. Speed=0.000000m/h.</desc>
<speed>0.000000</speed>
</trkpt>
<trkpt lat="22.050508" lon="104.668221">
<ele>119.532288</ele>
<time>2011-04-28T05:40:29Z</time>
<desc>lat.=22.050508, lon.=104.668221, Alt.=119.532288m. Speed=0.036000m/h.</desc>
<speed>0.010000</speed>
</trkpt>
<trkpt lat="22.050508" lon="104.668221">
<ele>119.520569</ele>
<time>2011-04-28T05:40:34Z</time>
<desc>lat.=22.050508, lon.=104.668221, Alt.=119.520569m. Speed=0.000000m/h.</desc>
<speed>0.000000</speed>
</trkpt>
<trkpt lat="22.050508" lon="104.668221">
<ele>119.485413</ele>
<time>2011-04-28T05:40:39Z</time>
<desc>lat.=22.050508, lon.=104.668221, Alt.=119.485413m. Speed=0.072000m/h.</desc>
<speed>0.020000</speed>
</trkpt>
<trkpt lat="22.050508" lon="104.668221">
<ele>119.446350</ele>
<time>2011-04-28T05:40:44Z</time>
<desc>lat.=22.050508, lon.=104.668221, Alt.=119.446350m. Speed=0.036000m/h.</desc>
<speed>0.010000</speed>
</trkpt>
<trkpt lat="22.050508" lon="104.668221">
<ele>119.434631</ele>
<time>2011-04-28T05:40:49Z</time>
<desc>lat.=22.050508, lon.=104.668221, Alt.=119.434631m. Speed=0.036000m/h.</desc>
<speed>0.010000</speed>
</trkpt>
<trkpt lat="22.050510" lon="104.668221">
<ele>119.405334</ele>
<time>2011-04-28T05:40:54Z</time>
<desc>lat.=22.050510, lon.=104.668221, Alt.=119.405334m. Speed=0.216000m/h.</desc>
<speed>0.060000</speed>
</trkpt>
<trkpt lat="22.050512" lon="104.668221">
<ele>119.518616</ele>
<time>2011-04-28T05:40:59Z</time>
<desc>lat.=22.050512, lon.=104.668221, Alt.=119.518616m. Speed=0.396000m/h.</desc>
<speed>0.110000</speed>
</trkpt>
<trkpt lat="22.050520" lon="104.668213">
<ele>119.788147</ele>
<time>2011-04-28T05:41:04Z</time>
<desc>lat.=22.050520, lon.=104.668213, Alt.=119.788147m. Speed=0.576000m/h.</desc>
<speed>0.160000</speed>
</trkpt>
<trkpt lat="22.050529" lon="104.668213">
<ele>120.141663</ele>
<time>2011-04-28T05:41:09Z</time>
<desc>lat.=22.050529, lon.=104.668213, Alt.=120.141663m. Speed=0.792000m/h.</desc>
<speed>0.220000</speed>
</trkpt>
<trkpt lat="22.050541" lon="104.668213">
<ele>120.497131</ele>
<time>2011-04-28T05:41:14Z</time>
<desc>lat.=22.050541, lon.=104.668213, Alt.=120.497131m. Speed=0.900000m/h.</desc>
<speed>0.250000</speed>
</trkpt>
<trkpt lat="22.050550" lon="104.668213">
<ele>120.799866</ele>
<time>2011-04-28T05:41:19Z</time>
<desc>lat.=22.050550, lon.=104.668213, Alt.=120.799866m. Speed=0.972000m/h.</desc>
<speed>0.270000</speed>
</trkpt>
<trkpt lat="22.050562" lon="104.668205">
<ele>121.059631</ele>
<time>2011-04-28T05:41:24Z</time>
<desc>lat.=22.050562, lon.=104.668205, Alt.=121.059631m. Speed=0.792000m/h.</desc>
<speed>0.220000</speed>
</trkpt>
<trkpt lat="22.050570" lon="104.668205">
<ele>121.258850</ele>
<time>2011-04-28T05:41:29Z</time>
<desc>lat.=22.050570, lon.=104.668205, Alt.=121.258850m. Speed=0.432000m/h.</desc>
<speed>0.120000</speed>
</trkpt>
<trkpt lat="22.050571" lon="104.668205">
<ele>121.393616</ele>
<time>2011-04-28T05:41:34Z</time>
<desc>lat.=22.050571, lon.=104.668205, Alt.=121.393616m. Speed=0.180000m/h.</desc>
<speed>0.050000</speed>
</trkpt>
<trkpt lat="22.050570" lon="104.668198">
<ele>121.510803</ele>
<time>2011-04-28T05:41:39Z</time>
<desc>lat.=22.050570, lon.=104.668198, Alt.=121.510803m. Speed=0.576000m/h.</desc>
<speed>0.160000</speed>
</trkpt>
<trkpt lat="22.050560" lon="104.668190">
<ele>121.629944</ele>
<time>2011-04-28T05:41:44Z</time>
<desc>lat.=22.050560, lon.=104.668190, Alt.=121.629944m. Speed=0.684000m/h.</desc>
<speed>0.190000</speed>
</trkpt>
<trkpt lat="22.050550" lon="104.668190">
<ele>121.733459</ele>
<time>2011-04-28T05:41:49Z</time>
<desc>lat.=22.050550, lon.=104.668190, Alt.=121.733459m. Speed=0.828000m/h.</desc>
<speed>0.230000</speed>
</trkpt>
<trkpt lat="22.050545" lon="104.668190">
<ele>121.881897</ele>
<time>2011-04-28T05:41:54Z</time>
<desc>lat.=22.050545, lon.=104.668190, Alt.=121.881897m. Speed=0.108000m/h.</desc>
<speed>0.030000</speed>
</trkpt>
<trkpt lat="22.050552" lon="104.668190">
<ele>122.055725</ele>
<time>2011-04-28T05:41:59Z</time>
<desc>lat.=22.050552, lon.=104.668190, Alt.=122.055725m. Speed=0.828000m/h.</desc>
<speed>0.230000</speed>
</trkpt>
<trkpt lat="22.050562" lon="104.668190">
<ele>122.180725</ele>
<time>2011-04-28T05:42:04Z</time>
<desc>lat.=22.050562, lon.=104.668190, Alt.=122.180725m. Speed=0.720000m/h.</desc>
<speed>0.200000</speed>
</trkpt>
<trkpt lat="22.050570" lon="104.668182">
<ele>122.276428</ele>
<time>2011-04-28T05:42:09Z</time>
<desc>lat.=22.050570, lon.=104.668182, Alt.=122.276428m. Speed=0.432000m/h.</desc>
<speed>0.120000</speed>
</trkpt>
<trkpt lat="22.050571" lon="104.668182">
<ele>122.376038</ele>
<time>2011-04-28T05:42:14Z</time>
<desc>lat.=22.050571, lon.=104.668182, Alt.=122.376038m. Speed=0.000000m/h.</desc>
<speed>0.000000</speed>
</trkpt>
<trkpt lat="22.050571" lon="104.668182">
<ele>122.473694</ele>
<time>2011-04-28T05:42:19Z</time>
<desc>lat.=22.050571, lon.=104.668182, Alt.=122.473694m. Speed=0.036000m/h.</desc>
<speed>0.010000</speed>
</trkpt>
<trkpt lat="22.050570" lon="104.668182">
<ele>122.549866</ele>
<time>2011-04-28T05:42:24Z</time>
<desc>lat.=22.050570, lon.=104.668182, Alt.=122.549866m. Speed=0.324000m/h.</desc>
<speed>0.090000</speed>
</trkpt>
<trkpt lat="22.050566" lon="104.668182">
<ele>122.627991</ele>
<time>2011-04-28T05:42:29Z</time>
<desc>lat.=22.050566, lon.=104.668182, Alt.=122.627991m. Speed=0.252000m/h.</desc>
<speed>0.070000</speed>
</trkpt>
<trkpt lat="22.050560" lon="104.668182">
<ele>122.715881</ele>
<time>2011-04-28T05:42:34Z</time>
<desc>lat.=22.050560, lon.=104.668182, Alt.=122.715881m. Speed=0.432000m/h.</desc>
<speed>0.120000</speed>
</trkpt>
<trkpt lat="22.050550" lon="104.668182">
<ele>122.778381</ele>
<time>2011-04-28T05:42:39Z</time>
<desc>lat.=22.050550, lon.=104.668182, Alt.=122.778381m. Speed=0.720000m/h.</desc>
<speed>0.200000</speed>
</trkpt>
<trkpt lat="22.050543" lon="104.668190">
<ele>122.778381</ele>
<time>2011-04-28T05:42:44Z</time>
<desc>lat.=22.050543, lon.=104.668190, Alt.=122.778381m. Speed=0.612000m/h.</desc>
<speed>0.170000</speed>
</trkpt>
<trkpt lat="22.050537" lon="104.668190">
<ele>122.639709</ele>
<time>2011-04-28T05:42:49Z</time>
<desc>lat.=22.050537, lon.=104.668190, Alt.=122.639709m. Speed=0.432000m/h.</desc>
<speed>0.120000</speed>
</trkpt>
<trkpt lat="22.050533" lon="104.668190">
<ele>122.372131</ele>
<time>2011-04-28T05:42:54Z</time>
<desc>lat.=22.050533, lon.=104.668190, Alt.=122.372131m. Speed=0.432000m/h.</desc>
<speed>0.120000</speed>
</trkpt>
<trkpt lat="22.050524" lon="104.668190">
<ele>122.012756</ele>
<time>2011-04-28T05:42:59Z</time>
<desc>lat.=22.050524, lon.=104.668190, Alt.=122.012756m. Speed=0.864000m/h.</desc>
<speed>0.240000</speed>
</trkpt>
<trkpt lat="22.050503" lon="104.668198">
<ele>121.272522</ele>
<time>2011-04-28T05:43:04Z</time>
<desc>lat.=22.050503, lon.=104.668198, Alt.=121.272522m. Speed=1.044000m/h.</desc>
<speed>0.290000</speed>
</trkpt>
<trkpt lat="22.050486" lon="104.668198">
<ele>120.245178</ele>
<time>2011-04-28T05:43:09Z</time>
<desc>lat.=22.050486, lon.=104.668198, Alt.=120.245178m. Speed=0.828000m/h.</desc>
<speed>0.230000</speed>
</trkpt>
<trkpt lat="22.050478" lon="104.668205">
<ele>119.680725</ele>
<time>2011-04-28T05:43:14Z</time>
<desc>lat.=22.050478, lon.=104.668205, Alt.=119.680725m. Speed=0.504000m/h.</desc>
<speed>0.140000</speed>
</trkpt>
<trkpt lat="22.050476" lon="104.668205">
<ele>119.010803</ele>
<time>2011-04-28T05:43:19Z</time>
<desc>lat.=22.050476, lon.=104.668205, Alt.=119.010803m. Speed=0.360000m/h.</desc>
<speed>0.100000</speed>
</trkpt>
<trkpt lat="22.050472" lon="104.668205">
<ele>118.200256</ele>
<time>2011-04-28T05:43:24Z</time>
<desc>lat.=22.050472, lon.=104.668205, Alt.=118.200256m. Speed=0.036000m/h.</desc>
<speed>0.010000</speed>
</trkpt>
<trkpt lat="22.050472" lon="104.668205">
<ele>117.381897</ele>
<time>2011-04-28T05:43:29Z</time>
<desc>lat.=22.050472, lon.=104.668205, Alt.=117.381897m. Speed=0.108000m/h.</desc>
<speed>0.030000</speed>
</trkpt>
<trkpt lat="22.050470" lon="104.668205">
<ele>116.555725</ele>
<time>2011-04-28T05:43:34Z</time>
<desc>lat.=22.050470, lon.=104.668205, Alt.=116.555725m. Speed=0.000000m/h.</desc>
<speed>0.000000</speed>
</trkpt>
<trkpt lat="22.050470" lon="104.668205">
<ele>115.762756</ele>
<time>2011-04-28T05:43:39Z</time>
<desc>lat.=22.050470, lon.=104.668205, Alt.=115.762756m. Speed=0.072000m/h.</desc>
<speed>0.020000</speed>
</trkpt>
<trkpt lat="22.050470" lon="104.668205">
<ele>114.958069</ele>
<time>2011-04-28T05:43:44Z</time>
<desc>lat.=22.050470, lon.=104.668205, Alt.=114.958069m. Speed=0.072000m/h.</desc>
<speed>0.020000</speed>
</trkpt>
<trkpt lat="22.050468" lon="104.668205">
<ele>114.083069</ele>
<time>2011-04-28T05:43:49Z</time>
<desc>lat.=22.050468, lon.=104.668205, Alt.=114.083069m. Speed=0.072000m/h.</desc>
<speed>0.020000</speed>
</trkpt>
<trkpt lat="22.050467" lon="104.668198">
<ele>113.122131</ele>
<time>2011-04-28T05:43:54Z</time>
<desc>lat.=22.050467, lon.=104.668198, Alt.=113.122131m. Speed=0.144000m/h.</desc>
<speed>0.040000</speed>
</trkpt>
<trkpt lat="22.050465" lon="104.668198">
<ele>112.057678</ele>
<time>2011-04-28T05:43:59Z</time>
<desc>lat.=22.050465, lon.=104.668198, Alt.=112.057678m. Speed=0.288000m/h.</desc>
<speed>0.080000</speed>
</trkpt>
<trkpt lat="22.050461" lon="104.668198">
<ele>110.903381</ele>
<time>2011-04-28T05:44:04Z</time>
<desc>lat.=22.050461, lon.=104.668198, Alt.=110.903381m. Speed=0.288000m/h.</desc>
<speed>0.080000</speed>
</trkpt>
<trkpt lat="22.050455" lon="104.668198">
<ele>109.676819</ele>
<time>2011-04-28T05:44:09Z</time>
<desc>lat.=22.050455, lon.=104.668198, Alt.=109.676819m. Speed=0.432000m/h.</desc>
<speed>0.120000</speed>
</trkpt>
<trkpt lat="22.050449" lon="104.668198">
<ele>108.176819</ele>
<time>2011-04-28T05:44:14Z</time>
<desc>lat.=22.050449, lon.=104.668198, Alt.=108.176819m. Speed=0.216000m/h.</desc>
<speed>0.060000</speed>
</trkpt>
<trkpt lat="22.050446" lon="104.668198">
<ele>106.438538</ele>
<time>2011-04-28T05:44:19Z</time>
<desc>lat.=22.050446, lon.=104.668198, Alt.=106.438538m. Speed=0.252000m/h.</desc>
<speed>0.070000</speed>
</trkpt>
<trkpt lat="22.050442" lon="104.668198">
<ele>104.399475</ele>
<time>2011-04-28T05:44:24Z</time>
<desc>lat.=22.050442, lon.=104.668198, Alt.=104.399475m. Speed=0.108000m/h.</desc>
<speed>0.030000</speed>
</trkpt>
<trkpt lat="22.050440" lon="104.668190">
<ele>102.182678</ele>
<time>2011-04-28T05:44:29Z</time>
<desc>lat.=22.050440, lon.=104.668190, Alt.=102.182678m. Speed=0.252000m/h.</desc>
<speed>0.070000</speed>
</trkpt>
<trkpt lat="22.050442" lon="104.668190">
<ele>100.088928</ele>
<time>2011-04-28T05:44:34Z</time>
<desc>lat.=22.050442, lon.=104.668190, Alt.=100.088928m. Speed=0.216000m/h.</desc>
<speed>0.060000</speed>
</trkpt>
<trkpt lat="22.050446" lon="104.668190">
<ele>98.034241</ele>
<time>2011-04-28T05:44:39Z</time>
<desc>lat.=22.050446, lon.=104.668190, Alt.=98.034241m. Speed=0.216000m/h.</desc>
<speed>0.060000</speed>
</trkpt>
<trkpt lat="22.050446" lon="104.668182">
<ele>96.002991</ele>
<time>2011-04-28T05:44:44Z</time>
<desc>lat.=22.050446, lon.=104.668182, Alt.=96.002991m. Speed=0.072000m/h.</desc>
<speed>0.020000</speed>
</trkpt>
<trkpt lat="22.050449" lon="104.668182">
<ele>93.913147</ele>
<time>2011-04-28T05:44:49Z</time>
<desc>lat.=22.050449, lon.=104.668182, Alt.=93.913147m. Speed=0.360000m/h.</desc>
<speed>0.100000</speed>
</trkpt>
<trkpt lat="22.050457" lon="104.668182">
<ele>91.735413</ele>
<time>2011-04-28T05:44:54Z</time>
<desc>lat.=22.050457, lon.=104.668182, Alt.=91.735413m. Speed=0.540000m/h.</desc>
<speed>0.150000</speed>
</trkpt>
<trkpt lat="22.050465" lon="104.668182">
<ele>89.540100</ele>
<time>2011-04-28T05:44:59Z</time>
<desc>lat.=22.050465, lon.=104.668182, Alt.=89.540100m. Speed=0.324000m/h.</desc>
<speed>0.090000</speed>
</trkpt>
<trkpt lat="22.050468" lon="104.668175">
<ele>87.366272</ele>
<time>2011-04-28T05:45:04Z</time>
<desc>lat.=22.050468, lon.=104.668175, Alt.=87.366272m. Speed=0.108000m/h.</desc>
<speed>0.030000</speed>
</trkpt>
<trkpt lat="22.050467" lon="104.668175">
<ele>85.286194</ele>
<time>2011-04-28T05:45:09Z</time>
<desc>lat.=22.050467, lon.=104.668175, Alt.=85.286194m. Speed=0.324000m/h.</desc>
<speed>0.090000</speed>
</trkpt>
<trkpt lat="22.050461" lon="104.668175">
<ele>83.368225</ele>
<time>2011-04-28T05:45:14Z</time>
<desc>lat.=22.050461, lon.=104.668175, Alt.=83.368225m. Speed=0.504000m/h.</desc>
<speed>0.140000</speed>
</trkpt>
<trkpt lat="22.050453" lon="104.668175">
<ele>81.583069</ele>
<time>2011-04-28T05:45:19Z</time>
<desc>lat.=22.050453, lon.=104.668175, Alt.=81.583069m. Speed=0.540000m/h.</desc>
<speed>0.150000</speed>
</trkpt>
<trkpt lat="22.050446" lon="104.668175">
<ele>79.879944</ele>
<time>2011-04-28T05:45:24Z</time>
<desc>lat.=22.050446, lon.=104.668175, Alt.=79.879944m. Speed=0.576000m/h.</desc>
<speed>0.160000</speed>
</trkpt>
<trkpt lat="22.050440" lon="104.668175">
<ele>78.243225</ele>
<time>2011-04-28T05:45:29Z</time>
<desc>lat.=22.050440, lon.=104.668175, Alt.=78.243225m. Speed=0.432000m/h.</desc>
<speed>0.120000</speed>
</trkpt>
<trkpt lat="22.050434" lon="104.668167">
<ele>76.674866</ele>
<time>2011-04-28T05:45:34Z</time>
<desc>lat.=22.050434, lon.=104.668167, Alt.=76.674866m. Speed=0.252000m/h.</desc>
<speed>0.070000</speed>
</trkpt>
<trkpt lat="22.050438" lon="104.668167">
<ele>75.288147</ele>
<time>2011-04-28T05:45:39Z</time>
<desc>lat.=22.050438, lon.=104.668167, Alt.=75.288147m. Speed=0.612000m/h.</desc>
<speed>0.170000</speed>
</trkpt>
<trkpt lat="22.050446" lon="104.668167">
<ele>73.999084</ele>
<time>2011-04-28T05:45:44Z</time>
<desc>lat.=22.050446, lon.=104.668167, Alt.=73.999084m. Speed=0.612000m/h.</desc>
<speed>0.170000</speed>
</trkpt>
<trkpt lat="22.050453" lon="104.668167">
<ele>72.805725</ele>
<time>2011-04-28T05:45:49Z</time>
<desc>lat.=22.050453, lon.=104.668167, Alt.=72.805725m. Speed=0.540000m/h.</desc>
<speed>0.150000</speed>
</trkpt>
<trkpt lat="22.050461" lon="104.668167">
<ele>71.669006</ele>
<time>2011-04-28T05:45:54Z</time>
<desc>lat.=22.050461, lon.=104.668167, Alt.=71.669006m. Speed=0.432000m/h.</desc>
<speed>0.120000</speed>
</trkpt>
<trkpt lat="22.050465" lon="104.668167">
<ele>70.565491</ele>
<time>2011-04-28T05:45:59Z</time>
<desc>lat.=22.050465, lon.=104.668167, Alt.=70.565491m. Speed=0.396000m/h.</desc>
<speed>0.110000</speed>
</trkpt>
<trkpt lat="22.050470" lon="104.668159">
<ele>69.481506</ele>
<time>2011-04-28T05:46:04Z</time>
<desc>lat.=22.050470, lon.=104.668159, Alt.=69.481506m. Speed=0.504000m/h.</desc>
<speed>0.140000</speed>
</trkpt>
<trkpt lat="22.050480" lon="104.668159">
<ele>68.428772</ele>
<time>2011-04-28T05:46:09Z</time>
<desc>lat.=22.050480, lon.=104.668159, Alt.=68.428772m. Speed=0.720000m/h.</desc>
<speed>0.200000</speed>
</trkpt>
<trkpt lat="22.050488" lon="104.668159">
<ele>67.452209</ele>
<time>2011-04-28T05:46:14Z</time>
<desc>lat.=22.050488, lon.=104.668159, Alt.=67.452209m. Speed=0.612000m/h.</desc>
<speed>0.170000</speed>
</trkpt>
<trkpt lat="22.050495" lon="104.668159">
<ele>66.547913</ele>
<time>2011-04-28T05:46:19Z</time>
<desc>lat.=22.050495, lon.=104.668159, Alt.=66.547913m. Speed=0.648000m/h.</desc>
<speed>0.180000</speed>
</trkpt>
<trkpt lat="22.050503" lon="104.668152">
<ele>65.768616</ele>
<time>2011-04-28T05:46:24Z</time>
<desc>lat.=22.050503, lon.=104.668152, Alt.=65.768616m. Speed=0.612000m/h.</desc>
<speed>0.170000</speed>
</trkpt>
<trkpt lat="22.050510" lon="104.668152">
<ele>65.157288</ele>
<time>2011-04-28T05:46:29Z</time>
<desc>lat.=22.050510, lon.=104.668152, Alt.=65.157288m. Speed=0.504000m/h.</desc>
<speed>0.140000</speed>
</trkpt>
<trkpt lat="22.050514" lon="104.668152">
<ele>64.667053</ele>
<time>2011-04-28T05:46:34Z</time>
<desc>lat.=22.050514, lon.=104.668152, Alt.=64.667053m. Speed=0.180000m/h.</desc>
<speed>0.050000</speed>
</trkpt>
<trkpt lat="22.050516" lon="104.668152">
<ele>64.372131</ele>
<time>2011-04-28T05:46:39Z</time>
<desc>lat.=22.050516, lon.=104.668152, Alt.=64.372131m. Speed=0.252000m/h.</desc>
<speed>0.070000</speed>
</trkpt>
<trkpt lat="22.050520" lon="104.668144">
<ele>64.346741</ele>
<time>2011-04-28T05:46:44Z</time>
<desc>lat.=22.050520, lon.=104.668144, Alt.=64.346741m. Speed=0.216000m/h.</desc>
<speed>0.060000</speed>
</trkpt>
<trkpt lat="22.050524" lon="104.668144">
<ele>64.577209</ele>
<time>2011-04-28T05:46:49Z</time>
<desc>lat.=22.050524, lon.=104.668144, Alt.=64.577209m. Speed=0.216000m/h.</desc>
<speed>0.060000</speed>
</trkpt>
<trkpt lat="22.050526" lon="104.668144">
<ele>64.946350</ele>
<time>2011-04-28T05:46:54Z</time>
<desc>lat.=22.050526, lon.=104.668144, Alt.=64.946350m. Speed=0.144000m/h.</desc>
<speed>0.040000</speed>
</trkpt>
<trkpt lat="22.050528" lon="104.668144">
<ele>65.458069</ele>
<time>2011-04-28T05:46:59Z</time>
<desc>lat.=22.050528, lon.=104.668144, Alt.=65.458069m. Speed=0.180000m/h.</desc>
<speed>0.050000</speed>
</trkpt>
<trkpt lat="22.050529" lon="104.668144">
<ele>66.112366</ele>
<time>2011-04-28T05:47:04Z</time>
<desc>lat.=22.050529, lon.=104.668144, Alt.=66.112366m. Speed=0.252000m/h.</desc>
<speed>0.070000</speed>
</trkpt>
<trkpt lat="22.050533" lon="104.668152">
<ele>66.772522</ele>
<time>2011-04-28T05:47:09Z</time>
<desc>lat.=22.050533, lon.=104.668152, Alt.=66.772522m. Speed=0.252000m/h.</desc>
<speed>0.070000</speed>
</trkpt>
<trkpt lat="22.050535" lon="104.668152">
<ele>67.446350</ele>
<time>2011-04-28T05:47:14Z</time>
<desc>lat.=22.050535, lon.=104.668152, Alt.=67.446350m. Speed=0.252000m/h.</desc>
<speed>0.070000</speed>
</trkpt>
<trkpt lat="22.050535" lon="104.668152">
<ele>68.127991</ele>
<time>2011-04-28T05:47:19Z</time>
<desc>lat.=22.050535, lon.=104.668152, Alt.=68.127991m. Speed=0.360000m/h.</desc>
<speed>0.100000</speed>
</trkpt>
<trkpt lat="22.050537" lon="104.668152">
<ele>68.825256</ele>
<time>2011-04-28T05:47:24Z</time>
<desc>lat.=22.050537, lon.=104.668152, Alt.=68.825256m. Speed=0.360000m/h.</desc>
<speed>0.100000</speed>
</trkpt>
<trkpt lat="22.050541" lon="104.668152">
<ele>69.536194</ele>
<time>2011-04-28T05:47:29Z</time>
<desc>lat.=22.050541, lon.=104.668152, Alt.=69.536194m. Speed=0.576000m/h.</desc>
<speed>0.160000</speed>
</trkpt>
<trkpt lat="22.050547" lon="104.668144">
<ele>70.251038</ele>
<time>2011-04-28T05:47:34Z</time>
<desc>lat.=22.050547, lon.=104.668144, Alt.=70.251038m. Speed=0.648000m/h.</desc>
<speed>0.180000</speed>
</trkpt>
<trkpt lat="22.050554" lon="104.668144">
<ele>70.975647</ele>
<time>2011-04-28T05:47:39Z</time>
<desc>lat.=22.050554, lon.=104.668144, Alt.=70.975647m. Speed=0.684000m/h.</desc>
<speed>0.190000</speed>
</trkpt>
<trkpt lat="22.050562" lon="104.668144">
<ele>71.713928</ele>
<time>2011-04-28T05:47:44Z</time>
<desc>lat.=22.050562, lon.=104.668144, Alt.=71.713928m. Speed=0.576000m/h.</desc>
<speed>0.160000</speed>
</trkpt>
<trkpt lat="22.050566" lon="104.668137">
<ele>72.471741</ele>
<time>2011-04-28T05:47:49Z</time>
<desc>lat.=22.050566, lon.=104.668137, Alt.=72.471741m. Speed=0.180000m/h.</desc>
<speed>0.050000</speed>
</trkpt>
<trkpt lat="22.050568" lon="104.668137">
<ele>73.241272</ele>
<time>2011-04-28T05:47:54Z</time>
<desc>lat.=22.050568, lon.=104.668137, Alt.=73.241272m. Speed=0.144000m/h.</desc>
<speed>0.040000</speed>
</trkpt>
<trkpt lat="22.050571" lon="104.668137">
<ele>74.022522</ele>
<time>2011-04-28T05:47:59Z</time>
<desc>lat.=22.050571, lon.=104.668137, Alt.=74.022522m. Speed=0.216000m/h.</desc>
<speed>0.060000</speed>
</trkpt>
<trkpt lat="22.050573" lon="104.668137">
<ele>74.835022</ele>
<time>2011-04-28T05:48:04Z</time>
<desc>lat.=22.050573, lon.=104.668137, Alt.=74.835022m. Speed=0.216000m/h.</desc>
<speed>0.060000</speed>
</trkpt>
<trkpt lat="22.050573" lon="104.668137">
<ele>75.657288</ele>
<time>2011-04-28T05:48:09Z</time>
<desc>lat.=22.050573, lon.=104.668137, Alt.=75.657288m. Speed=0.036000m/h.</desc>
<speed>0.010000</speed>
</trkpt>
<trkpt lat="22.050571" lon="104.668129">
<ele>76.485413</ele>
<time>2011-04-28T05:48:14Z</time>
<desc>lat.=22.050571, lon.=104.668129, Alt.=76.485413m. Speed=0.216000m/h.</desc>
<speed>0.060000</speed>
</trkpt>
<trkpt lat="22.050568" lon="104.668129">
<ele>77.319397</ele>
<time>2011-04-28T05:48:19Z</time>
<desc>lat.=22.050568, lon.=104.668129, Alt.=77.319397m. Speed=0.396000m/h.</desc>
<speed>0.110000</speed>
</trkpt>
<trkpt lat="22.050560" lon="104.668129">
<ele>78.157288</ele>
<time>2011-04-28T05:48:24Z</time>
<desc>lat.=22.050560, lon.=104.668129, Alt.=78.157288m. Speed=0.576000m/h.</desc>
<speed>0.160000</speed>
</trkpt>
<trkpt lat="22.050552" lon="104.668129">
<ele>78.999084</ele>
<time>2011-04-28T05:48:29Z</time>
<desc>lat.=22.050552, lon.=104.668129, Alt.=78.999084m. Speed=0.612000m/h.</desc>
<speed>0.170000</speed>
</trkpt>
<trkpt lat="22.050545" lon="104.668129">
<ele>79.848694</ele>
<time>2011-04-28T05:48:34Z</time>
<desc>lat.=22.050545, lon.=104.668129, Alt.=79.848694m. Speed=0.684000m/h.</desc>
<speed>0.190000</speed>
</trkpt>
<trkpt lat="22.050535" lon="104.668129">
<ele>80.713928</ele>
<time>2011-04-28T05:48:39Z</time>
<desc>lat.=22.050535, lon.=104.668129, Alt.=80.713928m. Speed=0.756000m/h.</desc>
<speed>0.210000</speed>
</trkpt>
<trkpt lat="22.050524" lon="104.668129">
<ele>81.594788</ele>
<time>2011-04-28T05:48:44Z</time>
<desc>lat.=22.050524, lon.=104.668129, Alt.=81.594788m. Speed=0.828000m/h.</desc>
<speed>0.230000</speed>
</trkpt>
<trkpt lat="22.050514" lon="104.668129">
<ele>82.299866</ele>
<time>2011-04-28T05:48:49Z</time>
<desc>lat.=22.050514, lon.=104.668129, Alt.=82.299866m. Speed=0.684000m/h.</desc>
<speed>0.190000</speed>
</trkpt>
<trkpt lat="22.050508" lon="104.668129">
<ele>82.989319</ele>
<time>2011-04-28T05:48:54Z</time>
<desc>lat.=22.050508, lon.=104.668129, Alt.=82.989319m. Speed=0.108000m/h.</desc>
<speed>0.030000</speed>
</trkpt>
<trkpt lat="22.050510" lon="104.668129">
<ele>83.672913</ele>
<time>2011-04-28T05:48:59Z</time>
<desc>lat.=22.050510, lon.=104.668129, Alt.=83.672913m. Speed=0.036000m/h.</desc>
<speed>0.010000</speed>
</trkpt>
<trkpt lat="22.050508" lon="104.668129">
<ele>84.379944</ele>
<time>2011-04-28T05:49:04Z</time>
<desc>lat.=22.050508, lon.=104.668129, Alt.=84.379944m. Speed=0.180000m/h.</desc>
<speed>0.050000</speed>
</trkpt>
<trkpt lat="22.050505" lon="104.668121">
<ele>85.100647</ele>
<time>2011-04-28T05:49:09Z</time>
<desc>lat.=22.050505, lon.=104.668121, Alt.=85.100647m. Speed=0.216000m/h.</desc>
<speed>0.060000</speed>
</trkpt>
<trkpt lat="22.050503" lon="104.668121">
<ele>85.825256</ele>
<time>2011-04-28T05:49:14Z</time>
<desc>lat.=22.050503, lon.=104.668121, Alt.=85.825256m. Speed=0.216000m/h.</desc>
<speed>0.060000</speed>
</trkpt>
<trkpt lat="22.050503" lon="104.668121">
<ele>86.555725</ele>
<time>2011-04-28T05:49:19Z</time>
<desc>lat.=22.050503, lon.=104.668121, Alt.=86.555725m. Speed=0.180000m/h.</desc>
<speed>0.050000</speed>
</trkpt>
<trkpt lat="22.050507" lon="104.668121">
<ele>87.292053</ele>
<time>2011-04-28T05:49:24Z</time>
<desc>lat.=22.050507, lon.=104.668121, Alt.=87.292053m. Speed=0.252000m/h.</desc>
<speed>0.070000</speed>
</trkpt>
<trkpt lat="22.050510" lon="104.668121">
<ele>88.012756</ele>
<time>2011-04-28T05:49:29Z</time>
<desc>lat.=22.050510, lon.=104.668121, Alt.=88.012756m. Speed=0.216000m/h.</desc>
<speed>0.060000</speed>
</trkpt>
<trkpt lat="22.050510" lon="104.668121">
<ele>88.598694</ele>
<time>2011-04-28T05:49:34Z</time>
<desc>lat.=22.050510, lon.=104.668121, Alt.=88.598694m. Speed=0.144000m/h.</desc>
<speed>0.040000</speed>
</trkpt>
<trkpt lat="22.050507" lon="104.668121">
<ele>89.030334</ele>
<time>2011-04-28T05:49:39Z</time>
<desc>lat.=22.050507, lon.=104.668121, Alt.=89.030334m. Speed=0.360000m/h.</desc>
<speed>0.100000</speed>
</trkpt>
<trkpt lat="22.050501" lon="104.668114">
<ele>89.501038</ele>
<time>2011-04-28T05:49:44Z</time>
<desc>lat.=22.050501, lon.=104.668114, Alt.=89.501038m. Speed=0.432000m/h.</desc>
<speed>0.120000</speed>
</trkpt>
<trkpt lat="22.050495" lon="104.668114">
<ele>89.985413</ele>
<time>2011-04-28T05:49:49Z</time>
<desc>lat.=22.050495, lon.=104.668114, Alt.=89.985413m. Speed=0.432000m/h.</desc>
<speed>0.120000</speed>
</trkpt>
<trkpt lat="22.050491" lon="104.668114">
<ele>90.473694</ele>
<time>2011-04-28T05:49:54Z</time>
<desc>lat.=22.050491, lon.=104.668114, Alt.=90.473694m. Speed=0.432000m/h.</desc>
<speed>0.120000</speed>
</trkpt>
<trkpt lat="22.050488" lon="104.668106">
<ele>90.961975</ele>
<time>2011-04-28T05:49:59Z</time>
<desc>lat.=22.050488, lon.=104.668106, Alt.=90.961975m. Speed=0.432000m/h.</desc>
<speed>0.120000</speed>
</trkpt>
<trkpt lat="22.050486" lon="104.668098">
<ele>91.450256</ele>
<time>2011-04-28T05:50:04Z</time>
<desc>lat.=22.050486, lon.=104.668098, Alt.=91.450256m. Speed=0.360000m/h.</desc>
<speed>0.100000</speed>
</trkpt>
<trkpt lat="22.050486" lon="104.668098">
<ele>91.915100</ele>
<time>2011-04-28T05:50:09Z</time>
<desc>lat.=22.050486, lon.=104.668098, Alt.=91.915100m. Speed=0.432000m/h.</desc>
<speed>0.120000</speed>
</trkpt>
<trkpt lat="22.050482" lon="104.668091">
<ele>92.376038</ele>
<time>2011-04-28T05:50:14Z</time>
<desc>lat.=22.050482, lon.=104.668091, Alt.=92.376038m. Speed=0.468000m/h.</desc>
<speed>0.130000</speed>
</trkpt>
<trkpt lat="22.050480" lon="104.668083">
<ele>92.842834</ele>
<time>2011-04-28T05:50:19Z</time>
<desc>lat.=22.050480, lon.=104.668083, Alt.=92.842834m. Speed=0.468000m/h.</desc>
<speed>0.130000</speed>
</trkpt>
<trkpt lat="22.050480" lon="104.668076">
<ele>93.303772</ele>
<time>2011-04-28T05:50:24Z</time>
<desc>lat.=22.050480, lon.=104.668076, Alt.=93.303772m. Speed=0.360000m/h.</desc>
<speed>0.100000</speed>
</trkpt>
<trkpt lat="22.050480" lon="104.668068">
<ele>93.752991</ele>
<time>2011-04-28T05:50:29Z</time>
<desc>lat.=22.050480, lon.=104.668068, Alt.=93.752991m. Speed=0.504000m/h.</desc>
<speed>0.140000</speed>
</trkpt>
<trkpt lat="22.050480" lon="104.668060">
<ele>94.206116</ele>
<time>2011-04-28T05:50:34Z</time>
<desc>lat.=22.050480, lon.=104.668060, Alt.=94.206116m. Speed=0.252000m/h.</desc>
<speed>0.070000</speed>
</trkpt>
<trkpt lat="22.050484" lon="104.668060">
<ele>94.661194</ele>
<time>2011-04-28T05:50:39Z</time>
<desc>lat.=22.050484, lon.=104.668060, Alt.=94.661194m. Speed=0.504000m/h.</desc>
<speed>0.140000</speed>
</trkpt>
<trkpt lat="22.050489" lon="104.668053">
<ele>95.120178</ele>
<time>2011-04-28T05:50:44Z</time>
<desc>lat.=22.050489, lon.=104.668053, Alt.=95.120178m. Speed=0.468000m/h.</desc>
<speed>0.130000</speed>
</trkpt>
<trkpt lat="22.050495" lon="104.668053">
<ele>95.586975</ele>
<time>2011-04-28T05:50:49Z</time>
<desc>lat.=22.050495, lon.=104.668053, Alt.=95.586975m. Speed=0.324000m/h.</desc>
<speed>0.090000</speed>
</trkpt>
<trkpt lat="22.050499" lon="104.668053">
<ele>96.044006</ele>
<time>2011-04-28T05:50:54Z</time>
<desc>lat.=22.050499, lon.=104.668053, Alt.=96.044006m. Speed=0.180000m/h.</desc>
<speed>0.050000</speed>
</trkpt>
<trkpt lat="22.050497" lon="104.668053">
<ele>96.497131</ele>
<time>2011-04-28T05:50:59Z</time>
<desc>lat.=22.050497, lon.=104.668053, Alt.=96.497131m. Speed=0.216000m/h.</desc>
<speed>0.060000</speed>
</trkpt>
<trkpt lat="22.050495" lon="104.668045">
<ele>96.948303</ele>
<time>2011-04-28T05:51:04Z</time>
<desc>lat.=22.050495, lon.=104.668045, Alt.=96.948303m. Speed=0.288000m/h.</desc>
<speed>0.080000</speed>
</trkpt>
<trkpt lat="22.050493" lon="104.668045">
<ele>97.374084</ele>
<time>2011-04-28T05:51:09Z</time>
<desc>lat.=22.050493, lon.=104.668045, Alt.=97.374084m. Speed=0.072000m/h.</desc>
<speed>0.020000</speed>
</trkpt>
<trkpt lat="22.050493" lon="104.668045">
<ele>97.790100</ele>
<time>2011-04-28T05:51:14Z</time>
<desc>lat.=22.050493, lon.=104.668045, Alt.=97.790100m. Speed=0.108000m/h.</desc>
<speed>0.030000</speed>
</trkpt>
<trkpt lat="22.050491" lon="104.668045">
<ele>98.217834</ele>
<time>2011-04-28T05:51:19Z</time>
<desc>lat.=22.050491, lon.=104.668045, Alt.=98.217834m. Speed=0.036000m/h.</desc>
<speed>0.010000</speed>
</trkpt>
<trkpt lat="22.050491" lon="104.668037">
<ele>98.659241</ele>
<time>2011-04-28T05:51:24Z</time>
<desc>lat.=22.050491, lon.=104.668037, Alt.=98.659241m. Speed=0.108000m/h.</desc>
<speed>0.030000</speed>
</trkpt>
<trkpt lat="22.050491" lon="104.668037">
<ele>99.106506</ele>
<time>2011-04-28T05:51:29Z</time>
<desc>lat.=22.050491, lon.=104.668037, Alt.=99.106506m. Speed=0.180000m/h.</desc>
<speed>0.050000</speed>
</trkpt>
<trkpt lat="22.050493" lon="104.668037">
<ele>99.553772</ele>
<time>2011-04-28T05:51:34Z</time>
<desc>lat.=22.050493, lon.=104.668037, Alt.=99.553772m. Speed=0.216000m/h.</desc>
<speed>0.060000</speed>
</trkpt>
<trkpt lat="22.050495" lon="104.668030">
<ele>100.024475</ele>
<time>2011-04-28T05:51:39Z</time>
<desc>lat.=22.050495, lon.=104.668030, Alt.=100.024475m. Speed=0.144000m/h.</desc>
<speed>0.040000</speed>
</trkpt>
<trkpt lat="22.050495" lon="104.668030">
<ele>100.444397</ele>
<time>2011-04-28T05:51:44Z</time>
<desc>lat.=22.050495, lon.=104.668030, Alt.=100.444397m. Speed=0.000000m/h.</desc>
<speed>0.000000</speed>
</trkpt>
<trkpt lat="22.050495" lon="104.668030">
<ele>100.827209</ele>
<time>2011-04-28T05:51:49Z</time>
<desc>lat.=22.050495, lon.=104.668030, Alt.=100.827209m. Speed=0.036000m/h.</desc>
<speed>0.010000</speed>
</trkpt>
<trkpt lat="22.050495" lon="104.668030">
<ele>101.170959</ele>
<time>2011-04-28T05:51:54Z</time>
<desc>lat.=22.050495, lon.=104.668030, Alt.=101.170959m. Speed=0.072000m/h.</desc>
<speed>0.020000</speed>
</trkpt>
<trkpt lat="22.050495" lon="104.668030">
<ele>101.499084</ele>
<time>2011-04-28T05:51:59Z</time>
<desc>lat.=22.050495, lon.=104.668030, Alt.=101.499084m. Speed=0.072000m/h.</desc>
<speed>0.020000</speed>
</trkpt>
<trkpt lat="22.050493" lon="104.668030">
<ele>101.784241</ele>
<time>2011-04-28T05:52:04Z</time>
<desc>lat.=22.050493, lon.=104.668030, Alt.=101.784241m. Speed=0.252000m/h.</desc>
<speed>0.070000</speed>
</trkpt>
<trkpt lat="22.050489" lon="104.668022">
<ele>102.057678</ele>
<time>2011-04-28T05:52:09Z</time>
<desc>lat.=22.050489, lon.=104.668022, Alt.=102.057678m. Speed=0.432000m/h.</desc>
<speed>0.120000</speed>
</trkpt>
<trkpt lat="22.050486" lon="104.668022">
<ele>102.264709</ele>
<time>2011-04-28T05:52:14Z</time>
<desc>lat.=22.050486, lon.=104.668022, Alt.=102.264709m. Speed=0.468000m/h.</desc>
<speed>0.130000</speed>
</trkpt>
<trkpt lat="22.050482" lon="104.668015">
<ele>102.354553</ele>
<time>2011-04-28T05:52:19Z</time>
<desc>lat.=22.050482, lon.=104.668015, Alt.=102.354553m. Speed=0.288000m/h.</desc>
<speed>0.080000</speed>
</trkpt>
<trkpt lat="22.050478" lon="104.668015">
<ele>102.422913</ele>
<time>2011-04-28T05:52:24Z</time>
<desc>lat.=22.050478, lon.=104.668015, Alt.=102.422913m. Speed=0.360000m/h.</desc>
<speed>0.100000</speed>
</trkpt>
<trkpt lat="22.050474" lon="104.668015">
<ele>102.366272</ele>
<time>2011-04-28T05:52:29Z</time>
<desc>lat.=22.050474, lon.=104.668015, Alt.=102.366272m. Speed=0.000000m/h.</desc>
<speed>0.000000</speed>
</trkpt>
<trkpt lat="22.050474" lon="104.668015">
<ele>102.249084</ele>
<time>2011-04-28T05:52:34Z</time>
<desc>lat.=22.050474, lon.=104.668015, Alt.=102.249084m. Speed=0.072000m/h.</desc>
<speed>0.020000</speed>
</trkpt>
<trkpt lat="22.050472" lon="104.668015">
<ele>102.124084</ele>
<time>2011-04-28T05:52:39Z</time>
<desc>lat.=22.050472, lon.=104.668015, Alt.=102.124084m. Speed=0.144000m/h.</desc>
<speed>0.040000</speed>
</trkpt>
<trkpt lat="22.050470" lon="104.668007">
<ele>102.006897</ele>
<time>2011-04-28T05:52:44Z</time>
<desc>lat.=22.050470, lon.=104.668007, Alt.=102.006897m. Speed=0.252000m/h.</desc>
<speed>0.070000</speed>
</trkpt>
<trkpt lat="22.050468" lon="104.668007">
<ele>101.907288</ele>
<time>2011-04-28T05:52:49Z</time>
<desc>lat.=22.050468, lon.=104.668007, Alt.=101.907288m. Speed=0.072000m/h.</desc>
<speed>0.020000</speed>
</trkpt>
<trkpt lat="22.050468" lon="104.668007">
<ele>101.817444</ele>
<time>2011-04-28T05:52:54Z</time>
<desc>lat.=22.050468, lon.=104.668007, Alt.=101.817444m. Speed=0.036000m/h.</desc>
<speed>0.010000</speed>
</trkpt>
<trkpt lat="22.050467" lon="104.668007">
<ele>101.713928</ele>
<time>2011-04-28T05:52:59Z</time>
<desc>lat.=22.050467, lon.=104.668007, Alt.=101.713928m. Speed=0.108000m/h.</desc>
<speed>0.030000</speed>
</trkpt>
<trkpt lat="22.050467" lon="104.668015">
<ele>101.551819</ele>
<time>2011-04-28T05:53:04Z</time>
<desc>lat.=22.050467, lon.=104.668015, Alt.=101.551819m. Speed=0.180000m/h.</desc>
<speed>0.050000</speed>
</trkpt>
<trkpt lat="22.050467" lon="104.668015">
<ele>101.196350</ele>
<time>2011-04-28T05:53:09Z</time>
<desc>lat.=22.050467, lon.=104.668015, Alt.=101.196350m. Speed=0.252000m/h.</desc>
<speed>0.070000</speed>
</trkpt>
<trkpt lat="22.050468" lon="104.668015">
<ele>100.754944</ele>
<time>2011-04-28T05:53:14Z</time>
<desc>lat.=22.050468, lon.=104.668015, Alt.=100.754944m. Speed=0.252000m/h.</desc>
<speed>0.070000</speed>
</trkpt>
<trkpt lat="22.050472" lon="104.668022">
<ele>100.387756</ele>
<time>2011-04-28T05:53:19Z</time>
<desc>lat.=22.050472, lon.=104.668022, Alt.=100.387756m. Speed=0.252000m/h.</desc>
<speed>0.070000</speed>
</trkpt>
<trkpt lat="22.050476" lon="104.668022">
<ele>100.081116</ele>
<time>2011-04-28T05:53:24Z</time>
<desc>lat.=22.050476, lon.=104.668022, Alt.=100.081116m. Speed=0.612000m/h.</desc>
<speed>0.170000</speed>
</trkpt>
<trkpt lat="22.050486" lon="104.668045">
<ele>99.670959</ele>
<time>2011-04-28T05:53:29Z</time>
<desc>lat.=22.050486, lon.=104.668045, Alt.=99.670959m. Speed=1.152000m/h.</desc>
<speed>0.320000</speed>
</trkpt>
<trkpt lat="22.050486" lon="104.668076">
<ele>98.756897</ele>
<time>2011-04-28T05:53:34Z</time>
<desc>lat.=22.050486, lon.=104.668076, Alt.=98.756897m. Speed=0.864000m/h.</desc>
<speed>0.240000</speed>
</trkpt>
<trkpt lat="22.050488" lon="104.668083">
<ele>98.448303</ele>
<time>2011-04-28T05:53:39Z</time>
<desc>lat.=22.050488, lon.=104.668083, Alt.=98.448303m. Speed=0.504000m/h.</desc>
<speed>0.140000</speed>
</trkpt>
<trkpt lat="22.050493" lon="104.668083">
<ele>98.126038</ele>
<time>2011-04-28T05:53:44Z</time>
<desc>lat.=22.050493, lon.=104.668083, Alt.=98.126038m. Speed=0.288000m/h.</desc>
<speed>0.080000</speed>
</trkpt>
<trkpt lat="22.050495" lon="104.668091">
<ele>97.821350</ele>
<time>2011-04-28T05:53:49Z</time>
<desc>lat.=22.050495, lon.=104.668091, Alt.=97.821350m. Speed=0.432000m/h.</desc>
<speed>0.120000</speed>
</trkpt>
<trkpt lat="22.050499" lon="104.668091">
<ele>97.540100</ele>
<time>2011-04-28T05:53:54Z</time>
<desc>lat.=22.050499, lon.=104.668091, Alt.=97.540100m. Speed=0.432000m/h.</desc>
<speed>0.120000</speed>
</trkpt>
<trkpt lat="22.050503" lon="104.668098">
<ele>97.280334</ele>
<time>2011-04-28T05:53:59Z</time>
<desc>lat.=22.050503, lon.=104.668098, Alt.=97.280334m. Speed=0.324000m/h.</desc>
<speed>0.090000</speed>
</trkpt>
<trkpt lat="22.050505" lon="104.668098">
<ele>97.051819</ele>
<time>2011-04-28T05:54:04Z</time>
<desc>lat.=22.050505, lon.=104.668098, Alt.=97.051819m. Speed=0.180000m/h.</desc>
<speed>0.050000</speed>
</trkpt>
<trkpt lat="22.050507" lon="104.668106">
<ele>96.835022</ele>
<time>2011-04-28T05:54:09Z</time>
<desc>lat.=22.050507, lon.=104.668106, Alt.=96.835022m. Speed=0.252000m/h.</desc>
<speed>0.070000</speed>
</trkpt>
<trkpt lat="22.050508" lon="104.668106">
<ele>96.626038</ele>
<time>2011-04-28T05:54:14Z</time>
<desc>lat.=22.050508, lon.=104.668106, Alt.=96.626038m. Speed=0.432000m/h.</desc>
<speed>0.120000</speed>
</trkpt>
<trkpt lat="22.050514" lon="104.668114">
<ele>96.415100</ele>
<time>2011-04-28T05:54:19Z</time>
<desc>lat.=22.050514, lon.=104.668114, Alt.=96.415100m. Speed=0.756000m/h.</desc>
<speed>0.210000</speed>
</trkpt>
<trkpt lat="22.050520" lon="104.668121">
<ele>96.202209</ele>
<time>2011-04-28T05:54:24Z</time>
<desc>lat.=22.050520, lon.=104.668121, Alt.=96.202209m. Speed=1.188000m/h.</desc>
<speed>0.330000</speed>
</trkpt>
<trkpt lat="22.050552" lon="104.668175">
<ele>97.100647</ele>
<time>2011-04-28T05:54:29Z</time>
<desc>lat.=22.050552, lon.=104.668175, Alt.=97.100647m. Speed=1.440000m/h.</desc>
<speed>0.400000</speed>
</trkpt>
<trkpt lat="22.050558" lon="104.668213">
<ele>98.129944</ele>
<time>2011-04-28T05:54:34Z</time>
<desc>lat.=22.050558, lon.=104.668213, Alt.=98.129944m. Speed=1.620000m/h.</desc>
<speed>0.450000</speed>
</trkpt>
<trkpt lat="22.050566" lon="104.668243">
<ele>99.770569</ele>
<time>2011-04-28T05:54:39Z</time>
<desc>lat.=22.050566, lon.=104.668243, Alt.=99.770569m. Speed=1.476000m/h.</desc>
<speed>0.410000</speed>
</trkpt>
<trkpt lat="22.050571" lon="104.668259">
<ele>101.001038</ele>
<time>2011-04-28T05:54:44Z</time>
<desc>lat.=22.050571, lon.=104.668259, Alt.=101.001038m. Speed=0.576000m/h.</desc>
<speed>0.160000</speed>
</trkpt>
<trkpt lat="22.050573" lon="104.668266">
<ele>101.024475</ele>
<time>2011-04-28T05:54:49Z</time>
<desc>lat.=22.050573, lon.=104.668266, Alt.=101.024475m. Speed=0.540000m/h.</desc>
<speed>0.150000</speed>
</trkpt>
<trkpt lat="22.050579" lon="104.668274">
<ele>100.842834</ele>
<time>2011-04-28T05:54:54Z</time>
<desc>lat.=22.050579, lon.=104.668274, Alt.=100.842834m. Speed=0.792000m/h.</desc>
<speed>0.220000</speed>
</trkpt>
<trkpt lat="22.050585" lon="104.668282">
<ele>100.680725</ele>
<time>2011-04-28T05:54:59Z</time>
<desc>lat.=22.050585, lon.=104.668282, Alt.=100.680725m. Speed=0.684000m/h.</desc>
<speed>0.190000</speed>
</trkpt>
<trkpt lat="22.050611" lon="104.668320">
<ele>101.977600</ele>
<time>2011-04-28T05:55:04Z</time>
<desc>lat.=22.050611, lon.=104.668320, Alt.=101.977600m. Speed=1.512000m/h.</desc>
<speed>0.420000</speed>
</trkpt>
<trkpt lat="22.050631" lon="104.668343">
<ele>104.370178</ele>
<time>2011-04-28T05:55:09Z</time>
<desc>lat.=22.050631, lon.=104.668343, Alt.=104.370178m. Speed=1.332000m/h.</desc>
<speed>0.370000</speed>
</trkpt>
<trkpt lat="22.050648" lon="104.668335">
<ele>106.075256</ele>
<time>2011-04-28T05:55:14Z</time>
<desc>lat.=22.050648, lon.=104.668335, Alt.=106.075256m. Speed=1.188000m/h.</desc>
<speed>0.330000</speed>
</trkpt>
<trkpt lat="22.050665" lon="104.668343">
<ele>108.110413</ele>
<time>2011-04-28T05:55:19Z</time>
<desc>lat.=22.050665, lon.=104.668343, Alt.=108.110413m. Speed=0.792000m/h.</desc>
<speed>0.220000</speed>
</trkpt>
<trkpt lat="22.050671" lon="104.668350">
<ele>108.254944</ele>
<time>2011-04-28T05:55:24Z</time>
<desc>lat.=22.050671, lon.=104.668350, Alt.=108.254944m. Speed=0.648000m/h.</desc>
<speed>0.180000</speed>
</trkpt>
<trkpt lat="22.050674" lon="104.668350">
<ele>108.419006</ele>
<time>2011-04-28T05:55:29Z</time>
<desc>lat.=22.050674, lon.=104.668350, Alt.=108.419006m. Speed=0.396000m/h.</desc>
<speed>0.110000</speed>
</trkpt>
<trkpt lat="22.050678" lon="104.668358">
<ele>108.594788</ele>
<time>2011-04-28T05:55:34Z</time>
<desc>lat.=22.050678, lon.=104.668358, Alt.=108.594788m. Speed=0.288000m/h.</desc>
<speed>0.080000</speed>
</trkpt>
<trkpt lat="22.050682" lon="104.668358">
<ele>108.795959</ele>
<time>2011-04-28T05:55:39Z</time>
<desc>lat.=22.050682, lon.=104.668358, Alt.=108.795959m. Speed=0.396000m/h.</desc>
<speed>0.110000</speed>
</trkpt>
<trkpt lat="22.050686" lon="104.668365">
<ele>109.026428</ele>
<time>2011-04-28T05:55:44Z</time>
<desc>lat.=22.050686, lon.=104.668365, Alt.=109.026428m. Speed=0.360000m/h.</desc>
<speed>0.100000</speed>
</trkpt>
<trkpt lat="22.050688" lon="104.668365">
<ele>109.254944</ele>
<time>2011-04-28T05:55:49Z</time>
<desc>lat.=22.050688, lon.=104.668365, Alt.=109.254944m. Speed=0.324000m/h.</desc>
<speed>0.090000</speed>
</trkpt>
<trkpt lat="22.050690" lon="104.668373">
<ele>109.504944</ele>
<time>2011-04-28T05:55:54Z</time>
<desc>lat.=22.050690, lon.=104.668373, Alt.=109.504944m. Speed=0.108000m/h.</desc>
<speed>0.030000</speed>
</trkpt>
<trkpt lat="22.050692" lon="104.668373">
<ele>109.792053</ele>
<time>2011-04-28T05:55:59Z</time>
<desc>lat.=22.050692, lon.=104.668373, Alt.=109.792053m. Speed=0.432000m/h.</desc>
<speed>0.120000</speed>
</trkpt>
<trkpt lat="22.050697" lon="104.668381">
<ele>110.114319</ele>
<time>2011-04-28T05:56:04Z</time>
<desc>lat.=22.050697, lon.=104.668381, Alt.=110.114319m. Speed=0.360000m/h.</desc>
<speed>0.100000</speed>
</trkpt>
<trkpt lat="22.050697" lon="104.668381">
<ele>110.508850</ele>
<time>2011-04-28T05:56:09Z</time>
<desc>lat.=22.050697, lon.=104.668381, Alt.=110.508850m. Speed=0.324000m/h.</desc>
<speed>0.090000</speed>
</trkpt>
<trkpt lat="22.050695" lon="104.668373">
<ele>110.952209</ele>
<time>2011-04-28T05:56:14Z</time>
<desc>lat.=22.050695, lon.=104.668373, Alt.=110.952209m. Speed=0.504000m/h.</desc>
<speed>0.140000</speed>
</trkpt>
<trkpt lat="22.050690" lon="104.668365">
<ele>111.444397</ele>
<time>2011-04-28T05:56:19Z</time>
<desc>lat.=22.050690, lon.=104.668365, Alt.=111.444397m. Speed=0.828000m/h.</desc>
<speed>0.230000</speed>
</trkpt>
<trkpt lat="22.050684" lon="104.668365">
<ele>111.926819</ele>
<time>2011-04-28T05:56:24Z</time>
<desc>lat.=22.050684, lon.=104.668365, Alt.=111.926819m. Speed=0.540000m/h.</desc>
<speed>0.150000</speed>
</trkpt>
<trkpt lat="22.050680" lon="104.668358">
<ele>112.385803</ele>
<time>2011-04-28T05:56:29Z</time>
<desc>lat.=22.050680, lon.=104.668358, Alt.=112.385803m. Speed=0.216000m/h.</desc>
<speed>0.060000</speed>
</trkpt>
<trkpt lat="22.050682" lon="104.668358">
<ele>113.002991</ele>
<time>2011-04-28T05:56:34Z</time>
<desc>lat.=22.050682, lon.=104.668358, Alt.=113.002991m. Speed=0.396000m/h.</desc>
<speed>0.110000</speed>
</trkpt>
<trkpt lat="22.050688" lon="104.668365">
<ele>113.684631</ele>
<time>2011-04-28T05:56:39Z</time>
<desc>lat.=22.050688, lon.=104.668365, Alt.=113.684631m. Speed=0.432000m/h.</desc>
<speed>0.120000</speed>
</trkpt>
<trkpt lat="22.050690" lon="104.668365">
<ele>114.354553</ele>
<time>2011-04-28T05:56:44Z</time>
<desc>lat.=22.050690, lon.=104.668365, Alt.=114.354553m. Speed=0.144000m/h.</desc>
<speed>0.040000</speed>
</trkpt>
<trkpt lat="22.050690" lon="104.668365">
<ele>115.036194</ele>
<time>2011-04-28T05:56:49Z</time>
<desc>lat.=22.050690, lon.=104.668365, Alt.=115.036194m. Speed=0.540000m/h.</desc>
<speed>0.150000</speed>
</trkpt>
<trkpt lat="22.050684" lon="104.668358">
<ele>115.731506</ele>
<time>2011-04-28T05:56:54Z</time>
<desc>lat.=22.050684, lon.=104.668358, Alt.=115.731506m. Speed=0.828000m/h.</desc>
<speed>0.230000</speed>
</trkpt>
<trkpt lat="22.050678" lon="104.668350">
<ele>116.461975</ele>
<time>2011-04-28T05:56:59Z</time>
<desc>lat.=22.050678, lon.=104.668350, Alt.=116.461975m. Speed=0.540000m/h.</desc>
<speed>0.150000</speed>
</trkpt>
<trkpt lat="22.050674" lon="104.668343">
<ele>117.243225</ele>
<time>2011-04-28T05:57:04Z</time>
<desc>lat.=22.050674, lon.=104.668343, Alt.=117.243225m. Speed=0.036000m/h.</desc>
<speed>0.010000</speed>
</trkpt>
<trkpt lat="22.050674" lon="104.668343">
<ele>118.108459</ele>
<time>2011-04-28T05:57:09Z</time>
<desc>lat.=22.050674, lon.=104.668343, Alt.=118.108459m. Speed=0.144000m/h.</desc>
<speed>0.040000</speed>
</trkpt>
<trkpt lat="22.050673" lon="104.668343">
<ele>119.034241</ele>
<time>2011-04-28T05:57:14Z</time>
<desc>lat.=22.050673, lon.=104.668343, Alt.=119.034241m. Speed=0.216000m/h.</desc>
<speed>0.060000</speed>
</trkpt>
<trkpt lat="22.050674" lon="104.668343">
<ele>119.997131</ele>
<time>2011-04-28T05:57:19Z</time>
<desc>lat.=22.050674, lon.=104.668343, Alt.=119.997131m. Speed=0.540000m/h.</desc>
<speed>0.150000</speed>
</trkpt>
<trkpt lat="22.050680" lon="104.668343">
<ele>121.071350</ele>
<time>2011-04-28T05:57:24Z</time>
<desc>lat.=22.050680, lon.=104.668343, Alt.=121.071350m. Speed=0.288000m/h.</desc>
<speed>0.080000</speed>
</trkpt>
<trkpt lat="22.050682" lon="104.668350">
<ele>122.233459</ele>
<time>2011-04-28T05:57:29Z</time>
<desc>lat.=22.050682, lon.=104.668350, Alt.=122.233459m. Speed=0.360000m/h.</desc>
<speed>0.100000</speed>
</trkpt>
<trkpt lat="22.050686" lon="104.668358">
<ele>123.544006</ele>
<time>2011-04-28T05:57:34Z</time>
<desc>lat.=22.050686, lon.=104.668358, Alt.=123.544006m. Speed=0.504000m/h.</desc>
<speed>0.140000</speed>
</trkpt>
<trkpt lat="22.050692" lon="104.668358">
<ele>125.067444</ele>
<time>2011-04-28T05:57:39Z</time>
<desc>lat.=22.050692, lon.=104.668358, Alt.=125.067444m. Speed=0.288000m/h.</desc>
<speed>0.080000</speed>
</trkpt>
<trkpt lat="22.050695" lon="104.668365">
<ele>126.577209</ele>
<time>2011-04-28T05:57:44Z</time>
<desc>lat.=22.050695, lon.=104.668365, Alt.=126.577209m. Speed=0.108000m/h.</desc>
<speed>0.030000</speed>
</trkpt>
<trkpt lat="22.050697" lon="104.668365">
<ele>127.971741</ele>
<time>2011-04-28T05:57:49Z</time>
<desc>lat.=22.050697, lon.=104.668365, Alt.=127.971741m. Speed=0.180000m/h.</desc>
<speed>0.050000</speed>
</trkpt>
<trkpt lat="22.050697" lon="104.668365">
<ele>129.013794</ele>
<time>2011-04-28T05:57:54Z</time>
<desc>lat.=22.050697, lon.=104.668365, Alt.=129.013794m. Speed=0.072000m/h.</desc>
<speed>0.020000</speed>
</trkpt>
<trkpt lat="22.050697" lon="104.668365">
<ele>129.775513</ele>
<time>2011-04-28T05:57:59Z</time>
<desc>lat.=22.050697, lon.=104.668365, Alt.=129.775513m. Speed=0.432000m/h.</desc>
<speed>0.120000</speed>
</trkpt>
<trkpt lat="22.050695" lon="104.668358">
<ele>130.548950</ele>
<time>2011-04-28T05:58:04Z</time>
<desc>lat.=22.050695, lon.=104.668358, Alt.=130.548950m. Speed=0.792000m/h.</desc>
<speed>0.220000</speed>
</trkpt>
<trkpt lat="22.050692" lon="104.668350">
<ele>131.326294</ele>
<time>2011-04-28T05:58:09Z</time>
<desc>lat.=22.050692, lon.=104.668350, Alt.=131.326294m. Speed=0.288000m/h.</desc>
<speed>0.080000</speed>
</trkpt>
<trkpt lat="22.050692" lon="104.668343">
<ele>132.037231</ele>
<time>2011-04-28T05:58:14Z</time>
<desc>lat.=22.050692, lon.=104.668343, Alt.=132.037231m. Speed=0.036000m/h.</desc>
<speed>0.010000</speed>
</trkpt>
<trkpt lat="22.050692" lon="104.668343">
<ele>132.716919</ele>
<time>2011-04-28T05:58:19Z</time>
<desc>lat.=22.050692, lon.=104.668343, Alt.=132.716919m. Speed=0.108000m/h.</desc>
<speed>0.030000</speed>
</trkpt>
<trkpt lat="22.050692" lon="104.668343">
<ele>133.408325</ele>
<time>2011-04-28T05:58:24Z</time>
<desc>lat.=22.050692, lon.=104.668343, Alt.=133.408325m. Speed=0.180000m/h.</desc>
<speed>0.050000</speed>
</trkpt>
<trkpt lat="22.050690" lon="104.668343">
<ele>134.099731</ele>
<time>2011-04-28T05:58:29Z</time>
<desc>lat.=22.050690, lon.=104.668343, Alt.=134.099731m. Speed=0.036000m/h.</desc>
<speed>0.010000</speed>
</trkpt>
<trkpt lat="22.050692" lon="104.668343">
<ele>134.720825</ele>
<time>2011-04-28T05:58:34Z</time>
<desc>lat.=22.050692, lon.=104.668343, Alt.=134.720825m. Speed=0.072000m/h.</desc>
<speed>0.020000</speed>
</trkpt>
<trkpt lat="22.050690" lon="104.668343">
<ele>135.236450</ele>
<time>2011-04-28T05:58:39Z</time>
<desc>lat.=22.050690, lon.=104.668343, Alt.=135.236450m. Speed=0.180000m/h.</desc>
<speed>0.050000</speed>
</trkpt>
<trkpt lat="22.050690" lon="104.668335">
<ele>135.685669</ele>
<time>2011-04-28T05:58:44Z</time>
<desc>lat.=22.050690, lon.=104.668335, Alt.=135.685669m. Speed=0.216000m/h.</desc>
<speed>0.060000</speed>
</trkpt>
<trkpt lat="22.050690" lon="104.668335">
<ele>136.095825</ele>
<time>2011-04-28T05:58:49Z</time>
<desc>lat.=22.050690, lon.=104.668335, Alt.=136.095825m. Speed=0.144000m/h.</desc>
<speed>0.040000</speed>
</trkpt>
<trkpt lat="22.050690" lon="104.668327">
<ele>136.529419</ele>
<time>2011-04-28T05:58:54Z</time>
<desc>lat.=22.050690, lon.=104.668327, Alt.=136.529419m. Speed=0.108000m/h.</desc>
<speed>0.030000</speed>
</trkpt>
<trkpt lat="22.050688" lon="104.668327">
<ele>137.021606</ele>
<time>2011-04-28T05:58:59Z</time>
<desc>lat.=22.050688, lon.=104.668327, Alt.=137.021606m. Speed=0.252000m/h.</desc>
<speed>0.070000</speed>
</trkpt>
<trkpt lat="22.050686" lon="104.668327">
<ele>137.392700</ele>
<time>2011-04-28T05:59:04Z</time>
<desc>lat.=22.050686, lon.=104.668327, Alt.=137.392700m. Speed=0.288000m/h.</desc>
<speed>0.080000</speed>
</trkpt>
<trkpt lat="22.050684" lon="104.668320">
<ele>137.705200</ele>
<time>2011-04-28T05:59:09Z</time>
<desc>lat.=22.050684, lon.=104.668320, Alt.=137.705200m. Speed=0.252000m/h.</desc>
<speed>0.070000</speed>
</trkpt>
<trkpt lat="22.050680" lon="104.668320">
<ele>138.005981</ele>
<time>2011-04-28T05:59:14Z</time>
<desc>lat.=22.050680, lon.=104.668320, Alt.=138.005981m. Speed=0.360000m/h.</desc>
<speed>0.100000</speed>
</trkpt>
<trkpt lat="22.050678" lon="104.668312">
<ele>138.318481</ele>
<time>2011-04-28T05:59:19Z</time>
<desc>lat.=22.050678, lon.=104.668312, Alt.=138.318481m. Speed=0.324000m/h.</desc>
<speed>0.090000</speed>
</trkpt>
<trkpt lat="22.050674" lon="104.668312">
<ele>138.634888</ele>
<time>2011-04-28T05:59:24Z</time>
<desc>lat.=22.050674, lon.=104.668312, Alt.=138.634888m. Speed=0.144000m/h.</desc>
<speed>0.040000</speed>
</trkpt>
<trkpt lat="22.050673" lon="104.668312">
<ele>138.865356</ele>
<time>2011-04-28T05:59:29Z</time>
<desc>lat.=22.050673, lon.=104.668312, Alt.=138.865356m. Speed=0.324000m/h.</desc>
<speed>0.090000</speed>
</trkpt>
<trkpt lat="22.050669" lon="104.668297">
<ele>138.861450</ele>
<time>2011-04-28T05:59:34Z</time>
<desc>lat.=22.050669, lon.=104.668297, Alt.=138.861450m. Speed=0.828000m/h.</desc>
<speed>0.230000</speed>
</trkpt>
<trkpt lat="22.050665" lon="104.668289">
<ele>138.802856</ele>
<time>2011-04-28T05:59:39Z</time>
<desc>lat.=22.050665, lon.=104.668289, Alt.=138.802856m. Speed=0.756000m/h.</desc>
<speed>0.210000</speed>
</trkpt>
<trkpt lat="22.050661" lon="104.668282">
<ele>138.779419</ele>
<time>2011-04-28T05:59:44Z</time>
<desc>lat.=22.050661, lon.=104.668282, Alt.=138.779419m. Speed=0.792000m/h.</desc>
<speed>0.220000</speed>
</trkpt>
<trkpt lat="22.050657" lon="104.668266">
<ele>138.752075</ele>
<time>2011-04-28T05:59:49Z</time>
<desc>lat.=22.050657, lon.=104.668266, Alt.=138.752075m. Speed=0.828000m/h.</desc>
<speed>0.230000</speed>
</trkpt>
<trkpt lat="22.050655" lon="104.668259">
<ele>138.705200</ele>
<time>2011-04-28T05:59:54Z</time>
<desc>lat.=22.050655, lon.=104.668259, Alt.=138.705200m. Speed=0.432000m/h.</desc>
<speed>0.120000</speed>
</trkpt>
<trkpt lat="22.050653" lon="104.668251">
<ele>138.638794</ele>
<time>2011-04-28T05:59:59Z</time>
<desc>lat.=22.050653, lon.=104.668251, Alt.=138.638794m. Speed=0.180000m/h.</desc>
<speed>0.050000</speed>
</trkpt>
<trkpt lat="22.050652" lon="104.668251">
<ele>138.576294</ele>
<time>2011-04-28T06:00:04Z</time>
<desc>lat.=22.050652, lon.=104.668251, Alt.=138.576294m. Speed=0.216000m/h.</desc>
<speed>0.060000</speed>
</trkpt>
<trkpt lat="22.050650" lon="104.668243">
<ele>138.478638</ele>
<time>2011-04-28T06:00:09Z</time>
<desc>lat.=22.050650, lon.=104.668243, Alt.=138.478638m. Speed=0.324000m/h.</desc>
<speed>0.090000</speed>
</trkpt>
<trkpt lat="22.050646" lon="104.668243">
<ele>138.295044</ele>
<time>2011-04-28T06:00:14Z</time>
<desc>lat.=22.050646, lon.=104.668243, Alt.=138.295044m. Speed=0.468000m/h.</desc>
<speed>0.130000</speed>
</trkpt>
<trkpt lat="22.050640" lon="104.668236">
<ele>138.111450</ele>
<time>2011-04-28T06:00:19Z</time>
<desc>lat.=22.050640, lon.=104.668236, Alt.=138.111450m. Speed=0.612000m/h.</desc>
<speed>0.170000</speed>
</trkpt>
<trkpt lat="22.050634" lon="104.668236">
<ele>137.966919</ele>
<time>2011-04-28T06:00:24Z</time>
<desc>lat.=22.050634, lon.=104.668236, Alt.=137.966919m. Speed=0.648000m/h.</desc>
<speed>0.180000</speed>
</trkpt>
<trkpt lat="22.050629" lon="104.668221">
<ele>137.873169</ele>
<time>2011-04-28T06:00:29Z</time>
<desc>lat.=22.050629, lon.=104.668221, Alt.=137.873169m. Speed=0.900000m/h.</desc>
<speed>0.250000</speed>
</trkpt>
<trkpt lat="22.050625" lon="104.668213">
<ele>137.713013</ele>
<time>2011-04-28T06:00:34Z</time>
<desc>lat.=22.050625, lon.=104.668213, Alt.=137.713013m. Speed=0.360000m/h.</desc>
<speed>0.100000</speed>
</trkpt>
<trkpt lat="22.050625" lon="104.668205">
<ele>137.361450</ele>
<time>2011-04-28T06:00:39Z</time>
<desc>lat.=22.050625, lon.=104.668205, Alt.=137.361450m. Speed=0.288000m/h.</desc>
<speed>0.080000</speed>
</trkpt>
<trkpt lat="22.050627" lon="104.668205">
<ele>136.974731</ele>
<time>2011-04-28T06:00:44Z</time>
<desc>lat.=22.050627, lon.=104.668205, Alt.=136.974731m. Speed=0.360000m/h.</desc>
<speed>0.100000</speed>
</trkpt>
<trkpt lat="22.050625" lon="104.668198">
<ele>136.591919</ele>
<time>2011-04-28T06:00:49Z</time>
<desc>lat.=22.050625, lon.=104.668198, Alt.=136.591919m. Speed=0.252000m/h.</desc>
<speed>0.070000</speed>
</trkpt>
<trkpt lat="22.050623" lon="104.668190">
<ele>136.236450</ele>
<time>2011-04-28T06:00:54Z</time>
<desc>lat.=22.050623, lon.=104.668190, Alt.=136.236450m. Speed=0.288000m/h.</desc>
<speed>0.080000</speed>
</trkpt>
<trkpt lat="22.050623" lon="104.668190">
<ele>135.748169</ele>
<time>2011-04-28T06:00:59Z</time>
<desc>lat.=22.050623, lon.=104.668190, Alt.=135.748169m. Speed=0.216000m/h.</desc>
<speed>0.060000</speed>
</trkpt>
<trkpt lat="22.050619" lon="104.668190">
<ele>134.810669</ele>
<time>2011-04-28T06:01:04Z</time>
<desc>lat.=22.050619, lon.=104.668190, Alt.=134.810669m. Speed=0.072000m/h.</desc>
<speed>0.020000</speed>
</trkpt>
<trkpt lat="22.050617" lon="104.668182">
<ele>133.630981</ele>
<time>2011-04-28T06:01:09Z</time>
<desc>lat.=22.050617, lon.=104.668182, Alt.=133.630981m. Speed=0.180000m/h.</desc>
<speed>0.050000</speed>
</trkpt>
<trkpt lat="22.050613" lon="104.668182">
<ele>132.267700</ele>
<time>2011-04-28T06:01:14Z</time>
<desc>lat.=22.050613, lon.=104.668182, Alt.=132.267700m. Speed=0.252000m/h.</desc>
<speed>0.070000</speed>
</trkpt>
<trkpt lat="22.050610" lon="104.668175">
<ele>130.838013</ele>
<time>2011-04-28T06:01:19Z</time>
<desc>lat.=22.050610, lon.=104.668175, Alt.=130.838013m. Speed=0.216000m/h.</desc>
<speed>0.060000</speed>
</trkpt>
<trkpt lat="22.050608" lon="104.668175">
<ele>129.326294</ele>
<time>2011-04-28T06:01:24Z</time>
<desc>lat.=22.050608, lon.=104.668175, Alt.=129.326294m. Speed=0.180000m/h.</desc>
<speed>0.050000</speed>
</trkpt>
<trkpt lat="22.050606" lon="104.668167">
<ele>127.604553</ele>
<time>2011-04-28T06:01:29Z</time>
<desc>lat.=22.050606, lon.=104.668167, Alt.=127.604553m. Speed=0.216000m/h.</desc>
<speed>0.060000</speed>
</trkpt>
<trkpt lat="22.050606" lon="104.668167">
<ele>125.770569</ele>
<time>2011-04-28T06:01:34Z</time>
<desc>lat.=22.050606, lon.=104.668167, Alt.=125.770569m. Speed=0.144000m/h.</desc>
<speed>0.040000</speed>
</trkpt>
<trkpt lat="22.050602" lon="104.668159">
<ele>123.932678</ele>
<time>2011-04-28T06:01:39Z</time>
<desc>lat.=22.050602, lon.=104.668159, Alt.=123.932678m. Speed=0.216000m/h.</desc>
<speed>0.060000</speed>
</trkpt>
<trkpt lat="22.050598" lon="104.668159">
<ele>122.159241</ele>
<time>2011-04-28T06:01:44Z</time>
<desc>lat.=22.050598, lon.=104.668159, Alt.=122.159241m. Speed=0.324000m/h.</desc>
<speed>0.090000</speed>
</trkpt>
<trkpt lat="22.050592" lon="104.668159">
<ele>120.450256</ele>
<time>2011-04-28T06:01:49Z</time>
<desc>lat.=22.050592, lon.=104.668159, Alt.=120.450256m. Speed=0.360000m/h.</desc>
<speed>0.100000</speed>
</trkpt>
<trkpt lat="22.050589" lon="104.668159">
<ele>118.905334</ele>
<time>2011-04-28T06:01:54Z</time>
<desc>lat.=22.050589, lon.=104.668159, Alt.=118.905334m. Speed=0.252000m/h.</desc>
<speed>0.070000</speed>
</trkpt>
<trkpt lat="22.050589" lon="104.668152">
<ele>117.694397</ele>
<time>2011-04-28T06:01:59Z</time>
<desc>lat.=22.050589, lon.=104.668152, Alt.=117.694397m. Speed=0.252000m/h.</desc>
<speed>0.070000</speed>
</trkpt>
<trkpt lat="22.050587" lon="104.668152">
<ele>116.563538</ele>
<time>2011-04-28T06:02:04Z</time>
<desc>lat.=22.050587, lon.=104.668152, Alt.=116.563538m. Speed=0.072000m/h.</desc>
<speed>0.020000</speed>
</trkpt>
<trkpt lat="22.050587" lon="104.668152">
<ele>115.542053</ele>
<time>2011-04-28T06:02:09Z</time>
<desc>lat.=22.050587, lon.=104.668152, Alt.=115.542053m. Speed=0.036000m/h.</desc>
<speed>0.010000</speed>
</trkpt>
<trkpt lat="22.050585" lon="104.668152">
<ele>114.651428</ele>
<time>2011-04-28T06:02:14Z</time>
<desc>lat.=22.050585, lon.=104.668152, Alt.=114.651428m. Speed=0.108000m/h.</desc>
<speed>0.030000</speed>
</trkpt>
<trkpt lat="22.050583" lon="104.668152">
<ele>113.661194</ele>
<time>2011-04-28T06:02:19Z</time>
<desc>lat.=22.050583, lon.=104.668152, Alt.=113.661194m. Speed=0.216000m/h.</desc>
<speed>0.060000</speed>
</trkpt>
<trkpt lat="22.050579" lon="104.668144">
<ele>112.491272</ele>
<time>2011-04-28T06:02:24Z</time>
<desc>lat.=22.050579, lon.=104.668144, Alt.=112.491272m. Speed=0.324000m/h.</desc>
<speed>0.090000</speed>
</trkpt>
<trkpt lat="22.050575" lon="104.668144">
<ele>111.145569</ele>
<time>2011-04-28T06:02:29Z</time>
<desc>lat.=22.050575, lon.=104.668144, Alt.=111.145569m. Speed=0.288000m/h.</desc>
<speed>0.080000</speed>
</trkpt>
<trkpt lat="22.050575" lon="104.668144">
<ele>109.846741</ele>
<time>2011-04-28T06:02:34Z</time>
<desc>lat.=22.050575, lon.=104.668144, Alt.=109.846741m. Speed=0.144000m/h.</desc>
<speed>0.040000</speed>
</trkpt>
<trkpt lat="22.050575" lon="104.668144">
<ele>108.565491</ele>
<time>2011-04-28T06:02:39Z</time>
<desc>lat.=22.050575, lon.=104.668144, Alt.=108.565491m. Speed=0.108000m/h.</desc>
<speed>0.030000</speed>
</trkpt>
<trkpt lat="22.050575" lon="104.668144">
<ele>107.155334</ele>
<time>2011-04-28T06:02:44Z</time>
<desc>lat.=22.050575, lon.=104.668144, Alt.=107.155334m. Speed=0.288000m/h.</desc>
<speed>0.080000</speed>
</trkpt>
<trkpt lat="22.050571" lon="104.668137">
<ele>105.606506</ele>
<time>2011-04-28T06:02:49Z</time>
<desc>lat.=22.050571, lon.=104.668137, Alt.=105.606506m. Speed=0.468000m/h.</desc>
<speed>0.130000</speed>
</trkpt>
<trkpt lat="22.050568" lon="104.668129">
<ele>104.071350</ele>
<time>2011-04-28T06:02:54Z</time>
<desc>lat.=22.050568, lon.=104.668129, Alt.=104.071350m. Speed=0.468000m/h.</desc>
<speed>0.130000</speed>
</trkpt>
<trkpt lat="22.050566" lon="104.668129">
<ele>102.698303</ele>
<time>2011-04-28T06:02:59Z</time>
<desc>lat.=22.050566, lon.=104.668129, Alt.=102.698303m. Speed=0.432000m/h.</desc>
<speed>0.120000</speed>
</trkpt>
<trkpt lat="22.050562" lon="104.668121">
<ele>101.420959</ele>
<time>2011-04-28T06:03:04Z</time>
<desc>lat.=22.050562, lon.=104.668121, Alt.=101.420959m. Speed=0.432000m/h.</desc>
<speed>0.120000</speed>
</trkpt>
<trkpt lat="22.050560" lon="104.668114">
<ele>100.280334</ele>
<time>2011-04-28T06:03:09Z</time>
<desc>lat.=22.050560, lon.=104.668114, Alt.=100.280334m. Speed=0.648000m/h.</desc>
<speed>0.180000</speed>
</trkpt>
<trkpt lat="22.050560" lon="104.668098">
<ele>99.202209</ele>
<time>2011-04-28T06:03:14Z</time>
<desc>lat.=22.050560, lon.=104.668098, Alt.=99.202209m. Speed=0.684000m/h.</desc>
<speed>0.190000</speed>
</trkpt>
<trkpt lat="22.050562" lon="104.668091">
<ele>98.165100</ele>
<time>2011-04-28T06:03:19Z</time>
<desc>lat.=22.050562, lon.=104.668091, Alt.=98.165100m. Speed=0.756000m/h.</desc>
<speed>0.210000</speed>
</trkpt>
<trkpt lat="22.050564" lon="104.668083">
<ele>97.149475</ele>
<time>2011-04-28T06:03:24Z</time>
<desc>lat.=22.050564, lon.=104.668083, Alt.=97.149475m. Speed=0.972000m/h.</desc>
<speed>0.270000</speed>
</trkpt>
<trkpt lat="22.050570" lon="104.668068">
<ele>96.153381</ele>
<time>2011-04-28T06:03:29Z</time>
<desc>lat.=22.050570, lon.=104.668068, Alt.=96.153381m. Speed=0.576000m/h.</desc>
<speed>0.160000</speed>
</trkpt>
<trkpt lat="22.050575" lon="104.668068">
<ele>95.315491</ele>
<time>2011-04-28T06:03:34Z</time>
<desc>lat.=22.050575, lon.=104.668068, Alt.=95.315491m. Speed=0.540000m/h.</desc>
<speed>0.150000</speed>
</trkpt>
<trkpt lat="22.050583" lon="104.668076">
<ele>94.653381</ele>
<time>2011-04-28T06:03:39Z</time>
<desc>lat.=22.050583, lon.=104.668076, Alt.=94.653381m. Speed=0.756000m/h.</desc>
<speed>0.210000</speed>
</trkpt>
<trkpt lat="22.050589" lon="104.668083">
<ele>94.063538</ele>
<time>2011-04-28T06:03:44Z</time>
<desc>lat.=22.050589, lon.=104.668083, Alt.=94.063538m. Speed=0.612000m/h.</desc>
<speed>0.170000</speed>
</trkpt>
<trkpt lat="22.050591" lon="104.668091">
<ele>93.442444</ele>
<time>2011-04-28T06:03:49Z</time>
<desc>lat.=22.050591, lon.=104.668091, Alt.=93.442444m. Speed=0.540000m/h.</desc>
<speed>0.150000</speed>
</trkpt>
<trkpt lat="22.050587" lon="104.668098">
<ele>92.774475</ele>
<time>2011-04-28T06:03:54Z</time>
<desc>lat.=22.050587, lon.=104.668098, Alt.=92.774475m. Speed=0.504000m/h.</desc>
<speed>0.140000</speed>
</trkpt>
<trkpt lat="22.050581" lon="104.668098">
<ele>92.147522</ele>
<time>2011-04-28T06:03:59Z</time>
<desc>lat.=22.050581, lon.=104.668098, Alt.=92.147522m. Speed=0.324000m/h.</desc>
<speed>0.090000</speed>
</trkpt>
<trkpt lat="22.050579" lon="104.668098">
<ele>91.762756</ele>
<time>2011-04-28T06:04:04Z</time>
<desc>lat.=22.050579, lon.=104.668098, Alt.=91.762756m. Speed=0.000000m/h.</desc>
<speed>0.000000</speed>
</trkpt>
<trkpt lat="22.050579" lon="104.668098">
<ele>91.690491</ele>
<time>2011-04-28T06:04:09Z</time>
<desc>lat.=22.050579, lon.=104.668098, Alt.=91.690491m. Speed=0.108000m/h.</desc>
<speed>0.030000</speed>
</trkpt>
<trkpt lat="22.050579" lon="104.668098">
<ele>91.725647</ele>
<time>2011-04-28T06:04:14Z</time>
<desc>lat.=22.050579, lon.=104.668098, Alt.=91.725647m. Speed=0.036000m/h.</desc>
<speed>0.010000</speed>
</trkpt>
<trkpt lat="22.050579" lon="104.668098">
<ele>91.700256</ele>
<time>2011-04-28T06:04:19Z</time>
<desc>lat.=22.050579, lon.=104.668098, Alt.=91.700256m. Speed=0.036000m/h.</desc>
<speed>0.010000</speed>
</trkpt>
<trkpt lat="22.050579" lon="104.668098">
<ele>91.670959</ele>
<time>2011-04-28T06:04:24Z</time>
<desc>lat.=22.050579, lon.=104.668098, Alt.=91.670959m. Speed=0.072000m/h.</desc>
<speed>0.020000</speed>
</trkpt>
<trkpt lat="22.050577" lon="104.668098">
<ele>91.674866</ele>
<time>2011-04-28T06:04:29Z</time>
<desc>lat.=22.050577, lon.=104.668098, Alt.=91.674866m. Speed=0.504000m/h.</desc>
<speed>0.140000</speed>
</trkpt>
<trkpt lat="22.050575" lon="104.668091">
<ele>91.725647</ele>
<time>2011-04-28T06:04:34Z</time>
<desc>lat.=22.050575, lon.=104.668091, Alt.=91.725647m. Speed=0.540000m/h.</desc>
<speed>0.150000</speed>
</trkpt>
<trkpt lat="22.050571" lon="104.668083">
<ele>91.778381</ele>
<time>2011-04-28T06:04:39Z</time>
<desc>lat.=22.050571, lon.=104.668083, Alt.=91.778381m. Speed=0.684000m/h.</desc>
<speed>0.190000</speed>
</trkpt>
<trkpt lat="22.050566" lon="104.668068">
<ele>91.846741</ele>
<time>2011-04-28T06:04:44Z</time>
<desc>lat.=22.050566, lon.=104.668068, Alt.=91.846741m. Speed=0.792000m/h.</desc>
<speed>0.220000</speed>
</trkpt>
<trkpt lat="22.050558" lon="104.668060">
<ele>91.911194</ele>
<time>2011-04-28T06:04:49Z</time>
<desc>lat.=22.050558, lon.=104.668060, Alt.=91.911194m. Speed=1.008000m/h.</desc>
<speed>0.280000</speed>
</trkpt>
<trkpt lat="22.050549" lon="104.668060">
<ele>91.952209</ele>
<time>2011-04-28T06:04:54Z</time>
<desc>lat.=22.050549, lon.=104.668060, Alt.=91.952209m. Speed=0.684000m/h.</desc>
<speed>0.190000</speed>
</trkpt>
<trkpt lat="22.050541" lon="104.668060">
<ele>91.967834</ele>
<time>2011-04-28T06:04:59Z</time>
<desc>lat.=22.050541, lon.=104.668060, Alt.=91.967834m. Speed=0.504000m/h.</desc>
<speed>0.140000</speed>
</trkpt>
<trkpt lat="22.050535" lon="104.668060">
<ele>91.981506</ele>
<time>2011-04-28T06:05:04Z</time>
<desc>lat.=22.050535, lon.=104.668060, Alt.=91.981506m. Speed=0.252000m/h.</desc>
<speed>0.070000</speed>
</trkpt>
<trkpt lat="22.050531" lon="104.668060">
<ele>92.006897</ele>
<time>2011-04-28T06:05:09Z</time>
<desc>lat.=22.050531, lon.=104.668060, Alt.=92.006897m. Speed=0.396000m/h.</desc>
<speed>0.110000</speed>
</trkpt>
<trkpt lat="22.050528" lon="104.668053">
<ele>92.026428</ele>
<time>2011-04-28T06:05:14Z</time>
<desc>lat.=22.050528, lon.=104.668053, Alt.=92.026428m. Speed=0.504000m/h.</desc>
<speed>0.140000</speed>
</trkpt>
<trkpt lat="22.050524" lon="104.668045">
<ele>92.030334</ele>
<time>2011-04-28T06:05:19Z</time>
<desc>lat.=22.050524, lon.=104.668045, Alt.=92.030334m. Speed=0.612000m/h.</desc>
<speed>0.170000</speed>
</trkpt>
<trkpt lat="22.050520" lon="104.668045">
<ele>92.020569</ele>
<time>2011-04-28T06:05:24Z</time>
<desc>lat.=22.050520, lon.=104.668045, Alt.=92.020569m. Speed=0.324000m/h.</desc>
<speed>0.090000</speed>
</trkpt>
<trkpt lat="22.050520" lon="104.668045">
<ele>92.223694</ele>
<time>2011-04-28T06:05:29Z</time>
<desc>lat.=22.050520, lon.=104.668045, Alt.=92.223694m. Speed=0.036000m/h.</desc>
<speed>0.010000</speed>
</trkpt>
<trkpt lat="22.050520" lon="104.668045">
<ele>92.446350</ele>
<time>2011-04-28T06:05:34Z</time>
<desc>lat.=22.050520, lon.=104.668045, Alt.=92.446350m. Speed=0.036000m/h.</desc>
<speed>0.010000</speed>
</trkpt>
<trkpt lat="22.050522" lon="104.668045">
<ele>92.692444</ele>
<time>2011-04-28T06:05:39Z</time>
<desc>lat.=22.050522, lon.=104.668045, Alt.=92.692444m. Speed=0.072000m/h.</desc>
<speed>0.020000</speed>
</trkpt>
<trkpt lat="22.050522" lon="104.668037">
<ele>92.948303</ele>
<time>2011-04-28T06:05:44Z</time>
<desc>lat.=22.050522, lon.=104.668037, Alt.=92.948303m. Speed=0.072000m/h.</desc>
<speed>0.020000</speed>
</trkpt>
<trkpt lat="22.050522" lon="104.668037">
<ele>93.217834</ele>
<time>2011-04-28T06:05:49Z</time>
<desc>lat.=22.050522, lon.=104.668037, Alt.=93.217834m. Speed=0.036000m/h.</desc>
<speed>0.010000</speed>
</trkpt>
<trkpt lat="22.050524" lon="104.668045">
<ele>93.473694</ele>
<time>2011-04-28T06:05:54Z</time>
<desc>lat.=22.050524, lon.=104.668045, Alt.=93.473694m. Speed=0.108000m/h.</desc>
<speed>0.030000</speed>
</trkpt>
<trkpt lat="22.050526" lon="104.668045">
<ele>93.711975</ele>
<time>2011-04-28T06:05:59Z</time>
<desc>lat.=22.050526, lon.=104.668045, Alt.=93.711975m. Speed=0.036000m/h.</desc>
<speed>0.010000</speed>
</trkpt>
<trkpt lat="22.050526" lon="104.668045">
<ele>93.815491</ele>
<time>2011-04-28T06:06:04Z</time>
<desc>lat.=22.050526, lon.=104.668045, Alt.=93.815491m. Speed=0.108000m/h.</desc>
<speed>0.030000</speed>
</trkpt>
<trkpt lat="22.050528" lon="104.668037">
<ele>93.594788</ele>
<time>2011-04-28T06:06:09Z</time>
<desc>lat.=22.050528, lon.=104.668037, Alt.=93.594788m. Speed=0.072000m/h.</desc>
<speed>0.020000</speed>
</trkpt>
<trkpt lat="22.050526" lon="104.668037">
<ele>93.028381</ele>
<time>2011-04-28T06:06:14Z</time>
<desc>lat.=22.050526, lon.=104.668037, Alt.=93.028381m. Speed=0.144000m/h.</desc>
<speed>0.040000</speed>
</trkpt>
<trkpt lat="22.050524" lon="104.668037">
<ele>92.329163</ele>
<time>2011-04-28T06:06:19Z</time>
<desc>lat.=22.050524, lon.=104.668037, Alt.=92.329163m. Speed=0.216000m/h.</desc>
<speed>0.060000</speed>
</trkpt>
<trkpt lat="22.050522" lon="104.668037">
<ele>91.510803</ele>
<time>2011-04-28T06:06:24Z</time>
<desc>lat.=22.050522, lon.=104.668037, Alt.=91.510803m. Speed=0.324000m/h.</desc>
<speed>0.090000</speed>
</trkpt>
<trkpt lat="22.050520" lon="104.668030">
<ele>90.711975</ele>
<time>2011-04-28T06:06:29Z</time>
<desc>lat.=22.050520, lon.=104.668030, Alt.=90.711975m. Speed=0.144000m/h.</desc>
<speed>0.040000</speed>
</trkpt>
<trkpt lat="22.050522" lon="104.668030">
<ele>90.020569</ele>
<time>2011-04-28T06:06:34Z</time>
<desc>lat.=22.050522, lon.=104.668030, Alt.=90.020569m. Speed=0.216000m/h.</desc>
<speed>0.060000</speed>
</trkpt>
<trkpt lat="22.050526" lon="104.668030">
<ele>89.245178</ele>
<time>2011-04-28T06:06:39Z</time>
<desc>lat.=22.050526, lon.=104.668030, Alt.=89.245178m. Speed=0.144000m/h.</desc>
<speed>0.040000</speed>
</trkpt>
<trkpt lat="22.050528" lon="104.668030">
<ele>88.403381</ele>
<time>2011-04-28T06:06:44Z</time>
<desc>lat.=22.050528, lon.=104.668030, Alt.=88.403381m. Speed=0.144000m/h.</desc>
<speed>0.040000</speed>
</trkpt>
<trkpt lat="22.050529" lon="104.668030">
<ele>87.612366</ele>
<time>2011-04-28T06:06:49Z</time>
<desc>lat.=22.050529, lon.=104.668030, Alt.=87.612366m. Speed=0.144000m/h.</desc>
<speed>0.040000</speed>
</trkpt>
<trkpt lat="22.050531" lon="104.668030">
<ele>86.817444</ele>
<time>2011-04-28T06:06:54Z</time>
<desc>lat.=22.050531, lon.=104.668030, Alt.=86.817444m. Speed=0.216000m/h.</desc>
<speed>0.060000</speed>
</trkpt>
<trkpt lat="22.050533" lon="104.668037">
<ele>86.010803</ele>
<time>2011-04-28T06:06:59Z</time>
<desc>lat.=22.050533, lon.=104.668037, Alt.=86.010803m. Speed=0.036000m/h.</desc>
<speed>0.010000</speed>
</trkpt>
<trkpt lat="22.050533" lon="104.668037">
<ele>85.186584</ele>
<time>2011-04-28T06:07:04Z</time>
<desc>lat.=22.050533, lon.=104.668037, Alt.=85.186584m. Speed=0.108000m/h.</desc>
<speed>0.030000</speed>
</trkpt>
<trkpt lat="22.050531" lon="104.668030">
<ele>84.299866</ele>
<time>2011-04-28T06:07:09Z</time>
<desc>lat.=22.050531, lon.=104.668030, Alt.=84.299866m. Speed=0.072000m/h.</desc>
<speed>0.020000</speed>
</trkpt>
<trkpt lat="22.050533" lon="104.668030">
<ele>83.450256</ele>
<time>2011-04-28T06:07:14Z</time>
<desc>lat.=22.050533, lon.=104.668030, Alt.=83.450256m. Speed=0.072000m/h.</desc>
<speed>0.020000</speed>
</trkpt>
<trkpt lat="22.050535" lon="104.668030">
<ele>82.784241</ele>
<time>2011-04-28T06:07:19Z</time>
<desc>lat.=22.050535, lon.=104.668030, Alt.=82.784241m. Speed=0.108000m/h.</desc>
<speed>0.030000</speed>
</trkpt>
<trkpt lat="22.050535" lon="104.668030">
<ele>82.167053</ele>
<time>2011-04-28T06:07:24Z</time>
<desc>lat.=22.050535, lon.=104.668030, Alt.=82.167053m. Speed=0.072000m/h.</desc>
<speed>0.020000</speed>
</trkpt>
<trkpt lat="22.050535" lon="104.668030">
<ele>81.610413</ele>
<time>2011-04-28T06:07:29Z</time>
<desc>lat.=22.050535, lon.=104.668030, Alt.=81.610413m. Speed=0.036000m/h.</desc>
<speed>0.010000</speed>
</trkpt>
<trkpt lat="22.050535" lon="104.668030">
<ele>81.110413</ele>
<time>2011-04-28T06:07:34Z</time>
<desc>lat.=22.050535, lon.=104.668030, Alt.=81.110413m. Speed=0.108000m/h.</desc>
<speed>0.030000</speed>
</trkpt>
<trkpt lat="22.050535" lon="104.668030">
<ele>80.651428</ele>
<time>2011-04-28T06:07:39Z</time>
<desc>lat.=22.050535, lon.=104.668030, Alt.=80.651428m. Speed=0.324000m/h.</desc>
<speed>0.090000</speed>
</trkpt>
<trkpt lat="22.050533" lon="104.668022">
<ele>80.215881</ele>
<time>2011-04-28T06:07:44Z</time>
<desc>lat.=22.050533, lon.=104.668022, Alt.=80.215881m. Speed=0.540000m/h.</desc>
<speed>0.150000</speed>
</trkpt>
<trkpt lat="22.050535" lon="104.668015">
<ele>79.780334</ele>
<time>2011-04-28T06:07:49Z</time>
<desc>lat.=22.050535, lon.=104.668015, Alt.=79.780334m. Speed=0.612000m/h.</desc>
<speed>0.170000</speed>
</trkpt>
<trkpt lat="22.050539" lon="104.668007">
<ele>79.307678</ele>
<time>2011-04-28T06:07:54Z</time>
<desc>lat.=22.050539, lon.=104.668007, Alt.=79.307678m. Speed=0.792000m/h.</desc>
<speed>0.220000</speed>
</trkpt>
<trkpt lat="22.050543" lon="104.667992">
<ele>78.710022</ele>
<time>2011-04-28T06:07:59Z</time>
<desc>lat.=22.050543, lon.=104.667992, Alt.=78.710022m. Speed=0.864000m/h.</desc>
<speed>0.240000</speed>
</trkpt>
<trkpt lat="22.050545" lon="104.667984">
<ele>78.069397</ele>
<time>2011-04-28T06:08:04Z</time>
<desc>lat.=22.050545, lon.=104.667984, Alt.=78.069397m. Speed=0.576000m/h.</desc>
<speed>0.160000</speed>
</trkpt>
<trkpt lat="22.050543" lon="104.667976">
<ele>77.368225</ele>
<time>2011-04-28T06:08:09Z</time>
<desc>lat.=22.050543, lon.=104.667976, Alt.=77.368225m. Speed=0.432000m/h.</desc>
<speed>0.120000</speed>
</trkpt>
<trkpt lat="22.050539" lon="104.667969">
<ele>76.600647</ele>
<time>2011-04-28T06:08:14Z</time>
<desc>lat.=22.050539, lon.=104.667969, Alt.=76.600647m. Speed=0.288000m/h.</desc>
<speed>0.080000</speed>
</trkpt>
<trkpt lat="22.050537" lon="104.667969">
<ele>75.731506</ele>
<time>2011-04-28T06:08:19Z</time>
<desc>lat.=22.050537, lon.=104.667969, Alt.=75.731506m. Speed=0.180000m/h.</desc>
<speed>0.050000</speed>
</trkpt>
<trkpt lat="22.050535" lon="104.667969">
<ele>74.760803</ele>
<time>2011-04-28T06:08:24Z</time>
<desc>lat.=22.050535, lon.=104.667969, Alt.=74.760803m. Speed=0.108000m/h.</desc>
<speed>0.030000</speed>
</trkpt>
<trkpt lat="22.050535" lon="104.667969">
<ele>73.819397</ele>
<time>2011-04-28T06:08:29Z</time>
<desc>lat.=22.050535, lon.=104.667969, Alt.=73.819397m. Speed=0.108000m/h.</desc>
<speed>0.030000</speed>
</trkpt>
<trkpt lat="22.050535" lon="104.667969">
<ele>72.864319</ele>
<time>2011-04-28T06:08:34Z</time>
<desc>lat.=22.050535, lon.=104.667969, Alt.=72.864319m. Speed=0.180000m/h.</desc>
<speed>0.050000</speed>
</trkpt>
<trkpt lat="22.050533" lon="104.667969">
<ele>71.836975</ele>
<time>2011-04-28T06:08:39Z</time>
<desc>lat.=22.050533, lon.=104.667969, Alt.=71.836975m. Speed=0.180000m/h.</desc>
<speed>0.050000</speed>
</trkpt>
<trkpt lat="22.050531" lon="104.667961">
<ele>70.807678</ele>
<time>2011-04-28T06:08:44Z</time>
<desc>lat.=22.050531, lon.=104.667961, Alt.=70.807678m. Speed=0.144000m/h.</desc>
<speed>0.040000</speed>
</trkpt>
<trkpt lat="22.050531" lon="104.667961">
<ele>69.756897</ele>
<time>2011-04-28T06:08:49Z</time>
<desc>lat.=22.050531, lon.=104.667961, Alt.=69.756897m. Speed=0.288000m/h.</desc>
<speed>0.080000</speed>
</trkpt>
<trkpt lat="22.050537" lon="104.667961">
<ele>68.741272</ele>
<time>2011-04-28T06:08:54Z</time>
<desc>lat.=22.050537, lon.=104.667961, Alt.=68.741272m. Speed=0.360000m/h.</desc>
<speed>0.100000</speed>
</trkpt>
<trkpt lat="22.050541" lon="104.667953">
<ele>67.930725</ele>
<time>2011-04-28T06:08:59Z</time>
<desc>lat.=22.050541, lon.=104.667953, Alt.=67.930725m. Speed=0.396000m/h.</desc>
<speed>0.110000</speed>
</trkpt>
<trkpt lat="22.050547" lon="104.667953">
<ele>67.370178</ele>
<time>2011-04-28T06:09:04Z</time>
<desc>lat.=22.050547, lon.=104.667953, Alt.=67.370178m. Speed=0.432000m/h.</desc>
<speed>0.120000</speed>
</trkpt>
<trkpt lat="22.050554" lon="104.667953">
<ele>67.055725</ele>
<time>2011-04-28T06:09:09Z</time>
<desc>lat.=22.050554, lon.=104.667953, Alt.=67.055725m. Speed=0.648000m/h.</desc>
<speed>0.180000</speed>
</trkpt>
<trkpt lat="22.050560" lon="104.667953">
<ele>66.846741</ele>
<time>2011-04-28T06:09:14Z</time>
<desc>lat.=22.050560, lon.=104.667953, Alt.=66.846741m. Speed=0.180000m/h.</desc>
<speed>0.050000</speed>
</trkpt>
<trkpt lat="22.050560" lon="104.667953">
<ele>66.670959</ele>
<time>2011-04-28T06:09:19Z</time>
<desc>lat.=22.050560, lon.=104.667953, Alt.=66.670959m. Speed=0.036000m/h.</desc>
<speed>0.010000</speed>
</trkpt>
<trkpt lat="22.050560" lon="104.667953">
<ele>66.540100</ele>
<time>2011-04-28T06:09:24Z</time>
<desc>lat.=22.050560, lon.=104.667953, Alt.=66.540100m. Speed=0.036000m/h.</desc>
<speed>0.010000</speed>
</trkpt>
<trkpt lat="22.050562" lon="104.667953">
<ele>66.448303</ele>
<time>2011-04-28T06:09:29Z</time>
<desc>lat.=22.050562, lon.=104.667953, Alt.=66.448303m. Speed=0.072000m/h.</desc>
<speed>0.020000</speed>
</trkpt>
<trkpt lat="22.050560" lon="104.667953">
<ele>66.309631</ele>
<time>2011-04-28T06:09:34Z</time>
<desc>lat.=22.050560, lon.=104.667953, Alt.=66.309631m. Speed=0.072000m/h.</desc>
<speed>0.020000</speed>
</trkpt>
<trkpt lat="22.050560" lon="104.667946">
<ele>66.249084</ele>
<time>2011-04-28T06:09:39Z</time>
<desc>lat.=22.050560, lon.=104.667946, Alt.=66.249084m. Speed=0.036000m/h.</desc>
<speed>0.010000</speed>
</trkpt>
<trkpt lat="22.050560" lon="104.667946">
<ele>66.403381</ele>
<time>2011-04-28T06:09:44Z</time>
<desc>lat.=22.050560, lon.=104.667946, Alt.=66.403381m. Speed=0.036000m/h.</desc>
<speed>0.010000</speed>
</trkpt>
<trkpt lat="22.050560" lon="104.667953">
<ele>66.764709</ele>
<time>2011-04-28T06:09:49Z</time>
<desc>lat.=22.050560, lon.=104.667953, Alt.=66.764709m. Speed=0.072000m/h.</desc>
<speed>0.020000</speed>
</trkpt>
<trkpt lat="22.050560" lon="104.667953">
<ele>67.276428</ele>
<time>2011-04-28T06:09:54Z</time>
<desc>lat.=22.050560, lon.=104.667953, Alt.=67.276428m. Speed=0.072000m/h.</desc>
<speed>0.020000</speed>
</trkpt>
<trkpt lat="22.050560" lon="104.667953">
<ele>67.899475</ele>
<time>2011-04-28T06:09:59Z</time>
<desc>lat.=22.050560, lon.=104.667953, Alt.=67.899475m. Speed=0.144000m/h.</desc>
<speed>0.040000</speed>
</trkpt>
<trkpt lat="22.050558" lon="104.667953">
<ele>68.608459</ele>
<time>2011-04-28T06:10:04Z</time>
<desc>lat.=22.050558, lon.=104.667953, Alt.=68.608459m. Speed=0.144000m/h.</desc>
<speed>0.040000</speed>
</trkpt>
<trkpt lat="22.050556" lon="104.667961">
<ele>69.338928</ele>
<time>2011-04-28T06:10:09Z</time>
<desc>lat.=22.050556, lon.=104.667961, Alt.=69.338928m. Speed=0.036000m/h.</desc>
<speed>0.010000</speed>
</trkpt>
<trkpt lat="22.050556" lon="104.667961">
<ele>69.987366</ele>
<time>2011-04-28T06:10:14Z</time>
<desc>lat.=22.050556, lon.=104.667961, Alt.=69.987366m. Speed=0.036000m/h.</desc>
<speed>0.010000</speed>
</trkpt>
<trkpt lat="22.050556" lon="104.667953">
<ele>70.528381</ele>
<time>2011-04-28T06:10:19Z</time>
<desc>lat.=22.050556, lon.=104.667953, Alt.=70.528381m. Speed=0.144000m/h.</desc>
<speed>0.040000</speed>
</trkpt>
<trkpt lat="22.050554" lon="104.667953">
<ele>70.961975</ele>
<time>2011-04-28T06:10:24Z</time>
<desc>lat.=22.050554, lon.=104.667953, Alt.=70.961975m. Speed=0.432000m/h.</desc>
<speed>0.120000</speed>
</trkpt>
<trkpt lat="22.050550" lon="104.667946">
<ele>71.317444</ele>
<time>2011-04-28T06:10:29Z</time>
<desc>lat.=22.050550, lon.=104.667946, Alt.=71.317444m. Speed=0.576000m/h.</desc>
<speed>0.160000</speed>
</trkpt>
<trkpt lat="22.050547" lon="104.667938">
<ele>71.667053</ele>
<time>2011-04-28T06:10:34Z</time>
<desc>lat.=22.050547, lon.=104.667938, Alt.=71.667053m. Speed=0.540000m/h.</desc>
<speed>0.150000</speed>
</trkpt>
<trkpt lat="22.050539" lon="104.667938">
<ele>72.044006</ele>
<time>2011-04-28T06:10:39Z</time>
<desc>lat.=22.050539, lon.=104.667938, Alt.=72.044006m. Speed=0.648000m/h.</desc>
<speed>0.180000</speed>
</trkpt>
<trkpt lat="22.050529" lon="104.667931">
<ele>72.401428</ele>
<time>2011-04-28T06:10:44Z</time>
<desc>lat.=22.050529, lon.=104.667931, Alt.=72.401428m. Speed=1.080000m/h.</desc>
<speed>0.300000</speed>
</trkpt>
<trkpt lat="22.050499" lon="104.667923">
<ele>72.446350</ele>
<time>2011-04-28T06:10:49Z</time>
<desc>lat.=22.050499, lon.=104.667923, Alt.=72.446350m. Speed=0.432000m/h.</desc>
<speed>0.120000</speed>
</trkpt>
<trkpt lat="22.050497" lon="104.667923">
<ele>72.784241</ele>
<time>2011-04-28T06:10:54Z</time>
<desc>lat.=22.050497, lon.=104.667923, Alt.=72.784241m. Speed=0.288000m/h.</desc>
<speed>0.080000</speed>
</trkpt>
<trkpt lat="22.050495" lon="104.667931">
<ele>73.016663</ele>
<time>2011-04-28T06:10:59Z</time>
<desc>lat.=22.050495, lon.=104.667931, Alt.=73.016663m. Speed=0.504000m/h.</desc>
<speed>0.140000</speed>
</trkpt>
<trkpt lat="22.050491" lon="104.667938">
<ele>73.196350</ele>
<time>2011-04-28T06:11:04Z</time>
<desc>lat.=22.050491, lon.=104.667938, Alt.=73.196350m. Speed=0.396000m/h.</desc>
<speed>0.110000</speed>
</trkpt>
<trkpt lat="22.050488" lon="104.667938">
<ele>73.340881</ele>
<time>2011-04-28T06:11:09Z</time>
<desc>lat.=22.050488, lon.=104.667938, Alt.=73.340881m. Speed=0.468000m/h.</desc>
<speed>0.130000</speed>
</trkpt>
<trkpt lat="22.050484" lon="104.667946">
<ele>73.460022</ele>
<time>2011-04-28T06:11:14Z</time>
<desc>lat.=22.050484, lon.=104.667946, Alt.=73.460022m. Speed=0.648000m/h.</desc>
<speed>0.180000</speed>
</trkpt>
<trkpt lat="22.050478" lon="104.667953">
<ele>73.555725</ele>
<time>2011-04-28T06:11:19Z</time>
<desc>lat.=22.050478, lon.=104.667953, Alt.=73.555725m. Speed=0.504000m/h.</desc>
<speed>0.140000</speed>
</trkpt>
<trkpt lat="22.050476" lon="104.667953">
<ele>73.616272</ele>
<time>2011-04-28T06:11:24Z</time>
<desc>lat.=22.050476, lon.=104.667953, Alt.=73.616272m. Speed=0.036000m/h.</desc>
<speed>0.010000</speed>
</trkpt>
<trkpt lat="22.050476" lon="104.667953">
<ele>73.622131</ele>
<time>2011-04-28T06:11:29Z</time>
<desc>lat.=22.050476, lon.=104.667953, Alt.=73.622131m. Speed=0.072000m/h.</desc>
<speed>0.020000</speed>
</trkpt>
<trkpt lat="22.050476" lon="104.667953">
<ele>73.694397</ele>
<time>2011-04-28T06:11:34Z</time>
<desc>lat.=22.050476, lon.=104.667953, Alt.=73.694397m. Speed=0.108000m/h.</desc>
<speed>0.030000</speed>
</trkpt>
<trkpt lat="22.050478" lon="104.667953">
<ele>73.782288</ele>
<time>2011-04-28T06:11:39Z</time>
<desc>lat.=22.050478, lon.=104.667953, Alt.=73.782288m. Speed=0.108000m/h.</desc>
<speed>0.030000</speed>
</trkpt>
<trkpt lat="22.050478" lon="104.667953">
<ele>73.786194</ele>
<time>2011-04-28T06:11:44Z</time>
<desc>lat.=22.050478, lon.=104.667953, Alt.=73.786194m. Speed=0.000000m/h.</desc>
<speed>0.000000</speed>
</trkpt>
<trkpt lat="22.050478" lon="104.667953">
<ele>73.831116</ele>
<time>2011-04-28T06:11:49Z</time>
<desc>lat.=22.050478, lon.=104.667953, Alt.=73.831116m. Speed=0.072000m/h.</desc>
<speed>0.020000</speed>
</trkpt>
<trkpt lat="22.050476" lon="104.667953">
<ele>73.907288</ele>
<time>2011-04-28T06:11:54Z</time>
<desc>lat.=22.050476, lon.=104.667953, Alt.=73.907288m. Speed=0.216000m/h.</desc>
<speed>0.060000</speed>
</trkpt>
<trkpt lat="22.050476" lon="104.667946">
<ele>73.954163</ele>
<time>2011-04-28T06:11:59Z</time>
<desc>lat.=22.050476, lon.=104.667946, Alt.=73.954163m. Speed=0.252000m/h.</desc>
<speed>0.070000</speed>
</trkpt>
<trkpt lat="22.050474" lon="104.667953">
<ele>73.973694</ele>
<time>2011-04-28T06:12:04Z</time>
<desc>lat.=22.050474, lon.=104.667953, Alt.=73.973694m. Speed=0.612000m/h.</desc>
<speed>0.170000</speed>
</trkpt>
<trkpt lat="22.050470" lon="104.667961">
<ele>74.026428</ele>
<time>2011-04-28T06:12:09Z</time>
<desc>lat.=22.050470, lon.=104.667961, Alt.=74.026428m. Speed=0.396000m/h.</desc>
<speed>0.110000</speed>
</trkpt>
<trkpt lat="22.050467" lon="104.667969">
<ele>74.276428</ele>
<time>2011-04-28T06:12:14Z</time>
<desc>lat.=22.050467, lon.=104.667969, Alt.=74.276428m. Speed=0.324000m/h.</desc>
<speed>0.090000</speed>
</trkpt>
<trkpt lat="22.050463" lon="104.667969">
<ele>74.690491</ele>
<time>2011-04-28T06:12:19Z</time>
<desc>lat.=22.050463, lon.=104.667969, Alt.=74.690491m. Speed=0.468000m/h.</desc>
<speed>0.130000</speed>
</trkpt>
<trkpt lat="22.050459" lon="104.667969">
<ele>75.167053</ele>
<time>2011-04-28T06:12:24Z</time>
<desc>lat.=22.050459, lon.=104.667969, Alt.=75.167053m. Speed=0.000000m/h.</desc>
<speed>0.000000</speed>
</trkpt>
<trkpt lat="22.050459" lon="104.667969">
<ele>75.690491</ele>
<time>2011-04-28T06:12:29Z</time>
<desc>lat.=22.050459, lon.=104.667969, Alt.=75.690491m. Speed=0.036000m/h.</desc>
<speed>0.010000</speed>
</trkpt>
<trkpt lat="22.050459" lon="104.667969">
<ele>76.118225</ele>
<time>2011-04-28T06:12:34Z</time>
<desc>lat.=22.050459, lon.=104.667969, Alt.=76.118225m. Speed=0.072000m/h.</desc>
<speed>0.020000</speed>
</trkpt>
<trkpt lat="22.050461" lon="104.667969">
<ele>76.458069</ele>
<time>2011-04-28T06:12:39Z</time>
<desc>lat.=22.050461, lon.=104.667969, Alt.=76.458069m. Speed=0.144000m/h.</desc>
<speed>0.040000</speed>
</trkpt>
<trkpt lat="22.050461" lon="104.667969">
<ele>76.422913</ele>
<time>2011-04-28T06:12:44Z</time>
<desc>lat.=22.050461, lon.=104.667969, Alt.=76.422913m. Speed=0.072000m/h.</desc>
<speed>0.020000</speed>
</trkpt>
<trkpt lat="22.050461" lon="104.667961">
<ele>76.350647</ele>
<time>2011-04-28T06:12:49Z</time>
<desc>lat.=22.050461, lon.=104.667961, Alt.=76.350647m. Speed=0.252000m/h.</desc>
<speed>0.070000</speed>
</trkpt>
<trkpt lat="22.050465" lon="104.667961">
<ele>76.270569</ele>
<time>2011-04-28T06:12:54Z</time>
<desc>lat.=22.050465, lon.=104.667961, Alt.=76.270569m. Speed=0.432000m/h.</desc>
<speed>0.120000</speed>
</trkpt>
<trkpt lat="22.050468" lon="104.667953">
<ele>76.391663</ele>
<time>2011-04-28T06:12:59Z</time>
<desc>lat.=22.050468, lon.=104.667953, Alt.=76.391663m. Speed=0.540000m/h.</desc>
<speed>0.150000</speed>
</trkpt>
<trkpt lat="22.050474" lon="104.667953">
<ele>76.809631</ele>
<time>2011-04-28T06:13:04Z</time>
<desc>lat.=22.050474, lon.=104.667953, Alt.=76.809631m. Speed=0.540000m/h.</desc>
<speed>0.150000</speed>
</trkpt>
<trkpt lat="22.050480" lon="104.667946">
<ele>77.522522</ele>
<time>2011-04-28T06:13:09Z</time>
<desc>lat.=22.050480, lon.=104.667946, Alt.=77.522522m. Speed=0.324000m/h.</desc>
<speed>0.090000</speed>
</trkpt>
<trkpt lat="22.050484" lon="104.667946">
<ele>78.342834</ele>
<time>2011-04-28T06:13:14Z</time>
<desc>lat.=22.050484, lon.=104.667946, Alt.=78.342834m. Speed=0.468000m/h.</desc>
<speed>0.130000</speed>
</trkpt>
<trkpt lat="22.050489" lon="104.667953">
<ele>79.055725</ele>
<time>2011-04-28T06:13:19Z</time>
<desc>lat.=22.050489, lon.=104.667953, Alt.=79.055725m. Speed=0.504000m/h.</desc>
<speed>0.140000</speed>
</trkpt>
<trkpt lat="22.050495" lon="104.667953">
<ele>79.706116</ele>
<time>2011-04-28T06:13:24Z</time>
<desc>lat.=22.050495, lon.=104.667953, Alt.=79.706116m. Speed=0.468000m/h.</desc>
<speed>0.130000</speed>
</trkpt>
<trkpt lat="22.050501" lon="104.667953">
<ele>80.348694</ele>
<time>2011-04-28T06:13:29Z</time>
<desc>lat.=22.050501, lon.=104.667953, Alt.=80.348694m. Speed=0.324000m/h.</desc>
<speed>0.090000</speed>
</trkpt>
<trkpt lat="22.050503" lon="104.667946">
<ele>80.967834</ele>
<time>2011-04-28T06:13:34Z</time>
<desc>lat.=22.050503, lon.=104.667946, Alt.=80.967834m. Speed=0.324000m/h.</desc>
<speed>0.090000</speed>
</trkpt>
<trkpt lat="22.050505" lon="104.667946">
<ele>81.553772</ele>
<time>2011-04-28T06:13:39Z</time>
<desc>lat.=22.050505, lon.=104.667946, Alt.=81.553772m. Speed=0.432000m/h.</desc>
<speed>0.120000</speed>
</trkpt>
<trkpt lat="22.050510" lon="104.667938">
<ele>81.944397</ele>
<time>2011-04-28T06:13:44Z</time>
<desc>lat.=22.050510, lon.=104.667938, Alt.=81.944397m. Speed=0.864000m/h.</desc>
<speed>0.240000</speed>
</trkpt>
<trkpt lat="22.050518" lon="104.667923">
<ele>82.200256</ele>
<time>2011-04-28T06:13:49Z</time>
<desc>lat.=22.050518, lon.=104.667923, Alt.=82.200256m. Speed=0.720000m/h.</desc>
<speed>0.200000</speed>
</trkpt>
<trkpt lat="22.050522" lon="104.667915">
<ele>82.331116</ele>
<time>2011-04-28T06:13:54Z</time>
<desc>lat.=22.050522, lon.=104.667915, Alt.=82.331116m. Speed=0.360000m/h.</desc>
<speed>0.100000</speed>
</trkpt>
<trkpt lat="22.050524" lon="104.667915">
<ele>82.311584</ele>
<time>2011-04-28T06:13:59Z</time>
<desc>lat.=22.050524, lon.=104.667915, Alt.=82.311584m. Speed=0.144000m/h.</desc>
<speed>0.040000</speed>
</trkpt>
<trkpt lat="22.050526" lon="104.667908">
<ele>82.213928</ele>
<time>2011-04-28T06:14:04Z</time>
<desc>lat.=22.050526, lon.=104.667908, Alt.=82.213928m. Speed=0.216000m/h.</desc>
<speed>0.060000</speed>
</trkpt>
<trkpt lat="22.050528" lon="104.667908">
<ele>82.090881</ele>
<time>2011-04-28T06:14:09Z</time>
<desc>lat.=22.050528, lon.=104.667908, Alt.=82.090881m. Speed=0.360000m/h.</desc>
<speed>0.100000</speed>
</trkpt>
<trkpt lat="22.050529" lon="104.667900">
<ele>81.954163</ele>
<time>2011-04-28T06:14:14Z</time>
<desc>lat.=22.050529, lon.=104.667900, Alt.=81.954163m. Speed=0.540000m/h.</desc>
<speed>0.150000</speed>
</trkpt>
<trkpt lat="22.050531" lon="104.667892">
<ele>81.831116</ele>
<time>2011-04-28T06:14:19Z</time>
<desc>lat.=22.050531, lon.=104.667892, Alt.=81.831116m. Speed=0.504000m/h.</desc>
<speed>0.140000</speed>
</trkpt>
<trkpt lat="22.050535" lon="104.667892">
<ele>81.729553</ele>
<time>2011-04-28T06:14:24Z</time>
<desc>lat.=22.050535, lon.=104.667892, Alt.=81.729553m. Speed=0.216000m/h.</desc>
<speed>0.060000</speed>
</trkpt>
<trkpt lat="22.050535" lon="104.667885">
<ele>81.653381</ele>
<time>2011-04-28T06:14:29Z</time>
<desc>lat.=22.050535, lon.=104.667885, Alt.=81.653381m. Speed=0.072000m/h.</desc>
<speed>0.020000</speed>
</trkpt>
<trkpt lat="22.050535" lon="104.667885">
<ele>81.627991</ele>
<time>2011-04-28T06:14:34Z</time>
<desc>lat.=22.050535, lon.=104.667885, Alt.=81.627991m. Speed=0.000000m/h.</desc>
<speed>0.000000</speed>
</trkpt>
<trkpt lat="22.050535" lon="104.667885">
<ele>81.672913</ele>
<time>2011-04-28T06:14:39Z</time>
<desc>lat.=22.050535, lon.=104.667885, Alt.=81.672913m. Speed=0.036000m/h.</desc>
<speed>0.010000</speed>
</trkpt>
<trkpt lat="22.050537" lon="104.667885">
<ele>81.870178</ele>
<time>2011-04-28T06:14:44Z</time>
<desc>lat.=22.050537, lon.=104.667885, Alt.=81.870178m. Speed=0.108000m/h.</desc>
<speed>0.030000</speed>
</trkpt>
<trkpt lat="22.050535" lon="104.667885">
<ele>82.137756</ele>
<time>2011-04-28T06:14:49Z</time>
<desc>lat.=22.050535, lon.=104.667885, Alt.=82.137756m. Speed=0.468000m/h.</desc>
<speed>0.130000</speed>
</trkpt>
<trkpt lat="22.050529" lon="104.667892">
<ele>82.456116</ele>
<time>2011-04-28T06:14:54Z</time>
<desc>lat.=22.050529, lon.=104.667892, Alt.=82.456116m. Speed=0.792000m/h.</desc>
<speed>0.220000</speed>
</trkpt>
<trkpt lat="22.050520" lon="104.667900">
<ele>82.809631</ele>
<time>2011-04-28T06:14:59Z</time>
<desc>lat.=22.050520, lon.=104.667900, Alt.=82.809631m. Speed=1.044000m/h.</desc>
<speed>0.290000</speed>
</trkpt>
<trkpt lat="22.050503" lon="104.667915">
<ele>82.680725</ele>
<time>2011-04-28T06:15:04Z</time>
<desc>lat.=22.050503, lon.=104.667915, Alt.=82.680725m. Speed=1.008000m/h.</desc>
<speed>0.280000</speed>
</trkpt>
<trkpt lat="22.050491" lon="104.667923">
<ele>82.850647</ele>
<time>2011-04-28T06:15:09Z</time>
<desc>lat.=22.050491, lon.=104.667923, Alt.=82.850647m. Speed=0.900000m/h.</desc>
<speed>0.250000</speed>
</trkpt>
<trkpt lat="22.050482" lon="104.667931">
<ele>83.202209</ele>
<time>2011-04-28T06:15:14Z</time>
<desc>lat.=22.050482, lon.=104.667931, Alt.=83.202209m. Speed=0.900000m/h.</desc>
<speed>0.250000</speed>
</trkpt>
<trkpt lat="22.050472" lon="104.667931">
<ele>83.522522</ele>
<time>2011-04-28T06:15:19Z</time>
<desc>lat.=22.050472, lon.=104.667931, Alt.=83.522522m. Speed=0.468000m/h.</desc>
<speed>0.130000</speed>
</trkpt>
<trkpt lat="22.050470" lon="104.667931">
<ele>83.803772</ele>
<time>2011-04-28T06:15:24Z</time>
<desc>lat.=22.050470, lon.=104.667931, Alt.=83.803772m. Speed=0.216000m/h.</desc>
<speed>0.060000</speed>
</trkpt>
<trkpt lat="22.050470" lon="104.667931">
<ele>84.063538</ele>
<time>2011-04-28T06:15:29Z</time>
<desc>lat.=22.050470, lon.=104.667931, Alt.=84.063538m. Speed=0.108000m/h.</desc>
<speed>0.030000</speed>
</trkpt>
<trkpt lat="22.050470" lon="104.667931">
<ele>84.307678</ele>
<time>2011-04-28T06:15:34Z</time>
<desc>lat.=22.050470, lon.=104.667931, Alt.=84.307678m. Speed=0.216000m/h.</desc>
<speed>0.060000</speed>
</trkpt>
<trkpt lat="22.050467" lon="104.667931">
<ele>84.516663</ele>
<time>2011-04-28T06:15:39Z</time>
<desc>lat.=22.050467, lon.=104.667931, Alt.=84.516663m. Speed=0.324000m/h.</desc>
<speed>0.090000</speed>
</trkpt>
<trkpt lat="22.050461" lon="104.667938">
<ele>84.711975</ele>
<time>2011-04-28T06:15:44Z</time>
<desc>lat.=22.050461, lon.=104.667938, Alt.=84.711975m. Speed=0.792000m/h.</desc>
<speed>0.220000</speed>
</trkpt>
<trkpt lat="22.050444" lon="104.667953">
<ele>84.778381</ele>
<time>2011-04-28T06:15:49Z</time>
<desc>lat.=22.050444, lon.=104.667953, Alt.=84.778381m. Speed=1.188000m/h.</desc>
<speed>0.330000</speed>
</trkpt>
<trkpt lat="22.050404" lon="104.667961">
<ele>85.204163</ele>
<time>2011-04-28T06:15:54Z</time>
<desc>lat.=22.050404, lon.=104.667961, Alt.=85.204163m. Speed=1.188000m/h.</desc>
<speed>0.330000</speed>
</trkpt>
<trkpt lat="22.050388" lon="104.667953">
<ele>85.565491</ele>
<time>2011-04-28T06:15:59Z</time>
<desc>lat.=22.050388, lon.=104.667953, Alt.=85.565491m. Speed=0.144000m/h.</desc>
<speed>0.040000</speed>
</trkpt>
<trkpt lat="22.050388" lon="104.667953">
<ele>85.688538</ele>
<time>2011-04-28T06:16:04Z</time>
<desc>lat.=22.050388, lon.=104.667953, Alt.=85.688538m. Speed=0.072000m/h.</desc>
<speed>0.020000</speed>
</trkpt>
<trkpt lat="22.050390" lon="104.667953">
<ele>85.891663</ele>
<time>2011-04-28T06:16:09Z</time>
<desc>lat.=22.050390, lon.=104.667953, Alt.=85.891663m. Speed=0.072000m/h.</desc>
<speed>0.020000</speed>
</trkpt>
<trkpt lat="22.050390" lon="104.667953">
<ele>86.122131</ele>
<time>2011-04-28T06:16:14Z</time>
<desc>lat.=22.050390, lon.=104.667953, Alt.=86.122131m. Speed=0.144000m/h.</desc>
<speed>0.040000</speed>
</trkpt>
<trkpt lat="22.050392" lon="104.667953">
<ele>86.389709</ele>
<time>2011-04-28T06:16:19Z</time>
<desc>lat.=22.050392, lon.=104.667953, Alt.=86.389709m. Speed=0.072000m/h.</desc>
<speed>0.020000</speed>
</trkpt>
<trkpt lat="22.050394" lon="104.667953">
<ele>86.672913</ele>
<time>2011-04-28T06:16:24Z</time>
<desc>lat.=22.050394, lon.=104.667953, Alt.=86.672913m. Speed=0.144000m/h.</desc>
<speed>0.040000</speed>
</trkpt>
<trkpt lat="22.050396" lon="104.667946">
<ele>86.973694</ele>
<time>2011-04-28T06:16:29Z</time>
<desc>lat.=22.050396, lon.=104.667946, Alt.=86.973694m. Speed=0.180000m/h.</desc>
<speed>0.050000</speed>
</trkpt>
<trkpt lat="22.050396" lon="104.667946">
<ele>87.313538</ele>
<time>2011-04-28T06:16:34Z</time>
<desc>lat.=22.050396, lon.=104.667946, Alt.=87.313538m. Speed=0.108000m/h.</desc>
<speed>0.030000</speed>
</trkpt>
<trkpt lat="22.050394" lon="104.667953">
<ele>87.872131</ele>
<time>2011-04-28T06:16:39Z</time>
<desc>lat.=22.050394, lon.=104.667953, Alt.=87.872131m. Speed=0.396000m/h.</desc>
<speed>0.110000</speed>
</trkpt>
<trkpt lat="22.050386" lon="104.667953">
<ele>88.549866</ele>
<time>2011-04-28T06:16:44Z</time>
<desc>lat.=22.050386, lon.=104.667953, Alt.=88.549866m. Speed=0.900000m/h.</desc>
<speed>0.250000</speed>
</trkpt>
<trkpt lat="22.050379" lon="104.667961">
<ele>89.350647</ele>
<time>2011-04-28T06:16:49Z</time>
<desc>lat.=22.050379, lon.=104.667961, Alt.=89.350647m. Speed=0.648000m/h.</desc>
<speed>0.180000</speed>
</trkpt>
<trkpt lat="22.050375" lon="104.667969">
<ele>90.243225</ele>
<time>2011-04-28T06:16:54Z</time>
<desc>lat.=22.050375, lon.=104.667969, Alt.=90.243225m. Speed=0.036000m/h.</desc>
<speed>0.010000</speed>
</trkpt>
<trkpt lat="22.050377" lon="104.667969">
<ele>91.247131</ele>
<time>2011-04-28T06:16:59Z</time>
<desc>lat.=22.050377, lon.=104.667969, Alt.=91.247131m. Speed=0.144000m/h.</desc>
<speed>0.040000</speed>
</trkpt>
<trkpt lat="22.050379" lon="104.667969">
<ele>92.379944</ele>
<time>2011-04-28T06:17:04Z</time>
<desc>lat.=22.050379, lon.=104.667969, Alt.=92.379944m. Speed=0.324000m/h.</desc>
<speed>0.090000</speed>
</trkpt>
<trkpt lat="22.050385" lon="104.667969">
<ele>93.618225</ele>
<time>2011-04-28T06:17:09Z</time>
<desc>lat.=22.050385, lon.=104.667969, Alt.=93.618225m. Speed=0.360000m/h.</desc>
<speed>0.100000</speed>
</trkpt>
<trkpt lat="22.050388" lon="104.667961">
<ele>94.846741</ele>
<time>2011-04-28T06:17:14Z</time>
<desc>lat.=22.050388, lon.=104.667961, Alt.=94.846741m. Speed=0.252000m/h.</desc>
<speed>0.070000</speed>
</trkpt>
<trkpt lat="22.050390" lon="104.667961">
<ele>96.055725</ele>
<time>2011-04-28T06:17:19Z</time>
<desc>lat.=22.050390, lon.=104.667961, Alt.=96.055725m. Speed=0.252000m/h.</desc>
<speed>0.070000</speed>
</trkpt>
<trkpt lat="22.050394" lon="104.667961">
<ele>97.307678</ele>
<time>2011-04-28T06:17:24Z</time>
<desc>lat.=22.050394, lon.=104.667961, Alt.=97.307678m. Speed=0.144000m/h.</desc>
<speed>0.040000</speed>
</trkpt>
<trkpt lat="22.050394" lon="104.667961">
<ele>98.524475</ele>
<time>2011-04-28T06:17:29Z</time>
<desc>lat.=22.050394, lon.=104.667961, Alt.=98.524475m. Speed=0.072000m/h.</desc>
<speed>0.020000</speed>
</trkpt>
<trkpt lat="22.050392" lon="104.667961">
<ele>99.708069</ele>
<time>2011-04-28T06:17:34Z</time>
<desc>lat.=22.050392, lon.=104.667961, Alt.=99.708069m. Speed=0.324000m/h.</desc>
<speed>0.090000</speed>
</trkpt>
<trkpt lat="22.050390" lon="104.667961">
<ele>100.905334</ele>
<time>2011-04-28T06:17:39Z</time>
<desc>lat.=22.050390, lon.=104.667961, Alt.=100.905334m. Speed=0.036000m/h.</desc>
<speed>0.010000</speed>
</trkpt>
<trkpt lat="22.050390" lon="104.667961">
<ele>102.014709</ele>
<time>2011-04-28T06:17:44Z</time>
<desc>lat.=22.050390, lon.=104.667961, Alt.=102.014709m. Speed=0.144000m/h.</desc>
<speed>0.040000</speed>
</trkpt>
<trkpt lat="22.050392" lon="104.667961">
<ele>102.985413</ele>
<time>2011-04-28T06:17:49Z</time>
<desc>lat.=22.050392, lon.=104.667961, Alt.=102.985413m. Speed=0.000000m/h.</desc>
<speed>0.000000</speed>
</trkpt>
<trkpt lat="22.050390" lon="104.667961">
<ele>103.858459</ele>
<time>2011-04-28T06:17:54Z</time>
<desc>lat.=22.050390, lon.=104.667961, Alt.=103.858459m. Speed=0.108000m/h.</desc>
<speed>0.030000</speed>
</trkpt>
<trkpt lat="22.050390" lon="104.667961">
<ele>104.676819</ele>
<time>2011-04-28T06:17:59Z</time>
<desc>lat.=22.050390, lon.=104.667961, Alt.=104.676819m. Speed=0.036000m/h.</desc>
<speed>0.010000</speed>
</trkpt>
<trkpt lat="22.050388" lon="104.667961">
<ele>105.563538</ele>
<time>2011-04-28T06:18:04Z</time>
<desc>lat.=22.050388, lon.=104.667961, Alt.=105.563538m. Speed=0.180000m/h.</desc>
<speed>0.050000</speed>
</trkpt>
<trkpt lat="22.050388" lon="104.667969">
<ele>106.674866</ele>
<time>2011-04-28T06:18:09Z</time>
<desc>lat.=22.050388, lon.=104.667969, Alt.=106.674866m. Speed=0.144000m/h.</desc>
<speed>0.040000</speed>
</trkpt>
<trkpt lat="22.050386" lon="104.667969">
<ele>107.961975</ele>
<time>2011-04-28T06:18:14Z</time>
<desc>lat.=22.050386, lon.=104.667969, Alt.=107.961975m. Speed=0.036000m/h.</desc>
<speed>0.010000</speed>
</trkpt>
<trkpt lat="22.050386" lon="104.667969">
<ele>109.340881</ele>
<time>2011-04-28T06:18:19Z</time>
<desc>lat.=22.050386, lon.=104.667969, Alt.=109.340881m. Speed=0.072000m/h.</desc>
<speed>0.020000</speed>
</trkpt>
<trkpt lat="22.050386" lon="104.667969">
<ele>110.702209</ele>
<time>2011-04-28T06:18:24Z</time>
<desc>lat.=22.050386, lon.=104.667969, Alt.=110.702209m. Speed=0.072000m/h.</desc>
<speed>0.020000</speed>
</trkpt>
<trkpt lat="22.050386" lon="104.667961">
<ele>111.987366</ele>
<time>2011-04-28T06:18:29Z</time>
<desc>lat.=22.050386, lon.=104.667961, Alt.=111.987366m. Speed=0.144000m/h.</desc>
<speed>0.040000</speed>
</trkpt>
<trkpt lat="22.050386" lon="104.667961">
<ele>113.243225</ele>
<time>2011-04-28T06:18:34Z</time>
<desc>lat.=22.050386, lon.=104.667961, Alt.=113.243225m. Speed=0.180000m/h.</desc>
<speed>0.050000</speed>
</trkpt>
<trkpt lat="22.050390" lon="104.667961">
<ele>114.456116</ele>
<time>2011-04-28T06:18:39Z</time>
<desc>lat.=22.050390, lon.=104.667961, Alt.=114.456116m. Speed=0.432000m/h.</desc>
<speed>0.120000</speed>
</trkpt>
<trkpt lat="22.050398" lon="104.667961">
<ele>115.616272</ele>
<time>2011-04-28T06:18:44Z</time>
<desc>lat.=22.050398, lon.=104.667961, Alt.=115.616272m. Speed=0.684000m/h.</desc>
<speed>0.190000</speed>
</trkpt>
<trkpt lat="22.050407" lon="104.667961">
<ele>116.762756</ele>
<time>2011-04-28T06:18:49Z</time>
<desc>lat.=22.050407, lon.=104.667961, Alt.=116.762756m. Speed=0.900000m/h.</desc>
<speed>0.250000</speed>
</trkpt>
<trkpt lat="22.050419" lon="104.667961">
<ele>117.905334</ele>
<time>2011-04-28T06:18:54Z</time>
<desc>lat.=22.050419, lon.=104.667961, Alt.=117.905334m. Speed=0.972000m/h.</desc>
<speed>0.270000</speed>
</trkpt>
<trkpt lat="22.050432" lon="104.667961">
<ele>118.975647</ele>
<time>2011-04-28T06:18:59Z</time>
<desc>lat.=22.050432, lon.=104.667961, Alt.=118.975647m. Speed=0.936000m/h.</desc>
<speed>0.260000</speed>
</trkpt>
<trkpt lat="22.050459" lon="104.667953">
<ele>119.795959</ele>
<time>2011-04-28T06:19:04Z</time>
<desc>lat.=22.050459, lon.=104.667953, Alt.=119.795959m. Speed=0.936000m/h.</desc>
<speed>0.260000</speed>
</trkpt>
<trkpt lat="22.050467" lon="104.667953">
<ele>120.489319</ele>
<time>2011-04-28T06:19:09Z</time>
<desc>lat.=22.050467, lon.=104.667953, Alt.=120.489319m. Speed=0.432000m/h.</desc>
<speed>0.120000</speed>
</trkpt>
<trkpt lat="22.050472" lon="104.667946">
<ele>121.391663</ele>
<time>2011-04-28T06:19:14Z</time>
<desc>lat.=22.050472, lon.=104.667946, Alt.=121.391663m. Speed=0.360000m/h.</desc>
<speed>0.100000</speed>
</trkpt>
<trkpt lat="22.050474" lon="104.667946">
<ele>122.188538</ele>
<time>2011-04-28T06:19:19Z</time>
<desc>lat.=22.050474, lon.=104.667946, Alt.=122.188538m. Speed=0.144000m/h.</desc>
<speed>0.040000</speed>
</trkpt>
<trkpt lat="22.050474" lon="104.667946">
<ele>122.856506</ele>
<time>2011-04-28T06:19:24Z</time>
<desc>lat.=22.050474, lon.=104.667946, Alt.=122.856506m. Speed=0.144000m/h.</desc>
<speed>0.040000</speed>
</trkpt>
<trkpt lat="22.050472" lon="104.667946">
<ele>123.442444</ele>
<time>2011-04-28T06:19:29Z</time>
<desc>lat.=22.050472, lon.=104.667946, Alt.=123.442444m. Speed=0.036000m/h.</desc>
<speed>0.010000</speed>
</trkpt>
<trkpt lat="22.050472" lon="104.667946">
<ele>123.864319</ele>
<time>2011-04-28T06:19:34Z</time>
<desc>lat.=22.050472, lon.=104.667946, Alt.=123.864319m. Speed=0.108000m/h.</desc>
<speed>0.030000</speed>
</trkpt>
<trkpt lat="22.050474" lon="104.667953">
<ele>123.913147</ele>
<time>2011-04-28T06:19:39Z</time>
<desc>lat.=22.050474, lon.=104.667953, Alt.=123.913147m. Speed=0.000000m/h.</desc>
<speed>0.000000</speed>
</trkpt>
<trkpt lat="22.050472" lon="104.667953">
<ele>123.782288</ele>
<time>2011-04-28T06:19:44Z</time>
<desc>lat.=22.050472, lon.=104.667953, Alt.=123.782288m. Speed=0.036000m/h.</desc>
<speed>0.010000</speed>
</trkpt>
<trkpt lat="22.050472" lon="104.667953">
<ele>123.698303</ele>
<time>2011-04-28T06:19:49Z</time>
<desc>lat.=22.050472, lon.=104.667953, Alt.=123.698303m. Speed=0.036000m/h.</desc>
<speed>0.010000</speed>
</trkpt>
<trkpt lat="22.050472" lon="104.667946">
<ele>123.669006</ele>
<time>2011-04-28T06:19:54Z</time>
<desc>lat.=22.050472, lon.=104.667946, Alt.=123.669006m. Speed=0.000000m/h.</desc>
<speed>0.000000</speed>
</trkpt>
<trkpt lat="22.050472" lon="104.667946">
<ele>123.637756</ele>
<time>2011-04-28T06:19:59Z</time>
<desc>lat.=22.050472, lon.=104.667946, Alt.=123.637756m. Speed=0.000000m/h.</desc>
<speed>0.000000</speed>
</trkpt>
<trkpt lat="22.050472" lon="104.667946">
<ele>123.586975</ele>
<time>2011-04-28T06:20:04Z</time>
<desc>lat.=22.050472, lon.=104.667946, Alt.=123.586975m. Speed=0.036000m/h.</desc>
<speed>0.010000</speed>
</trkpt>
<trkpt lat="22.050472" lon="104.667946">
<ele>123.522522</ele>
<time>2011-04-28T06:20:09Z</time>
<desc>lat.=22.050472, lon.=104.667946, Alt.=123.522522m. Speed=0.000000m/h.</desc>
<speed>0.000000</speed>
</trkpt>
<trkpt lat="22.050472" lon="104.667946">
<ele>123.458069</ele>
<time>2011-04-28T06:20:14Z</time>
<desc>lat.=22.050472, lon.=104.667946, Alt.=123.458069m. Speed=0.036000m/h.</desc>
<speed>0.010000</speed>
</trkpt>
<trkpt lat="22.050472" lon="104.667946">
<ele>123.438538</ele>
<time>2011-04-28T06:20:19Z</time>
<desc>lat.=22.050472, lon.=104.667946, Alt.=123.438538m. Speed=0.000000m/h.</desc>
<speed>0.000000</speed>
</trkpt>
<trkpt lat="22.050472" lon="104.667946">
<ele>123.415100</ele>
<time>2011-04-28T06:20:24Z</time>
<desc>lat.=22.050472, lon.=104.667946, Alt.=123.415100m. Speed=0.000000m/h.</desc>
<speed>0.000000</speed>
</trkpt>
<trkpt lat="22.050472" lon="104.667946">
<ele>123.405334</ele>
<time>2011-04-28T06:20:29Z</time>
<desc>lat.=22.050472, lon.=104.667946, Alt.=123.405334m. Speed=0.000000m/h.</desc>
<speed>0.000000</speed>
</trkpt>
<trkpt lat="22.050472" lon="104.667946">
<ele>123.372131</ele>
<time>2011-04-28T06:20:34Z</time>
<desc>lat.=22.050472, lon.=104.667946, Alt.=123.372131m. Speed=0.036000m/h.</desc>
<speed>0.010000</speed>
</trkpt>
<trkpt lat="22.050472" lon="104.667946">
<ele>123.305725</ele>
<time>2011-04-28T06:20:39Z</time>
<desc>lat.=22.050472, lon.=104.667946, Alt.=123.305725m. Speed=0.000000m/h.</desc>
<speed>0.000000</speed>
</trkpt>
<trkpt lat="22.050472" lon="104.667946">
<ele>123.251038</ele>
<time>2011-04-28T06:20:44Z</time>
<desc>lat.=22.050472, lon.=104.667946, Alt.=123.251038m. Speed=0.072000m/h.</desc>
<speed>0.020000</speed>
</trkpt>
<trkpt lat="22.050472" lon="104.667946">
<ele>123.206116</ele>
<time>2011-04-28T06:20:49Z</time>
<desc>lat.=22.050472, lon.=104.667946, Alt.=123.206116m. Speed=0.036000m/h.</desc>
<speed>0.010000</speed>
</trkpt>
<trkpt lat="22.050472" lon="104.667946">
<ele>123.169006</ele>
<time>2011-04-28T06:20:54Z</time>
<desc>lat.=22.050472, lon.=104.667946, Alt.=123.169006m. Speed=0.036000m/h.</desc>
<speed>0.010000</speed>
</trkpt>
<trkpt lat="22.050472" lon="104.667953">
<ele>123.170959</ele>
<time>2011-04-28T06:20:59Z</time>
<desc>lat.=22.050472, lon.=104.667953, Alt.=123.170959m. Speed=0.036000m/h.</desc>
<speed>0.010000</speed>
</trkpt>
<trkpt lat="22.050472" lon="104.667953">
<ele>123.165100</ele>
<time>2011-04-28T06:21:04Z</time>
<desc>lat.=22.050472, lon.=104.667953, Alt.=123.165100m. Speed=0.000000m/h.</desc>
<speed>0.000000</speed>
</trkpt>
<trkpt lat="22.050472" lon="104.667953">
<ele>123.114319</ele>
<time>2011-04-28T06:21:09Z</time>
<desc>lat.=22.050472, lon.=104.667953, Alt.=123.114319m. Speed=0.036000m/h.</desc>
<speed>0.010000</speed>
</trkpt>
<trkpt lat="22.050470" lon="104.667953">
<ele>123.042053</ele>
<time>2011-04-28T06:21:14Z</time>
<desc>lat.=22.050470, lon.=104.667953, Alt.=123.042053m. Speed=0.036000m/h.</desc>
<speed>0.010000</speed>
</trkpt>
<trkpt lat="22.050470" lon="104.667953">
<ele>122.993225</ele>
<time>2011-04-28T06:21:19Z</time>
<desc>lat.=22.050470, lon.=104.667953, Alt.=122.993225m. Speed=0.072000m/h.</desc>
<speed>0.020000</speed>
</trkpt>
<trkpt lat="22.050468" lon="104.667953">
<ele>122.956116</ele>
<time>2011-04-28T06:21:24Z</time>
<desc>lat.=22.050468, lon.=104.667953, Alt.=122.956116m. Speed=0.036000m/h.</desc>
<speed>0.010000</speed>
</trkpt>
<trkpt lat="22.050468" lon="104.667953">
<ele>122.911194</ele>
<time>2011-04-28T06:21:29Z</time>
<desc>lat.=22.050468, lon.=104.667953, Alt.=122.911194m. Speed=0.036000m/h.</desc>
<speed>0.010000</speed>
</trkpt>
<trkpt lat="22.050468" lon="104.667953">
<ele>122.813538</ele>
<time>2011-04-28T06:21:34Z</time>
<desc>lat.=22.050468, lon.=104.667953, Alt.=122.813538m. Speed=0.000000m/h.</desc>
<speed>0.000000</speed>
</trkpt>
<trkpt lat="22.050468" lon="104.667953">
<ele>122.731506</ele>
<time>2011-04-28T06:21:39Z</time>
<desc>lat.=22.050468, lon.=104.667953, Alt.=122.731506m. Speed=0.036000m/h.</desc>
<speed>0.010000</speed>
</trkpt>
<trkpt lat="22.050468" lon="104.667953">
<ele>122.729553</ele>
<time>2011-04-28T06:21:44Z</time>
<desc>lat.=22.050468, lon.=104.667953, Alt.=122.729553m. Speed=0.000000m/h.</desc>
<speed>0.000000</speed>
</trkpt>
<trkpt lat="22.050467" lon="104.667953">
<ele>122.743225</ele>
<time>2011-04-28T06:21:49Z</time>
<desc>lat.=22.050467, lon.=104.667953, Alt.=122.743225m. Speed=0.036000m/h.</desc>
<speed>0.010000</speed>
</trkpt>
<trkpt lat="22.050467" lon="104.667953">
<ele>122.745178</ele>
<time>2011-04-28T06:21:54Z</time>
<desc>lat.=22.050467, lon.=104.667953, Alt.=122.745178m. Speed=0.000000m/h.</desc>
<speed>0.000000</speed>
</trkpt>
<trkpt lat="22.050467" lon="104.667953">
<ele>122.710022</ele>
<time>2011-04-28T06:21:59Z</time>
<desc>lat.=22.050467, lon.=104.667953, Alt.=122.710022m. Speed=0.036000m/h.</desc>
<speed>0.010000</speed>
</trkpt>
<trkpt lat="22.050467" lon="104.667953">
<ele>122.659241</ele>
<time>2011-04-28T06:22:04Z</time>
<desc>lat.=22.050467, lon.=104.667953, Alt.=122.659241m. Speed=0.036000m/h.</desc>
<speed>0.010000</speed>
</trkpt>
<trkpt lat="22.050467" lon="104.667953">
<ele>122.598694</ele>
<time>2011-04-28T06:22:09Z</time>
<desc>lat.=22.050467, lon.=104.667953, Alt.=122.598694m. Speed=0.036000m/h.</desc>
<speed>0.010000</speed>
</trkpt>
<trkpt lat="22.050465" lon="104.667953">
<ele>122.575256</ele>
<time>2011-04-28T06:22:14Z</time>
<desc>lat.=22.050465, lon.=104.667953, Alt.=122.575256m. Speed=0.072000m/h.</desc>
<speed>0.020000</speed>
</trkpt>
<trkpt lat="22.050465" lon="104.667953">
<ele>122.575256</ele>
<time>2011-04-28T06:22:19Z</time>
<desc>lat.=22.050465, lon.=104.667953, Alt.=122.575256m. Speed=0.000000m/h.</desc>
<speed>0.000000</speed>
</trkpt>
<trkpt lat="22.050465" lon="104.667953">
<ele>122.563538</ele>
<time>2011-04-28T06:22:24Z</time>
<desc>lat.=22.050465, lon.=104.667953, Alt.=122.563538m. Speed=0.036000m/h.</desc>
<speed>0.010000</speed>
</trkpt>
<trkpt lat="22.050463" lon="104.667953">
<ele>122.559631</ele>
<time>2011-04-28T06:22:29Z</time>
<desc>lat.=22.050463, lon.=104.667953, Alt.=122.559631m. Speed=0.000000m/h.</desc>
<speed>0.000000</speed>
</trkpt>
<trkpt lat="22.050463" lon="104.667953">
<ele>122.571350</ele>
<time>2011-04-28T06:22:34Z</time>
<desc>lat.=22.050463, lon.=104.667953, Alt.=122.571350m. Speed=0.036000m/h.</desc>
<speed>0.010000</speed>
</trkpt>
<trkpt lat="22.050463" lon="104.667953">
<ele>122.573303</ele>
<time>2011-04-28T06:22:39Z</time>
<desc>lat.=22.050463, lon.=104.667953, Alt.=122.573303m. Speed=0.000000m/h.</desc>
<speed>0.000000</speed>
</trkpt>
<trkpt lat="22.050463" lon="104.667953">
<ele>122.567444</ele>
<time>2011-04-28T06:22:44Z</time>
<desc>lat.=22.050463, lon.=104.667953, Alt.=122.567444m. Speed=0.036000m/h.</desc>
<speed>0.010000</speed>
</trkpt>
<trkpt lat="22.050463" lon="104.667953">
<ele>122.547913</ele>
<time>2011-04-28T06:22:49Z</time>
<desc>lat.=22.050463, lon.=104.667953, Alt.=122.547913m. Speed=0.000000m/h.</desc>
<speed>0.000000</speed>
</trkpt>
<trkpt lat="22.050463" lon="104.667953">
<ele>122.518616</ele>
<time>2011-04-28T06:22:54Z</time>
<desc>lat.=22.050463, lon.=104.667953, Alt.=122.518616m. Speed=0.072000m/h.</desc>
<speed>0.020000</speed>
</trkpt>
<trkpt lat="22.050461" lon="104.667953">
<ele>122.483459</ele>
<time>2011-04-28T06:22:59Z</time>
<desc>lat.=22.050461, lon.=104.667953, Alt.=122.483459m. Speed=0.396000m/h.</desc>
<speed>0.110000</speed>
</trkpt>
<trkpt lat="22.050459" lon="104.667953">
<ele>122.448303</ele>
<time>2011-04-28T06:23:04Z</time>
<desc>lat.=22.050459, lon.=104.667953, Alt.=122.448303m. Speed=0.000000m/h.</desc>
<speed>0.000000</speed>
</trkpt>
<trkpt lat="22.050459" lon="104.667953">
<ele>122.405334</ele>
<time>2011-04-28T06:23:09Z</time>
<desc>lat.=22.050459, lon.=104.667953, Alt.=122.405334m. Speed=0.036000m/h.</desc>
<speed>0.010000</speed>
</trkpt>
<trkpt lat="22.050457" lon="104.667953">
<ele>122.381897</ele>
<time>2011-04-28T06:23:14Z</time>
<desc>lat.=22.050457, lon.=104.667953, Alt.=122.381897m. Speed=0.072000m/h.</desc>
<speed>0.020000</speed>
</trkpt>
<trkpt lat="22.050457" lon="104.667953">
<ele>122.366272</ele>
<time>2011-04-28T06:23:19Z</time>
<desc>lat.=22.050457, lon.=104.667953, Alt.=122.366272m. Speed=0.072000m/h.</desc>
<speed>0.020000</speed>
</trkpt>
<trkpt lat="22.050455" lon="104.667953">
<ele>122.346741</ele>
<time>2011-04-28T06:23:24Z</time>
<desc>lat.=22.050455, lon.=104.667953, Alt.=122.346741m. Speed=0.144000m/h.</desc>
<speed>0.040000</speed>
</trkpt>
<trkpt lat="22.050455" lon="104.667953">
<ele>122.350647</ele>
<time>2011-04-28T06:23:29Z</time>
<desc>lat.=22.050455, lon.=104.667953, Alt.=122.350647m. Speed=0.036000m/h.</desc>
<speed>0.010000</speed>
</trkpt>
<trkpt lat="22.050455" lon="104.667953">
<ele>122.336975</ele>
<time>2011-04-28T06:23:34Z</time>
<desc>lat.=22.050455, lon.=104.667953, Alt.=122.336975m. Speed=0.036000m/h.</desc>
<speed>0.010000</speed>
</trkpt>
<trkpt lat="22.050453" lon="104.667953">
<ele>122.268616</ele>
<time>2011-04-28T06:23:39Z</time>
<desc>lat.=22.050453, lon.=104.667953, Alt.=122.268616m. Speed=0.072000m/h.</desc>
<speed>0.020000</speed>
</trkpt>
<trkpt lat="22.050453" lon="104.667953">
<ele>122.190491</ele>
<time>2011-04-28T06:23:44Z</time>
<desc>lat.=22.050453, lon.=104.667953, Alt.=122.190491m. Speed=0.072000m/h.</desc>
<speed>0.020000</speed>
</trkpt>
<trkpt lat="22.050453" lon="104.667953">
<ele>122.151428</ele>
<time>2011-04-28T06:23:49Z</time>
<desc>lat.=22.050453, lon.=104.667953, Alt.=122.151428m. Speed=0.000000m/h.</desc>
<speed>0.000000</speed>
</trkpt>
<trkpt lat="22.050451" lon="104.667953">
<ele>122.170959</ele>
<time>2011-04-28T06:23:54Z</time>
<desc>lat.=22.050451, lon.=104.667953, Alt.=122.170959m. Speed=0.072000m/h.</desc>
<speed>0.020000</speed>
</trkpt>
<trkpt lat="22.050451" lon="104.667953">
<ele>122.165100</ele>
<time>2011-04-28T06:23:59Z</time>
<desc>lat.=22.050451, lon.=104.667953, Alt.=122.165100m. Speed=0.036000m/h.</desc>
<speed>0.010000</speed>
</trkpt>
<trkpt lat="22.050451" lon="104.667953">
<ele>122.141663</ele>
<time>2011-04-28T06:24:04Z</time>
<desc>lat.=22.050451, lon.=104.667953, Alt.=122.141663m. Speed=0.036000m/h.</desc>
<speed>0.010000</speed>
</trkpt>
<trkpt lat="22.050453" lon="104.667946">
<ele>122.143616</ele>
<time>2011-04-28T06:24:09Z</time>
<desc>lat.=22.050453, lon.=104.667946, Alt.=122.143616m. Speed=0.036000m/h.</desc>
<speed>0.010000</speed>
</trkpt>
<trkpt lat="22.050453" lon="104.667946">
<ele>122.114319</ele>
<time>2011-04-28T06:24:14Z</time>
<desc>lat.=22.050453, lon.=104.667946, Alt.=122.114319m. Speed=0.036000m/h.</desc>
<speed>0.010000</speed>
</trkpt>
<trkpt lat="22.050453" lon="104.667946">
<ele>122.061584</ele>
<time>2011-04-28T06:24:19Z</time>
<desc>lat.=22.050453, lon.=104.667946, Alt.=122.061584m. Speed=0.000000m/h.</desc>
<speed>0.000000</speed>
</trkpt>
<trkpt lat="22.050453" lon="104.667946">
<ele>122.057678</ele>
<time>2011-04-28T06:24:24Z</time>
<desc>lat.=22.050453, lon.=104.667946, Alt.=122.057678m. Speed=0.036000m/h.</desc>
<speed>0.010000</speed>
</trkpt>
<trkpt lat="22.050451" lon="104.667946">
<ele>122.040100</ele>
<time>2011-04-28T06:24:29Z</time>
<desc>lat.=22.050451, lon.=104.667946, Alt.=122.040100m. Speed=0.072000m/h.</desc>
<speed>0.020000</speed>
</trkpt>
<trkpt lat="22.050451" lon="104.667946">
<ele>122.006897</ele>
<time>2011-04-28T06:24:34Z</time>
<desc>lat.=22.050451, lon.=104.667946, Alt.=122.006897m. Speed=0.072000m/h.</desc>
<speed>0.020000</speed>
</trkpt>
<trkpt lat="22.050449" lon="104.667946">
<ele>121.946350</ele>
<time>2011-04-28T06:24:39Z</time>
<desc>lat.=22.050449, lon.=104.667946, Alt.=121.946350m. Speed=0.180000m/h.</desc>
<speed>0.050000</speed>
</trkpt>
<trkpt lat="22.050449" lon="104.667946">
<ele>121.885803</ele>
<time>2011-04-28T06:24:44Z</time>
<desc>lat.=22.050449, lon.=104.667946, Alt.=121.885803m. Speed=0.144000m/h.</desc>
<speed>0.040000</speed>
</trkpt>
<trkpt lat="22.050447" lon="104.667946">
<ele>121.858459</ele>
<time>2011-04-28T06:24:49Z</time>
<desc>lat.=22.050447, lon.=104.667946, Alt.=121.858459m. Speed=0.036000m/h.</desc>
<speed>0.010000</speed>
</trkpt>
<trkpt lat="22.050447" lon="104.667946">
<ele>121.874084</ele>
<time>2011-04-28T06:24:54Z</time>
<desc>lat.=22.050447, lon.=104.667946, Alt.=121.874084m. Speed=0.144000m/h.</desc>
<speed>0.040000</speed>
</trkpt>
<trkpt lat="22.050446" lon="104.667946">
<ele>121.836975</ele>
<time>2011-04-28T06:24:59Z</time>
<desc>lat.=22.050446, lon.=104.667946, Alt.=121.836975m. Speed=0.072000m/h.</desc>
<speed>0.020000</speed>
</trkpt>
<trkpt lat="22.050446" lon="104.667946">
<ele>121.782288</ele>
<time>2011-04-28T06:25:04Z</time>
<desc>lat.=22.050446, lon.=104.667946, Alt.=121.782288m. Speed=0.000000m/h.</desc>
<speed>0.000000</speed>
</trkpt>
<trkpt lat="22.050446" lon="104.667946">
<ele>121.717834</ele>
<time>2011-04-28T06:25:09Z</time>
<desc>lat.=22.050446, lon.=104.667946, Alt.=121.717834m. Speed=0.072000m/h.</desc>
<speed>0.020000</speed>
</trkpt>
<trkpt lat="22.050444" lon="104.667946">
<ele>121.649475</ele>
<time>2011-04-28T06:25:14Z</time>
<desc>lat.=22.050444, lon.=104.667946, Alt.=121.649475m. Speed=0.036000m/h.</desc>
<speed>0.010000</speed>
</trkpt>
<trkpt lat="22.050444" lon="104.667946">
<ele>121.583069</ele>
<time>2011-04-28T06:25:19Z</time>
<desc>lat.=22.050444, lon.=104.667946, Alt.=121.583069m. Speed=0.000000m/h.</desc>
<speed>0.000000</speed>
</trkpt>
<trkpt lat="22.050444" lon="104.667946">
<ele>121.547913</ele>
<time>2011-04-28T06:25:24Z</time>
<desc>lat.=22.050444, lon.=104.667946, Alt.=121.547913m. Speed=0.072000m/h.</desc>
<speed>0.020000</speed>
</trkpt>
<trkpt lat="22.050442" lon="104.667946">
<ele>121.557678</ele>
<time>2011-04-28T06:25:29Z</time>
<desc>lat.=22.050442, lon.=104.667946, Alt.=121.557678m. Speed=0.144000m/h.</desc>
<speed>0.040000</speed>
</trkpt>
<trkpt lat="22.050442" lon="104.667946">
<ele>121.573303</ele>
<time>2011-04-28T06:25:34Z</time>
<desc>lat.=22.050442, lon.=104.667946, Alt.=121.573303m. Speed=0.180000m/h.</desc>
<speed>0.050000</speed>
</trkpt>
<trkpt lat="22.050442" lon="104.667946">
<ele>121.553772</ele>
<time>2011-04-28T06:25:39Z</time>
<desc>lat.=22.050442, lon.=104.667946, Alt.=121.553772m. Speed=0.036000m/h.</desc>
<speed>0.010000</speed>
</trkpt>
<trkpt lat="22.050442" lon="104.667946">
<ele>121.514709</ele>
<time>2011-04-28T06:25:44Z</time>
<desc>lat.=22.050442, lon.=104.667946, Alt.=121.514709m. Speed=0.036000m/h.</desc>
<speed>0.010000</speed>
</trkpt>
<trkpt lat="22.050442" lon="104.667946">
<ele>121.499084</ele>
<time>2011-04-28T06:25:49Z</time>
<desc>lat.=22.050442, lon.=104.667946, Alt.=121.499084m. Speed=0.252000m/h.</desc>
<speed>0.070000</speed>
</trkpt>
<trkpt lat="22.050444" lon="104.667946">
<ele>121.561584</ele>
<time>2011-04-28T06:25:54Z</time>
<desc>lat.=22.050444, lon.=104.667946, Alt.=121.561584m. Speed=0.252000m/h.</desc>
<speed>0.070000</speed>
</trkpt>
<trkpt lat="22.050444" lon="104.667946">
<ele>121.534241</ele>
<time>2011-04-28T06:25:59Z</time>
<desc>lat.=22.050444, lon.=104.667946, Alt.=121.534241m. Speed=0.000000m/h.</desc>
<speed>0.000000</speed>
</trkpt>
<trkpt lat="22.050444" lon="104.667946">
<ele>121.491272</ele>
<time>2011-04-28T06:26:04Z</time>
<desc>lat.=22.050444, lon.=104.667946, Alt.=121.491272m. Speed=0.036000m/h.</desc>
<speed>0.010000</speed>
</trkpt>
<trkpt lat="22.050444" lon="104.667953">
<ele>121.422913</ele>
<time>2011-04-28T06:26:09Z</time>
<desc>lat.=22.050444, lon.=104.667953, Alt.=121.422913m. Speed=0.000000m/h.</desc>
<speed>0.000000</speed>
</trkpt>
<trkpt lat="22.050444" lon="104.667953">
<ele>121.383850</ele>
<time>2011-04-28T06:26:14Z</time>
<desc>lat.=22.050444, lon.=104.667953, Alt.=121.383850m. Speed=0.000000m/h.</desc>
<speed>0.000000</speed>
</trkpt>
<trkpt lat="22.050444" lon="104.667953">
<ele>121.381897</ele>
<time>2011-04-28T06:26:19Z</time>
<desc>lat.=22.050444, lon.=104.667953, Alt.=121.381897m. Speed=0.000000m/h.</desc>
<speed>0.000000</speed>
</trkpt>
<trkpt lat="22.050442" lon="104.667953">
<ele>121.366272</ele>
<time>2011-04-28T06:26:24Z</time>
<desc>lat.=22.050442, lon.=104.667953, Alt.=121.366272m. Speed=0.072000m/h.</desc>
<speed>0.020000</speed>
</trkpt>
<trkpt lat="22.050442" lon="104.667953">
<ele>121.338928</ele>
<time>2011-04-28T06:26:29Z</time>
<desc>lat.=22.050442, lon.=104.667953, Alt.=121.338928m. Speed=0.108000m/h.</desc>
<speed>0.030000</speed>
</trkpt>
<trkpt lat="22.050442" lon="104.667953">
<ele>121.299866</ele>
<time>2011-04-28T06:26:34Z</time>
<desc>lat.=22.050442, lon.=104.667953, Alt.=121.299866m. Speed=0.036000m/h.</desc>
<speed>0.010000</speed>
</trkpt>
<trkpt lat="22.050442" lon="104.667953">
<ele>121.270569</ele>
<time>2011-04-28T06:26:39Z</time>
<desc>lat.=22.050442, lon.=104.667953, Alt.=121.270569m. Speed=0.036000m/h.</desc>
<speed>0.010000</speed>
</trkpt>
<trkpt lat="22.050442" lon="104.667953">
<ele>121.274475</ele>
<time>2011-04-28T06:26:44Z</time>
<desc>lat.=22.050442, lon.=104.667953, Alt.=121.274475m. Speed=0.036000m/h.</desc>
<speed>0.010000</speed>
</trkpt>
<trkpt lat="22.050442" lon="104.667953">
<ele>121.258850</ele>
<time>2011-04-28T06:26:49Z</time>
<desc>lat.=22.050442, lon.=104.667953, Alt.=121.258850m. Speed=0.036000m/h.</desc>
<speed>0.010000</speed>
</trkpt>
<trkpt lat="22.050442" lon="104.667953">
<ele>121.251038</ele>
<time>2011-04-28T06:26:54Z</time>
<desc>lat.=22.050442, lon.=104.667953, Alt.=121.251038m. Speed=0.000000m/h.</desc>
<speed>0.000000</speed>
</trkpt>
<trkpt lat="22.050442" lon="104.667953">
<ele>121.276428</ele>
<time>2011-04-28T06:26:59Z</time>
<desc>lat.=22.050442, lon.=104.667953, Alt.=121.276428m. Speed=0.000000m/h.</desc>
<speed>0.000000</speed>
</trkpt>
<trkpt lat="22.050442" lon="104.667953">
<ele>121.288147</ele>
<time>2011-04-28T06:27:04Z</time>
<desc>lat.=22.050442, lon.=104.667953, Alt.=121.288147m. Speed=0.000000m/h.</desc>
<speed>0.000000</speed>
</trkpt>
<trkpt lat="22.050442" lon="104.667953">
<ele>121.286194</ele>
<time>2011-04-28T06:27:09Z</time>
<desc>lat.=22.050442, lon.=104.667953, Alt.=121.286194m. Speed=0.108000m/h.</desc>
<speed>0.030000</speed>
</trkpt>
<trkpt lat="22.050444" lon="104.667953">
<ele>121.274475</ele>
<time>2011-04-28T06:27:14Z</time>
<desc>lat.=22.050444, lon.=104.667953, Alt.=121.274475m. Speed=0.072000m/h.</desc>
<speed>0.020000</speed>
</trkpt>
<trkpt lat="22.050444" lon="104.667953">
<ele>121.295959</ele>
<time>2011-04-28T06:27:19Z</time>
<desc>lat.=22.050444, lon.=104.667953, Alt.=121.295959m. Speed=0.072000m/h.</desc>
<speed>0.020000</speed>
</trkpt>
<trkpt lat="22.050444" lon="104.667953">
<ele>121.331116</ele>
<time>2011-04-28T06:27:24Z</time>
<desc>lat.=22.050444, lon.=104.667953, Alt.=121.331116m. Speed=0.036000m/h.</desc>
<speed>0.010000</speed>
</trkpt>
<trkpt lat="22.050444" lon="104.667953">
<ele>121.344788</ele>
<time>2011-04-28T06:27:29Z</time>
<desc>lat.=22.050444, lon.=104.667953, Alt.=121.344788m. Speed=0.036000m/h.</desc>
<speed>0.010000</speed>
</trkpt>
<trkpt lat="22.050444" lon="104.667953">
<ele>121.344788</ele>
<time>2011-04-28T06:27:34Z</time>
<desc>lat.=22.050444, lon.=104.667953, Alt.=121.344788m. Speed=0.036000m/h.</desc>
<speed>0.010000</speed>
</trkpt>
<trkpt lat="22.050444" lon="104.667953">
<ele>121.315491</ele>
<time>2011-04-28T06:27:39Z</time>
<desc>lat.=22.050444, lon.=104.667953, Alt.=121.315491m. Speed=0.036000m/h.</desc>
<speed>0.010000</speed>
</trkpt>
<trkpt lat="22.050444" lon="104.667953">
<ele>121.231506</ele>
<time>2011-04-28T06:27:44Z</time>
<desc>lat.=22.050444, lon.=104.667953, Alt.=121.231506m. Speed=0.036000m/h.</desc>
<speed>0.010000</speed>
</trkpt>
<trkpt lat="22.050444" lon="104.667953">
<ele>121.223694</ele>
<time>2011-04-28T06:27:49Z</time>
<desc>lat.=22.050444, lon.=104.667953, Alt.=121.223694m. Speed=0.036000m/h.</desc>
<speed>0.010000</speed>
</trkpt>
<trkpt lat="22.050446" lon="104.667953">
<ele>121.208069</ele>
<time>2011-04-28T06:27:54Z</time>
<desc>lat.=22.050446, lon.=104.667953, Alt.=121.208069m. Speed=0.072000m/h.</desc>
<speed>0.020000</speed>
</trkpt>
<trkpt lat="22.050444" lon="104.667953">
<ele>121.159241</ele>
<time>2011-04-28T06:27:59Z</time>
<desc>lat.=22.050444, lon.=104.667953, Alt.=121.159241m. Speed=0.036000m/h.</desc>
<speed>0.010000</speed>
</trkpt>
<trkpt lat="22.050444" lon="104.667953">
<ele>121.198303</ele>
<time>2011-04-28T06:28:04Z</time>
<desc>lat.=22.050444, lon.=104.667953, Alt.=121.198303m. Speed=0.000000m/h.</desc>
<speed>0.000000</speed>
</trkpt>
<trkpt lat="22.050444" lon="104.667953">
<ele>121.213928</ele>
<time>2011-04-28T06:28:09Z</time>
<desc>lat.=22.050444, lon.=104.667953, Alt.=121.213928m. Speed=0.036000m/h.</desc>
<speed>0.010000</speed>
</trkpt>
<trkpt lat="22.050446" lon="104.667953">
<ele>121.198303</ele>
<time>2011-04-28T06:28:14Z</time>
<desc>lat.=22.050446, lon.=104.667953, Alt.=121.198303m. Speed=0.072000m/h.</desc>
<speed>0.020000</speed>
</trkpt>
<trkpt lat="22.050446" lon="104.667961">
<ele>121.120178</ele>
<time>2011-04-28T06:28:19Z</time>
<desc>lat.=22.050446, lon.=104.667961, Alt.=121.120178m. Speed=0.000000m/h.</desc>
<speed>0.000000</speed>
</trkpt>
<trkpt lat="22.050446" lon="104.667961">
<ele>121.090881</ele>
<time>2011-04-28T06:28:24Z</time>
<desc>lat.=22.050446, lon.=104.667961, Alt.=121.090881m. Speed=0.036000m/h.</desc>
<speed>0.010000</speed>
</trkpt>
<trkpt lat="22.050446" lon="104.667961">
<ele>121.088928</ele>
<time>2011-04-28T06:28:29Z</time>
<desc>lat.=22.050446, lon.=104.667961, Alt.=121.088928m. Speed=0.036000m/h.</desc>
<speed>0.010000</speed>
</trkpt>
<trkpt lat="22.050446" lon="104.667961">
<ele>121.090881</ele>
<time>2011-04-28T06:28:34Z</time>
<desc>lat.=22.050446, lon.=104.667961, Alt.=121.090881m. Speed=0.036000m/h.</desc>
<speed>0.010000</speed>
</trkpt>
<trkpt lat="22.050442" lon="104.667961">
<ele>121.094788</ele>
<time>2011-04-28T06:28:39Z</time>
<desc>lat.=22.050442, lon.=104.667961, Alt.=121.094788m. Speed=0.504000m/h.</desc>
<speed>0.140000</speed>
</trkpt>
<trkpt lat="22.050438" lon="104.667969">
<ele>121.075256</ele>
<time>2011-04-28T06:28:44Z</time>
<desc>lat.=22.050438, lon.=104.667969, Alt.=121.075256m. Speed=0.900000m/h.</desc>
<speed>0.250000</speed>
</trkpt>
<trkpt lat="22.050430" lon="104.667976">
<ele>121.036194</ele>
<time>2011-04-28T06:28:49Z</time>
<desc>lat.=22.050430, lon.=104.667976, Alt.=121.036194m. Speed=0.936000m/h.</desc>
<speed>0.260000</speed>
</trkpt>
<trkpt lat="22.050421" lon="104.667999">
<ele>121.022522</ele>
<time>2011-04-28T06:28:54Z</time>
<desc>lat.=22.050421, lon.=104.667999, Alt.=121.022522m. Speed=1.188000m/h.</desc>
<speed>0.330000</speed>
</trkpt>
<trkpt lat="22.050409" lon="104.668030">
<ele>121.028381</ele>
<time>2011-04-28T06:28:59Z</time>
<desc>lat.=22.050409, lon.=104.668030, Alt.=121.028381m. Speed=1.224000m/h.</desc>
<speed>0.340000</speed>
</trkpt>
<trkpt lat="22.050385" lon="104.668053">
<ele>120.551819</ele>
<time>2011-04-28T06:29:04Z</time>
<desc>lat.=22.050385, lon.=104.668053, Alt.=120.551819m. Speed=1.152000m/h.</desc>
<speed>0.320000</speed>
</trkpt>
<trkpt lat="22.050367" lon="104.668083">
<ele>120.270569</ele>
<time>2011-04-28T06:29:09Z</time>
<desc>lat.=22.050367, lon.=104.668083, Alt.=120.270569m. Speed=1.188000m/h.</desc>
<speed>0.330000</speed>
</trkpt>
<trkpt lat="22.050348" lon="104.668114">
<ele>119.745178</ele>
<time>2011-04-28T06:29:14Z</time>
<desc>lat.=22.050348, lon.=104.668114, Alt.=119.745178m. Speed=1.080000m/h.</desc>
<speed>0.300000</speed>
</trkpt>
<trkpt lat="22.050323" lon="104.668106">
<ele>119.895569</ele>
<time>2011-04-28T06:29:19Z</time>
<desc>lat.=22.050323, lon.=104.668106, Alt.=119.895569m. Speed=0.972000m/h.</desc>
<speed>0.270000</speed>
</trkpt>
<trkpt lat="22.050323" lon="104.668098">
<ele>120.100647</ele>
<time>2011-04-28T06:29:24Z</time>
<desc>lat.=22.050323, lon.=104.668098, Alt.=120.100647m. Speed=0.468000m/h.</desc>
<speed>0.130000</speed>
</trkpt>
<trkpt lat="22.050320" lon="104.668098">
<ele>120.045959</ele>
<time>2011-04-28T06:29:29Z</time>
<desc>lat.=22.050320, lon.=104.668098, Alt.=120.045959m. Speed=0.324000m/h.</desc>
<speed>0.090000</speed>
</trkpt>
<trkpt lat="22.050318" lon="104.668091">
<ele>120.010803</ele>
<time>2011-04-28T06:29:34Z</time>
<desc>lat.=22.050318, lon.=104.668091, Alt.=120.010803m. Speed=0.144000m/h.</desc>
<speed>0.040000</speed>
</trkpt>
<trkpt lat="22.050316" lon="104.668091">
<ele>119.991272</ele>
<time>2011-04-28T06:29:39Z</time>
<desc>lat.=22.050316, lon.=104.668091, Alt.=119.991272m. Speed=0.324000m/h.</desc>
<speed>0.090000</speed>
</trkpt>
<trkpt lat="22.050314" lon="104.668098">
<ele>119.969788</ele>
<time>2011-04-28T06:29:44Z</time>
<desc>lat.=22.050314, lon.=104.668098, Alt.=119.969788m. Speed=0.108000m/h.</desc>
<speed>0.030000</speed>
</trkpt>
<trkpt lat="22.050314" lon="104.668098">
<ele>119.971741</ele>
<time>2011-04-28T06:29:49Z</time>
<desc>lat.=22.050314, lon.=104.668098, Alt.=119.971741m. Speed=0.144000m/h.</desc>
<speed>0.040000</speed>
</trkpt>
<trkpt lat="22.050316" lon="104.668098">
<ele>119.965881</ele>
<time>2011-04-28T06:29:54Z</time>
<desc>lat.=22.050316, lon.=104.668098, Alt.=119.965881m. Speed=0.072000m/h.</desc>
<speed>0.020000</speed>
</trkpt>
<trkpt lat="22.050316" lon="104.668098">
<ele>119.961975</ele>
<time>2011-04-28T06:29:59Z</time>
<desc>lat.=22.050316, lon.=104.668098, Alt.=119.961975m. Speed=0.072000m/h.</desc>
<speed>0.020000</speed>
</trkpt>
<trkpt lat="22.050320" lon="104.668098">
<ele>119.950256</ele>
<time>2011-04-28T06:30:04Z</time>
<desc>lat.=22.050320, lon.=104.668098, Alt.=119.950256m. Speed=0.576000m/h.</desc>
<speed>0.160000</speed>
</trkpt>
<trkpt lat="22.050331" lon="104.668098">
<ele>119.917053</ele>
<time>2011-04-28T06:30:09Z</time>
<desc>lat.=22.050331, lon.=104.668098, Alt.=119.917053m. Speed=1.044000m/h.</desc>
<speed>0.290000</speed>
</trkpt>
<trkpt lat="22.050364" lon="104.668121">
<ele>118.809631</ele>
<time>2011-04-28T06:30:14Z</time>
<desc>lat.=22.050364, lon.=104.668121, Alt.=118.809631m. Speed=1.476000m/h.</desc>
<speed>0.410000</speed>
</trkpt>
<trkpt lat="22.050407" lon="104.668129">
<ele>117.358459</ele>
<time>2011-04-28T06:30:19Z</time>
<desc>lat.=22.050407, lon.=104.668129, Alt.=117.358459m. Speed=1.620000m/h.</desc>
<speed>0.450000</speed>
</trkpt>
<trkpt lat="22.050457" lon="104.668129">
<ele>116.559631</ele>
<time>2011-04-28T06:30:24Z</time>
<desc>lat.=22.050457, lon.=104.668129, Alt.=116.559631m. Speed=1.584000m/h.</desc>
<speed>0.440000</speed>
</trkpt>
<trkpt lat="22.050489" lon="104.668121">
<ele>117.565491</ele>
<time>2011-04-28T06:30:29Z</time>
<desc>lat.=22.050489, lon.=104.668121, Alt.=117.565491m. Speed=1.440000m/h.</desc>
<speed>0.400000</speed>
</trkpt>
<trkpt lat="22.050507" lon="104.668106">
<ele>118.788147</ele>
<time>2011-04-28T06:30:34Z</time>
<desc>lat.=22.050507, lon.=104.668106, Alt.=118.788147m. Speed=1.116000m/h.</desc>
<speed>0.310000</speed>
</trkpt>
<trkpt lat="22.050499" lon="104.668091">
<ele>120.534241</ele>
<time>2011-04-28T06:30:39Z</time>
<desc>lat.=22.050499, lon.=104.668091, Alt.=120.534241m. Speed=0.540000m/h.</desc>
<speed>0.150000</speed>
</trkpt>
<trkpt lat="22.050507" lon="104.668091">
<ele>120.602600</ele>
<time>2011-04-28T06:30:44Z</time>
<desc>lat.=22.050507, lon.=104.668091, Alt.=120.602600m. Speed=0.648000m/h.</desc>
<speed>0.180000</speed>
</trkpt>
<trkpt lat="22.050512" lon="104.668091">
<ele>120.575256</ele>
<time>2011-04-28T06:30:49Z</time>
<desc>lat.=22.050512, lon.=104.668091, Alt.=120.575256m. Speed=0.468000m/h.</desc>
<speed>0.130000</speed>
</trkpt>
<trkpt lat="22.050503" lon="104.668091">
<ele>120.446350</ele>
<time>2011-04-28T06:30:54Z</time>
<desc>lat.=22.050503, lon.=104.668091, Alt.=120.446350m. Speed=1.008000m/h.</desc>
<speed>0.280000</speed>
</trkpt>
<trkpt lat="22.050491" lon="104.668091">
<ele>120.292053</ele>
<time>2011-04-28T06:30:59Z</time>
<desc>lat.=22.050491, lon.=104.668091, Alt.=120.292053m. Speed=0.720000m/h.</desc>
<speed>0.200000</speed>
</trkpt>
<trkpt lat="22.050484" lon="104.668091">
<ele>120.124084</ele>
<time>2011-04-28T06:31:04Z</time>
<desc>lat.=22.050484, lon.=104.668091, Alt.=120.124084m. Speed=0.072000m/h.</desc>
<speed>0.020000</speed>
</trkpt>
<trkpt lat="22.050480" lon="104.668091">
<ele>119.575256</ele>
<time>2011-04-28T06:31:09Z</time>
<desc>lat.=22.050480, lon.=104.668091, Alt.=119.575256m. Speed=0.180000m/h.</desc>
<speed>0.050000</speed>
</trkpt>
<trkpt lat="22.050474" lon="104.668091">
<ele>118.975647</ele>
<time>2011-04-28T06:31:14Z</time>
<desc>lat.=22.050474, lon.=104.668091, Alt.=118.975647m. Speed=0.144000m/h.</desc>
<speed>0.040000</speed>
</trkpt>
<trkpt lat="22.050470" lon="104.668091">
<ele>118.438538</ele>
<time>2011-04-28T06:31:19Z</time>
<desc>lat.=22.050470, lon.=104.668091, Alt.=118.438538m. Speed=0.252000m/h.</desc>
<speed>0.070000</speed>
</trkpt>
<trkpt lat="22.050467" lon="104.668091">
<ele>117.942444</ele>
<time>2011-04-28T06:31:24Z</time>
<desc>lat.=22.050467, lon.=104.668091, Alt.=117.942444m. Speed=0.216000m/h.</desc>
<speed>0.060000</speed>
</trkpt>
<trkpt lat="22.050463" lon="104.668091">
<ele>117.376038</ele>
<time>2011-04-28T06:31:29Z</time>
<desc>lat.=22.050463, lon.=104.668091, Alt.=117.376038m. Speed=0.288000m/h.</desc>
<speed>0.080000</speed>
</trkpt>
<trkpt lat="22.050459" lon="104.668091">
<ele>116.696350</ele>
<time>2011-04-28T06:31:34Z</time>
<desc>lat.=22.050459, lon.=104.668091, Alt.=116.696350m. Speed=0.180000m/h.</desc>
<speed>0.050000</speed>
</trkpt>
<trkpt lat="22.050455" lon="104.668091">
<ele>115.538147</ele>
<time>2011-04-28T06:31:39Z</time>
<desc>lat.=22.050455, lon.=104.668091, Alt.=115.538147m. Speed=0.504000m/h.</desc>
<speed>0.140000</speed>
</trkpt>
<trkpt lat="22.050447" lon="104.668091">
<ele>114.108459</ele>
<time>2011-04-28T06:31:44Z</time>
<desc>lat.=22.050447, lon.=104.668091, Alt.=114.108459m. Speed=0.612000m/h.</desc>
<speed>0.170000</speed>
</trkpt>
<trkpt lat="22.050438" lon="104.668091">
<ele>112.569397</ele>
<time>2011-04-28T06:31:49Z</time>
<desc>lat.=22.050438, lon.=104.668091, Alt.=112.569397m. Speed=0.576000m/h.</desc>
<speed>0.160000</speed>
</trkpt>
<trkpt lat="22.050432" lon="104.668091">
<ele>111.110413</ele>
<time>2011-04-28T06:31:54Z</time>
<desc>lat.=22.050432, lon.=104.668091, Alt.=111.110413m. Speed=0.324000m/h.</desc>
<speed>0.090000</speed>
</trkpt>
<trkpt lat="22.050430" lon="104.668091">
<ele>109.715881</ele>
<time>2011-04-28T06:31:59Z</time>
<desc>lat.=22.050430, lon.=104.668091, Alt.=109.715881m. Speed=0.252000m/h.</desc>
<speed>0.070000</speed>
</trkpt>
<trkpt lat="22.050430" lon="104.668098">
<ele>108.329163</ele>
<time>2011-04-28T06:32:04Z</time>
<desc>lat.=22.050430, lon.=104.668098, Alt.=108.329163m. Speed=0.216000m/h.</desc>
<speed>0.060000</speed>
</trkpt>
<trkpt lat="22.050432" lon="104.668098">
<ele>106.993225</ele>
<time>2011-04-28T06:32:09Z</time>
<desc>lat.=22.050432, lon.=104.668098, Alt.=106.993225m. Speed=0.180000m/h.</desc>
<speed>0.050000</speed>
</trkpt>
<trkpt lat="22.050434" lon="104.668091">
<ele>105.602600</ele>
<time>2011-04-28T06:32:14Z</time>
<desc>lat.=22.050434, lon.=104.668091, Alt.=105.602600m. Speed=0.108000m/h.</desc>
<speed>0.030000</speed>
</trkpt>
<trkpt lat="22.050430" lon="104.668091">
<ele>104.092834</ele>
<time>2011-04-28T06:32:19Z</time>
<desc>lat.=22.050430, lon.=104.668091, Alt.=104.092834m. Speed=0.720000m/h.</desc>
<speed>0.200000</speed>
</trkpt>
<trkpt lat="22.050421" lon="104.668098">
<ele>102.542053</ele>
<time>2011-04-28T06:32:24Z</time>
<desc>lat.=22.050421, lon.=104.668098, Alt.=102.542053m. Speed=0.720000m/h.</desc>
<speed>0.200000</speed>
</trkpt>
<trkpt lat="22.050411" lon="104.668098">
<ele>100.971741</ele>
<time>2011-04-28T06:32:29Z</time>
<desc>lat.=22.050411, lon.=104.668098, Alt.=100.971741m. Speed=0.648000m/h.</desc>
<speed>0.180000</speed>
</trkpt>
<trkpt lat="22.050407" lon="104.668098">
<ele>99.495178</ele>
<time>2011-04-28T06:32:34Z</time>
<desc>lat.=22.050407, lon.=104.668098, Alt.=99.495178m. Speed=0.324000m/h.</desc>
<speed>0.090000</speed>
</trkpt>
<trkpt lat="22.050406" lon="104.668106">
<ele>98.155334</ele>
<time>2011-04-28T06:32:39Z</time>
<desc>lat.=22.050406, lon.=104.668106, Alt.=98.155334m. Speed=0.432000m/h.</desc>
<speed>0.120000</speed>
</trkpt>
<trkpt lat="22.050400" lon="104.668106">
<ele>96.913147</ele>
<time>2011-04-28T06:32:44Z</time>
<desc>lat.=22.050400, lon.=104.668106, Alt.=96.913147m. Speed=0.648000m/h.</desc>
<speed>0.180000</speed>
</trkpt>
<trkpt lat="22.050390" lon="104.668114">
<ele>95.768616</ele>
<time>2011-04-28T06:32:49Z</time>
<desc>lat.=22.050390, lon.=104.668114, Alt.=95.768616m. Speed=0.576000m/h.</desc>
<speed>0.160000</speed>
</trkpt>
<trkpt lat="22.050385" lon="104.668114">
<ele>94.727600</ele>
<time>2011-04-28T06:32:54Z</time>
<desc>lat.=22.050385, lon.=104.668114, Alt.=94.727600m. Speed=0.360000m/h.</desc>
<speed>0.100000</speed>
</trkpt>
<trkpt lat="22.050385" lon="104.668114">
<ele>93.928772</ele>
<time>2011-04-28T06:32:59Z</time>
<desc>lat.=22.050385, lon.=104.668114, Alt.=93.928772m. Speed=0.252000m/h.</desc>
<speed>0.070000</speed>
</trkpt>
<trkpt lat="22.050385" lon="104.668121">
<ele>93.174866</ele>
<time>2011-04-28T06:33:04Z</time>
<desc>lat.=22.050385, lon.=104.668121, Alt.=93.174866m. Speed=0.216000m/h.</desc>
<speed>0.060000</speed>
</trkpt>
<trkpt lat="22.050383" lon="104.668121">
<ele>92.440491</ele>
<time>2011-04-28T06:33:09Z</time>
<desc>lat.=22.050383, lon.=104.668121, Alt.=92.440491m. Speed=0.324000m/h.</desc>
<speed>0.090000</speed>
</trkpt>
<trkpt lat="22.050379" lon="104.668121">
<ele>91.917053</ele>
<time>2011-04-28T06:33:14Z</time>
<desc>lat.=22.050379, lon.=104.668121, Alt.=91.917053m. Speed=0.144000m/h.</desc>
<speed>0.040000</speed>
</trkpt>
<trkpt lat="22.050379" lon="104.668121">
<ele>91.633850</ele>
<time>2011-04-28T06:33:19Z</time>
<desc>lat.=22.050379, lon.=104.668121, Alt.=91.633850m. Speed=0.216000m/h.</desc>
<speed>0.060000</speed>
</trkpt>
<trkpt lat="22.050381" lon="104.668121">
<ele>91.458069</ele>
<time>2011-04-28T06:33:24Z</time>
<desc>lat.=22.050381, lon.=104.668121, Alt.=91.458069m. Speed=0.036000m/h.</desc>
<speed>0.010000</speed>
</trkpt>
<trkpt lat="22.050381" lon="104.668121">
<ele>91.458069</ele>
<time>2011-04-28T06:33:29Z</time>
<desc>lat.=22.050381, lon.=104.668121, Alt.=91.458069m. Speed=0.000000m/h.</desc>
<speed>0.000000</speed>
</trkpt>
<trkpt lat="22.050381" lon="104.668121">
<ele>91.461975</ele>
<time>2011-04-28T06:33:34Z</time>
<desc>lat.=22.050381, lon.=104.668121, Alt.=91.461975m. Speed=0.000000m/h.</desc>
<speed>0.000000</speed>
</trkpt>
<trkpt lat="22.050381" lon="104.668121">
<ele>91.473694</ele>
<time>2011-04-28T06:33:39Z</time>
<desc>lat.=22.050381, lon.=104.668121, Alt.=91.473694m. Speed=0.000000m/h.</desc>
<speed>0.000000</speed>
</trkpt>
<trkpt lat="22.050381" lon="104.668121">
<ele>91.489319</ele>
<time>2011-04-28T06:33:44Z</time>
<desc>lat.=22.050381, lon.=104.668121, Alt.=91.489319m. Speed=0.000000m/h.</desc>
<speed>0.000000</speed>
</trkpt>
<trkpt lat="22.050381" lon="104.668121">
<ele>91.538147</ele>
<time>2011-04-28T06:33:49Z</time>
<desc>lat.=22.050381, lon.=104.668121, Alt.=91.538147m. Speed=0.036000m/h.</desc>
<speed>0.010000</speed>
</trkpt>
<trkpt lat="22.050383" lon="104.668121">
<ele>91.573303</ele>
<time>2011-04-28T06:33:54Z</time>
<desc>lat.=22.050383, lon.=104.668121, Alt.=91.573303m. Speed=0.036000m/h.</desc>
<speed>0.010000</speed>
</trkpt>
<trkpt lat="22.050383" lon="104.668121">
<ele>91.583069</ele>
<time>2011-04-28T06:33:59Z</time>
<desc>lat.=22.050383, lon.=104.668121, Alt.=91.583069m. Speed=0.000000m/h.</desc>
<speed>0.000000</speed>
</trkpt>
<trkpt lat="22.050383" lon="104.668121">
<ele>91.588928</ele>
<time>2011-04-28T06:34:04Z</time>
<desc>lat.=22.050383, lon.=104.668121, Alt.=91.588928m. Speed=0.000000m/h.</desc>
<speed>0.000000</speed>
</trkpt>
<trkpt lat="22.050383" lon="104.668121">
<ele>91.602600</ele>
<time>2011-04-28T06:34:09Z</time>
<desc>lat.=22.050383, lon.=104.668121, Alt.=91.602600m. Speed=0.036000m/h.</desc>
<speed>0.010000</speed>
</trkpt>
<trkpt lat="22.050383" lon="104.668121">
<ele>91.592834</ele>
<time>2011-04-28T06:34:14Z</time>
<desc>lat.=22.050383, lon.=104.668121, Alt.=91.592834m. Speed=0.036000m/h.</desc>
<speed>0.010000</speed>
</trkpt>
<trkpt lat="22.050383" lon="104.668121">
<ele>91.598694</ele>
<time>2011-04-28T06:34:19Z</time>
<desc>lat.=22.050383, lon.=104.668121, Alt.=91.598694m. Speed=0.000000m/h.</desc>
<speed>0.000000</speed>
</trkpt>
<trkpt lat="22.050383" lon="104.668121">
<ele>91.616272</ele>
<time>2011-04-28T06:34:24Z</time>
<desc>lat.=22.050383, lon.=104.668121, Alt.=91.616272m. Speed=0.072000m/h.</desc>
<speed>0.020000</speed>
</trkpt>
<trkpt lat="22.050383" lon="104.668121">
<ele>91.661194</ele>
<time>2011-04-28T06:34:29Z</time>
<desc>lat.=22.050383, lon.=104.668121, Alt.=91.661194m. Speed=0.108000m/h.</desc>
<speed>0.030000</speed>
</trkpt>
<trkpt lat="22.050383" lon="104.668121">
<ele>91.700256</ele>
<time>2011-04-28T06:34:34Z</time>
<desc>lat.=22.050383, lon.=104.668121, Alt.=91.700256m. Speed=0.036000m/h.</desc>
<speed>0.010000</speed>
</trkpt>
<trkpt lat="22.050383" lon="104.668121">
<ele>91.708069</ele>
<time>2011-04-28T06:34:39Z</time>
<desc>lat.=22.050383, lon.=104.668121, Alt.=91.708069m. Speed=0.036000m/h.</desc>
<speed>0.010000</speed>
</trkpt>
<trkpt lat="22.050383" lon="104.668121">
<ele>91.717834</ele>
<time>2011-04-28T06:34:44Z</time>
<desc>lat.=22.050383, lon.=104.668121, Alt.=91.717834m. Speed=0.000000m/h.</desc>
<speed>0.000000</speed>
</trkpt>
<trkpt lat="22.050385" lon="104.668121">
<ele>91.780334</ele>
<time>2011-04-28T06:34:49Z</time>
<desc>lat.=22.050385, lon.=104.668121, Alt.=91.780334m. Speed=0.000000m/h.</desc>
<speed>0.000000</speed>
</trkpt>
<trkpt lat="22.050385" lon="104.668121">
<ele>91.819397</ele>
<time>2011-04-28T06:34:54Z</time>
<desc>lat.=22.050385, lon.=104.668121, Alt.=91.819397m. Speed=0.072000m/h.</desc>
<speed>0.020000</speed>
</trkpt>
<trkpt lat="22.050385" lon="104.668121">
<ele>91.827209</ele>
<time>2011-04-28T06:34:59Z</time>
<desc>lat.=22.050385, lon.=104.668121, Alt.=91.827209m. Speed=0.036000m/h.</desc>
<speed>0.010000</speed>
</trkpt>
<trkpt lat="22.050385" lon="104.668121">
<ele>91.864319</ele>
<time>2011-04-28T06:35:04Z</time>
<desc>lat.=22.050385, lon.=104.668121, Alt.=91.864319m. Speed=0.072000m/h.</desc>
<speed>0.020000</speed>
</trkpt>
<trkpt lat="22.050385" lon="104.668121">
<ele>91.911194</ele>
<time>2011-04-28T06:35:09Z</time>
<desc>lat.=22.050385, lon.=104.668121, Alt.=91.911194m. Speed=0.000000m/h.</desc>
<speed>0.000000</speed>
</trkpt>
<trkpt lat="22.050385" lon="104.668121">
<ele>91.979553</ele>
<time>2011-04-28T06:35:14Z</time>
<desc>lat.=22.050385, lon.=104.668121, Alt.=91.979553m. Speed=0.036000m/h.</desc>
<speed>0.010000</speed>
</trkpt>
<trkpt lat="22.050385" lon="104.668121">
<ele>92.020569</ele>
<time>2011-04-28T06:35:19Z</time>
<desc>lat.=22.050385, lon.=104.668121, Alt.=92.020569m. Speed=0.036000m/h.</desc>
<speed>0.010000</speed>
</trkpt>
<trkpt lat="22.050385" lon="104.668121">
<ele>92.063538</ele>
<time>2011-04-28T06:35:24Z</time>
<desc>lat.=22.050385, lon.=104.668121, Alt.=92.063538m. Speed=0.036000m/h.</desc>
<speed>0.010000</speed>
</trkpt>
<trkpt lat="22.050385" lon="104.668121">
<ele>92.071350</ele>
<time>2011-04-28T06:35:29Z</time>
<desc>lat.=22.050385, lon.=104.668121, Alt.=92.071350m. Speed=0.000000m/h.</desc>
<speed>0.000000</speed>
</trkpt>
<trkpt lat="22.050385" lon="104.668121">
<ele>92.071350</ele>
<time>2011-04-28T06:35:34Z</time>
<desc>lat.=22.050385, lon.=104.668121, Alt.=92.071350m. Speed=0.000000m/h.</desc>
<speed>0.000000</speed>
</trkpt>
<trkpt lat="22.050385" lon="104.668121">
<ele>92.071350</ele>
<time>2011-04-28T06:35:39Z</time>
<desc>lat.=22.050385, lon.=104.668121, Alt.=92.071350m. Speed=0.000000m/h.</desc>
<speed>0.000000</speed>
</trkpt>
<trkpt lat="22.050386" lon="104.668121">
<ele>92.077209</ele>
<time>2011-04-28T06:35:44Z</time>
<desc>lat.=22.050386, lon.=104.668121, Alt.=92.077209m. Speed=0.180000m/h.</desc>
<speed>0.050000</speed>
</trkpt>
<trkpt lat="22.050390" lon="104.668121">
<ele>92.092834</ele>
<time>2011-04-28T06:35:49Z</time>
<desc>lat.=22.050390, lon.=104.668121, Alt.=92.092834m. Speed=0.360000m/h.</desc>
<speed>0.100000</speed>
</trkpt>
<trkpt lat="22.050396" lon="104.668121">
<ele>92.120178</ele>
<time>2011-04-28T06:35:54Z</time>
<desc>lat.=22.050396, lon.=104.668121, Alt.=92.120178m. Speed=0.648000m/h.</desc>
<speed>0.180000</speed>
</trkpt>
<trkpt lat="22.050406" lon="104.668121">
<ele>92.153381</ele>
<time>2011-04-28T06:35:59Z</time>
<desc>lat.=22.050406, lon.=104.668121, Alt.=92.153381m. Speed=0.972000m/h.</desc>
<speed>0.270000</speed>
</trkpt>
<trkpt lat="22.050430" lon="104.668144">
<ele>92.151428</ele>
<time>2011-04-28T06:36:04Z</time>
<desc>lat.=22.050430, lon.=104.668144, Alt.=92.151428m. Speed=1.224000m/h.</desc>
<speed>0.340000</speed>
</trkpt>
<trkpt lat="22.050455" lon="104.668167">
<ele>92.042053</ele>
<time>2011-04-28T06:36:09Z</time>
<desc>lat.=22.050455, lon.=104.668167, Alt.=92.042053m. Speed=1.332000m/h.</desc>
<speed>0.370000</speed>
</trkpt>
<trkpt lat="22.050476" lon="104.668175">
<ele>91.877991</ele>
<time>2011-04-28T06:36:14Z</time>
<desc>lat.=22.050476, lon.=104.668175, Alt.=91.877991m. Speed=1.116000m/h.</desc>
<speed>0.310000</speed>
</trkpt>
<trkpt lat="22.050482" lon="104.668167">
<ele>91.911194</ele>
<time>2011-04-28T06:36:19Z</time>
<desc>lat.=22.050482, lon.=104.668167, Alt.=91.911194m. Speed=0.792000m/h.</desc>
<speed>0.220000</speed>
</trkpt>
<trkpt lat="22.050491" lon="104.668167">
<ele>91.930725</ele>
<time>2011-04-28T06:36:24Z</time>
<desc>lat.=22.050491, lon.=104.668167, Alt.=91.930725m. Speed=0.720000m/h.</desc>
<speed>0.200000</speed>
</trkpt>
<trkpt lat="22.050497" lon="104.668175">
<ele>91.907288</ele>
<time>2011-04-28T06:36:29Z</time>
<desc>lat.=22.050497, lon.=104.668175, Alt.=91.907288m. Speed=0.972000m/h.</desc>
<speed>0.270000</speed>
</trkpt>
<trkpt lat="22.050503" lon="104.668182">
<ele>91.833069</ele>
<time>2011-04-28T06:36:34Z</time>
<desc>lat.=22.050503, lon.=104.668182, Alt.=91.833069m. Speed=0.360000m/h.</desc>
<speed>0.100000</speed>
</trkpt>
<trkpt lat="22.050507" lon="104.668182">
<ele>91.754944</ele>
<time>2011-04-28T06:36:39Z</time>
<desc>lat.=22.050507, lon.=104.668182, Alt.=91.754944m. Speed=0.216000m/h.</desc>
<speed>0.060000</speed>
</trkpt>
<trkpt lat="22.050507" lon="104.668182">
<ele>91.604553</ele>
<time>2011-04-28T06:36:44Z</time>
<desc>lat.=22.050507, lon.=104.668182, Alt.=91.604553m. Speed=0.252000m/h.</desc>
<speed>0.070000</speed>
</trkpt>
<trkpt lat="22.050508" lon="104.668175">
<ele>91.409241</ele>
<time>2011-04-28T06:36:49Z</time>
<desc>lat.=22.050508, lon.=104.668175, Alt.=91.409241m. Speed=0.216000m/h.</desc>
<speed>0.060000</speed>
</trkpt>
<trkpt lat="22.050512" lon="104.668175">
<ele>91.178772</ele>
<time>2011-04-28T06:36:54Z</time>
<desc>lat.=22.050512, lon.=104.668175, Alt.=91.178772m. Speed=0.468000m/h.</desc>
<speed>0.130000</speed>
</trkpt>
<trkpt lat="22.050518" lon="104.668182">
<ele>90.881897</ele>
<time>2011-04-28T06:36:59Z</time>
<desc>lat.=22.050518, lon.=104.668182, Alt.=90.881897m. Speed=0.612000m/h.</desc>
<speed>0.170000</speed>
</trkpt>
<trkpt lat="22.050526" lon="104.668190">
<ele>90.512756</ele>
<time>2011-04-28T06:37:04Z</time>
<desc>lat.=22.050526, lon.=104.668190, Alt.=90.512756m. Speed=0.936000m/h.</desc>
<speed>0.260000</speed>
</trkpt>
<trkpt lat="22.050531" lon="104.668198">
<ele>90.083069</ele>
<time>2011-04-28T06:37:09Z</time>
<desc>lat.=22.050531, lon.=104.668198, Alt.=90.083069m. Speed=0.324000m/h.</desc>
<speed>0.090000</speed>
</trkpt>
<trkpt lat="22.050529" lon="104.668198">
<ele>89.598694</ele>
<time>2011-04-28T06:37:14Z</time>
<desc>lat.=22.050529, lon.=104.668198, Alt.=89.598694m. Speed=0.504000m/h.</desc>
<speed>0.140000</speed>
</trkpt>
<trkpt lat="22.050528" lon="104.668205">
<ele>89.008850</ele>
<time>2011-04-28T06:37:19Z</time>
<desc>lat.=22.050528, lon.=104.668205, Alt.=89.008850m. Speed=0.252000m/h.</desc>
<speed>0.070000</speed>
</trkpt>
<trkpt lat="22.050526" lon="104.668213">
<ele>88.327209</ele>
<time>2011-04-28T06:37:24Z</time>
<desc>lat.=22.050526, lon.=104.668213, Alt.=88.327209m. Speed=0.216000m/h.</desc>
<speed>0.060000</speed>
</trkpt>
<trkpt lat="22.050524" lon="104.668205">
<ele>87.545959</ele>
<time>2011-04-28T06:37:29Z</time>
<desc>lat.=22.050524, lon.=104.668205, Alt.=87.545959m. Speed=0.288000m/h.</desc>
<speed>0.080000</speed>
</trkpt>
<trkpt lat="22.050524" lon="104.668205">
<ele>86.700256</ele>
<time>2011-04-28T06:37:34Z</time>
<desc>lat.=22.050524, lon.=104.668205, Alt.=86.700256m. Speed=0.216000m/h.</desc>
<speed>0.060000</speed>
</trkpt>
<trkpt lat="22.050524" lon="104.668198">
<ele>85.813538</ele>
<time>2011-04-28T06:37:39Z</time>
<desc>lat.=22.050524, lon.=104.668198, Alt.=85.813538m. Speed=0.684000m/h.</desc>
<speed>0.190000</speed>
</trkpt>
<trkpt lat="22.050516" lon="104.668190">
<ele>84.934631</ele>
<time>2011-04-28T06:37:44Z</time>
<desc>lat.=22.050516, lon.=104.668190, Alt.=84.934631m. Speed=1.008000m/h.</desc>
<speed>0.280000</speed>
</trkpt>
<trkpt lat="22.050457" lon="104.668144">
<ele>83.803772</ele>
<time>2011-04-28T06:37:49Z</time>
<desc>lat.=22.050457, lon.=104.668144, Alt.=83.803772m. Speed=1.476000m/h.</desc>
<speed>0.410000</speed>
</trkpt>
<trkpt lat="22.050371" lon="104.668129">
<ele>82.567444</ele>
<time>2011-04-28T06:37:54Z</time>
<desc>lat.=22.050371, lon.=104.668129, Alt.=82.567444m. Speed=0.720000m/h.</desc>
<speed>0.200000</speed>
</trkpt>
<trkpt lat="22.050360" lon="104.668129">
<ele>80.786194</ele>
<time>2011-04-28T06:37:59Z</time>
<desc>lat.=22.050360, lon.=104.668129, Alt.=80.786194m. Speed=0.792000m/h.</desc>
<speed>0.220000</speed>
</trkpt>
<trkpt lat="22.050352" lon="104.668121">
<ele>79.764709</ele>
<time>2011-04-28T06:38:04Z</time>
<desc>lat.=22.050352, lon.=104.668121, Alt.=79.764709m. Speed=0.648000m/h.</desc>
<speed>0.180000</speed>
</trkpt>
<trkpt lat="22.050344" lon="104.668114">
<ele>78.694397</ele>
<time>2011-04-28T06:38:09Z</time>
<desc>lat.=22.050344, lon.=104.668114, Alt.=78.694397m. Speed=0.828000m/h.</desc>
<speed>0.230000</speed>
</trkpt>
<trkpt lat="22.050337" lon="104.668114">
<ele>77.620178</ele>
<time>2011-04-28T06:38:14Z</time>
<desc>lat.=22.050337, lon.=104.668114, Alt.=77.620178m. Speed=0.360000m/h.</desc>
<speed>0.100000</speed>
</trkpt>
<trkpt lat="22.050335" lon="104.668114">
<ele>76.561584</ele>
<time>2011-04-28T06:38:19Z</time>
<desc>lat.=22.050335, lon.=104.668114, Alt.=76.561584m. Speed=0.612000m/h.</desc>
<speed>0.170000</speed>
</trkpt>
<trkpt lat="22.050329" lon="104.668129">
<ele>75.749084</ele>
<time>2011-04-28T06:38:24Z</time>
<desc>lat.=22.050329, lon.=104.668129, Alt.=75.749084m. Speed=3.600000m/h.</desc>
<speed>1.000000</speed>
</trkpt>
<trkpt lat="22.050249" lon="104.668266">
<ele>75.686584</ele>
<time>2011-04-28T06:38:29Z</time>
<desc>lat.=22.050249, lon.=104.668266, Alt.=75.686584m. Speed=13.356000m/h.</desc>
<speed>3.710000</speed>
</trkpt>
<trkpt lat="22.050186" lon="104.668442">
<ele>75.739319</ele>
<time>2011-04-28T06:38:34Z</time>
<desc>lat.=22.050186, lon.=104.668442, Alt.=75.739319m. Speed=13.968000m/h.</desc>
<speed>3.880000</speed>
</trkpt>
<trkpt lat="22.050112" lon="104.668594">
<ele>75.417053</ele>
<time>2011-04-28T06:38:39Z</time>
<desc>lat.=22.050112, lon.=104.668594, Alt.=75.417053m. Speed=12.600000m/h.</desc>
<speed>3.500000</speed>
</trkpt>
<trkpt lat="22.049984" lon="104.668724">
<ele>76.086975</ele>
<time>2011-04-28T06:38:44Z</time>
<desc>lat.=22.049984, lon.=104.668724, Alt.=76.086975m. Speed=11.628000m/h.</desc>
<speed>3.230000</speed>
</trkpt>
<trkpt lat="22.049843" lon="104.668777">
<ele>80.276428</ele>
<time>2011-04-28T06:38:49Z</time>
<desc>lat.=22.049843, lon.=104.668777, Alt.=80.276428m. Speed=12.816000m/h.</desc>
<speed>3.560000</speed>
</trkpt>
<trkpt lat="22.049679" lon="104.668831">
<ele>83.667053</ele>
<time>2011-04-28T06:38:54Z</time>
<desc>lat.=22.049679, lon.=104.668831, Alt.=83.667053m. Speed=12.564000m/h.</desc>
<speed>3.490000</speed>
</trkpt>
<trkpt lat="22.049538" lon="104.668869">
<ele>86.053772</ele>
<time>2011-04-28T06:38:59Z</time>
<desc>lat.=22.049538, lon.=104.668869, Alt.=86.053772m. Speed=10.368000m/h.</desc>
<speed>2.880000</speed>
</trkpt>
<trkpt lat="22.049421" lon="104.668884">
<ele>91.688538</ele>
<time>2011-04-28T06:39:04Z</time>
<desc>lat.=22.049421, lon.=104.668884, Alt.=91.688538m. Speed=10.080000m/h.</desc>
<speed>2.800000</speed>
</trkpt>
<trkpt lat="22.049292" lon="104.668922">
<ele>94.149475</ele>
<time>2011-04-28T06:39:09Z</time>
<desc>lat.=22.049292, lon.=104.668922, Alt.=94.149475m. Speed=11.556000m/h.</desc>
<speed>3.210000</speed>
</trkpt>
<trkpt lat="22.049129" lon="104.668999">
<ele>95.522522</ele>
<time>2011-04-28T06:39:14Z</time>
<desc>lat.=22.049129, lon.=104.668999, Alt.=95.522522m. Speed=14.364000m/h.</desc>
<speed>3.990000</speed>
</trkpt>
<trkpt lat="22.048979" lon="104.669098">
<ele>96.506897</ele>
<time>2011-04-28T06:39:19Z</time>
<desc>lat.=22.048979, lon.=104.669098, Alt.=96.506897m. Speed=14.040000m/h.</desc>
<speed>3.900000</speed>
</trkpt>
<trkpt lat="22.048857" lon="104.669220">
<ele>97.846741</ele>
<time>2011-04-28T06:39:24Z</time>
<desc>lat.=22.048857, lon.=104.669220, Alt.=97.846741m. Speed=13.536000m/h.</desc>
<speed>3.760000</speed>
</trkpt>
<trkpt lat="22.048738" lon="104.669357">
<ele>99.385803</ele>
<time>2011-04-28T06:39:29Z</time>
<desc>lat.=22.048738, lon.=104.669357, Alt.=99.385803m. Speed=13.968000m/h.</desc>
<speed>3.880000</speed>
</trkpt>
<trkpt lat="22.048573" lon="104.669464">
<ele>101.282288</ele>
<time>2011-04-28T06:39:34Z</time>
<desc>lat.=22.048573, lon.=104.669464, Alt.=101.282288m. Speed=13.176000m/h.</desc>
<speed>3.660000</speed>
</trkpt>
<trkpt lat="22.048409" lon="104.669518">
<ele>102.694397</ele>
<time>2011-04-28T06:39:39Z</time>
<desc>lat.=22.048409, lon.=104.669518, Alt.=102.694397m. Speed=12.096000m/h.</desc>
<speed>3.360000</speed>
</trkpt>
<trkpt lat="22.048246" lon="104.669571">
<ele>104.985413</ele>
<time>2011-04-28T06:39:44Z</time>
<desc>lat.=22.048246, lon.=104.669571, Alt.=104.985413m. Speed=11.952000m/h.</desc>
<speed>3.320000</speed>
</trkpt>
<trkpt lat="22.048088" lon="104.669601">
<ele>106.618225</ele>
<time>2011-04-28T06:39:49Z</time>
<desc>lat.=22.048088, lon.=104.669601, Alt.=106.618225m. Speed=11.376000m/h.</desc>
<speed>3.160000</speed>
</trkpt>
<trkpt lat="22.047956" lon="104.669632">
<ele>108.438538</ele>
<time>2011-04-28T06:39:54Z</time>
<desc>lat.=22.047956, lon.=104.669632, Alt.=108.438538m. Speed=10.044000m/h.</desc>
<speed>2.790000</speed>
</trkpt>
<trkpt lat="22.047829" lon="104.669693">
<ele>109.202209</ele>
<time>2011-04-28T06:39:59Z</time>
<desc>lat.=22.047829, lon.=104.669693, Alt.=109.202209m. Speed=9.288000m/h.</desc>
<speed>2.580000</speed>
</trkpt>
<trkpt lat="22.047737" lon="104.669754">
<ele>110.795959</ele>
<time>2011-04-28T06:40:04Z</time>
<desc>lat.=22.047737, lon.=104.669754, Alt.=110.795959m. Speed=9.288000m/h.</desc>
<speed>2.580000</speed>
</trkpt>
<trkpt lat="22.047680" lon="104.669838">
<ele>114.284241</ele>
<time>2011-04-28T06:40:09Z</time>
<desc>lat.=22.047680, lon.=104.669838, Alt.=114.284241m. Speed=3.780000m/h.</desc>
<speed>1.050000</speed>
</trkpt>
<trkpt lat="22.047625" lon="104.669983">
<ele>115.983459</ele>
<time>2011-04-28T06:40:14Z</time>
<desc>lat.=22.047625, lon.=104.669983, Alt.=115.983459m. Speed=7.596000m/h.</desc>
<speed>2.110000</speed>
</trkpt>
<trkpt lat="22.047615" lon="104.670181">
<ele>117.387756</ele>
<time>2011-04-28T06:40:19Z</time>
<desc>lat.=22.047615, lon.=104.670181, Alt.=117.387756m. Speed=10.224000m/h.</desc>
<speed>2.840000</speed>
</trkpt>
<trkpt lat="22.047611" lon="104.670380">
<ele>118.401428</ele>
<time>2011-04-28T06:40:24Z</time>
<desc>lat.=22.047611, lon.=104.670380, Alt.=118.401428m. Speed=8.712000m/h.</desc>
<speed>2.420000</speed>
</trkpt>
<trkpt lat="22.047489" lon="104.670456">
<ele>119.797913</ele>
<time>2011-04-28T06:40:29Z</time>
<desc>lat.=22.047489, lon.=104.670456, Alt.=119.797913m. Speed=9.576000m/h.</desc>
<speed>2.660000</speed>
</trkpt>
<trkpt lat="22.047363" lon="104.670486">
<ele>120.850647</ele>
<time>2011-04-28T06:40:34Z</time>
<desc>lat.=22.047363, lon.=104.670486, Alt.=120.850647m. Speed=9.756000m/h.</desc>
<speed>2.710000</speed>
</trkpt>
<trkpt lat="22.047211" lon="104.670517">
<ele>121.364319</ele>
<time>2011-04-28T06:40:39Z</time>
<desc>lat.=22.047211, lon.=104.670517, Alt.=121.364319m. Speed=11.556000m/h.</desc>
<speed>3.210000</speed>
</trkpt>
<trkpt lat="22.047045" lon="104.670547">
<ele>121.155334</ele>
<time>2011-04-28T06:40:44Z</time>
<desc>lat.=22.047045, lon.=104.670547, Alt.=121.155334m. Speed=13.356000m/h.</desc>
<speed>3.710000</speed>
</trkpt>
<trkpt lat="22.046885" lon="104.670647">
<ele>118.760803</ele>
<time>2011-04-28T06:40:49Z</time>
<desc>lat.=22.046885, lon.=104.670647, Alt.=118.760803m. Speed=15.228000m/h.</desc>
<speed>4.230000</speed>
</trkpt>
<trkpt lat="22.046726" lon="104.670761">
<ele>119.245178</ele>
<time>2011-04-28T06:40:54Z</time>
<desc>lat.=22.046726, lon.=104.670761, Alt.=119.245178m. Speed=13.572000m/h.</desc>
<speed>3.770000</speed>
</trkpt>
<trkpt lat="22.046618" lon="104.670883">
<ele>119.596741</ele>
<time>2011-04-28T06:40:59Z</time>
<desc>lat.=22.046618, lon.=104.670883, Alt.=119.596741m. Speed=9.792000m/h.</desc>
<speed>2.720000</speed>
</trkpt>
<trkpt lat="22.046551" lon="104.671097">
<ele>121.342834</ele>
<time>2011-04-28T06:41:04Z</time>
<desc>lat.=22.046551, lon.=104.671097, Alt.=121.342834m. Speed=15.408000m/h.</desc>
<speed>4.280000</speed>
</trkpt>
<trkpt lat="22.046534" lon="104.671349">
<ele>120.172913</ele>
<time>2011-04-28T06:41:09Z</time>
<desc>lat.=22.046534, lon.=104.671349, Alt.=120.172913m. Speed=16.379999m/h.</desc>
<speed>4.550000</speed>
</trkpt>
<trkpt lat="22.046448" lon="104.671486">
<ele>119.663147</ele>
<time>2011-04-28T06:41:14Z</time>
<desc>lat.=22.046448, lon.=104.671486, Alt.=119.663147m. Speed=10.440000m/h.</desc>
<speed>2.900000</speed>
</trkpt>
<trkpt lat="22.046312" lon="104.671585">
<ele>119.958069</ele>
<time>2011-04-28T06:41:19Z</time>
<desc>lat.=22.046312, lon.=104.671585, Alt.=119.958069m. Speed=10.404000m/h.</desc>
<speed>2.890000</speed>
</trkpt>
<trkpt lat="22.046164" lon="104.671692">
<ele>120.627991</ele>
<time>2011-04-28T06:41:24Z</time>
<desc>lat.=22.046164, lon.=104.671692, Alt.=120.627991m. Speed=15.372000m/h.</desc>
<speed>4.270000</speed>
</trkpt>
<trkpt lat="22.046036" lon="104.671822">
<ele>120.840881</ele>
<time>2011-04-28T06:41:29Z</time>
<desc>lat.=22.046036, lon.=104.671822, Alt.=120.840881m. Speed=13.140000m/h.</desc>
<speed>3.650000</speed>
</trkpt>
<trkpt lat="22.045933" lon="104.672005">
<ele>120.870178</ele>
<time>2011-04-28T06:41:34Z</time>
<desc>lat.=22.045933, lon.=104.672005, Alt.=120.870178m. Speed=16.091999m/h.</desc>
<speed>4.470000</speed>
</trkpt>
<trkpt lat="22.045763" lon="104.672203">
<ele>120.903381</ele>
<time>2011-04-28T06:41:39Z</time>
<desc>lat.=22.045763, lon.=104.672203, Alt.=120.903381m. Speed=17.028000m/h.</desc>
<speed>4.730000</speed>
</trkpt>
<trkpt lat="22.045519" lon="104.672302">
<ele>119.659241</ele>
<time>2011-04-28T06:41:44Z</time>
<desc>lat.=22.045519, lon.=104.672302, Alt.=119.659241m. Speed=16.775999m/h.</desc>
<speed>4.660000</speed>
</trkpt>
<trkpt lat="22.045303" lon="104.672310">
<ele>120.854553</ele>
<time>2011-04-28T06:41:49Z</time>
<desc>lat.=22.045303, lon.=104.672310, Alt.=120.854553m. Speed=16.164000m/h.</desc>
<speed>4.490000</speed>
</trkpt>
<trkpt lat="22.045074" lon="104.672241">
<ele>121.987366</ele>
<time>2011-04-28T06:41:54Z</time>
<desc>lat.=22.045074, lon.=104.672241, Alt.=121.987366m. Speed=16.992001m/h.</desc>
<speed>4.720000</speed>
</trkpt>
<trkpt lat="22.044819" lon="104.672173">
<ele>125.061584</ele>
<time>2011-04-28T06:41:59Z</time>
<desc>lat.=22.044819, lon.=104.672173, Alt.=125.061584m. Speed=18.864000m/h.</desc>
<speed>5.240000</speed>
</trkpt>
<trkpt lat="22.044525" lon="104.672180">
<ele>125.100647</ele>
<time>2011-04-28T06:42:04Z</time>
<desc>lat.=22.044525, lon.=104.672180, Alt.=125.100647m. Speed=20.879999m/h.</desc>
<speed>5.800000</speed>
</trkpt>
<trkpt lat="22.044294" lon="104.672302">
<ele>125.639709</ele>
<time>2011-04-28T06:42:09Z</time>
<desc>lat.=22.044294, lon.=104.672302, Alt.=125.639709m. Speed=18.576000m/h.</desc>
<speed>5.160000</speed>
</trkpt>
<trkpt lat="22.044136" lon="104.672440">
<ele>126.915100</ele>
<time>2011-04-28T06:42:14Z</time>
<desc>lat.=22.044136, lon.=104.672440, Alt.=126.915100m. Speed=14.400000m/h.</desc>
<speed>4.000000</speed>
</trkpt>
<trkpt lat="22.044014" lon="104.672569">
<ele>128.482544</ele>
<time>2011-04-28T06:42:19Z</time>
<desc>lat.=22.044014, lon.=104.672569, Alt.=128.482544m. Speed=13.392000m/h.</desc>
<speed>3.720000</speed>
</trkpt>
<trkpt lat="22.043900" lon="104.672783">
<ele>129.138794</ele>
<time>2011-04-28T06:42:24Z</time>
<desc>lat.=22.043900, lon.=104.672783, Alt.=129.138794m. Speed=15.588000m/h.</desc>
<speed>4.330000</speed>
</trkpt>
<trkpt lat="22.043846" lon="104.672974">
<ele>129.603638</ele>
<time>2011-04-28T06:42:29Z</time>
<desc>lat.=22.043846, lon.=104.672974, Alt.=129.603638m. Speed=13.752000m/h.</desc>
<speed>3.820000</speed>
</trkpt>
<trkpt lat="22.043802" lon="104.673180">
<ele>130.076294</ele>
<time>2011-04-28T06:42:34Z</time>
<desc>lat.=22.043802, lon.=104.673180, Alt.=130.076294m. Speed=16.091999m/h.</desc>
<speed>4.470000</speed>
</trkpt>
<trkpt lat="22.043732" lon="104.673401">
<ele>130.681763</ele>
<time>2011-04-28T06:42:39Z</time>
<desc>lat.=22.043732, lon.=104.673401, Alt.=130.681763m. Speed=15.156000m/h.</desc>
<speed>4.210000</speed>
</trkpt>
<trkpt lat="22.043577" lon="104.673584">
<ele>131.607544</ele>
<time>2011-04-28T06:42:44Z</time>
<desc>lat.=22.043577, lon.=104.673584, Alt.=131.607544m. Speed=16.992001m/h.</desc>
<speed>4.720000</speed>
</trkpt>
<trkpt lat="22.043404" lon="104.673721">
<ele>131.595825</ele>
<time>2011-04-28T06:42:49Z</time>
<desc>lat.=22.043404, lon.=104.673721, Alt.=131.595825m. Speed=18.431999m/h.</desc>
<speed>5.120000</speed>
</trkpt>
<trkpt lat="22.043203" lon="104.673820">
<ele>131.478638</ele>
<time>2011-04-28T06:42:54Z</time>
<desc>lat.=22.043203, lon.=104.673820, Alt.=131.478638m. Speed=18.288000m/h.</desc>
<speed>5.080000</speed>
</trkpt>
<trkpt lat="22.043007" lon="104.673958">
<ele>131.025513</ele>
<time>2011-04-28T06:42:59Z</time>
<desc>lat.=22.043007, lon.=104.673958, Alt.=131.025513m. Speed=17.351999m/h.</desc>
<speed>4.820000</speed>
</trkpt>
<trkpt lat="22.042852" lon="104.674110">
<ele>130.236450</ele>
<time>2011-04-28T06:43:04Z</time>
<desc>lat.=22.042852, lon.=104.674110, Alt.=130.236450m. Speed=16.955999m/h.</desc>
<speed>4.710000</speed>
</trkpt>
<trkpt lat="22.042788" lon="104.674339">
<ele>129.459106</ele>
<time>2011-04-28T06:43:09Z</time>
<desc>lat.=22.042788, lon.=104.674339, Alt.=129.459106m. Speed=20.087999m/h.</desc>
<speed>5.580000</speed>
</trkpt>
<trkpt lat="22.042820" lon="104.674614">
<ele>127.670959</ele>
<time>2011-04-28T06:43:14Z</time>
<desc>lat.=22.042820, lon.=104.674614, Alt.=127.670959m. Speed=18.288000m/h.</desc>
<speed>5.080000</speed>
</trkpt>
<trkpt lat="22.042877" lon="104.674866">
<ele>127.696350</ele>
<time>2011-04-28T06:43:19Z</time>
<desc>lat.=22.042877, lon.=104.674866, Alt.=127.696350m. Speed=18.180000m/h.</desc>
<speed>5.050000</speed>
</trkpt>
<trkpt lat="22.042921" lon="104.675125">
<ele>127.639709</ele>
<time>2011-04-28T06:43:24Z</time>
<desc>lat.=22.042921, lon.=104.675125, Alt.=127.639709m. Speed=17.136000m/h.</desc>
<speed>4.760000</speed>
</trkpt>
<trkpt lat="22.042934" lon="104.675377">
<ele>126.018616</ele>
<time>2011-04-28T06:43:29Z</time>
<desc>lat.=22.042934, lon.=104.675377, Alt.=126.018616m. Speed=15.552000m/h.</desc>
<speed>4.320000</speed>
</trkpt>
<trkpt lat="22.042847" lon="104.675575">
<ele>125.374084</ele>
<time>2011-04-28T06:43:34Z</time>
<desc>lat.=22.042847, lon.=104.675575, Alt.=125.374084m. Speed=13.500000m/h.</desc>
<speed>3.750000</speed>
</trkpt>
<trkpt lat="22.042648" lon="104.675674">
<ele>125.116272</ele>
<time>2011-04-28T06:43:39Z</time>
<desc>lat.=22.042648, lon.=104.675674, Alt.=125.116272m. Speed=14.400000m/h.</desc>
<speed>4.000000</speed>
</trkpt>
<trkpt lat="22.042490" lon="104.675728">
<ele>124.540100</ele>
<time>2011-04-28T06:43:44Z</time>
<desc>lat.=22.042490, lon.=104.675728, Alt.=124.540100m. Speed=12.960000m/h.</desc>
<speed>3.600000</speed>
</trkpt>
<trkpt lat="22.042311" lon="104.675842">
<ele>125.161194</ele>
<time>2011-04-28T06:43:49Z</time>
<desc>lat.=22.042311, lon.=104.675842, Alt.=125.161194m. Speed=13.140000m/h.</desc>
<speed>3.650000</speed>
</trkpt>
<trkpt lat="22.042181" lon="104.675995">
<ele>125.270569</ele>
<time>2011-04-28T06:43:54Z</time>
<desc>lat.=22.042181, lon.=104.675995, Alt.=125.270569m. Speed=14.112000m/h.</desc>
<speed>3.920000</speed>
</trkpt>
<trkpt lat="22.042078" lon="104.676155">
<ele>124.864319</ele>
<time>2011-04-28T06:43:59Z</time>
<desc>lat.=22.042078, lon.=104.676155, Alt.=124.864319m. Speed=11.844000m/h.</desc>
<speed>3.290000</speed>
</trkpt>
<trkpt lat="22.041981" lon="104.676323">
<ele>126.118225</ele>
<time>2011-04-28T06:44:04Z</time>
<desc>lat.=22.041981, lon.=104.676323, Alt.=126.118225m. Speed=13.068000m/h.</desc>
<speed>3.630000</speed>
</trkpt>
<trkpt lat="22.041838" lon="104.676521">
<ele>125.920959</ele>
<time>2011-04-28T06:44:09Z</time>
<desc>lat.=22.041838, lon.=104.676521, Alt.=125.920959m. Speed=13.068000m/h.</desc>
<speed>3.630000</speed>
</trkpt>
<trkpt lat="22.041767" lon="104.676735">
<ele>127.200256</ele>
<time>2011-04-28T06:44:14Z</time>
<desc>lat.=22.041767, lon.=104.676735, Alt.=127.200256m. Speed=15.876000m/h.</desc>
<speed>4.410000</speed>
</trkpt>
<trkpt lat="22.041765" lon="104.676987">
<ele>128.205200</ele>
<time>2011-04-28T06:44:19Z</time>
<desc>lat.=22.041765, lon.=104.676987, Alt.=128.205200m. Speed=12.024000m/h.</desc>
<speed>3.340000</speed>
</trkpt>
<trkpt lat="22.041742" lon="104.677170">
<ele>129.638794</ele>
<time>2011-04-28T06:44:24Z</time>
<desc>lat.=22.041742, lon.=104.677170, Alt.=129.638794m. Speed=12.636000m/h.</desc>
<speed>3.510000</speed>
</trkpt>
<trkpt lat="22.041651" lon="104.677361">
<ele>130.369263</ele>
<time>2011-04-28T06:44:29Z</time>
<desc>lat.=22.041651, lon.=104.677361, Alt.=130.369263m. Speed=14.688000m/h.</desc>
<speed>4.080000</speed>
</trkpt>
<trkpt lat="22.041553" lon="104.677521">
<ele>131.084106</ele>
<time>2011-04-28T06:44:34Z</time>
<desc>lat.=22.041553, lon.=104.677521, Alt.=131.084106m. Speed=14.004000m/h.</desc>
<speed>3.890000</speed>
</trkpt>
<trkpt lat="22.041412" lon="104.677643">
<ele>131.505981</ele>
<time>2011-04-28T06:44:39Z</time>
<desc>lat.=22.041412, lon.=104.677643, Alt.=131.505981m. Speed=11.520000m/h.</desc>
<speed>3.200000</speed>
</trkpt>
<trkpt lat="22.041361" lon="104.677856">
<ele>131.759888</ele>
<time>2011-04-28T06:44:44Z</time>
<desc>lat.=22.041361, lon.=104.677856, Alt.=131.759888m. Speed=13.680000m/h.</desc>
<speed>3.800000</speed>
</trkpt>
<trkpt lat="22.041418" lon="104.678040">
<ele>132.365356</ele>
<time>2011-04-28T06:44:49Z</time>
<desc>lat.=22.041418, lon.=104.678040, Alt.=132.365356m. Speed=11.988000m/h.</desc>
<speed>3.330000</speed>
</trkpt>
<trkpt lat="22.041422" lon="104.678253">
<ele>132.408325</ele>
<time>2011-04-28T06:44:54Z</time>
<desc>lat.=22.041422, lon.=104.678253, Alt.=132.408325m. Speed=12.384000m/h.</desc>
<speed>3.440000</speed>
</trkpt>
<trkpt lat="22.041317" lon="104.678452">
<ele>133.955200</ele>
<time>2011-04-28T06:44:59Z</time>
<desc>lat.=22.041317, lon.=104.678452, Alt.=133.955200m. Speed=16.775999m/h.</desc>
<speed>4.660000</speed>
</trkpt>
<trkpt lat="22.041189" lon="104.678688">
<ele>135.322388</ele>
<time>2011-04-28T06:45:04Z</time>
<desc>lat.=22.041189, lon.=104.678688, Alt.=135.322388m. Speed=20.232000m/h.</desc>
<speed>5.620000</speed>
</trkpt>
<trkpt lat="22.041086" lon="104.678925">
<ele>135.783325</ele>
<time>2011-04-28T06:45:09Z</time>
<desc>lat.=22.041086, lon.=104.678925, Alt.=135.783325m. Speed=19.656000m/h.</desc>
<speed>5.460000</speed>
</trkpt>
<trkpt lat="22.041052" lon="104.679207">
<ele>135.568481</ele>
<time>2011-04-28T06:45:14Z</time>
<desc>lat.=22.041052, lon.=104.679207, Alt.=135.568481m. Speed=17.676001m/h.</desc>
<speed>4.910000</speed>
</trkpt>
<trkpt lat="22.041035" lon="104.679443">
<ele>135.298950</ele>
<time>2011-04-28T06:45:19Z</time>
<desc>lat.=22.041035, lon.=104.679443, Alt.=135.298950m. Speed=15.984000m/h.</desc>
<speed>4.440000</speed>
</trkpt>
<trkpt lat="22.041004" lon="104.679657">
<ele>135.095825</ele>
<time>2011-04-28T06:45:24Z</time>
<desc>lat.=22.041004, lon.=104.679657, Alt.=135.095825m. Speed=13.068000m/h.</desc>
<speed>3.630000</speed>
</trkpt>
<trkpt lat="22.040960" lon="104.679848">
<ele>135.533325</ele>
<time>2011-04-28T06:45:29Z</time>
<desc>lat.=22.040960, lon.=104.679848, Alt.=135.533325m. Speed=13.968000m/h.</desc>
<speed>3.880000</speed>
</trkpt>
<trkpt lat="22.040890" lon="104.680031">
<ele>137.759888</ele>
<time>2011-04-28T06:45:34Z</time>
<desc>lat.=22.040890, lon.=104.680031, Alt.=137.759888m. Speed=12.420000m/h.</desc>
<speed>3.450000</speed>
</trkpt>
<trkpt lat="22.040770" lon="104.680191">
<ele>139.861450</ele>
<time>2011-04-28T06:45:39Z</time>
<desc>lat.=22.040770, lon.=104.680191, Alt.=139.861450m. Speed=15.012000m/h.</desc>
<speed>4.170000</speed>
</trkpt>
<trkpt lat="22.040651" lon="104.680359">
<ele>140.912231</ele>
<time>2011-04-28T06:45:44Z</time>
<desc>lat.=22.040651, lon.=104.680359, Alt.=140.912231m. Speed=16.056000m/h.</desc>
<speed>4.460000</speed>
</trkpt>
<trkpt lat="22.040440" lon="104.680527">
<ele>142.990356</ele>
<time>2011-04-28T06:45:49Z</time>
<desc>lat.=22.040440, lon.=104.680527, Alt.=142.990356m. Speed=17.856001m/h.</desc>
<speed>4.960000</speed>
</trkpt>
<trkpt lat="22.040234" lon="104.680649">
<ele>145.259888</ele>
<time>2011-04-28T06:45:54Z</time>
<desc>lat.=22.040234, lon.=104.680649, Alt.=145.259888m. Speed=15.768000m/h.</desc>
<speed>4.380000</speed>
</trkpt>
<trkpt lat="22.040134" lon="104.680824">
<ele>147.611450</ele>
<time>2011-04-28T06:45:59Z</time>
<desc>lat.=22.040134, lon.=104.680824, Alt.=147.611450m. Speed=7.560000m/h.</desc>
<speed>2.100000</speed>
</trkpt>
<trkpt lat="22.040117" lon="104.680962">
<ele>148.084106</ele>
<time>2011-04-28T06:46:04Z</time>
<desc>lat.=22.040117, lon.=104.680962, Alt.=148.084106m. Speed=7.200000m/h.</desc>
<speed>2.000000</speed>
</trkpt>
<trkpt lat="22.040056" lon="104.681168">
<ele>147.963013</ele>
<time>2011-04-28T06:46:09Z</time>
<desc>lat.=22.040056, lon.=104.681168, Alt.=147.963013m. Speed=19.872000m/h.</desc>
<speed>5.520000</speed>
</trkpt>
<trkpt lat="22.039982" lon="104.681473">
<ele>145.662231</ele>
<time>2011-04-28T06:46:14Z</time>
<desc>lat.=22.039982, lon.=104.681473, Alt.=145.662231m. Speed=23.903999m/h.</desc>
<speed>6.640000</speed>
</trkpt>
<trkpt lat="22.039902" lon="104.681801">
<ele>144.048950</ele>
<time>2011-04-28T06:46:19Z</time>
<desc>lat.=22.039902, lon.=104.681801, Alt.=144.048950m. Speed=21.672001m/h.</desc>
<speed>6.020000</speed>
</trkpt>
<trkpt lat="22.039833" lon="104.682137">
<ele>143.416138</ele>
<time>2011-04-28T06:46:24Z</time>
<desc>lat.=22.039833, lon.=104.682137, Alt.=143.416138m. Speed=21.312000m/h.</desc>
<speed>5.920000</speed>
</trkpt>
<trkpt lat="22.039688" lon="104.682434">
<ele>142.845825</ele>
<time>2011-04-28T06:46:29Z</time>
<desc>lat.=22.039688, lon.=104.682434, Alt.=142.845825m. Speed=24.480000m/h.</desc>
<speed>6.800000</speed>
</trkpt>
<trkpt lat="22.039530" lon="104.682716">
<ele>143.681763</ele>
<time>2011-04-28T06:46:34Z</time>
<desc>lat.=22.039530, lon.=104.682716, Alt.=143.681763m. Speed=23.688000m/h.</desc>
<speed>6.580000</speed>
</trkpt>
<trkpt lat="22.039333" lon="104.683052">
<ele>142.693481</ele>
<time>2011-04-28T06:46:39Z</time>
<desc>lat.=22.039333, lon.=104.683052, Alt.=142.693481m. Speed=26.243999m/h.</desc>
<speed>7.290000</speed>
</trkpt>
<trkpt lat="22.039162" lon="104.683395">
<ele>141.814575</ele>
<time>2011-04-28T06:46:44Z</time>
<desc>lat.=22.039162, lon.=104.683395, Alt.=141.814575m. Speed=26.964001m/h.</desc>
<speed>7.490000</speed>
</trkpt>
<trkpt lat="22.039021" lon="104.683769">
<ele>139.142700</ele>
<time>2011-04-28T06:46:49Z</time>
<desc>lat.=22.039021, lon.=104.683769, Alt.=139.142700m. Speed=28.944000m/h.</desc>
<speed>8.040000</speed>
</trkpt>
<trkpt lat="22.038820" lon="104.684067">
<ele>137.970825</ele>
<time>2011-04-28T06:46:54Z</time>
<desc>lat.=22.038820, lon.=104.684067, Alt.=137.970825m. Speed=27.612000m/h.</desc>
<speed>7.670000</speed>
</trkpt>
<trkpt lat="22.038565" lon="104.684303">
<ele>137.384888</ele>
<time>2011-04-28T06:46:59Z</time>
<desc>lat.=22.038565, lon.=104.684303, Alt.=137.384888m. Speed=26.459999m/h.</desc>
<speed>7.350000</speed>
</trkpt>
<trkpt lat="22.038319" lon="104.684532">
<ele>137.060669</ele>
<time>2011-04-28T06:47:04Z</time>
<desc>lat.=22.038319, lon.=104.684532, Alt.=137.060669m. Speed=24.948000m/h.</desc>
<speed>6.930000</speed>
</trkpt>
<trkpt lat="22.038130" lon="104.684837">
<ele>135.529419</ele>
<time>2011-04-28T06:47:09Z</time>
<desc>lat.=22.038130, lon.=104.684837, Alt.=135.529419m. Speed=26.208000m/h.</desc>
<speed>7.280000</speed>
</trkpt>
<trkpt lat="22.038010" lon="104.685143">
<ele>135.283325</ele>
<time>2011-04-28T06:47:14Z</time>
<desc>lat.=22.038010, lon.=104.685143, Alt.=135.283325m. Speed=26.459999m/h.</desc>
<speed>7.350000</speed>
</trkpt>
<trkpt lat="22.037985" lon="104.685493">
<ele>134.181763</ele>
<time>2011-04-28T06:47:19Z</time>
<desc>lat.=22.037985, lon.=104.685493, Alt.=134.181763m. Speed=24.264000m/h.</desc>
<speed>6.740000</speed>
</trkpt>
<trkpt lat="22.037952" lon="104.685791">
<ele>134.732544</ele>
<time>2011-04-28T06:47:24Z</time>
<desc>lat.=22.037952, lon.=104.685791, Alt.=134.732544m. Speed=23.256001m/h.</desc>
<speed>6.460000</speed>
</trkpt>
<trkpt lat="22.037798" lon="104.686028">
<ele>134.970825</ele>
<time>2011-04-28T06:47:29Z</time>
<desc>lat.=22.037798, lon.=104.686028, Alt.=134.970825m. Speed=21.204000m/h.</desc>
<speed>5.890000</speed>
</trkpt>
<trkpt lat="22.037590" lon="104.686249">
<ele>136.466919</ele>
<time>2011-04-28T06:47:34Z</time>
<desc>lat.=22.037590, lon.=104.686249, Alt.=136.466919m. Speed=22.320000m/h.</desc>
<speed>6.200000</speed>
</trkpt>
<trkpt lat="22.037373" lon="104.686440">
<ele>137.357544</ele>
<time>2011-04-28T06:47:39Z</time>
<desc>lat.=22.037373, lon.=104.686440, Alt.=137.357544m. Speed=22.500000m/h.</desc>
<speed>6.250000</speed>
</trkpt>
<trkpt lat="22.037193" lon="104.686630">
<ele>138.314575</ele>
<time>2011-04-28T06:47:44Z</time>
<desc>lat.=22.037193, lon.=104.686630, Alt.=138.314575m. Speed=19.872000m/h.</desc>
<speed>5.520000</speed>
</trkpt>
<trkpt lat="22.037163" lon="104.686897">
<ele>138.529419</ele>
<time>2011-04-28T06:47:49Z</time>
<desc>lat.=22.037163, lon.=104.686897, Alt.=138.529419m. Speed=18.396000m/h.</desc>
<speed>5.110000</speed>
</trkpt>
<trkpt lat="22.037153" lon="104.687172">
<ele>137.685669</ele>
<time>2011-04-28T06:47:54Z</time>
<desc>lat.=22.037153, lon.=104.687172, Alt.=137.685669m. Speed=21.636000m/h.</desc>
<speed>6.010000</speed>
</trkpt>
<trkpt lat="22.037004" lon="104.687431">
<ele>137.416138</ele>
<time>2011-04-28T06:47:59Z</time>
<desc>lat.=22.037004, lon.=104.687431, Alt.=137.416138m. Speed=24.299999m/h.</desc>
<speed>6.750000</speed>
</trkpt>
<trkpt lat="22.036755" lon="104.687668">
<ele>137.505981</ele>
<time>2011-04-28T06:48:04Z</time>
<desc>lat.=22.036755, lon.=104.687668, Alt.=137.505981m. Speed=27.684000m/h.</desc>
<speed>7.690000</speed>
</trkpt>
<trkpt lat="22.036467" lon="104.687935">
<ele>137.767700</ele>
<time>2011-04-28T06:48:09Z</time>
<desc>lat.=22.036467, lon.=104.687935, Alt.=137.767700m. Speed=29.664000m/h.</desc>
<speed>8.240000</speed>
</trkpt>
<trkpt lat="22.036240" lon="104.688232">
<ele>138.666138</ele>
<time>2011-04-28T06:48:14Z</time>
<desc>lat.=22.036240, lon.=104.688232, Alt.=138.666138m. Speed=27.540001m/h.</desc>
<speed>7.650000</speed>
</trkpt>
<trkpt lat="22.036184" lon="104.688576">
<ele>140.291138</ele>
<time>2011-04-28T06:48:19Z</time>
<desc>lat.=22.036184, lon.=104.688576, Alt.=140.291138m. Speed=24.912001m/h.</desc>
<speed>6.920000</speed>
</trkpt>
<trkpt lat="22.036104" lon="104.688881">
<ele>140.158325</ele>
<time>2011-04-28T06:48:24Z</time>
<desc>lat.=22.036104, lon.=104.688881, Alt.=140.158325m. Speed=22.320000m/h.</desc>
<speed>6.200000</speed>
</trkpt>
<trkpt lat="22.035866" lon="104.689026">
<ele>142.232544</ele>
<time>2011-04-28T06:48:29Z</time>
<desc>lat.=22.035866, lon.=104.689026, Alt.=142.232544m. Speed=22.500000m/h.</desc>
<speed>6.250000</speed>
</trkpt>
<trkpt lat="22.035574" lon="104.689072">
<ele>140.513794</ele>
<time>2011-04-28T06:48:34Z</time>
<desc>lat.=22.035574, lon.=104.689072, Alt.=140.513794m. Speed=24.264000m/h.</desc>
<speed>6.740000</speed>
</trkpt>
<trkpt lat="22.035276" lon="104.689125">
<ele>138.103638</ele>
<time>2011-04-28T06:48:39Z</time>
<desc>lat.=22.035276, lon.=104.689125, Alt.=138.103638m. Speed=25.704000m/h.</desc>
<speed>7.140000</speed>
</trkpt>
<trkpt lat="22.034933" lon="104.689331">
<ele>137.810669</ele>
<time>2011-04-28T06:48:44Z</time>
<desc>lat.=22.034933, lon.=104.689331, Alt.=137.810669m. Speed=29.771999m/h.</desc>
<speed>8.270000</speed>
</trkpt>
<trkpt lat="22.034634" lon="104.689606">
<ele>137.076294</ele>
<time>2011-04-28T06:48:49Z</time>
<desc>lat.=22.034634, lon.=104.689606, Alt.=137.076294m. Speed=30.240000m/h.</desc>
<speed>8.400000</speed>
</trkpt>
<trkpt lat="22.034437" lon="104.689934">
<ele>134.189575</ele>
<time>2011-04-28T06:48:54Z</time>
<desc>lat.=22.034437, lon.=104.689934, Alt.=134.189575m. Speed=31.464001m/h.</desc>
<speed>8.740000</speed>
</trkpt>
<trkpt lat="22.034470" lon="104.690392">
<ele>129.423950</ele>
<time>2011-04-28T06:48:59Z</time>
<desc>lat.=22.034470, lon.=104.690392, Alt.=129.423950m. Speed=28.260000m/h.</desc>
<speed>7.850000</speed>
</trkpt>
<trkpt lat="22.034317" lon="104.690636">
<ele>125.245178</ele>
<time>2011-04-28T06:49:04Z</time>
<desc>lat.=22.034317, lon.=104.690636, Alt.=125.245178m. Speed=21.384001m/h.</desc>
<speed>5.940000</speed>
</trkpt>
<trkpt lat="22.034019" lon="104.690697">
<ele>120.540100</ele>
<time>2011-04-28T06:49:09Z</time>
<desc>lat.=22.034019, lon.=104.690697, Alt.=120.540100m. Speed=25.128000m/h.</desc>
<speed>6.980000</speed>
</trkpt>
<trkpt lat="22.033728" lon="104.690941">
<ele>118.342834</ele>
<time>2011-04-28T06:49:14Z</time>
<desc>lat.=22.033728, lon.=104.690941, Alt.=118.342834m. Speed=30.455999m/h.</desc>
<speed>8.460000</speed>
</trkpt>
<trkpt lat="22.033436" lon="104.691208">
<ele>116.825256</ele>
<time>2011-04-28T06:49:19Z</time>
<desc>lat.=22.033436, lon.=104.691208, Alt.=116.825256m. Speed=28.403999m/h.</desc>
<speed>7.890000</speed>
</trkpt>
<trkpt lat="22.033224" lon="104.691521">
<ele>116.372131</ele>
<time>2011-04-28T06:49:24Z</time>
<desc>lat.=22.033224, lon.=104.691521, Alt.=116.372131m. Speed=26.747999m/h.</desc>
<speed>7.430000</speed>
</trkpt>
<trkpt lat="22.033062" lon="104.691940">
<ele>116.739319</ele>
<time>2011-04-28T06:49:29Z</time>
<desc>lat.=22.033062, lon.=104.691940, Alt.=116.739319m. Speed=28.332001m/h.</desc>
<speed>7.870000</speed>
</trkpt>
<trkpt lat="22.032722" lon="104.692169">
<ele>116.963928</ele>
<time>2011-04-28T06:49:34Z</time>
<desc>lat.=22.032722, lon.=104.692169, Alt.=116.963928m. Speed=30.455999m/h.</desc>
<speed>8.460000</speed>
</trkpt>
<trkpt lat="22.032351" lon="104.692352">
<ele>117.346741</ele>
<time>2011-04-28T06:49:39Z</time>
<desc>lat.=22.032351, lon.=104.692352, Alt.=117.346741m. Speed=31.068001m/h.</desc>
<speed>8.630000</speed>
</trkpt>
<trkpt lat="22.032024" lon="104.692543">
<ele>116.124084</ele>
<time>2011-04-28T06:49:44Z</time>
<desc>lat.=22.032024, lon.=104.692543, Alt.=116.124084m. Speed=25.559999m/h.</desc>
<speed>7.100000</speed>
</trkpt>
<trkpt lat="22.031984" lon="104.692848">
<ele>115.180725</ele>
<time>2011-04-28T06:49:49Z</time>
<desc>lat.=22.031984, lon.=104.692848, Alt.=115.180725m. Speed=26.496000m/h.</desc>
<speed>7.360000</speed>
</trkpt>
<trkpt lat="22.032089" lon="104.693245">
<ele>109.983459</ele>
<time>2011-04-28T06:49:54Z</time>
<desc>lat.=22.032089, lon.=104.693245, Alt.=109.983459m. Speed=28.656000m/h.</desc>
<speed>7.960000</speed>
</trkpt>
<trkpt lat="22.032179" lon="104.693604">
<ele>107.325256</ele>
<time>2011-04-28T06:49:59Z</time>
<desc>lat.=22.032179, lon.=104.693604, Alt.=107.325256m. Speed=25.848000m/h.</desc>
<speed>7.180000</speed>
</trkpt>
<trkpt lat="22.032253" lon="104.693954">
<ele>105.768616</ele>
<time>2011-04-28T06:50:04Z</time>
<desc>lat.=22.032253, lon.=104.693954, Alt.=105.768616m. Speed=27.792000m/h.</desc>
<speed>7.720000</speed>
</trkpt>
<trkpt lat="22.032272" lon="104.694374">
<ele>105.506897</ele>
<time>2011-04-28T06:50:09Z</time>
<desc>lat.=22.032272, lon.=104.694374, Alt.=105.506897m. Speed=31.427999m/h.</desc>
<speed>8.730000</speed>
</trkpt>
<trkpt lat="22.032221" lon="104.694794">
<ele>106.393616</ele>
<time>2011-04-28T06:50:14Z</time>
<desc>lat.=22.032221, lon.=104.694794, Alt.=106.393616m. Speed=29.268000m/h.</desc>
<speed>8.130000</speed>
</trkpt>
<trkpt lat="22.032108" lon="104.695091">
<ele>106.936584</ele>
<time>2011-04-28T06:50:19Z</time>
<desc>lat.=22.032108, lon.=104.695091, Alt.=106.936584m. Speed=22.104000m/h.</desc>
<speed>6.140000</speed>
</trkpt>
<trkpt lat="22.031981" lon="104.695274">
<ele>108.274475</ele>
<time>2011-04-28T06:50:24Z</time>
<desc>lat.=22.031981, lon.=104.695274, Alt.=108.274475m. Speed=6.516000m/h.</desc>
<speed>1.810000</speed>
</trkpt>
<trkpt lat="22.031925" lon="104.695351">
<ele>109.188538</ele>
<time>2011-04-28T06:50:29Z</time>
<desc>lat.=22.031925, lon.=104.695351, Alt.=109.188538m. Speed=7.236000m/h.</desc>
<speed>2.010000</speed>
</trkpt>
<trkpt lat="22.031807" lon="104.695496">
<ele>111.108459</ele>
<time>2011-04-28T06:50:34Z</time>
<desc>lat.=22.031807, lon.=104.695496, Alt.=111.108459m. Speed=14.184000m/h.</desc>
<speed>3.940000</speed>
</trkpt>
<trkpt lat="22.031536" lon="104.695633">
<ele>112.206116</ele>
<time>2011-04-28T06:50:39Z</time>
<desc>lat.=22.031536, lon.=104.695633, Alt.=112.206116m. Speed=29.160000m/h.</desc>
<speed>8.100000</speed>
</trkpt>
<trkpt lat="22.031275" lon="104.695900">
<ele>113.235413</ele>
<time>2011-04-28T06:50:44Z</time>
<desc>lat.=22.031275, lon.=104.695900, Alt.=113.235413m. Speed=27.719999m/h.</desc>
<speed>7.700000</speed>
</trkpt>
<trkpt lat="22.031052" lon="104.696327">
<ele>113.643616</ele>
<time>2011-04-28T06:50:49Z</time>
<desc>lat.=22.031052, lon.=104.696327, Alt.=113.643616m. Speed=37.764000m/h.</desc>
<speed>10.490000</speed>
</trkpt>
<trkpt lat="22.030739" lon="104.696739">
<ele>115.239319</ele>
<time>2011-04-28T06:50:54Z</time>
<desc>lat.=22.030739, lon.=104.696739, Alt.=115.239319m. Speed=37.403999m/h.</desc>
<speed>10.390000</speed>
</trkpt>
<trkpt lat="22.030529" lon="104.697258">
<ele>114.485413</ele>
<time>2011-04-28T06:50:59Z</time>
<desc>lat.=22.030529, lon.=104.697258, Alt.=114.485413m. Speed=30.816000m/h.</desc>
<speed>8.560000</speed>
</trkpt>
<trkpt lat="22.030518" lon="104.697723">
<ele>112.438538</ele>
<time>2011-04-28T06:51:04Z</time>
<desc>lat.=22.030518, lon.=104.697723, Alt.=112.438538m. Speed=31.427999m/h.</desc>
<speed>8.730000</speed>
</trkpt>
<trkpt lat="22.030476" lon="104.698166">
<ele>111.454163</ele>
<time>2011-04-28T06:51:09Z</time>
<desc>lat.=22.030476, lon.=104.698166, Alt.=111.454163m. Speed=29.952000m/h.</desc>
<speed>8.320000</speed>
</trkpt>
<trkpt lat="22.030329" lon="104.698532">
<ele>110.311584</ele>
<time>2011-04-28T06:51:14Z</time>
<desc>lat.=22.030329, lon.=104.698532, Alt.=110.311584m. Speed=29.304001m/h.</desc>
<speed>8.140000</speed>
</trkpt>
<trkpt lat="22.030121" lon="104.698708">
<ele>107.155334</ele>
<time>2011-04-28T06:51:19Z</time>
<desc>lat.=22.030121, lon.=104.698708, Alt.=107.155334m. Speed=21.816000m/h.</desc>
<speed>6.060000</speed>
</trkpt>
<trkpt lat="22.030073" lon="104.699013">
<ele>105.751038</ele>
<time>2011-04-28T06:51:24Z</time>
<desc>lat.=22.030073, lon.=104.699013, Alt.=105.751038m. Speed=18.827999m/h.</desc>
<speed>5.230000</speed>
</trkpt>
<trkpt lat="22.030273" lon="104.699272">
<ele>103.528381</ele>
<time>2011-04-28T06:51:29Z</time>
<desc>lat.=22.030273, lon.=104.699272, Alt.=103.528381m. Speed=26.136000m/h.</desc>
<speed>7.260000</speed>
</trkpt>
<trkpt lat="22.030313" lon="104.699539">
<ele>101.501038</ele>
<time>2011-04-28T06:51:34Z</time>
<desc>lat.=22.030313, lon.=104.699539, Alt.=101.501038m. Speed=24.444000m/h.</desc>
<speed>6.790000</speed>
</trkpt>
<trkpt lat="22.030029" lon="104.699791">
<ele>99.401428</ele>
<time>2011-04-28T06:51:39Z</time>
<desc>lat.=22.030029, lon.=104.699791, Alt.=99.401428m. Speed=32.796001m/h.</desc>
<speed>9.110000</speed>
</trkpt>
<trkpt lat="22.029716" lon="104.700150">
<ele>97.751038</ele>
<time>2011-04-28T06:51:44Z</time>
<desc>lat.=22.029716, lon.=104.700150, Alt.=97.751038m. Speed=35.568001m/h.</desc>
<speed>9.880000</speed>
</trkpt>
<trkpt lat="22.029480" lon="104.700493">
<ele>95.936584</ele>
<time>2011-04-28T06:51:49Z</time>
<desc>lat.=22.029480, lon.=104.700493, Alt.=95.936584m. Speed=24.408001m/h.</desc>
<speed>6.780000</speed>
</trkpt>
<trkpt lat="22.029314" lon="104.700859">
<ele>94.055725</ele>
<time>2011-04-28T06:51:54Z</time>
<desc>lat.=22.029314, lon.=104.700859, Alt.=94.055725m. Speed=33.264000m/h.</desc>
<speed>9.240000</speed>
</trkpt>
<trkpt lat="22.029108" lon="104.701256">
<ele>92.096741</ele>
<time>2011-04-28T06:51:59Z</time>
<desc>lat.=22.029108, lon.=104.701256, Alt.=92.096741m. Speed=32.796001m/h.</desc>
<speed>9.110000</speed>
</trkpt>
<trkpt lat="22.028887" lon="104.701607">
<ele>90.319397</ele>
<time>2011-04-28T06:52:04Z</time>
<desc>lat.=22.028887, lon.=104.701607, Alt.=90.319397m. Speed=33.588001m/h.</desc>
<speed>9.330000</speed>
</trkpt>
<trkpt lat="22.028791" lon="104.702209">
<ele>87.028381</ele>
<time>2011-04-28T06:52:09Z</time>
<desc>lat.=22.028791, lon.=104.702209, Alt.=87.028381m. Speed=41.939999m/h.</desc>
<speed>11.650000</speed>
</trkpt>
<trkpt lat="22.028572" lon="104.702698">
<ele>85.485413</ele>
<time>2011-04-28T06:52:14Z</time>
<desc>lat.=22.028572, lon.=104.702698, Alt.=85.485413m. Speed=41.076000m/h.</desc>
<speed>11.410000</speed>
</trkpt>
<trkpt lat="22.028191" lon="104.702988">
<ele>84.083069</ele>
<time>2011-04-28T06:52:19Z</time>
<desc>lat.=22.028191, lon.=104.702988, Alt.=84.083069m. Speed=34.416000m/h.</desc>
<speed>9.560000</speed>
</trkpt>
<trkpt lat="22.027874" lon="104.703209">
<ele>82.592834</ele>
<time>2011-04-28T06:52:24Z</time>
<desc>lat.=22.027874, lon.=104.703209, Alt.=82.592834m. Speed=26.639999m/h.</desc>
<speed>7.400000</speed>
</trkpt>
<trkpt lat="22.027580" lon="104.703308">
<ele>80.879944</ele>
<time>2011-04-28T06:52:29Z</time>
<desc>lat.=22.027580, lon.=104.703308, Alt.=80.879944m. Speed=20.771999m/h.</desc>
<speed>5.770000</speed>
</trkpt>
<trkpt lat="22.027388" lon="104.703316">
<ele>78.301819</ele>
<time>2011-04-28T06:52:34Z</time>
<desc>lat.=22.027388, lon.=104.703316, Alt.=78.301819m. Speed=14.508000m/h.</desc>
<speed>4.030000</speed>
</trkpt>
<trkpt lat="22.027189" lon="104.703239">
<ele>75.960022</ele>
<time>2011-04-28T06:52:39Z</time>
<desc>lat.=22.027189, lon.=104.703239, Alt.=75.960022m. Speed=11.304000m/h.</desc>
<speed>3.140000</speed>
</trkpt>
<trkpt lat="22.027025" lon="104.703171">
<ele>76.102600</ele>
<time>2011-04-28T06:52:44Z</time>
<desc>lat.=22.027025, lon.=104.703171, Alt.=76.102600m. Speed=9.504000m/h.</desc>
<speed>2.640000</speed>
</trkpt>
<trkpt lat="22.026875" lon="104.703079">
<ele>75.174866</ele>
<time>2011-04-28T06:52:49Z</time>
<desc>lat.=22.026875, lon.=104.703079, Alt.=75.174866m. Speed=10.512000m/h.</desc>
<speed>2.920000</speed>
</trkpt>
<trkpt lat="22.026741" lon="104.703041">
<ele>76.348694</ele>
<time>2011-04-28T06:52:54Z</time>
<desc>lat.=22.026741, lon.=104.703041, Alt.=76.348694m. Speed=10.044000m/h.</desc>
<speed>2.790000</speed>
</trkpt>
<trkpt lat="22.026613" lon="104.703011">
<ele>76.766663</ele>
<time>2011-04-28T06:52:59Z</time>
<desc>lat.=22.026613, lon.=104.703011, Alt.=76.766663m. Speed=8.172000m/h.</desc>
<speed>2.270000</speed>
</trkpt>
<trkpt lat="22.026442" lon="104.702957">
<ele>78.659241</ele>
<time>2011-04-28T06:53:04Z</time>
<desc>lat.=22.026442, lon.=104.702957, Alt.=78.659241m. Speed=9.828000m/h.</desc>
<speed>2.730000</speed>
</trkpt>
<trkpt lat="22.026299" lon="104.702980">
<ele>78.497131</ele>
<time>2011-04-28T06:53:09Z</time>
<desc>lat.=22.026299, lon.=104.702980, Alt.=78.497131m. Speed=8.100000m/h.</desc>
<speed>2.250000</speed>
</trkpt>
<trkpt lat="22.026155" lon="104.703011">
<ele>79.112366</ele>
<time>2011-04-28T06:53:14Z</time>
<desc>lat.=22.026155, lon.=104.703011, Alt.=79.112366m. Speed=9.072000m/h.</desc>
<speed>2.520000</speed>
</trkpt>
<trkpt lat="22.026024" lon="104.703033">
<ele>79.358459</ele>
<time>2011-04-28T06:53:19Z</time>
<desc>lat.=22.026024, lon.=104.703033, Alt.=79.358459m. Speed=8.532000m/h.</desc>
<speed>2.370000</speed>
</trkpt>
<trkpt lat="22.025917" lon="104.703049">
<ele>80.579163</ele>
<time>2011-04-28T06:53:24Z</time>
<desc>lat.=22.025917, lon.=104.703049, Alt.=80.579163m. Speed=9.684000m/h.</desc>
<speed>2.690000</speed>
</trkpt>
<trkpt lat="22.025818" lon="104.703072">
<ele>81.336975</ele>
<time>2011-04-28T06:53:29Z</time>
<desc>lat.=22.025818, lon.=104.703072, Alt.=81.336975m. Speed=5.760000m/h.</desc>
<speed>1.600000</speed>
</trkpt>
<trkpt lat="22.025717" lon="104.703072">
<ele>83.407288</ele>
<time>2011-04-28T06:53:34Z</time>
<desc>lat.=22.025717, lon.=104.703072, Alt.=83.407288m. Speed=6.840000m/h.</desc>
<speed>1.900000</speed>
</trkpt>
<trkpt lat="22.025539" lon="104.703041">
<ele>82.169006</ele>
<time>2011-04-28T06:53:39Z</time>
<desc>lat.=22.025539, lon.=104.703041, Alt.=82.169006m. Speed=6.516000m/h.</desc>
<speed>1.810000</speed>
</trkpt>
<trkpt lat="22.025427" lon="104.703079">
<ele>81.559631</ele>
<time>2011-04-28T06:53:44Z</time>
<desc>lat.=22.025427, lon.=104.703079, Alt.=81.559631m. Speed=7.776000m/h.</desc>
<speed>2.160000</speed>
</trkpt>
<trkpt lat="22.025303" lon="104.703117">
<ele>81.221741</ele>
<time>2011-04-28T06:53:49Z</time>
<desc>lat.=22.025303, lon.=104.703117, Alt.=81.221741m. Speed=9.468000m/h.</desc>
<speed>2.630000</speed>
</trkpt>
<trkpt lat="22.025148" lon="104.703178">
<ele>80.385803</ele>
<time>2011-04-28T06:53:54Z</time>
<desc>lat.=22.025148, lon.=104.703178, Alt.=80.385803m. Speed=11.916000m/h.</desc>
<speed>3.310000</speed>
</trkpt>
<trkpt lat="22.025042" lon="104.703308">
<ele>80.795959</ele>
<time>2011-04-28T06:53:59Z</time>
<desc>lat.=22.025042, lon.=104.703308, Alt.=80.795959m. Speed=13.644000m/h.</desc>
<speed>3.790000</speed>
</trkpt>
<trkpt lat="22.024979" lon="104.703522">
<ele>79.795959</ele>
<time>2011-04-28T06:54:04Z</time>
<desc>lat.=22.024979, lon.=104.703522, Alt.=79.795959m. Speed=17.028000m/h.</desc>
<speed>4.730000</speed>
</trkpt>
<trkpt lat="22.024893" lon="104.703743">
<ele>79.907288</ele>
<time>2011-04-28T06:54:09Z</time>
<desc>lat.=22.024893, lon.=104.703743, Alt.=79.907288m. Speed=17.856001m/h.</desc>
<speed>4.960000</speed>
</trkpt>
<trkpt lat="22.024731" lon="104.703957">
<ele>79.663147</ele>
<time>2011-04-28T06:54:14Z</time>
<desc>lat.=22.024731, lon.=104.703957, Alt.=79.663147m. Speed=19.332001m/h.</desc>
<speed>5.370000</speed>
</trkpt>
<trkpt lat="22.024559" lon="104.704140">
<ele>79.877991</ele>
<time>2011-04-28T06:54:19Z</time>
<desc>lat.=22.024559, lon.=104.704140, Alt.=79.877991m. Speed=18.576000m/h.</desc>
<speed>5.160000</speed>
</trkpt>
<trkpt lat="22.024405" lon="104.704315">
<ele>79.768616</ele>
<time>2011-04-28T06:54:24Z</time>
<desc>lat.=22.024405, lon.=104.704315, Alt.=79.768616m. Speed=16.848000m/h.</desc>
<speed>4.680000</speed>
</trkpt>
<trkpt lat="22.024267" lon="104.704491">
<ele>79.327209</ele>
<time>2011-04-28T06:54:29Z</time>
<desc>lat.=22.024267, lon.=104.704491, Alt.=79.327209m. Speed=16.164000m/h.</desc>
<speed>4.490000</speed>
</trkpt>
<trkpt lat="22.024136" lon="104.704643">
<ele>78.651428</ele>
<time>2011-04-28T06:54:34Z</time>
<desc>lat.=22.024136, lon.=104.704643, Alt.=78.651428m. Speed=15.228000m/h.</desc>
<speed>4.230000</speed>
</trkpt>
<trkpt lat="22.024036" lon="104.704803">
<ele>77.920959</ele>
<time>2011-04-28T06:54:39Z</time>
<desc>lat.=22.024036, lon.=104.704803, Alt.=77.920959m. Speed=12.420000m/h.</desc>
<speed>3.450000</speed>
</trkpt>
<trkpt lat="22.023947" lon="104.704933">
<ele>78.483459</ele>
<time>2011-04-28T06:54:44Z</time>
<desc>lat.=22.023947, lon.=104.704933, Alt.=78.483459m. Speed=11.592000m/h.</desc>
<speed>3.220000</speed>
</trkpt>
<trkpt lat="22.023849" lon="104.705063">
<ele>77.928772</ele>
<time>2011-04-28T06:54:49Z</time>
<desc>lat.=22.023849, lon.=104.705063, Alt.=77.928772m. Speed=11.952000m/h.</desc>
<speed>3.320000</speed>
</trkpt>
<trkpt lat="22.023724" lon="104.705162">
<ele>78.504944</ele>
<time>2011-04-28T06:54:54Z</time>
<desc>lat.=22.023724, lon.=104.705162, Alt.=78.504944m. Speed=11.484000m/h.</desc>
<speed>3.190000</speed>
</trkpt>
<trkpt lat="22.023630" lon="104.705223">
<ele>77.973694</ele>
<time>2011-04-28T06:54:59Z</time>
<desc>lat.=22.023630, lon.=104.705223, Alt.=77.973694m. Speed=8.856000m/h.</desc>
<speed>2.460000</speed>
</trkpt>
<trkpt lat="22.023495" lon="104.705284">
<ele>79.083069</ele>
<time>2011-04-28T06:55:04Z</time>
<desc>lat.=22.023495, lon.=104.705284, Alt.=79.083069m. Speed=13.392000m/h.</desc>
<speed>3.720000</speed>
</trkpt>
<trkpt lat="22.023323" lon="104.705345">
<ele>79.417053</ele>
<time>2011-04-28T06:55:09Z</time>
<desc>lat.=22.023323, lon.=104.705345, Alt.=79.417053m. Speed=13.248000m/h.</desc>
<speed>3.680000</speed>
</trkpt>
<trkpt lat="22.023180" lon="104.705444">
<ele>79.083069</ele>
<time>2011-04-28T06:55:14Z</time>
<desc>lat.=22.023180, lon.=104.705444, Alt.=79.083069m. Speed=14.436000m/h.</desc>
<speed>4.010000</speed>
</trkpt>
<trkpt lat="22.023104" lon="104.705627">
<ele>75.208069</ele>
<time>2011-04-28T06:55:19Z</time>
<desc>lat.=22.023104, lon.=104.705627, Alt.=75.208069m. Speed=14.364000m/h.</desc>
<speed>3.990000</speed>
</trkpt>
<trkpt lat="22.023104" lon="104.705833">
<ele>75.895569</ele>
<time>2011-04-28T06:55:24Z</time>
<desc>lat.=22.023104, lon.=104.705833, Alt.=75.895569m. Speed=15.876000m/h.</desc>
<speed>4.410000</speed>
</trkpt>
<trkpt lat="22.023115" lon="104.706039">
<ele>76.372131</ele>
<time>2011-04-28T06:55:29Z</time>
<desc>lat.=22.023115, lon.=104.706039, Alt.=76.372131m. Speed=13.680000m/h.</desc>
<speed>3.800000</speed>
</trkpt>
<trkpt lat="22.023132" lon="104.706238">
<ele>77.129944</ele>
<time>2011-04-28T06:55:34Z</time>
<desc>lat.=22.023132, lon.=104.706238, Alt.=77.129944m. Speed=14.328000m/h.</desc>
<speed>3.980000</speed>
</trkpt>
<trkpt lat="22.023132" lon="104.706436">
<ele>77.688538</ele>
<time>2011-04-28T06:55:39Z</time>
<desc>lat.=22.023132, lon.=104.706436, Alt.=77.688538m. Speed=15.444000m/h.</desc>
<speed>4.290000</speed>
</trkpt>
<trkpt lat="22.023140" lon="104.706589">
<ele>77.579163</ele>
<time>2011-04-28T06:55:44Z</time>
<desc>lat.=22.023140, lon.=104.706589, Alt.=77.579163m. Speed=11.196000m/h.</desc>
<speed>3.110000</speed>
</trkpt>
<trkpt lat="22.023132" lon="104.706734">
<ele>77.458069</ele>
<time>2011-04-28T06:55:49Z</time>
<desc>lat.=22.023132, lon.=104.706734, Alt.=77.458069m. Speed=8.676000m/h.</desc>
<speed>2.410000</speed>
</trkpt>
<trkpt lat="22.022915" lon="104.706886">
<ele>76.620178</ele>
<time>2011-04-28T06:55:54Z</time>
<desc>lat.=22.022915, lon.=104.706886, Alt.=76.620178m. Speed=17.964001m/h.</desc>
<speed>4.990000</speed>
</trkpt>
<trkpt lat="22.022638" lon="104.706871">
<ele>76.815491</ele>
<time>2011-04-28T06:55:59Z</time>
<desc>lat.=22.022638, lon.=104.706871, Alt.=76.815491m. Speed=19.764000m/h.</desc>
<speed>5.490000</speed>
</trkpt>
<trkpt lat="22.022404" lon="104.706947">
<ele>76.286194</ele>
<time>2011-04-28T06:56:04Z</time>
<desc>lat.=22.022404, lon.=104.706947, Alt.=76.286194m. Speed=17.856001m/h.</desc>
<speed>4.960000</speed>
</trkpt>
<trkpt lat="22.022255" lon="104.707222">
<ele>75.301819</ele>
<time>2011-04-28T06:56:09Z</time>
<desc>lat.=22.022255, lon.=104.707222, Alt.=75.301819m. Speed=24.444000m/h.</desc>
<speed>6.790000</speed>
</trkpt>
<trkpt lat="22.022085" lon="104.707497">
<ele>76.061584</ele>
<time>2011-04-28T06:56:14Z</time>
<desc>lat.=22.022085, lon.=104.707497, Alt.=76.061584m. Speed=22.032000m/h.</desc>
<speed>6.120000</speed>
</trkpt>
<trkpt lat="22.021906" lon="104.707726">
<ele>76.362366</ele>
<time>2011-04-28T06:56:19Z</time>
<desc>lat.=22.021906, lon.=104.707726, Alt.=76.362366m. Speed=21.851999m/h.</desc>
<speed>6.070000</speed>
</trkpt>
<trkpt lat="22.021736" lon="104.707932">
<ele>76.696350</ele>
<time>2011-04-28T06:56:24Z</time>
<desc>lat.=22.021736, lon.=104.707932, Alt.=76.696350m. Speed=17.316000m/h.</desc>
<speed>4.810000</speed>
</trkpt>
<trkpt lat="22.021605" lon="104.708107">
<ele>76.768616</ele>
<time>2011-04-28T06:56:29Z</time>
<desc>lat.=22.021605, lon.=104.708107, Alt.=76.768616m. Speed=15.624000m/h.</desc>
<speed>4.340000</speed>
</trkpt>
<trkpt lat="22.021460" lon="104.708275">
<ele>75.231506</ele>
<time>2011-04-28T06:56:34Z</time>
<desc>lat.=22.021460, lon.=104.708275, Alt.=75.231506m. Speed=15.588000m/h.</desc>
<speed>4.330000</speed>
</trkpt>
<trkpt lat="22.021320" lon="104.708435">
<ele>74.045959</ele>
<time>2011-04-28T06:56:39Z</time>
<desc>lat.=22.021320, lon.=104.708435, Alt.=74.045959m. Speed=15.804000m/h.</desc>
<speed>4.390000</speed>
</trkpt>
<trkpt lat="22.021187" lon="104.708618">
<ele>72.764709</ele>
<time>2011-04-28T06:56:44Z</time>
<desc>lat.=22.021187, lon.=104.708618, Alt.=72.764709m. Speed=16.344000m/h.</desc>
<speed>4.540000</speed>
</trkpt>
<trkpt lat="22.021023" lon="104.708778">
<ele>71.110413</ele>
<time>2011-04-28T06:56:49Z</time>
<desc>lat.=22.021023, lon.=104.708778, Alt.=71.110413m. Speed=16.559999m/h.</desc>
<speed>4.600000</speed>
</trkpt>
<trkpt lat="22.020781" lon="104.708847">
<ele>74.991272</ele>
<time>2011-04-28T06:56:54Z</time>
<desc>lat.=22.020781, lon.=104.708847, Alt.=74.991272m. Speed=16.344000m/h.</desc>
<speed>4.540000</speed>
</trkpt>
<trkpt lat="22.020573" lon="104.708847">
<ele>76.844788</ele>
<time>2011-04-28T06:56:59Z</time>
<desc>lat.=22.020573, lon.=104.708847, Alt.=76.844788m. Speed=14.580000m/h.</desc>
<speed>4.050000</speed>
</trkpt>
<trkpt lat="22.020388" lon="104.708916">
<ele>77.282288</ele>
<time>2011-04-28T06:57:04Z</time>
<desc>lat.=22.020388, lon.=104.708916, Alt.=77.282288m. Speed=16.524000m/h.</desc>
<speed>4.590000</speed>
</trkpt>
<trkpt lat="22.020239" lon="104.709068">
<ele>76.336975</ele>
<time>2011-04-28T06:57:09Z</time>
<desc>lat.=22.020239, lon.=104.709068, Alt.=76.336975m. Speed=16.020000m/h.</desc>
<speed>4.450000</speed>
</trkpt>
<trkpt lat="22.020164" lon="104.709259">
<ele>76.020569</ele>
<time>2011-04-28T06:57:14Z</time>
<desc>lat.=22.020164, lon.=104.709259, Alt.=76.020569m. Speed=15.948000m/h.</desc>
<speed>4.430000</speed>
</trkpt>
<trkpt lat="22.020185" lon="104.709503">
<ele>76.463928</ele>
<time>2011-04-28T06:57:19Z</time>
<desc>lat.=22.020185, lon.=104.709503, Alt.=76.463928m. Speed=17.712000m/h.</desc>
<speed>4.920000</speed>
</trkpt>
<trkpt lat="22.020216" lon="104.709724">
<ele>77.229553</ele>
<time>2011-04-28T06:57:24Z</time>
<desc>lat.=22.020216, lon.=104.709724, Alt.=77.229553m. Speed=18.360001m/h.</desc>
<speed>5.100000</speed>
</trkpt>
<trkpt lat="22.020178" lon="104.709961">
<ele>77.071350</ele>
<time>2011-04-28T06:57:29Z</time>
<desc>lat.=22.020178, lon.=104.709961, Alt.=77.071350m. Speed=17.208000m/h.</desc>
<speed>4.780000</speed>
</trkpt>
<trkpt lat="22.020067" lon="104.710152">
<ele>77.192444</ele>
<time>2011-04-28T06:57:34Z</time>
<desc>lat.=22.020067, lon.=104.710152, Alt.=77.192444m. Speed=16.992001m/h.</desc>
<speed>4.720000</speed>
</trkpt>
<trkpt lat="22.019955" lon="104.710373">
<ele>75.508850</ele>
<time>2011-04-28T06:57:39Z</time>
<desc>lat.=22.019955, lon.=104.710373, Alt.=75.508850m. Speed=17.351999m/h.</desc>
<speed>4.820000</speed>
</trkpt>
<trkpt lat="22.019859" lon="104.710556">
<ele>75.579163</ele>
<time>2011-04-28T06:57:44Z</time>
<desc>lat.=22.019859, lon.=104.710556, Alt.=75.579163m. Speed=14.364000m/h.</desc>
<speed>3.990000</speed>
</trkpt>
<trkpt lat="22.019785" lon="104.710693">
<ele>75.106506</ele>
<time>2011-04-28T06:57:49Z</time>
<desc>lat.=22.019785, lon.=104.710693, Alt.=75.106506m. Speed=9.756000m/h.</desc>
<speed>2.710000</speed>
</trkpt>
<trkpt lat="22.019707" lon="104.710823">
<ele>75.465881</ele>
<time>2011-04-28T06:57:54Z</time>
<desc>lat.=22.019707, lon.=104.710823, Alt.=75.465881m. Speed=9.900000m/h.</desc>
<speed>2.750000</speed>
</trkpt>
<trkpt lat="22.019615" lon="104.710907">
<ele>77.198303</ele>
<time>2011-04-28T06:57:59Z</time>
<desc>lat.=22.019615, lon.=104.710907, Alt.=77.198303m. Speed=8.748000m/h.</desc>
<speed>2.430000</speed>
</trkpt>
<trkpt lat="22.019535" lon="104.710999">
<ele>77.805725</ele>
<time>2011-04-28T06:58:04Z</time>
<desc>lat.=22.019535, lon.=104.710999, Alt.=77.805725m. Speed=7.704000m/h.</desc>
<speed>2.140000</speed>
</trkpt>
<trkpt lat="22.019436" lon="104.711082">
<ele>78.471741</ele>
<time>2011-04-28T06:58:09Z</time>
<desc>lat.=22.019436, lon.=104.711082, Alt.=78.471741m. Speed=9.216000m/h.</desc>
<speed>2.560000</speed>
</trkpt>
<trkpt lat="22.019325" lon="104.711121">
<ele>79.452209</ele>
<time>2011-04-28T06:58:14Z</time>
<desc>lat.=22.019325, lon.=104.711121, Alt.=79.452209m. Speed=7.596000m/h.</desc>
<speed>2.110000</speed>
</trkpt>
<trkpt lat="22.019222" lon="104.711136">
<ele>80.479553</ele>
<time>2011-04-28T06:58:19Z</time>
<desc>lat.=22.019222, lon.=104.711136, Alt.=80.479553m. Speed=7.848000m/h.</desc>
<speed>2.180000</speed>
</trkpt>
<trkpt lat="22.019135" lon="104.711113">
<ele>82.286194</ele>
<time>2011-04-28T06:58:24Z</time>
<desc>lat.=22.019135, lon.=104.711113, Alt.=82.286194m. Speed=7.164000m/h.</desc>
<speed>1.990000</speed>
</trkpt>
<trkpt lat="22.019028" lon="104.711121">
<ele>84.020569</ele>
<time>2011-04-28T06:58:29Z</time>
<desc>lat.=22.019028, lon.=104.711121, Alt.=84.020569m. Speed=9.000000m/h.</desc>
<speed>2.500000</speed>
</trkpt>
<trkpt lat="22.018942" lon="104.711159">
<ele>84.206116</ele>
<time>2011-04-28T06:58:34Z</time>
<desc>lat.=22.018942, lon.=104.711159, Alt.=84.206116m. Speed=7.740000m/h.</desc>
<speed>2.150000</speed>
</trkpt>
<trkpt lat="22.018860" lon="104.711220">
<ele>84.508850</ele>
<time>2011-04-28T06:58:39Z</time>
<desc>lat.=22.018860, lon.=104.711220, Alt.=84.508850m. Speed=7.812000m/h.</desc>
<speed>2.170000</speed>
</trkpt>
<trkpt lat="22.018774" lon="104.711311">
<ele>84.020569</ele>
<time>2011-04-28T06:58:44Z</time>
<desc>lat.=22.018774, lon.=104.711311, Alt.=84.020569m. Speed=8.136000m/h.</desc>
<speed>2.260000</speed>
</trkpt>
<trkpt lat="22.018698" lon="104.711403">
<ele>83.649475</ele>
<time>2011-04-28T06:58:49Z</time>
<desc>lat.=22.018698, lon.=104.711403, Alt.=83.649475m. Speed=7.488000m/h.</desc>
<speed>2.080000</speed>
</trkpt>
<trkpt lat="22.018604" lon="104.711487">
<ele>84.532288</ele>
<time>2011-04-28T06:58:54Z</time>
<desc>lat.=22.018604, lon.=104.711487, Alt.=84.532288m. Speed=7.632000m/h.</desc>
<speed>2.120000</speed>
</trkpt>
<trkpt lat="22.018507" lon="104.711517">
<ele>84.897522</ele>
<time>2011-04-28T06:58:59Z</time>
<desc>lat.=22.018507, lon.=104.711517, Alt.=84.897522m. Speed=8.604000m/h.</desc>
<speed>2.390000</speed>
</trkpt>
<trkpt lat="22.018402" lon="104.711563">
<ele>87.731506</ele>
<time>2011-04-28T06:59:04Z</time>
<desc>lat.=22.018402, lon.=104.711563, Alt.=87.731506m. Speed=8.208000m/h.</desc>
<speed>2.280000</speed>
</trkpt>
<trkpt lat="22.018291" lon="104.711578">
<ele>87.206116</ele>
<time>2011-04-28T06:59:09Z</time>
<desc>lat.=22.018291, lon.=104.711578, Alt.=87.206116m. Speed=7.992000m/h.</desc>
<speed>2.220000</speed>
</trkpt>
<trkpt lat="22.018194" lon="104.711601">
<ele>85.991272</ele>
<time>2011-04-28T06:59:14Z</time>
<desc>lat.=22.018194, lon.=104.711601, Alt.=85.991272m. Speed=8.820000m/h.</desc>
<speed>2.450000</speed>
</trkpt>
<trkpt lat="22.018095" lon="104.711670">
<ele>85.547913</ele>
<time>2011-04-28T06:59:19Z</time>
<desc>lat.=22.018095, lon.=104.711670, Alt.=85.547913m. Speed=8.388000m/h.</desc>
<speed>2.330000</speed>
</trkpt>
<trkpt lat="22.017986" lon="104.711716">
<ele>89.092834</ele>
<time>2011-04-28T06:59:24Z</time>
<desc>lat.=22.017986, lon.=104.711716, Alt.=89.092834m. Speed=8.640000m/h.</desc>
<speed>2.400000</speed>
</trkpt>
<trkpt lat="22.017900" lon="104.711769">
<ele>91.221741</ele>
<time>2011-04-28T06:59:29Z</time>
<desc>lat.=22.017900, lon.=104.711769, Alt.=91.221741m. Speed=8.640000m/h.</desc>
<speed>2.400000</speed>
</trkpt>
<trkpt lat="22.017796" lon="104.711823">
<ele>92.262756</ele>
<time>2011-04-28T06:59:34Z</time>
<desc>lat.=22.017796, lon.=104.711823, Alt.=92.262756m. Speed=7.884000m/h.</desc>
<speed>2.190000</speed>
</trkpt>
<trkpt lat="22.017693" lon="104.711853">
<ele>91.413147</ele>
<time>2011-04-28T06:59:39Z</time>
<desc>lat.=22.017693, lon.=104.711853, Alt.=91.413147m. Speed=8.064000m/h.</desc>
<speed>2.240000</speed>
</trkpt>
<trkpt lat="22.017576" lon="104.711929">
<ele>90.815491</ele>
<time>2011-04-28T06:59:44Z</time>
<desc>lat.=22.017576, lon.=104.711929, Alt.=90.815491m. Speed=8.100000m/h.</desc>
<speed>2.250000</speed>
</trkpt>
<trkpt lat="22.017475" lon="104.712006">
<ele>91.553772</ele>
<time>2011-04-28T06:59:49Z</time>
<desc>lat.=22.017475, lon.=104.712006, Alt.=91.553772m. Speed=7.812000m/h.</desc>
<speed>2.170000</speed>
</trkpt>
<trkpt lat="22.017403" lon="104.712082">
<ele>90.502991</ele>
<time>2011-04-28T06:59:54Z</time>
<desc>lat.=22.017403, lon.=104.712082, Alt.=90.502991m. Speed=7.848000m/h.</desc>
<speed>2.180000</speed>
</trkpt>
<trkpt lat="22.017342" lon="104.712151">
<ele>91.596741</ele>
<time>2011-04-28T06:59:59Z</time>
<desc>lat.=22.017342, lon.=104.712151, Alt.=91.596741m. Speed=8.964000m/h.</desc>
<speed>2.490000</speed>
</trkpt>
<trkpt lat="22.017315" lon="104.712257">
<ele>90.790100</ele>
<time>2011-04-28T07:00:04Z</time>
<desc>lat.=22.017315, lon.=104.712257, Alt.=90.790100m. Speed=8.748000m/h.</desc>
<speed>2.430000</speed>
</trkpt>
<trkpt lat="22.017330" lon="104.712364">
<ele>90.567444</ele>
<time>2011-04-28T07:00:09Z</time>
<desc>lat.=22.017330, lon.=104.712364, Alt.=90.567444m. Speed=8.388000m/h.</desc>
<speed>2.330000</speed>
</trkpt>
<trkpt lat="22.017336" lon="104.712486">
<ele>90.346741</ele>
<time>2011-04-28T07:00:14Z</time>
<desc>lat.=22.017336, lon.=104.712486, Alt.=90.346741m. Speed=8.388000m/h.</desc>
<speed>2.330000</speed>
</trkpt>
<trkpt lat="22.017342" lon="104.712616">
<ele>90.544006</ele>
<time>2011-04-28T07:00:19Z</time>
<desc>lat.=22.017342, lon.=104.712616, Alt.=90.544006m. Speed=7.632000m/h.</desc>
<speed>2.120000</speed>
</trkpt>
<trkpt lat="22.017326" lon="104.712723">
<ele>90.661194</ele>
<time>2011-04-28T07:00:24Z</time>
<desc>lat.=22.017326, lon.=104.712723, Alt.=90.661194m. Speed=8.100000m/h.</desc>
<speed>2.250000</speed>
</trkpt>
<trkpt lat="22.017284" lon="104.712845">
<ele>91.278381</ele>
<time>2011-04-28T07:00:29Z</time>
<desc>lat.=22.017284, lon.=104.712845, Alt.=91.278381m. Speed=7.956000m/h.</desc>
<speed>2.210000</speed>
</trkpt>
<trkpt lat="22.017199" lon="104.712914">
<ele>93.108459</ele>
<time>2011-04-28T07:00:34Z</time>
<desc>lat.=22.017199, lon.=104.712914, Alt.=93.108459m. Speed=7.344000m/h.</desc>
<speed>2.040000</speed>
</trkpt>
<trkpt lat="22.017094" lon="104.712944">
<ele>94.530334</ele>
<time>2011-04-28T07:00:39Z</time>
<desc>lat.=22.017094, lon.=104.712944, Alt.=94.530334m. Speed=7.596000m/h.</desc>
<speed>2.110000</speed>
</trkpt>
<trkpt lat="22.016979" lon="104.712959">
<ele>96.114319</ele>
<time>2011-04-28T07:00:44Z</time>
<desc>lat.=22.016979, lon.=104.712959, Alt.=96.114319m. Speed=7.704000m/h.</desc>
<speed>2.140000</speed>
</trkpt>
<trkpt lat="22.016912" lon="104.712967">
<ele>99.993225</ele>
<time>2011-04-28T07:00:49Z</time>
<desc>lat.=22.016912, lon.=104.712967, Alt.=99.993225m. Speed=5.040000m/h.</desc>
<speed>1.400000</speed>
</trkpt>
<trkpt lat="22.016846" lon="104.712990">
<ele>102.321350</ele>
<time>2011-04-28T07:00:54Z</time>
<desc>lat.=22.016846, lon.=104.712990, Alt.=102.321350m. Speed=4.932000m/h.</desc>
<speed>1.370000</speed>
</trkpt>
<trkpt lat="22.016783" lon="104.713020">
<ele>104.631897</ele>
<time>2011-04-28T07:00:59Z</time>
<desc>lat.=22.016783, lon.=104.713020, Alt.=104.631897m. Speed=5.328000m/h.</desc>
<speed>1.480000</speed>
</trkpt>
<trkpt lat="22.016718" lon="104.713074">
<ele>103.784241</ele>
<time>2011-04-28T07:01:04Z</time>
<desc>lat.=22.016718, lon.=104.713074, Alt.=103.784241m. Speed=5.544000m/h.</desc>
<speed>1.540000</speed>
</trkpt>
<trkpt lat="22.016661" lon="104.713120">
<ele>104.411194</ele>
<time>2011-04-28T07:01:09Z</time>
<desc>lat.=22.016661, lon.=104.713120, Alt.=104.411194m. Speed=4.608000m/h.</desc>
<speed>1.280000</speed>
</trkpt>
<trkpt lat="22.016615" lon="104.713158">
<ele>103.184631</ele>
<time>2011-04-28T07:01:14Z</time>
<desc>lat.=22.016615, lon.=104.713158, Alt.=103.184631m. Speed=4.860000m/h.</desc>
<speed>1.350000</speed>
</trkpt>
<trkpt lat="22.016552" lon="104.713188">
<ele>103.729553</ele>
<time>2011-04-28T07:01:19Z</time>
<desc>lat.=22.016552, lon.=104.713188, Alt.=103.729553m. Speed=4.896000m/h.</desc>
<speed>1.360000</speed>
</trkpt>
<trkpt lat="22.016516" lon="104.713211">
<ele>103.540100</ele>
<time>2011-04-28T07:01:24Z</time>
<desc>lat.=22.016516, lon.=104.713211, Alt.=103.540100m. Speed=1.440000m/h.</desc>
<speed>0.400000</speed>
</trkpt>
<trkpt lat="22.016514" lon="104.713211">
<ele>103.036194</ele>
<time>2011-04-28T07:01:29Z</time>
<desc>lat.=22.016514, lon.=104.713211, Alt.=103.036194m. Speed=0.324000m/h.</desc>
<speed>0.090000</speed>
</trkpt>
<trkpt lat="22.016512" lon="104.713219">
<ele>103.098694</ele>
<time>2011-04-28T07:01:34Z</time>
<desc>lat.=22.016512, lon.=104.713219, Alt.=103.098694m. Speed=0.648000m/h.</desc>
<speed>0.180000</speed>
</trkpt>
<trkpt lat="22.016510" lon="104.713219">
<ele>103.120178</ele>
<time>2011-04-28T07:01:39Z</time>
<desc>lat.=22.016510, lon.=104.713219, Alt.=103.120178m. Speed=0.396000m/h.</desc>
<speed>0.110000</speed>
</trkpt>
<trkpt lat="22.016510" lon="104.713219">
<ele>103.090881</ele>
<time>2011-04-28T07:01:44Z</time>
<desc>lat.=22.016510, lon.=104.713219, Alt.=103.090881m. Speed=0.252000m/h.</desc>
<speed>0.070000</speed>
</trkpt>
<trkpt lat="22.016508" lon="104.713219">
<ele>103.042053</ele>
<time>2011-04-28T07:01:49Z</time>
<desc>lat.=22.016508, lon.=104.713219, Alt.=103.042053m. Speed=0.072000m/h.</desc>
<speed>0.020000</speed>
</trkpt>
<trkpt lat="22.016506" lon="104.713219">
<ele>102.991272</ele>
<time>2011-04-28T07:01:54Z</time>
<desc>lat.=22.016506, lon.=104.713219, Alt.=102.991272m. Speed=0.648000m/h.</desc>
<speed>0.180000</speed>
</trkpt>
<trkpt lat="22.016497" lon="104.713219">
<ele>102.979553</ele>
<time>2011-04-28T07:01:59Z</time>
<desc>lat.=22.016497, lon.=104.713219, Alt.=102.979553m. Speed=2.340000m/h.</desc>
<speed>0.650000</speed>
</trkpt>
<trkpt lat="22.016455" lon="104.713272">
<ele>102.877991</ele>
<time>2011-04-28T07:02:04Z</time>
<desc>lat.=22.016455, lon.=104.713272, Alt.=102.877991m. Speed=6.732000m/h.</desc>
<speed>1.870000</speed>
</trkpt>
<trkpt lat="22.016363" lon="104.713341">
<ele>102.200256</ele>
<time>2011-04-28T07:02:09Z</time>
<desc>lat.=22.016363, lon.=104.713341, Alt.=102.200256m. Speed=8.316000m/h.</desc>
<speed>2.310000</speed>
</trkpt>
<trkpt lat="22.016277" lon="104.713394">
<ele>101.919006</ele>
<time>2011-04-28T07:02:14Z</time>
<desc>lat.=22.016277, lon.=104.713394, Alt.=101.919006m. Speed=7.164000m/h.</desc>
<speed>1.990000</speed>
</trkpt>
<trkpt lat="22.016193" lon="104.713463">
<ele>102.772522</ele>
<time>2011-04-28T07:02:19Z</time>
<desc>lat.=22.016193, lon.=104.713463, Alt.=102.772522m. Speed=7.164000m/h.</desc>
<speed>1.990000</speed>
</trkpt>
<trkpt lat="22.016108" lon="104.713516">
<ele>102.667053</ele>
<time>2011-04-28T07:02:24Z</time>
<desc>lat.=22.016108, lon.=104.713516, Alt.=102.667053m. Speed=7.668000m/h.</desc>
<speed>2.130000</speed>
</trkpt>
<trkpt lat="22.016012" lon="104.713554">
<ele>103.338928</ele>
<time>2011-04-28T07:02:29Z</time>
<desc>lat.=22.016012, lon.=104.713554, Alt.=103.338928m. Speed=7.488000m/h.</desc>
<speed>2.080000</speed>
</trkpt>
<trkpt lat="22.015919" lon="104.713585">
<ele>105.057678</ele>
<time>2011-04-28T07:02:34Z</time>
<desc>lat.=22.015919, lon.=104.713585, Alt.=105.057678m. Speed=8.136000m/h.</desc>
<speed>2.260000</speed>
</trkpt>
<trkpt lat="22.015823" lon="104.713615">
<ele>106.170959</ele>
<time>2011-04-28T07:02:39Z</time>
<desc>lat.=22.015823, lon.=104.713615, Alt.=106.170959m. Speed=8.100000m/h.</desc>
<speed>2.250000</speed>
</trkpt>
<trkpt lat="22.015726" lon="104.713654">
<ele>106.930725</ele>
<time>2011-04-28T07:02:44Z</time>
<desc>lat.=22.015726, lon.=104.713654, Alt.=106.930725m. Speed=6.912000m/h.</desc>
<speed>1.920000</speed>
</trkpt>
<trkpt lat="22.015635" lon="104.713707">
<ele>108.532288</ele>
<time>2011-04-28T07:02:49Z</time>
<desc>lat.=22.015635, lon.=104.713707, Alt.=108.532288m. Speed=7.416000m/h.</desc>
<speed>2.060000</speed>
</trkpt>
<trkpt lat="22.015537" lon="104.713730">
<ele>110.411194</ele>
<time>2011-04-28T07:02:54Z</time>
<desc>lat.=22.015537, lon.=104.713730, Alt.=110.411194m. Speed=7.236000m/h.</desc>
<speed>2.010000</speed>
</trkpt>
<trkpt lat="22.015438" lon="104.713776">
<ele>111.460022</ele>
<time>2011-04-28T07:02:59Z</time>
<desc>lat.=22.015438, lon.=104.713776, Alt.=111.460022m. Speed=7.452000m/h.</desc>
<speed>2.070000</speed>
</trkpt>
<trkpt lat="22.015354" lon="104.713814">
<ele>113.659241</ele>
<time>2011-04-28T07:03:04Z</time>
<desc>lat.=22.015354, lon.=104.713814, Alt.=113.659241m. Speed=5.688000m/h.</desc>
<speed>1.580000</speed>
</trkpt>
<trkpt lat="22.015282" lon="104.713867">
<ele>115.305725</ele>
<time>2011-04-28T07:03:09Z</time>
<desc>lat.=22.015282, lon.=104.713867, Alt.=115.305725m. Speed=7.092000m/h.</desc>
<speed>1.970000</speed>
</trkpt>
<trkpt lat="22.015213" lon="104.713913">
<ele>115.954163</ele>
<time>2011-04-28T07:03:14Z</time>
<desc>lat.=22.015213, lon.=104.713913, Alt.=115.954163m. Speed=5.544000m/h.</desc>
<speed>1.540000</speed>
</trkpt>
<trkpt lat="22.015190" lon="104.713928">
<ele>114.379944</ele>
<time>2011-04-28T07:03:19Z</time>
<desc>lat.=22.015190, lon.=104.713928, Alt.=114.379944m. Speed=0.684000m/h.</desc>
<speed>0.190000</speed>
</trkpt>
<trkpt lat="22.015190" lon="104.713928">
<ele>113.909241</ele>
<time>2011-04-28T07:03:24Z</time>
<desc>lat.=22.015190, lon.=104.713928, Alt.=113.909241m. Speed=0.180000m/h.</desc>
<speed>0.050000</speed>
</trkpt>
<trkpt lat="22.015192" lon="104.713928">
<ele>113.846741</ele>
<time>2011-04-28T07:03:29Z</time>
<desc>lat.=22.015192, lon.=104.713928, Alt.=113.846741m. Speed=0.252000m/h.</desc>
<speed>0.070000</speed>
</trkpt>
<trkpt lat="22.015194" lon="104.713928">
<ele>113.786194</ele>
<time>2011-04-28T07:03:34Z</time>
<desc>lat.=22.015194, lon.=104.713928, Alt.=113.786194m. Speed=0.000000m/h.</desc>
<speed>0.000000</speed>
</trkpt>
<trkpt lat="22.015194" lon="104.713928">
<ele>113.784241</ele>
<time>2011-04-28T07:03:39Z</time>
<desc>lat.=22.015194, lon.=104.713928, Alt.=113.784241m. Speed=0.036000m/h.</desc>
<speed>0.010000</speed>
</trkpt>
<trkpt lat="22.015194" lon="104.713928">
<ele>113.762756</ele>
<time>2011-04-28T07:03:44Z</time>
<desc>lat.=22.015194, lon.=104.713928, Alt.=113.762756m. Speed=0.036000m/h.</desc>
<speed>0.010000</speed>
</trkpt>
<trkpt lat="22.015194" lon="104.713928">
<ele>113.752991</ele>
<time>2011-04-28T07:03:49Z</time>
<desc>lat.=22.015194, lon.=104.713928, Alt.=113.752991m. Speed=0.000000m/h.</desc>
<speed>0.000000</speed>
</trkpt>
<trkpt lat="22.015194" lon="104.713928">
<ele>113.735413</ele>
<time>2011-04-28T07:03:54Z</time>
<desc>lat.=22.015194, lon.=104.713928, Alt.=113.735413m. Speed=0.036000m/h.</desc>
<speed>0.010000</speed>
</trkpt>
<trkpt lat="22.015194" lon="104.713928">
<ele>113.731506</ele>
<time>2011-04-28T07:03:59Z</time>
<desc>lat.=22.015194, lon.=104.713928, Alt.=113.731506m. Speed=0.108000m/h.</desc>
<speed>0.030000</speed>
</trkpt>
<trkpt lat="22.015194" lon="104.713928">
<ele>113.729553</ele>
<time>2011-04-28T07:04:04Z</time>
<desc>lat.=22.015194, lon.=104.713928, Alt.=113.729553m. Speed=0.000000m/h.</desc>
<speed>0.000000</speed>
</trkpt>
<trkpt lat="22.015194" lon="104.713928">
<ele>113.723694</ele>
<time>2011-04-28T07:04:09Z</time>
<desc>lat.=22.015194, lon.=104.713928, Alt.=113.723694m. Speed=0.288000m/h.</desc>
<speed>0.080000</speed>
</trkpt>
<trkpt lat="22.015146" lon="104.714035">
<ele>114.036194</ele>
<time>2011-04-28T07:04:14Z</time>
<desc>lat.=22.015146, lon.=104.714035, Alt.=114.036194m. Speed=9.720000m/h.</desc>
<speed>2.700000</speed>
</trkpt>
<trkpt lat="22.015100" lon="104.714180">
<ele>113.917053</ele>
<time>2011-04-28T07:04:19Z</time>
<desc>lat.=22.015100, lon.=104.714180, Alt.=113.917053m. Speed=8.280000m/h.</desc>
<speed>2.300000</speed>
</trkpt>
<trkpt lat="22.015059" lon="104.714325">
<ele>113.723694</ele>
<time>2011-04-28T07:04:24Z</time>
<desc>lat.=22.015059, lon.=104.714325, Alt.=113.723694m. Speed=10.044000m/h.</desc>
<speed>2.790000</speed>
</trkpt>
<trkpt lat="22.015038" lon="104.714485">
<ele>112.901428</ele>
<time>2011-04-28T07:04:29Z</time>
<desc>lat.=22.015038, lon.=104.714485, Alt.=112.901428m. Speed=10.440000m/h.</desc>
<speed>2.900000</speed>
</trkpt>
<trkpt lat="22.015020" lon="104.714630">
<ele>113.256897</ele>
<time>2011-04-28T07:04:34Z</time>
<desc>lat.=22.015020, lon.=104.714630, Alt.=113.256897m. Speed=9.000000m/h.</desc>
<speed>2.500000</speed>
</trkpt>
<trkpt lat="22.015001" lon="104.714760">
<ele>113.588928</ele>
<time>2011-04-28T07:04:39Z</time>
<desc>lat.=22.015001, lon.=104.714760, Alt.=113.588928m. Speed=8.316000m/h.</desc>
<speed>2.310000</speed>
</trkpt>
<trkpt lat="22.014996" lon="104.714912">
<ele>113.995178</ele>
<time>2011-04-28T07:04:44Z</time>
<desc>lat.=22.014996, lon.=104.714912, Alt.=113.995178m. Speed=7.668000m/h.</desc>
<speed>2.130000</speed>
</trkpt>
<trkpt lat="22.014977" lon="104.715042">
<ele>115.469788</ele>
<time>2011-04-28T07:04:49Z</time>
<desc>lat.=22.014977, lon.=104.715042, Alt.=115.469788m. Speed=9.288000m/h.</desc>
<speed>2.580000</speed>
</trkpt>
<trkpt lat="22.014973" lon="104.715172">
<ele>115.108459</ele>
<time>2011-04-28T07:04:54Z</time>
<desc>lat.=22.014973, lon.=104.715172, Alt.=115.108459m. Speed=10.152000m/h.</desc>
<speed>2.820000</speed>
</trkpt>
<trkpt lat="22.014952" lon="104.715302">
<ele>114.749084</ele>
<time>2011-04-28T07:04:59Z</time>
<desc>lat.=22.014952, lon.=104.715302, Alt.=114.749084m. Speed=10.008000m/h.</desc>
<speed>2.780000</speed>
</trkpt>
<trkpt lat="22.014902" lon="104.715462">
<ele>113.797913</ele>
<time>2011-04-28T07:05:04Z</time>
<desc>lat.=22.014902, lon.=104.715462, Alt.=113.797913m. Speed=10.548000m/h.</desc>
<speed>2.930000</speed>
</trkpt>
<trkpt lat="22.014765" lon="104.715591">
<ele>114.799866</ele>
<time>2011-04-28T07:05:09Z</time>
<desc>lat.=22.014765, lon.=104.715591, Alt.=114.799866m. Speed=10.008000m/h.</desc>
<speed>2.780000</speed>
</trkpt>
<trkpt lat="22.014650" lon="104.715622">
<ele>116.395569</ele>
<time>2011-04-28T07:05:14Z</time>
<desc>lat.=22.014650, lon.=104.715622, Alt.=116.395569m. Speed=7.776000m/h.</desc>
<speed>2.160000</speed>
</trkpt>
<trkpt lat="22.014576" lon="104.715584">
<ele>118.133850</ele>
<time>2011-04-28T07:05:19Z</time>
<desc>lat.=22.014576, lon.=104.715584, Alt.=118.133850m. Speed=6.480000m/h.</desc>
<speed>1.800000</speed>
</trkpt>
<trkpt lat="22.014509" lon="104.715538">
<ele>118.323303</ele>
<time>2011-04-28T07:05:24Z</time>
<desc>lat.=22.014509, lon.=104.715538, Alt.=118.323303m. Speed=7.848000m/h.</desc>
<speed>2.180000</speed>
</trkpt>
<trkpt lat="22.014414" lon="104.715485">
<ele>123.321350</ele>
<time>2011-04-28T07:05:29Z</time>
<desc>lat.=22.014414, lon.=104.715485, Alt.=123.321350m. Speed=9.252000m/h.</desc>
<speed>2.570000</speed>
</trkpt>
<trkpt lat="22.014275" lon="104.715477">
<ele>125.655334</ele>
<time>2011-04-28T07:05:34Z</time>
<desc>lat.=22.014275, lon.=104.715477, Alt.=125.655334m. Speed=8.748000m/h.</desc>
<speed>2.430000</speed>
</trkpt>
<trkpt lat="22.014185" lon="104.715584">
<ele>126.012756</ele>
<time>2011-04-28T07:05:39Z</time>
<desc>lat.=22.014185, lon.=104.715584, Alt.=126.012756m. Speed=8.676000m/h.</desc>
<speed>2.410000</speed>
</trkpt>
<trkpt lat="22.014130" lon="104.715675">
<ele>125.948303</ele>
<time>2011-04-28T07:05:44Z</time>
<desc>lat.=22.014130, lon.=104.715675, Alt.=125.948303m. Speed=7.236000m/h.</desc>
<speed>2.010000</speed>
</trkpt>
<trkpt lat="22.014086" lon="104.715790">
<ele>125.627991</ele>
<time>2011-04-28T07:05:49Z</time>
<desc>lat.=22.014086, lon.=104.715790, Alt.=125.627991m. Speed=8.820000m/h.</desc>
<speed>2.450000</speed>
</trkpt>
<trkpt lat="22.014042" lon="104.715897">
<ele>125.065491</ele>
<time>2011-04-28T07:05:54Z</time>
<desc>lat.=22.014042, lon.=104.715897, Alt.=125.065491m. Speed=7.308000m/h.</desc>
<speed>2.030000</speed>
</trkpt>
<trkpt lat="22.013996" lon="104.716011">
<ele>124.860413</ele>
<time>2011-04-28T07:05:59Z</time>
<desc>lat.=22.013996, lon.=104.716011, Alt.=124.860413m. Speed=7.236000m/h.</desc>
<speed>2.010000</speed>
</trkpt>
<trkpt lat="22.013935" lon="104.716110">
<ele>124.686584</ele>
<time>2011-04-28T07:06:04Z</time>
<desc>lat.=22.013935, lon.=104.716110, Alt.=124.686584m. Speed=8.784000m/h.</desc>
<speed>2.440000</speed>
</trkpt>
<trkpt lat="22.013845" lon="104.716217">
<ele>124.688538</ele>
<time>2011-04-28T07:06:09Z</time>
<desc>lat.=22.013845, lon.=104.716217, Alt.=124.688538m. Speed=10.800000m/h.</desc>
<speed>3.000000</speed>
</trkpt>
<trkpt lat="22.013721" lon="104.716293">
<ele>124.942444</ele>
<time>2011-04-28T07:06:14Z</time>
<desc>lat.=22.013721, lon.=104.716293, Alt.=124.942444m. Speed=9.648000m/h.</desc>
<speed>2.680000</speed>
</trkpt>
<trkpt lat="22.013594" lon="104.716347">
<ele>125.047913</ele>
<time>2011-04-28T07:06:19Z</time>
<desc>lat.=22.013594, lon.=104.716347, Alt.=125.047913m. Speed=10.152000m/h.</desc>
<speed>2.820000</speed>
</trkpt>
<trkpt lat="22.013474" lon="104.716423">
<ele>125.669006</ele>
<time>2011-04-28T07:06:24Z</time>
<desc>lat.=22.013474, lon.=104.716423, Alt.=125.669006m. Speed=10.296000m/h.</desc>
<speed>2.860000</speed>
</trkpt>
<trkpt lat="22.013395" lon="104.716484">
<ele>127.811584</ele>
<time>2011-04-28T07:06:29Z</time>
<desc>lat.=22.013395, lon.=104.716484, Alt.=127.811584m. Speed=9.216000m/h.</desc>
<speed>2.560000</speed>
</trkpt>
<trkpt lat="22.013327" lon="104.716576">
<ele>128.091919</ele>
<time>2011-04-28T07:06:34Z</time>
<desc>lat.=22.013327, lon.=104.716576, Alt.=128.091919m. Speed=9.360000m/h.</desc>
<speed>2.600000</speed>
</trkpt>
<trkpt lat="22.013248" lon="104.716690">
<ele>129.744263</ele>
<time>2011-04-28T07:06:39Z</time>
<desc>lat.=22.013248, lon.=104.716690, Alt.=129.744263m. Speed=8.748000m/h.</desc>
<speed>2.430000</speed>
</trkpt>
<trkpt lat="22.013165" lon="104.716797">
<ele>130.779419</ele>
<time>2011-04-28T07:06:44Z</time>
<desc>lat.=22.013165, lon.=104.716797, Alt.=130.779419m. Speed=9.360000m/h.</desc>
<speed>2.600000</speed>
</trkpt>
<trkpt lat="22.013065" lon="104.716911">
<ele>132.771606</ele>
<time>2011-04-28T07:06:49Z</time>
<desc>lat.=22.013065, lon.=104.716911, Alt.=132.771606m. Speed=9.540000m/h.</desc>
<speed>2.650000</speed>
</trkpt>
<trkpt lat="22.012978" lon="104.717018">
<ele>132.880981</ele>
<time>2011-04-28T07:06:54Z</time>
<desc>lat.=22.012978, lon.=104.717018, Alt.=132.880981m. Speed=8.640000m/h.</desc>
<speed>2.400000</speed>
</trkpt>
<trkpt lat="22.012880" lon="104.717087">
<ele>133.420044</ele>
<time>2011-04-28T07:06:59Z</time>
<desc>lat.=22.012880, lon.=104.717087, Alt.=133.420044m. Speed=8.748000m/h.</desc>
<speed>2.430000</speed>
</trkpt>
<trkpt lat="22.012775" lon="104.717148">
<ele>134.298950</ele>
<time>2011-04-28T07:07:04Z</time>
<desc>lat.=22.012775, lon.=104.717148, Alt.=134.298950m. Speed=9.108000m/h.</desc>
<speed>2.530000</speed>
</trkpt>
<trkpt lat="22.012669" lon="104.717194">
<ele>135.513794</ele>
<time>2011-04-28T07:07:09Z</time>
<desc>lat.=22.012669, lon.=104.717194, Alt.=135.513794m. Speed=9.144000m/h.</desc>
<speed>2.540000</speed>
</trkpt>
<trkpt lat="22.012564" lon="104.717201">
<ele>138.463013</ele>
<time>2011-04-28T07:07:14Z</time>
<desc>lat.=22.012564, lon.=104.717201, Alt.=138.463013m. Speed=8.676000m/h.</desc>
<speed>2.410000</speed>
</trkpt>
<trkpt lat="22.012451" lon="104.717194">
<ele>141.548950</ele>
<time>2011-04-28T07:07:19Z</time>
<desc>lat.=22.012451, lon.=104.717194, Alt.=141.548950m. Speed=7.488000m/h.</desc>
<speed>2.080000</speed>
</trkpt>
<trkpt lat="22.012367" lon="104.717201">
<ele>143.291138</ele>
<time>2011-04-28T07:07:24Z</time>
<desc>lat.=22.012367, lon.=104.717201, Alt.=143.291138m. Speed=7.884000m/h.</desc>
<speed>2.190000</speed>
</trkpt>
<trkpt lat="22.012266" lon="104.717194">
<ele>146.521606</ele>
<time>2011-04-28T07:07:29Z</time>
<desc>lat.=22.012266, lon.=104.717194, Alt.=146.521606m. Speed=7.380000m/h.</desc>
<speed>2.050000</speed>
</trkpt>
<trkpt lat="22.012156" lon="104.717186">
<ele>148.267700</ele>
<time>2011-04-28T07:07:34Z</time>
<desc>lat.=22.012156, lon.=104.717186, Alt.=148.267700m. Speed=7.344000m/h.</desc>
<speed>2.040000</speed>
</trkpt>
<trkpt lat="22.012026" lon="104.717171">
<ele>151.306763</ele>
<time>2011-04-28T07:07:39Z</time>
<desc>lat.=22.012026, lon.=104.717171, Alt.=151.306763m. Speed=8.136000m/h.</desc>
<speed>2.260000</speed>
</trkpt>
<trkpt lat="22.011911" lon="104.717140">
<ele>154.369263</ele>
<time>2011-04-28T07:07:44Z</time>
<desc>lat.=22.011911, lon.=104.717140, Alt.=154.369263m. Speed=10.800000m/h.</desc>
<speed>3.000000</speed>
</trkpt>
<trkpt lat="22.011776" lon="104.717102">
<ele>156.005981</ele>
<time>2011-04-28T07:07:49Z</time>
<desc>lat.=22.011776, lon.=104.717102, Alt.=156.005981m. Speed=10.692000m/h.</desc>
<speed>2.970000</speed>
</trkpt>
<trkpt lat="22.011641" lon="104.717072">
<ele>156.486450</ele>
<time>2011-04-28T07:07:54Z</time>
<desc>lat.=22.011641, lon.=104.717072, Alt.=156.486450m. Speed=10.944000m/h.</desc>
<speed>3.040000</speed>
</trkpt>
<trkpt lat="22.011522" lon="104.717041">
<ele>157.841919</ele>
<time>2011-04-28T07:07:59Z</time>
<desc>lat.=22.011522, lon.=104.717041, Alt.=157.841919m. Speed=8.856000m/h.</desc>
<speed>2.460000</speed>
</trkpt>
<trkpt lat="22.011379" lon="104.717056">
<ele>158.193481</ele>
<time>2011-04-28T07:08:04Z</time>
<desc>lat.=22.011379, lon.=104.717056, Alt.=158.193481m. Speed=8.820000m/h.</desc>
<speed>2.450000</speed>
</trkpt>
<trkpt lat="22.011269" lon="104.717133">
<ele>157.052856</ele>
<time>2011-04-28T07:08:09Z</time>
<desc>lat.=22.011269, lon.=104.717133, Alt.=157.052856m. Speed=5.760000m/h.</desc>
<speed>1.600000</speed>
</trkpt>
<trkpt lat="22.011219" lon="104.717171">
<ele>156.947388</ele>
<time>2011-04-28T07:08:14Z</time>
<desc>lat.=22.011219, lon.=104.717171, Alt.=156.947388m. Speed=1.548000m/h.</desc>
<speed>0.430000</speed>
</trkpt>
<trkpt lat="22.011204" lon="104.717163">
<ele>157.228638</ele>
<time>2011-04-28T07:08:19Z</time>
<desc>lat.=22.011204, lon.=104.717163, Alt.=157.228638m. Speed=0.864000m/h.</desc>
<speed>0.240000</speed>
</trkpt>
<trkpt lat="22.011198" lon="104.717155">
<ele>157.377075</ele>
<time>2011-04-28T07:08:24Z</time>
<desc>lat.=22.011198, lon.=104.717155, Alt.=157.377075m. Speed=0.756000m/h.</desc>
<speed>0.210000</speed>
</trkpt>
<trkpt lat="22.011198" lon="104.717148">
<ele>157.416138</ele>
<time>2011-04-28T07:08:29Z</time>
<desc>lat.=22.011198, lon.=104.717148, Alt.=157.416138m. Speed=1.152000m/h.</desc>
<speed>0.320000</speed>
</trkpt>
<trkpt lat="22.011200" lon="104.717140">
<ele>157.357544</ele>
<time>2011-04-28T07:08:34Z</time>
<desc>lat.=22.011200, lon.=104.717140, Alt.=157.357544m. Speed=1.260000m/h.</desc>
<speed>0.350000</speed>
</trkpt>
<trkpt lat="22.011196" lon="104.717140">
<ele>157.306763</ele>
<time>2011-04-28T07:08:39Z</time>
<desc>lat.=22.011196, lon.=104.717140, Alt.=157.306763m. Speed=0.612000m/h.</desc>
<speed>0.170000</speed>
</trkpt>
<trkpt lat="22.011190" lon="104.717133">
<ele>157.283325</ele>
<time>2011-04-28T07:08:44Z</time>
<desc>lat.=22.011190, lon.=104.717133, Alt.=157.283325m. Speed=0.432000m/h.</desc>
<speed>0.120000</speed>
</trkpt>
<trkpt lat="22.011190" lon="104.717125">
<ele>157.259888</ele>
<time>2011-04-28T07:08:49Z</time>
<desc>lat.=22.011190, lon.=104.717125, Alt.=157.259888m. Speed=0.540000m/h.</desc>
<speed>0.150000</speed>
</trkpt>
<trkpt lat="22.011198" lon="104.717125">
<ele>157.216919</ele>
<time>2011-04-28T07:08:54Z</time>
<desc>lat.=22.011198, lon.=104.717125, Alt.=157.216919m. Speed=0.612000m/h.</desc>
<speed>0.170000</speed>
</trkpt>
<trkpt lat="22.011200" lon="104.717133">
<ele>157.162231</ele>
<time>2011-04-28T07:08:59Z</time>
<desc>lat.=22.011200, lon.=104.717133, Alt.=157.162231m. Speed=0.288000m/h.</desc>
<speed>0.080000</speed>
</trkpt>
<trkpt lat="22.011206" lon="104.717133">
<ele>157.127075</ele>
<time>2011-04-28T07:09:04Z</time>
<desc>lat.=22.011206, lon.=104.717133, Alt.=157.127075m. Speed=1.332000m/h.</desc>
<speed>0.370000</speed>
</trkpt>
<trkpt lat="22.011219" lon="104.717140">
<ele>157.123169</ele>
<time>2011-04-28T07:09:09Z</time>
<desc>lat.=22.011219, lon.=104.717140, Alt.=157.123169m. Speed=0.828000m/h.</desc>
<speed>0.230000</speed>
</trkpt>
<trkpt lat="22.011229" lon="104.717148">
<ele>157.115356</ele>
<time>2011-04-28T07:09:14Z</time>
<desc>lat.=22.011229, lon.=104.717148, Alt.=157.115356m. Speed=1.008000m/h.</desc>
<speed>0.280000</speed>
</trkpt>
<trkpt lat="22.011238" lon="104.717148">
<ele>157.123169</ele>
<time>2011-04-28T07:09:19Z</time>
<desc>lat.=22.011238, lon.=104.717148, Alt.=157.123169m. Speed=0.324000m/h.</desc>
<speed>0.090000</speed>
</trkpt>
<trkpt lat="22.011240" lon="104.717140">
<ele>157.142700</ele>
<time>2011-04-28T07:09:24Z</time>
<desc>lat.=22.011240, lon.=104.717140, Alt.=157.142700m. Speed=0.360000m/h.</desc>
<speed>0.100000</speed>
</trkpt>
<trkpt lat="22.011236" lon="104.717140">
<ele>157.170044</ele>
<time>2011-04-28T07:09:29Z</time>
<desc>lat.=22.011236, lon.=104.717140, Alt.=157.170044m. Speed=1.548000m/h.</desc>
<speed>0.430000</speed>
</trkpt>
<trkpt lat="22.011221" lon="104.717140">
<ele>157.185669</ele>
<time>2011-04-28T07:09:34Z</time>
<desc>lat.=22.011221, lon.=104.717140, Alt.=157.185669m. Speed=0.432000m/h.</desc>
<speed>0.120000</speed>
</trkpt>
<trkpt lat="22.011221" lon="104.717140">
<ele>157.201294</ele>
<time>2011-04-28T07:09:39Z</time>
<desc>lat.=22.011221, lon.=104.717140, Alt.=157.201294m. Speed=0.540000m/h.</desc>
<speed>0.150000</speed>
</trkpt>
<trkpt lat="22.011225" lon="104.717140">
<ele>157.216919</ele>
<time>2011-04-28T07:09:44Z</time>
<desc>lat.=22.011225, lon.=104.717140, Alt.=157.216919m. Speed=0.540000m/h.</desc>
<speed>0.150000</speed>
</trkpt>
<trkpt lat="22.011230" lon="104.717140">
<ele>157.255981</ele>
<time>2011-04-28T07:09:49Z</time>
<desc>lat.=22.011230, lon.=104.717140, Alt.=157.255981m. Speed=0.288000m/h.</desc>
<speed>0.080000</speed>
</trkpt>
<trkpt lat="22.011238" lon="104.717140">
<ele>157.302856</ele>
<time>2011-04-28T07:09:54Z</time>
<desc>lat.=22.011238, lon.=104.717140, Alt.=157.302856m. Speed=1.116000m/h.</desc>
<speed>0.310000</speed>
</trkpt>
<trkpt lat="22.011251" lon="104.717148">
<ele>157.345825</ele>
<time>2011-04-28T07:09:59Z</time>
<desc>lat.=22.011251, lon.=104.717148, Alt.=157.345825m. Speed=0.936000m/h.</desc>
<speed>0.260000</speed>
</trkpt>
<trkpt lat="22.011263" lon="104.717155">
<ele>157.431763</ele>
<time>2011-04-28T07:10:04Z</time>
<desc>lat.=22.011263, lon.=104.717155, Alt.=157.431763m. Speed=1.044000m/h.</desc>
<speed>0.290000</speed>
</trkpt>
<trkpt lat="22.011271" lon="104.717163">
<ele>157.529419</ele>
<time>2011-04-28T07:10:09Z</time>
<desc>lat.=22.011271, lon.=104.717163, Alt.=157.529419m. Speed=0.612000m/h.</desc>
<speed>0.170000</speed>
</trkpt>
<trkpt lat="22.011276" lon="104.717163">
<ele>157.662231</ele>
<time>2011-04-28T07:10:14Z</time>
<desc>lat.=22.011276, lon.=104.717163, Alt.=157.662231m. Speed=0.504000m/h.</desc>
<speed>0.140000</speed>
</trkpt>
<trkpt lat="22.011280" lon="104.717171">
<ele>157.775513</ele>
<time>2011-04-28T07:10:19Z</time>
<desc>lat.=22.011280, lon.=104.717171, Alt.=157.775513m. Speed=0.252000m/h.</desc>
<speed>0.070000</speed>
</trkpt>
<trkpt lat="22.011278" lon="104.717171">
<ele>157.884888</ele>
<time>2011-04-28T07:10:24Z</time>
<desc>lat.=22.011278, lon.=104.717171, Alt.=157.884888m. Speed=0.360000m/h.</desc>
<speed>0.100000</speed>
</trkpt>
<trkpt lat="22.011280" lon="104.717178">
<ele>157.986450</ele>
<time>2011-04-28T07:10:29Z</time>
<desc>lat.=22.011280, lon.=104.717178, Alt.=157.986450m. Speed=0.108000m/h.</desc>
<speed>0.030000</speed>
</trkpt>
<trkpt lat="22.011280" lon="104.717171">
<ele>158.111450</ele>
<time>2011-04-28T07:10:34Z</time>
<desc>lat.=22.011280, lon.=104.717171, Alt.=158.111450m. Speed=0.180000m/h.</desc>
<speed>0.050000</speed>
</trkpt>
<trkpt lat="22.011278" lon="104.717171">
<ele>158.209106</ele>
<time>2011-04-28T07:10:39Z</time>
<desc>lat.=22.011278, lon.=104.717171, Alt.=158.209106m. Speed=0.468000m/h.</desc>
<speed>0.130000</speed>
</trkpt>
<trkpt lat="22.011276" lon="104.717163">
<ele>158.388794</ele>
<time>2011-04-28T07:10:44Z</time>
<desc>lat.=22.011276, lon.=104.717163, Alt.=158.388794m. Speed=0.252000m/h.</desc>
<speed>0.070000</speed>
</trkpt>
<trkpt lat="22.011272" lon="104.717163">
<ele>158.568481</ele>
<time>2011-04-28T07:10:49Z</time>
<desc>lat.=22.011272, lon.=104.717163, Alt.=158.568481m. Speed=0.144000m/h.</desc>
<speed>0.040000</speed>
</trkpt>
<trkpt lat="22.011271" lon="104.717155">
<ele>158.685669</ele>
<time>2011-04-28T07:10:54Z</time>
<desc>lat.=22.011271, lon.=104.717155, Alt.=158.685669m. Speed=0.072000m/h.</desc>
<speed>0.020000</speed>
</trkpt>
<trkpt lat="22.011272" lon="104.717155">
<ele>158.849731</ele>
<time>2011-04-28T07:10:59Z</time>
<desc>lat.=22.011272, lon.=104.717155, Alt.=158.849731m. Speed=0.108000m/h.</desc>
<speed>0.030000</speed>
</trkpt>
<trkpt lat="22.011274" lon="104.717163">
<ele>158.900513</ele>
<time>2011-04-28T07:11:04Z</time>
<desc>lat.=22.011274, lon.=104.717163, Alt.=158.900513m. Speed=0.180000m/h.</desc>
<speed>0.050000</speed>
</trkpt>
<trkpt lat="22.011276" lon="104.717163">
<ele>158.916138</ele>
<time>2011-04-28T07:11:09Z</time>
<desc>lat.=22.011276, lon.=104.717163, Alt.=158.916138m. Speed=0.216000m/h.</desc>
<speed>0.060000</speed>
</trkpt>
<trkpt lat="22.011276" lon="104.717163">
<ele>158.927856</ele>
<time>2011-04-28T07:11:14Z</time>
<desc>lat.=22.011276, lon.=104.717163, Alt.=158.927856m. Speed=0.108000m/h.</desc>
<speed>0.030000</speed>
</trkpt>
<trkpt lat="22.011276" lon="104.717163">
<ele>158.955200</ele>
<time>2011-04-28T07:11:19Z</time>
<desc>lat.=22.011276, lon.=104.717163, Alt.=158.955200m. Speed=0.036000m/h.</desc>
<speed>0.010000</speed>
</trkpt>
<trkpt lat="22.011276" lon="104.717155">
<ele>158.994263</ele>
<time>2011-04-28T07:11:24Z</time>
<desc>lat.=22.011276, lon.=104.717155, Alt.=158.994263m. Speed=0.144000m/h.</desc>
<speed>0.040000</speed>
</trkpt>
<trkpt lat="22.011276" lon="104.717155">
<ele>159.021606</ele>
<time>2011-04-28T07:11:29Z</time>
<desc>lat.=22.011276, lon.=104.717155, Alt.=159.021606m. Speed=0.108000m/h.</desc>
<speed>0.030000</speed>
</trkpt>
<trkpt lat="22.011278" lon="104.717155">
<ele>159.052856</ele>
<time>2011-04-28T07:11:34Z</time>
<desc>lat.=22.011278, lon.=104.717155, Alt.=159.052856m. Speed=0.036000m/h.</desc>
<speed>0.010000</speed>
</trkpt>
<trkpt lat="22.011278" lon="104.717155">
<ele>159.095825</ele>
<time>2011-04-28T07:11:39Z</time>
<desc>lat.=22.011278, lon.=104.717155, Alt.=159.095825m. Speed=0.036000m/h.</desc>
<speed>0.010000</speed>
</trkpt>
<trkpt lat="22.011280" lon="104.717155">
<ele>159.142700</ele>
<time>2011-04-28T07:11:44Z</time>
<desc>lat.=22.011280, lon.=104.717155, Alt.=159.142700m. Speed=0.036000m/h.</desc>
<speed>0.010000</speed>
</trkpt>
<trkpt lat="22.011280" lon="104.717155">
<ele>159.166138</ele>
<time>2011-04-28T07:11:49Z</time>
<desc>lat.=22.011280, lon.=104.717155, Alt.=159.166138m. Speed=0.000000m/h.</desc>
<speed>0.000000</speed>
</trkpt>
<trkpt lat="22.011280" lon="104.717155">
<ele>159.173950</ele>
<time>2011-04-28T07:11:54Z</time>
<desc>lat.=22.011280, lon.=104.717155, Alt.=159.173950m. Speed=0.036000m/h.</desc>
<speed>0.010000</speed>
</trkpt>
<trkpt lat="22.011280" lon="104.717155">
<ele>159.189575</ele>
<time>2011-04-28T07:11:59Z</time>
<desc>lat.=22.011280, lon.=104.717155, Alt.=159.189575m. Speed=0.036000m/h.</desc>
<speed>0.010000</speed>
</trkpt>
<trkpt lat="22.011280" lon="104.717155">
<ele>159.224731</ele>
<time>2011-04-28T07:12:04Z</time>
<desc>lat.=22.011280, lon.=104.717155, Alt.=159.224731m. Speed=0.036000m/h.</desc>
<speed>0.010000</speed>
</trkpt>
<trkpt lat="22.011280" lon="104.717155">
<ele>159.232544</ele>
<time>2011-04-28T07:12:09Z</time>
<desc>lat.=22.011280, lon.=104.717155, Alt.=159.232544m. Speed=0.000000m/h.</desc>
<speed>0.000000</speed>
</trkpt>
<trkpt lat="22.011280" lon="104.717155">
<ele>159.224731</ele>
<time>2011-04-28T07:12:14Z</time>
<desc>lat.=22.011280, lon.=104.717155, Alt.=159.224731m. Speed=0.000000m/h.</desc>
<speed>0.000000</speed>
</trkpt>
<trkpt lat="22.011280" lon="104.717155">
<ele>159.209106</ele>
<time>2011-04-28T07:12:19Z</time>
<desc>lat.=22.011280, lon.=104.717155, Alt.=159.209106m. Speed=0.000000m/h.</desc>
<speed>0.000000</speed>
</trkpt>
<trkpt lat="22.011280" lon="104.717155">
<ele>159.205200</ele>
<time>2011-04-28T07:12:24Z</time>
<desc>lat.=22.011280, lon.=104.717155, Alt.=159.205200m. Speed=0.000000m/h.</desc>
<speed>0.000000</speed>
</trkpt>
<trkpt lat="22.011280" lon="104.717155">
<ele>159.193481</ele>
<time>2011-04-28T07:12:29Z</time>
<desc>lat.=22.011280, lon.=104.717155, Alt.=159.193481m. Speed=0.072000m/h.</desc>
<speed>0.020000</speed>
</trkpt>
<trkpt lat="22.011280" lon="104.717155">
<ele>159.181763</ele>
<time>2011-04-28T07:12:34Z</time>
<desc>lat.=22.011280, lon.=104.717155, Alt.=159.181763m. Speed=0.000000m/h.</desc>
<speed>0.000000</speed>
</trkpt>
<trkpt lat="22.011280" lon="104.717155">
<ele>159.166138</ele>
<time>2011-04-28T07:12:39Z</time>
<desc>lat.=22.011280, lon.=104.717155, Alt.=159.166138m. Speed=0.072000m/h.</desc>
<speed>0.020000</speed>
</trkpt>
<trkpt lat="22.011280" lon="104.717155">
<ele>159.166138</ele>
<time>2011-04-28T07:12:44Z</time>
<desc>lat.=22.011280, lon.=104.717155, Alt.=159.166138m. Speed=0.072000m/h.</desc>
<speed>0.020000</speed>
</trkpt>
<trkpt lat="22.011280" lon="104.717155">
<ele>159.154419</ele>
<time>2011-04-28T07:12:49Z</time>
<desc>lat.=22.011280, lon.=104.717155, Alt.=159.154419m. Speed=0.072000m/h.</desc>
<speed>0.020000</speed>
</trkpt>
<trkpt lat="22.011280" lon="104.717155">
<ele>159.138794</ele>
<time>2011-04-28T07:12:54Z</time>
<desc>lat.=22.011280, lon.=104.717155, Alt.=159.138794m. Speed=0.000000m/h.</desc>
<speed>0.000000</speed>
</trkpt>
<trkpt lat="22.011280" lon="104.717155">
<ele>159.134888</ele>
<time>2011-04-28T07:12:59Z</time>
<desc>lat.=22.011280, lon.=104.717155, Alt.=159.134888m. Speed=0.000000m/h.</desc>
<speed>0.000000</speed>
</trkpt>
<trkpt lat="22.011280" lon="104.717155">
<ele>159.142700</ele>
<time>2011-04-28T07:13:04Z</time>
<desc>lat.=22.011280, lon.=104.717155, Alt.=159.142700m. Speed=0.000000m/h.</desc>
<speed>0.000000</speed>
</trkpt>
<trkpt lat="22.011280" lon="104.717155">
<ele>159.138794</ele>
<time>2011-04-28T07:13:09Z</time>
<desc>lat.=22.011280, lon.=104.717155, Alt.=159.138794m. Speed=0.036000m/h.</desc>
<speed>0.010000</speed>
</trkpt>
<trkpt lat="22.011280" lon="104.717155">
<ele>159.115356</ele>
<time>2011-04-28T07:13:14Z</time>
<desc>lat.=22.011280, lon.=104.717155, Alt.=159.115356m. Speed=0.036000m/h.</desc>
<speed>0.010000</speed>
</trkpt>
<trkpt lat="22.011278" lon="104.717155">
<ele>159.099731</ele>
<time>2011-04-28T07:13:19Z</time>
<desc>lat.=22.011278, lon.=104.717155, Alt.=159.099731m. Speed=0.000000m/h.</desc>
<speed>0.000000</speed>
</trkpt>
<trkpt lat="22.011278" lon="104.717155">
<ele>159.088013</ele>
<time>2011-04-28T07:13:24Z</time>
<desc>lat.=22.011278, lon.=104.717155, Alt.=159.088013m. Speed=0.000000m/h.</desc>
<speed>0.000000</speed>
</trkpt>
<trkpt lat="22.011278" lon="104.717155">
<ele>159.072388</ele>
<time>2011-04-28T07:13:29Z</time>
<desc>lat.=22.011278, lon.=104.717155, Alt.=159.072388m. Speed=0.036000m/h.</desc>
<speed>0.010000</speed>
</trkpt>
<trkpt lat="22.011278" lon="104.717155">
<ele>159.052856</ele>
<time>2011-04-28T07:13:34Z</time>
<desc>lat.=22.011278, lon.=104.717155, Alt.=159.052856m. Speed=0.072000m/h.</desc>
<speed>0.020000</speed>
</trkpt>
<trkpt lat="22.011278" lon="104.717155">
<ele>159.029419</ele>
<time>2011-04-28T07:13:39Z</time>
<desc>lat.=22.011278, lon.=104.717155, Alt.=159.029419m. Speed=0.036000m/h.</desc>
<speed>0.010000</speed>
</trkpt>
<trkpt lat="22.011278" lon="104.717155">
<ele>159.002075</ele>
<time>2011-04-28T07:13:44Z</time>
<desc>lat.=22.011278, lon.=104.717155, Alt.=159.002075m. Speed=0.036000m/h.</desc>
<speed>0.010000</speed>
</trkpt>
<trkpt lat="22.011276" lon="104.717155">
<ele>158.966919</ele>
<time>2011-04-28T07:13:49Z</time>
<desc>lat.=22.011276, lon.=104.717155, Alt.=158.966919m. Speed=0.036000m/h.</desc>
<speed>0.010000</speed>
</trkpt>
<trkpt lat="22.011276" lon="104.717155">
<ele>158.951294</ele>
<time>2011-04-28T07:13:54Z</time>
<desc>lat.=22.011276, lon.=104.717155, Alt.=158.951294m. Speed=0.000000m/h.</desc>
<speed>0.000000</speed>
</trkpt>
<trkpt lat="22.011276" lon="104.717155">
<ele>158.931763</ele>
<time>2011-04-28T07:13:59Z</time>
<desc>lat.=22.011276, lon.=104.717155, Alt.=158.931763m. Speed=0.036000m/h.</desc>
<speed>0.010000</speed>
</trkpt>
<trkpt lat="22.011276" lon="104.717155">
<ele>158.931763</ele>
<time>2011-04-28T07:14:04Z</time>
<desc>lat.=22.011276, lon.=104.717155, Alt.=158.931763m. Speed=0.036000m/h.</desc>
<speed>0.010000</speed>
</trkpt>
<trkpt lat="22.011276" lon="104.717155">
<ele>158.931763</ele>
<time>2011-04-28T07:14:09Z</time>
<desc>lat.=22.011276, lon.=104.717155, Alt.=158.931763m. Speed=0.036000m/h.</desc>
<speed>0.010000</speed>
</trkpt>
<trkpt lat="22.011276" lon="104.717155">
<ele>158.943481</ele>
<time>2011-04-28T07:14:14Z</time>
<desc>lat.=22.011276, lon.=104.717155, Alt.=158.943481m. Speed=0.036000m/h.</desc>
<speed>0.010000</speed>
</trkpt>
<trkpt lat="22.011276" lon="104.717155">
<ele>158.955200</ele>
<time>2011-04-28T07:14:19Z</time>
<desc>lat.=22.011276, lon.=104.717155, Alt.=158.955200m. Speed=0.036000m/h.</desc>
<speed>0.010000</speed>
</trkpt>
<trkpt lat="22.011276" lon="104.717155">
<ele>158.955200</ele>
<time>2011-04-28T07:14:24Z</time>
<desc>lat.=22.011276, lon.=104.717155, Alt.=158.955200m. Speed=0.000000m/h.</desc>
<speed>0.000000</speed>
</trkpt>
<trkpt lat="22.011276" lon="104.717155">
<ele>158.959106</ele>
<time>2011-04-28T07:14:29Z</time>
<desc>lat.=22.011276, lon.=104.717155, Alt.=158.959106m. Speed=0.036000m/h.</desc>
<speed>0.010000</speed>
</trkpt>
<trkpt lat="22.011276" lon="104.717155">
<ele>158.951294</ele>
<time>2011-04-28T07:14:34Z</time>
<desc>lat.=22.011276, lon.=104.717155, Alt.=158.951294m. Speed=0.036000m/h.</desc>
<speed>0.010000</speed>
</trkpt>
<trkpt lat="22.011276" lon="104.717155">
<ele>158.943481</ele>
<time>2011-04-28T07:14:39Z</time>
<desc>lat.=22.011276, lon.=104.717155, Alt.=158.943481m. Speed=0.000000m/h.</desc>
<speed>0.000000</speed>
</trkpt>
<trkpt lat="22.011276" lon="104.717155">
<ele>158.943481</ele>
<time>2011-04-28T07:14:44Z</time>
<desc>lat.=22.011276, lon.=104.717155, Alt.=158.943481m. Speed=0.000000m/h.</desc>
<speed>0.000000</speed>
</trkpt>
<trkpt lat="22.011276" lon="104.717155">
<ele>158.935669</ele>
<time>2011-04-28T07:14:49Z</time>
<desc>lat.=22.011276, lon.=104.717155, Alt.=158.935669m. Speed=0.072000m/h.</desc>
<speed>0.020000</speed>
</trkpt>
<trkpt lat="22.011274" lon="104.717155">
<ele>158.923950</ele>
<time>2011-04-28T07:14:54Z</time>
<desc>lat.=22.011274, lon.=104.717155, Alt.=158.923950m. Speed=0.036000m/h.</desc>
<speed>0.010000</speed>
</trkpt>
<trkpt lat="22.011274" lon="104.717155">
<ele>158.920044</ele>
<time>2011-04-28T07:14:59Z</time>
<desc>lat.=22.011274, lon.=104.717155, Alt.=158.920044m. Speed=0.000000m/h.</desc>
<speed>0.000000</speed>
</trkpt>
<trkpt lat="22.011274" lon="104.717155">
<ele>158.908325</ele>
<time>2011-04-28T07:15:04Z</time>
<desc>lat.=22.011274, lon.=104.717155, Alt.=158.908325m. Speed=0.000000m/h.</desc>
<speed>0.000000</speed>
</trkpt>
<trkpt lat="22.011274" lon="104.717155">
<ele>158.904419</ele>
<time>2011-04-28T07:15:09Z</time>
<desc>lat.=22.011274, lon.=104.717155, Alt.=158.904419m. Speed=0.000000m/h.</desc>
<speed>0.000000</speed>
</trkpt>
<trkpt lat="22.011274" lon="104.717155">
<ele>158.908325</ele>
<time>2011-04-28T07:15:14Z</time>
<desc>lat.=22.011274, lon.=104.717155, Alt.=158.908325m. Speed=0.036000m/h.</desc>
<speed>0.010000</speed>
</trkpt>
<trkpt lat="22.011274" lon="104.717155">
<ele>158.896606</ele>
<time>2011-04-28T07:15:19Z</time>
<desc>lat.=22.011274, lon.=104.717155, Alt.=158.896606m. Speed=0.036000m/h.</desc>
<speed>0.010000</speed>
</trkpt>
<trkpt lat="22.011274" lon="104.717155">
<ele>158.896606</ele>
<time>2011-04-28T07:15:24Z</time>
<desc>lat.=22.011274, lon.=104.717155, Alt.=158.896606m. Speed=0.036000m/h.</desc>
<speed>0.010000</speed>
</trkpt>
<trkpt lat="22.011274" lon="104.717155">
<ele>158.884888</ele>
<time>2011-04-28T07:15:29Z</time>
<desc>lat.=22.011274, lon.=104.717155, Alt.=158.884888m. Speed=0.036000m/h.</desc>
<speed>0.010000</speed>
</trkpt>
<trkpt lat="22.011276" lon="104.717155">
<ele>158.884888</ele>
<time>2011-04-28T07:15:34Z</time>
<desc>lat.=22.011276, lon.=104.717155, Alt.=158.884888m. Speed=0.000000m/h.</desc>
<speed>0.000000</speed>
</trkpt>
<trkpt lat="22.011276" lon="104.717155">
<ele>158.884888</ele>
<time>2011-04-28T07:15:39Z</time>
<desc>lat.=22.011276, lon.=104.717155, Alt.=158.884888m. Speed=0.036000m/h.</desc>
<speed>0.010000</speed>
</trkpt>
<trkpt lat="22.011276" lon="104.717155">
<ele>158.892700</ele>
<time>2011-04-28T07:15:44Z</time>
<desc>lat.=22.011276, lon.=104.717155, Alt.=158.892700m. Speed=0.036000m/h.</desc>
<speed>0.010000</speed>
</trkpt>
<trkpt lat="22.011276" lon="104.717155">
<ele>158.904419</ele>
<time>2011-04-28T07:15:49Z</time>
<desc>lat.=22.011276, lon.=104.717155, Alt.=158.904419m. Speed=0.000000m/h.</desc>
<speed>0.000000</speed>
</trkpt>
<trkpt lat="22.011276" lon="104.717155">
<ele>158.920044</ele>
<time>2011-04-28T07:15:54Z</time>
<desc>lat.=22.011276, lon.=104.717155, Alt.=158.920044m. Speed=0.036000m/h.</desc>
<speed>0.010000</speed>
</trkpt>
<trkpt lat="22.011276" lon="104.717155">
<ele>158.923950</ele>
<time>2011-04-28T07:15:59Z</time>
<desc>lat.=22.011276, lon.=104.717155, Alt.=158.923950m. Speed=0.072000m/h.</desc>
<speed>0.020000</speed>
</trkpt>
<trkpt lat="22.011278" lon="104.717155">
<ele>158.951294</ele>
<time>2011-04-28T07:16:04Z</time>
<desc>lat.=22.011278, lon.=104.717155, Alt.=158.951294m. Speed=0.036000m/h.</desc>
<speed>0.010000</speed>
</trkpt>
<trkpt lat="22.011278" lon="104.717155">
<ele>158.994263</ele>
<time>2011-04-28T07:16:09Z</time>
<desc>lat.=22.011278, lon.=104.717155, Alt.=158.994263m. Speed=0.036000m/h.</desc>
<speed>0.010000</speed>
</trkpt>
<trkpt lat="22.011278" lon="104.717155">
<ele>159.017700</ele>
<time>2011-04-28T07:16:14Z</time>
<desc>lat.=22.011278, lon.=104.717155, Alt.=159.017700m. Speed=0.036000m/h.</desc>
<speed>0.010000</speed>
</trkpt>
<trkpt lat="22.011280" lon="104.717155">
<ele>159.048950</ele>
<time>2011-04-28T07:16:19Z</time>
<desc>lat.=22.011280, lon.=104.717155, Alt.=159.048950m. Speed=0.000000m/h.</desc>
<speed>0.000000</speed>
</trkpt>
<trkpt lat="22.011280" lon="104.717155">
<ele>159.060669</ele>
<time>2011-04-28T07:16:24Z</time>
<desc>lat.=22.011280, lon.=104.717155, Alt.=159.060669m. Speed=0.000000m/h.</desc>
<speed>0.000000</speed>
</trkpt>
<trkpt lat="22.011280" lon="104.717155">
<ele>159.072388</ele>
<time>2011-04-28T07:16:29Z</time>
<desc>lat.=22.011280, lon.=104.717155, Alt.=159.072388m. Speed=0.000000m/h.</desc>
<speed>0.000000</speed>
</trkpt>
<trkpt lat="22.011280" lon="104.717155">
<ele>159.088013</ele>
<time>2011-04-28T07:16:34Z</time>
<desc>lat.=22.011280, lon.=104.717155, Alt.=159.088013m. Speed=0.000000m/h.</desc>
<speed>0.000000</speed>
</trkpt>
<trkpt lat="22.011280" lon="104.717155">
<ele>159.107544</ele>
<time>2011-04-28T07:16:39Z</time>
<desc>lat.=22.011280, lon.=104.717155, Alt.=159.107544m. Speed=0.000000m/h.</desc>
<speed>0.000000</speed>
</trkpt>
<trkpt lat="22.011280" lon="104.717155">
<ele>159.123169</ele>
<time>2011-04-28T07:16:44Z</time>
<desc>lat.=22.011280, lon.=104.717155, Alt.=159.123169m. Speed=0.036000m/h.</desc>
<speed>0.010000</speed>
</trkpt>
<trkpt lat="22.011282" lon="104.717155">
<ele>159.138794</ele>
<time>2011-04-28T07:16:49Z</time>
<desc>lat.=22.011282, lon.=104.717155, Alt.=159.138794m. Speed=0.000000m/h.</desc>
<speed>0.000000</speed>
</trkpt>
<trkpt lat="22.011282" lon="104.717155">
<ele>159.162231</ele>
<time>2011-04-28T07:16:54Z</time>
<desc>lat.=22.011282, lon.=104.717155, Alt.=159.162231m. Speed=0.036000m/h.</desc>
<speed>0.010000</speed>
</trkpt>
<trkpt lat="22.011282" lon="104.717155">
<ele>159.201294</ele>
<time>2011-04-28T07:16:59Z</time>
<desc>lat.=22.011282, lon.=104.717155, Alt.=159.201294m. Speed=0.036000m/h.</desc>
<speed>0.010000</speed>
</trkpt>
<trkpt lat="22.011282" lon="104.717155">
<ele>159.220825</ele>
<time>2011-04-28T07:17:04Z</time>
<desc>lat.=22.011282, lon.=104.717155, Alt.=159.220825m. Speed=0.000000m/h.</desc>
<speed>0.000000</speed>
</trkpt>
<trkpt lat="22.011284" lon="104.717155">
<ele>159.240356</ele>
<time>2011-04-28T07:17:09Z</time>
<desc>lat.=22.011284, lon.=104.717155, Alt.=159.240356m. Speed=0.000000m/h.</desc>
<speed>0.000000</speed>
</trkpt>
<trkpt lat="22.011284" lon="104.717155">
<ele>159.255981</ele>
<time>2011-04-28T07:17:14Z</time>
<desc>lat.=22.011284, lon.=104.717155, Alt.=159.255981m. Speed=0.072000m/h.</desc>
<speed>0.020000</speed>
</trkpt>
<trkpt lat="22.011284" lon="104.717155">
<ele>159.267700</ele>
<time>2011-04-28T07:17:19Z</time>
<desc>lat.=22.011284, lon.=104.717155, Alt.=159.267700m. Speed=0.000000m/h.</desc>
<speed>0.000000</speed>
</trkpt>
<trkpt lat="22.011284" lon="104.717155">
<ele>159.263794</ele>
<time>2011-04-28T07:17:24Z</time>
<desc>lat.=22.011284, lon.=104.717155, Alt.=159.263794m. Speed=0.000000m/h.</desc>
<speed>0.000000</speed>
</trkpt>
<trkpt lat="22.011284" lon="104.717155">
<ele>159.275513</ele>
<time>2011-04-28T07:17:29Z</time>
<desc>lat.=22.011284, lon.=104.717155, Alt.=159.275513m. Speed=0.036000m/h.</desc>
<speed>0.010000</speed>
</trkpt>
<trkpt lat="22.011284" lon="104.717155">
<ele>159.279419</ele>
<time>2011-04-28T07:17:34Z</time>
<desc>lat.=22.011284, lon.=104.717155, Alt.=159.279419m. Speed=0.036000m/h.</desc>
<speed>0.010000</speed>
</trkpt>
<trkpt lat="22.011284" lon="104.717155">
<ele>159.283325</ele>
<time>2011-04-28T07:17:39Z</time>
<desc>lat.=22.011284, lon.=104.717155, Alt.=159.283325m. Speed=0.000000m/h.</desc>
<speed>0.000000</speed>
</trkpt>
<trkpt lat="22.011284" lon="104.717155">
<ele>159.295044</ele>
<time>2011-04-28T07:17:44Z</time>
<desc>lat.=22.011284, lon.=104.717155, Alt.=159.295044m. Speed=0.000000m/h.</desc>
<speed>0.000000</speed>
</trkpt>
<trkpt lat="22.011286" lon="104.717155">
<ele>159.302856</ele>
<time>2011-04-28T07:17:49Z</time>
<desc>lat.=22.011286, lon.=104.717155, Alt.=159.302856m. Speed=0.036000m/h.</desc>
<speed>0.010000</speed>
</trkpt>
<trkpt lat="22.011286" lon="104.717155">
<ele>159.306763</ele>
<time>2011-04-28T07:17:54Z</time>
<desc>lat.=22.011286, lon.=104.717155, Alt.=159.306763m. Speed=0.108000m/h.</desc>
<speed>0.030000</speed>
</trkpt>
<trkpt lat="22.011286" lon="104.717155">
<ele>159.310669</ele>
<time>2011-04-28T07:17:59Z</time>
<desc>lat.=22.011286, lon.=104.717155, Alt.=159.310669m. Speed=0.000000m/h.</desc>
<speed>0.000000</speed>
</trkpt>
<trkpt lat="22.011286" lon="104.717155">
<ele>159.318481</ele>
<time>2011-04-28T07:18:04Z</time>
<desc>lat.=22.011286, lon.=104.717155, Alt.=159.318481m. Speed=0.000000m/h.</desc>
<speed>0.000000</speed>
</trkpt>
<trkpt lat="22.011286" lon="104.717155">
<ele>159.326294</ele>
<time>2011-04-28T07:18:09Z</time>
<desc>lat.=22.011286, lon.=104.717155, Alt.=159.326294m. Speed=0.000000m/h.</desc>
<speed>0.000000</speed>
</trkpt>
<trkpt lat="22.011288" lon="104.717155">
<ele>159.357544</ele>
<time>2011-04-28T07:18:14Z</time>
<desc>lat.=22.011288, lon.=104.717155, Alt.=159.357544m. Speed=0.000000m/h.</desc>
<speed>0.000000</speed>
</trkpt>
<trkpt lat="22.011288" lon="104.717155">
<ele>159.392700</ele>
<time>2011-04-28T07:18:19Z</time>
<desc>lat.=22.011288, lon.=104.717155, Alt.=159.392700m. Speed=0.000000m/h.</desc>
<speed>0.000000</speed>
</trkpt>
<trkpt lat="22.011290" lon="104.717155">
<ele>159.443481</ele>
<time>2011-04-28T07:18:24Z</time>
<desc>lat.=22.011290, lon.=104.717155, Alt.=159.443481m. Speed=0.000000m/h.</desc>
<speed>0.000000</speed>
</trkpt>
<trkpt lat="22.011290" lon="104.717155">
<ele>159.459106</ele>
<time>2011-04-28T07:18:29Z</time>
<desc>lat.=22.011290, lon.=104.717155, Alt.=159.459106m. Speed=0.000000m/h.</desc>
<speed>0.000000</speed>
</trkpt>
<trkpt lat="22.011290" lon="104.717155">
<ele>159.478638</ele>
<time>2011-04-28T07:18:34Z</time>
<desc>lat.=22.011290, lon.=104.717155, Alt.=159.478638m. Speed=0.000000m/h.</desc>
<speed>0.000000</speed>
</trkpt>
<trkpt lat="22.011290" lon="104.717155">
<ele>159.482544</ele>
<time>2011-04-28T07:18:39Z</time>
<desc>lat.=22.011290, lon.=104.717155, Alt.=159.482544m. Speed=0.036000m/h.</desc>
<speed>0.010000</speed>
</trkpt>
<trkpt lat="22.011290" lon="104.717148">
<ele>159.482544</ele>
<time>2011-04-28T07:18:44Z</time>
<desc>lat.=22.011290, lon.=104.717148, Alt.=159.482544m. Speed=0.000000m/h.</desc>
<speed>0.000000</speed>
</trkpt>
<trkpt lat="22.011288" lon="104.717148">
<ele>159.466919</ele>
<time>2011-04-28T07:18:49Z</time>
<desc>lat.=22.011288, lon.=104.717148, Alt.=159.466919m. Speed=0.036000m/h.</desc>
<speed>0.010000</speed>
</trkpt>
<trkpt lat="22.011288" lon="104.717148">
<ele>159.459106</ele>
<time>2011-04-28T07:18:54Z</time>
<desc>lat.=22.011288, lon.=104.717148, Alt.=159.459106m. Speed=0.000000m/h.</desc>
<speed>0.000000</speed>
</trkpt>
<trkpt lat="22.011288" lon="104.717148">
<ele>159.431763</ele>
<time>2011-04-28T07:18:59Z</time>
<desc>lat.=22.011288, lon.=104.717148, Alt.=159.431763m. Speed=0.000000m/h.</desc>
<speed>0.000000</speed>
</trkpt>
<trkpt lat="22.011286" lon="104.717148">
<ele>159.377075</ele>
<time>2011-04-28T07:19:04Z</time>
<desc>lat.=22.011286, lon.=104.717148, Alt.=159.377075m. Speed=0.144000m/h.</desc>
<speed>0.040000</speed>
</trkpt>
<trkpt lat="22.011282" lon="104.717148">
<ele>159.252075</ele>
<time>2011-04-28T07:19:09Z</time>
<desc>lat.=22.011282, lon.=104.717148, Alt.=159.252075m. Speed=0.252000m/h.</desc>
<speed>0.070000</speed>
</trkpt>
<trkpt lat="22.011278" lon="104.717148">
<ele>159.068481</ele>
<time>2011-04-28T07:19:14Z</time>
<desc>lat.=22.011278, lon.=104.717148, Alt.=159.068481m. Speed=0.468000m/h.</desc>
<speed>0.130000</speed>
</trkpt>
<trkpt lat="22.011271" lon="104.717148">
<ele>158.896606</ele>
<time>2011-04-28T07:19:19Z</time>
<desc>lat.=22.011271, lon.=104.717148, Alt.=158.896606m. Speed=0.468000m/h.</desc>
<speed>0.130000</speed>
</trkpt>
<trkpt lat="22.011267" lon="104.717148">
<ele>158.748169</ele>
<time>2011-04-28T07:19:24Z</time>
<desc>lat.=22.011267, lon.=104.717148, Alt.=158.748169m. Speed=0.288000m/h.</desc>
<speed>0.080000</speed>
</trkpt>
<trkpt lat="22.011265" lon="104.717148">
<ele>158.642700</ele>
<time>2011-04-28T07:19:29Z</time>
<desc>lat.=22.011265, lon.=104.717148, Alt.=158.642700m. Speed=0.000000m/h.</desc>
<speed>0.000000</speed>
</trkpt>
<trkpt lat="22.011265" lon="104.717148">
<ele>158.576294</ele>
<time>2011-04-28T07:19:34Z</time>
<desc>lat.=22.011265, lon.=104.717148, Alt.=158.576294m. Speed=0.000000m/h.</desc>
<speed>0.000000</speed>
</trkpt>
<trkpt lat="22.011265" lon="104.717148">
<ele>158.556763</ele>
<time>2011-04-28T07:19:39Z</time>
<desc>lat.=22.011265, lon.=104.717148, Alt.=158.556763m. Speed=0.000000m/h.</desc>
<speed>0.000000</speed>
</trkpt>
<trkpt lat="22.011265" lon="104.717148">
<ele>158.572388</ele>
<time>2011-04-28T07:19:44Z</time>
<desc>lat.=22.011265, lon.=104.717148, Alt.=158.572388m. Speed=0.072000m/h.</desc>
<speed>0.020000</speed>
</trkpt>
<trkpt lat="22.011265" lon="104.717148">
<ele>158.572388</ele>
<time>2011-04-28T07:19:49Z</time>
<desc>lat.=22.011265, lon.=104.717148, Alt.=158.572388m. Speed=0.036000m/h.</desc>
<speed>0.010000</speed>
</trkpt>
<trkpt lat="22.011265" lon="104.717148">
<ele>158.560669</ele>
<time>2011-04-28T07:19:54Z</time>
<desc>lat.=22.011265, lon.=104.717148, Alt.=158.560669m. Speed=0.036000m/h.</desc>
<speed>0.010000</speed>
</trkpt>
<trkpt lat="22.011265" lon="104.717148">
<ele>158.568481</ele>
<time>2011-04-28T07:19:59Z</time>
<desc>lat.=22.011265, lon.=104.717148, Alt.=158.568481m. Speed=0.108000m/h.</desc>
<speed>0.030000</speed>
</trkpt>
<trkpt lat="22.011265" lon="104.717148">
<ele>158.564575</ele>
<time>2011-04-28T07:20:04Z</time>
<desc>lat.=22.011265, lon.=104.717148, Alt.=158.564575m. Speed=0.144000m/h.</desc>
<speed>0.040000</speed>
</trkpt>
<trkpt lat="22.011265" lon="104.717148">
<ele>158.576294</ele>
<time>2011-04-28T07:20:09Z</time>
<desc>lat.=22.011265, lon.=104.717148, Alt.=158.576294m. Speed=0.072000m/h.</desc>
<speed>0.020000</speed>
</trkpt>
<trkpt lat="22.011265" lon="104.717148">
<ele>158.588013</ele>
<time>2011-04-28T07:20:14Z</time>
<desc>lat.=22.011265, lon.=104.717148, Alt.=158.588013m. Speed=0.108000m/h.</desc>
<speed>0.030000</speed>
</trkpt>
<trkpt lat="22.011265" lon="104.717148">
<ele>158.541138</ele>
<time>2011-04-28T07:20:19Z</time>
<desc>lat.=22.011265, lon.=104.717148, Alt.=158.541138m. Speed=0.072000m/h.</desc>
<speed>0.020000</speed>
</trkpt>
<trkpt lat="22.011265" lon="104.717148">
<ele>158.505981</ele>
<time>2011-04-28T07:20:24Z</time>
<desc>lat.=22.011265, lon.=104.717148, Alt.=158.505981m. Speed=0.180000m/h.</desc>
<speed>0.050000</speed>
</trkpt>
<trkpt lat="22.011215" lon="104.717232">
<ele>157.111450</ele>
<time>2011-04-28T07:20:29Z</time>
<desc>lat.=22.011215, lon.=104.717232, Alt.=157.111450m. Speed=9.468000m/h.</desc>
<speed>2.630000</speed>
</trkpt>
<trkpt lat="22.011078" lon="104.717438">
<ele>154.197388</ele>
<time>2011-04-28T07:20:34Z</time>
<desc>lat.=22.011078, lon.=104.717438, Alt.=154.197388m. Speed=16.164000m/h.</desc>
<speed>4.490000</speed>
</trkpt>
<trkpt lat="22.010931" lon="104.717674">
<ele>151.310669</ele>
<time>2011-04-28T07:20:39Z</time>
<desc>lat.=22.010931, lon.=104.717674, Alt.=151.310669m. Speed=18.612000m/h.</desc>
<speed>5.170000</speed>
</trkpt>
<trkpt lat="22.010702" lon="104.717873">
<ele>149.201294</ele>
<time>2011-04-28T07:20:44Z</time>
<desc>lat.=22.010702, lon.=104.717873, Alt.=149.201294m. Speed=21.851999m/h.</desc>
<speed>6.070000</speed>
</trkpt>
<trkpt lat="22.010515" lon="104.718132">
<ele>145.466919</ele>
<time>2011-04-28T07:20:49Z</time>
<desc>lat.=22.010515, lon.=104.718132, Alt.=145.466919m. Speed=25.992001m/h.</desc>
<speed>7.220000</speed>
</trkpt>
<trkpt lat="22.010351" lon="104.718475">
<ele>141.920044</ele>
<time>2011-04-28T07:20:54Z</time>
<desc>lat.=22.010351, lon.=104.718475, Alt.=141.920044m. Speed=25.775999m/h.</desc>
<speed>7.160000</speed>
</trkpt>
<trkpt lat="22.010286" lon="104.718811">
<ele>137.736450</ele>
<time>2011-04-28T07:20:59Z</time>
<desc>lat.=22.010286, lon.=104.718811, Alt.=137.736450m. Speed=21.780001m/h.</desc>
<speed>6.050000</speed>
</trkpt>
<trkpt lat="22.010538" lon="104.719109">
<ele>132.748169</ele>
<time>2011-04-28T07:21:04Z</time>
<desc>lat.=22.010538, lon.=104.719109, Alt.=132.748169m. Speed=28.548000m/h.</desc>
<speed>7.930000</speed>
</trkpt>
<trkpt lat="22.010859" lon="104.719315">
<ele>130.470825</ele>
<time>2011-04-28T07:21:09Z</time>
<desc>lat.=22.010859, lon.=104.719315, Alt.=130.470825m. Speed=26.892000m/h.</desc>
<speed>7.470000</speed>
</trkpt>
<trkpt lat="22.010984" lon="104.719597">
<ele>128.584106</ele>
<time>2011-04-28T07:21:14Z</time>
<desc>lat.=22.010984, lon.=104.719597, Alt.=128.584106m. Speed=19.620001m/h.</desc>
<speed>5.450000</speed>
</trkpt>
<trkpt lat="22.010794" lon="104.719841">
<ele>123.028381</ele>
<time>2011-04-28T07:21:19Z</time>
<desc>lat.=22.010794, lon.=104.719841, Alt.=123.028381m. Speed=24.228001m/h.</desc>
<speed>6.730000</speed>
</trkpt>
<trkpt lat="22.010511" lon="104.719940">
<ele>115.813538</ele>
<time>2011-04-28T07:21:24Z</time>
<desc>lat.=22.010511, lon.=104.719940, Alt.=115.813538m. Speed=22.788000m/h.</desc>
<speed>6.330000</speed>
</trkpt>
<trkpt lat="22.010208" lon="104.720062">
<ele>111.092834</ele>
<time>2011-04-28T07:21:29Z</time>
<desc>lat.=22.010208, lon.=104.720062, Alt.=111.092834m. Speed=27.000000m/h.</desc>
<speed>7.500000</speed>
</trkpt>
<trkpt lat="22.009932" lon="104.720314">
<ele>107.930725</ele>
<time>2011-04-28T07:21:34Z</time>
<desc>lat.=22.009932, lon.=104.720314, Alt.=107.930725m. Speed=27.216000m/h.</desc>
<speed>7.560000</speed>
</trkpt>
<trkpt lat="22.009722" lon="104.720512">
<ele>106.540100</ele>
<time>2011-04-28T07:21:39Z</time>
<desc>lat.=22.009722, lon.=104.720512, Alt.=106.540100m. Speed=15.948000m/h.</desc>
<speed>4.430000</speed>
</trkpt>
<trkpt lat="22.009579" lon="104.720695">
<ele>103.667053</ele>
<time>2011-04-28T07:21:44Z</time>
<desc>lat.=22.009579, lon.=104.720695, Alt.=103.667053m. Speed=20.448000m/h.</desc>
<speed>5.680000</speed>
</trkpt>
<trkpt lat="22.009439" lon="104.721046">
<ele>100.247131</ele>
<time>2011-04-28T07:21:49Z</time>
<desc>lat.=22.009439, lon.=104.721046, Alt.=100.247131m. Speed=32.220001m/h.</desc>
<speed>8.950000</speed>
</trkpt>
<trkpt lat="22.009279" lon="104.721519">
<ele>95.221741</ele>
<time>2011-04-28T07:21:54Z</time>
<desc>lat.=22.009279, lon.=104.721519, Alt.=95.221741m. Speed=39.779999m/h.</desc>
<speed>11.050000</speed>
</trkpt>
<trkpt lat="22.009003" lon="104.722061">
<ele>91.139709</ele>
<time>2011-04-28T07:21:59Z</time>
<desc>lat.=22.009003, lon.=104.722061, Alt.=91.139709m. Speed=47.124001m/h.</desc>
<speed>13.090000</speed>
</trkpt>
<trkpt lat="22.008686" lon="104.722580">
<ele>88.657288</ele>
<time>2011-04-28T07:22:04Z</time>
<desc>lat.=22.008686, lon.=104.722580, Alt.=88.657288m. Speed=40.824001m/h.</desc>
<speed>11.340000</speed>
</trkpt>
<trkpt lat="22.008413" lon="104.722916">
<ele>89.448303</ele>
<time>2011-04-28T07:22:09Z</time>
<desc>lat.=22.008413, lon.=104.722916, Alt.=89.448303m. Speed=24.587999m/h.</desc>
<speed>6.830000</speed>
</trkpt>
<trkpt lat="22.008354" lon="104.723236">
<ele>89.202209</ele>
<time>2011-04-28T07:22:14Z</time>
<desc>lat.=22.008354, lon.=104.723236, Alt.=89.202209m. Speed=33.192001m/h.</desc>
<speed>9.220000</speed>
</trkpt>
<trkpt lat="22.008522" lon="104.723694">
<ele>87.991272</ele>
<time>2011-04-28T07:22:19Z</time>
<desc>lat.=22.008522, lon.=104.723694, Alt.=87.991272m. Speed=36.396000m/h.</desc>
<speed>10.110000</speed>
</trkpt>
<trkpt lat="22.008713" lon="104.724159">
<ele>85.665100</ele>
<time>2011-04-28T07:22:24Z</time>
<desc>lat.=22.008713, lon.=104.724159, Alt.=85.665100m. Speed=35.099998m/h.</desc>
<speed>9.750000</speed>
</trkpt>
<trkpt lat="22.008801" lon="104.724640">
<ele>83.817444</ele>
<time>2011-04-28T07:22:29Z</time>
<desc>lat.=22.008801, lon.=104.724640, Alt.=83.817444m. Speed=32.939999m/h.</desc>
<speed>9.150000</speed>
</trkpt>
<trkpt lat="22.008940" lon="104.725014">
<ele>82.565491</ele>
<time>2011-04-28T07:22:34Z</time>
<desc>lat.=22.008940, lon.=104.725014, Alt.=82.565491m. Speed=24.624001m/h.</desc>
<speed>6.840000</speed>
</trkpt>
<trkpt lat="22.009026" lon="104.725288">
<ele>80.079163</ele>
<time>2011-04-28T07:22:39Z</time>
<desc>lat.=22.009026, lon.=104.725288, Alt.=80.079163m. Speed=19.944000m/h.</desc>
<speed>5.540000</speed>
</trkpt>
<trkpt lat="22.008991" lon="104.725586">
<ele>79.604553</ele>
<time>2011-04-28T07:22:44Z</time>
<desc>lat.=22.008991, lon.=104.725586, Alt.=79.604553m. Speed=22.752001m/h.</desc>
<speed>6.320000</speed>
</trkpt>
<trkpt lat="22.008905" lon="104.725906">
<ele>77.022522</ele>
<time>2011-04-28T07:22:49Z</time>
<desc>lat.=22.008905, lon.=104.725906, Alt.=77.022522m. Speed=23.796000m/h.</desc>
<speed>6.610000</speed>
</trkpt>
<trkpt lat="22.008801" lon="104.726219">
<ele>73.981506</ele>
<time>2011-04-28T07:22:54Z</time>
<desc>lat.=22.008801, lon.=104.726219, Alt.=73.981506m. Speed=23.544001m/h.</desc>
<speed>6.540000</speed>
</trkpt>
<trkpt lat="22.008711" lon="104.726509">
<ele>73.210022</ele>
<time>2011-04-28T07:22:59Z</time>
<desc>lat.=22.008711, lon.=104.726509, Alt.=73.210022m. Speed=19.764000m/h.</desc>
<speed>5.490000</speed>
</trkpt>
<trkpt lat="22.008623" lon="104.726723">
<ele>73.700256</ele>
<time>2011-04-28T07:23:04Z</time>
<desc>lat.=22.008623, lon.=104.726723, Alt.=73.700256m. Speed=20.628000m/h.</desc>
<speed>5.730000</speed>
</trkpt>
<trkpt lat="22.008484" lon="104.727020">
<ele>73.245178</ele>
<time>2011-04-28T07:23:09Z</time>
<desc>lat.=22.008484, lon.=104.727020, Alt.=73.245178m. Speed=27.900000m/h.</desc>
<speed>7.750000</speed>
</trkpt>
<trkpt lat="22.008301" lon="104.727394">
<ele>71.903381</ele>
<time>2011-04-28T07:23:14Z</time>
<desc>lat.=22.008301, lon.=104.727394, Alt.=71.903381m. Speed=29.628000m/h.</desc>
<speed>8.230000</speed>
</trkpt>
<trkpt lat="22.008129" lon="104.727737">
<ele>71.338928</ele>
<time>2011-04-28T07:23:19Z</time>
<desc>lat.=22.008129, lon.=104.727737, Alt.=71.338928m. Speed=21.743999m/h.</desc>
<speed>6.040000</speed>
</trkpt>
<trkpt lat="22.007994" lon="104.728004">
<ele>71.247131</ele>
<time>2011-04-28T07:23:24Z</time>
<desc>lat.=22.007994, lon.=104.728004, Alt.=71.247131m. Speed=17.459999m/h.</desc>
<speed>4.850000</speed>
</trkpt>
<trkpt lat="22.007868" lon="104.728249">
<ele>71.993225</ele>
<time>2011-04-28T07:23:29Z</time>
<desc>lat.=22.007868, lon.=104.728249, Alt.=71.993225m. Speed=19.836000m/h.</desc>
<speed>5.510000</speed>
</trkpt>
<trkpt lat="22.007755" lon="104.728493">
<ele>72.510803</ele>
<time>2011-04-28T07:23:34Z</time>
<desc>lat.=22.007755, lon.=104.728493, Alt.=72.510803m. Speed=18.684000m/h.</desc>
<speed>5.190000</speed>
</trkpt>
<trkpt lat="22.007650" lon="104.728729">
<ele>73.627991</ele>
<time>2011-04-28T07:23:39Z</time>
<desc>lat.=22.007650, lon.=104.728729, Alt.=73.627991m. Speed=16.344000m/h.</desc>
<speed>4.540000</speed>
</trkpt>
<trkpt lat="22.007540" lon="104.728897">
<ele>73.928772</ele>
<time>2011-04-28T07:23:44Z</time>
<desc>lat.=22.007540, lon.=104.728897, Alt.=73.928772m. Speed=12.456000m/h.</desc>
<speed>3.460000</speed>
</trkpt>
<trkpt lat="22.007406" lon="104.729057">
<ele>74.928772</ele>
<time>2011-04-28T07:23:49Z</time>
<desc>lat.=22.007406, lon.=104.729057, Alt.=74.928772m. Speed=16.884001m/h.</desc>
<speed>4.690000</speed>
</trkpt>
<trkpt lat="22.007168" lon="104.729141">
<ele>76.471741</ele>
<time>2011-04-28T07:23:54Z</time>
<desc>lat.=22.007168, lon.=104.729141, Alt.=76.471741m. Speed=20.916000m/h.</desc>
<speed>5.810000</speed>
</trkpt>
<trkpt lat="22.006907" lon="104.729141">
<ele>78.434631</ele>
<time>2011-04-28T07:23:59Z</time>
<desc>lat.=22.006907, lon.=104.729141, Alt.=78.434631m. Speed=19.836000m/h.</desc>
<speed>5.510000</speed>
</trkpt>
<trkpt lat="22.006708" lon="104.729156">
<ele>80.542053</ele>
<time>2011-04-28T07:24:04Z</time>
<desc>lat.=22.006708, lon.=104.729156, Alt.=80.542053m. Speed=13.716000m/h.</desc>
<speed>3.810000</speed>
</trkpt>
<trkpt lat="22.006536" lon="104.729225">
<ele>80.852600</ele>
<time>2011-04-28T07:24:09Z</time>
<desc>lat.=22.006536, lon.=104.729225, Alt.=80.852600m. Speed=15.084000m/h.</desc>
<speed>4.190000</speed>
</trkpt>
<trkpt lat="22.006371" lon="104.729317">
<ele>80.612366</ele>
<time>2011-04-28T07:24:14Z</time>
<desc>lat.=22.006371, lon.=104.729317, Alt.=80.612366m. Speed=15.876000m/h.</desc>
<speed>4.410000</speed>
</trkpt>
<trkpt lat="22.006165" lon="104.729469">
<ele>81.006897</ele>
<time>2011-04-28T07:24:19Z</time>
<desc>lat.=22.006165, lon.=104.729469, Alt.=81.006897m. Speed=16.416000m/h.</desc>
<speed>4.560000</speed>
</trkpt>
<trkpt lat="22.005991" lon="104.729584">
<ele>81.919006</ele>
<time>2011-04-28T07:24:24Z</time>
<desc>lat.=22.005991, lon.=104.729584, Alt.=81.919006m. Speed=14.004000m/h.</desc>
<speed>3.890000</speed>
</trkpt>
<trkpt lat="22.005812" lon="104.729675">
<ele>81.606506</ele>
<time>2011-04-28T07:24:29Z</time>
<desc>lat.=22.005812, lon.=104.729675, Alt.=81.606506m. Speed=12.960000m/h.</desc>
<speed>3.600000</speed>
</trkpt>
<trkpt lat="22.005608" lon="104.729744">
<ele>81.897522</ele>
<time>2011-04-28T07:24:34Z</time>
<desc>lat.=22.005608, lon.=104.729744, Alt.=81.897522m. Speed=15.444000m/h.</desc>
<speed>4.290000</speed>
</trkpt>
<trkpt lat="22.005415" lon="104.729752">
<ele>84.012756</ele>
<time>2011-04-28T07:24:39Z</time>
<desc>lat.=22.005415, lon.=104.729752, Alt.=84.012756m. Speed=15.480000m/h.</desc>
<speed>4.300000</speed>
</trkpt>
<trkpt lat="22.005230" lon="104.729759">
<ele>85.872131</ele>
<time>2011-04-28T07:24:44Z</time>
<desc>lat.=22.005230, lon.=104.729759, Alt.=85.872131m. Speed=13.860000m/h.</desc>
<speed>3.850000</speed>
</trkpt>
<trkpt lat="22.005035" lon="104.729736">
<ele>88.428772</ele>
<time>2011-04-28T07:24:49Z</time>
<desc>lat.=22.005035, lon.=104.729736, Alt.=88.428772m. Speed=15.444000m/h.</desc>
<speed>4.290000</speed>
</trkpt>
<trkpt lat="22.004847" lon="104.729698">
<ele>89.919006</ele>
<time>2011-04-28T07:24:54Z</time>
<desc>lat.=22.004847, lon.=104.729698, Alt.=89.919006m. Speed=13.356000m/h.</desc>
<speed>3.710000</speed>
</trkpt>
<trkpt lat="22.004639" lon="104.729660">
<ele>91.127991</ele>
<time>2011-04-28T07:24:59Z</time>
<desc>lat.=22.004639, lon.=104.729660, Alt.=91.127991m. Speed=15.732000m/h.</desc>
<speed>4.370000</speed>
</trkpt>
<trkpt lat="22.004431" lon="104.729645">
<ele>90.788147</ele>
<time>2011-04-28T07:25:04Z</time>
<desc>lat.=22.004431, lon.=104.729645, Alt.=90.788147m. Speed=17.532000m/h.</desc>
<speed>4.870000</speed>
</trkpt>
<trkpt lat="22.004253" lon="104.729721">
<ele>85.710022</ele>
<time>2011-04-28T07:25:09Z</time>
<desc>lat.=22.004253, lon.=104.729721, Alt.=85.710022m. Speed=12.456000m/h.</desc>
<speed>3.460000</speed>
</trkpt>
<trkpt lat="22.004103" lon="104.729828">
<ele>81.811584</ele>
<time>2011-04-28T07:25:14Z</time>
<desc>lat.=22.004103, lon.=104.729828, Alt.=81.811584m. Speed=13.176000m/h.</desc>
<speed>3.660000</speed>
</trkpt>
<trkpt lat="22.003963" lon="104.729973">
<ele>77.254944</ele>
<time>2011-04-28T07:25:19Z</time>
<desc>lat.=22.003963, lon.=104.729973, Alt.=77.254944m. Speed=12.564000m/h.</desc>
<speed>3.490000</speed>
</trkpt>
<trkpt lat="22.003847" lon="104.730133">
<ele>76.774475</ele>
<time>2011-04-28T07:25:24Z</time>
<desc>lat.=22.003847, lon.=104.730133, Alt.=76.774475m. Speed=14.508000m/h.</desc>
<speed>4.030000</speed>
</trkpt>
<trkpt lat="22.003752" lon="104.730339">
<ele>74.792053</ele>
<time>2011-04-28T07:25:29Z</time>
<desc>lat.=22.003752, lon.=104.730339, Alt.=74.792053m. Speed=14.436000m/h.</desc>
<speed>4.010000</speed>
</trkpt>
<trkpt lat="22.003651" lon="104.730560">
<ele>75.542053</ele>
<time>2011-04-28T07:25:34Z</time>
<desc>lat.=22.003651, lon.=104.730560, Alt.=75.542053m. Speed=16.379999m/h.</desc>
<speed>4.550000</speed>
</trkpt>
<trkpt lat="22.003496" lon="104.730736">
<ele>78.747131</ele>
<time>2011-04-28T07:25:39Z</time>
<desc>lat.=22.003496, lon.=104.730736, Alt.=78.747131m. Speed=15.120000m/h.</desc>
<speed>4.200000</speed>
</trkpt>
<trkpt lat="22.003273" lon="104.730766">
<ele>80.491272</ele>
<time>2011-04-28T07:25:44Z</time>
<desc>lat.=22.003273, lon.=104.730766, Alt.=80.491272m. Speed=16.271999m/h.</desc>
<speed>4.520000</speed>
</trkpt>
<trkpt lat="22.003084" lon="104.730782">
<ele>81.879944</ele>
<time>2011-04-28T07:25:49Z</time>
<desc>lat.=22.003084, lon.=104.730782, Alt.=81.879944m. Speed=14.976000m/h.</desc>
<speed>4.160000</speed>
</trkpt>
<trkpt lat="22.002871" lon="104.730743">
<ele>82.528381</ele>
<time>2011-04-28T07:25:54Z</time>
<desc>lat.=22.002871, lon.=104.730743, Alt.=82.528381m. Speed=17.388000m/h.</desc>
<speed>4.830000</speed>
</trkpt>
<trkpt lat="22.002655" lon="104.730721">
<ele>83.606506</ele>
<time>2011-04-28T07:25:59Z</time>
<desc>lat.=22.002655, lon.=104.730721, Alt.=83.606506m. Speed=17.459999m/h.</desc>
<speed>4.850000</speed>
</trkpt>
<trkpt lat="22.002438" lon="104.730721">
<ele>83.294006</ele>
<time>2011-04-28T07:26:04Z</time>
<desc>lat.=22.002438, lon.=104.730721, Alt.=83.294006m. Speed=15.840000m/h.</desc>
<speed>4.400000</speed>
</trkpt>
<trkpt lat="22.002220" lon="104.730812">
<ele>80.290100</ele>
<time>2011-04-28T07:26:09Z</time>
<desc>lat.=22.002220, lon.=104.730812, Alt.=80.290100m. Speed=19.728001m/h.</desc>
<speed>5.480000</speed>
</trkpt>
<trkpt lat="22.001976" lon="104.730957">
<ele>78.493225</ele>
<time>2011-04-28T07:26:14Z</time>
<desc>lat.=22.001976, lon.=104.730957, Alt.=78.493225m. Speed=20.879999m/h.</desc>
<speed>5.800000</speed>
</trkpt>
<trkpt lat="22.001747" lon="104.731064">
<ele>77.545959</ele>
<time>2011-04-28T07:26:19Z</time>
<desc>lat.=22.001747, lon.=104.731064, Alt.=77.545959m. Speed=15.660000m/h.</desc>
<speed>4.350000</speed>
</trkpt>
<trkpt lat="22.001568" lon="104.731102">
<ele>77.249084</ele>
<time>2011-04-28T07:26:24Z</time>
<desc>lat.=22.001568, lon.=104.731102, Alt.=77.249084m. Speed=11.916000m/h.</desc>
<speed>3.310000</speed>
</trkpt>
<trkpt lat="22.001410" lon="104.731155">
<ele>76.383850</ele>
<time>2011-04-28T07:26:29Z</time>
<desc>lat.=22.001410, lon.=104.731155, Alt.=76.383850m. Speed=10.980000m/h.</desc>
<speed>3.050000</speed>
</trkpt>
<trkpt lat="22.001278" lon="104.731194">
<ele>76.092834</ele>
<time>2011-04-28T07:26:34Z</time>
<desc>lat.=22.001278, lon.=104.731194, Alt.=76.092834m. Speed=7.812000m/h.</desc>
<speed>2.170000</speed>
</trkpt>
<trkpt lat="22.001133" lon="104.731239">
<ele>77.286194</ele>
<time>2011-04-28T07:26:39Z</time>
<desc>lat.=22.001133, lon.=104.731239, Alt.=77.286194m. Speed=11.736000m/h.</desc>
<speed>3.260000</speed>
</trkpt>
<trkpt lat="22.000986" lon="104.731293">
<ele>78.672913</ele>
<time>2011-04-28T07:26:44Z</time>
<desc>lat.=22.000986, lon.=104.731293, Alt.=78.672913m. Speed=11.844000m/h.</desc>
<speed>3.290000</speed>
</trkpt>
<trkpt lat="22.000845" lon="104.731369">
<ele>79.424866</ele>
<time>2011-04-28T07:26:49Z</time>
<desc>lat.=22.000845, lon.=104.731369, Alt.=79.424866m. Speed=9.576000m/h.</desc>
<speed>2.660000</speed>
</trkpt>
<trkpt lat="22.000729" lon="104.731400">
<ele>78.202209</ele>
<time>2011-04-28T07:26:54Z</time>
<desc>lat.=22.000729, lon.=104.731400, Alt.=78.202209m. Speed=7.488000m/h.</desc>
<speed>2.080000</speed>
</trkpt>
<trkpt lat="22.000591" lon="104.731407">
<ele>76.991272</ele>
<time>2011-04-28T07:26:59Z</time>
<desc>lat.=22.000591, lon.=104.731407, Alt.=76.991272m. Speed=10.188000m/h.</desc>
<speed>2.830000</speed>
</trkpt>
<trkpt lat="22.000454" lon="104.731430">
<ele>76.846741</ele>
<time>2011-04-28T07:27:04Z</time>
<desc>lat.=22.000454, lon.=104.731430, Alt.=76.846741m. Speed=10.512000m/h.</desc>
<speed>2.920000</speed>
</trkpt>
<trkpt lat="22.000280" lon="104.731468">
<ele>76.467834</ele>
<time>2011-04-28T07:27:09Z</time>
<desc>lat.=22.000280, lon.=104.731468, Alt.=76.467834m. Speed=11.484000m/h.</desc>
<speed>3.190000</speed>
</trkpt>
<trkpt lat="22.000093" lon="104.731560">
<ele>76.094788</ele>
<time>2011-04-28T07:27:14Z</time>
<desc>lat.=22.000093, lon.=104.731560, Alt.=76.094788m. Speed=15.948000m/h.</desc>
<speed>4.430000</speed>
</trkpt>
<trkpt lat="21.999947" lon="104.731758">
<ele>76.327209</ele>
<time>2011-04-28T07:27:19Z</time>
<desc>lat.=21.999947, lon.=104.731758, Alt.=76.327209m. Speed=13.104000m/h.</desc>
<speed>3.640000</speed>
</trkpt>
<trkpt lat="21.999889" lon="104.731903">
<ele>74.348694</ele>
<time>2011-04-28T07:27:24Z</time>
<desc>lat.=21.999889, lon.=104.731903, Alt.=74.348694m. Speed=8.316000m/h.</desc>
<speed>2.310000</speed>
</trkpt>
<trkpt lat="21.999861" lon="104.732033">
<ele>74.419006</ele>
<time>2011-04-28T07:27:29Z</time>
<desc>lat.=21.999861, lon.=104.732033, Alt.=74.419006m. Speed=11.448000m/h.</desc>
<speed>3.180000</speed>
</trkpt>
<trkpt lat="21.999866" lon="104.732216">
<ele>73.819397</ele>
<time>2011-04-28T07:27:34Z</time>
<desc>lat.=21.999866, lon.=104.732216, Alt.=73.819397m. Speed=14.508000m/h.</desc>
<speed>4.030000</speed>
</trkpt>
<trkpt lat="21.999825" lon="104.732445">
<ele>74.047913</ele>
<time>2011-04-28T07:27:39Z</time>
<desc>lat.=21.999825, lon.=104.732445, Alt.=74.047913m. Speed=16.452000m/h.</desc>
<speed>4.570000</speed>
</trkpt>
<trkpt lat="21.999678" lon="104.732635">
<ele>73.852600</ele>
<time>2011-04-28T07:27:44Z</time>
<desc>lat.=21.999678, lon.=104.732635, Alt.=73.852600m. Speed=19.872000m/h.</desc>
<speed>5.520000</speed>
</trkpt>
<trkpt lat="21.999407" lon="104.732803">
<ele>74.114319</ele>
<time>2011-04-28T07:27:49Z</time>
<desc>lat.=21.999407, lon.=104.732803, Alt.=74.114319m. Speed=18.972000m/h.</desc>
<speed>5.270000</speed>
</trkpt>
<trkpt lat="21.999197" lon="104.732887">
<ele>74.069397</ele>
<time>2011-04-28T07:27:54Z</time>
<desc>lat.=21.999197, lon.=104.732887, Alt.=74.069397m. Speed=15.696000m/h.</desc>
<speed>4.360000</speed>
</trkpt>
<trkpt lat="21.999033" lon="104.733017">
<ele>74.110413</ele>
<time>2011-04-28T07:27:59Z</time>
<desc>lat.=21.999033, lon.=104.733017, Alt.=74.110413m. Speed=10.224000m/h.</desc>
<speed>2.840000</speed>
</trkpt>
<trkpt lat="21.998905" lon="104.733131">
<ele>74.788147</ele>
<time>2011-04-28T07:28:04Z</time>
<desc>lat.=21.998905, lon.=104.733131, Alt.=74.788147m. Speed=10.188000m/h.</desc>
<speed>2.830000</speed>
</trkpt>
<trkpt lat="21.998760" lon="104.733269">
<ele>74.360413</ele>
<time>2011-04-28T07:28:09Z</time>
<desc>lat.=21.998760, lon.=104.733269, Alt.=74.360413m. Speed=6.084000m/h.</desc>
<speed>1.690000</speed>
</trkpt>
<trkpt lat="21.998598" lon="104.733414">
<ele>71.495178</ele>
<time>2011-04-28T07:28:14Z</time>
<desc>lat.=21.998598, lon.=104.733414, Alt.=71.495178m. Speed=14.760000m/h.</desc>
<speed>4.100000</speed>
</trkpt>
<trkpt lat="21.998430" lon="104.733574">
<ele>73.231506</ele>
<time>2011-04-28T07:28:19Z</time>
<desc>lat.=21.998430, lon.=104.733574, Alt.=73.231506m. Speed=12.564000m/h.</desc>
<speed>3.490000</speed>
</trkpt>
<trkpt lat="21.998270" lon="104.733704">
<ele>74.651428</ele>
<time>2011-04-28T07:28:24Z</time>
<desc>lat.=21.998270, lon.=104.733704, Alt.=74.651428m. Speed=14.760000m/h.</desc>
<speed>4.100000</speed>
</trkpt>
<trkpt lat="21.998085" lon="104.733826">
<ele>75.032288</ele>
<time>2011-04-28T07:28:29Z</time>
<desc>lat.=21.998085, lon.=104.733826, Alt.=75.032288m. Speed=13.356000m/h.</desc>
<speed>3.710000</speed>
</trkpt>
<trkpt lat="21.997925" lon="104.733940">
<ele>74.506897</ele>
<time>2011-04-28T07:28:34Z</time>
<desc>lat.=21.997925, lon.=104.733940, Alt.=74.506897m. Speed=15.192000m/h.</desc>
<speed>4.220000</speed>
</trkpt>
<trkpt lat="21.997778" lon="104.734032">
<ele>74.407288</ele>
<time>2011-04-28T07:28:39Z</time>
<desc>lat.=21.997778, lon.=104.734032, Alt.=74.407288m. Speed=13.212000m/h.</desc>
<speed>3.670000</speed>
</trkpt>
<trkpt lat="21.997633" lon="104.734123">
<ele>73.973694</ele>
<time>2011-04-28T07:28:44Z</time>
<desc>lat.=21.997633, lon.=104.734123, Alt.=73.973694m. Speed=12.024000m/h.</desc>
<speed>3.340000</speed>
</trkpt>
<trkpt lat="21.997526" lon="104.734192">
<ele>75.420959</ele>
<time>2011-04-28T07:28:49Z</time>
<desc>lat.=21.997526, lon.=104.734192, Alt.=75.420959m. Speed=8.676000m/h.</desc>
<speed>2.410000</speed>
</trkpt>
<trkpt lat="21.997417" lon="104.734261">
<ele>75.372131</ele>
<time>2011-04-28T07:28:54Z</time>
<desc>lat.=21.997417, lon.=104.734261, Alt.=75.372131m. Speed=9.540000m/h.</desc>
<speed>2.650000</speed>
</trkpt>
<trkpt lat="21.997295" lon="104.734344">
<ele>75.149475</ele>
<time>2011-04-28T07:28:59Z</time>
<desc>lat.=21.997295, lon.=104.734344, Alt.=75.149475m. Speed=10.872000m/h.</desc>
<speed>3.020000</speed>
</trkpt>
<trkpt lat="21.997154" lon="104.734444">
<ele>75.803772</ele>
<time>2011-04-28T07:29:04Z</time>
<desc>lat.=21.997154, lon.=104.734444, Alt.=75.803772m. Speed=11.772000m/h.</desc>
<speed>3.270000</speed>
</trkpt>
<trkpt lat="21.997023" lon="104.734566">
<ele>76.483459</ele>
<time>2011-04-28T07:29:09Z</time>
<desc>lat.=21.997023, lon.=104.734566, Alt.=76.483459m. Speed=11.304000m/h.</desc>
<speed>3.140000</speed>
</trkpt>
<trkpt lat="21.996881" lon="104.734680">
<ele>76.700256</ele>
<time>2011-04-28T07:29:14Z</time>
<desc>lat.=21.996881, lon.=104.734680, Alt.=76.700256m. Speed=11.916000m/h.</desc>
<speed>3.310000</speed>
</trkpt>
<trkpt lat="21.996737" lon="104.734802">
<ele>76.608459</ele>
<time>2011-04-28T07:29:19Z</time>
<desc>lat.=21.996737, lon.=104.734802, Alt.=76.608459m. Speed=12.132000m/h.</desc>
<speed>3.370000</speed>
</trkpt>
<trkpt lat="21.996611" lon="104.734901">
<ele>75.731506</ele>
<time>2011-04-28T07:29:24Z</time>
<desc>lat.=21.996611, lon.=104.734901, Alt.=75.731506m. Speed=11.268000m/h.</desc>
<speed>3.130000</speed>
</trkpt>
<trkpt lat="21.996511" lon="104.734978">
<ele>74.792053</ele>
<time>2011-04-28T07:29:29Z</time>
<desc>lat.=21.996511, lon.=104.734978, Alt.=74.792053m. Speed=6.804000m/h.</desc>
<speed>1.890000</speed>
</trkpt>
<trkpt lat="21.996412" lon="104.735085">
<ele>75.319397</ele>
<time>2011-04-28T07:29:34Z</time>
<desc>lat.=21.996412, lon.=104.735085, Alt.=75.319397m. Speed=5.436000m/h.</desc>
<speed>1.510000</speed>
</trkpt>
<trkpt lat="21.996342" lon="104.735176">
<ele>76.504944</ele>
<time>2011-04-28T07:29:39Z</time>
<desc>lat.=21.996342, lon.=104.735176, Alt.=76.504944m. Speed=18.827999m/h.</desc>
<speed>5.230000</speed>
</trkpt>
<trkpt lat="21.996267" lon="104.735260">
<ele>79.885803</ele>
<time>2011-04-28T07:29:44Z</time>
<desc>lat.=21.996267, lon.=104.735260, Alt.=79.885803m. Speed=3.132000m/h.</desc>
<speed>0.870000</speed>
</trkpt>
<trkpt lat="21.996143" lon="104.735359">
<ele>82.821350</ele>
<time>2011-04-28T07:29:49Z</time>
<desc>lat.=21.996143, lon.=104.735359, Alt.=82.821350m. Speed=14.256000m/h.</desc>
<speed>3.960000</speed>
</trkpt>
<trkpt lat="21.996014" lon="104.735458">
<ele>85.307678</ele>
<time>2011-04-28T07:29:54Z</time>
<desc>lat.=21.996014, lon.=104.735458, Alt.=85.307678m. Speed=10.044000m/h.</desc>
<speed>2.790000</speed>
</trkpt>
<trkpt lat="21.995886" lon="104.735550">
<ele>87.672913</ele>
<time>2011-04-28T07:29:59Z</time>
<desc>lat.=21.995886, lon.=104.735550, Alt.=87.672913m. Speed=11.448000m/h.</desc>
<speed>3.180000</speed>
</trkpt>
<trkpt lat="21.995789" lon="104.735619">
<ele>88.977600</ele>
<time>2011-04-28T07:30:04Z</time>
<desc>lat.=21.995789, lon.=104.735619, Alt.=88.977600m. Speed=6.660000m/h.</desc>
<speed>1.850000</speed>
</trkpt>
<trkpt lat="21.995687" lon="104.735641">
<ele>90.305725</ele>
<time>2011-04-28T07:30:09Z</time>
<desc>lat.=21.995687, lon.=104.735641, Alt.=90.305725m. Speed=6.948000m/h.</desc>
<speed>1.930000</speed>
</trkpt>
<trkpt lat="21.995602" lon="104.735657">
<ele>92.129944</ele>
<time>2011-04-28T07:30:14Z</time>
<desc>lat.=21.995602, lon.=104.735657, Alt.=92.129944m. Speed=5.832000m/h.</desc>
<speed>1.620000</speed>
</trkpt>
<trkpt lat="21.995516" lon="104.735680">
<ele>93.329163</ele>
<time>2011-04-28T07:30:19Z</time>
<desc>lat.=21.995516, lon.=104.735680, Alt.=93.329163m. Speed=1.980000m/h.</desc>
<speed>0.550000</speed>
</trkpt>
<trkpt lat="21.995508" lon="104.735680">
<ele>93.915100</ele>
<time>2011-04-28T07:30:24Z</time>
<desc>lat.=21.995508, lon.=104.735680, Alt.=93.915100m. Speed=1.728000m/h.</desc>
<speed>0.480000</speed>
</trkpt>
<trkpt lat="21.995508" lon="104.735687">
<ele>94.508850</ele>
<time>2011-04-28T07:30:29Z</time>
<desc>lat.=21.995508, lon.=104.735687, Alt.=94.508850m. Speed=0.396000m/h.</desc>
<speed>0.110000</speed>
</trkpt>
<trkpt lat="21.995493" lon="104.735687">
<ele>94.760803</ele>
<time>2011-04-28T07:30:34Z</time>
<desc>lat.=21.995493, lon.=104.735687, Alt.=94.760803m. Speed=2.088000m/h.</desc>
<speed>0.580000</speed>
</trkpt>
<trkpt lat="21.995443" lon="104.735687">
<ele>95.116272</ele>
<time>2011-04-28T07:30:39Z</time>
<desc>lat.=21.995443, lon.=104.735687, Alt.=95.116272m. Speed=7.452000m/h.</desc>
<speed>2.070000</speed>
</trkpt>
<trkpt lat="21.995310" lon="104.735748">
<ele>95.696350</ele>
<time>2011-04-28T07:30:44Z</time>
<desc>lat.=21.995310, lon.=104.735748, Alt.=95.696350m. Speed=7.596000m/h.</desc>
<speed>2.110000</speed>
</trkpt>
<trkpt lat="21.995232" lon="104.735802">
<ele>95.346741</ele>
<time>2011-04-28T07:30:49Z</time>
<desc>lat.=21.995232, lon.=104.735802, Alt.=95.346741m. Speed=6.984000m/h.</desc>
<speed>1.940000</speed>
</trkpt>
<trkpt lat="21.995169" lon="104.735847">
<ele>93.651428</ele>
<time>2011-04-28T07:30:54Z</time>
<desc>lat.=21.995169, lon.=104.735847, Alt.=93.651428m. Speed=6.516000m/h.</desc>
<speed>1.810000</speed>
</trkpt>
<trkpt lat="21.995089" lon="104.735870">
<ele>93.165100</ele>
<time>2011-04-28T07:30:59Z</time>
<desc>lat.=21.995089, lon.=104.735870, Alt.=93.165100m. Speed=6.372000m/h.</desc>
<speed>1.770000</speed>
</trkpt>
<trkpt lat="21.995008" lon="104.735901">
<ele>93.217834</ele>
<time>2011-04-28T07:31:04Z</time>
<desc>lat.=21.995008, lon.=104.735901, Alt.=93.217834m. Speed=6.372000m/h.</desc>
<speed>1.770000</speed>
</trkpt>
<trkpt lat="21.994938" lon="104.735931">
<ele>93.106506</ele>
<time>2011-04-28T07:31:09Z</time>
<desc>lat.=21.994938, lon.=104.735931, Alt.=93.106506m. Speed=5.832000m/h.</desc>
<speed>1.620000</speed>
</trkpt>
<trkpt lat="21.994879" lon="104.735962">
<ele>92.411194</ele>
<time>2011-04-28T07:31:14Z</time>
<desc>lat.=21.994879, lon.=104.735962, Alt.=92.411194m. Speed=2.952000m/h.</desc>
<speed>0.820000</speed>
</trkpt>
<trkpt lat="21.994804" lon="104.735985">
<ele>91.540100</ele>
<time>2011-04-28T07:31:19Z</time>
<desc>lat.=21.994804, lon.=104.735985, Alt.=91.540100m. Speed=3.276000m/h.</desc>
<speed>0.910000</speed>
</trkpt>
<trkpt lat="21.994761" lon="104.736000">
<ele>91.477600</ele>
<time>2011-04-28T07:31:24Z</time>
<desc>lat.=21.994761, lon.=104.736000, Alt.=91.477600m. Speed=3.924000m/h.</desc>
<speed>1.090000</speed>
</trkpt>
<trkpt lat="21.994715" lon="104.736023">
<ele>92.356506</ele>
<time>2011-04-28T07:31:29Z</time>
<desc>lat.=21.994715, lon.=104.736023, Alt.=92.356506m. Speed=3.636000m/h.</desc>
<speed>1.010000</speed>
</trkpt>
<trkpt lat="21.994659" lon="104.736023">
<ele>93.020569</ele>
<time>2011-04-28T07:31:34Z</time>
<desc>lat.=21.994659, lon.=104.736023, Alt.=93.020569m. Speed=3.816000m/h.</desc>
<speed>1.060000</speed>
</trkpt>
<trkpt lat="21.994589" lon="104.736038">
<ele>92.479553</ele>
<time>2011-04-28T07:31:39Z</time>
<desc>lat.=21.994589, lon.=104.736038, Alt.=92.479553m. Speed=4.140000m/h.</desc>
<speed>1.150000</speed>
</trkpt>
<trkpt lat="21.994549" lon="104.736076">
<ele>93.354553</ele>
<time>2011-04-28T07:31:44Z</time>
<desc>lat.=21.994549, lon.=104.736076, Alt.=93.354553m. Speed=3.420000m/h.</desc>
<speed>0.950000</speed>
</trkpt>
<trkpt lat="21.994497" lon="104.736122">
<ele>93.784241</ele>
<time>2011-04-28T07:31:49Z</time>
<desc>lat.=21.994497, lon.=104.736122, Alt.=93.784241m. Speed=5.112000m/h.</desc>
<speed>1.420000</speed>
</trkpt>
<trkpt lat="21.994442" lon="104.736153">
<ele>93.766663</ele>
<time>2011-04-28T07:31:54Z</time>
<desc>lat.=21.994442, lon.=104.736153, Alt.=93.766663m. Speed=4.284000m/h.</desc>
<speed>1.190000</speed>
</trkpt>
<trkpt lat="21.994410" lon="104.736160">
<ele>93.342834</ele>
<time>2011-04-28T07:31:59Z</time>
<desc>lat.=21.994410, lon.=104.736160, Alt.=93.342834m. Speed=2.376000m/h.</desc>
<speed>0.660000</speed>
</trkpt>
<trkpt lat="21.994368" lon="104.736176">
<ele>94.075256</ele>
<time>2011-04-28T07:32:04Z</time>
<desc>lat.=21.994368, lon.=104.736176, Alt.=94.075256m. Speed=3.708000m/h.</desc>
<speed>1.030000</speed>
</trkpt>
<trkpt lat="21.994328" lon="104.736191">
<ele>95.213928</ele>
<time>2011-04-28T07:32:09Z</time>
<desc>lat.=21.994328, lon.=104.736191, Alt.=95.213928m. Speed=3.564000m/h.</desc>
<speed>0.990000</speed>
</trkpt>
<trkpt lat="21.994263" lon="104.736221">
<ele>96.395569</ele>
<time>2011-04-28T07:32:14Z</time>
<desc>lat.=21.994263, lon.=104.736221, Alt.=96.395569m. Speed=3.276000m/h.</desc>
<speed>0.910000</speed>
</trkpt>
<trkpt lat="21.994211" lon="104.736282">
<ele>97.669006</ele>
<time>2011-04-28T07:32:19Z</time>
<desc>lat.=21.994211, lon.=104.736282, Alt.=97.669006m. Speed=6.768000m/h.</desc>
<speed>1.880000</speed>
</trkpt>
<trkpt lat="21.994154" lon="104.736336">
<ele>98.817444</ele>
<time>2011-04-28T07:32:24Z</time>
<desc>lat.=21.994154, lon.=104.736336, Alt.=98.817444m. Speed=5.400000m/h.</desc>
<speed>1.500000</speed>
</trkpt>
<trkpt lat="21.994064" lon="104.736420">
<ele>100.452209</ele>
<time>2011-04-28T07:32:29Z</time>
<desc>lat.=21.994064, lon.=104.736420, Alt.=100.452209m. Speed=5.400000m/h.</desc>
<speed>1.500000</speed>
</trkpt>
<trkpt lat="21.993999" lon="104.736473">
<ele>100.336975</ele>
<time>2011-04-28T07:32:34Z</time>
<desc>lat.=21.993999, lon.=104.736473, Alt.=100.336975m. Speed=6.732000m/h.</desc>
<speed>1.870000</speed>
</trkpt>
<trkpt lat="21.993942" lon="104.736519">
<ele>101.963928</ele>
<time>2011-04-28T07:32:39Z</time>
<desc>lat.=21.993942, lon.=104.736519, Alt.=101.963928m. Speed=5.400000m/h.</desc>
<speed>1.500000</speed>
</trkpt>
<trkpt lat="21.993889" lon="104.736580">
<ele>103.335022</ele>
<time>2011-04-28T07:32:44Z</time>
<desc>lat.=21.993889, lon.=104.736580, Alt.=103.335022m. Speed=7.452000m/h.</desc>
<speed>2.070000</speed>
</trkpt>
<trkpt lat="21.993849" lon="104.736671">
<ele>104.210022</ele>
<time>2011-04-28T07:32:49Z</time>
<desc>lat.=21.993849, lon.=104.736671, Alt.=104.210022m. Speed=6.192000m/h.</desc>
<speed>1.720000</speed>
</trkpt>
<trkpt lat="21.993813" lon="104.736816">
<ele>104.213928</ele>
<time>2011-04-28T07:32:54Z</time>
<desc>lat.=21.993813, lon.=104.736816, Alt.=104.213928m. Speed=6.480000m/h.</desc>
<speed>1.800000</speed>
</trkpt>
<trkpt lat="21.993830" lon="104.736870">
<ele>105.303772</ele>
<time>2011-04-28T07:32:59Z</time>
<desc>lat.=21.993830, lon.=104.736870, Alt.=105.303772m. Speed=4.284000m/h.</desc>
<speed>1.190000</speed>
</trkpt>
<trkpt lat="21.993864" lon="104.736954">
<ele>106.940491</ele>
<time>2011-04-28T07:33:04Z</time>
<desc>lat.=21.993864, lon.=104.736954, Alt.=106.940491m. Speed=5.796000m/h.</desc>
<speed>1.610000</speed>
</trkpt>
<trkpt lat="21.993879" lon="104.737053">
<ele>105.790100</ele>
<time>2011-04-28T07:33:09Z</time>
<desc>lat.=21.993879, lon.=104.737053, Alt.=105.790100m. Speed=2.592000m/h.</desc>
<speed>0.720000</speed>
</trkpt>
<trkpt lat="21.993870" lon="104.737068">
<ele>105.129944</ele>
<time>2011-04-28T07:33:14Z</time>
<desc>lat.=21.993870, lon.=104.737068, Alt.=105.129944m. Speed=0.468000m/h.</desc>
<speed>0.130000</speed>
</trkpt>
<trkpt lat="21.993872" lon="104.737068">
<ele>105.147522</ele>
<time>2011-04-28T07:33:19Z</time>
<desc>lat.=21.993872, lon.=104.737068, Alt.=105.147522m. Speed=1.152000m/h.</desc>
<speed>0.320000</speed>
</trkpt>
<trkpt lat="21.993876" lon="104.737053">
<ele>105.284241</ele>
<time>2011-04-28T07:33:24Z</time>
<desc>lat.=21.993876, lon.=104.737053, Alt.=105.284241m. Speed=0.144000m/h.</desc>
<speed>0.040000</speed>
</trkpt>
<trkpt lat="21.993877" lon="104.737053">
<ele>105.321350</ele>
<time>2011-04-28T07:33:29Z</time>
<desc>lat.=21.993877, lon.=104.737053, Alt.=105.321350m. Speed=0.432000m/h.</desc>
<speed>0.120000</speed>
</trkpt>
<trkpt lat="21.993877" lon="104.737061">
<ele>105.323303</ele>
<time>2011-04-28T07:33:34Z</time>
<desc>lat.=21.993877, lon.=104.737061, Alt.=105.323303m. Speed=0.792000m/h.</desc>
<speed>0.220000</speed>
</trkpt>
<trkpt lat="21.993874" lon="104.737068">
<ele>105.301819</ele>
<time>2011-04-28T07:33:39Z</time>
<desc>lat.=21.993874, lon.=104.737068, Alt.=105.301819m. Speed=0.072000m/h.</desc>
<speed>0.020000</speed>
</trkpt>
<trkpt lat="21.993874" lon="104.737068">
<ele>105.336975</ele>
<time>2011-04-28T07:33:44Z</time>
<desc>lat.=21.993874, lon.=104.737068, Alt.=105.336975m. Speed=0.072000m/h.</desc>
<speed>0.020000</speed>
</trkpt>
<trkpt lat="21.993874" lon="104.737068">
<ele>105.333069</ele>
<time>2011-04-28T07:33:49Z</time>
<desc>lat.=21.993874, lon.=104.737068, Alt.=105.333069m. Speed=0.000000m/h.</desc>
<speed>0.000000</speed>
</trkpt>
<trkpt lat="21.993877" lon="104.737068">
<ele>105.661194</ele>
<time>2011-04-28T07:33:54Z</time>
<desc>lat.=21.993877, lon.=104.737068, Alt.=105.661194m. Speed=0.108000m/h.</desc>
<speed>0.030000</speed>
</trkpt>
<trkpt lat="21.993881" lon="104.737076">
<ele>105.850647</ele>
<time>2011-04-28T07:33:59Z</time>
<desc>lat.=21.993881, lon.=104.737076, Alt.=105.850647m. Speed=0.108000m/h.</desc>
<speed>0.030000</speed>
</trkpt>
<trkpt lat="21.993881" lon="104.737083">
<ele>105.872131</ele>
<time>2011-04-28T07:34:04Z</time>
<desc>lat.=21.993881, lon.=104.737083, Alt.=105.872131m. Speed=0.036000m/h.</desc>
<speed>0.010000</speed>
</trkpt>
<trkpt lat="21.993883" lon="104.737083">
<ele>105.811584</ele>
<time>2011-04-28T07:34:09Z</time>
<desc>lat.=21.993883, lon.=104.737083, Alt.=105.811584m. Speed=0.000000m/h.</desc>
<speed>0.000000</speed>
</trkpt>
<trkpt lat="21.993879" lon="104.737083">
<ele>105.731506</ele>
<time>2011-04-28T07:34:14Z</time>
<desc>lat.=21.993879, lon.=104.737083, Alt.=105.731506m. Speed=0.000000m/h.</desc>
<speed>0.000000</speed>
</trkpt>
<trkpt lat="21.993879" lon="104.737076">
<ele>105.745178</ele>
<time>2011-04-28T07:34:19Z</time>
<desc>lat.=21.993879, lon.=104.737076, Alt.=105.745178m. Speed=0.000000m/h.</desc>
<speed>0.000000</speed>
</trkpt>
<trkpt lat="21.993876" lon="104.737076">
<ele>105.868225</ele>
<time>2011-04-28T07:34:24Z</time>
<desc>lat.=21.993876, lon.=104.737076, Alt.=105.868225m. Speed=0.000000m/h.</desc>
<speed>0.000000</speed>
</trkpt>
<trkpt lat="21.993887" lon="104.737061">
<ele>105.217834</ele>
<time>2011-04-28T07:34:29Z</time>
<desc>lat.=21.993887, lon.=104.737061, Alt.=105.217834m. Speed=0.036000m/h.</desc>
<speed>0.010000</speed>
</trkpt>
<trkpt lat="21.993883" lon="104.737061">
<ele>105.217834</ele>
<time>2011-04-28T07:34:34Z</time>
<desc>lat.=21.993883, lon.=104.737061, Alt.=105.217834m. Speed=0.000000m/h.</desc>
<speed>0.000000</speed>
</trkpt>
<trkpt lat="21.993885" lon="104.737061">
<ele>105.215881</ele>
<time>2011-04-28T07:34:39Z</time>
<desc>lat.=21.993885, lon.=104.737061, Alt.=105.215881m. Speed=0.036000m/h.</desc>
<speed>0.010000</speed>
</trkpt>
<trkpt lat="21.993885" lon="104.737061">
<ele>105.213928</ele>
<time>2011-04-28T07:34:44Z</time>
<desc>lat.=21.993885, lon.=104.737061, Alt.=105.213928m. Speed=0.036000m/h.</desc>
<speed>0.010000</speed>
</trkpt>
<trkpt lat="21.993885" lon="104.737061">
<ele>105.213928</ele>
<time>2011-04-28T07:34:49Z</time>
<desc>lat.=21.993885, lon.=104.737061, Alt.=105.213928m. Speed=0.000000m/h.</desc>
<speed>0.000000</speed>
</trkpt>
<trkpt lat="21.993885" lon="104.737061">
<ele>105.215881</ele>
<time>2011-04-28T07:34:54Z</time>
<desc>lat.=21.993885, lon.=104.737061, Alt.=105.215881m. Speed=0.108000m/h.</desc>
<speed>0.030000</speed>
</trkpt>
<trkpt lat="21.993887" lon="104.737068">
<ele>105.219788</ele>
<time>2011-04-28T07:34:59Z</time>
<desc>lat.=21.993887, lon.=104.737068, Alt.=105.219788m. Speed=0.216000m/h.</desc>
<speed>0.060000</speed>
</trkpt>
<trkpt lat="21.993898" lon="104.737106">
<ele>105.165100</ele>
<time>2011-04-28T07:35:04Z</time>
<desc>lat.=21.993898, lon.=104.737106, Alt.=105.165100m. Speed=7.308000m/h.</desc>
<speed>2.030000</speed>
</trkpt>
<trkpt lat="21.993893" lon="104.737228">
<ele>105.288147</ele>
<time>2011-04-28T07:35:09Z</time>
<desc>lat.=21.993893, lon.=104.737228, Alt.=105.288147m. Speed=9.144000m/h.</desc>
<speed>2.540000</speed>
</trkpt>
<trkpt lat="21.993820" lon="104.737396">
<ele>105.629944</ele>
<time>2011-04-28T07:35:14Z</time>
<desc>lat.=21.993820, lon.=104.737396, Alt.=105.629944m. Speed=11.592000m/h.</desc>
<speed>3.220000</speed>
</trkpt>
<trkpt lat="21.993702" lon="104.737488">
<ele>105.881897</ele>
<time>2011-04-28T07:35:19Z</time>
<desc>lat.=21.993702, lon.=104.737488, Alt.=105.881897m. Speed=11.736000m/h.</desc>
<speed>3.260000</speed>
</trkpt>
<trkpt lat="21.993547" lon="104.737564">
<ele>106.497131</ele>
<time>2011-04-28T07:35:24Z</time>
<desc>lat.=21.993547, lon.=104.737564, Alt.=106.497131m. Speed=11.772000m/h.</desc>
<speed>3.270000</speed>
</trkpt>
<trkpt lat="21.993416" lon="104.737587">
<ele>107.444397</ele>
<time>2011-04-28T07:35:29Z</time>
<desc>lat.=21.993416, lon.=104.737587, Alt.=107.444397m. Speed=8.784000m/h.</desc>
<speed>2.440000</speed>
</trkpt>
<trkpt lat="21.993307" lon="104.737595">
<ele>108.419006</ele>
<time>2011-04-28T07:35:34Z</time>
<desc>lat.=21.993307, lon.=104.737595, Alt.=108.419006m. Speed=7.308000m/h.</desc>
<speed>2.030000</speed>
</trkpt>
<trkpt lat="21.993221" lon="104.737579">
<ele>109.993225</ele>
<time>2011-04-28T07:35:39Z</time>
<desc>lat.=21.993221, lon.=104.737579, Alt.=109.993225m. Speed=6.552000m/h.</desc>
<speed>1.820000</speed>
</trkpt>
<trkpt lat="21.993145" lon="104.737564">
<ele>110.840881</ele>
<time>2011-04-28T07:35:44Z</time>
<desc>lat.=21.993145, lon.=104.737564, Alt.=110.840881m. Speed=6.084000m/h.</desc>
<speed>1.690000</speed>
</trkpt>
<trkpt lat="21.993057" lon="104.737541">
<ele>111.678772</ele>
<time>2011-04-28T07:35:49Z</time>
<desc>lat.=21.993057, lon.=104.737541, Alt.=111.678772m. Speed=6.444000m/h.</desc>
<speed>1.790000</speed>
</trkpt>
<trkpt lat="21.992987" lon="104.737534">
<ele>112.852600</ele>
<time>2011-04-28T07:35:54Z</time>
<desc>lat.=21.992987, lon.=104.737534, Alt.=112.852600m. Speed=5.832000m/h.</desc>
<speed>1.620000</speed>
</trkpt>
<trkpt lat="21.992893" lon="104.737549">
<ele>115.260803</ele>
<time>2011-04-28T07:35:59Z</time>
<desc>lat.=21.992893, lon.=104.737549, Alt.=115.260803m. Speed=5.904000m/h.</desc>
<speed>1.640000</speed>
</trkpt>
<trkpt lat="21.992828" lon="104.737564">
<ele>116.245178</ele>
<time>2011-04-28T07:36:04Z</time>
<desc>lat.=21.992828, lon.=104.737564, Alt.=116.245178m. Speed=3.240000m/h.</desc>
<speed>0.900000</speed>
</trkpt>
<trkpt lat="21.992800" lon="104.737602">
<ele>116.979553</ele>
<time>2011-04-28T07:36:09Z</time>
<desc>lat.=21.992800, lon.=104.737602, Alt.=116.979553m. Speed=2.412000m/h.</desc>
<speed>0.670000</speed>
</trkpt>
<trkpt lat="21.992779" lon="104.737633">
<ele>117.768616</ele>
<time>2011-04-28T07:36:14Z</time>
<desc>lat.=21.992779, lon.=104.737633, Alt.=117.768616m. Speed=3.492000m/h.</desc>
<speed>0.970000</speed>
</trkpt>
<trkpt lat="21.992718" lon="104.737701">
<ele>119.606506</ele>
<time>2011-04-28T07:36:19Z</time>
<desc>lat.=21.992718, lon.=104.737701, Alt.=119.606506m. Speed=5.796000m/h.</desc>
<speed>1.610000</speed>
</trkpt>
<trkpt lat="21.992680" lon="104.737755">
<ele>120.661194</ele>
<time>2011-04-28T07:36:24Z</time>
<desc>lat.=21.992680, lon.=104.737755, Alt.=120.661194m. Speed=4.140000m/h.</desc>
<speed>1.150000</speed>
</trkpt>
<trkpt lat="21.992598" lon="104.737831">
<ele>122.336975</ele>
<time>2011-04-28T07:36:29Z</time>
<desc>lat.=21.992598, lon.=104.737831, Alt.=122.336975m. Speed=7.524000m/h.</desc>
<speed>2.090000</speed>
</trkpt>
<trkpt lat="21.992537" lon="104.737915">
<ele>123.192444</ele>
<time>2011-04-28T07:36:34Z</time>
<desc>lat.=21.992537, lon.=104.737915, Alt.=123.192444m. Speed=4.212000m/h.</desc>
<speed>1.170000</speed>
</trkpt>
<trkpt lat="21.992495" lon="104.737991">
<ele>124.270569</ele>
<time>2011-04-28T07:36:39Z</time>
<desc>lat.=21.992495, lon.=104.737991, Alt.=124.270569m. Speed=5.544000m/h.</desc>
<speed>1.540000</speed>
</trkpt>
<trkpt lat="21.992393" lon="104.738068">
<ele>127.770569</ele>
<time>2011-04-28T07:36:44Z</time>
<desc>lat.=21.992393, lon.=104.738068, Alt.=127.770569m. Speed=7.920000m/h.</desc>
<speed>2.200000</speed>
</trkpt>
<trkpt lat="21.992344" lon="104.738174">
<ele>130.693481</ele>
<time>2011-04-28T07:36:49Z</time>
<desc>lat.=21.992344, lon.=104.738174, Alt.=130.693481m. Speed=6.336000m/h.</desc>
<speed>1.760000</speed>
</trkpt>
<trkpt lat="21.992304" lon="104.738289">
<ele>133.084106</ele>
<time>2011-04-28T07:36:54Z</time>
<desc>lat.=21.992304, lon.=104.738289, Alt.=133.084106m. Speed=5.436000m/h.</desc>
<speed>1.510000</speed>
</trkpt>
<trkpt lat="21.992266" lon="104.738365">
<ele>134.552856</ele>
<time>2011-04-28T07:36:59Z</time>
<desc>lat.=21.992266, lon.=104.738365, Alt.=134.552856m. Speed=5.796000m/h.</desc>
<speed>1.610000</speed>
</trkpt>
<trkpt lat="21.992214" lon="104.738457">
<ele>136.080200</ele>
<time>2011-04-28T07:37:04Z</time>
<desc>lat.=21.992214, lon.=104.738457, Alt.=136.080200m. Speed=6.804000m/h.</desc>
<speed>1.890000</speed>
</trkpt>
<trkpt lat="21.992163" lon="104.738541">
<ele>135.966919</ele>
<time>2011-04-28T07:37:09Z</time>
<desc>lat.=21.992163, lon.=104.738541, Alt.=135.966919m. Speed=8.748000m/h.</desc>
<speed>2.430000</speed>
</trkpt>
<trkpt lat="21.992096" lon="104.738609">
<ele>135.314575</ele>
<time>2011-04-28T07:37:14Z</time>
<desc>lat.=21.992096, lon.=104.738609, Alt.=135.314575m. Speed=5.796000m/h.</desc>
<speed>1.610000</speed>
</trkpt>
<trkpt lat="21.992037" lon="104.738716">
<ele>136.384888</ele>
<time>2011-04-28T07:37:19Z</time>
<desc>lat.=21.992037, lon.=104.738716, Alt.=136.384888m. Speed=5.508000m/h.</desc>
<speed>1.530000</speed>
</trkpt>
<trkpt lat="21.991995" lon="104.738823">
<ele>135.978638</ele>
<time>2011-04-28T07:37:24Z</time>
<desc>lat.=21.991995, lon.=104.738823, Alt.=135.978638m. Speed=6.876000m/h.</desc>
<speed>1.910000</speed>
</trkpt>
<trkpt lat="21.991928" lon="104.738899">
<ele>137.595825</ele>
<time>2011-04-28T07:37:29Z</time>
<desc>lat.=21.991928, lon.=104.738899, Alt.=137.595825m. Speed=7.308000m/h.</desc>
<speed>2.030000</speed>
</trkpt>
<trkpt lat="21.991848" lon="104.738991">
<ele>136.420044</ele>
<time>2011-04-28T07:37:34Z</time>
<desc>lat.=21.991848, lon.=104.738991, Alt.=136.420044m. Speed=7.632000m/h.</desc>
<speed>2.120000</speed>
</trkpt>
<trkpt lat="21.991756" lon="104.739044">
<ele>133.505981</ele>
<time>2011-04-28T07:37:39Z</time>
<desc>lat.=21.991756, lon.=104.739044, Alt.=133.505981m. Speed=6.516000m/h.</desc>
<speed>1.810000</speed>
</trkpt>
<trkpt lat="21.991650" lon="104.739113">
<ele>132.728638</ele>
<time>2011-04-28T07:37:44Z</time>
<desc>lat.=21.991650, lon.=104.739113, Alt.=132.728638m. Speed=7.956000m/h.</desc>
<speed>2.210000</speed>
</trkpt>
<trkpt lat="21.991558" lon="104.739182">
<ele>134.552856</ele>
<time>2011-04-28T07:37:49Z</time>
<desc>lat.=21.991558, lon.=104.739182, Alt.=134.552856m. Speed=6.444000m/h.</desc>
<speed>1.790000</speed>
</trkpt>
<trkpt lat="21.991472" lon="104.739235">
<ele>135.541138</ele>
<time>2011-04-28T07:37:54Z</time>
<desc>lat.=21.991472, lon.=104.739235, Alt.=135.541138m. Speed=6.156000m/h.</desc>
<speed>1.710000</speed>
</trkpt>
<trkpt lat="21.991383" lon="104.739311">
<ele>136.283325</ele>
<time>2011-04-28T07:37:59Z</time>
<desc>lat.=21.991383, lon.=104.739311, Alt.=136.283325m. Speed=7.884000m/h.</desc>
<speed>2.190000</speed>
</trkpt>
<trkpt lat="21.991289" lon="104.739372">
<ele>136.732544</ele>
<time>2011-04-28T07:38:04Z</time>
<desc>lat.=21.991289, lon.=104.739372, Alt.=136.732544m. Speed=8.496000m/h.</desc>
<speed>2.360000</speed>
</trkpt>
<trkpt lat="21.991205" lon="104.739403">
<ele>136.689575</ele>
<time>2011-04-28T07:38:09Z</time>
<desc>lat.=21.991205, lon.=104.739403, Alt.=136.689575m. Speed=5.328000m/h.</desc>
<speed>1.480000</speed>
</trkpt>
<trkpt lat="21.991186" lon="104.739403">
<ele>136.853638</ele>
<time>2011-04-28T07:38:14Z</time>
<desc>lat.=21.991186, lon.=104.739403, Alt.=136.853638m. Speed=0.720000m/h.</desc>
<speed>0.200000</speed>
</trkpt>
<trkpt lat="21.991179" lon="104.739395">
<ele>137.076294</ele>
<time>2011-04-28T07:38:19Z</time>
<desc>lat.=21.991179, lon.=104.739395, Alt.=137.076294m. Speed=0.360000m/h.</desc>
<speed>0.100000</speed>
</trkpt>
<trkpt lat="21.991188" lon="104.739403">
<ele>137.029419</ele>
<time>2011-04-28T07:38:24Z</time>
<desc>lat.=21.991188, lon.=104.739403, Alt.=137.029419m. Speed=0.360000m/h.</desc>
<speed>0.100000</speed>
</trkpt>
<trkpt lat="21.991182" lon="104.739403">
<ele>137.037231</ele>
<time>2011-04-28T07:38:29Z</time>
<desc>lat.=21.991182, lon.=104.739403, Alt.=137.037231m. Speed=0.504000m/h.</desc>
<speed>0.140000</speed>
</trkpt>
<trkpt lat="21.991180" lon="104.739410">
<ele>136.990356</ele>
<time>2011-04-28T07:38:34Z</time>
<desc>lat.=21.991180, lon.=104.739410, Alt.=136.990356m. Speed=0.072000m/h.</desc>
<speed>0.020000</speed>
</trkpt>
<trkpt lat="21.991180" lon="104.739403">
<ele>136.822388</ele>
<time>2011-04-28T07:38:39Z</time>
<desc>lat.=21.991180, lon.=104.739403, Alt.=136.822388m. Speed=0.288000m/h.</desc>
<speed>0.080000</speed>
</trkpt>
<trkpt lat="21.991184" lon="104.739403">
<ele>136.810669</ele>
<time>2011-04-28T07:38:44Z</time>
<desc>lat.=21.991184, lon.=104.739403, Alt.=136.810669m. Speed=0.036000m/h.</desc>
<speed>0.010000</speed>
</trkpt>
<trkpt lat="21.991186" lon="104.739403">
<ele>136.849731</ele>
<time>2011-04-28T07:38:49Z</time>
<desc>lat.=21.991186, lon.=104.739403, Alt.=136.849731m. Speed=0.000000m/h.</desc>
<speed>0.000000</speed>
</trkpt>
<trkpt lat="21.991186" lon="104.739403">
<ele>136.857544</ele>
<time>2011-04-28T07:38:54Z</time>
<desc>lat.=21.991186, lon.=104.739403, Alt.=136.857544m. Speed=0.036000m/h.</desc>
<speed>0.010000</speed>
</trkpt>
<trkpt lat="21.991186" lon="104.739403">
<ele>136.849731</ele>
<time>2011-04-28T07:38:59Z</time>
<desc>lat.=21.991186, lon.=104.739403, Alt.=136.849731m. Speed=0.000000m/h.</desc>
<speed>0.000000</speed>
</trkpt>
<trkpt lat="21.991186" lon="104.739403">
<ele>136.838013</ele>
<time>2011-04-28T07:39:04Z</time>
<desc>lat.=21.991186, lon.=104.739403, Alt.=136.838013m. Speed=0.000000m/h.</desc>
<speed>0.000000</speed>
</trkpt>
<trkpt lat="21.991186" lon="104.739403">
<ele>136.830200</ele>
<time>2011-04-28T07:39:09Z</time>
<desc>lat.=21.991186, lon.=104.739403, Alt.=136.830200m. Speed=0.072000m/h.</desc>
<speed>0.020000</speed>
</trkpt>
<trkpt lat="21.991186" lon="104.739403">
<ele>136.822388</ele>
<time>2011-04-28T07:39:14Z</time>
<desc>lat.=21.991186, lon.=104.739403, Alt.=136.822388m. Speed=0.072000m/h.</desc>
<speed>0.020000</speed>
</trkpt>
<trkpt lat="21.991186" lon="104.739403">
<ele>136.806763</ele>
<time>2011-04-28T07:39:19Z</time>
<desc>lat.=21.991186, lon.=104.739403, Alt.=136.806763m. Speed=0.000000m/h.</desc>
<speed>0.000000</speed>
</trkpt>
<trkpt lat="21.991186" lon="104.739403">
<ele>136.795044</ele>
<time>2011-04-28T07:39:24Z</time>
<desc>lat.=21.991186, lon.=104.739403, Alt.=136.795044m. Speed=0.036000m/h.</desc>
<speed>0.010000</speed>
</trkpt>
<trkpt lat="21.991186" lon="104.739403">
<ele>136.779419</ele>
<time>2011-04-28T07:39:29Z</time>
<desc>lat.=21.991186, lon.=104.739403, Alt.=136.779419m. Speed=0.000000m/h.</desc>
<speed>0.000000</speed>
</trkpt>
<trkpt lat="21.991186" lon="104.739403">
<ele>136.767700</ele>
<time>2011-04-28T07:39:34Z</time>
<desc>lat.=21.991186, lon.=104.739403, Alt.=136.767700m. Speed=0.000000m/h.</desc>
<speed>0.000000</speed>
</trkpt>
<trkpt lat="21.991188" lon="104.739403">
<ele>136.787231</ele>
<time>2011-04-28T07:39:39Z</time>
<desc>lat.=21.991188, lon.=104.739403, Alt.=136.787231m. Speed=0.000000m/h.</desc>
<speed>0.000000</speed>
</trkpt>
<trkpt lat="21.991188" lon="104.739403">
<ele>136.783325</ele>
<time>2011-04-28T07:39:44Z</time>
<desc>lat.=21.991188, lon.=104.739403, Alt.=136.783325m. Speed=0.000000m/h.</desc>
<speed>0.000000</speed>
</trkpt>
<trkpt lat="21.991188" lon="104.739403">
<ele>136.775513</ele>
<time>2011-04-28T07:39:49Z</time>
<desc>lat.=21.991188, lon.=104.739403, Alt.=136.775513m. Speed=0.036000m/h.</desc>
<speed>0.010000</speed>
</trkpt>
<trkpt lat="21.991188" lon="104.739403">
<ele>136.759888</ele>
<time>2011-04-28T07:39:54Z</time>
<desc>lat.=21.991188, lon.=104.739403, Alt.=136.759888m. Speed=0.000000m/h.</desc>
<speed>0.000000</speed>
</trkpt>
<trkpt lat="21.991188" lon="104.739403">
<ele>136.752075</ele>
<time>2011-04-28T07:39:59Z</time>
<desc>lat.=21.991188, lon.=104.739403, Alt.=136.752075m. Speed=0.036000m/h.</desc>
<speed>0.010000</speed>
</trkpt>
<trkpt lat="21.991188" lon="104.739410">
<ele>136.732544</ele>
<time>2011-04-28T07:40:04Z</time>
<desc>lat.=21.991188, lon.=104.739410, Alt.=136.732544m. Speed=0.000000m/h.</desc>
<speed>0.000000</speed>
</trkpt>
<trkpt lat="21.991188" lon="104.739410">
<ele>136.713013</ele>
<time>2011-04-28T07:40:09Z</time>
<desc>lat.=21.991188, lon.=104.739410, Alt.=136.713013m. Speed=0.000000m/h.</desc>
<speed>0.000000</speed>
</trkpt>
<trkpt lat="21.991188" lon="104.739410">
<ele>136.677856</ele>
<time>2011-04-28T07:40:14Z</time>
<desc>lat.=21.991188, lon.=104.739410, Alt.=136.677856m. Speed=0.036000m/h.</desc>
<speed>0.010000</speed>
</trkpt>
<trkpt lat="21.991188" lon="104.739410">
<ele>136.654419</ele>
<time>2011-04-28T07:40:19Z</time>
<desc>lat.=21.991188, lon.=104.739410, Alt.=136.654419m. Speed=0.000000m/h.</desc>
<speed>0.000000</speed>
</trkpt>
<trkpt lat="21.991188" lon="104.739410">
<ele>136.630981</ele>
<time>2011-04-28T07:40:24Z</time>
<desc>lat.=21.991188, lon.=104.739410, Alt.=136.630981m. Speed=0.000000m/h.</desc>
<speed>0.000000</speed>
</trkpt>
<trkpt lat="21.991188" lon="104.739410">
<ele>136.603638</ele>
<time>2011-04-28T07:40:29Z</time>
<desc>lat.=21.991188, lon.=104.739410, Alt.=136.603638m. Speed=0.000000m/h.</desc>
<speed>0.000000</speed>
</trkpt>
<trkpt lat="21.991188" lon="104.739410">
<ele>136.564575</ele>
<time>2011-04-28T07:40:34Z</time>
<desc>lat.=21.991188, lon.=104.739410, Alt.=136.564575m. Speed=0.000000m/h.</desc>
<speed>0.000000</speed>
</trkpt>
<trkpt lat="21.991188" lon="104.739410">
<ele>136.521606</ele>
<time>2011-04-28T07:40:39Z</time>
<desc>lat.=21.991188, lon.=104.739410, Alt.=136.521606m. Speed=0.000000m/h.</desc>
<speed>0.000000</speed>
</trkpt>
<trkpt lat="21.991188" lon="104.739410">
<ele>136.478638</ele>
<time>2011-04-28T07:40:44Z</time>
<desc>lat.=21.991188, lon.=104.739410, Alt.=136.478638m. Speed=0.000000m/h.</desc>
<speed>0.000000</speed>
</trkpt>
<trkpt lat="21.991188" lon="104.739410">
<ele>136.439575</ele>
<time>2011-04-28T07:40:49Z</time>
<desc>lat.=21.991188, lon.=104.739410, Alt.=136.439575m. Speed=0.000000m/h.</desc>
<speed>0.000000</speed>
</trkpt>
<trkpt lat="21.991188" lon="104.739410">
<ele>136.408325</ele>
<time>2011-04-28T07:40:54Z</time>
<desc>lat.=21.991188, lon.=104.739410, Alt.=136.408325m. Speed=0.000000m/h.</desc>
<speed>0.000000</speed>
</trkpt>
<trkpt lat="21.991188" lon="104.739410">
<ele>136.384888</ele>
<time>2011-04-28T07:40:59Z</time>
<desc>lat.=21.991188, lon.=104.739410, Alt.=136.384888m. Speed=0.000000m/h.</desc>
<speed>0.000000</speed>
</trkpt>
<trkpt lat="21.991188" lon="104.739410">
<ele>136.369263</ele>
<time>2011-04-28T07:41:04Z</time>
<desc>lat.=21.991188, lon.=104.739410, Alt.=136.369263m. Speed=0.036000m/h.</desc>
<speed>0.010000</speed>
</trkpt>
<trkpt lat="21.991188" lon="104.739410">
<ele>136.365356</ele>
<time>2011-04-28T07:41:09Z</time>
<desc>lat.=21.991188, lon.=104.739410, Alt.=136.365356m. Speed=0.000000m/h.</desc>
<speed>0.000000</speed>
</trkpt>
<trkpt lat="21.991188" lon="104.739410">
<ele>136.373169</ele>
<time>2011-04-28T07:41:14Z</time>
<desc>lat.=21.991188, lon.=104.739410, Alt.=136.373169m. Speed=0.000000m/h.</desc>
<speed>0.000000</speed>
</trkpt>
<trkpt lat="21.991188" lon="104.739410">
<ele>136.377075</ele>
<time>2011-04-28T07:41:19Z</time>
<desc>lat.=21.991188, lon.=104.739410, Alt.=136.377075m. Speed=0.036000m/h.</desc>
<speed>0.010000</speed>
</trkpt>
<trkpt lat="21.991188" lon="104.739410">
<ele>136.384888</ele>
<time>2011-04-28T07:41:24Z</time>
<desc>lat.=21.991188, lon.=104.739410, Alt.=136.384888m. Speed=0.000000m/h.</desc>
<speed>0.000000</speed>
</trkpt>
<trkpt lat="21.991188" lon="104.739410">
<ele>136.408325</ele>
<time>2011-04-28T07:41:29Z</time>
<desc>lat.=21.991188, lon.=104.739410, Alt.=136.408325m. Speed=0.036000m/h.</desc>
<speed>0.010000</speed>
</trkpt>
<trkpt lat="21.991188" lon="104.739410">
<ele>136.443481</ele>
<time>2011-04-28T07:41:34Z</time>
<desc>lat.=21.991188, lon.=104.739410, Alt.=136.443481m. Speed=0.000000m/h.</desc>
<speed>0.000000</speed>
</trkpt>
<trkpt lat="21.991188" lon="104.739410">
<ele>136.466919</ele>
<time>2011-04-28T07:41:39Z</time>
<desc>lat.=21.991188, lon.=104.739410, Alt.=136.466919m. Speed=0.036000m/h.</desc>
<speed>0.010000</speed>
</trkpt>
<trkpt lat="21.991188" lon="104.739410">
<ele>136.482544</ele>
<time>2011-04-28T07:41:44Z</time>
<desc>lat.=21.991188, lon.=104.739410, Alt.=136.482544m. Speed=0.000000m/h.</desc>
<speed>0.000000</speed>
</trkpt>
<trkpt lat="21.991190" lon="104.739410">
<ele>136.498169</ele>
<time>2011-04-28T07:41:49Z</time>
<desc>lat.=21.991190, lon.=104.739410, Alt.=136.498169m. Speed=0.000000m/h.</desc>
<speed>0.000000</speed>
</trkpt>
<trkpt lat="21.991190" lon="104.739410">
<ele>136.490356</ele>
<time>2011-04-28T07:41:54Z</time>
<desc>lat.=21.991190, lon.=104.739410, Alt.=136.490356m. Speed=0.000000m/h.</desc>
<speed>0.000000</speed>
</trkpt>
<trkpt lat="21.991190" lon="104.739410">
<ele>136.490356</ele>
<time>2011-04-28T07:41:59Z</time>
<desc>lat.=21.991190, lon.=104.739410, Alt.=136.490356m. Speed=0.000000m/h.</desc>
<speed>0.000000</speed>
</trkpt>
<trkpt lat="21.991190" lon="104.739410">
<ele>136.494263</ele>
<time>2011-04-28T07:42:04Z</time>
<desc>lat.=21.991190, lon.=104.739410, Alt.=136.494263m. Speed=0.036000m/h.</desc>
<speed>0.010000</speed>
</trkpt>
<trkpt lat="21.991190" lon="104.739410">
<ele>136.486450</ele>
<time>2011-04-28T07:42:09Z</time>
<desc>lat.=21.991190, lon.=104.739410, Alt.=136.486450m. Speed=0.324000m/h.</desc>
<speed>0.090000</speed>
</trkpt>
<trkpt lat="21.991190" lon="104.739410">
<ele>136.474731</ele>
<time>2011-04-28T07:42:14Z</time>
<desc>lat.=21.991190, lon.=104.739410, Alt.=136.474731m. Speed=0.036000m/h.</desc>
<speed>0.010000</speed>
</trkpt>
<trkpt lat="21.991190" lon="104.739410">
<ele>136.463013</ele>
<time>2011-04-28T07:42:19Z</time>
<desc>lat.=21.991190, lon.=104.739410, Alt.=136.463013m. Speed=0.000000m/h.</desc>
<speed>0.000000</speed>
</trkpt>
<trkpt lat="21.991190" lon="104.739410">
<ele>136.455200</ele>
<time>2011-04-28T07:42:24Z</time>
<desc>lat.=21.991190, lon.=104.739410, Alt.=136.455200m. Speed=0.036000m/h.</desc>
<speed>0.010000</speed>
</trkpt>
<trkpt lat="21.991190" lon="104.739410">
<ele>136.451294</ele>
<time>2011-04-28T07:42:29Z</time>
<desc>lat.=21.991190, lon.=104.739410, Alt.=136.451294m. Speed=0.072000m/h.</desc>
<speed>0.020000</speed>
</trkpt>
<trkpt lat="21.991192" lon="104.739410">
<ele>136.451294</ele>
<time>2011-04-28T07:42:34Z</time>
<desc>lat.=21.991192, lon.=104.739410, Alt.=136.451294m. Speed=0.108000m/h.</desc>
<speed>0.030000</speed>
</trkpt>
<trkpt lat="21.991192" lon="104.739410">
<ele>136.455200</ele>
<time>2011-04-28T07:42:39Z</time>
<desc>lat.=21.991192, lon.=104.739410, Alt.=136.455200m. Speed=0.108000m/h.</desc>
<speed>0.030000</speed>
</trkpt>
<trkpt lat="21.991192" lon="104.739403">
<ele>136.466919</ele>
<time>2011-04-28T07:42:44Z</time>
<desc>lat.=21.991192, lon.=104.739403, Alt.=136.466919m. Speed=0.108000m/h.</desc>
<speed>0.030000</speed>
</trkpt>
<trkpt lat="21.991192" lon="104.739403">
<ele>136.474731</ele>
<time>2011-04-28T07:42:49Z</time>
<desc>lat.=21.991192, lon.=104.739403, Alt.=136.474731m. Speed=0.144000m/h.</desc>
<speed>0.040000</speed>
</trkpt>
<trkpt lat="21.991192" lon="104.739403">
<ele>136.486450</ele>
<time>2011-04-28T07:42:54Z</time>
<desc>lat.=21.991192, lon.=104.739403, Alt.=136.486450m. Speed=0.072000m/h.</desc>
<speed>0.020000</speed>
</trkpt>
<trkpt lat="21.991192" lon="104.739403">
<ele>136.502075</ele>
<time>2011-04-28T07:42:59Z</time>
<desc>lat.=21.991192, lon.=104.739403, Alt.=136.502075m. Speed=0.072000m/h.</desc>
<speed>0.020000</speed>
</trkpt>
<trkpt lat="21.991192" lon="104.739403">
<ele>136.505981</ele>
<time>2011-04-28T07:43:04Z</time>
<desc>lat.=21.991192, lon.=104.739403, Alt.=136.505981m. Speed=0.036000m/h.</desc>
<speed>0.010000</speed>
</trkpt>
<trkpt lat="21.991192" lon="104.739403">
<ele>136.517700</ele>
<time>2011-04-28T07:43:09Z</time>
<desc>lat.=21.991192, lon.=104.739403, Alt.=136.517700m. Speed=0.000000m/h.</desc>
<speed>0.000000</speed>
</trkpt>
<trkpt lat="21.991192" lon="104.739403">
<ele>136.505981</ele>
<time>2011-04-28T07:43:14Z</time>
<desc>lat.=21.991192, lon.=104.739403, Alt.=136.505981m. Speed=0.036000m/h.</desc>
<speed>0.010000</speed>
</trkpt>
<trkpt lat="21.991192" lon="104.739403">
<ele>136.505981</ele>
<time>2011-04-28T07:43:19Z</time>
<desc>lat.=21.991192, lon.=104.739403, Alt.=136.505981m. Speed=0.072000m/h.</desc>
<speed>0.020000</speed>
</trkpt>
<trkpt lat="21.991192" lon="104.739395">
<ele>136.494263</ele>
<time>2011-04-28T07:43:24Z</time>
<desc>lat.=21.991192, lon.=104.739395, Alt.=136.494263m. Speed=0.000000m/h.</desc>
<speed>0.000000</speed>
</trkpt>
<trkpt lat="21.991192" lon="104.739395">
<ele>136.494263</ele>
<time>2011-04-28T07:43:29Z</time>
<desc>lat.=21.991192, lon.=104.739395, Alt.=136.494263m. Speed=0.108000m/h.</desc>
<speed>0.030000</speed>
</trkpt>
<trkpt lat="21.991192" lon="104.739395">
<ele>136.490356</ele>
<time>2011-04-28T07:43:34Z</time>
<desc>lat.=21.991192, lon.=104.739395, Alt.=136.490356m. Speed=0.036000m/h.</desc>
<speed>0.010000</speed>
</trkpt>
<trkpt lat="21.991192" lon="104.739395">
<ele>136.482544</ele>
<time>2011-04-28T07:43:39Z</time>
<desc>lat.=21.991192, lon.=104.739395, Alt.=136.482544m. Speed=0.144000m/h.</desc>
<speed>0.040000</speed>
</trkpt>
<trkpt lat="21.991192" lon="104.739395">
<ele>136.486450</ele>
<time>2011-04-28T07:43:44Z</time>
<desc>lat.=21.991192, lon.=104.739395, Alt.=136.486450m. Speed=0.072000m/h.</desc>
<speed>0.020000</speed>
</trkpt>
<trkpt lat="21.991192" lon="104.739395">
<ele>136.498169</ele>
<time>2011-04-28T07:43:49Z</time>
<desc>lat.=21.991192, lon.=104.739395, Alt.=136.498169m. Speed=0.072000m/h.</desc>
<speed>0.020000</speed>
</trkpt>
<trkpt lat="21.991192" lon="104.739395">
<ele>136.509888</ele>
<time>2011-04-28T07:43:54Z</time>
<desc>lat.=21.991192, lon.=104.739395, Alt.=136.509888m. Speed=0.036000m/h.</desc>
<speed>0.010000</speed>
</trkpt>
<trkpt lat="21.991192" lon="104.739395">
<ele>136.513794</ele>
<time>2011-04-28T07:43:59Z</time>
<desc>lat.=21.991192, lon.=104.739395, Alt.=136.513794m. Speed=0.036000m/h.</desc>
<speed>0.010000</speed>
</trkpt>
<trkpt lat="21.991192" lon="104.739388">
<ele>136.521606</ele>
<time>2011-04-28T07:44:04Z</time>
<desc>lat.=21.991192, lon.=104.739388, Alt.=136.521606m. Speed=0.000000m/h.</desc>
<speed>0.000000</speed>
</trkpt>
<trkpt lat="21.991192" lon="104.739388">
<ele>136.517700</ele>
<time>2011-04-28T07:44:09Z</time>
<desc>lat.=21.991192, lon.=104.739388, Alt.=136.517700m. Speed=0.000000m/h.</desc>
<speed>0.000000</speed>
</trkpt>
<trkpt lat="21.991192" lon="104.739388">
<ele>136.502075</ele>
<time>2011-04-28T07:44:14Z</time>
<desc>lat.=21.991192, lon.=104.739388, Alt.=136.502075m. Speed=0.036000m/h.</desc>
<speed>0.010000</speed>
</trkpt>
<trkpt lat="21.991192" lon="104.739388">
<ele>136.490356</ele>
<time>2011-04-28T07:44:19Z</time>
<desc>lat.=21.991192, lon.=104.739388, Alt.=136.490356m. Speed=0.144000m/h.</desc>
<speed>0.040000</speed>
</trkpt>
<trkpt lat="21.991192" lon="104.739388">
<ele>136.486450</ele>
<time>2011-04-28T07:44:24Z</time>
<desc>lat.=21.991192, lon.=104.739388, Alt.=136.486450m. Speed=0.036000m/h.</desc>
<speed>0.010000</speed>
</trkpt>
<trkpt lat="21.991192" lon="104.739388">
<ele>136.490356</ele>
<time>2011-04-28T07:44:29Z</time>
<desc>lat.=21.991192, lon.=104.739388, Alt.=136.490356m. Speed=0.000000m/h.</desc>
<speed>0.000000</speed>
</trkpt>
<trkpt lat="21.991192" lon="104.739388">
<ele>136.494263</ele>
<time>2011-04-28T07:44:34Z</time>
<desc>lat.=21.991192, lon.=104.739388, Alt.=136.494263m. Speed=0.072000m/h.</desc>
<speed>0.020000</speed>
</trkpt>
<trkpt lat="21.991192" lon="104.739388">
<ele>136.486450</ele>
<time>2011-04-28T07:44:39Z</time>
<desc>lat.=21.991192, lon.=104.739388, Alt.=136.486450m. Speed=0.000000m/h.</desc>
<speed>0.000000</speed>
</trkpt>
<trkpt lat="21.991192" lon="104.739388">
<ele>136.494263</ele>
<time>2011-04-28T07:44:44Z</time>
<desc>lat.=21.991192, lon.=104.739388, Alt.=136.494263m. Speed=0.108000m/h.</desc>
<speed>0.030000</speed>
</trkpt>
<trkpt lat="21.991192" lon="104.739388">
<ele>136.525513</ele>
<time>2011-04-28T07:44:49Z</time>
<desc>lat.=21.991192, lon.=104.739388, Alt.=136.525513m. Speed=0.108000m/h.</desc>
<speed>0.030000</speed>
</trkpt>
<trkpt lat="21.991192" lon="104.739388">
<ele>136.545044</ele>
<time>2011-04-28T07:44:54Z</time>
<desc>lat.=21.991192, lon.=104.739388, Alt.=136.545044m. Speed=0.000000m/h.</desc>
<speed>0.000000</speed>
</trkpt>
<trkpt lat="21.991194" lon="104.739388">
<ele>136.560669</ele>
<time>2011-04-28T07:44:59Z</time>
<desc>lat.=21.991194, lon.=104.739388, Alt.=136.560669m. Speed=0.000000m/h.</desc>
<speed>0.000000</speed>
</trkpt>
<trkpt lat="21.991194" lon="104.739388">
<ele>136.568481</ele>
<time>2011-04-28T07:45:04Z</time>
<desc>lat.=21.991194, lon.=104.739388, Alt.=136.568481m. Speed=0.108000m/h.</desc>
<speed>0.030000</speed>
</trkpt>
<trkpt lat="21.991194" lon="104.739380">
<ele>136.580200</ele>
<time>2011-04-28T07:45:09Z</time>
<desc>lat.=21.991194, lon.=104.739380, Alt.=136.580200m. Speed=0.036000m/h.</desc>
<speed>0.010000</speed>
</trkpt>
<trkpt lat="21.991194" lon="104.739380">
<ele>136.611450</ele>
<time>2011-04-28T07:45:14Z</time>
<desc>lat.=21.991194, lon.=104.739380, Alt.=136.611450m. Speed=0.108000m/h.</desc>
<speed>0.030000</speed>
</trkpt>
<trkpt lat="21.991194" lon="104.739380">
<ele>136.693481</ele>
<time>2011-04-28T07:45:19Z</time>
<desc>lat.=21.991194, lon.=104.739380, Alt.=136.693481m. Speed=0.288000m/h.</desc>
<speed>0.080000</speed>
</trkpt>
<trkpt lat="21.991198" lon="104.739372">
<ele>136.865356</ele>
<time>2011-04-28T07:45:24Z</time>
<desc>lat.=21.991198, lon.=104.739372, Alt.=136.865356m. Speed=0.324000m/h.</desc>
<speed>0.090000</speed>
</trkpt>
<trkpt lat="21.991199" lon="104.739372">
<ele>137.119263</ele>
<time>2011-04-28T07:45:29Z</time>
<desc>lat.=21.991199, lon.=104.739372, Alt.=137.119263m. Speed=0.432000m/h.</desc>
<speed>0.120000</speed>
</trkpt>
<trkpt lat="21.991203" lon="104.739365">
<ele>137.373169</ele>
<time>2011-04-28T07:45:34Z</time>
<desc>lat.=21.991203, lon.=104.739365, Alt.=137.373169m. Speed=0.396000m/h.</desc>
<speed>0.110000</speed>
</trkpt>
<trkpt lat="21.991207" lon="104.739365">
<ele>137.615356</ele>
<time>2011-04-28T07:45:39Z</time>
<desc>lat.=21.991207, lon.=104.739365, Alt.=137.615356m. Speed=0.396000m/h.</desc>
<speed>0.110000</speed>
</trkpt>
<trkpt lat="21.991209" lon="104.739357">
<ele>137.838013</ele>
<time>2011-04-28T07:45:44Z</time>
<desc>lat.=21.991209, lon.=104.739357, Alt.=137.838013m. Speed=0.324000m/h.</desc>
<speed>0.090000</speed>
</trkpt>
<trkpt lat="21.991213" lon="104.739357">
<ele>138.064575</ele>
<time>2011-04-28T07:45:49Z</time>
<desc>lat.=21.991213, lon.=104.739357, Alt.=138.064575m. Speed=0.432000m/h.</desc>
<speed>0.120000</speed>
</trkpt>
<trkpt lat="21.991219" lon="104.739349">
<ele>138.326294</ele>
<time>2011-04-28T07:45:54Z</time>
<desc>lat.=21.991219, lon.=104.739349, Alt.=138.326294m. Speed=0.468000m/h.</desc>
<speed>0.130000</speed>
</trkpt>
<trkpt lat="21.991224" lon="104.739349">
<ele>138.650513</ele>
<time>2011-04-28T07:45:59Z</time>
<desc>lat.=21.991224, lon.=104.739349, Alt.=138.650513m. Speed=0.576000m/h.</desc>
<speed>0.160000</speed>
</trkpt>
<trkpt lat="21.991234" lon="104.739349">
<ele>139.091919</ele>
<time>2011-04-28T07:46:04Z</time>
<desc>lat.=21.991234, lon.=104.739349, Alt.=139.091919m. Speed=0.792000m/h.</desc>
<speed>0.220000</speed>
</trkpt>
<trkpt lat="21.991245" lon="104.739357">
<ele>139.611450</ele>
<time>2011-04-28T07:46:09Z</time>
<desc>lat.=21.991245, lon.=104.739357, Alt.=139.611450m. Speed=0.756000m/h.</desc>
<speed>0.210000</speed>
</trkpt>
<trkpt lat="21.991255" lon="104.739349">
<ele>140.177856</ele>
<time>2011-04-28T07:46:14Z</time>
<desc>lat.=21.991255, lon.=104.739349, Alt.=140.177856m. Speed=0.900000m/h.</desc>
<speed>0.250000</speed>
</trkpt>
<trkpt lat="21.991266" lon="104.739349">
<ele>140.752075</ele>
<time>2011-04-28T07:46:19Z</time>
<desc>lat.=21.991266, lon.=104.739349, Alt.=140.752075m. Speed=0.900000m/h.</desc>
<speed>0.250000</speed>
</trkpt>
<trkpt lat="21.991278" lon="104.739342">
<ele>141.365356</ele>
<time>2011-04-28T07:46:24Z</time>
<desc>lat.=21.991278, lon.=104.739342, Alt.=141.365356m. Speed=0.864000m/h.</desc>
<speed>0.240000</speed>
</trkpt>
<trkpt lat="21.991287" lon="104.739342">
<ele>141.959106</ele>
<time>2011-04-28T07:46:29Z</time>
<desc>lat.=21.991287, lon.=104.739342, Alt.=141.959106m. Speed=0.612000m/h.</desc>
<speed>0.170000</speed>
</trkpt>
<trkpt lat="21.991295" lon="104.739334">
<ele>142.525513</ele>
<time>2011-04-28T07:46:34Z</time>
<desc>lat.=21.991295, lon.=104.739334, Alt.=142.525513m. Speed=0.396000m/h.</desc>
<speed>0.110000</speed>
</trkpt>
<trkpt lat="21.991297" lon="104.739334">
<ele>143.017700</ele>
<time>2011-04-28T07:46:39Z</time>
<desc>lat.=21.991297, lon.=104.739334, Alt.=143.017700m. Speed=0.180000m/h.</desc>
<speed>0.050000</speed>
</trkpt>
<trkpt lat="21.991293" lon="104.739334">
<ele>143.392700</ele>
<time>2011-04-28T07:46:44Z</time>
<desc>lat.=21.991293, lon.=104.739334, Alt.=143.392700m. Speed=0.468000m/h.</desc>
<speed>0.130000</speed>
</trkpt>
<trkpt lat="21.991289" lon="104.739334">
<ele>143.677856</ele>
<time>2011-04-28T07:46:49Z</time>
<desc>lat.=21.991289, lon.=104.739334, Alt.=143.677856m. Speed=0.432000m/h.</desc>
<speed>0.120000</speed>
</trkpt>
<trkpt lat="21.991285" lon="104.739334">
<ele>143.931763</ele>
<time>2011-04-28T07:46:54Z</time>
<desc>lat.=21.991285, lon.=104.739334, Alt.=143.931763m. Speed=0.216000m/h.</desc>
<speed>0.060000</speed>
</trkpt>
<trkpt lat="21.991283" lon="104.739334">
<ele>144.201294</ele>
<time>2011-04-28T07:46:59Z</time>
<desc>lat.=21.991283, lon.=104.739334, Alt.=144.201294m. Speed=0.288000m/h.</desc>
<speed>0.080000</speed>
</trkpt>
<trkpt lat="21.991280" lon="104.739334">
<ele>144.548950</ele>
<time>2011-04-28T07:47:04Z</time>
<desc>lat.=21.991280, lon.=104.739334, Alt.=144.548950m. Speed=0.612000m/h.</desc>
<speed>0.170000</speed>
</trkpt>
<trkpt lat="21.991274" lon="104.739326">
<ele>144.943481</ele>
<time>2011-04-28T07:47:09Z</time>
<desc>lat.=21.991274, lon.=104.739326, Alt.=144.943481m. Speed=0.864000m/h.</desc>
<speed>0.240000</speed>
</trkpt>
<trkpt lat="21.991266" lon="104.739311">
<ele>145.380981</ele>
<time>2011-04-28T07:47:14Z</time>
<desc>lat.=21.991266, lon.=104.739311, Alt.=145.380981m. Speed=0.864000m/h.</desc>
<speed>0.240000</speed>
</trkpt>
<trkpt lat="21.991257" lon="104.739311">
<ele>145.834106</ele>
<time>2011-04-28T07:47:19Z</time>
<desc>lat.=21.991257, lon.=104.739311, Alt.=145.834106m. Speed=0.936000m/h.</desc>
<speed>0.260000</speed>
</trkpt>
<trkpt lat="21.991232" lon="104.739296">
<ele>145.849731</ele>
<time>2011-04-28T07:47:24Z</time>
<desc>lat.=21.991232, lon.=104.739296, Alt.=145.849731m. Speed=1.008000m/h.</desc>
<speed>0.280000</speed>
</trkpt>
<trkpt lat="21.991220" lon="104.739296">
<ele>145.869263</ele>
<time>2011-04-28T07:47:29Z</time>
<desc>lat.=21.991220, lon.=104.739296, Alt.=145.869263m. Speed=0.864000m/h.</desc>
<speed>0.240000</speed>
</trkpt>
<trkpt lat="21.991209" lon="104.739288">
<ele>146.029419</ele>
<time>2011-04-28T07:47:34Z</time>
<desc>lat.=21.991209, lon.=104.739288, Alt.=146.029419m. Speed=0.972000m/h.</desc>
<speed>0.270000</speed>
</trkpt>
<trkpt lat="21.991190" lon="104.739265">
<ele>144.810669</ele>
<time>2011-04-28T07:47:39Z</time>
<desc>lat.=21.991190, lon.=104.739265, Alt.=144.810669m. Speed=1.116000m/h.</desc>
<speed>0.310000</speed>
</trkpt>
<trkpt lat="21.991159" lon="104.739250">
<ele>143.013794</ele>
<time>2011-04-28T07:47:44Z</time>
<desc>lat.=21.991159, lon.=104.739250, Alt.=143.013794m. Speed=1.188000m/h.</desc>
<speed>0.330000</speed>
</trkpt>
<trkpt lat="21.991148" lon="104.739243">
<ele>141.810669</ele>
<time>2011-04-28T07:47:49Z</time>
<desc>lat.=21.991148, lon.=104.739243, Alt.=141.810669m. Speed=1.080000m/h.</desc>
<speed>0.300000</speed>
</trkpt>
<trkpt lat="21.991148" lon="104.739250">
<ele>140.728638</ele>
<time>2011-04-28T07:47:54Z</time>
<desc>lat.=21.991148, lon.=104.739250, Alt.=140.728638m. Speed=0.468000m/h.</desc>
<speed>0.130000</speed>
</trkpt>
<trkpt lat="21.991146" lon="104.739250">
<ele>140.295044</ele>
<time>2011-04-28T07:47:59Z</time>
<desc>lat.=21.991146, lon.=104.739250, Alt.=140.295044m. Speed=0.360000m/h.</desc>
<speed>0.100000</speed>
</trkpt>
<trkpt lat="21.991152" lon="104.739258">
<ele>139.709106</ele>
<time>2011-04-28T07:48:04Z</time>
<desc>lat.=21.991152, lon.=104.739258, Alt.=139.709106m. Speed=0.828000m/h.</desc>
<speed>0.230000</speed>
</trkpt>
<trkpt lat="21.991169" lon="104.739281">
<ele>138.267700</ele>
<time>2011-04-28T07:48:09Z</time>
<desc>lat.=21.991169, lon.=104.739281, Alt.=138.267700m. Speed=1.188000m/h.</desc>
<speed>0.330000</speed>
</trkpt>
<trkpt lat="21.991192" lon="104.739296">
<ele>136.134888</ele>
<time>2011-04-28T07:48:14Z</time>
<desc>lat.=21.991192, lon.=104.739296, Alt.=136.134888m. Speed=0.936000m/h.</desc>
<speed>0.260000</speed>
</trkpt>
<trkpt lat="21.991194" lon="104.739304">
<ele>134.795044</ele>
<time>2011-04-28T07:48:19Z</time>
<desc>lat.=21.991194, lon.=104.739304, Alt.=134.795044m. Speed=0.540000m/h.</desc>
<speed>0.150000</speed>
</trkpt>
<trkpt lat="21.991196" lon="104.739311">
<ele>133.236450</ele>
<time>2011-04-28T07:48:24Z</time>
<desc>lat.=21.991196, lon.=104.739311, Alt.=133.236450m. Speed=0.468000m/h.</desc>
<speed>0.130000</speed>
</trkpt>
<trkpt lat="21.991196" lon="104.739334">
<ele>131.857544</ele>
<time>2011-04-28T07:48:29Z</time>
<desc>lat.=21.991196, lon.=104.739334, Alt.=131.857544m. Speed=0.576000m/h.</desc>
<speed>0.160000</speed>
</trkpt>
<trkpt lat="21.991188" lon="104.739326">
<ele>130.681763</ele>
<time>2011-04-28T07:48:34Z</time>
<desc>lat.=21.991188, lon.=104.739326, Alt.=130.681763m. Speed=0.108000m/h.</desc>
<speed>0.030000</speed>
</trkpt>
<trkpt lat="21.991161" lon="104.739288">
<ele>129.380981</ele>
<time>2011-04-28T07:48:39Z</time>
<desc>lat.=21.991161, lon.=104.739288, Alt.=129.380981m. Speed=0.540000m/h.</desc>
<speed>0.150000</speed>
</trkpt>
<trkpt lat="21.991150" lon="104.739288">
<ele>128.009888</ele>
<time>2011-04-28T07:48:44Z</time>
<desc>lat.=21.991150, lon.=104.739288, Alt.=128.009888m. Speed=0.432000m/h.</desc>
<speed>0.120000</speed>
</trkpt>
<trkpt lat="21.991158" lon="104.739304">
<ele>125.797913</ele>
<time>2011-04-28T07:48:49Z</time>
<desc>lat.=21.991158, lon.=104.739304, Alt.=125.797913m. Speed=0.144000m/h.</desc>
<speed>0.040000</speed>
</trkpt>
<trkpt lat="21.991192" lon="104.739326">
<ele>123.592834</ele>
<time>2011-04-28T07:48:54Z</time>
<desc>lat.=21.991192, lon.=104.739326, Alt.=123.592834m. Speed=0.360000m/h.</desc>
<speed>0.100000</speed>
</trkpt>
<trkpt lat="21.991192" lon="104.739319">
<ele>122.991272</ele>
<time>2011-04-28T07:48:59Z</time>
<desc>lat.=21.991192, lon.=104.739319, Alt.=122.991272m. Speed=0.252000m/h.</desc>
<speed>0.070000</speed>
</trkpt>
<trkpt lat="21.991180" lon="104.739304">
<ele>122.118225</ele>
<time>2011-04-28T07:49:04Z</time>
<desc>lat.=21.991180, lon.=104.739304, Alt.=122.118225m. Speed=0.252000m/h.</desc>
<speed>0.070000</speed>
</trkpt>
<trkpt lat="21.991194" lon="104.739273">
<ele>122.301819</ele>
<time>2011-04-28T07:49:09Z</time>
<desc>lat.=21.991194, lon.=104.739273, Alt.=122.301819m. Speed=0.432000m/h.</desc>
<speed>0.120000</speed>
</trkpt>
<trkpt lat="21.991188" lon="104.739243">
<ele>122.278381</ele>
<time>2011-04-28T07:49:14Z</time>
<desc>lat.=21.991188, lon.=104.739243, Alt.=122.278381m. Speed=0.756000m/h.</desc>
<speed>0.210000</speed>
</trkpt>
<trkpt lat="21.991171" lon="104.739182">
<ele>122.206116</ele>
<time>2011-04-28T07:49:19Z</time>
<desc>lat.=21.991171, lon.=104.739182, Alt.=122.206116m. Speed=1.296000m/h.</desc>
<speed>0.360000</speed>
</trkpt>
<trkpt lat="21.991152" lon="104.739136">
<ele>122.012756</ele>
<time>2011-04-28T07:49:24Z</time>
<desc>lat.=21.991152, lon.=104.739136, Alt.=122.012756m. Speed=1.440000m/h.</desc>
<speed>0.400000</speed>
</trkpt>
<trkpt lat="21.991138" lon="104.739105">
<ele>121.448303</ele>
<time>2011-04-28T07:49:29Z</time>
<desc>lat.=21.991138, lon.=104.739105, Alt.=121.448303m. Speed=1.332000m/h.</desc>
<speed>0.370000</speed>
</trkpt>
<trkpt lat="21.991127" lon="104.739067">
<ele>121.872131</ele>
<time>2011-04-28T07:49:34Z</time>
<desc>lat.=21.991127, lon.=104.739067, Alt.=121.872131m. Speed=1.548000m/h.</desc>
<speed>0.430000</speed>
</trkpt>
<trkpt lat="21.991119" lon="104.739037">
<ele>122.165100</ele>
<time>2011-04-28T07:49:39Z</time>
<desc>lat.=21.991119, lon.=104.739037, Alt.=122.165100m. Speed=1.440000m/h.</desc>
<speed>0.400000</speed>
</trkpt>
<trkpt lat="21.991100" lon="104.739014">
<ele>122.725647</ele>
<time>2011-04-28T07:49:44Z</time>
<desc>lat.=21.991100, lon.=104.739014, Alt.=122.725647m. Speed=1.188000m/h.</desc>
<speed>0.330000</speed>
</trkpt>
<trkpt lat="21.991066" lon="104.739006">
<ele>122.676819</ele>
<time>2011-04-28T07:49:49Z</time>
<desc>lat.=21.991066, lon.=104.739006, Alt.=122.676819m. Speed=1.152000m/h.</desc>
<speed>0.320000</speed>
</trkpt>
<trkpt lat="21.991045" lon="104.739021">
<ele>122.555725</ele>
<time>2011-04-28T07:49:54Z</time>
<desc>lat.=21.991045, lon.=104.739021, Alt.=122.555725m. Speed=0.900000m/h.</desc>
<speed>0.250000</speed>
</trkpt>
<trkpt lat="21.991028" lon="104.739021">
<ele>121.971741</ele>
<time>2011-04-28T07:49:59Z</time>
<desc>lat.=21.991028, lon.=104.739021, Alt.=121.971741m. Speed=1.116000m/h.</desc>
<speed>0.310000</speed>
</trkpt>
<trkpt lat="21.991007" lon="104.739044">
<ele>122.555725</ele>
<time>2011-04-28T07:50:04Z</time>
<desc>lat.=21.991007, lon.=104.739044, Alt.=122.555725m. Speed=1.008000m/h.</desc>
<speed>0.280000</speed>
</trkpt>
<trkpt lat="21.990999" lon="104.739044">
<ele>122.305725</ele>
<time>2011-04-28T07:50:09Z</time>
<desc>lat.=21.990999, lon.=104.739044, Alt.=122.305725m. Speed=0.216000m/h.</desc>
<speed>0.060000</speed>
</trkpt>
<trkpt lat="21.991005" lon="104.739052">
<ele>122.170959</ele>
<time>2011-04-28T07:50:14Z</time>
<desc>lat.=21.991005, lon.=104.739052, Alt.=122.170959m. Speed=1.116000m/h.</desc>
<speed>0.310000</speed>
</trkpt>
<trkpt lat="21.991068" lon="104.739075">
<ele>123.120178</ele>
<time>2011-04-28T07:50:19Z</time>
<desc>lat.=21.991068, lon.=104.739075, Alt.=123.120178m. Speed=2.448000m/h.</desc>
<speed>0.680000</speed>
</trkpt>
<trkpt lat="21.991095" lon="104.739082">
<ele>123.831116</ele>
<time>2011-04-28T07:50:24Z</time>
<desc>lat.=21.991095, lon.=104.739082, Alt.=123.831116m. Speed=1.440000m/h.</desc>
<speed>0.400000</speed>
</trkpt>
<trkpt lat="21.991114" lon="104.739113">
<ele>125.930725</ele>
<time>2011-04-28T07:50:29Z</time>
<desc>lat.=21.991114, lon.=104.739113, Alt.=125.930725m. Speed=0.396000m/h.</desc>
<speed>0.110000</speed>
</trkpt>
<trkpt lat="21.991129" lon="104.739189">
<ele>126.807678</ele>
<time>2011-04-28T07:50:34Z</time>
<desc>lat.=21.991129, lon.=104.739189, Alt.=126.807678m. Speed=1.332000m/h.</desc>
<speed>0.370000</speed>
</trkpt>
<trkpt lat="21.991146" lon="104.739227">
<ele>127.665100</ele>
<time>2011-04-28T07:50:39Z</time>
<desc>lat.=21.991146, lon.=104.739227, Alt.=127.665100m. Speed=0.936000m/h.</desc>
<speed>0.260000</speed>
</trkpt>
<trkpt lat="21.991119" lon="104.739281">
<ele>127.840881</ele>
<time>2011-04-28T07:50:44Z</time>
<desc>lat.=21.991119, lon.=104.739281, Alt.=127.840881m. Speed=8.280000m/h.</desc>
<speed>2.300000</speed>
</trkpt>
<trkpt lat="21.990925" lon="104.739342">
<ele>127.540100</ele>
<time>2011-04-28T07:50:49Z</time>
<desc>lat.=21.990925, lon.=104.739342, Alt.=127.540100m. Speed=18.072001m/h.</desc>
<speed>5.020000</speed>
</trkpt>
<trkpt lat="21.990686" lon="104.739441">
<ele>123.924866</ele>
<time>2011-04-28T07:50:54Z</time>
<desc>lat.=21.990686, lon.=104.739441, Alt.=123.924866m. Speed=21.851999m/h.</desc>
<speed>6.070000</speed>
</trkpt>
<trkpt lat="21.990513" lon="104.739723">
<ele>120.190491</ele>
<time>2011-04-28T07:50:59Z</time>
<desc>lat.=21.990513, lon.=104.739723, Alt.=120.190491m. Speed=24.444000m/h.</desc>
<speed>6.790000</speed>
</trkpt>
<trkpt lat="21.990391" lon="104.739998">
<ele>112.684631</ele>
<time>2011-04-28T07:51:04Z</time>
<desc>lat.=21.990391, lon.=104.739998, Alt.=112.684631m. Speed=17.639999m/h.</desc>
<speed>4.900000</speed>
</trkpt>
<trkpt lat="21.990154" lon="104.740089">
<ele>109.100647</ele>
<time>2011-04-28T07:51:09Z</time>
<desc>lat.=21.990154, lon.=104.740089, Alt.=109.100647m. Speed=23.436001m/h.</desc>
<speed>6.510000</speed>
</trkpt>
<trkpt lat="21.989832" lon="104.740005">
<ele>103.938538</ele>
<time>2011-04-28T07:51:14Z</time>
<desc>lat.=21.989832, lon.=104.740005, Alt.=103.938538m. Speed=23.796000m/h.</desc>
<speed>6.610000</speed>
</trkpt>
<trkpt lat="21.989700" lon="104.739990">
<ele>101.993225</ele>
<time>2011-04-28T07:51:19Z</time>
<desc>lat.=21.989700, lon.=104.739990, Alt.=101.993225m. Speed=0.180000m/h.</desc>
<speed>0.050000</speed>
</trkpt>
<trkpt lat="21.989697" lon="104.739990">
<ele>104.653381</ele>
<time>2011-04-28T07:51:24Z</time>
<desc>lat.=21.989697, lon.=104.739990, Alt.=104.653381m. Speed=0.144000m/h.</desc>
<speed>0.040000</speed>
</trkpt>
<trkpt lat="21.989695" lon="104.739990">
<ele>104.358459</ele>
<time>2011-04-28T07:51:29Z</time>
<desc>lat.=21.989695, lon.=104.739990, Alt.=104.358459m. Speed=0.468000m/h.</desc>
<speed>0.130000</speed>
</trkpt>
<trkpt lat="21.989695" lon="104.739983">
<ele>104.225647</ele>
<time>2011-04-28T07:51:34Z</time>
<desc>lat.=21.989695, lon.=104.739983, Alt.=104.225647m. Speed=0.288000m/h.</desc>
<speed>0.080000</speed>
</trkpt>
<trkpt lat="21.989695" lon="104.739983">
<ele>104.211975</ele>
<time>2011-04-28T07:51:39Z</time>
<desc>lat.=21.989695, lon.=104.739983, Alt.=104.211975m. Speed=1.260000m/h.</desc>
<speed>0.350000</speed>
</trkpt>
<trkpt lat="21.989637" lon="104.740021">
<ele>104.350647</ele>
<time>2011-04-28T07:51:44Z</time>
<desc>lat.=21.989637, lon.=104.740021, Alt.=104.350647m. Speed=12.600000m/h.</desc>
<speed>3.500000</speed>
</trkpt>
<trkpt lat="21.989447" lon="104.740105">
<ele>104.567444</ele>
<time>2011-04-28T07:51:49Z</time>
<desc>lat.=21.989447, lon.=104.740105, Alt.=104.567444m. Speed=15.588000m/h.</desc>
<speed>4.330000</speed>
</trkpt>
<trkpt lat="21.989208" lon="104.740196">
<ele>103.639709</ele>
<time>2011-04-28T07:51:54Z</time>
<desc>lat.=21.989208, lon.=104.740196, Alt.=103.639709m. Speed=19.115999m/h.</desc>
<speed>5.310000</speed>
</trkpt>
<trkpt lat="21.988836" lon="104.740257">
<ele>101.077209</ele>
<time>2011-04-28T07:51:59Z</time>
<desc>lat.=21.988836, lon.=104.740257, Alt.=101.077209m. Speed=25.020000m/h.</desc>
<speed>6.950000</speed>
</trkpt>
<trkpt lat="21.988512" lon="104.740326">
<ele>101.840881</ele>
<time>2011-04-28T07:52:04Z</time>
<desc>lat.=21.988512, lon.=104.740326, Alt.=101.840881m. Speed=21.780001m/h.</desc>
<speed>6.050000</speed>
</trkpt>
<trkpt lat="21.988306" lon="104.740555">
<ele>101.657288</ele>
<time>2011-04-28T07:52:09Z</time>
<desc>lat.=21.988306, lon.=104.740555, Alt.=101.657288m. Speed=23.507999m/h.</desc>
<speed>6.530000</speed>
</trkpt>
<trkpt lat="21.988129" lon="104.740807">
<ele>101.053772</ele>
<time>2011-04-28T07:52:14Z</time>
<desc>lat.=21.988129, lon.=104.740807, Alt.=101.053772m. Speed=22.068001m/h.</desc>
<speed>6.130000</speed>
</trkpt>
<trkpt lat="21.987902" lon="104.741104">
<ele>100.995178</ele>
<time>2011-04-28T07:52:19Z</time>
<desc>lat.=21.987902, lon.=104.741104, Alt.=100.995178m. Speed=23.796000m/h.</desc>
<speed>6.610000</speed>
</trkpt>
<trkpt lat="21.987677" lon="104.741379">
<ele>100.489319</ele>
<time>2011-04-28T07:52:24Z</time>
<desc>lat.=21.987677, lon.=104.741379, Alt.=100.489319m. Speed=25.452000m/h.</desc>
<speed>7.070000</speed>
</trkpt>
<trkpt lat="21.987324" lon="104.741524">
<ele>98.596741</ele>
<time>2011-04-28T07:52:29Z</time>
<desc>lat.=21.987324, lon.=104.741524, Alt.=98.596741m. Speed=25.128000m/h.</desc>
<speed>6.980000</speed>
</trkpt>
<trkpt lat="21.987129" lon="104.741768">
<ele>96.202209</ele>
<time>2011-04-28T07:52:34Z</time>
<desc>lat.=21.987129, lon.=104.741768, Alt.=96.202209m. Speed=22.535999m/h.</desc>
<speed>6.260000</speed>
</trkpt>
<trkpt lat="21.987165" lon="104.742065">
<ele>92.975647</ele>
<time>2011-04-28T07:52:39Z</time>
<desc>lat.=21.987165, lon.=104.742065, Alt.=92.975647m. Speed=20.736000m/h.</desc>
<speed>5.760000</speed>
</trkpt>
<trkpt lat="21.987091" lon="104.742355">
<ele>90.612366</ele>
<time>2011-04-28T07:52:44Z</time>
<desc>lat.=21.987091, lon.=104.742355, Alt.=90.612366m. Speed=25.848000m/h.</desc>
<speed>7.180000</speed>
</trkpt>
<trkpt lat="21.986826" lon="104.742599">
<ele>88.149475</ele>
<time>2011-04-28T07:52:49Z</time>
<desc>lat.=21.986826, lon.=104.742599, Alt.=88.149475m. Speed=26.568001m/h.</desc>
<speed>7.380000</speed>
</trkpt>
<trkpt lat="21.986441" lon="104.742737">
<ele>85.219788</ele>
<time>2011-04-28T07:52:54Z</time>
<desc>lat.=21.986441, lon.=104.742737, Alt.=85.219788m. Speed=30.780001m/h.</desc>
<speed>8.550000</speed>
</trkpt>
<trkpt lat="21.986204" lon="104.743111">
<ele>82.135803</ele>
<time>2011-04-28T07:52:59Z</time>
<desc>lat.=21.986204, lon.=104.743111, Alt.=82.135803m. Speed=30.240000m/h.</desc>
<speed>8.400000</speed>
</trkpt>
<trkpt lat="21.986006" lon="104.743454">
<ele>79.612366</ele>
<time>2011-04-28T07:53:04Z</time>
<desc>lat.=21.986006, lon.=104.743454, Alt.=79.612366m. Speed=28.188000m/h.</desc>
<speed>7.830000</speed>
</trkpt>
<trkpt lat="21.985754" lon="104.743736">
<ele>77.243225</ele>
<time>2011-04-28T07:53:09Z</time>
<desc>lat.=21.985754, lon.=104.743736, Alt.=77.243225m. Speed=27.864000m/h.</desc>
<speed>7.740000</speed>
</trkpt>
<trkpt lat="21.985489" lon="104.744003">
<ele>75.243225</ele>
<time>2011-04-28T07:53:14Z</time>
<desc>lat.=21.985489, lon.=104.744003, Alt.=75.243225m. Speed=29.879999m/h.</desc>
<speed>8.300000</speed>
</trkpt>
<trkpt lat="21.985241" lon="104.744316">
<ele>73.135803</ele>
<time>2011-04-28T07:53:19Z</time>
<desc>lat.=21.985241, lon.=104.744316, Alt.=73.135803m. Speed=29.195999m/h.</desc>
<speed>8.110000</speed>
</trkpt>
<trkpt lat="21.984968" lon="104.744568">
<ele>71.165100</ele>
<time>2011-04-28T07:53:24Z</time>
<desc>lat.=21.984968, lon.=104.744568, Alt.=71.165100m. Speed=28.188000m/h.</desc>
<speed>7.830000</speed>
</trkpt>
<trkpt lat="21.984676" lon="104.744781">
<ele>69.911194</ele>
<time>2011-04-28T07:53:29Z</time>
<desc>lat.=21.984676, lon.=104.744781, Alt.=69.911194m. Speed=25.920000m/h.</desc>
<speed>7.200000</speed>
</trkpt>
<trkpt lat="21.984406" lon="104.744949">
<ele>68.202209</ele>
<time>2011-04-28T07:53:34Z</time>
<desc>lat.=21.984406, lon.=104.744949, Alt.=68.202209m. Speed=23.796000m/h.</desc>
<speed>6.610000</speed>
</trkpt>
<trkpt lat="21.984171" lon="104.745125">
<ele>68.251038</ele>
<time>2011-04-28T07:53:39Z</time>
<desc>lat.=21.984171, lon.=104.745125, Alt.=68.251038m. Speed=20.844000m/h.</desc>
<speed>5.790000</speed>
</trkpt>
<trkpt lat="21.983938" lon="104.745277">
<ele>68.295959</ele>
<time>2011-04-28T07:53:44Z</time>
<desc>lat.=21.983938, lon.=104.745277, Alt.=68.295959m. Speed=21.816000m/h.</desc>
<speed>6.060000</speed>
</trkpt>
<trkpt lat="21.983713" lon="104.745415">
<ele>68.688538</ele>
<time>2011-04-28T07:53:49Z</time>
<desc>lat.=21.983713, lon.=104.745415, Alt.=68.688538m. Speed=20.375999m/h.</desc>
<speed>5.660000</speed>
</trkpt>
<trkpt lat="21.983484" lon="104.745583">
<ele>68.911194</ele>
<time>2011-04-28T07:53:54Z</time>
<desc>lat.=21.983484, lon.=104.745583, Alt.=68.911194m. Speed=21.059999m/h.</desc>
<speed>5.850000</speed>
</trkpt>
<trkpt lat="21.983271" lon="104.745758">
<ele>69.081116</ele>
<time>2011-04-28T07:53:59Z</time>
<desc>lat.=21.983271, lon.=104.745758, Alt.=69.081116m. Speed=20.268000m/h.</desc>
<speed>5.630000</speed>
</trkpt>
<trkpt lat="21.983002" lon="104.745972">
<ele>67.967834</ele>
<time>2011-04-28T07:54:04Z</time>
<desc>lat.=21.983002, lon.=104.745972, Alt.=67.967834m. Speed=25.632000m/h.</desc>
<speed>7.120000</speed>
</trkpt>
<trkpt lat="21.982733" lon="104.746208">
<ele>67.047913</ele>
<time>2011-04-28T07:54:09Z</time>
<desc>lat.=21.982733, lon.=104.746208, Alt.=67.047913m. Speed=26.172001m/h.</desc>
<speed>7.270000</speed>
</trkpt>
<trkpt lat="21.982565" lon="104.746452">
<ele>67.405334</ele>
<time>2011-04-28T07:54:14Z</time>
<desc>lat.=21.982565, lon.=104.746452, Alt.=67.405334m. Speed=22.032000m/h.</desc>
<speed>6.120000</speed>
</trkpt>
<trkpt lat="21.982399" lon="104.746719">
<ele>68.301819</ele>
<time>2011-04-28T07:54:19Z</time>
<desc>lat.=21.982399, lon.=104.746719, Alt.=68.301819m. Speed=17.172001m/h.</desc>
<speed>4.770000</speed>
</trkpt>
<trkpt lat="21.982244" lon="104.746918">
<ele>68.780334</ele>
<time>2011-04-28T07:54:24Z</time>
<desc>lat.=21.982244, lon.=104.746918, Alt.=68.780334m. Speed=15.588000m/h.</desc>
<speed>4.330000</speed>
</trkpt>
<trkpt lat="21.982122" lon="104.747086">
<ele>68.440491</ele>
<time>2011-04-28T07:54:29Z</time>
<desc>lat.=21.982122, lon.=104.747086, Alt.=68.440491m. Speed=12.240000m/h.</desc>
<speed>3.400000</speed>
</trkpt>
<trkpt lat="21.982002" lon="104.747223">
<ele>67.913147</ele>
<time>2011-04-28T07:54:34Z</time>
<desc>lat.=21.982002, lon.=104.747223, Alt.=67.913147m. Speed=14.652000m/h.</desc>
<speed>4.070000</speed>
</trkpt>
<trkpt lat="21.981840" lon="104.747353">
<ele>69.514709</ele>
<time>2011-04-28T07:54:39Z</time>
<desc>lat.=21.981840, lon.=104.747353, Alt.=69.514709m. Speed=14.904000m/h.</desc>
<speed>4.140000</speed>
</trkpt>
<trkpt lat="21.981686" lon="104.747467">
<ele>70.590881</ele>
<time>2011-04-28T07:54:44Z</time>
<desc>lat.=21.981686, lon.=104.747467, Alt.=70.590881m. Speed=16.775999m/h.</desc>
<speed>4.660000</speed>
</trkpt>
<trkpt lat="21.981504" lon="104.747543">
<ele>70.856506</ele>
<time>2011-04-28T07:54:49Z</time>
<desc>lat.=21.981504, lon.=104.747543, Alt.=70.856506m. Speed=15.696000m/h.</desc>
<speed>4.360000</speed>
</trkpt>
<trkpt lat="21.981306" lon="104.747581">
<ele>69.790100</ele>
<time>2011-04-28T07:54:54Z</time>
<desc>lat.=21.981306, lon.=104.747581, Alt.=69.790100m. Speed=16.056000m/h.</desc>
<speed>4.460000</speed>
</trkpt>
<trkpt lat="21.981102" lon="104.747643">
<ele>69.747131</ele>
<time>2011-04-28T07:54:59Z</time>
<desc>lat.=21.981102, lon.=104.747643, Alt.=69.747131m. Speed=14.652000m/h.</desc>
<speed>4.070000</speed>
</trkpt>
<trkpt lat="21.980921" lon="104.747726">
<ele>69.002991</ele>
<time>2011-04-28T07:55:04Z</time>
<desc>lat.=21.980921, lon.=104.747726, Alt.=69.002991m. Speed=14.472000m/h.</desc>
<speed>4.020000</speed>
</trkpt>
<trkpt lat="21.980707" lon="104.747849">
<ele>70.051819</ele>
<time>2011-04-28T07:55:09Z</time>
<desc>lat.=21.980707, lon.=104.747849, Alt.=70.051819m. Speed=18.576000m/h.</desc>
<speed>5.160000</speed>
</trkpt>
<trkpt lat="21.980444" lon="104.747917">
<ele>67.780334</ele>
<time>2011-04-28T07:55:14Z</time>
<desc>lat.=21.980444, lon.=104.747917, Alt.=67.780334m. Speed=18.792000m/h.</desc>
<speed>5.220000</speed>
</trkpt>
<trkpt lat="21.980223" lon="104.747932">
<ele>64.169006</ele>
<time>2011-04-28T07:55:19Z</time>
<desc>lat.=21.980223, lon.=104.747932, Alt.=64.169006m. Speed=18.216000m/h.</desc>
<speed>5.060000</speed>
</trkpt>
<trkpt lat="21.979988" lon="104.747948">
<ele>61.825714</ele>
<time>2011-04-28T07:55:24Z</time>
<desc>lat.=21.979988, lon.=104.747948, Alt.=61.825714m. Speed=16.955999m/h.</desc>
<speed>4.710000</speed>
</trkpt>
<trkpt lat="21.979771" lon="104.747932">
<ele>62.206573</ele>
<time>2011-04-28T07:55:29Z</time>
<desc>lat.=21.979771, lon.=104.747932, Alt.=62.206573m. Speed=16.955999m/h.</desc>
<speed>4.710000</speed>
</trkpt>
<trkpt lat="21.979576" lon="104.747833">
<ele>65.473694</ele>
<time>2011-04-28T07:55:34Z</time>
<desc>lat.=21.979576, lon.=104.747833, Alt.=65.473694m. Speed=17.316000m/h.</desc>
<speed>4.810000</speed>
</trkpt>
<trkpt lat="21.979334" lon="104.747688">
<ele>67.430725</ele>
<time>2011-04-28T07:55:39Z</time>
<desc>lat.=21.979334, lon.=104.747688, Alt.=67.430725m. Speed=21.816000m/h.</desc>
<speed>6.060000</speed>
</trkpt>
<trkpt lat="21.979031" lon="104.747711">
<ele>68.790100</ele>
<time>2011-04-28T07:55:44Z</time>
<desc>lat.=21.979031, lon.=104.747711, Alt.=68.790100m. Speed=28.691999m/h.</desc>
<speed>7.970000</speed>
</trkpt>
<trkpt lat="21.978716" lon="104.747978">
<ele>67.196350</ele>
<time>2011-04-28T07:55:49Z</time>
<desc>lat.=21.978716, lon.=104.747978, Alt.=67.196350m. Speed=32.832001m/h.</desc>
<speed>9.120000</speed>
</trkpt>
<trkpt lat="21.978449" lon="104.748268">
<ele>67.014709</ele>
<time>2011-04-28T07:55:54Z</time>
<desc>lat.=21.978449, lon.=104.748268, Alt.=67.014709m. Speed=25.524000m/h.</desc>
<speed>7.090000</speed>
</trkpt>
<trkpt lat="21.978270" lon="104.748451">
<ele>66.995178</ele>
<time>2011-04-28T07:55:59Z</time>
<desc>lat.=21.978270, lon.=104.748451, Alt.=66.995178m. Speed=13.716000m/h.</desc>
<speed>3.810000</speed>
</trkpt>
<trkpt lat="21.978176" lon="104.748543">
<ele>68.180725</ele>
<time>2011-04-28T07:56:04Z</time>
<desc>lat.=21.978176, lon.=104.748543, Alt.=68.180725m. Speed=6.264000m/h.</desc>
<speed>1.740000</speed>
</trkpt>
<trkpt lat="21.978062" lon="104.748680">
<ele>69.040100</ele>
<time>2011-04-28T07:56:09Z</time>
<desc>lat.=21.978062, lon.=104.748680, Alt.=69.040100m. Speed=12.672000m/h.</desc>
<speed>3.520000</speed>
</trkpt>
<trkpt lat="21.977940" lon="104.748856">
<ele>69.733459</ele>
<time>2011-04-28T07:56:14Z</time>
<desc>lat.=21.977940, lon.=104.748856, Alt.=69.733459m. Speed=11.304000m/h.</desc>
<speed>3.140000</speed>
</trkpt>
<trkpt lat="21.977844" lon="104.749054">
<ele>69.469788</ele>
<time>2011-04-28T07:56:19Z</time>
<desc>lat.=21.977844, lon.=104.749054, Alt.=69.469788m. Speed=16.091999m/h.</desc>
<speed>4.470000</speed>
</trkpt>
<trkpt lat="21.977785" lon="104.749283">
<ele>69.395569</ele>
<time>2011-04-28T07:56:24Z</time>
<desc>lat.=21.977785, lon.=104.749283, Alt.=69.395569m. Speed=18.900000m/h.</desc>
<speed>5.250000</speed>
</trkpt>
<trkpt lat="21.977682" lon="104.749535">
<ele>70.075256</ele>
<time>2011-04-28T07:56:29Z</time>
<desc>lat.=21.977682, lon.=104.749535, Alt.=70.075256m. Speed=18.576000m/h.</desc>
<speed>5.160000</speed>
</trkpt>
<trkpt lat="21.977501" lon="104.749748">
<ele>69.422913</ele>
<time>2011-04-28T07:56:34Z</time>
<desc>lat.=21.977501, lon.=104.749748, Alt.=69.422913m. Speed=23.004000m/h.</desc>
<speed>6.390000</speed>
</trkpt>
<trkpt lat="21.977224" lon="104.749901">
<ele>69.510803</ele>
<time>2011-04-28T07:56:39Z</time>
<desc>lat.=21.977224, lon.=104.749901, Alt.=69.510803m. Speed=25.559999m/h.</desc>
<speed>7.100000</speed>
</trkpt>
<trkpt lat="21.976931" lon="104.750076">
<ele>69.385803</ele>
<time>2011-04-28T07:56:44Z</time>
<desc>lat.=21.976931, lon.=104.750076, Alt.=69.385803m. Speed=26.747999m/h.</desc>
<speed>7.430000</speed>
</trkpt>
<trkpt lat="21.976633" lon="104.750328">
<ele>68.596741</ele>
<time>2011-04-28T07:56:49Z</time>
<desc>lat.=21.976633, lon.=104.750328, Alt.=68.596741m. Speed=29.771999m/h.</desc>
<speed>8.270000</speed>
</trkpt>
<trkpt lat="21.976294" lon="104.750648">
<ele>68.456116</ele>
<time>2011-04-28T07:56:54Z</time>
<desc>lat.=21.976294, lon.=104.750648, Alt.=68.456116m. Speed=31.247999m/h.</desc>
<speed>8.680000</speed>
</trkpt>
<trkpt lat="21.975967" lon="104.750862">
<ele>68.522522</ele>
<time>2011-04-28T07:56:59Z</time>
<desc>lat.=21.975967, lon.=104.750862, Alt.=68.522522m. Speed=26.100000m/h.</desc>
<speed>7.250000</speed>
</trkpt>
<trkpt lat="21.975653" lon="104.750809">
<ele>66.794006</ele>
<time>2011-04-28T07:57:04Z</time>
<desc>lat.=21.975653, lon.=104.750809, Alt.=66.794006m. Speed=23.040001m/h.</desc>
<speed>6.400000</speed>
</trkpt>
<trkpt lat="21.975401" lon="104.750702">
<ele>65.155334</ele>
<time>2011-04-28T07:57:09Z</time>
<desc>lat.=21.975401, lon.=104.750702, Alt.=65.155334m. Speed=15.660000m/h.</desc>
<speed>4.350000</speed>
</trkpt>
<trkpt lat="21.975214" lon="104.750549">
<ele>65.719788</ele>
<time>2011-04-28T07:57:14Z</time>
<desc>lat.=21.975214, lon.=104.750549, Alt.=65.719788m. Speed=13.788000m/h.</desc>
<speed>3.830000</speed>
</trkpt>
<trkpt lat="21.975086" lon="104.750420">
<ele>67.176819</ele>
<time>2011-04-28T07:57:19Z</time>
<desc>lat.=21.975086, lon.=104.750420, Alt.=67.176819m. Speed=13.068000m/h.</desc>
<speed>3.630000</speed>
</trkpt>
<trkpt lat="21.974974" lon="104.750290">
<ele>67.956116</ele>
<time>2011-04-28T07:57:24Z</time>
<desc>lat.=21.974974, lon.=104.750290, Alt.=67.956116m. Speed=9.396000m/h.</desc>
<speed>2.610000</speed>
</trkpt>
<trkpt lat="21.974831" lon="104.750229">
<ele>67.565491</ele>
<time>2011-04-28T07:57:29Z</time>
<desc>lat.=21.974831, lon.=104.750229, Alt.=67.565491m. Speed=11.952000m/h.</desc>
<speed>3.320000</speed>
</trkpt>
<trkpt lat="21.974684" lon="104.750244">
<ele>67.835022</ele>
<time>2011-04-28T07:57:34Z</time>
<desc>lat.=21.974684, lon.=104.750244, Alt.=67.835022m. Speed=10.332000m/h.</desc>
<speed>2.870000</speed>
</trkpt>
<trkpt lat="21.974497" lon="104.750305">
<ele>67.182678</ele>
<time>2011-04-28T07:57:39Z</time>
<desc>lat.=21.974497, lon.=104.750305, Alt.=67.182678m. Speed=13.788000m/h.</desc>
<speed>3.830000</speed>
</trkpt>
<trkpt lat="21.974281" lon="104.750473">
<ele>64.598694</ele>
<time>2011-04-28T07:57:44Z</time>
<desc>lat.=21.974281, lon.=104.750473, Alt.=64.598694m. Speed=19.260000m/h.</desc>
<speed>5.350000</speed>
</trkpt>
<trkpt lat="21.974022" lon="104.750610">
<ele>65.239319</ele>
<time>2011-04-28T07:57:49Z</time>
<desc>lat.=21.974022, lon.=104.750610, Alt.=65.239319m. Speed=18.360001m/h.</desc>
<speed>5.100000</speed>
</trkpt>
<trkpt lat="21.973825" lon="104.750710">
<ele>66.516663</ele>
<time>2011-04-28T07:57:54Z</time>
<desc>lat.=21.973825, lon.=104.750710, Alt.=66.516663m. Speed=10.476000m/h.</desc>
<speed>2.910000</speed>
</trkpt>
<trkpt lat="21.973703" lon="104.750771">
<ele>67.356506</ele>
<time>2011-04-28T07:57:59Z</time>
<desc>lat.=21.973703, lon.=104.750771, Alt.=67.356506m. Speed=8.892000m/h.</desc>
<speed>2.470000</speed>
</trkpt>
<trkpt lat="21.973593" lon="104.750809">
<ele>68.540100</ele>
<time>2011-04-28T07:58:04Z</time>
<desc>lat.=21.973593, lon.=104.750809, Alt.=68.540100m. Speed=10.368000m/h.</desc>
<speed>2.880000</speed>
</trkpt>
<trkpt lat="21.973515" lon="104.750847">
<ele>69.106506</ele>
<time>2011-04-28T07:58:09Z</time>
<desc>lat.=21.973515, lon.=104.750847, Alt.=69.106506m. Speed=3.276000m/h.</desc>
<speed>0.910000</speed>
</trkpt>
<trkpt lat="21.973448" lon="104.750893">
<ele>68.963928</ele>
<time>2011-04-28T07:58:14Z</time>
<desc>lat.=21.973448, lon.=104.750893, Alt.=68.963928m. Speed=7.164000m/h.</desc>
<speed>1.990000</speed>
</trkpt>
<trkpt lat="21.973335" lon="104.750923">
<ele>69.727600</ele>
<time>2011-04-28T07:58:19Z</time>
<desc>lat.=21.973335, lon.=104.750923, Alt.=69.727600m. Speed=9.720000m/h.</desc>
<speed>2.700000</speed>
</trkpt>
<trkpt lat="21.973219" lon="104.750969">
<ele>71.725647</ele>
<time>2011-04-28T07:58:24Z</time>
<desc>lat.=21.973219, lon.=104.750969, Alt.=71.725647m. Speed=7.452000m/h.</desc>
<speed>2.070000</speed>
</trkpt>
<trkpt lat="21.973122" lon="104.751015">
<ele>73.471741</ele>
<time>2011-04-28T07:58:29Z</time>
<desc>lat.=21.973122, lon.=104.751015, Alt.=73.471741m. Speed=7.812000m/h.</desc>
<speed>2.170000</speed>
</trkpt>
<trkpt lat="21.973000" lon="104.751083">
<ele>75.825256</ele>
<time>2011-04-28T07:58:34Z</time>
<desc>lat.=21.973000, lon.=104.751083, Alt.=75.825256m. Speed=9.936000m/h.</desc>
<speed>2.760000</speed>
</trkpt>
<trkpt lat="21.972891" lon="104.751137">
<ele>77.518616</ele>
<time>2011-04-28T07:58:39Z</time>
<desc>lat.=21.972891, lon.=104.751137, Alt.=77.518616m. Speed=6.660000m/h.</desc>
<speed>1.850000</speed>
</trkpt>
<trkpt lat="21.972826" lon="104.751175">
<ele>80.397522</ele>
<time>2011-04-28T07:58:44Z</time>
<desc>lat.=21.972826, lon.=104.751175, Alt.=80.397522m. Speed=3.996000m/h.</desc>
<speed>1.110000</speed>
</trkpt>
<trkpt lat="21.972771" lon="104.751198">
<ele>80.194397</ele>
<time>2011-04-28T07:58:49Z</time>
<desc>lat.=21.972771, lon.=104.751198, Alt.=80.194397m. Speed=3.420000m/h.</desc>
<speed>0.950000</speed>
</trkpt>
<trkpt lat="21.972706" lon="104.751236">
<ele>80.151428</ele>
<time>2011-04-28T07:58:54Z</time>
<desc>lat.=21.972706, lon.=104.751236, Alt.=80.151428m. Speed=3.528000m/h.</desc>
<speed>0.980000</speed>
</trkpt>
<trkpt lat="21.972652" lon="104.751320">
<ele>80.055725</ele>
<time>2011-04-28T07:58:59Z</time>
<desc>lat.=21.972652, lon.=104.751320, Alt.=80.055725m. Speed=5.112000m/h.</desc>
<speed>1.420000</speed>
</trkpt>
<trkpt lat="21.972620" lon="104.751350">
<ele>80.549866</ele>
<time>2011-04-28T07:59:04Z</time>
<desc>lat.=21.972620, lon.=104.751350, Alt.=80.549866m. Speed=1.044000m/h.</desc>
<speed>0.290000</speed>
</trkpt>
<trkpt lat="21.972616" lon="104.751350">
<ele>80.993225</ele>
<time>2011-04-28T07:59:09Z</time>
<desc>lat.=21.972616, lon.=104.751350, Alt.=80.993225m. Speed=0.180000m/h.</desc>
<speed>0.050000</speed>
</trkpt>
<trkpt lat="21.972618" lon="104.751350">
<ele>81.106506</ele>
<time>2011-04-28T07:59:14Z</time>
<desc>lat.=21.972618, lon.=104.751350, Alt.=81.106506m. Speed=0.216000m/h.</desc>
<speed>0.060000</speed>
</trkpt>
<trkpt lat="21.972616" lon="104.751350">
<ele>81.131897</ele>
<time>2011-04-28T07:59:19Z</time>
<desc>lat.=21.972616, lon.=104.751350, Alt.=81.131897m. Speed=0.324000m/h.</desc>
<speed>0.090000</speed>
</trkpt>
<trkpt lat="21.972618" lon="104.751343">
<ele>81.159241</ele>
<time>2011-04-28T07:59:24Z</time>
<desc>lat.=21.972618, lon.=104.751343, Alt.=81.159241m. Speed=0.432000m/h.</desc>
<speed>0.120000</speed>
</trkpt>
<trkpt lat="21.972620" lon="104.751343">
<ele>81.176819</ele>
<time>2011-04-28T07:59:29Z</time>
<desc>lat.=21.972620, lon.=104.751343, Alt.=81.176819m. Speed=0.504000m/h.</desc>
<speed>0.140000</speed>
</trkpt>
<trkpt lat="21.972624" lon="104.751350">
<ele>81.202209</ele>
<time>2011-04-28T07:59:34Z</time>
<desc>lat.=21.972624, lon.=104.751350, Alt.=81.202209m. Speed=0.072000m/h.</desc>
<speed>0.020000</speed>
</trkpt>
<trkpt lat="21.972624" lon="104.751350">
<ele>81.221741</ele>
<time>2011-04-28T07:59:39Z</time>
<desc>lat.=21.972624, lon.=104.751350, Alt.=81.221741m. Speed=0.612000m/h.</desc>
<speed>0.170000</speed>
</trkpt>
<trkpt lat="21.972626" lon="104.751350">
<ele>81.256897</ele>
<time>2011-04-28T07:59:44Z</time>
<desc>lat.=21.972626, lon.=104.751350, Alt.=81.256897m. Speed=0.144000m/h.</desc>
<speed>0.040000</speed>
</trkpt>
<trkpt lat="21.972626" lon="104.751350">
<ele>81.278381</ele>
<time>2011-04-28T07:59:49Z</time>
<desc>lat.=21.972626, lon.=104.751350, Alt.=81.278381m. Speed=0.792000m/h.</desc>
<speed>0.220000</speed>
</trkpt>
<trkpt lat="21.972626" lon="104.751358">
<ele>81.297913</ele>
<time>2011-04-28T07:59:54Z</time>
<desc>lat.=21.972626, lon.=104.751358, Alt.=81.297913m. Speed=0.396000m/h.</desc>
<speed>0.110000</speed>
</trkpt>
<trkpt lat="21.972626" lon="104.751358">
<ele>81.295959</ele>
<time>2011-04-28T07:59:59Z</time>
<desc>lat.=21.972626, lon.=104.751358, Alt.=81.295959m. Speed=0.360000m/h.</desc>
<speed>0.100000</speed>
</trkpt>
<trkpt lat="21.972609" lon="104.751366">
<ele>81.305725</ele>
<time>2011-04-28T08:00:04Z</time>
<desc>lat.=21.972609, lon.=104.751366, Alt.=81.305725m. Speed=4.248000m/h.</desc>
<speed>1.180000</speed>
</trkpt>
<trkpt lat="21.972506" lon="104.751457">
<ele>81.083069</ele>
<time>2011-04-28T08:00:09Z</time>
<desc>lat.=21.972506, lon.=104.751457, Alt.=81.083069m. Speed=9.792000m/h.</desc>
<speed>2.720000</speed>
</trkpt>
<trkpt lat="21.972368" lon="104.751564">
<ele>80.409241</ele>
<time>2011-04-28T08:00:14Z</time>
<desc>lat.=21.972368, lon.=104.751564, Alt.=80.409241m. Speed=12.240000m/h.</desc>
<speed>3.400000</speed>
</trkpt>
<trkpt lat="21.972210" lon="104.751701">
<ele>81.221741</ele>
<time>2011-04-28T08:00:19Z</time>
<desc>lat.=21.972210, lon.=104.751701, Alt.=81.221741m. Speed=18.288000m/h.</desc>
<speed>5.080000</speed>
</trkpt>
<trkpt lat="21.971992" lon="104.751907">
<ele>80.606506</ele>
<time>2011-04-28T08:00:24Z</time>
<desc>lat.=21.971992, lon.=104.751907, Alt.=80.606506m. Speed=22.535999m/h.</desc>
<speed>6.260000</speed>
</trkpt>
<trkpt lat="21.971743" lon="104.752159">
<ele>76.471741</ele>
<time>2011-04-28T08:00:29Z</time>
<desc>lat.=21.971743, lon.=104.752159, Alt.=76.471741m. Speed=24.660000m/h.</desc>
<speed>6.850000</speed>
</trkpt>
<trkpt lat="21.971451" lon="104.752434">
<ele>72.989319</ele>
<time>2011-04-28T08:00:34Z</time>
<desc>lat.=21.971451, lon.=104.752434, Alt.=72.989319m. Speed=30.275999m/h.</desc>
<speed>8.410000</speed>
</trkpt>
<trkpt lat="21.971138" lon="104.752716">
<ele>72.905334</ele>
<time>2011-04-28T08:00:39Z</time>
<desc>lat.=21.971138, lon.=104.752716, Alt.=72.905334m. Speed=31.320000m/h.</desc>
<speed>8.700000</speed>
</trkpt>
<trkpt lat="21.970892" lon="104.752975">
<ele>68.844788</ele>
<time>2011-04-28T08:00:44Z</time>
<desc>lat.=21.970892, lon.=104.752975, Alt.=68.844788m. Speed=22.212000m/h.</desc>
<speed>6.170000</speed>
</trkpt>
<trkpt lat="21.970842" lon="104.753326">
<ele>63.480988</ele>
<time>2011-04-28T08:00:49Z</time>
<desc>lat.=21.970842, lon.=104.753326, Alt.=63.480988m. Speed=23.112000m/h.</desc>
<speed>6.420000</speed>
</trkpt>
<trkpt lat="21.970861" lon="104.753685">
<ele>61.570831</ele>
<time>2011-04-28T08:00:54Z</time>
<desc>lat.=21.970861, lon.=104.753685, Alt.=61.570831m. Speed=24.660000m/h.</desc>
<speed>6.850000</speed>
</trkpt>
<trkpt lat="21.970888" lon="104.754021">
<ele>60.052277</ele>
<time>2011-04-28T08:00:59Z</time>
<desc>lat.=21.970888, lon.=104.754021, Alt.=60.052277m. Speed=23.436001m/h.</desc>
<speed>6.510000</speed>
</trkpt>
<trkpt lat="21.970901" lon="104.754326">
<ele>60.991730</ele>
<time>2011-04-28T08:01:04Z</time>
<desc>lat.=21.970901, lon.=104.754326, Alt.=60.991730m. Speed=19.476000m/h.</desc>
<speed>5.410000</speed>
</trkpt>
<trkpt lat="21.970915" lon="104.754570">
<ele>62.405792</ele>
<time>2011-04-28T08:01:09Z</time>
<desc>lat.=21.970915, lon.=104.754570, Alt.=62.405792m. Speed=16.740000m/h.</desc>
<speed>4.650000</speed>
</trkpt>
<trkpt lat="21.970907" lon="104.754799">
<ele>62.378448</ele>
<time>2011-04-28T08:01:14Z</time>
<desc>lat.=21.970907, lon.=104.754799, Alt.=62.378448m. Speed=15.156000m/h.</desc>
<speed>4.210000</speed>
</trkpt>
<trkpt lat="21.970858" lon="104.754951">
<ele>62.626495</ele>
<time>2011-04-28T08:01:19Z</time>
<desc>lat.=21.970858, lon.=104.754951, Alt.=62.626495m. Speed=9.756000m/h.</desc>
<speed>2.710000</speed>
</trkpt>
<trkpt lat="21.970781" lon="104.755074">
<ele>62.721222</ele>
<time>2011-04-28T08:01:24Z</time>
<desc>lat.=21.970781, lon.=104.755074, Alt.=62.721222m. Speed=11.952000m/h.</desc>
<speed>3.320000</speed>
</trkpt>
<trkpt lat="21.970617" lon="104.755211">
<ele>61.863800</ele>
<time>2011-04-28T08:01:29Z</time>
<desc>lat.=21.970617, lon.=104.755211, Alt.=61.863800m. Speed=15.588000m/h.</desc>
<speed>4.330000</speed>
</trkpt>
<trkpt lat="21.970482" lon="104.755341">
<ele>61.354034</ele>
<time>2011-04-28T08:01:34Z</time>
<desc>lat.=21.970482, lon.=104.755341, Alt.=61.354034m. Speed=13.392000m/h.</desc>
<speed>3.720000</speed>
</trkpt>
<trkpt lat="21.970360" lon="104.755463">
<ele>61.322784</ele>
<time>2011-04-28T08:01:39Z</time>
<desc>lat.=21.970360, lon.=104.755463, Alt.=61.322784m. Speed=9.180000m/h.</desc>
<speed>2.550000</speed>
</trkpt>
<trkpt lat="21.970259" lon="104.755547">
<ele>62.777863</ele>
<time>2011-04-28T08:01:44Z</time>
<desc>lat.=21.970259, lon.=104.755547, Alt.=62.777863m. Speed=12.348000m/h.</desc>
<speed>3.430000</speed>
</trkpt>
<trkpt lat="21.970119" lon="104.755653">
<ele>64.065491</ele>
<time>2011-04-28T08:01:49Z</time>
<desc>lat.=21.970119, lon.=104.755653, Alt.=64.065491m. Speed=12.888000m/h.</desc>
<speed>3.580000</speed>
</trkpt>
<trkpt lat="21.969980" lon="104.755753">
<ele>65.366272</ele>
<time>2011-04-28T08:01:54Z</time>
<desc>lat.=21.969980, lon.=104.755753, Alt.=65.366272m. Speed=9.396000m/h.</desc>
<speed>2.610000</speed>
</trkpt>
<trkpt lat="21.969847" lon="104.755836">
<ele>65.442444</ele>
<time>2011-04-28T08:01:59Z</time>
<desc>lat.=21.969847, lon.=104.755836, Alt.=65.442444m. Speed=10.908000m/h.</desc>
<speed>3.030000</speed>
</trkpt>
<trkpt lat="21.969704" lon="104.755951">
<ele>65.518616</ele>
<time>2011-04-28T08:02:04Z</time>
<desc>lat.=21.969704, lon.=104.755951, Alt.=65.518616m. Speed=11.304000m/h.</desc>
<speed>3.140000</speed>
</trkpt>
<trkpt lat="21.969538" lon="104.756050">
<ele>66.569397</ele>
<time>2011-04-28T08:02:09Z</time>
<desc>lat.=21.969538, lon.=104.756050, Alt.=66.569397m. Speed=10.548000m/h.</desc>
<speed>2.930000</speed>
</trkpt>
<trkpt lat="21.969419" lon="104.756119">
<ele>66.868225</ele>
<time>2011-04-28T08:02:14Z</time>
<desc>lat.=21.969419, lon.=104.756119, Alt.=66.868225m. Speed=5.832000m/h.</desc>
<speed>1.620000</speed>
</trkpt>
<trkpt lat="21.969236" lon="104.756279">
<ele>67.456116</ele>
<time>2011-04-28T08:02:19Z</time>
<desc>lat.=21.969236, lon.=104.756279, Alt.=67.456116m. Speed=11.052000m/h.</desc>
<speed>3.070000</speed>
</trkpt>
<trkpt lat="21.969118" lon="104.756393">
<ele>68.583069</ele>
<time>2011-04-28T08:02:24Z</time>
<desc>lat.=21.969118, lon.=104.756393, Alt.=68.583069m. Speed=11.700000m/h.</desc>
<speed>3.250000</speed>
</trkpt>
<trkpt lat="21.969000" lon="104.756500">
<ele>69.178772</ele>
<time>2011-04-28T08:02:29Z</time>
<desc>lat.=21.969000, lon.=104.756500, Alt.=69.178772m. Speed=12.168000m/h.</desc>
<speed>3.380000</speed>
</trkpt>
<trkpt lat="21.968895" lon="104.756668">
<ele>69.569397</ele>
<time>2011-04-28T08:02:34Z</time>
<desc>lat.=21.968895, lon.=104.756668, Alt.=69.569397m. Speed=14.652000m/h.</desc>
<speed>4.070000</speed>
</trkpt>
<trkpt lat="21.968796" lon="104.756813">
<ele>70.211975</ele>
<time>2011-04-28T08:02:39Z</time>
<desc>lat.=21.968796, lon.=104.756813, Alt.=70.211975m. Speed=8.532000m/h.</desc>
<speed>2.370000</speed>
</trkpt>
<trkpt lat="21.968708" lon="104.756966">
<ele>70.889709</ele>
<time>2011-04-28T08:02:44Z</time>
<desc>lat.=21.968708, lon.=104.756966, Alt.=70.889709m. Speed=11.628000m/h.</desc>
<speed>3.230000</speed>
</trkpt>
<trkpt lat="21.968632" lon="104.757095">
<ele>72.264709</ele>
<time>2011-04-28T08:02:49Z</time>
<desc>lat.=21.968632, lon.=104.757095, Alt.=72.264709m. Speed=7.164000m/h.</desc>
<speed>1.990000</speed>
</trkpt>
<trkpt lat="21.968563" lon="104.757164">
<ele>73.692444</ele>
<time>2011-04-28T08:02:54Z</time>
<desc>lat.=21.968563, lon.=104.757164, Alt.=73.692444m. Speed=7.056000m/h.</desc>
<speed>1.960000</speed>
</trkpt>
<trkpt lat="21.968481" lon="104.757248">
<ele>76.059631</ele>
<time>2011-04-28T08:02:59Z</time>
<desc>lat.=21.968481, lon.=104.757248, Alt.=76.059631m. Speed=8.028000m/h.</desc>
<speed>2.230000</speed>
</trkpt>
<trkpt lat="21.968405" lon="104.757401">
<ele>76.790100</ele>
<time>2011-04-28T08:03:04Z</time>
<desc>lat.=21.968405, lon.=104.757401, Alt.=76.790100m. Speed=9.684000m/h.</desc>
<speed>2.690000</speed>
</trkpt>
<trkpt lat="21.968317" lon="104.757530">
<ele>77.524475</ele>
<time>2011-04-28T08:03:09Z</time>
<desc>lat.=21.968317, lon.=104.757530, Alt.=77.524475m. Speed=8.928000m/h.</desc>
<speed>2.480000</speed>
</trkpt>
<trkpt lat="21.968264" lon="104.757652">
<ele>76.891663</ele>
<time>2011-04-28T08:03:14Z</time>
<desc>lat.=21.968264, lon.=104.757652, Alt.=76.891663m. Speed=7.632000m/h.</desc>
<speed>2.120000</speed>
</trkpt>
<trkpt lat="21.968174" lon="104.757805">
<ele>76.217834</ele>
<time>2011-04-28T08:03:19Z</time>
<desc>lat.=21.968174, lon.=104.757805, Alt.=76.217834m. Speed=11.304000m/h.</desc>
<speed>3.140000</speed>
</trkpt>
<trkpt lat="21.968088" lon="104.757950">
<ele>75.323303</ele>
<time>2011-04-28T08:03:24Z</time>
<desc>lat.=21.968088, lon.=104.757950, Alt.=75.323303m. Speed=11.268000m/h.</desc>
<speed>3.130000</speed>
</trkpt>
<trkpt lat="21.967930" lon="104.758141">
<ele>75.067444</ele>
<time>2011-04-28T08:03:29Z</time>
<desc>lat.=21.967930, lon.=104.758141, Alt.=75.067444m. Speed=13.320000m/h.</desc>
<speed>3.700000</speed>
</trkpt>
<trkpt lat="21.967831" lon="104.758263">
<ele>74.118225</ele>
<time>2011-04-28T08:03:34Z</time>
<desc>lat.=21.967831, lon.=104.758263, Alt.=74.118225m. Speed=5.004000m/h.</desc>
<speed>1.390000</speed>
</trkpt>
<trkpt lat="21.967684" lon="104.758469">
<ele>75.883850</ele>
<time>2011-04-28T08:03:39Z</time>
<desc>lat.=21.967684, lon.=104.758469, Alt.=75.883850m. Speed=13.248000m/h.</desc>
<speed>3.680000</speed>
</trkpt>
<trkpt lat="21.967522" lon="104.758629">
<ele>76.547913</ele>
<time>2011-04-28T08:03:44Z</time>
<desc>lat.=21.967522, lon.=104.758629, Alt.=76.547913m. Speed=13.788000m/h.</desc>
<speed>3.830000</speed>
</trkpt>
<trkpt lat="21.967350" lon="104.758728">
<ele>74.651428</ele>
<time>2011-04-28T08:03:49Z</time>
<desc>lat.=21.967350, lon.=104.758728, Alt.=74.651428m. Speed=13.032000m/h.</desc>
<speed>3.620000</speed>
</trkpt>
<trkpt lat="21.967192" lon="104.758789">
<ele>71.766663</ele>
<time>2011-04-28T08:03:54Z</time>
<desc>lat.=21.967192, lon.=104.758789, Alt.=71.766663m. Speed=13.248000m/h.</desc>
<speed>3.680000</speed>
</trkpt>
<trkpt lat="21.967037" lon="104.758850">
<ele>68.598694</ele>
<time>2011-04-28T08:03:59Z</time>
<desc>lat.=21.967037, lon.=104.758850, Alt.=68.598694m. Speed=13.104000m/h.</desc>
<speed>3.640000</speed>
</trkpt>
<trkpt lat="21.966921" lon="104.758919">
<ele>66.876038</ele>
<time>2011-04-28T08:04:04Z</time>
<desc>lat.=21.966921, lon.=104.758919, Alt.=66.876038m. Speed=8.892000m/h.</desc>
<speed>2.470000</speed>
</trkpt>
<trkpt lat="21.966797" lon="104.758972">
<ele>67.229553</ele>
<time>2011-04-28T08:04:09Z</time>
<desc>lat.=21.966797, lon.=104.758972, Alt.=67.229553m. Speed=11.664000m/h.</desc>
<speed>3.240000</speed>
</trkpt>
<trkpt lat="21.966637" lon="104.759018">
<ele>66.920959</ele>
<time>2011-04-28T08:04:14Z</time>
<desc>lat.=21.966637, lon.=104.759018, Alt.=66.920959m. Speed=12.672000m/h.</desc>
<speed>3.520000</speed>
</trkpt>
<trkpt lat="21.966476" lon="104.759048">
<ele>68.102600</ele>
<time>2011-04-28T08:04:19Z</time>
<desc>lat.=21.966476, lon.=104.759048, Alt.=68.102600m. Speed=11.016000m/h.</desc>
<speed>3.060000</speed>
</trkpt>
<trkpt lat="21.966320" lon="104.759048">
<ele>66.251038</ele>
<time>2011-04-28T08:04:24Z</time>
<desc>lat.=21.966320, lon.=104.759048, Alt.=66.251038m. Speed=11.952000m/h.</desc>
<speed>3.320000</speed>
</trkpt>
<trkpt lat="21.966152" lon="104.759056">
<ele>67.126038</ele>
<time>2011-04-28T08:04:29Z</time>
<desc>lat.=21.966152, lon.=104.759056, Alt.=67.126038m. Speed=13.644000m/h.</desc>
<speed>3.790000</speed>
</trkpt>
<trkpt lat="21.965982" lon="104.759109">
<ele>66.848694</ele>
<time>2011-04-28T08:04:34Z</time>
<desc>lat.=21.965982, lon.=104.759109, Alt.=66.848694m. Speed=12.816000m/h.</desc>
<speed>3.560000</speed>
</trkpt>
<trkpt lat="21.965805" lon="104.759178">
<ele>66.264709</ele>
<time>2011-04-28T08:04:39Z</time>
<desc>lat.=21.965805, lon.=104.759178, Alt.=66.264709m. Speed=13.464000m/h.</desc>
<speed>3.740000</speed>
</trkpt>
<trkpt lat="21.965639" lon="104.759209">
<ele>64.204163</ele>
<time>2011-04-28T08:04:44Z</time>
<desc>lat.=21.965639, lon.=104.759209, Alt.=64.204163m. Speed=12.132000m/h.</desc>
<speed>3.370000</speed>
</trkpt>
<trkpt lat="21.965473" lon="104.759270">
<ele>63.602081</ele>
<time>2011-04-28T08:04:49Z</time>
<desc>lat.=21.965473, lon.=104.759270, Alt.=63.602081m. Speed=11.808000m/h.</desc>
<speed>3.280000</speed>
</trkpt>
<trkpt lat="21.965292" lon="104.759377">
<ele>63.206573</ele>
<time>2011-04-28T08:04:54Z</time>
<desc>lat.=21.965292, lon.=104.759377, Alt.=63.206573m. Speed=15.552000m/h.</desc>
<speed>4.320000</speed>
</trkpt>
<trkpt lat="21.965107" lon="104.759689">
<ele>60.547394</ele>
<time>2011-04-28T08:04:59Z</time>
<desc>lat.=21.965107, lon.=104.759689, Alt.=60.547394m. Speed=22.212000m/h.</desc>
<speed>6.170000</speed>
</trkpt>
<trkpt lat="21.965050" lon="104.759987">
<ele>60.777863</ele>
<time>2011-04-28T08:05:04Z</time>
<desc>lat.=21.965050, lon.=104.759987, Alt.=60.777863m. Speed=17.639999m/h.</desc>
<speed>4.900000</speed>
</trkpt>
<trkpt lat="21.964996" lon="104.760292">
<ele>62.748566</ele>
<time>2011-04-28T08:05:09Z</time>
<desc>lat.=21.964996, lon.=104.760292, Alt.=62.748566m. Speed=12.420000m/h.</desc>
<speed>3.450000</speed>
</trkpt>
<trkpt lat="21.964901" lon="104.760498">
<ele>65.840881</ele>
<time>2011-04-28T08:05:14Z</time>
<desc>lat.=21.964901, lon.=104.760498, Alt.=65.840881m. Speed=10.980000m/h.</desc>
<speed>3.050000</speed>
</trkpt>
<trkpt lat="21.964783" lon="104.760666">
<ele>68.471741</ele>
<time>2011-04-28T08:05:19Z</time>
<desc>lat.=21.964783, lon.=104.760666, Alt.=68.471741m. Speed=10.008000m/h.</desc>
<speed>2.780000</speed>
</trkpt>
<trkpt lat="21.964632" lon="104.760811">
<ele>67.954163</ele>
<time>2011-04-28T08:05:24Z</time>
<desc>lat.=21.964632, lon.=104.760811, Alt.=67.954163m. Speed=11.772000m/h.</desc>
<speed>3.270000</speed>
</trkpt>
<trkpt lat="21.964506" lon="104.760933">
<ele>67.266663</ele>
<time>2011-04-28T08:05:29Z</time>
<desc>lat.=21.964506, lon.=104.760933, Alt.=67.266663m. Speed=12.168000m/h.</desc>
<speed>3.380000</speed>
</trkpt>
<trkpt lat="21.964403" lon="104.761017">
<ele>67.530334</ele>
<time>2011-04-28T08:05:34Z</time>
<desc>lat.=21.964403, lon.=104.761017, Alt.=67.530334m. Speed=7.164000m/h.</desc>
<speed>1.990000</speed>
</trkpt>
<trkpt lat="21.964283" lon="104.761101">
<ele>67.092834</ele>
<time>2011-04-28T08:05:39Z</time>
<desc>lat.=21.964283, lon.=104.761101, Alt.=67.092834m. Speed=11.952000m/h.</desc>
<speed>3.320000</speed>
</trkpt>
<trkpt lat="21.964104" lon="104.761215">
<ele>68.438538</ele>
<time>2011-04-28T08:05:44Z</time>
<desc>lat.=21.964104, lon.=104.761215, Alt.=68.438538m. Speed=16.379999m/h.</desc>
<speed>4.550000</speed>
</trkpt>
<trkpt lat="21.963863" lon="104.761230">
<ele>66.307678</ele>
<time>2011-04-28T08:05:49Z</time>
<desc>lat.=21.963863, lon.=104.761230, Alt.=66.307678m. Speed=19.511999m/h.</desc>
<speed>5.420000</speed>
</trkpt>
<trkpt lat="21.963615" lon="104.761200">
<ele>64.131897</ele>
<time>2011-04-28T08:05:54Z</time>
<desc>lat.=21.963615, lon.=104.761200, Alt.=64.131897m. Speed=19.007999m/h.</desc>
<speed>5.280000</speed>
</trkpt>
<trkpt lat="21.963398" lon="104.761215">
<ele>63.720245</ele>
<time>2011-04-28T08:05:59Z</time>
<desc>lat.=21.963398, lon.=104.761215, Alt.=63.720245m. Speed=17.784000m/h.</desc>
<speed>4.940000</speed>
</trkpt>
<trkpt lat="21.963144" lon="104.761292">
<ele>62.305206</ele>
<time>2011-04-28T08:06:04Z</time>
<desc>lat.=21.963144, lon.=104.761292, Alt.=62.305206m. Speed=17.747999m/h.</desc>
<speed>4.930000</speed>
</trkpt>
<trkpt lat="21.962942" lon="104.761337">
<ele>60.782745</ele>
<time>2011-04-28T08:06:09Z</time>
<desc>lat.=21.962942, lon.=104.761337, Alt.=60.782745m. Speed=15.192000m/h.</desc>
<speed>4.220000</speed>
</trkpt>
<trkpt lat="21.962719" lon="104.761375">
<ele>58.964386</ele>
<time>2011-04-28T08:06:14Z</time>
<desc>lat.=21.962719, lon.=104.761375, Alt.=58.964386m. Speed=16.200001m/h.</desc>
<speed>4.500000</speed>
</trkpt>
<trkpt lat="21.962559" lon="104.761414">
<ele>59.047394</ele>
<time>2011-04-28T08:06:19Z</time>
<desc>lat.=21.962559, lon.=104.761414, Alt.=59.047394m. Speed=12.708000m/h.</desc>
<speed>3.530000</speed>
</trkpt>
<trkpt lat="21.962317" lon="104.761543">
<ele>60.502472</ele>
<time>2011-04-28T08:06:24Z</time>
<desc>lat.=21.962317, lon.=104.761543, Alt.=60.502472m. Speed=19.007999m/h.</desc>
<speed>5.280000</speed>
</trkpt>
<trkpt lat="21.962036" lon="104.761734">
<ele>60.538605</ele>
<time>2011-04-28T08:06:29Z</time>
<desc>lat.=21.962036, lon.=104.761734, Alt.=60.538605m. Speed=21.275999m/h.</desc>
<speed>5.910000</speed>
</trkpt>
<trkpt lat="21.961788" lon="104.761917">
<ele>58.988800</ele>
<time>2011-04-28T08:06:34Z</time>
<desc>lat.=21.961788, lon.=104.761917, Alt.=58.988800m. Speed=17.747999m/h.</desc>
<speed>4.930000</speed>
</trkpt>
<trkpt lat="21.961718" lon="104.762131">
<ele>58.912628</ele>
<time>2011-04-28T08:06:39Z</time>
<desc>lat.=21.961718, lon.=104.762131, Alt.=58.912628m. Speed=14.400000m/h.</desc>
<speed>4.000000</speed>
</trkpt>
<trkpt lat="21.961624" lon="104.762321">
<ele>59.612823</ele>
<time>2011-04-28T08:06:44Z</time>
<desc>lat.=21.961624, lon.=104.762321, Alt.=59.612823m. Speed=14.220000m/h.</desc>
<speed>3.950000</speed>
</trkpt>
<trkpt lat="21.961452" lon="104.762466">
<ele>62.526886</ele>
<time>2011-04-28T08:06:49Z</time>
<desc>lat.=21.961452, lon.=104.762466, Alt.=62.526886m. Speed=14.616000m/h.</desc>
<speed>4.060000</speed>
</trkpt>
<trkpt lat="21.961267" lon="104.762474">
<ele>65.358459</ele>
<time>2011-04-28T08:06:54Z</time>
<desc>lat.=21.961267, lon.=104.762474, Alt.=65.358459m. Speed=14.796000m/h.</desc>
<speed>4.110000</speed>
</trkpt>
<trkpt lat="21.961048" lon="104.762428">
<ele>65.163147</ele>
<time>2011-04-28T08:06:59Z</time>
<desc>lat.=21.961048, lon.=104.762428, Alt.=65.163147m. Speed=17.063999m/h.</desc>
<speed>4.740000</speed>
</trkpt>
<trkpt lat="21.960838" lon="104.762444">
<ele>65.991272</ele>
<time>2011-04-28T08:07:04Z</time>
<desc>lat.=21.960838, lon.=104.762444, Alt.=65.991272m. Speed=16.632000m/h.</desc>
<speed>4.620000</speed>
</trkpt>
<trkpt lat="21.960701" lon="104.762589">
<ele>66.223694</ele>
<time>2011-04-28T08:07:09Z</time>
<desc>lat.=21.960701, lon.=104.762589, Alt.=66.223694m. Speed=16.236000m/h.</desc>
<speed>4.510000</speed>
</trkpt>
<trkpt lat="21.960632" lon="104.762779">
<ele>67.079163</ele>
<time>2011-04-28T08:07:14Z</time>
<desc>lat.=21.960632, lon.=104.762779, Alt.=67.079163m. Speed=16.091999m/h.</desc>
<speed>4.470000</speed>
</trkpt>
<trkpt lat="21.960566" lon="104.762985">
<ele>67.612366</ele>
<time>2011-04-28T08:07:19Z</time>
<desc>lat.=21.960566, lon.=104.762985, Alt.=67.612366m. Speed=13.860000m/h.</desc>
<speed>3.850000</speed>
</trkpt>
<trkpt lat="21.960526" lon="104.763176">
<ele>67.946350</ele>
<time>2011-04-28T08:07:24Z</time>
<desc>lat.=21.960526, lon.=104.763176, Alt.=67.946350m. Speed=14.688000m/h.</desc>
<speed>4.080000</speed>
</trkpt>
<trkpt lat="21.960463" lon="104.763359">
<ele>69.221741</ele>
<time>2011-04-28T08:07:29Z</time>
<desc>lat.=21.960463, lon.=104.763359, Alt.=69.221741m. Speed=12.888000m/h.</desc>
<speed>3.580000</speed>
</trkpt>
<trkpt lat="21.960394" lon="104.763573">
<ele>70.870178</ele>
<time>2011-04-28T08:07:34Z</time>
<desc>lat.=21.960394, lon.=104.763573, Alt.=70.870178m. Speed=15.660000m/h.</desc>
<speed>4.350000</speed>
</trkpt>
<trkpt lat="21.960340" lon="104.763756">
<ele>73.426819</ele>
<time>2011-04-28T08:07:39Z</time>
<desc>lat.=21.960340, lon.=104.763756, Alt.=73.426819m. Speed=14.940000m/h.</desc>
<speed>4.150000</speed>
</trkpt>
<trkpt lat="21.960228" lon="104.763924">
<ele>74.692444</ele>
<time>2011-04-28T08:07:44Z</time>
<desc>lat.=21.960228, lon.=104.763924, Alt.=74.692444m. Speed=14.868000m/h.</desc>
<speed>4.130000</speed>
</trkpt>
<trkpt lat="21.960026" lon="104.764084">
<ele>76.629944</ele>
<time>2011-04-28T08:07:49Z</time>
<desc>lat.=21.960026, lon.=104.764084, Alt.=76.629944m. Speed=18.035999m/h.</desc>
<speed>5.010000</speed>
</trkpt>
<trkpt lat="21.959805" lon="104.764160">
<ele>76.614319</ele>
<time>2011-04-28T08:07:54Z</time>
<desc>lat.=21.959805, lon.=104.764160, Alt.=76.614319m. Speed=17.892000m/h.</desc>
<speed>4.970000</speed>
</trkpt>
<trkpt lat="21.959543" lon="104.764084">
<ele>76.661194</ele>
<time>2011-04-28T08:07:59Z</time>
<desc>lat.=21.959543, lon.=104.764084, Alt.=76.661194m. Speed=21.816000m/h.</desc>
<speed>6.060000</speed>
</trkpt>
<trkpt lat="21.959248" lon="104.764061">
<ele>76.647522</ele>
<time>2011-04-28T08:08:04Z</time>
<desc>lat.=21.959248, lon.=104.764061, Alt.=76.647522m. Speed=22.680000m/h.</desc>
<speed>6.300000</speed>
</trkpt>
<trkpt lat="21.959064" lon="104.764282">
<ele>75.743225</ele>
<time>2011-04-28T08:08:09Z</time>
<desc>lat.=21.959064, lon.=104.764282, Alt.=75.743225m. Speed=21.312000m/h.</desc>
<speed>5.920000</speed>
</trkpt>
<trkpt lat="21.958937" lon="104.764511">
<ele>74.721741</ele>
<time>2011-04-28T08:08:14Z</time>
<desc>lat.=21.958937, lon.=104.764511, Alt.=74.721741m. Speed=14.256000m/h.</desc>
<speed>3.960000</speed>
</trkpt>
<trkpt lat="21.958843" lon="104.764725">
<ele>76.706116</ele>
<time>2011-04-28T08:08:19Z</time>
<desc>lat.=21.958843, lon.=104.764725, Alt.=76.706116m. Speed=14.004000m/h.</desc>
<speed>3.890000</speed>
</trkpt>
<trkpt lat="21.958733" lon="104.764915">
<ele>79.387756</ele>
<time>2011-04-28T08:08:24Z</time>
<desc>lat.=21.958733, lon.=104.764915, Alt.=79.387756m. Speed=13.572000m/h.</desc>
<speed>3.770000</speed>
</trkpt>
<trkpt lat="21.958607" lon="104.765060">
<ele>80.297913</ele>
<time>2011-04-28T08:08:29Z</time>
<desc>lat.=21.958607, lon.=104.765060, Alt.=80.297913m. Speed=13.608000m/h.</desc>
<speed>3.780000</speed>
</trkpt>
<trkpt lat="21.958445" lon="104.765221">
<ele>80.840881</ele>
<time>2011-04-28T08:08:34Z</time>
<desc>lat.=21.958445, lon.=104.765221, Alt.=80.840881m. Speed=13.824000m/h.</desc>
<speed>3.840000</speed>
</trkpt>
<trkpt lat="21.958328" lon="104.765388">
<ele>85.274475</ele>
<time>2011-04-28T08:08:39Z</time>
<desc>lat.=21.958328, lon.=104.765388, Alt.=85.274475m. Speed=10.584000m/h.</desc>
<speed>2.940000</speed>
</trkpt>
<trkpt lat="21.958311" lon="104.765625">
<ele>88.200256</ele>
<time>2011-04-28T08:08:44Z</time>
<desc>lat.=21.958311, lon.=104.765625, Alt.=88.200256m. Speed=12.708000m/h.</desc>
<speed>3.530000</speed>
</trkpt>
<trkpt lat="21.958313" lon="104.765854">
<ele>90.430725</ele>
<time>2011-04-28T08:08:49Z</time>
<desc>lat.=21.958313, lon.=104.765854, Alt.=90.430725m. Speed=12.456000m/h.</desc>
<speed>3.460000</speed>
</trkpt>
<trkpt lat="21.958328" lon="104.766075">
<ele>91.913147</ele>
<time>2011-04-28T08:08:54Z</time>
<desc>lat.=21.958328, lon.=104.766075, Alt.=91.913147m. Speed=14.580000m/h.</desc>
<speed>4.050000</speed>
</trkpt>
<trkpt lat="21.958298" lon="104.766312">
<ele>90.381897</ele>
<time>2011-04-28T08:08:59Z</time>
<desc>lat.=21.958298, lon.=104.766312, Alt.=90.381897m. Speed=14.544000m/h.</desc>
<speed>4.040000</speed>
</trkpt>
<trkpt lat="21.958208" lon="104.766525">
<ele>89.002991</ele>
<time>2011-04-28T08:09:04Z</time>
<desc>lat.=21.958208, lon.=104.766525, Alt.=89.002991m. Speed=15.516000m/h.</desc>
<speed>4.310000</speed>
</trkpt>
<trkpt lat="21.958067" lon="104.766693">
<ele>88.844788</ele>
<time>2011-04-28T08:09:09Z</time>
<desc>lat.=21.958067, lon.=104.766693, Alt.=88.844788m. Speed=15.804000m/h.</desc>
<speed>4.390000</speed>
</trkpt>
<trkpt lat="21.957911" lon="104.766830">
<ele>88.079163</ele>
<time>2011-04-28T08:09:14Z</time>
<desc>lat.=21.957911, lon.=104.766830, Alt.=88.079163m. Speed=14.364000m/h.</desc>
<speed>3.990000</speed>
</trkpt>
<trkpt lat="21.957760" lon="104.766937">
<ele>87.002991</ele>
<time>2011-04-28T08:09:19Z</time>
<desc>lat.=21.957760, lon.=104.766937, Alt.=87.002991m. Speed=14.724000m/h.</desc>
<speed>4.090000</speed>
</trkpt>
<trkpt lat="21.957598" lon="104.767021">
<ele>86.608459</ele>
<time>2011-04-28T08:09:24Z</time>
<desc>lat.=21.957598, lon.=104.767021, Alt.=86.608459m. Speed=12.888000m/h.</desc>
<speed>3.580000</speed>
</trkpt>
<trkpt lat="21.957457" lon="104.767105">
<ele>84.180725</ele>
<time>2011-04-28T08:09:29Z</time>
<desc>lat.=21.957457, lon.=104.767105, Alt.=84.180725m. Speed=11.556000m/h.</desc>
<speed>3.210000</speed>
</trkpt>
<trkpt lat="21.957348" lon="104.767159">
<ele>82.950256</ele>
<time>2011-04-28T08:09:34Z</time>
<desc>lat.=21.957348, lon.=104.767159, Alt.=82.950256m. Speed=8.028000m/h.</desc>
<speed>2.230000</speed>
</trkpt>
<trkpt lat="21.957262" lon="104.767197">
<ele>83.229553</ele>
<time>2011-04-28T08:09:39Z</time>
<desc>lat.=21.957262, lon.=104.767197, Alt.=83.229553m. Speed=7.740000m/h.</desc>
<speed>2.150000</speed>
</trkpt>
<trkpt lat="21.957167" lon="104.767250">
<ele>83.622131</ele>
<time>2011-04-28T08:09:44Z</time>
<desc>lat.=21.957167, lon.=104.767250, Alt.=83.622131m. Speed=8.856000m/h.</desc>
<speed>2.460000</speed>
</trkpt>
<trkpt lat="21.957069" lon="104.767273">
<ele>83.848694</ele>
<time>2011-04-28T08:09:49Z</time>
<desc>lat.=21.957069, lon.=104.767273, Alt.=83.848694m. Speed=6.264000m/h.</desc>
<speed>1.740000</speed>
</trkpt>
<trkpt lat="21.956961" lon="104.767326">
<ele>84.163147</ele>
<time>2011-04-28T08:09:54Z</time>
<desc>lat.=21.956961, lon.=104.767326, Alt.=84.163147m. Speed=10.980000m/h.</desc>
<speed>3.050000</speed>
</trkpt>
<trkpt lat="21.956841" lon="104.767380">
<ele>85.305725</ele>
<time>2011-04-28T08:09:59Z</time>
<desc>lat.=21.956841, lon.=104.767380, Alt.=85.305725m. Speed=9.360000m/h.</desc>
<speed>2.600000</speed>
</trkpt>
<trkpt lat="21.956757" lon="104.767426">
<ele>86.594788</ele>
<time>2011-04-28T08:10:04Z</time>
<desc>lat.=21.956757, lon.=104.767426, Alt.=86.594788m. Speed=6.156000m/h.</desc>
<speed>1.710000</speed>
</trkpt>
<trkpt lat="21.956678" lon="104.767471">
<ele>85.551819</ele>
<time>2011-04-28T08:10:09Z</time>
<desc>lat.=21.956678, lon.=104.767471, Alt.=85.551819m. Speed=5.220000m/h.</desc>
<speed>1.450000</speed>
</trkpt>
<trkpt lat="21.956631" lon="104.767540">
<ele>85.733459</ele>
<time>2011-04-28T08:10:14Z</time>
<desc>lat.=21.956631, lon.=104.767540, Alt.=85.733459m. Speed=6.300000m/h.</desc>
<speed>1.750000</speed>
</trkpt>
<trkpt lat="21.956568" lon="104.767593">
<ele>86.465881</ele>
<time>2011-04-28T08:10:19Z</time>
<desc>lat.=21.956568, lon.=104.767593, Alt.=86.465881m. Speed=6.300000m/h.</desc>
<speed>1.750000</speed>
</trkpt>
<trkpt lat="21.956499" lon="104.767632">
<ele>86.151428</ele>
<time>2011-04-28T08:10:24Z</time>
<desc>lat.=21.956499, lon.=104.767632, Alt.=86.151428m. Speed=5.400000m/h.</desc>
<speed>1.500000</speed>
</trkpt>
<trkpt lat="21.956413" lon="104.767670">
<ele>86.333069</ele>
<time>2011-04-28T08:10:29Z</time>
<desc>lat.=21.956413, lon.=104.767670, Alt.=86.333069m. Speed=6.732000m/h.</desc>
<speed>1.870000</speed>
</trkpt>
<trkpt lat="21.956333" lon="104.767723">
<ele>86.061584</ele>
<time>2011-04-28T08:10:34Z</time>
<desc>lat.=21.956333, lon.=104.767723, Alt.=86.061584m. Speed=8.604000m/h.</desc>
<speed>2.390000</speed>
</trkpt>
<trkpt lat="21.956209" lon="104.767815">
<ele>87.245178</ele>
<time>2011-04-28T08:10:39Z</time>
<desc>lat.=21.956209, lon.=104.767815, Alt.=87.245178m. Speed=10.440000m/h.</desc>
<speed>2.900000</speed>
</trkpt>
<trkpt lat="21.956093" lon="104.767883">
<ele>88.780334</ele>
<time>2011-04-28T08:10:44Z</time>
<desc>lat.=21.956093, lon.=104.767883, Alt.=88.780334m. Speed=9.324000m/h.</desc>
<speed>2.590000</speed>
</trkpt>
<trkpt lat="21.955980" lon="104.767967">
<ele>88.616272</ele>
<time>2011-04-28T08:10:49Z</time>
<desc>lat.=21.955980, lon.=104.767967, Alt.=88.616272m. Speed=9.648000m/h.</desc>
<speed>2.680000</speed>
</trkpt>
<trkpt lat="21.955864" lon="104.768021">
<ele>89.333069</ele>
<time>2011-04-28T08:10:54Z</time>
<desc>lat.=21.955864, lon.=104.768021, Alt.=89.333069m. Speed=9.396000m/h.</desc>
<speed>2.610000</speed>
</trkpt>
<trkpt lat="21.955767" lon="104.768059">
<ele>91.801819</ele>
<time>2011-04-28T08:10:59Z</time>
<desc>lat.=21.955767, lon.=104.768059, Alt.=91.801819m. Speed=9.540000m/h.</desc>
<speed>2.650000</speed>
</trkpt>
<trkpt lat="21.955643" lon="104.768112">
<ele>93.040100</ele>
<time>2011-04-28T08:11:04Z</time>
<desc>lat.=21.955643, lon.=104.768112, Alt.=93.040100m. Speed=9.540000m/h.</desc>
<speed>2.650000</speed>
</trkpt>
<trkpt lat="21.955519" lon="104.768150">
<ele>94.116272</ele>
<time>2011-04-28T08:11:09Z</time>
<desc>lat.=21.955519, lon.=104.768150, Alt.=94.116272m. Speed=9.216000m/h.</desc>
<speed>2.560000</speed>
</trkpt>
<trkpt lat="21.955397" lon="104.768173">
<ele>94.768616</ele>
<time>2011-04-28T08:11:14Z</time>
<desc>lat.=21.955397, lon.=104.768173, Alt.=94.768616m. Speed=9.828000m/h.</desc>
<speed>2.730000</speed>
</trkpt>
<trkpt lat="21.955276" lon="104.768234">
<ele>93.928772</ele>
<time>2011-04-28T08:11:19Z</time>
<desc>lat.=21.955276, lon.=104.768234, Alt.=93.928772m. Speed=7.488000m/h.</desc>
<speed>2.080000</speed>
</trkpt>
<trkpt lat="21.955231" lon="104.768272">
<ele>94.754944</ele>
<time>2011-04-28T08:11:24Z</time>
<desc>lat.=21.955231, lon.=104.768272, Alt.=94.754944m. Speed=3.348000m/h.</desc>
<speed>0.930000</speed>
</trkpt>
<trkpt lat="21.955219" lon="104.768326">
<ele>94.616272</ele>
<time>2011-04-28T08:11:29Z</time>
<desc>lat.=21.955219, lon.=104.768326, Alt.=94.616272m. Speed=5.004000m/h.</desc>
<speed>1.390000</speed>
</trkpt>
<trkpt lat="21.955198" lon="104.768433">
<ele>93.936584</ele>
<time>2011-04-28T08:11:34Z</time>
<desc>lat.=21.955198, lon.=104.768433, Alt.=93.936584m. Speed=6.912000m/h.</desc>
<speed>1.920000</speed>
</trkpt>
<trkpt lat="21.955194" lon="104.768547">
<ele>94.848694</ele>
<time>2011-04-28T08:11:39Z</time>
<desc>lat.=21.955194, lon.=104.768547, Alt.=94.848694m. Speed=7.272000m/h.</desc>
<speed>2.020000</speed>
</trkpt>
<trkpt lat="21.955208" lon="104.768669">
<ele>95.233459</ele>
<time>2011-04-28T08:11:44Z</time>
<desc>lat.=21.955208, lon.=104.768669, Alt.=95.233459m. Speed=9.324000m/h.</desc>
<speed>2.590000</speed>
</trkpt>
<trkpt lat="21.955231" lon="104.768814">
<ele>96.626038</ele>
<time>2011-04-28T08:11:49Z</time>
<desc>lat.=21.955231, lon.=104.768814, Alt.=96.626038m. Speed=7.380000m/h.</desc>
<speed>2.050000</speed>
</trkpt>
<trkpt lat="21.955212" lon="104.768944">
<ele>96.528381</ele>
<time>2011-04-28T08:11:54Z</time>
<desc>lat.=21.955212, lon.=104.768944, Alt.=96.528381m. Speed=9.036000m/h.</desc>
<speed>2.510000</speed>
</trkpt>
<trkpt lat="21.955143" lon="104.769051">
<ele>94.823303</ele>
<time>2011-04-28T08:11:59Z</time>
<desc>lat.=21.955143, lon.=104.769051, Alt.=94.823303m. Speed=8.172000m/h.</desc>
<speed>2.270000</speed>
</trkpt>
<trkpt lat="21.955051" lon="104.769127">
<ele>93.684631</ele>
<time>2011-04-28T08:12:04Z</time>
<desc>lat.=21.955051, lon.=104.769127, Alt.=93.684631m. Speed=7.164000m/h.</desc>
<speed>1.990000</speed>
</trkpt>
<trkpt lat="21.954960" lon="104.769188">
<ele>92.260803</ele>
<time>2011-04-28T08:12:09Z</time>
<desc>lat.=21.954960, lon.=104.769188, Alt.=92.260803m. Speed=9.036000m/h.</desc>
<speed>2.510000</speed>
</trkpt>
<trkpt lat="21.954823" lon="104.769257">
<ele>92.411194</ele>
<time>2011-04-28T08:12:14Z</time>
<desc>lat.=21.954823, lon.=104.769257, Alt.=92.411194m. Speed=9.972000m/h.</desc>
<speed>2.770000</speed>
</trkpt>
<trkpt lat="21.954708" lon="104.769310">
<ele>92.612366</ele>
<time>2011-04-28T08:12:19Z</time>
<desc>lat.=21.954708, lon.=104.769310, Alt.=92.612366m. Speed=9.864000m/h.</desc>
<speed>2.740000</speed>
</trkpt>
<trkpt lat="21.954615" lon="104.769379">
<ele>92.924866</ele>
<time>2011-04-28T08:12:24Z</time>
<desc>lat.=21.954615, lon.=104.769379, Alt.=92.924866m. Speed=9.828000m/h.</desc>
<speed>2.730000</speed>
</trkpt>
<trkpt lat="21.954523" lon="104.769455">
<ele>93.211975</ele>
<time>2011-04-28T08:12:29Z</time>
<desc>lat.=21.954523, lon.=104.769455, Alt.=93.211975m. Speed=8.640000m/h.</desc>
<speed>2.400000</speed>
</trkpt>
<trkpt lat="21.954376" lon="104.769531">
<ele>93.610413</ele>
<time>2011-04-28T08:12:34Z</time>
<desc>lat.=21.954376, lon.=104.769531, Alt.=93.610413m. Speed=16.200001m/h.</desc>
<speed>4.500000</speed>
</trkpt>
<trkpt lat="21.954098" lon="104.769707">
<ele>95.139709</ele>
<time>2011-04-28T08:12:39Z</time>
<desc>lat.=21.954098, lon.=104.769707, Alt.=95.139709m. Speed=26.063999m/h.</desc>
<speed>7.240000</speed>
</trkpt>
<trkpt lat="21.953739" lon="104.769928">
<ele>94.460022</ele>
<time>2011-04-28T08:12:44Z</time>
<desc>lat.=21.953739, lon.=104.769928, Alt.=94.460022m. Speed=35.352001m/h.</desc>
<speed>9.820000</speed>
</trkpt>
<trkpt lat="21.953251" lon="104.770164">
<ele>91.063538</ele>
<time>2011-04-28T08:12:49Z</time>
<desc>lat.=21.953251, lon.=104.770164, Alt.=91.063538m. Speed=37.944000m/h.</desc>
<speed>10.540000</speed>
</trkpt>
<trkpt lat="21.952827" lon="104.770287">
<ele>89.874084</ele>
<time>2011-04-28T08:12:54Z</time>
<desc>lat.=21.952827, lon.=104.770287, Alt.=89.874084m. Speed=32.076000m/h.</desc>
<speed>8.910000</speed>
</trkpt>
<trkpt lat="21.952446" lon="104.770386">
<ele>88.251038</ele>
<time>2011-04-28T08:12:59Z</time>
<desc>lat.=21.952446, lon.=104.770386, Alt.=88.251038m. Speed=29.448000m/h.</desc>
<speed>8.180000</speed>
</trkpt>
<trkpt lat="21.952122" lon="104.770500">
<ele>86.883850</ele>
<time>2011-04-28T08:13:04Z</time>
<desc>lat.=21.952122, lon.=104.770500, Alt.=86.883850m. Speed=24.695999m/h.</desc>
<speed>6.860000</speed>
</trkpt>
<trkpt lat="21.951912" lon="104.770721">
<ele>85.815491</ele>
<time>2011-04-28T08:13:09Z</time>
<desc>lat.=21.951912, lon.=104.770721, Alt.=85.815491m. Speed=19.260000m/h.</desc>
<speed>5.350000</speed>
</trkpt>
<trkpt lat="21.951822" lon="104.770935">
<ele>85.108459</ele>
<time>2011-04-28T08:13:14Z</time>
<desc>lat.=21.951822, lon.=104.770935, Alt.=85.108459m. Speed=6.552000m/h.</desc>
<speed>1.820000</speed>
</trkpt>
<trkpt lat="21.951799" lon="104.771057">
<ele>84.723694</ele>
<time>2011-04-28T08:13:19Z</time>
<desc>lat.=21.951799, lon.=104.771057, Alt.=84.723694m. Speed=11.484000m/h.</desc>
<speed>3.190000</speed>
</trkpt>
<trkpt lat="21.951712" lon="104.771309">
<ele>83.430725</ele>
<time>2011-04-28T08:13:24Z</time>
<desc>lat.=21.951712, lon.=104.771309, Alt.=83.430725m. Speed=24.660000m/h.</desc>
<speed>6.850000</speed>
</trkpt>
<trkpt lat="21.951557" lon="104.771706">
<ele>80.942444</ele>
<time>2011-04-28T08:13:29Z</time>
<desc>lat.=21.951557, lon.=104.771706, Alt.=80.942444m. Speed=40.428001m/h.</desc>
<speed>11.230000</speed>
</trkpt>
<trkpt lat="21.951235" lon="104.772133">
<ele>78.676819</ele>
<time>2011-04-28T08:13:34Z</time>
<desc>lat.=21.951235, lon.=104.772133, Alt.=78.676819m. Speed=39.636002m/h.</desc>
<speed>11.010000</speed>
</trkpt>
<trkpt lat="21.950823" lon="104.772324">
<ele>75.768616</ele>
<time>2011-04-28T08:13:39Z</time>
<desc>lat.=21.950823, lon.=104.772324, Alt.=75.768616m. Speed=27.396000m/h.</desc>
<speed>7.610000</speed>
</trkpt>
<trkpt lat="21.950583" lon="104.772499">
<ele>74.704163</ele>
<time>2011-04-28T08:13:44Z</time>
<desc>lat.=21.950583, lon.=104.772499, Alt.=74.704163m. Speed=19.728001m/h.</desc>
<speed>5.480000</speed>
</trkpt>
<trkpt lat="21.950384" lon="104.772675">
<ele>73.135803</ele>
<time>2011-04-28T08:13:49Z</time>
<desc>lat.=21.950384, lon.=104.772675, Alt.=73.135803m. Speed=19.403999m/h.</desc>
<speed>5.390000</speed>
</trkpt>
<trkpt lat="21.950167" lon="104.772812">
<ele>71.245178</ele>
<time>2011-04-28T08:13:54Z</time>
<desc>lat.=21.950167, lon.=104.772812, Alt.=71.245178m. Speed=19.799999m/h.</desc>
<speed>5.500000</speed>
</trkpt>
<trkpt lat="21.949936" lon="104.772926">
<ele>69.499084</ele>
<time>2011-04-28T08:13:59Z</time>
<desc>lat.=21.949936, lon.=104.772926, Alt.=69.499084m. Speed=19.980000m/h.</desc>
<speed>5.550000</speed>
</trkpt>
<trkpt lat="21.949669" lon="104.773048">
<ele>67.844788</ele>
<time>2011-04-28T08:14:04Z</time>
<desc>lat.=21.949669, lon.=104.773048, Alt.=67.844788m. Speed=21.924000m/h.</desc>
<speed>6.090000</speed>
</trkpt>
<trkpt lat="21.949415" lon="104.773224">
<ele>68.127991</ele>
<time>2011-04-28T08:14:09Z</time>
<desc>lat.=21.949415, lon.=104.773224, Alt.=68.127991m. Speed=23.219999m/h.</desc>
<speed>6.450000</speed>
</trkpt>
<trkpt lat="21.949198" lon="104.773445">
<ele>66.680725</ele>
<time>2011-04-28T08:14:14Z</time>
<desc>lat.=21.949198, lon.=104.773445, Alt.=66.680725m. Speed=22.500000m/h.</desc>
<speed>6.250000</speed>
</trkpt>
<trkpt lat="21.948957" lon="104.773659">
<ele>66.852600</ele>
<time>2011-04-28T08:14:19Z</time>
<desc>lat.=21.948957, lon.=104.773659, Alt.=66.852600m. Speed=24.444000m/h.</desc>
<speed>6.790000</speed>
</trkpt>
<trkpt lat="21.948750" lon="104.773865">
<ele>66.626038</ele>
<time>2011-04-28T08:14:24Z</time>
<desc>lat.=21.948750, lon.=104.773865, Alt.=66.626038m. Speed=22.572001m/h.</desc>
<speed>6.270000</speed>
</trkpt>
<trkpt lat="21.948542" lon="104.774063">
<ele>67.276428</ele>
<time>2011-04-28T08:14:29Z</time>
<desc>lat.=21.948542, lon.=104.774063, Alt.=67.276428m. Speed=21.672001m/h.</desc>
<speed>6.020000</speed>
</trkpt>
<trkpt lat="21.948339" lon="104.774277">
<ele>67.268616</ele>
<time>2011-04-28T08:14:34Z</time>
<desc>lat.=21.948339, lon.=104.774277, Alt.=67.268616m. Speed=20.879999m/h.</desc>
<speed>5.800000</speed>
</trkpt>
<trkpt lat="21.948124" lon="104.774506">
<ele>67.786194</ele>
<time>2011-04-28T08:14:39Z</time>
<desc>lat.=21.948124, lon.=104.774506, Alt.=67.786194m. Speed=20.591999m/h.</desc>
<speed>5.720000</speed>
</trkpt>
<trkpt lat="21.947937" lon="104.774712">
<ele>67.405334</ele>
<time>2011-04-28T08:14:44Z</time>
<desc>lat.=21.947937, lon.=104.774712, Alt.=67.405334m. Speed=20.087999m/h.</desc>
<speed>5.580000</speed>
</trkpt>
<trkpt lat="21.947708" lon="104.774857">
<ele>69.211975</ele>
<time>2011-04-28T08:14:49Z</time>
<desc>lat.=21.947708, lon.=104.774857, Alt.=69.211975m. Speed=16.416000m/h.</desc>
<speed>4.560000</speed>
</trkpt>
<trkpt lat="21.947498" lon="104.774918">
<ele>69.278381</ele>
<time>2011-04-28T08:14:54Z</time>
<desc>lat.=21.947498, lon.=104.774918, Alt.=69.278381m. Speed=16.848000m/h.</desc>
<speed>4.680000</speed>
</trkpt>
<trkpt lat="21.947285" lon="104.774956">
<ele>70.588928</ele>
<time>2011-04-28T08:14:59Z</time>
<desc>lat.=21.947285, lon.=104.774956, Alt.=70.588928m. Speed=16.452000m/h.</desc>
<speed>4.570000</speed>
</trkpt>
<trkpt lat="21.947105" lon="104.775017">
<ele>70.659241</ele>
<time>2011-04-28T08:15:04Z</time>
<desc>lat.=21.947105, lon.=104.775017, Alt.=70.659241m. Speed=15.048000m/h.</desc>
<speed>4.180000</speed>
</trkpt>
<trkpt lat="21.946909" lon="104.775139">
<ele>70.169006</ele>
<time>2011-04-28T08:15:09Z</time>
<desc>lat.=21.946909, lon.=104.775139, Alt.=70.169006m. Speed=18.504000m/h.</desc>
<speed>5.140000</speed>
</trkpt>
<trkpt lat="21.946722" lon="104.775284">
<ele>69.344788</ele>
<time>2011-04-28T08:15:14Z</time>
<desc>lat.=21.946722, lon.=104.775284, Alt.=69.344788m. Speed=17.604000m/h.</desc>
<speed>4.890000</speed>
</trkpt>
<trkpt lat="21.946520" lon="104.775414">
<ele>69.012756</ele>
<time>2011-04-28T08:15:19Z</time>
<desc>lat.=21.946520, lon.=104.775414, Alt.=69.012756m. Speed=18.000000m/h.</desc>
<speed>5.000000</speed>
</trkpt>
<trkpt lat="21.946335" lon="104.775551">
<ele>69.292053</ele>
<time>2011-04-28T08:15:24Z</time>
<desc>lat.=21.946335, lon.=104.775551, Alt.=69.292053m. Speed=16.884001m/h.</desc>
<speed>4.690000</speed>
</trkpt>
<trkpt lat="21.946190" lon="104.775711">
<ele>69.858459</ele>
<time>2011-04-28T08:15:29Z</time>
<desc>lat.=21.946190, lon.=104.775711, Alt.=69.858459m. Speed=16.128000m/h.</desc>
<speed>4.480000</speed>
</trkpt>
<trkpt lat="21.946157" lon="104.776039">
<ele>68.104553</ele>
<time>2011-04-28T08:15:34Z</time>
<desc>lat.=21.946157, lon.=104.776039, Alt.=68.104553m. Speed=22.320000m/h.</desc>
<speed>6.200000</speed>
</trkpt>
<trkpt lat="21.946161" lon="104.776367">
<ele>67.924866</ele>
<time>2011-04-28T08:15:39Z</time>
<desc>lat.=21.946161, lon.=104.776367, Alt.=67.924866m. Speed=22.068001m/h.</desc>
<speed>6.130000</speed>
</trkpt>
<trkpt lat="21.946163" lon="104.776672">
<ele>67.417053</ele>
<time>2011-04-28T08:15:44Z</time>
<desc>lat.=21.946163, lon.=104.776672, Alt.=67.417053m. Speed=19.980000m/h.</desc>
<speed>5.550000</speed>
</trkpt>
<trkpt lat="21.946081" lon="104.776932">
<ele>66.501038</ele>
<time>2011-04-28T08:15:49Z</time>
<desc>lat.=21.946081, lon.=104.776932, Alt.=66.501038m. Speed=18.540001m/h.</desc>
<speed>5.150000</speed>
</trkpt>
<trkpt lat="21.945896" lon="104.777061">
<ele>65.799866</ele>
<time>2011-04-28T08:15:54Z</time>
<desc>lat.=21.945896, lon.=104.777061, Alt.=65.799866m. Speed=18.719999m/h.</desc>
<speed>5.200000</speed>
</trkpt>
<trkpt lat="21.945650" lon="104.777199">
<ele>65.866272</ele>
<time>2011-04-28T08:15:59Z</time>
<desc>lat.=21.945650, lon.=104.777199, Alt.=65.866272m. Speed=18.756001m/h.</desc>
<speed>5.210000</speed>
</trkpt>
<trkpt lat="21.945473" lon="104.777344">
<ele>65.450256</ele>
<time>2011-04-28T08:16:04Z</time>
<desc>lat.=21.945473, lon.=104.777344, Alt.=65.450256m. Speed=14.256000m/h.</desc>
<speed>3.960000</speed>
</trkpt>
<trkpt lat="21.945372" lon="104.777542">
<ele>64.311584</ele>
<time>2011-04-28T08:16:09Z</time>
<desc>lat.=21.945372, lon.=104.777542, Alt.=64.311584m. Speed=17.568001m/h.</desc>
<speed>4.880000</speed>
</trkpt>
<trkpt lat="21.945372" lon="104.777809">
<ele>63.793488</ele>
<time>2011-04-28T08:16:14Z</time>
<desc>lat.=21.945372, lon.=104.777809, Alt.=63.793488m. Speed=22.139999m/h.</desc>
<speed>6.150000</speed>
</trkpt>
<trkpt lat="21.945288" lon="104.778137">
<ele>63.625519</ele>
<time>2011-04-28T08:16:19Z</time>
<desc>lat.=21.945288, lon.=104.778137, Alt.=63.625519m. Speed=23.219999m/h.</desc>
<speed>6.450000</speed>
</trkpt>
<trkpt lat="21.945133" lon="104.778381">
<ele>64.198303</ele>
<time>2011-04-28T08:16:24Z</time>
<desc>lat.=21.945133, lon.=104.778381, Alt.=64.198303m. Speed=17.316000m/h.</desc>
<speed>4.810000</speed>
</trkpt>
<trkpt lat="21.945005" lon="104.778603">
<ele>65.249084</ele>
<time>2011-04-28T08:16:29Z</time>
<desc>lat.=21.945005, lon.=104.778603, Alt.=65.249084m. Speed=13.320000m/h.</desc>
<speed>3.700000</speed>
</trkpt>
<trkpt lat="21.944862" lon="104.778702">
<ele>66.604553</ele>
<time>2011-04-28T08:16:34Z</time>
<desc>lat.=21.944862, lon.=104.778702, Alt.=66.604553m. Speed=10.116000m/h.</desc>
<speed>2.810000</speed>
</trkpt>
<trkpt lat="21.944773" lon="104.778763">
<ele>67.335022</ele>
<time>2011-04-28T08:16:39Z</time>
<desc>lat.=21.944773, lon.=104.778763, Alt.=67.335022m. Speed=6.228000m/h.</desc>
<speed>1.730000</speed>
</trkpt>
<trkpt lat="21.944654" lon="104.778809">
<ele>67.627991</ele>
<time>2011-04-28T08:16:44Z</time>
<desc>lat.=21.944654, lon.=104.778809, Alt.=67.627991m. Speed=7.596000m/h.</desc>
<speed>2.110000</speed>
</trkpt>
<trkpt lat="21.944546" lon="104.778870">
<ele>67.809631</ele>
<time>2011-04-28T08:16:49Z</time>
<desc>lat.=21.944546, lon.=104.778870, Alt.=67.809631m. Speed=5.796000m/h.</desc>
<speed>1.610000</speed>
</trkpt>
<trkpt lat="21.944462" lon="104.778908">
<ele>68.198303</ele>
<time>2011-04-28T08:16:54Z</time>
<desc>lat.=21.944462, lon.=104.778908, Alt.=68.198303m. Speed=6.768000m/h.</desc>
<speed>1.880000</speed>
</trkpt>
<trkpt lat="21.944361" lon="104.778946">
<ele>68.559631</ele>
<time>2011-04-28T08:16:59Z</time>
<desc>lat.=21.944361, lon.=104.778946, Alt.=68.559631m. Speed=7.596000m/h.</desc>
<speed>2.110000</speed>
</trkpt>
<trkpt lat="21.944281" lon="104.779007">
<ele>69.292053</ele>
<time>2011-04-28T08:17:04Z</time>
<desc>lat.=21.944281, lon.=104.779007, Alt.=69.292053m. Speed=8.244000m/h.</desc>
<speed>2.290000</speed>
</trkpt>
<trkpt lat="21.944185" lon="104.779045">
<ele>70.131897</ele>
<time>2011-04-28T08:17:09Z</time>
<desc>lat.=21.944185, lon.=104.779045, Alt.=70.131897m. Speed=8.532000m/h.</desc>
<speed>2.370000</speed>
</trkpt>
<trkpt lat="21.944067" lon="104.779106">
<ele>70.922913</ele>
<time>2011-04-28T08:17:14Z</time>
<desc>lat.=21.944067, lon.=104.779106, Alt.=70.922913m. Speed=8.496000m/h.</desc>
<speed>2.360000</speed>
</trkpt>
<trkpt lat="21.943939" lon="104.779175">
<ele>74.030334</ele>
<time>2011-04-28T08:17:19Z</time>
<desc>lat.=21.943939, lon.=104.779175, Alt.=74.030334m. Speed=8.568000m/h.</desc>
<speed>2.380000</speed>
</trkpt>
<trkpt lat="21.943830" lon="104.779198">
<ele>74.608459</ele>
<time>2011-04-28T08:17:24Z</time>
<desc>lat.=21.943830, lon.=104.779198, Alt.=74.608459m. Speed=9.000000m/h.</desc>
<speed>2.500000</speed>
</trkpt>
<trkpt lat="21.943722" lon="104.779251">
<ele>74.559631</ele>
<time>2011-04-28T08:17:29Z</time>
<desc>lat.=21.943722, lon.=104.779251, Alt.=74.559631m. Speed=9.108000m/h.</desc>
<speed>2.530000</speed>
</trkpt>
<trkpt lat="21.943636" lon="104.779297">
<ele>74.879944</ele>
<time>2011-04-28T08:17:34Z</time>
<desc>lat.=21.943636, lon.=104.779297, Alt.=74.879944m. Speed=5.004000m/h.</desc>
<speed>1.390000</speed>
</trkpt>
<trkpt lat="21.943571" lon="104.779312">
<ele>75.571350</ele>
<time>2011-04-28T08:17:39Z</time>
<desc>lat.=21.943571, lon.=104.779312, Alt.=75.571350m. Speed=4.392000m/h.</desc>
<speed>1.220000</speed>
</trkpt>
<trkpt lat="21.943548" lon="104.779343">
<ele>76.217834</ele>
<time>2011-04-28T08:17:44Z</time>
<desc>lat.=21.943548, lon.=104.779343, Alt.=76.217834m. Speed=0.720000m/h.</desc>
<speed>0.200000</speed>
</trkpt>
<trkpt lat="21.943548" lon="104.779343">
<ele>76.485413</ele>
<time>2011-04-28T08:17:49Z</time>
<desc>lat.=21.943548, lon.=104.779343, Alt.=76.485413m. Speed=0.108000m/h.</desc>
<speed>0.030000</speed>
</trkpt>
<trkpt lat="21.943550" lon="104.779343">
<ele>76.602600</ele>
<time>2011-04-28T08:17:54Z</time>
<desc>lat.=21.943550, lon.=104.779343, Alt.=76.602600m. Speed=0.216000m/h.</desc>
<speed>0.060000</speed>
</trkpt>
<trkpt lat="21.943550" lon="104.779350">
<ele>76.678772</ele>
<time>2011-04-28T08:17:59Z</time>
<desc>lat.=21.943550, lon.=104.779350, Alt.=76.678772m. Speed=0.288000m/h.</desc>
<speed>0.080000</speed>
</trkpt>
<trkpt lat="21.943552" lon="104.779350">
<ele>76.713928</ele>
<time>2011-04-28T08:18:04Z</time>
<desc>lat.=21.943552, lon.=104.779350, Alt.=76.713928m. Speed=0.072000m/h.</desc>
<speed>0.020000</speed>
</trkpt>
<trkpt lat="21.943554" lon="104.779350">
<ele>76.735413</ele>
<time>2011-04-28T08:18:09Z</time>
<desc>lat.=21.943554, lon.=104.779350, Alt.=76.735413m. Speed=0.252000m/h.</desc>
<speed>0.070000</speed>
</trkpt>
<trkpt lat="21.943554" lon="104.779350">
<ele>76.741272</ele>
<time>2011-04-28T08:18:14Z</time>
<desc>lat.=21.943554, lon.=104.779350, Alt.=76.741272m. Speed=0.000000m/h.</desc>
<speed>0.000000</speed>
</trkpt>
<trkpt lat="21.943554" lon="104.779350">
<ele>76.756897</ele>
<time>2011-04-28T08:18:19Z</time>
<desc>lat.=21.943554, lon.=104.779350, Alt.=76.756897m. Speed=0.036000m/h.</desc>
<speed>0.010000</speed>
</trkpt>
<trkpt lat="21.943554" lon="104.779350">
<ele>76.764709</ele>
<time>2011-04-28T08:18:24Z</time>
<desc>lat.=21.943554, lon.=104.779350, Alt.=76.764709m. Speed=0.072000m/h.</desc>
<speed>0.020000</speed>
</trkpt>
<trkpt lat="21.943554" lon="104.779350">
<ele>76.770569</ele>
<time>2011-04-28T08:18:29Z</time>
<desc>lat.=21.943554, lon.=104.779350, Alt.=76.770569m. Speed=0.108000m/h.</desc>
<speed>0.030000</speed>
</trkpt>
<trkpt lat="21.943550" lon="104.779350">
<ele>76.631897</ele>
<time>2011-04-28T08:18:34Z</time>
<desc>lat.=21.943550, lon.=104.779350, Alt.=76.631897m. Speed=0.036000m/h.</desc>
<speed>0.010000</speed>
</trkpt>
<trkpt lat="21.943548" lon="104.779358">
<ele>76.532288</ele>
<time>2011-04-28T08:18:39Z</time>
<desc>lat.=21.943548, lon.=104.779358, Alt.=76.532288m. Speed=0.072000m/h.</desc>
<speed>0.020000</speed>
</trkpt>
<trkpt lat="21.943548" lon="104.779358">
<ele>76.188538</ele>
<time>2011-04-28T08:18:44Z</time>
<desc>lat.=21.943548, lon.=104.779358, Alt.=76.188538m. Speed=0.000000m/h.</desc>
<speed>0.000000</speed>
</trkpt>
<trkpt lat="21.943544" lon="104.779358">
<ele>75.768616</ele>
<time>2011-04-28T08:18:49Z</time>
<desc>lat.=21.943544, lon.=104.779358, Alt.=75.768616m. Speed=0.000000m/h.</desc>
<speed>0.000000</speed>
</trkpt>
<trkpt lat="21.943542" lon="104.779358">
<ele>76.700256</ele>
<time>2011-04-28T08:18:54Z</time>
<desc>lat.=21.943542, lon.=104.779358, Alt.=76.700256m. Speed=0.000000m/h.</desc>
<speed>0.000000</speed>
</trkpt>
<trkpt lat="21.943541" lon="104.779358">
<ele>77.155334</ele>
<time>2011-04-28T08:18:59Z</time>
<desc>lat.=21.943541, lon.=104.779358, Alt.=77.155334m. Speed=0.000000m/h.</desc>
<speed>0.000000</speed>
</trkpt>
<trkpt lat="21.943535" lon="104.779350">
<ele>77.309631</ele>
<time>2011-04-28T08:19:04Z</time>
<desc>lat.=21.943535, lon.=104.779350, Alt.=77.309631m. Speed=0.000000m/h.</desc>
<speed>0.000000</speed>
</trkpt>
<trkpt lat="21.943531" lon="104.779350">
<ele>77.542053</ele>
<time>2011-04-28T08:19:09Z</time>
<desc>lat.=21.943531, lon.=104.779350, Alt.=77.542053m. Speed=0.000000m/h.</desc>
<speed>0.000000</speed>
</trkpt>
<trkpt lat="21.943533" lon="104.779350">
<ele>78.569397</ele>
<time>2011-04-28T08:19:14Z</time>
<desc>lat.=21.943533, lon.=104.779350, Alt.=78.569397m. Speed=0.000000m/h.</desc>
<speed>0.000000</speed>
</trkpt>
<trkpt lat="21.943533" lon="104.779350">
<ele>78.598694</ele>
<time>2011-04-28T08:19:19Z</time>
<desc>lat.=21.943533, lon.=104.779350, Alt.=78.598694m. Speed=0.000000m/h.</desc>
<speed>0.000000</speed>
</trkpt>
<trkpt lat="21.943533" lon="104.779350">
<ele>78.622131</ele>
<time>2011-04-28T08:19:24Z</time>
<desc>lat.=21.943533, lon.=104.779350, Alt.=78.622131m. Speed=0.000000m/h.</desc>
<speed>0.000000</speed>
</trkpt>
<trkpt lat="21.943533" lon="104.779350">
<ele>78.635803</ele>
<time>2011-04-28T08:19:29Z</time>
<desc>lat.=21.943533, lon.=104.779350, Alt.=78.635803m. Speed=0.072000m/h.</desc>
<speed>0.020000</speed>
</trkpt>
<trkpt lat="21.943533" lon="104.779350">
<ele>78.669006</ele>
<time>2011-04-28T08:19:34Z</time>
<desc>lat.=21.943533, lon.=104.779350, Alt.=78.669006m. Speed=0.000000m/h.</desc>
<speed>0.000000</speed>
</trkpt>
<trkpt lat="21.943533" lon="104.779350">
<ele>78.702209</ele>
<time>2011-04-28T08:19:39Z</time>
<desc>lat.=21.943533, lon.=104.779350, Alt.=78.702209m. Speed=0.360000m/h.</desc>
<speed>0.100000</speed>
</trkpt>
<trkpt lat="21.943533" lon="104.779350">
<ele>78.715881</ele>
<time>2011-04-28T08:19:44Z</time>
<desc>lat.=21.943533, lon.=104.779350, Alt.=78.715881m. Speed=0.108000m/h.</desc>
<speed>0.030000</speed>
</trkpt>
<trkpt lat="21.943531" lon="104.779350">
<ele>78.766663</ele>
<time>2011-04-28T08:19:49Z</time>
<desc>lat.=21.943531, lon.=104.779350, Alt.=78.766663m. Speed=0.072000m/h.</desc>
<speed>0.020000</speed>
</trkpt>
<trkpt lat="21.943531" lon="104.779350">
<ele>78.792053</ele>
<time>2011-04-28T08:19:54Z</time>
<desc>lat.=21.943531, lon.=104.779350, Alt.=78.792053m. Speed=0.036000m/h.</desc>
<speed>0.010000</speed>
</trkpt>
<trkpt lat="21.943531" lon="104.779350">
<ele>78.794006</ele>
<time>2011-04-28T08:19:59Z</time>
<desc>lat.=21.943531, lon.=104.779350, Alt.=78.794006m. Speed=0.036000m/h.</desc>
<speed>0.010000</speed>
</trkpt>
<trkpt lat="21.943531" lon="104.779350">
<ele>78.809631</ele>
<time>2011-04-28T08:20:04Z</time>
<desc>lat.=21.943531, lon.=104.779350, Alt.=78.809631m. Speed=0.000000m/h.</desc>
<speed>0.000000</speed>
</trkpt>
<trkpt lat="21.943531" lon="104.779350">
<ele>78.809631</ele>
<time>2011-04-28T08:20:09Z</time>
<desc>lat.=21.943531, lon.=104.779350, Alt.=78.809631m. Speed=0.000000m/h.</desc>
<speed>0.000000</speed>
</trkpt>
<trkpt lat="21.943531" lon="104.779350">
<ele>78.831116</ele>
<time>2011-04-28T08:20:14Z</time>
<desc>lat.=21.943531, lon.=104.779350, Alt.=78.831116m. Speed=0.000000m/h.</desc>
<speed>0.000000</speed>
</trkpt>
<trkpt lat="21.943531" lon="104.779350">
<ele>78.817444</ele>
<time>2011-04-28T08:20:19Z</time>
<desc>lat.=21.943531, lon.=104.779350, Alt.=78.817444m. Speed=0.036000m/h.</desc>
<speed>0.010000</speed>
</trkpt>
<trkpt lat="21.943531" lon="104.779350">
<ele>78.815491</ele>
<time>2011-04-28T08:20:24Z</time>
<desc>lat.=21.943531, lon.=104.779350, Alt.=78.815491m. Speed=0.000000m/h.</desc>
<speed>0.000000</speed>
</trkpt>
<trkpt lat="21.943531" lon="104.779350">
<ele>78.831116</ele>
<time>2011-04-28T08:20:29Z</time>
<desc>lat.=21.943531, lon.=104.779350, Alt.=78.831116m. Speed=0.036000m/h.</desc>
<speed>0.010000</speed>
</trkpt>
<trkpt lat="21.943531" lon="104.779350">
<ele>78.850647</ele>
<time>2011-04-28T08:20:34Z</time>
<desc>lat.=21.943531, lon.=104.779350, Alt.=78.850647m. Speed=0.036000m/h.</desc>
<speed>0.010000</speed>
</trkpt>
<trkpt lat="21.943531" lon="104.779350">
<ele>78.877991</ele>
<time>2011-04-28T08:20:39Z</time>
<desc>lat.=21.943531, lon.=104.779350, Alt.=78.877991m. Speed=0.000000m/h.</desc>
<speed>0.000000</speed>
</trkpt>
<trkpt lat="21.943531" lon="104.779350">
<ele>78.881897</ele>
<time>2011-04-28T08:20:44Z</time>
<desc>lat.=21.943531, lon.=104.779350, Alt.=78.881897m. Speed=0.000000m/h.</desc>
<speed>0.000000</speed>
</trkpt>
<trkpt lat="21.943531" lon="104.779350">
<ele>78.911194</ele>
<time>2011-04-28T08:20:49Z</time>
<desc>lat.=21.943531, lon.=104.779350, Alt.=78.911194m. Speed=0.000000m/h.</desc>
<speed>0.000000</speed>
</trkpt>
<trkpt lat="21.943531" lon="104.779350">
<ele>78.922913</ele>
<time>2011-04-28T08:20:54Z</time>
<desc>lat.=21.943531, lon.=104.779350, Alt.=78.922913m. Speed=0.072000m/h.</desc>
<speed>0.020000</speed>
</trkpt>
<trkpt lat="21.943531" lon="104.779350">
<ele>78.950256</ele>
<time>2011-04-28T08:20:59Z</time>
<desc>lat.=21.943531, lon.=104.779350, Alt.=78.950256m. Speed=0.072000m/h.</desc>
<speed>0.020000</speed>
</trkpt>
<trkpt lat="21.943531" lon="104.779350">
<ele>78.971741</ele>
<time>2011-04-28T08:21:04Z</time>
<desc>lat.=21.943531, lon.=104.779350, Alt.=78.971741m. Speed=0.000000m/h.</desc>
<speed>0.000000</speed>
</trkpt>
<trkpt lat="21.943531" lon="104.779350">
<ele>78.971741</ele>
<time>2011-04-28T08:21:09Z</time>
<desc>lat.=21.943531, lon.=104.779350, Alt.=78.971741m. Speed=0.000000m/h.</desc>
<speed>0.000000</speed>
</trkpt>
<trkpt lat="21.943531" lon="104.779350">
<ele>78.979553</ele>
<time>2011-04-28T08:21:14Z</time>
<desc>lat.=21.943531, lon.=104.779350, Alt.=78.979553m. Speed=0.396000m/h.</desc>
<speed>0.110000</speed>
</trkpt>
<trkpt lat="21.943439" lon="104.779388">
<ele>78.549866</ele>
<time>2011-04-28T08:21:19Z</time>
<desc>lat.=21.943439, lon.=104.779388, Alt.=78.549866m. Speed=8.748000m/h.</desc>
<speed>2.430000</speed>
</trkpt>
<trkpt lat="21.943287" lon="104.779427">
<ele>80.231506</ele>
<time>2011-04-28T08:21:24Z</time>
<desc>lat.=21.943287, lon.=104.779427, Alt.=80.231506m. Speed=13.320000m/h.</desc>
<speed>3.700000</speed>
</trkpt>
<trkpt lat="21.943079" lon="104.779480">
<ele>83.502991</ele>
<time>2011-04-28T08:21:29Z</time>
<desc>lat.=21.943079, lon.=104.779480, Alt.=83.502991m. Speed=19.007999m/h.</desc>
<speed>5.280000</speed>
</trkpt>
<trkpt lat="21.942831" lon="104.779633">
<ele>85.174866</ele>
<time>2011-04-28T08:21:34Z</time>
<desc>lat.=21.942831, lon.=104.779633, Alt.=85.174866m. Speed=24.011999m/h.</desc>
<speed>6.670000</speed>
</trkpt>
<trkpt lat="21.942671" lon="104.779945">
<ele>84.393616</ele>
<time>2011-04-28T08:21:39Z</time>
<desc>lat.=21.942671, lon.=104.779945, Alt.=84.393616m. Speed=23.652000m/h.</desc>
<speed>6.570000</speed>
</trkpt>
<trkpt lat="21.942497" lon="104.780197">
<ele>86.059631</ele>
<time>2011-04-28T08:21:44Z</time>
<desc>lat.=21.942497, lon.=104.780197, Alt.=86.059631m. Speed=24.516001m/h.</desc>
<speed>6.810000</speed>
</trkpt>
<trkpt lat="21.942163" lon="104.780418">
<ele>88.202209</ele>
<time>2011-04-28T08:21:49Z</time>
<desc>lat.=21.942163, lon.=104.780418, Alt.=88.202209m. Speed=28.656000m/h.</desc>
<speed>7.960000</speed>
</trkpt>
<trkpt lat="21.941885" lon="104.780716">
<ele>84.522522</ele>
<time>2011-04-28T08:21:54Z</time>
<desc>lat.=21.941885, lon.=104.780716, Alt.=84.522522m. Speed=21.455999m/h.</desc>
<speed>5.960000</speed>
</trkpt>
<trkpt lat="21.941919" lon="104.781036">
<ele>83.653381</ele>
<time>2011-04-28T08:21:59Z</time>
<desc>lat.=21.941919, lon.=104.781036, Alt.=83.653381m. Speed=24.912001m/h.</desc>
<speed>6.920000</speed>
</trkpt>
<trkpt lat="21.942057" lon="104.781425">
<ele>81.930725</ele>
<time>2011-04-28T08:22:04Z</time>
<desc>lat.=21.942057, lon.=104.781425, Alt.=81.930725m. Speed=27.540001m/h.</desc>
<speed>7.650000</speed>
</trkpt>
<trkpt lat="21.942207" lon="104.781837">
<ele>80.676819</ele>
<time>2011-04-28T08:22:09Z</time>
<desc>lat.=21.942207, lon.=104.781837, Alt.=80.676819m. Speed=29.628000m/h.</desc>
<speed>8.230000</speed>
</trkpt>
<trkpt lat="21.942389" lon="104.782204">
<ele>79.135803</ele>
<time>2011-04-28T08:22:14Z</time>
<desc>lat.=21.942389, lon.=104.782204, Alt.=79.135803m. Speed=26.100000m/h.</desc>
<speed>7.250000</speed>
</trkpt>
<trkpt lat="21.942526" lon="104.782509">
<ele>76.335022</ele>
<time>2011-04-28T08:22:19Z</time>
<desc>lat.=21.942526, lon.=104.782509, Alt.=76.335022m. Speed=23.472000m/h.</desc>
<speed>6.520000</speed>
</trkpt>
<trkpt lat="21.942503" lon="104.782814">
<ele>73.149475</ele>
<time>2011-04-28T08:22:24Z</time>
<desc>lat.=21.942503, lon.=104.782814, Alt.=73.149475m. Speed=18.972000m/h.</desc>
<speed>5.270000</speed>
</trkpt>
<trkpt lat="21.942425" lon="104.783035">
<ele>69.710022</ele>
<time>2011-04-28T08:22:29Z</time>
<desc>lat.=21.942425, lon.=104.783035, Alt.=69.710022m. Speed=16.344000m/h.</desc>
<speed>4.540000</speed>
</trkpt>
<trkpt lat="21.942411" lon="104.783264">
<ele>66.520569</ele>
<time>2011-04-28T08:22:34Z</time>
<desc>lat.=21.942411, lon.=104.783264, Alt.=66.520569m. Speed=18.072001m/h.</desc>
<speed>5.020000</speed>
</trkpt>
<trkpt lat="21.942400" lon="104.783546">
<ele>63.002472</ele>
<time>2011-04-28T08:22:39Z</time>
<desc>lat.=21.942400, lon.=104.783546, Alt.=63.002472m. Speed=21.096001m/h.</desc>
<speed>5.860000</speed>
</trkpt>
<trkpt lat="21.942307" lon="104.783806">
<ele>59.776886</ele>
<time>2011-04-28T08:22:44Z</time>
<desc>lat.=21.942307, lon.=104.783806, Alt.=59.776886m. Speed=16.308001m/h.</desc>
<speed>4.530000</speed>
</trkpt>
<trkpt lat="21.942070" lon="104.784035">
<ele>61.162628</ele>
<time>2011-04-28T08:22:49Z</time>
<desc>lat.=21.942070, lon.=104.784035, Alt.=61.162628m. Speed=21.672001m/h.</desc>
<speed>6.020000</speed>
</trkpt>
<trkpt lat="21.941814" lon="104.784218">
<ele>62.678253</ele>
<time>2011-04-28T08:22:54Z</time>
<desc>lat.=21.941814, lon.=104.784218, Alt.=62.678253m. Speed=21.348000m/h.</desc>
<speed>5.930000</speed>
</trkpt>
<trkpt lat="21.941620" lon="104.784378">
<ele>63.027863</ele>
<time>2011-04-28T08:22:59Z</time>
<desc>lat.=21.941620, lon.=104.784378, Alt.=63.027863m. Speed=17.892000m/h.</desc>
<speed>4.970000</speed>
</trkpt>
<trkpt lat="21.941433" lon="104.784554">
<ele>63.563995</ele>
<time>2011-04-28T08:23:04Z</time>
<desc>lat.=21.941433, lon.=104.784554, Alt.=63.563995m. Speed=19.944000m/h.</desc>
<speed>5.540000</speed>
</trkpt>
<trkpt lat="21.941252" lon="104.784721">
<ele>63.508331</ele>
<time>2011-04-28T08:23:09Z</time>
<desc>lat.=21.941252, lon.=104.784721, Alt.=63.508331m. Speed=17.639999m/h.</desc>
<speed>4.900000</speed>
</trkpt>
<trkpt lat="21.941074" lon="104.784851">
<ele>63.851105</ele>
<time>2011-04-28T08:23:14Z</time>
<desc>lat.=21.941074, lon.=104.784851, Alt.=63.851105m. Speed=13.320000m/h.</desc>
<speed>3.700000</speed>
</trkpt>
<trkpt lat="21.940918" lon="104.784981">
<ele>64.489319</ele>
<time>2011-04-28T08:23:19Z</time>
<desc>lat.=21.940918, lon.=104.784981, Alt.=64.489319m. Speed=14.292000m/h.</desc>
<speed>3.970000</speed>
</trkpt>
<trkpt lat="21.940773" lon="104.785103">
<ele>65.983459</ele>
<time>2011-04-28T08:23:24Z</time>
<desc>lat.=21.940773, lon.=104.785103, Alt.=65.983459m. Speed=13.104000m/h.</desc>
<speed>3.640000</speed>
</trkpt>
<trkpt lat="21.940649" lon="104.785202">
<ele>67.553772</ele>
<time>2011-04-28T08:23:29Z</time>
<desc>lat.=21.940649, lon.=104.785202, Alt.=67.553772m. Speed=11.052000m/h.</desc>
<speed>3.070000</speed>
</trkpt>
<trkpt lat="21.940557" lon="104.785294">
<ele>69.335022</ele>
<time>2011-04-28T08:23:34Z</time>
<desc>lat.=21.940557, lon.=104.785294, Alt.=69.335022m. Speed=10.152000m/h.</desc>
<speed>2.820000</speed>
</trkpt>
<trkpt lat="21.940411" lon="104.785446">
<ele>70.977600</ele>
<time>2011-04-28T08:23:39Z</time>
<desc>lat.=21.940411, lon.=104.785446, Alt.=70.977600m. Speed=17.424000m/h.</desc>
<speed>4.840000</speed>
</trkpt>
<trkpt lat="21.940243" lon="104.785599">
<ele>71.698303</ele>
<time>2011-04-28T08:23:44Z</time>
<desc>lat.=21.940243, lon.=104.785599, Alt.=71.698303m. Speed=14.472000m/h.</desc>
<speed>4.020000</speed>
</trkpt>
<trkpt lat="21.940092" lon="104.785782">
<ele>73.075256</ele>
<time>2011-04-28T08:23:49Z</time>
<desc>lat.=21.940092, lon.=104.785782, Alt.=73.075256m. Speed=9.432000m/h.</desc>
<speed>2.620000</speed>
</trkpt>
<trkpt lat="21.940044" lon="104.785843">
<ele>72.665100</ele>
<time>2011-04-28T08:23:54Z</time>
<desc>lat.=21.940044, lon.=104.785843, Alt.=72.665100m. Speed=0.720000m/h.</desc>
<speed>0.200000</speed>
</trkpt>
<trkpt lat="21.940044" lon="104.785843">
<ele>72.356506</ele>
<time>2011-04-28T08:23:59Z</time>
<desc>lat.=21.940044, lon.=104.785843, Alt.=72.356506m. Speed=0.036000m/h.</desc>
<speed>0.010000</speed>
</trkpt>
<trkpt lat="21.940042" lon="104.785843">
<ele>72.438538</ele>
<time>2011-04-28T08:24:04Z</time>
<desc>lat.=21.940042, lon.=104.785843, Alt.=72.438538m. Speed=0.432000m/h.</desc>
<speed>0.120000</speed>
</trkpt>
<trkpt lat="21.940044" lon="104.785828">
<ele>72.456116</ele>
<time>2011-04-28T08:24:09Z</time>
<desc>lat.=21.940044, lon.=104.785828, Alt.=72.456116m. Speed=2.088000m/h.</desc>
<speed>0.580000</speed>
</trkpt>
<trkpt lat="21.940060" lon="104.785820">
<ele>72.428772</ele>
<time>2011-04-28T08:24:14Z</time>
<desc>lat.=21.940060, lon.=104.785820, Alt.=72.428772m. Speed=1.908000m/h.</desc>
<speed>0.530000</speed>
</trkpt>
<trkpt lat="21.940058" lon="104.785812">
<ele>72.512756</ele>
<time>2011-04-28T08:24:19Z</time>
<desc>lat.=21.940058, lon.=104.785812, Alt.=72.512756m. Speed=0.036000m/h.</desc>
<speed>0.010000</speed>
</trkpt>
<trkpt lat="21.940060" lon="104.785812">
<ele>72.547913</ele>
<time>2011-04-28T08:24:24Z</time>
<desc>lat.=21.940060, lon.=104.785812, Alt.=72.547913m. Speed=0.180000m/h.</desc>
<speed>0.050000</speed>
</trkpt>
<trkpt lat="21.940060" lon="104.785812">
<ele>72.538147</ele>
<time>2011-04-28T08:24:29Z</time>
<desc>lat.=21.940060, lon.=104.785812, Alt.=72.538147m. Speed=0.000000m/h.</desc>
<speed>0.000000</speed>
</trkpt>
<trkpt lat="21.940048" lon="104.785805">
<ele>72.696350</ele>
<time>2011-04-28T08:24:34Z</time>
<desc>lat.=21.940048, lon.=104.785805, Alt.=72.696350m. Speed=1.980000m/h.</desc>
<speed>0.550000</speed>
</trkpt>
<trkpt lat="21.940041" lon="104.785797">
<ele>72.723694</ele>
<time>2011-04-28T08:24:39Z</time>
<desc>lat.=21.940041, lon.=104.785797, Alt.=72.723694m. Speed=1.224000m/h.</desc>
<speed>0.340000</speed>
</trkpt>
<trkpt lat="21.940029" lon="104.785797">
<ele>72.729553</ele>
<time>2011-04-28T08:24:44Z</time>
<desc>lat.=21.940029, lon.=104.785797, Alt.=72.729553m. Speed=0.036000m/h.</desc>
<speed>0.010000</speed>
</trkpt>
<trkpt lat="21.940029" lon="104.785805">
<ele>72.772522</ele>
<time>2011-04-28T08:24:49Z</time>
<desc>lat.=21.940029, lon.=104.785805, Alt.=72.772522m. Speed=0.108000m/h.</desc>
<speed>0.030000</speed>
</trkpt>
<trkpt lat="21.940029" lon="104.785805">
<ele>72.807678</ele>
<time>2011-04-28T08:24:54Z</time>
<desc>lat.=21.940029, lon.=104.785805, Alt.=72.807678m. Speed=0.216000m/h.</desc>
<speed>0.060000</speed>
</trkpt>
<trkpt lat="21.940031" lon="104.785805">
<ele>72.829163</ele>
<time>2011-04-28T08:24:59Z</time>
<desc>lat.=21.940031, lon.=104.785805, Alt.=72.829163m. Speed=0.072000m/h.</desc>
<speed>0.020000</speed>
</trkpt>
<trkpt lat="21.940031" lon="104.785805">
<ele>72.838928</ele>
<time>2011-04-28T08:25:04Z</time>
<desc>lat.=21.940031, lon.=104.785805, Alt.=72.838928m. Speed=0.396000m/h.</desc>
<speed>0.110000</speed>
</trkpt>
<trkpt lat="21.940037" lon="104.785805">
<ele>72.850647</ele>
<time>2011-04-28T08:25:09Z</time>
<desc>lat.=21.940037, lon.=104.785805, Alt.=72.850647m. Speed=0.432000m/h.</desc>
<speed>0.120000</speed>
</trkpt>
<trkpt lat="21.940031" lon="104.785820">
<ele>72.852600</ele>
<time>2011-04-28T08:25:14Z</time>
<desc>lat.=21.940031, lon.=104.785820, Alt.=72.852600m. Speed=2.664000m/h.</desc>
<speed>0.740000</speed>
</trkpt>
<trkpt lat="21.940020" lon="104.785835">
<ele>72.866272</ele>
<time>2011-04-28T08:25:19Z</time>
<desc>lat.=21.940020, lon.=104.785835, Alt.=72.866272m. Speed=0.504000m/h.</desc>
<speed>0.140000</speed>
</trkpt>
<trkpt lat="21.940022" lon="104.785843">
<ele>72.827209</ele>
<time>2011-04-28T08:25:24Z</time>
<desc>lat.=21.940022, lon.=104.785843, Alt.=72.827209m. Speed=0.612000m/h.</desc>
<speed>0.170000</speed>
</trkpt>
<trkpt lat="21.940023" lon="104.785843">
<ele>72.840881</ele>
<time>2011-04-28T08:25:29Z</time>
<desc>lat.=21.940023, lon.=104.785843, Alt.=72.840881m. Speed=0.072000m/h.</desc>
<speed>0.020000</speed>
</trkpt>
<trkpt lat="21.940022" lon="104.785843">
<ele>72.879944</ele>
<time>2011-04-28T08:25:34Z</time>
<desc>lat.=21.940022, lon.=104.785843, Alt.=72.879944m. Speed=0.108000m/h.</desc>
<speed>0.030000</speed>
</trkpt>
<trkpt lat="21.940022" lon="104.785843">
<ele>72.924866</ele>
<time>2011-04-28T08:25:39Z</time>
<desc>lat.=21.940022, lon.=104.785843, Alt.=72.924866m. Speed=0.144000m/h.</desc>
<speed>0.040000</speed>
</trkpt>
<trkpt lat="21.940022" lon="104.785843">
<ele>72.956116</ele>
<time>2011-04-28T08:25:44Z</time>
<desc>lat.=21.940022, lon.=104.785843, Alt.=72.956116m. Speed=0.036000m/h.</desc>
<speed>0.010000</speed>
</trkpt>
<trkpt lat="21.940020" lon="104.785843">
<ele>72.960022</ele>
<time>2011-04-28T08:25:49Z</time>
<desc>lat.=21.940020, lon.=104.785843, Alt.=72.960022m. Speed=0.468000m/h.</desc>
<speed>0.130000</speed>
</trkpt>
<trkpt lat="21.940022" lon="104.785843">
<ele>72.881897</ele>
<time>2011-04-28T08:25:54Z</time>
<desc>lat.=21.940022, lon.=104.785843, Alt.=72.881897m. Speed=0.072000m/h.</desc>
<speed>0.020000</speed>
</trkpt>
<trkpt lat="21.940022" lon="104.785843">
<ele>72.868225</ele>
<time>2011-04-28T08:25:59Z</time>
<desc>lat.=21.940022, lon.=104.785843, Alt.=72.868225m. Speed=0.036000m/h.</desc>
<speed>0.010000</speed>
</trkpt>
<trkpt lat="21.940022" lon="104.785843">
<ele>72.866272</ele>
<time>2011-04-28T08:26:04Z</time>
<desc>lat.=21.940022, lon.=104.785843, Alt.=72.866272m. Speed=0.000000m/h.</desc>
<speed>0.000000</speed>
</trkpt>
<trkpt lat="21.940022" lon="104.785843">
<ele>72.856506</ele>
<time>2011-04-28T08:26:09Z</time>
<desc>lat.=21.940022, lon.=104.785843, Alt.=72.856506m. Speed=0.000000m/h.</desc>
<speed>0.000000</speed>
</trkpt>
<trkpt lat="21.940022" lon="104.785843">
<ele>72.870178</ele>
<time>2011-04-28T08:26:14Z</time>
<desc>lat.=21.940022, lon.=104.785843, Alt.=72.870178m. Speed=0.036000m/h.</desc>
<speed>0.010000</speed>
</trkpt>
<trkpt lat="21.940022" lon="104.785843">
<ele>73.051819</ele>
<time>2011-04-28T08:26:19Z</time>
<desc>lat.=21.940022, lon.=104.785843, Alt.=73.051819m. Speed=0.216000m/h.</desc>
<speed>0.060000</speed>
</trkpt>
<trkpt lat="21.940020" lon="104.785843">
<ele>73.067444</ele>
<time>2011-04-28T08:26:24Z</time>
<desc>lat.=21.940020, lon.=104.785843, Alt.=73.067444m. Speed=0.036000m/h.</desc>
<speed>0.010000</speed>
</trkpt>
<trkpt lat="21.940020" lon="104.785843">
<ele>73.092834</ele>
<time>2011-04-28T08:26:29Z</time>
<desc>lat.=21.940020, lon.=104.785843, Alt.=73.092834m. Speed=0.072000m/h.</desc>
<speed>0.020000</speed>
</trkpt>
<trkpt lat="21.940020" lon="104.785851">
<ele>73.184631</ele>
<time>2011-04-28T08:26:34Z</time>
<desc>lat.=21.940020, lon.=104.785851, Alt.=73.184631m. Speed=0.144000m/h.</desc>
<speed>0.040000</speed>
</trkpt>
<trkpt lat="21.940018" lon="104.785851">
<ele>73.387756</ele>
<time>2011-04-28T08:26:39Z</time>
<desc>lat.=21.940018, lon.=104.785851, Alt.=73.387756m. Speed=0.072000m/h.</desc>
<speed>0.020000</speed>
</trkpt>
<trkpt lat="21.940018" lon="104.785851">
<ele>73.542053</ele>
<time>2011-04-28T08:26:44Z</time>
<desc>lat.=21.940018, lon.=104.785851, Alt.=73.542053m. Speed=0.108000m/h.</desc>
<speed>0.030000</speed>
</trkpt>
<trkpt lat="21.940016" lon="104.785851">
<ele>73.647522</ele>
<time>2011-04-28T08:26:49Z</time>
<desc>lat.=21.940016, lon.=104.785851, Alt.=73.647522m. Speed=0.036000m/h.</desc>
<speed>0.010000</speed>
</trkpt>
<trkpt lat="21.940016" lon="104.785851">
<ele>73.665100</ele>
<time>2011-04-28T08:26:54Z</time>
<desc>lat.=21.940016, lon.=104.785851, Alt.=73.665100m. Speed=0.072000m/h.</desc>
<speed>0.020000</speed>
</trkpt>
<trkpt lat="21.940016" lon="104.785851">
<ele>73.622131</ele>
<time>2011-04-28T08:26:59Z</time>
<desc>lat.=21.940016, lon.=104.785851, Alt.=73.622131m. Speed=0.000000m/h.</desc>
<speed>0.000000</speed>
</trkpt>
<trkpt lat="21.940016" lon="104.785851">
<ele>73.538147</ele>
<time>2011-04-28T08:27:04Z</time>
<desc>lat.=21.940016, lon.=104.785851, Alt.=73.538147m. Speed=0.000000m/h.</desc>
<speed>0.000000</speed>
</trkpt>
<trkpt lat="21.940016" lon="104.785851">
<ele>73.514709</ele>
<time>2011-04-28T08:27:09Z</time>
<desc>lat.=21.940016, lon.=104.785851, Alt.=73.514709m. Speed=0.036000m/h.</desc>
<speed>0.010000</speed>
</trkpt>
<trkpt lat="21.940016" lon="104.785851">
<ele>73.495178</ele>
<time>2011-04-28T08:27:14Z</time>
<desc>lat.=21.940016, lon.=104.785851, Alt.=73.495178m. Speed=0.000000m/h.</desc>
<speed>0.000000</speed>
</trkpt>
<trkpt lat="21.940016" lon="104.785851">
<ele>73.489319</ele>
<time>2011-04-28T08:27:19Z</time>
<desc>lat.=21.940016, lon.=104.785851, Alt.=73.489319m. Speed=0.000000m/h.</desc>
<speed>0.000000</speed>
</trkpt>
<trkpt lat="21.940016" lon="104.785851">
<ele>73.491272</ele>
<time>2011-04-28T08:27:24Z</time>
<desc>lat.=21.940016, lon.=104.785851, Alt.=73.491272m. Speed=0.000000m/h.</desc>
<speed>0.000000</speed>
</trkpt>
<trkpt lat="21.940016" lon="104.785851">
<ele>73.475647</ele>
<time>2011-04-28T08:27:29Z</time>
<desc>lat.=21.940016, lon.=104.785851, Alt.=73.475647m. Speed=0.000000m/h.</desc>
<speed>0.000000</speed>
</trkpt>
<trkpt lat="21.940016" lon="104.785851">
<ele>73.434631</ele>
<time>2011-04-28T08:27:34Z</time>
<desc>lat.=21.940016, lon.=104.785851, Alt.=73.434631m. Speed=0.036000m/h.</desc>
<speed>0.010000</speed>
</trkpt>
<trkpt lat="21.940016" lon="104.785851">
<ele>73.381897</ele>
<time>2011-04-28T08:27:39Z</time>
<desc>lat.=21.940016, lon.=104.785851, Alt.=73.381897m. Speed=0.036000m/h.</desc>
<speed>0.010000</speed>
</trkpt>
<trkpt lat="21.940016" lon="104.785851">
<ele>73.286194</ele>
<time>2011-04-28T08:27:44Z</time>
<desc>lat.=21.940016, lon.=104.785851, Alt.=73.286194m. Speed=0.036000m/h.</desc>
<speed>0.010000</speed>
</trkpt>
<trkpt lat="21.940016" lon="104.785851">
<ele>73.190491</ele>
<time>2011-04-28T08:27:49Z</time>
<desc>lat.=21.940016, lon.=104.785851, Alt.=73.190491m. Speed=0.036000m/h.</desc>
<speed>0.010000</speed>
</trkpt>
<trkpt lat="21.940016" lon="104.785858">
<ele>73.139709</ele>
<time>2011-04-28T08:27:54Z</time>
<desc>lat.=21.940016, lon.=104.785858, Alt.=73.139709m. Speed=0.036000m/h.</desc>
<speed>0.010000</speed>
</trkpt>
<trkpt lat="21.940016" lon="104.785858">
<ele>73.126038</ele>
<time>2011-04-28T08:27:59Z</time>
<desc>lat.=21.940016, lon.=104.785858, Alt.=73.126038m. Speed=0.000000m/h.</desc>
<speed>0.000000</speed>
</trkpt>
<trkpt lat="21.940016" lon="104.785858">
<ele>73.133850</ele>
<time>2011-04-28T08:28:04Z</time>
<desc>lat.=21.940016, lon.=104.785858, Alt.=73.133850m. Speed=0.072000m/h.</desc>
<speed>0.020000</speed>
</trkpt>
<trkpt lat="21.940016" lon="104.785858">
<ele>73.131897</ele>
<time>2011-04-28T08:28:09Z</time>
<desc>lat.=21.940016, lon.=104.785858, Alt.=73.131897m. Speed=0.036000m/h.</desc>
<speed>0.010000</speed>
</trkpt>
<trkpt lat="21.940016" lon="104.785858">
<ele>73.126038</ele>
<time>2011-04-28T08:28:14Z</time>
<desc>lat.=21.940016, lon.=104.785858, Alt.=73.126038m. Speed=0.000000m/h.</desc>
<speed>0.000000</speed>
</trkpt>
<trkpt lat="21.940016" lon="104.785858">
<ele>73.116272</ele>
<time>2011-04-28T08:28:19Z</time>
<desc>lat.=21.940016, lon.=104.785858, Alt.=73.116272m. Speed=0.000000m/h.</desc>
<speed>0.000000</speed>
</trkpt>
<trkpt lat="21.940016" lon="104.785858">
<ele>73.129944</ele>
<time>2011-04-28T08:28:24Z</time>
<desc>lat.=21.940016, lon.=104.785858, Alt.=73.129944m. Speed=0.036000m/h.</desc>
<speed>0.010000</speed>
</trkpt>
<trkpt lat="21.940016" lon="104.785858">
<ele>73.127991</ele>
<time>2011-04-28T08:28:29Z</time>
<desc>lat.=21.940016, lon.=104.785858, Alt.=73.127991m. Speed=0.072000m/h.</desc>
<speed>0.020000</speed>
</trkpt>
<trkpt lat="21.940014" lon="104.785858">
<ele>73.112366</ele>
<time>2011-04-28T08:28:34Z</time>
<desc>lat.=21.940014, lon.=104.785858, Alt.=73.112366m. Speed=0.036000m/h.</desc>
<speed>0.010000</speed>
</trkpt>
<trkpt lat="21.940014" lon="104.785858">
<ele>73.106506</ele>
<time>2011-04-28T08:28:39Z</time>
<desc>lat.=21.940014, lon.=104.785858, Alt.=73.106506m. Speed=0.000000m/h.</desc>
<speed>0.000000</speed>
</trkpt>
<trkpt lat="21.940014" lon="104.785858">
<ele>73.127991</ele>
<time>2011-04-28T08:28:44Z</time>
<desc>lat.=21.940014, lon.=104.785858, Alt.=73.127991m. Speed=0.000000m/h.</desc>
<speed>0.000000</speed>
</trkpt>
<trkpt lat="21.940014" lon="104.785858">
<ele>73.167053</ele>
<time>2011-04-28T08:28:49Z</time>
<desc>lat.=21.940014, lon.=104.785858, Alt.=73.167053m. Speed=0.000000m/h.</desc>
<speed>0.000000</speed>
</trkpt>
<trkpt lat="21.940014" lon="104.785858">
<ele>73.217834</ele>
<time>2011-04-28T08:28:54Z</time>
<desc>lat.=21.940014, lon.=104.785858, Alt.=73.217834m. Speed=0.036000m/h.</desc>
<speed>0.010000</speed>
</trkpt>
<trkpt lat="21.940014" lon="104.785858">
<ele>73.243225</ele>
<time>2011-04-28T08:28:59Z</time>
<desc>lat.=21.940014, lon.=104.785858, Alt.=73.243225m. Speed=0.036000m/h.</desc>
<speed>0.010000</speed>
</trkpt>
<trkpt lat="21.940014" lon="104.785858">
<ele>73.245178</ele>
<time>2011-04-28T08:29:04Z</time>
<desc>lat.=21.940014, lon.=104.785858, Alt.=73.245178m. Speed=0.000000m/h.</desc>
<speed>0.000000</speed>
</trkpt>
<trkpt lat="21.940012" lon="104.785858">
<ele>73.241272</ele>
<time>2011-04-28T08:29:09Z</time>
<desc>lat.=21.940012, lon.=104.785858, Alt.=73.241272m. Speed=0.036000m/h.</desc>
<speed>0.010000</speed>
</trkpt>
<trkpt lat="21.940012" lon="104.785858">
<ele>73.227600</ele>
<time>2011-04-28T08:29:14Z</time>
<desc>lat.=21.940012, lon.=104.785858, Alt.=73.227600m. Speed=0.000000m/h.</desc>
<speed>0.000000</speed>
</trkpt>
<trkpt lat="21.940012" lon="104.785858">
<ele>73.223694</ele>
<time>2011-04-28T08:29:19Z</time>
<desc>lat.=21.940012, lon.=104.785858, Alt.=73.223694m. Speed=0.036000m/h.</desc>
<speed>0.010000</speed>
</trkpt>
<trkpt lat="21.940012" lon="104.785858">
<ele>73.225647</ele>
<time>2011-04-28T08:29:24Z</time>
<desc>lat.=21.940012, lon.=104.785858, Alt.=73.225647m. Speed=0.000000m/h.</desc>
<speed>0.000000</speed>
</trkpt>
<trkpt lat="21.940012" lon="104.785858">
<ele>73.190491</ele>
<time>2011-04-28T08:29:29Z</time>
<desc>lat.=21.940012, lon.=104.785858, Alt.=73.190491m. Speed=0.000000m/h.</desc>
<speed>0.000000</speed>
</trkpt>
<trkpt lat="21.940012" lon="104.785858">
<ele>73.151428</ele>
<time>2011-04-28T08:29:34Z</time>
<desc>lat.=21.940012, lon.=104.785858, Alt.=73.151428m. Speed=0.072000m/h.</desc>
<speed>0.020000</speed>
</trkpt>
<trkpt lat="21.940012" lon="104.785858">
<ele>73.137756</ele>
<time>2011-04-28T08:29:39Z</time>
<desc>lat.=21.940012, lon.=104.785858, Alt.=73.137756m. Speed=0.036000m/h.</desc>
<speed>0.010000</speed>
</trkpt>
<trkpt lat="21.940012" lon="104.785858">
<ele>73.131897</ele>
<time>2011-04-28T08:29:44Z</time>
<desc>lat.=21.940012, lon.=104.785858, Alt.=73.131897m. Speed=0.072000m/h.</desc>
<speed>0.020000</speed>
</trkpt>
<trkpt lat="21.940012" lon="104.785858">
<ele>73.155334</ele>
<time>2011-04-28T08:29:49Z</time>
<desc>lat.=21.940012, lon.=104.785858, Alt.=73.155334m. Speed=0.036000m/h.</desc>
<speed>0.010000</speed>
</trkpt>
<trkpt lat="21.940012" lon="104.785858">
<ele>73.147522</ele>
<time>2011-04-28T08:29:54Z</time>
<desc>lat.=21.940012, lon.=104.785858, Alt.=73.147522m. Speed=0.144000m/h.</desc>
<speed>0.040000</speed>
</trkpt>
<trkpt lat="21.940012" lon="104.785858">
<ele>73.131897</ele>
<time>2011-04-28T08:29:59Z</time>
<desc>lat.=21.940012, lon.=104.785858, Alt.=73.131897m. Speed=0.000000m/h.</desc>
<speed>0.000000</speed>
</trkpt>
<trkpt lat="21.940012" lon="104.785858">
<ele>73.110413</ele>
<time>2011-04-28T08:30:04Z</time>
<desc>lat.=21.940012, lon.=104.785858, Alt.=73.110413m. Speed=0.072000m/h.</desc>
<speed>0.020000</speed>
</trkpt>
<trkpt lat="21.940012" lon="104.785858">
<ele>73.126038</ele>
<time>2011-04-28T08:30:09Z</time>
<desc>lat.=21.940012, lon.=104.785858, Alt.=73.126038m. Speed=0.036000m/h.</desc>
<speed>0.010000</speed>
</trkpt>
<trkpt lat="21.940012" lon="104.785858">
<ele>73.122131</ele>
<time>2011-04-28T08:30:14Z</time>
<desc>lat.=21.940012, lon.=104.785858, Alt.=73.122131m. Speed=0.000000m/h.</desc>
<speed>0.000000</speed>
</trkpt>
<trkpt lat="21.940012" lon="104.785858">
<ele>73.098694</ele>
<time>2011-04-28T08:30:19Z</time>
<desc>lat.=21.940012, lon.=104.785858, Alt.=73.098694m. Speed=0.036000m/h.</desc>
<speed>0.010000</speed>
</trkpt>
<trkpt lat="21.940012" lon="104.785858">
<ele>73.055725</ele>
<time>2011-04-28T08:30:24Z</time>
<desc>lat.=21.940012, lon.=104.785858, Alt.=73.055725m. Speed=0.000000m/h.</desc>
<speed>0.000000</speed>
</trkpt>
<trkpt lat="21.940012" lon="104.785858">
<ele>73.022522</ele>
<time>2011-04-28T08:30:29Z</time>
<desc>lat.=21.940012, lon.=104.785858, Alt.=73.022522m. Speed=0.000000m/h.</desc>
<speed>0.000000</speed>
</trkpt>
<trkpt lat="21.940012" lon="104.785858">
<ele>72.999084</ele>
<time>2011-04-28T08:30:34Z</time>
<desc>lat.=21.940012, lon.=104.785858, Alt.=72.999084m. Speed=0.000000m/h.</desc>
<speed>0.000000</speed>
</trkpt>
<trkpt lat="21.940012" lon="104.785858">
<ele>72.989319</ele>
<time>2011-04-28T08:30:39Z</time>
<desc>lat.=21.940012, lon.=104.785858, Alt.=72.989319m. Speed=0.324000m/h.</desc>
<speed>0.090000</speed>
</trkpt>
<trkpt lat="21.940008" lon="104.785866">
<ele>73.145569</ele>
<time>2011-04-28T08:30:44Z</time>
<desc>lat.=21.940008, lon.=104.785866, Alt.=73.145569m. Speed=0.144000m/h.</desc>
<speed>0.040000</speed>
</trkpt>
<trkpt lat="21.940006" lon="104.785866">
<ele>73.235413</ele>
<time>2011-04-28T08:30:49Z</time>
<desc>lat.=21.940006, lon.=104.785866, Alt.=73.235413m. Speed=0.252000m/h.</desc>
<speed>0.070000</speed>
</trkpt>
<trkpt lat="21.940004" lon="104.785866">
<ele>73.295959</ele>
<time>2011-04-28T08:30:54Z</time>
<desc>lat.=21.940004, lon.=104.785866, Alt.=73.295959m. Speed=0.432000m/h.</desc>
<speed>0.120000</speed>
</trkpt>
<trkpt lat="21.940001" lon="104.785866">
<ele>73.321350</ele>
<time>2011-04-28T08:30:59Z</time>
<desc>lat.=21.940001, lon.=104.785866, Alt.=73.321350m. Speed=0.432000m/h.</desc>
<speed>0.120000</speed>
</trkpt>
<trkpt lat="21.939997" lon="104.785866">
<ele>73.340881</ele>
<time>2011-04-28T08:31:04Z</time>
<desc>lat.=21.939997, lon.=104.785866, Alt.=73.340881m. Speed=0.324000m/h.</desc>
<speed>0.090000</speed>
</trkpt>
<trkpt lat="21.939999" lon="104.785866">
<ele>73.370178</ele>
<time>2011-04-28T08:31:09Z</time>
<desc>lat.=21.939999, lon.=104.785866, Alt.=73.370178m. Speed=0.324000m/h.</desc>
<speed>0.090000</speed>
</trkpt>
<trkpt lat="21.939995" lon="104.785858">
<ele>73.403381</ele>
<time>2011-04-28T08:31:14Z</time>
<desc>lat.=21.939995, lon.=104.785858, Alt.=73.403381m. Speed=0.360000m/h.</desc>
<speed>0.100000</speed>
</trkpt>
<trkpt lat="21.939997" lon="104.785851">
<ele>73.413147</ele>
<time>2011-04-28T08:31:19Z</time>
<desc>lat.=21.939997, lon.=104.785851, Alt.=73.413147m. Speed=0.072000m/h.</desc>
<speed>0.020000</speed>
</trkpt>
<trkpt lat="21.939997" lon="104.785851">
<ele>73.417053</ele>
<time>2011-04-28T08:31:24Z</time>
<desc>lat.=21.939997, lon.=104.785851, Alt.=73.417053m. Speed=0.108000m/h.</desc>
<speed>0.030000</speed>
</trkpt>
<trkpt lat="21.939997" lon="104.785851">
<ele>73.411194</ele>
<time>2011-04-28T08:31:29Z</time>
<desc>lat.=21.939997, lon.=104.785851, Alt.=73.411194m. Speed=0.216000m/h.</desc>
<speed>0.060000</speed>
</trkpt>
<trkpt lat="21.939995" lon="104.785858">
<ele>73.407288</ele>
<time>2011-04-28T08:31:34Z</time>
<desc>lat.=21.939995, lon.=104.785858, Alt.=73.407288m. Speed=0.612000m/h.</desc>
<speed>0.170000</speed>
</trkpt>
<trkpt lat="21.939997" lon="104.785881">
<ele>73.501038</ele>
<time>2011-04-28T08:31:39Z</time>
<desc>lat.=21.939997, lon.=104.785881, Alt.=73.501038m. Speed=0.072000m/h.</desc>
<speed>0.020000</speed>
</trkpt>
<trkpt lat="21.940004" lon="104.785896">
<ele>73.932678</ele>
<time>2011-04-28T08:31:44Z</time>
<desc>lat.=21.940004, lon.=104.785896, Alt.=73.932678m. Speed=0.540000m/h.</desc>
<speed>0.150000</speed>
</trkpt>
<trkpt lat="21.940020" lon="104.785889">
<ele>72.905334</ele>
<time>2011-04-28T08:31:49Z</time>
<desc>lat.=21.940020, lon.=104.785889, Alt.=72.905334m. Speed=0.396000m/h.</desc>
<speed>0.110000</speed>
</trkpt>
<trkpt lat="21.940033" lon="104.785904">
<ele>71.858459</ele>
<time>2011-04-28T08:31:54Z</time>
<desc>lat.=21.940033, lon.=104.785904, Alt.=71.858459m. Speed=0.828000m/h.</desc>
<speed>0.230000</speed>
</trkpt>
<trkpt lat="21.940048" lon="104.785927">
<ele>71.114319</ele>
<time>2011-04-28T08:31:59Z</time>
<desc>lat.=21.940048, lon.=104.785927, Alt.=71.114319m. Speed=1.008000m/h.</desc>
<speed>0.280000</speed>
</trkpt>
<trkpt lat="21.940052" lon="104.785927">
<ele>70.169006</ele>
<time>2011-04-28T08:32:04Z</time>
<desc>lat.=21.940052, lon.=104.785927, Alt.=70.169006m. Speed=0.468000m/h.</desc>
<speed>0.130000</speed>
</trkpt>
<trkpt lat="21.940044" lon="104.785919">
<ele>69.391663</ele>
<time>2011-04-28T08:32:09Z</time>
<desc>lat.=21.940044, lon.=104.785919, Alt.=69.391663m. Speed=0.108000m/h.</desc>
<speed>0.030000</speed>
</trkpt>
<trkpt lat="21.940035" lon="104.785896">
<ele>68.682678</ele>
<time>2011-04-28T08:32:14Z</time>
<desc>lat.=21.940035, lon.=104.785896, Alt.=68.682678m. Speed=0.288000m/h.</desc>
<speed>0.080000</speed>
</trkpt>
<trkpt lat="21.940039" lon="104.785873">
<ele>67.807678</ele>
<time>2011-04-28T08:32:19Z</time>
<desc>lat.=21.940039, lon.=104.785873, Alt.=67.807678m. Speed=0.576000m/h.</desc>
<speed>0.160000</speed>
</trkpt>
<trkpt lat="21.940041" lon="104.785866">
<ele>67.602600</ele>
<time>2011-04-28T08:32:24Z</time>
<desc>lat.=21.940041, lon.=104.785866, Alt.=67.602600m. Speed=0.072000m/h.</desc>
<speed>0.020000</speed>
</trkpt>
<trkpt lat="21.940041" lon="104.785866">
<ele>67.428772</ele>
<time>2011-04-28T08:32:29Z</time>
<desc>lat.=21.940041, lon.=104.785866, Alt.=67.428772m. Speed=0.144000m/h.</desc>
<speed>0.040000</speed>
</trkpt>
<trkpt lat="21.940041" lon="104.785866">
<ele>67.231506</ele>
<time>2011-04-28T08:32:34Z</time>
<desc>lat.=21.940041, lon.=104.785866, Alt.=67.231506m. Speed=0.576000m/h.</desc>
<speed>0.160000</speed>
</trkpt>
<trkpt lat="21.940016" lon="104.785896">
<ele>66.981506</ele>
<time>2011-04-28T08:32:39Z</time>
<desc>lat.=21.940016, lon.=104.785896, Alt.=66.981506m. Speed=5.040000m/h.</desc>
<speed>1.400000</speed>
</trkpt>
<trkpt lat="21.939903" lon="104.785965">
<ele>66.534241</ele>
<time>2011-04-28T08:32:44Z</time>
<desc>lat.=21.939903, lon.=104.785965, Alt.=66.534241m. Speed=11.844000m/h.</desc>
<speed>3.290000</speed>
</trkpt>
<trkpt lat="21.939756" lon="104.786041">
<ele>65.926819</ele>
<time>2011-04-28T08:32:49Z</time>
<desc>lat.=21.939756, lon.=104.786041, Alt.=65.926819m. Speed=10.980000m/h.</desc>
<speed>3.050000</speed>
</trkpt>
<trkpt lat="21.939596" lon="104.786102">
<ele>66.786194</ele>
<time>2011-04-28T08:32:54Z</time>
<desc>lat.=21.939596, lon.=104.786102, Alt.=66.786194m. Speed=12.888000m/h.</desc>
<speed>3.580000</speed>
</trkpt>
<trkpt lat="21.939413" lon="104.786102">
<ele>67.938538</ele>
<time>2011-04-28T08:32:59Z</time>
<desc>lat.=21.939413, lon.=104.786102, Alt.=67.938538m. Speed=11.844000m/h.</desc>
<speed>3.290000</speed>
</trkpt>
<trkpt lat="21.939188" lon="104.786072">
<ele>67.784241</ele>
<time>2011-04-28T08:33:04Z</time>
<desc>lat.=21.939188, lon.=104.786072, Alt.=67.784241m. Speed=13.644000m/h.</desc>
<speed>3.790000</speed>
</trkpt>
<trkpt lat="21.938938" lon="104.786095">
<ele>69.186584</ele>
<time>2011-04-28T08:33:09Z</time>
<desc>lat.=21.938938, lon.=104.786095, Alt.=69.186584m. Speed=17.459999m/h.</desc>
<speed>4.850000</speed>
</trkpt>
<trkpt lat="21.938717" lon="104.786118">
<ele>71.040100</ele>
<time>2011-04-28T08:33:14Z</time>
<desc>lat.=21.938717, lon.=104.786118, Alt.=71.040100m. Speed=16.632000m/h.</desc>
<speed>4.620000</speed>
</trkpt>
<trkpt lat="21.938469" lon="104.786163">
<ele>72.670959</ele>
<time>2011-04-28T08:33:19Z</time>
<desc>lat.=21.938469, lon.=104.786163, Alt.=72.670959m. Speed=16.632000m/h.</desc>
<speed>4.620000</speed>
</trkpt>
<trkpt lat="21.938263" lon="104.786209">
<ele>75.383850</ele>
<time>2011-04-28T08:33:24Z</time>
<desc>lat.=21.938263, lon.=104.786209, Alt.=75.383850m. Speed=13.248000m/h.</desc>
<speed>3.680000</speed>
</trkpt>
<trkpt lat="21.938101" lon="104.786217">
<ele>77.545959</ele>
<time>2011-04-28T08:33:29Z</time>
<desc>lat.=21.938101, lon.=104.786217, Alt.=77.545959m. Speed=9.216000m/h.</desc>
<speed>2.560000</speed>
</trkpt>
<trkpt lat="21.937933" lon="104.786201">
<ele>75.868225</ele>
<time>2011-04-28T08:33:34Z</time>
<desc>lat.=21.937933, lon.=104.786201, Alt.=75.868225m. Speed=10.944000m/h.</desc>
<speed>3.040000</speed>
</trkpt>
<trkpt lat="21.937727" lon="104.786194">
<ele>72.483459</ele>
<time>2011-04-28T08:33:39Z</time>
<desc>lat.=21.937727, lon.=104.786194, Alt.=72.483459m. Speed=11.088000m/h.</desc>
<speed>3.080000</speed>
</trkpt>
<trkpt lat="21.937567" lon="104.786163">
<ele>71.454163</ele>
<time>2011-04-28T08:33:44Z</time>
<desc>lat.=21.937567, lon.=104.786163, Alt.=71.454163m. Speed=11.844000m/h.</desc>
<speed>3.290000</speed>
</trkpt>
<trkpt lat="21.937433" lon="104.786118">
<ele>69.934631</ele>
<time>2011-04-28T08:33:49Z</time>
<desc>lat.=21.937433, lon.=104.786118, Alt.=69.934631m. Speed=6.084000m/h.</desc>
<speed>1.690000</speed>
</trkpt>
<trkpt lat="21.937283" lon="104.786057">
<ele>71.547913</ele>
<time>2011-04-28T08:33:54Z</time>
<desc>lat.=21.937283, lon.=104.786057, Alt.=71.547913m. Speed=8.460000m/h.</desc>
<speed>2.350000</speed>
</trkpt>
<trkpt lat="21.937107" lon="104.786064">
<ele>71.981506</ele>
<time>2011-04-28T08:33:59Z</time>
<desc>lat.=21.937107, lon.=104.786064, Alt.=71.981506m. Speed=12.996000m/h.</desc>
<speed>3.610000</speed>
</trkpt>
<trkpt lat="21.936892" lon="104.786057">
<ele>73.915100</ele>
<time>2011-04-28T08:34:04Z</time>
<desc>lat.=21.936892, lon.=104.786057, Alt.=73.915100m. Speed=13.716000m/h.</desc>
<speed>3.810000</speed>
</trkpt>
<trkpt lat="21.936621" lon="104.786095">
<ele>71.504944</ele>
<time>2011-04-28T08:34:09Z</time>
<desc>lat.=21.936621, lon.=104.786095, Alt.=71.504944m. Speed=19.872000m/h.</desc>
<speed>5.520000</speed>
</trkpt>
<trkpt lat="21.936356" lon="104.786194">
<ele>70.233459</ele>
<time>2011-04-28T08:34:14Z</time>
<desc>lat.=21.936356, lon.=104.786194, Alt.=70.233459m. Speed=22.968000m/h.</desc>
<speed>6.380000</speed>
</trkpt>
<trkpt lat="21.936106" lon="104.786308">
<ele>69.879944</ele>
<time>2011-04-28T08:34:19Z</time>
<desc>lat.=21.936106, lon.=104.786308, Alt.=69.879944m. Speed=20.448000m/h.</desc>
<speed>5.680000</speed>
</trkpt>
<trkpt lat="21.935930" lon="104.786461">
<ele>67.635803</ele>
<time>2011-04-28T08:34:24Z</time>
<desc>lat.=21.935930, lon.=104.786461, Alt.=67.635803m. Speed=17.100000m/h.</desc>
<speed>4.750000</speed>
</trkpt>
<trkpt lat="21.935814" lon="104.786705">
<ele>63.334503</ele>
<time>2011-04-28T08:34:29Z</time>
<desc>lat.=21.935814, lon.=104.786705, Alt.=63.334503m. Speed=17.856001m/h.</desc>
<speed>4.960000</speed>
</trkpt>
<trkpt lat="21.935722" lon="104.786980">
<ele>59.094269</ele>
<time>2011-04-28T08:34:34Z</time>
<desc>lat.=21.935722, lon.=104.786980, Alt.=59.094269m. Speed=19.260000m/h.</desc>
<speed>5.350000</speed>
</trkpt>
<trkpt lat="21.935513" lon="104.787209">
<ele>58.254425</ele>
<time>2011-04-28T08:34:39Z</time>
<desc>lat.=21.935513, lon.=104.787209, Alt.=58.254425m. Speed=17.063999m/h.</desc>
<speed>4.740000</speed>
</trkpt>
<trkpt lat="21.935266" lon="104.787338">
<ele>59.892120</ele>
<time>2011-04-28T08:34:44Z</time>
<desc>lat.=21.935266, lon.=104.787338, Alt.=59.892120m. Speed=16.596001m/h.</desc>
<speed>4.610000</speed>
</trkpt>
<trkpt lat="21.935070" lon="104.787445">
<ele>63.234894</ele>
<time>2011-04-28T08:34:49Z</time>
<desc>lat.=21.935070, lon.=104.787445, Alt.=63.234894m. Speed=15.480000m/h.</desc>
<speed>4.300000</speed>
</trkpt>
<trkpt lat="21.934874" lon="104.787529">
<ele>64.795959</ele>
<time>2011-04-28T08:34:54Z</time>
<desc>lat.=21.934874, lon.=104.787529, Alt.=64.795959m. Speed=15.264000m/h.</desc>
<speed>4.240000</speed>
</trkpt>
<trkpt lat="21.934698" lon="104.787636">
<ele>66.848694</ele>
<time>2011-04-28T08:34:59Z</time>
<desc>lat.=21.934698, lon.=104.787636, Alt.=66.848694m. Speed=14.904000m/h.</desc>
<speed>4.140000</speed>
</trkpt>
<trkpt lat="21.934523" lon="104.787735">
<ele>64.395569</ele>
<time>2011-04-28T08:35:04Z</time>
<desc>lat.=21.934523, lon.=104.787735, Alt.=64.395569m. Speed=17.208000m/h.</desc>
<speed>4.780000</speed>
</trkpt>
<trkpt lat="21.934353" lon="104.787880">
<ele>62.826691</ele>
<time>2011-04-28T08:35:09Z</time>
<desc>lat.=21.934353, lon.=104.787880, Alt.=62.826691m. Speed=17.172001m/h.</desc>
<speed>4.770000</speed>
</trkpt>
<trkpt lat="21.934162" lon="104.788040">
<ele>62.979034</ele>
<time>2011-04-28T08:35:14Z</time>
<desc>lat.=21.934162, lon.=104.788040, Alt.=62.979034m. Speed=20.268000m/h.</desc>
<speed>5.630000</speed>
</trkpt>
<trkpt lat="21.933933" lon="104.788200">
<ele>61.330597</ele>
<time>2011-04-28T08:35:19Z</time>
<desc>lat.=21.933933, lon.=104.788200, Alt.=61.330597m. Speed=22.608000m/h.</desc>
<speed>6.280000</speed>
</trkpt>
<trkpt lat="21.933691" lon="104.788368">
<ele>61.395050</ele>
<time>2011-04-28T08:35:24Z</time>
<desc>lat.=21.933691, lon.=104.788368, Alt.=61.395050m. Speed=21.743999m/h.</desc>
<speed>6.040000</speed>
</trkpt>
<trkpt lat="21.933439" lon="104.788536">
<ele>61.515167</ele>
<time>2011-04-28T08:35:29Z</time>
<desc>lat.=21.933439, lon.=104.788536, Alt.=61.515167m. Speed=23.292000m/h.</desc>
<speed>6.470000</speed>
</trkpt>
<trkpt lat="21.933163" lon="104.788727">
<ele>63.066925</ele>
<time>2011-04-28T08:35:34Z</time>
<desc>lat.=21.933163, lon.=104.788727, Alt.=63.066925m. Speed=21.672001m/h.</desc>
<speed>6.020000</speed>
</trkpt>
<trkpt lat="21.932888" lon="104.788811">
<ele>65.858459</ele>
<time>2011-04-28T08:35:39Z</time>
<desc>lat.=21.932888, lon.=104.788811, Alt.=65.858459m. Speed=23.796000m/h.</desc>
<speed>6.610000</speed>
</trkpt>
<trkpt lat="21.932673" lon="104.788994">
<ele>69.370178</ele>
<time>2011-04-28T08:35:44Z</time>
<desc>lat.=21.932673, lon.=104.788994, Alt.=69.370178m. Speed=20.304001m/h.</desc>
<speed>5.640000</speed>
</trkpt>
<trkpt lat="21.932489" lon="104.789230">
<ele>72.098694</ele>
<time>2011-04-28T08:35:49Z</time>
<desc>lat.=21.932489, lon.=104.789230, Alt.=72.098694m. Speed=18.252001m/h.</desc>
<speed>5.070000</speed>
</trkpt>
<trkpt lat="21.932333" lon="104.789505">
<ele>71.419006</ele>
<time>2011-04-28T08:35:54Z</time>
<desc>lat.=21.932333, lon.=104.789505, Alt.=71.419006m. Speed=20.232000m/h.</desc>
<speed>5.620000</speed>
</trkpt>
<trkpt lat="21.932348" lon="104.789757">
<ele>68.645569</ele>
<time>2011-04-28T08:35:59Z</time>
<desc>lat.=21.932348, lon.=104.789757, Alt.=68.645569m. Speed=16.992001m/h.</desc>
<speed>4.720000</speed>
</trkpt>
<trkpt lat="21.932291" lon="104.790016">
<ele>68.340881</ele>
<time>2011-04-28T08:36:04Z</time>
<desc>lat.=21.932291, lon.=104.790016, Alt.=68.340881m. Speed=19.908001m/h.</desc>
<speed>5.530000</speed>
</trkpt>
<trkpt lat="21.932148" lon="104.790283">
<ele>69.096741</ele>
<time>2011-04-28T08:36:09Z</time>
<desc>lat.=21.932148, lon.=104.790283, Alt.=69.096741m. Speed=17.712000m/h.</desc>
<speed>4.920000</speed>
</trkpt>
<trkpt lat="21.932009" lon="104.790459">
<ele>69.557678</ele>
<time>2011-04-28T08:36:14Z</time>
<desc>lat.=21.932009, lon.=104.790459, Alt.=69.557678m. Speed=16.524000m/h.</desc>
<speed>4.590000</speed>
</trkpt>
<trkpt lat="21.931839" lon="104.790672">
<ele>71.020569</ele>
<time>2011-04-28T08:36:19Z</time>
<desc>lat.=21.931839, lon.=104.790672, Alt.=71.020569m. Speed=14.364000m/h.</desc>
<speed>3.990000</speed>
</trkpt>
<trkpt lat="21.931753" lon="104.790802">
<ele>71.665100</ele>
<time>2011-04-28T08:36:24Z</time>
<desc>lat.=21.931753, lon.=104.790802, Alt.=71.665100m. Speed=11.520000m/h.</desc>
<speed>3.200000</speed>
</trkpt>
<trkpt lat="21.931705" lon="104.790947">
<ele>71.981506</ele>
<time>2011-04-28T08:36:29Z</time>
<desc>lat.=21.931705, lon.=104.790947, Alt.=71.981506m. Speed=9.612000m/h.</desc>
<speed>2.670000</speed>
</trkpt>
<trkpt lat="21.931665" lon="104.791100">
<ele>71.450256</ele>
<time>2011-04-28T08:36:34Z</time>
<desc>lat.=21.931665, lon.=104.791100, Alt.=71.450256m. Speed=7.056000m/h.</desc>
<speed>1.960000</speed>
</trkpt>
<trkpt lat="21.931574" lon="104.791214">
<ele>72.262756</ele>
<time>2011-04-28T08:36:39Z</time>
<desc>lat.=21.931574, lon.=104.791214, Alt.=72.262756m. Speed=8.208000m/h.</desc>
<speed>2.280000</speed>
</trkpt>
<trkpt lat="21.931433" lon="104.791336">
<ele>71.042053</ele>
<time>2011-04-28T08:36:44Z</time>
<desc>lat.=21.931433, lon.=104.791336, Alt.=71.042053m. Speed=11.268000m/h.</desc>
<speed>3.130000</speed>
</trkpt>
<trkpt lat="21.931284" lon="104.791420">
<ele>69.251038</ele>
<time>2011-04-28T08:36:49Z</time>
<desc>lat.=21.931284, lon.=104.791420, Alt.=69.251038m. Speed=15.228000m/h.</desc>
<speed>4.230000</speed>
</trkpt>
<trkpt lat="21.931160" lon="104.791573">
<ele>68.073303</ele>
<time>2011-04-28T08:36:54Z</time>
<desc>lat.=21.931160, lon.=104.791573, Alt.=68.073303m. Speed=18.468000m/h.</desc>
<speed>5.130000</speed>
</trkpt>
<trkpt lat="21.931101" lon="104.791832">
<ele>67.245178</ele>
<time>2011-04-28T08:36:59Z</time>
<desc>lat.=21.931101, lon.=104.791832, Alt.=67.245178m. Speed=17.712000m/h.</desc>
<speed>4.920000</speed>
</trkpt>
<trkpt lat="21.930984" lon="104.791992">
<ele>66.352600</ele>
<time>2011-04-28T08:37:04Z</time>
<desc>lat.=21.930984, lon.=104.791992, Alt.=66.352600m. Speed=9.720000m/h.</desc>
<speed>2.700000</speed>
</trkpt>
<trkpt lat="21.930916" lon="104.792099">
<ele>63.825714</ele>
<time>2011-04-28T08:37:09Z</time>
<desc>lat.=21.930916, lon.=104.792099, Alt.=63.825714m. Speed=8.172000m/h.</desc>
<speed>2.270000</speed>
</trkpt>
<trkpt lat="21.930832" lon="104.792175">
<ele>67.127991</ele>
<time>2011-04-28T08:37:14Z</time>
<desc>lat.=21.930832, lon.=104.792175, Alt.=67.127991m. Speed=6.912000m/h.</desc>
<speed>1.920000</speed>
</trkpt>
<trkpt lat="21.930744" lon="104.792236">
<ele>71.321350</ele>
<time>2011-04-28T08:37:19Z</time>
<desc>lat.=21.930744, lon.=104.792236, Alt.=71.321350m. Speed=6.912000m/h.</desc>
<speed>1.920000</speed>
</trkpt>
<trkpt lat="21.930693" lon="104.792297">
<ele>72.096741</ele>
<time>2011-04-28T08:37:24Z</time>
<desc>lat.=21.930693, lon.=104.792297, Alt.=72.096741m. Speed=4.176000m/h.</desc>
<speed>1.160000</speed>
</trkpt>
<trkpt lat="21.930632" lon="104.792343">
<ele>73.020569</ele>
<time>2011-04-28T08:37:29Z</time>
<desc>lat.=21.930632, lon.=104.792343, Alt.=73.020569m. Speed=2.412000m/h.</desc>
<speed>0.670000</speed>
</trkpt>
<trkpt lat="21.930555" lon="104.792419">
<ele>72.174866</ele>
<time>2011-04-28T08:37:34Z</time>
<desc>lat.=21.930555, lon.=104.792419, Alt.=72.174866m. Speed=4.320000m/h.</desc>
<speed>1.200000</speed>
</trkpt>
<trkpt lat="21.930502" lon="104.792450">
<ele>72.991272</ele>
<time>2011-04-28T08:37:39Z</time>
<desc>lat.=21.930502, lon.=104.792450, Alt.=72.991272m. Speed=5.040000m/h.</desc>
<speed>1.400000</speed>
</trkpt>
<trkpt lat="21.930428" lon="104.792503">
<ele>74.383850</ele>
<time>2011-04-28T08:37:44Z</time>
<desc>lat.=21.930428, lon.=104.792503, Alt.=74.383850m. Speed=4.824000m/h.</desc>
<speed>1.340000</speed>
</trkpt>
<trkpt lat="21.930376" lon="104.792564">
<ele>77.196350</ele>
<time>2011-04-28T08:37:49Z</time>
<desc>lat.=21.930376, lon.=104.792564, Alt.=77.196350m. Speed=4.500000m/h.</desc>
<speed>1.250000</speed>
</trkpt>
<trkpt lat="21.930347" lon="104.792625">
<ele>79.077209</ele>
<time>2011-04-28T08:37:54Z</time>
<desc>lat.=21.930347, lon.=104.792625, Alt.=79.077209m. Speed=4.824000m/h.</desc>
<speed>1.340000</speed>
</trkpt>
<trkpt lat="21.930319" lon="104.792686">
<ele>80.362366</ele>
<time>2011-04-28T08:37:59Z</time>
<desc>lat.=21.930319, lon.=104.792686, Alt.=80.362366m. Speed=3.528000m/h.</desc>
<speed>0.980000</speed>
</trkpt>
<trkpt lat="21.930279" lon="104.792717">
<ele>81.389709</ele>
<time>2011-04-28T08:38:04Z</time>
<desc>lat.=21.930279, lon.=104.792717, Alt.=81.389709m. Speed=3.492000m/h.</desc>
<speed>0.970000</speed>
</trkpt>
<trkpt lat="21.930225" lon="104.792801">
<ele>81.110413</ele>
<time>2011-04-28T08:38:09Z</time>
<desc>lat.=21.930225, lon.=104.792801, Alt.=81.110413m. Speed=5.112000m/h.</desc>
<speed>1.420000</speed>
</trkpt>
<trkpt lat="21.930182" lon="104.792870">
<ele>81.307678</ele>
<time>2011-04-28T08:38:14Z</time>
<desc>lat.=21.930182, lon.=104.792870, Alt.=81.307678m. Speed=4.536000m/h.</desc>
<speed>1.260000</speed>
</trkpt>
<trkpt lat="21.930147" lon="104.792938">
<ele>82.018616</ele>
<time>2011-04-28T08:38:19Z</time>
<desc>lat.=21.930147, lon.=104.792938, Alt.=82.018616m. Speed=6.120000m/h.</desc>
<speed>1.700000</speed>
</trkpt>
<trkpt lat="21.930113" lon="104.792999">
<ele>82.155334</ele>
<time>2011-04-28T08:38:24Z</time>
<desc>lat.=21.930113, lon.=104.792999, Alt.=82.155334m. Speed=2.952000m/h.</desc>
<speed>0.820000</speed>
</trkpt>
<trkpt lat="21.930096" lon="104.793060">
<ele>82.083069</ele>
<time>2011-04-28T08:38:29Z</time>
<desc>lat.=21.930096, lon.=104.793060, Alt.=82.083069m. Speed=4.284000m/h.</desc>
<speed>1.190000</speed>
</trkpt>
<trkpt lat="21.930058" lon="104.793121">
<ele>83.088928</ele>
<time>2011-04-28T08:38:34Z</time>
<desc>lat.=21.930058, lon.=104.793121, Alt.=83.088928m. Speed=3.456000m/h.</desc>
<speed>0.960000</speed>
</trkpt>
<trkpt lat="21.930033" lon="104.793198">
<ele>83.225647</ele>
<time>2011-04-28T08:38:39Z</time>
<desc>lat.=21.930033, lon.=104.793198, Alt.=83.225647m. Speed=2.988000m/h.</desc>
<speed>0.830000</speed>
</trkpt>
<trkpt lat="21.930010" lon="104.793259">
<ele>83.688538</ele>
<time>2011-04-28T08:38:44Z</time>
<desc>lat.=21.930010, lon.=104.793259, Alt.=83.688538m. Speed=4.680000m/h.</desc>
<speed>1.300000</speed>
</trkpt>
<trkpt lat="21.929976" lon="104.793304">
<ele>84.032288</ele>
<time>2011-04-28T08:38:49Z</time>
<desc>lat.=21.929976, lon.=104.793304, Alt.=84.032288m. Speed=3.312000m/h.</desc>
<speed>0.920000</speed>
</trkpt>
<trkpt lat="21.929943" lon="104.793365">
<ele>84.200256</ele>
<time>2011-04-28T08:38:54Z</time>
<desc>lat.=21.929943, lon.=104.793365, Alt.=84.200256m. Speed=4.968000m/h.</desc>
<speed>1.380000</speed>
</trkpt>
<trkpt lat="21.929886" lon="104.793419">
<ele>84.655334</ele>
<time>2011-04-28T08:38:59Z</time>
<desc>lat.=21.929886, lon.=104.793419, Alt.=84.655334m. Speed=5.040000m/h.</desc>
<speed>1.400000</speed>
</trkpt>
<trkpt lat="21.929825" lon="104.793518">
<ele>84.188538</ele>
<time>2011-04-28T08:39:04Z</time>
<desc>lat.=21.929825, lon.=104.793518, Alt.=84.188538m. Speed=7.128000m/h.</desc>
<speed>1.980000</speed>
</trkpt>
<trkpt lat="21.929760" lon="104.793617">
<ele>84.067444</ele>
<time>2011-04-28T08:39:09Z</time>
<desc>lat.=21.929760, lon.=104.793617, Alt.=84.067444m. Speed=6.984000m/h.</desc>
<speed>1.940000</speed>
</trkpt>
<trkpt lat="21.929682" lon="104.793709">
<ele>84.497131</ele>
<time>2011-04-28T08:39:14Z</time>
<desc>lat.=21.929682, lon.=104.793709, Alt.=84.497131m. Speed=9.684000m/h.</desc>
<speed>2.690000</speed>
</trkpt>
<trkpt lat="21.929592" lon="104.793816">
<ele>84.653381</ele>
<time>2011-04-28T08:39:19Z</time>
<desc>lat.=21.929592, lon.=104.793816, Alt.=84.653381m. Speed=8.748000m/h.</desc>
<speed>2.430000</speed>
</trkpt>
<trkpt lat="21.929501" lon="104.793915">
<ele>83.387756</ele>
<time>2011-04-28T08:39:24Z</time>
<desc>lat.=21.929501, lon.=104.793915, Alt.=83.387756m. Speed=8.676000m/h.</desc>
<speed>2.410000</speed>
</trkpt>
<trkpt lat="21.929424" lon="104.794029">
<ele>82.891663</ele>
<time>2011-04-28T08:39:29Z</time>
<desc>lat.=21.929424, lon.=104.794029, Alt.=82.891663m. Speed=9.324000m/h.</desc>
<speed>2.590000</speed>
</trkpt>
<trkpt lat="21.929335" lon="104.794136">
<ele>84.030334</ele>
<time>2011-04-28T08:39:34Z</time>
<desc>lat.=21.929335, lon.=104.794136, Alt.=84.030334m. Speed=8.784000m/h.</desc>
<speed>2.440000</speed>
</trkpt>
<trkpt lat="21.929239" lon="104.794228">
<ele>84.051819</ele>
<time>2011-04-28T08:39:39Z</time>
<desc>lat.=21.929239, lon.=104.794228, Alt.=84.051819m. Speed=8.964000m/h.</desc>
<speed>2.490000</speed>
</trkpt>
<trkpt lat="21.929129" lon="104.794319">
<ele>83.460022</ele>
<time>2011-04-28T08:39:44Z</time>
<desc>lat.=21.929129, lon.=104.794319, Alt.=83.460022m. Speed=10.296000m/h.</desc>
<speed>2.860000</speed>
</trkpt>
<trkpt lat="21.929012" lon="104.794411">
<ele>84.032288</ele>
<time>2011-04-28T08:39:49Z</time>
<desc>lat.=21.929012, lon.=104.794411, Alt.=84.032288m. Speed=10.224000m/h.</desc>
<speed>2.840000</speed>
</trkpt>
<trkpt lat="21.928890" lon="104.794472">
<ele>82.862366</ele>
<time>2011-04-28T08:39:54Z</time>
<desc>lat.=21.928890, lon.=104.794472, Alt.=82.862366m. Speed=6.444000m/h.</desc>
<speed>1.790000</speed>
</trkpt>
<trkpt lat="21.928778" lon="104.794495">
<ele>81.377991</ele>
<time>2011-04-28T08:39:59Z</time>
<desc>lat.=21.928778, lon.=104.794495, Alt.=81.377991m. Speed=8.748000m/h.</desc>
<speed>2.430000</speed>
</trkpt>
<trkpt lat="21.928673" lon="104.794525">
<ele>82.231506</ele>
<time>2011-04-28T08:40:04Z</time>
<desc>lat.=21.928673, lon.=104.794525, Alt.=82.231506m. Speed=7.632000m/h.</desc>
<speed>2.120000</speed>
</trkpt>
<trkpt lat="21.928587" lon="104.794579">
<ele>82.754944</ele>
<time>2011-04-28T08:40:09Z</time>
<desc>lat.=21.928587, lon.=104.794579, Alt.=82.754944m. Speed=6.300000m/h.</desc>
<speed>1.750000</speed>
</trkpt>
<trkpt lat="21.928486" lon="104.794632">
<ele>84.739319</ele>
<time>2011-04-28T08:40:14Z</time>
<desc>lat.=21.928486, lon.=104.794632, Alt.=84.739319m. Speed=7.200000m/h.</desc>
<speed>2.000000</speed>
</trkpt>
<trkpt lat="21.928398" lon="104.794662">
<ele>88.411194</ele>
<time>2011-04-28T08:40:19Z</time>
<desc>lat.=21.928398, lon.=104.794662, Alt.=88.411194m. Speed=4.212000m/h.</desc>
<speed>1.170000</speed>
</trkpt>
<trkpt lat="21.928297" lon="104.794724">
<ele>89.092834</ele>
<time>2011-04-28T08:40:24Z</time>
<desc>lat.=21.928297, lon.=104.794724, Alt.=89.092834m. Speed=8.856000m/h.</desc>
<speed>2.460000</speed>
</trkpt>
<trkpt lat="21.928181" lon="104.794777">
<ele>89.924866</ele>
<time>2011-04-28T08:40:29Z</time>
<desc>lat.=21.928181, lon.=104.794777, Alt.=89.924866m. Speed=9.432000m/h.</desc>
<speed>2.620000</speed>
</trkpt>
<trkpt lat="21.928102" lon="104.794830">
<ele>87.446350</ele>
<time>2011-04-28T08:40:34Z</time>
<desc>lat.=21.928102, lon.=104.794830, Alt.=87.446350m. Speed=4.752000m/h.</desc>
<speed>1.320000</speed>
</trkpt>
<trkpt lat="21.928019" lon="104.794891">
<ele>87.143616</ele>
<time>2011-04-28T08:40:39Z</time>
<desc>lat.=21.928019, lon.=104.794891, Alt.=87.143616m. Speed=6.156000m/h.</desc>
<speed>1.710000</speed>
</trkpt>
<trkpt lat="21.927921" lon="104.794914">
<ele>88.024475</ele>
<time>2011-04-28T08:40:44Z</time>
<desc>lat.=21.927921, lon.=104.794914, Alt.=88.024475m. Speed=7.200000m/h.</desc>
<speed>2.000000</speed>
</trkpt>
<trkpt lat="21.927795" lon="104.794983">
<ele>85.809631</ele>
<time>2011-04-28T08:40:49Z</time>
<desc>lat.=21.927795, lon.=104.794983, Alt.=85.809631m. Speed=13.320000m/h.</desc>
<speed>3.700000</speed>
</trkpt>
<trkpt lat="21.927612" lon="104.795036">
<ele>83.735413</ele>
<time>2011-04-28T08:40:54Z</time>
<desc>lat.=21.927612, lon.=104.795036, Alt.=83.735413m. Speed=15.840000m/h.</desc>
<speed>4.400000</speed>
</trkpt>
<trkpt lat="21.927382" lon="104.795128">
<ele>80.624084</ele>
<time>2011-04-28T08:40:59Z</time>
<desc>lat.=21.927382, lon.=104.795128, Alt.=80.624084m. Speed=18.719999m/h.</desc>
<speed>5.200000</speed>
</trkpt>
<trkpt lat="21.927126" lon="104.795166">
<ele>79.932678</ele>
<time>2011-04-28T08:41:04Z</time>
<desc>lat.=21.927126, lon.=104.795166, Alt.=79.932678m. Speed=16.848000m/h.</desc>
<speed>4.680000</speed>
</trkpt>
<trkpt lat="21.926889" lon="104.795250">
<ele>77.747131</ele>
<time>2011-04-28T08:41:09Z</time>
<desc>lat.=21.926889, lon.=104.795250, Alt.=77.747131m. Speed=22.176001m/h.</desc>
<speed>6.160000</speed>
</trkpt>
<trkpt lat="21.926647" lon="104.795494">
<ele>73.294006</ele>
<time>2011-04-28T08:41:14Z</time>
<desc>lat.=21.926647, lon.=104.795494, Alt.=73.294006m. Speed=29.808001m/h.</desc>
<speed>8.280000</speed>
</trkpt>
<trkpt lat="21.926388" lon="104.795792">
<ele>69.366272</ele>
<time>2011-04-28T08:41:19Z</time>
<desc>lat.=21.926388, lon.=104.795792, Alt.=69.366272m. Speed=27.900000m/h.</desc>
<speed>7.750000</speed>
</trkpt>
<trkpt lat="21.926254" lon="104.796104">
<ele>65.729553</ele>
<time>2011-04-28T08:41:24Z</time>
<desc>lat.=21.926254, lon.=104.796104, Alt.=65.729553m. Speed=21.455999m/h.</desc>
<speed>5.960000</speed>
</trkpt>
<trkpt lat="21.926182" lon="104.796394">
<ele>63.630402</ele>
<time>2011-04-28T08:41:29Z</time>
<desc>lat.=21.926182, lon.=104.796394, Alt.=63.630402m. Speed=19.836000m/h.</desc>
<speed>5.510000</speed>
</trkpt>
<trkpt lat="21.926054" lon="104.796631">
<ele>65.407288</ele>
<time>2011-04-28T08:41:34Z</time>
<desc>lat.=21.926054, lon.=104.796631, Alt.=65.407288m. Speed=17.532000m/h.</desc>
<speed>4.870000</speed>
</trkpt>
<trkpt lat="21.925869" lon="104.796829">
<ele>68.622131</ele>
<time>2011-04-28T08:41:39Z</time>
<desc>lat.=21.925869, lon.=104.796829, Alt.=68.622131m. Speed=15.912000m/h.</desc>
<speed>4.420000</speed>
</trkpt>
<trkpt lat="21.925703" lon="104.796898">
<ele>71.108459</ele>
<time>2011-04-28T08:41:44Z</time>
<desc>lat.=21.925703, lon.=104.796898, Alt.=71.108459m. Speed=13.284000m/h.</desc>
<speed>3.690000</speed>
</trkpt>
<trkpt lat="21.925535" lon="104.796959">
<ele>70.567444</ele>
<time>2011-04-28T08:41:49Z</time>
<desc>lat.=21.925535, lon.=104.796959, Alt.=70.567444m. Speed=13.824000m/h.</desc>
<speed>3.840000</speed>
</trkpt>
<trkpt lat="21.925386" lon="104.797050">
<ele>71.823303</ele>
<time>2011-04-28T08:41:54Z</time>
<desc>lat.=21.925386, lon.=104.797050, Alt.=71.823303m. Speed=10.332000m/h.</desc>
<speed>2.870000</speed>
</trkpt>
<trkpt lat="21.925287" lon="104.797157">
<ele>72.585022</ele>
<time>2011-04-28T08:41:59Z</time>
<desc>lat.=21.925287, lon.=104.797157, Alt.=72.585022m. Speed=10.656000m/h.</desc>
<speed>2.960000</speed>
</trkpt>
<trkpt lat="21.925186" lon="104.797295">
<ele>73.922913</ele>
<time>2011-04-28T08:42:04Z</time>
<desc>lat.=21.925186, lon.=104.797295, Alt.=73.922913m. Speed=11.412000m/h.</desc>
<speed>3.170000</speed>
</trkpt>
<trkpt lat="21.925074" lon="104.797409">
<ele>72.270569</ele>
<time>2011-04-28T08:42:09Z</time>
<desc>lat.=21.925074, lon.=104.797409, Alt.=72.270569m. Speed=12.924000m/h.</desc>
<speed>3.590000</speed>
</trkpt>
<trkpt lat="21.924946" lon="104.797546">
<ele>71.456116</ele>
<time>2011-04-28T08:42:14Z</time>
<desc>lat.=21.924946, lon.=104.797546, Alt.=71.456116m. Speed=13.248000m/h.</desc>
<speed>3.680000</speed>
</trkpt>
<trkpt lat="21.924850" lon="104.797699">
<ele>70.127991</ele>
<time>2011-04-28T08:42:19Z</time>
<desc>lat.=21.924850, lon.=104.797699, Alt.=70.127991m. Speed=12.708000m/h.</desc>
<speed>3.530000</speed>
</trkpt>
<trkpt lat="21.924795" lon="104.797852">
<ele>69.036194</ele>
<time>2011-04-28T08:42:24Z</time>
<desc>lat.=21.924795, lon.=104.797852, Alt.=69.036194m. Speed=12.564000m/h.</desc>
<speed>3.490000</speed>
</trkpt>
<trkpt lat="21.924721" lon="104.797989">
<ele>68.524475</ele>
<time>2011-04-28T08:42:29Z</time>
<desc>lat.=21.924721, lon.=104.797989, Alt.=68.524475m. Speed=13.320000m/h.</desc>
<speed>3.700000</speed>
</trkpt>
<trkpt lat="21.924568" lon="104.798149">
<ele>69.928772</ele>
<time>2011-04-28T08:42:34Z</time>
<desc>lat.=21.924568, lon.=104.798149, Alt.=69.928772m. Speed=15.084000m/h.</desc>
<speed>4.190000</speed>
</trkpt>
<trkpt lat="21.924438" lon="104.798256">
<ele>69.266663</ele>
<time>2011-04-28T08:42:39Z</time>
<desc>lat.=21.924438, lon.=104.798256, Alt.=69.266663m. Speed=9.144000m/h.</desc>
<speed>2.540000</speed>
</trkpt>
<trkpt lat="21.924372" lon="104.798309">
<ele>68.670959</ele>
<time>2011-04-28T08:42:44Z</time>
<desc>lat.=21.924372, lon.=104.798309, Alt.=68.670959m. Speed=6.840000m/h.</desc>
<speed>1.900000</speed>
</trkpt>
<trkpt lat="21.924295" lon="104.798370">
<ele>67.893616</ele>
<time>2011-04-28T08:42:49Z</time>
<desc>lat.=21.924295, lon.=104.798370, Alt.=67.893616m. Speed=7.776000m/h.</desc>
<speed>2.160000</speed>
</trkpt>
<trkpt lat="21.924257" lon="104.798462">
<ele>68.598694</ele>
<time>2011-04-28T08:42:54Z</time>
<desc>lat.=21.924257, lon.=104.798462, Alt.=68.598694m. Speed=6.156000m/h.</desc>
<speed>1.710000</speed>
</trkpt>
<trkpt lat="21.924217" lon="104.798561">
<ele>69.262756</ele>
<time>2011-04-28T08:42:59Z</time>
<desc>lat.=21.924217, lon.=104.798561, Alt.=69.262756m. Speed=8.100000m/h.</desc>
<speed>2.250000</speed>
</trkpt>
<trkpt lat="21.924183" lon="104.798676">
<ele>68.930725</ele>
<time>2011-04-28T08:43:04Z</time>
<desc>lat.=21.924183, lon.=104.798676, Alt.=68.930725m. Speed=7.200000m/h.</desc>
<speed>2.000000</speed>
</trkpt>
<trkpt lat="21.924107" lon="104.798805">
<ele>70.870178</ele>
<time>2011-04-28T08:43:09Z</time>
<desc>lat.=21.924107, lon.=104.798805, Alt.=70.870178m. Speed=6.264000m/h.</desc>
<speed>1.740000</speed>
</trkpt>
<trkpt lat="21.924040" lon="104.798912">
<ele>71.137756</ele>
<time>2011-04-28T08:43:14Z</time>
<desc>lat.=21.924040, lon.=104.798912, Alt.=71.137756m. Speed=7.668000m/h.</desc>
<speed>2.130000</speed>
</trkpt>
<trkpt lat="21.923944" lon="104.799019">
<ele>71.823303</ele>
<time>2011-04-28T08:43:19Z</time>
<desc>lat.=21.923944, lon.=104.799019, Alt.=71.823303m. Speed=10.980000m/h.</desc>
<speed>3.050000</speed>
</trkpt>
<trkpt lat="21.923830" lon="104.799133">
<ele>73.336975</ele>
<time>2011-04-28T08:43:24Z</time>
<desc>lat.=21.923830, lon.=104.799133, Alt.=73.336975m. Speed=13.320000m/h.</desc>
<speed>3.700000</speed>
</trkpt>
<trkpt lat="21.923693" lon="104.799232">
<ele>74.182678</ele>
<time>2011-04-28T08:43:29Z</time>
<desc>lat.=21.923693, lon.=104.799232, Alt.=74.182678m. Speed=7.668000m/h.</desc>
<speed>2.130000</speed>
</trkpt>
<trkpt lat="21.923668" lon="104.799263">
<ele>74.624084</ele>
<time>2011-04-28T08:43:34Z</time>
<desc>lat.=21.923668, lon.=104.799263, Alt.=74.624084m. Speed=0.684000m/h.</desc>
<speed>0.190000</speed>
</trkpt>
<trkpt lat="21.923601" lon="104.799278">
<ele>74.208069</ele>
<time>2011-04-28T08:43:39Z</time>
<desc>lat.=21.923601, lon.=104.799278, Alt.=74.208069m. Speed=11.124000m/h.</desc>
<speed>3.090000</speed>
</trkpt>
<trkpt lat="21.923431" lon="104.799355">
<ele>72.581116</ele>
<time>2011-04-28T08:43:44Z</time>
<desc>lat.=21.923431, lon.=104.799355, Alt.=72.581116m. Speed=16.704000m/h.</desc>
<speed>4.640000</speed>
</trkpt>
<trkpt lat="21.923237" lon="104.799370">
<ele>71.704163</ele>
<time>2011-04-28T08:43:49Z</time>
<desc>lat.=21.923237, lon.=104.799370, Alt.=71.704163m. Speed=16.416000m/h.</desc>
<speed>4.560000</speed>
</trkpt>
<trkpt lat="21.923027" lon="104.799377">
<ele>72.239319</ele>
<time>2011-04-28T08:43:54Z</time>
<desc>lat.=21.923027, lon.=104.799377, Alt.=72.239319m. Speed=16.667999m/h.</desc>
<speed>4.630000</speed>
</trkpt>
<trkpt lat="21.922832" lon="104.799477">
<ele>72.381897</ele>
<time>2011-04-28T08:43:59Z</time>
<desc>lat.=21.922832, lon.=104.799477, Alt.=72.381897m. Speed=16.379999m/h.</desc>
<speed>4.550000</speed>
</trkpt>
<trkpt lat="21.922729" lon="104.799660">
<ele>73.713928</ele>
<time>2011-04-28T08:44:04Z</time>
<desc>lat.=21.922729, lon.=104.799660, Alt.=73.713928m. Speed=16.488001m/h.</desc>
<speed>4.580000</speed>
</trkpt>
<trkpt lat="21.922670" lon="104.799843">
<ele>74.210022</ele>
<time>2011-04-28T08:44:09Z</time>
<desc>lat.=21.922670, lon.=104.799843, Alt.=74.210022m. Speed=7.200000m/h.</desc>
<speed>2.000000</speed>
</trkpt>
<trkpt lat="21.922634" lon="104.800079">
<ele>72.315491</ele>
<time>2011-04-28T08:44:14Z</time>
<desc>lat.=21.922634, lon.=104.800079, Alt.=72.315491m. Speed=15.012000m/h.</desc>
<speed>4.170000</speed>
</trkpt>
<trkpt lat="21.922598" lon="104.800308">
<ele>71.145569</ele>
<time>2011-04-28T08:44:19Z</time>
<desc>lat.=21.922598, lon.=104.800308, Alt.=71.145569m. Speed=19.260000m/h.</desc>
<speed>5.350000</speed>
</trkpt>
<trkpt lat="21.922527" lon="104.800529">
<ele>70.610413</ele>
<time>2011-04-28T08:44:24Z</time>
<desc>lat.=21.922527, lon.=104.800529, Alt.=70.610413m. Speed=12.132000m/h.</desc>
<speed>3.370000</speed>
</trkpt>
<trkpt lat="21.922438" lon="104.800690">
<ele>70.493225</ele>
<time>2011-04-28T08:44:29Z</time>
<desc>lat.=21.922438, lon.=104.800690, Alt.=70.493225m. Speed=14.436000m/h.</desc>
<speed>4.010000</speed>
</trkpt>
<trkpt lat="21.922365" lon="104.800835">
<ele>68.883850</ele>
<time>2011-04-28T08:44:34Z</time>
<desc>lat.=21.922365, lon.=104.800835, Alt.=68.883850m. Speed=10.836000m/h.</desc>
<speed>3.010000</speed>
</trkpt>
<trkpt lat="21.922274" lon="104.800980">
<ele>66.684631</ele>
<time>2011-04-28T08:44:39Z</time>
<desc>lat.=21.922274, lon.=104.800980, Alt.=66.684631m. Speed=13.248000m/h.</desc>
<speed>3.680000</speed>
</trkpt>
<trkpt lat="21.922188" lon="104.801193">
<ele>65.305725</ele>
<time>2011-04-28T08:44:44Z</time>
<desc>lat.=21.922188, lon.=104.801193, Alt.=65.305725m. Speed=12.708000m/h.</desc>
<speed>3.530000</speed>
</trkpt>
<trkpt lat="21.922085" lon="104.801399">
<ele>66.165100</ele>
<time>2011-04-28T08:44:49Z</time>
<desc>lat.=21.922085, lon.=104.801399, Alt.=66.165100m. Speed=12.240000m/h.</desc>
<speed>3.400000</speed>
</trkpt>
<trkpt lat="21.921947" lon="104.801590">
<ele>68.528381</ele>
<time>2011-04-28T08:44:54Z</time>
<desc>lat.=21.921947, lon.=104.801590, Alt.=68.528381m. Speed=15.588000m/h.</desc>
<speed>4.330000</speed>
</trkpt>
<trkpt lat="21.921732" lon="104.801819">
<ele>73.012756</ele>
<time>2011-04-28T08:44:59Z</time>
<desc>lat.=21.921732, lon.=104.801819, Alt.=73.012756m. Speed=17.351999m/h.</desc>
<speed>4.820000</speed>
</trkpt>
<trkpt lat="21.921612" lon="104.802025">
<ele>73.579163</ele>
<time>2011-04-28T08:45:04Z</time>
<desc>lat.=21.921612, lon.=104.802025, Alt.=73.579163m. Speed=19.224001m/h.</desc>
<speed>5.340000</speed>
</trkpt>
<trkpt lat="21.921576" lon="104.802254">
<ele>73.377991</ele>
<time>2011-04-28T08:45:09Z</time>
<desc>lat.=21.921576, lon.=104.802254, Alt.=73.377991m. Speed=16.308001m/h.</desc>
<speed>4.530000</speed>
</trkpt>
<trkpt lat="21.921465" lon="104.802460">
<ele>72.165100</ele>
<time>2011-04-28T08:45:14Z</time>
<desc>lat.=21.921465, lon.=104.802460, Alt.=72.165100m. Speed=18.108000m/h.</desc>
<speed>5.030000</speed>
</trkpt>
<trkpt lat="21.921236" lon="104.802635">
<ele>76.553772</ele>
<time>2011-04-28T08:45:19Z</time>
<desc>lat.=21.921236, lon.=104.802635, Alt.=76.553772m. Speed=18.792000m/h.</desc>
<speed>5.220000</speed>
</trkpt>
<trkpt lat="21.921026" lon="104.802757">
<ele>75.790100</ele>
<time>2011-04-28T08:45:24Z</time>
<desc>lat.=21.921026, lon.=104.802757, Alt.=75.790100m. Speed=18.468000m/h.</desc>
<speed>5.130000</speed>
</trkpt>
<trkpt lat="21.920824" lon="104.802902">
<ele>77.696350</ele>
<time>2011-04-28T08:45:29Z</time>
<desc>lat.=21.920824, lon.=104.802902, Alt.=77.696350m. Speed=19.152000m/h.</desc>
<speed>5.320000</speed>
</trkpt>
<trkpt lat="21.920658" lon="104.803062">
<ele>79.518616</ele>
<time>2011-04-28T08:45:34Z</time>
<desc>lat.=21.920658, lon.=104.803062, Alt.=79.518616m. Speed=15.156000m/h.</desc>
<speed>4.210000</speed>
</trkpt>
<trkpt lat="21.920496" lon="104.803261">
<ele>81.458069</ele>
<time>2011-04-28T08:45:39Z</time>
<desc>lat.=21.920496, lon.=104.803261, Alt.=81.458069m. Speed=18.468000m/h.</desc>
<speed>5.130000</speed>
</trkpt>
<trkpt lat="21.920347" lon="104.803444">
<ele>84.045959</ele>
<time>2011-04-28T08:45:44Z</time>
<desc>lat.=21.920347, lon.=104.803444, Alt.=84.045959m. Speed=15.012000m/h.</desc>
<speed>4.170000</speed>
</trkpt>
<trkpt lat="21.920115" lon="104.803474">
<ele>81.741272</ele>
<time>2011-04-28T08:45:49Z</time>
<desc>lat.=21.920115, lon.=104.803474, Alt.=81.741272m. Speed=16.740000m/h.</desc>
<speed>4.650000</speed>
</trkpt>
<trkpt lat="21.919889" lon="104.803436">
<ele>82.004944</ele>
<time>2011-04-28T08:45:54Z</time>
<desc>lat.=21.919889, lon.=104.803436, Alt.=82.004944m. Speed=15.984000m/h.</desc>
<speed>4.440000</speed>
</trkpt>
<trkpt lat="21.919670" lon="104.803398">
<ele>80.221741</ele>
<time>2011-04-28T08:45:59Z</time>
<desc>lat.=21.919670, lon.=104.803398, Alt.=80.221741m. Speed=15.660000m/h.</desc>
<speed>4.350000</speed>
</trkpt>
<trkpt lat="21.919455" lon="104.803459">
<ele>77.637756</ele>
<time>2011-04-28T08:46:04Z</time>
<desc>lat.=21.919455, lon.=104.803459, Alt.=77.637756m. Speed=16.308001m/h.</desc>
<speed>4.530000</speed>
</trkpt>
<trkpt lat="21.919260" lon="104.803589">
<ele>75.362366</ele>
<time>2011-04-28T08:46:09Z</time>
<desc>lat.=21.919260, lon.=104.803589, Alt.=75.362366m. Speed=16.344000m/h.</desc>
<speed>4.540000</speed>
</trkpt>
<trkpt lat="21.919119" lon="104.803749">
<ele>75.926819</ele>
<time>2011-04-28T08:46:14Z</time>
<desc>lat.=21.919119, lon.=104.803749, Alt.=75.926819m. Speed=16.920000m/h.</desc>
<speed>4.700000</speed>
</trkpt>
<trkpt lat="21.918989" lon="104.803894">
<ele>75.612366</ele>
<time>2011-04-28T08:46:19Z</time>
<desc>lat.=21.918989, lon.=104.803894, Alt.=75.612366m. Speed=13.284000m/h.</desc>
<speed>3.690000</speed>
</trkpt>
<trkpt lat="21.918945" lon="104.804100">
<ele>74.729553</ele>
<time>2011-04-28T08:46:24Z</time>
<desc>lat.=21.918945, lon.=104.804100, Alt.=74.729553m. Speed=13.068000m/h.</desc>
<speed>3.630000</speed>
</trkpt>
<trkpt lat="21.918865" lon="104.804306">
<ele>73.963928</ele>
<time>2011-04-28T08:46:29Z</time>
<desc>lat.=21.918865, lon.=104.804306, Alt.=73.963928m. Speed=14.220000m/h.</desc>
<speed>3.950000</speed>
</trkpt>
<trkpt lat="21.918739" lon="104.804520">
<ele>74.163147</ele>
<time>2011-04-28T08:46:34Z</time>
<desc>lat.=21.918739, lon.=104.804520, Alt.=74.163147m. Speed=15.948000m/h.</desc>
<speed>4.430000</speed>
</trkpt>
<trkpt lat="21.918577" lon="104.804688">
<ele>73.534241</ele>
<time>2011-04-28T08:46:39Z</time>
<desc>lat.=21.918577, lon.=104.804688, Alt.=73.534241m. Speed=16.632000m/h.</desc>
<speed>4.620000</speed>
</trkpt>
<trkpt lat="21.918383" lon="104.804863">
<ele>73.325256</ele>
<time>2011-04-28T08:46:44Z</time>
<desc>lat.=21.918383, lon.=104.804863, Alt.=73.325256m. Speed=15.372000m/h.</desc>
<speed>4.270000</speed>
</trkpt>
<trkpt lat="21.918247" lon="104.805061">
<ele>74.295959</ele>
<time>2011-04-28T08:46:49Z</time>
<desc>lat.=21.918247, lon.=104.805061, Alt.=74.295959m. Speed=15.372000m/h.</desc>
<speed>4.270000</speed>
</trkpt>
<trkpt lat="21.918131" lon="104.805244">
<ele>75.360413</ele>
<time>2011-04-28T08:46:54Z</time>
<desc>lat.=21.918131, lon.=104.805244, Alt.=75.360413m. Speed=13.716000m/h.</desc>
<speed>3.810000</speed>
</trkpt>
<trkpt lat="21.918060" lon="104.805389">
<ele>76.305725</ele>
<time>2011-04-28T08:46:59Z</time>
<desc>lat.=21.918060, lon.=104.805389, Alt.=76.305725m. Speed=12.132000m/h.</desc>
<speed>3.370000</speed>
</trkpt>
<trkpt lat="21.917988" lon="104.805550">
<ele>78.770569</ele>
<time>2011-04-28T08:47:04Z</time>
<desc>lat.=21.917988, lon.=104.805550, Alt.=78.770569m. Speed=9.756000m/h.</desc>
<speed>2.710000</speed>
</trkpt>
<trkpt lat="21.917946" lon="104.805748">
<ele>81.518616</ele>
<time>2011-04-28T08:47:09Z</time>
<desc>lat.=21.917946, lon.=104.805748, Alt.=81.518616m. Speed=10.800000m/h.</desc>
<speed>3.000000</speed>
</trkpt>
<trkpt lat="21.917915" lon="104.805969">
<ele>82.165100</ele>
<time>2011-04-28T08:47:14Z</time>
<desc>lat.=21.917915, lon.=104.805969, Alt.=82.165100m. Speed=11.160000m/h.</desc>
<speed>3.100000</speed>
</trkpt>
<trkpt lat="21.917831" lon="104.806145">
<ele>82.676819</ele>
<time>2011-04-28T08:47:19Z</time>
<desc>lat.=21.917831, lon.=104.806145, Alt.=82.676819m. Speed=12.240000m/h.</desc>
<speed>3.400000</speed>
</trkpt>
<trkpt lat="21.917736" lon="104.806305">
<ele>82.493225</ele>
<time>2011-04-28T08:47:24Z</time>
<desc>lat.=21.917736, lon.=104.806305, Alt.=82.493225m. Speed=13.968000m/h.</desc>
<speed>3.880000</speed>
</trkpt>
<trkpt lat="21.917618" lon="104.806480">
<ele>83.586975</ele>
<time>2011-04-28T08:47:29Z</time>
<desc>lat.=21.917618, lon.=104.806480, Alt.=83.586975m. Speed=12.924000m/h.</desc>
<speed>3.590000</speed>
</trkpt>
<trkpt lat="21.917459" lon="104.806679">
<ele>84.670959</ele>
<time>2011-04-28T08:47:34Z</time>
<desc>lat.=21.917459, lon.=104.806679, Alt.=84.670959m. Speed=15.084000m/h.</desc>
<speed>4.190000</speed>
</trkpt>
<trkpt lat="21.917244" lon="104.806816">
<ele>85.512756</ele>
<time>2011-04-28T08:47:39Z</time>
<desc>lat.=21.917244, lon.=104.806816, Alt.=85.512756m. Speed=15.012000m/h.</desc>
<speed>4.170000</speed>
</trkpt>
<trkpt lat="21.917015" lon="104.806953">
<ele>82.014709</ele>
<time>2011-04-28T08:47:44Z</time>
<desc>lat.=21.917015, lon.=104.806953, Alt.=82.014709m. Speed=19.188000m/h.</desc>
<speed>5.330000</speed>
</trkpt>
<trkpt lat="21.916819" lon="104.807144">
<ele>80.202209</ele>
<time>2011-04-28T08:47:49Z</time>
<desc>lat.=21.916819, lon.=104.807144, Alt.=80.202209m. Speed=16.236000m/h.</desc>
<speed>4.510000</speed>
</trkpt>
<trkpt lat="21.916719" lon="104.807343">
<ele>79.768616</ele>
<time>2011-04-28T08:47:54Z</time>
<desc>lat.=21.916719, lon.=104.807343, Alt.=79.768616m. Speed=14.256000m/h.</desc>
<speed>3.960000</speed>
</trkpt>
<trkpt lat="21.916622" lon="104.807503">
<ele>78.934631</ele>
<time>2011-04-28T08:47:59Z</time>
<desc>lat.=21.916622, lon.=104.807503, Alt.=78.934631m. Speed=7.956000m/h.</desc>
<speed>2.210000</speed>
</trkpt>
<trkpt lat="21.916563" lon="104.807655">
<ele>79.090881</ele>
<time>2011-04-28T08:48:04Z</time>
<desc>lat.=21.916563, lon.=104.807655, Alt.=79.090881m. Speed=9.216000m/h.</desc>
<speed>2.560000</speed>
</trkpt>
<trkpt lat="21.916552" lon="104.807838">
<ele>82.026428</ele>
<time>2011-04-28T08:48:09Z</time>
<desc>lat.=21.916552, lon.=104.807838, Alt.=82.026428m. Speed=8.172000m/h.</desc>
<speed>2.270000</speed>
</trkpt>
<trkpt lat="21.916513" lon="104.807968">
<ele>82.461975</ele>
<time>2011-04-28T08:48:14Z</time>
<desc>lat.=21.916513, lon.=104.807968, Alt.=82.461975m. Speed=6.480000m/h.</desc>
<speed>1.800000</speed>
</trkpt>
<trkpt lat="21.916485" lon="104.808090">
<ele>82.215881</ele>
<time>2011-04-28T08:48:19Z</time>
<desc>lat.=21.916485, lon.=104.808090, Alt.=82.215881m. Speed=7.524000m/h.</desc>
<speed>2.090000</speed>
</trkpt>
<trkpt lat="21.916464" lon="104.808220">
<ele>80.245178</ele>
<time>2011-04-28T08:48:24Z</time>
<desc>lat.=21.916464, lon.=104.808220, Alt.=80.245178m. Speed=8.568000m/h.</desc>
<speed>2.380000</speed>
</trkpt>
<trkpt lat="21.916378" lon="104.808365">
<ele>79.596741</ele>
<time>2011-04-28T08:48:29Z</time>
<desc>lat.=21.916378, lon.=104.808365, Alt.=79.596741m. Speed=10.188000m/h.</desc>
<speed>2.830000</speed>
</trkpt>
<trkpt lat="21.916258" lon="104.808441">
<ele>79.965881</ele>
<time>2011-04-28T08:48:34Z</time>
<desc>lat.=21.916258, lon.=104.808441, Alt.=79.965881m. Speed=8.640000m/h.</desc>
<speed>2.400000</speed>
</trkpt>
<trkpt lat="21.916136" lon="104.808510">
<ele>80.098694</ele>
<time>2011-04-28T08:48:39Z</time>
<desc>lat.=21.916136, lon.=104.808510, Alt.=80.098694m. Speed=7.704000m/h.</desc>
<speed>2.140000</speed>
</trkpt>
<trkpt lat="21.916012" lon="104.808556">
<ele>78.626038</ele>
<time>2011-04-28T08:48:44Z</time>
<desc>lat.=21.916012, lon.=104.808556, Alt.=78.626038m. Speed=9.936000m/h.</desc>
<speed>2.760000</speed>
</trkpt>
<trkpt lat="21.915867" lon="104.808609">
<ele>77.981506</ele>
<time>2011-04-28T08:48:49Z</time>
<desc>lat.=21.915867, lon.=104.808609, Alt.=77.981506m. Speed=9.288000m/h.</desc>
<speed>2.580000</speed>
</trkpt>
<trkpt lat="21.915720" lon="104.808670">
<ele>77.393616</ele>
<time>2011-04-28T08:48:54Z</time>
<desc>lat.=21.915720, lon.=104.808670, Alt.=77.393616m. Speed=11.124000m/h.</desc>
<speed>3.090000</speed>
</trkpt>
<trkpt lat="21.915636" lon="104.808807">
<ele>79.602600</ele>
<time>2011-04-28T08:48:59Z</time>
<desc>lat.=21.915636, lon.=104.808807, Alt.=79.602600m. Speed=8.748000m/h.</desc>
<speed>2.430000</speed>
</trkpt>
<trkpt lat="21.915632" lon="104.809006">
<ele>81.096741</ele>
<time>2011-04-28T08:49:04Z</time>
<desc>lat.=21.915632, lon.=104.809006, Alt.=81.096741m. Speed=12.168000m/h.</desc>
<speed>3.380000</speed>
</trkpt>
<trkpt lat="21.915611" lon="104.809189">
<ele>86.252991</ele>
<time>2011-04-28T08:49:09Z</time>
<desc>lat.=21.915611, lon.=104.809189, Alt.=86.252991m. Speed=12.096000m/h.</desc>
<speed>3.360000</speed>
</trkpt>
<trkpt lat="21.915588" lon="104.809341">
<ele>87.565491</ele>
<time>2011-04-28T08:49:14Z</time>
<desc>lat.=21.915588, lon.=104.809341, Alt.=87.565491m. Speed=11.304000m/h.</desc>
<speed>3.140000</speed>
</trkpt>
<trkpt lat="21.915548" lon="104.809486">
<ele>87.860413</ele>
<time>2011-04-28T08:49:19Z</time>
<desc>lat.=21.915548, lon.=104.809486, Alt.=87.860413m. Speed=9.000000m/h.</desc>
<speed>2.500000</speed>
</trkpt>
<trkpt lat="21.915442" lon="104.809624">
<ele>90.044006</ele>
<time>2011-04-28T08:49:24Z</time>
<desc>lat.=21.915442, lon.=104.809624, Alt.=90.044006m. Speed=11.808000m/h.</desc>
<speed>3.280000</speed>
</trkpt>
<trkpt lat="21.915325" lon="104.809746">
<ele>93.862366</ele>
<time>2011-04-28T08:49:29Z</time>
<desc>lat.=21.915325, lon.=104.809746, Alt.=93.862366m. Speed=10.116000m/h.</desc>
<speed>2.810000</speed>
</trkpt>
<trkpt lat="21.915192" lon="104.809784">
<ele>94.219788</ele>
<time>2011-04-28T08:49:34Z</time>
<desc>lat.=21.915192, lon.=104.809784, Alt.=94.219788m. Speed=9.108000m/h.</desc>
<speed>2.530000</speed>
</trkpt>
<trkpt lat="21.915094" lon="104.809792">
<ele>94.184631</ele>
<time>2011-04-28T08:49:39Z</time>
<desc>lat.=21.915094, lon.=104.809792, Alt.=94.184631m. Speed=5.112000m/h.</desc>
<speed>1.420000</speed>
</trkpt>
<trkpt lat="21.915031" lon="104.809776">
<ele>95.120178</ele>
<time>2011-04-28T08:49:44Z</time>
<desc>lat.=21.915031, lon.=104.809776, Alt.=95.120178m. Speed=4.176000m/h.</desc>
<speed>1.160000</speed>
</trkpt>
<trkpt lat="21.914978" lon="104.809746">
<ele>96.667053</ele>
<time>2011-04-28T08:49:49Z</time>
<desc>lat.=21.914978, lon.=104.809746, Alt.=96.667053m. Speed=3.420000m/h.</desc>
<speed>0.950000</speed>
</trkpt>
<trkpt lat="21.914909" lon="104.809723">
<ele>97.821350</ele>
<time>2011-04-28T08:49:54Z</time>
<desc>lat.=21.914909, lon.=104.809723, Alt.=97.821350m. Speed=6.192000m/h.</desc>
<speed>1.720000</speed>
</trkpt>
<trkpt lat="21.914766" lon="104.809715">
<ele>98.239319</ele>
<time>2011-04-28T08:49:59Z</time>
<desc>lat.=21.914766, lon.=104.809715, Alt.=98.239319m. Speed=12.240000m/h.</desc>
<speed>3.400000</speed>
</trkpt>
<trkpt lat="21.914587" lon="104.809715">
<ele>98.333069</ele>
<time>2011-04-28T08:50:04Z</time>
<desc>lat.=21.914587, lon.=104.809715, Alt.=98.333069m. Speed=12.492000m/h.</desc>
<speed>3.470000</speed>
</trkpt>
<trkpt lat="21.914402" lon="104.809731">
<ele>99.184631</ele>
<time>2011-04-28T08:50:09Z</time>
<desc>lat.=21.914402, lon.=104.809731, Alt.=99.184631m. Speed=12.348000m/h.</desc>
<speed>3.430000</speed>
</trkpt>
<trkpt lat="21.914217" lon="104.809746">
<ele>101.280334</ele>
<time>2011-04-28T08:50:14Z</time>
<desc>lat.=21.914217, lon.=104.809746, Alt.=101.280334m. Speed=11.700000m/h.</desc>
<speed>3.250000</speed>
</trkpt>
<trkpt lat="21.914066" lon="104.809715">
<ele>104.870178</ele>
<time>2011-04-28T08:50:19Z</time>
<desc>lat.=21.914066, lon.=104.809715, Alt.=104.870178m. Speed=9.252000m/h.</desc>
<speed>2.570000</speed>
</trkpt>
<trkpt lat="21.913940" lon="104.809624">
<ele>107.012756</ele>
<time>2011-04-28T08:50:24Z</time>
<desc>lat.=21.913940, lon.=104.809624, Alt.=107.012756m. Speed=10.908000m/h.</desc>
<speed>3.030000</speed>
</trkpt>
<trkpt lat="21.913845" lon="104.809532">
<ele>107.710022</ele>
<time>2011-04-28T08:50:29Z</time>
<desc>lat.=21.913845, lon.=104.809532, Alt.=107.710022m. Speed=10.836000m/h.</desc>
<speed>3.010000</speed>
</trkpt>
<trkpt lat="21.913670" lon="104.809509">
<ele>105.723694</ele>
<time>2011-04-28T08:50:34Z</time>
<desc>lat.=21.913670, lon.=104.809509, Alt.=105.723694m. Speed=12.096000m/h.</desc>
<speed>3.360000</speed>
</trkpt>
<trkpt lat="21.913450" lon="104.809525">
<ele>104.290100</ele>
<time>2011-04-28T08:50:39Z</time>
<desc>lat.=21.913450, lon.=104.809525, Alt.=104.290100m. Speed=10.764000m/h.</desc>
<speed>2.990000</speed>
</trkpt>
<trkpt lat="21.913378" lon="104.809540">
<ele>103.376038</ele>
<time>2011-04-28T08:50:44Z</time>
<desc>lat.=21.913378, lon.=104.809540, Alt.=103.376038m. Speed=0.000000m/h.</desc>
<speed>0.000000</speed>
</trkpt>
<trkpt lat="21.913361" lon="104.809525">
<ele>102.008850</ele>
<time>2011-04-28T08:50:49Z</time>
<desc>lat.=21.913361, lon.=104.809525, Alt.=102.008850m. Speed=0.180000m/h.</desc>
<speed>0.050000</speed>
</trkpt>
<trkpt lat="21.913311" lon="104.809540">
<ele>101.321350</ele>
<time>2011-04-28T08:50:54Z</time>
<desc>lat.=21.913311, lon.=104.809540, Alt.=101.321350m. Speed=5.652000m/h.</desc>
<speed>1.570000</speed>
</trkpt>
<trkpt lat="21.913212" lon="104.809578">
<ele>98.577209</ele>
<time>2011-04-28T08:50:59Z</time>
<desc>lat.=21.913212, lon.=104.809578, Alt.=98.577209m. Speed=9.900000m/h.</desc>
<speed>2.750000</speed>
</trkpt>
<trkpt lat="21.913101" lon="104.809639">
<ele>97.604553</ele>
<time>2011-04-28T08:51:04Z</time>
<desc>lat.=21.913101, lon.=104.809639, Alt.=97.604553m. Speed=9.612000m/h.</desc>
<speed>2.670000</speed>
</trkpt>
<trkpt lat="21.912975" lon="104.809692">
<ele>97.426819</ele>
<time>2011-04-28T08:51:09Z</time>
<desc>lat.=21.912975, lon.=104.809692, Alt.=97.426819m. Speed=11.088000m/h.</desc>
<speed>3.080000</speed>
</trkpt>
<trkpt lat="21.912849" lon="104.809738">
<ele>97.692444</ele>
<time>2011-04-28T08:51:14Z</time>
<desc>lat.=21.912849, lon.=104.809738, Alt.=97.692444m. Speed=8.892000m/h.</desc>
<speed>2.470000</speed>
</trkpt>
<trkpt lat="21.912767" lon="104.809769">
<ele>97.112366</ele>
<time>2011-04-28T08:51:19Z</time>
<desc>lat.=21.912767, lon.=104.809769, Alt.=97.112366m. Speed=4.788000m/h.</desc>
<speed>1.330000</speed>
</trkpt>
<trkpt lat="21.912712" lon="104.809784">
<ele>96.458069</ele>
<time>2011-04-28T08:51:24Z</time>
<desc>lat.=21.912712, lon.=104.809784, Alt.=96.458069m. Speed=4.824000m/h.</desc>
<speed>1.340000</speed>
</trkpt>
<trkpt lat="21.912666" lon="104.809814">
<ele>95.854553</ele>
<time>2011-04-28T08:51:29Z</time>
<desc>lat.=21.912666, lon.=104.809814, Alt.=95.854553m. Speed=5.400000m/h.</desc>
<speed>1.500000</speed>
</trkpt>
<trkpt lat="21.912613" lon="104.809845">
<ele>94.752991</ele>
<time>2011-04-28T08:51:34Z</time>
<desc>lat.=21.912613, lon.=104.809845, Alt.=94.752991m. Speed=2.232000m/h.</desc>
<speed>0.620000</speed>
</trkpt>
<trkpt lat="21.912603" lon="104.809830">
<ele>94.381897</ele>
<time>2011-04-28T08:51:39Z</time>
<desc>lat.=21.912603, lon.=104.809830, Alt.=94.381897m. Speed=0.180000m/h.</desc>
<speed>0.050000</speed>
</trkpt>
<trkpt lat="21.912601" lon="104.809830">
<ele>94.297913</ele>
<time>2011-04-28T08:51:44Z</time>
<desc>lat.=21.912601, lon.=104.809830, Alt.=94.297913m. Speed=0.072000m/h.</desc>
<speed>0.020000</speed>
</trkpt>
<trkpt lat="21.912567" lon="104.809837">
<ele>94.280334</ele>
<time>2011-04-28T08:51:49Z</time>
<desc>lat.=21.912567, lon.=104.809837, Alt.=94.280334m. Speed=8.676000m/h.</desc>
<speed>2.410000</speed>
</trkpt>
<trkpt lat="21.912401" lon="104.809906">
<ele>94.071350</ele>
<time>2011-04-28T08:51:54Z</time>
<desc>lat.=21.912401, lon.=104.809906, Alt.=94.071350m. Speed=14.400000m/h.</desc>
<speed>4.000000</speed>
</trkpt>
<trkpt lat="21.912210" lon="104.809998">
<ele>93.335022</ele>
<time>2011-04-28T08:51:59Z</time>
<desc>lat.=21.912210, lon.=104.809998, Alt.=93.335022m. Speed=17.568001m/h.</desc>
<speed>4.880000</speed>
</trkpt>
<trkpt lat="21.912024" lon="104.810143">
<ele>92.549866</ele>
<time>2011-04-28T08:52:04Z</time>
<desc>lat.=21.912024, lon.=104.810143, Alt.=92.549866m. Speed=18.972000m/h.</desc>
<speed>5.270000</speed>
</trkpt>
<trkpt lat="21.911848" lon="104.810287">
<ele>92.295959</ele>
<time>2011-04-28T08:52:09Z</time>
<desc>lat.=21.911848, lon.=104.810287, Alt.=92.295959m. Speed=15.588000m/h.</desc>
<speed>4.330000</speed>
</trkpt>
<trkpt lat="21.911703" lon="104.810432">
<ele>92.225647</ele>
<time>2011-04-28T08:52:14Z</time>
<desc>lat.=21.911703, lon.=104.810432, Alt.=92.225647m. Speed=13.500000m/h.</desc>
<speed>3.750000</speed>
</trkpt>
<trkpt lat="21.911549" lon="104.810593">
<ele>92.169006</ele>
<time>2011-04-28T08:52:19Z</time>
<desc>lat.=21.911549, lon.=104.810593, Alt.=92.169006m. Speed=15.192000m/h.</desc>
<speed>4.220000</speed>
</trkpt>
<trkpt lat="21.911373" lon="104.810760">
<ele>91.641663</ele>
<time>2011-04-28T08:52:24Z</time>
<desc>lat.=21.911373, lon.=104.810760, Alt.=91.641663m. Speed=16.128000m/h.</desc>
<speed>4.480000</speed>
</trkpt>
<trkpt lat="21.911198" lon="104.810905">
<ele>91.389709</ele>
<time>2011-04-28T08:52:29Z</time>
<desc>lat.=21.911198, lon.=104.810905, Alt.=91.389709m. Speed=15.804000m/h.</desc>
<speed>4.390000</speed>
</trkpt>
<trkpt lat="21.911045" lon="104.811073">
<ele>91.227600</ele>
<time>2011-04-28T08:52:34Z</time>
<desc>lat.=21.911045, lon.=104.811073, Alt.=91.227600m. Speed=15.984000m/h.</desc>
<speed>4.440000</speed>
</trkpt>
<trkpt lat="21.910900" lon="104.811211">
<ele>90.747131</ele>
<time>2011-04-28T08:52:39Z</time>
<desc>lat.=21.910900, lon.=104.811211, Alt.=90.747131m. Speed=13.644000m/h.</desc>
<speed>3.790000</speed>
</trkpt>
<trkpt lat="21.910769" lon="104.811317">
<ele>89.616272</ele>
<time>2011-04-28T08:52:44Z</time>
<desc>lat.=21.910769, lon.=104.811317, Alt.=89.616272m. Speed=13.428000m/h.</desc>
<speed>3.730000</speed>
</trkpt>
<trkpt lat="21.910612" lon="104.811462">
<ele>89.786194</ele>
<time>2011-04-28T08:52:49Z</time>
<desc>lat.=21.910612, lon.=104.811462, Alt.=89.786194m. Speed=17.028000m/h.</desc>
<speed>4.730000</speed>
</trkpt>
<trkpt lat="21.910444" lon="104.811615">
<ele>89.848694</ele>
<time>2011-04-28T08:52:54Z</time>
<desc>lat.=21.910444, lon.=104.811615, Alt.=89.848694m. Speed=16.775999m/h.</desc>
<speed>4.660000</speed>
</trkpt>
<trkpt lat="21.910278" lon="104.811752">
<ele>90.083069</ele>
<time>2011-04-28T08:52:59Z</time>
<desc>lat.=21.910278, lon.=104.811752, Alt.=90.083069m. Speed=14.940000m/h.</desc>
<speed>4.150000</speed>
</trkpt>
<trkpt lat="21.910160" lon="104.811874">
<ele>89.376038</ele>
<time>2011-04-28T08:53:04Z</time>
<desc>lat.=21.910160, lon.=104.811874, Alt.=89.376038m. Speed=12.024000m/h.</desc>
<speed>3.340000</speed>
</trkpt>
<trkpt lat="21.910044" lon="104.811996">
<ele>91.981506</ele>
<time>2011-04-28T08:53:09Z</time>
<desc>lat.=21.910044, lon.=104.811996, Alt.=91.981506m. Speed=12.600000m/h.</desc>
<speed>3.500000</speed>
</trkpt>
<trkpt lat="21.909937" lon="104.812126">
<ele>92.135803</ele>
<time>2011-04-28T08:53:14Z</time>
<desc>lat.=21.909937, lon.=104.812126, Alt.=92.135803m. Speed=13.068000m/h.</desc>
<speed>3.630000</speed>
</trkpt>
<trkpt lat="21.909842" lon="104.812241">
<ele>92.127991</ele>
<time>2011-04-28T08:53:19Z</time>
<desc>lat.=21.909842, lon.=104.812241, Alt.=92.127991m. Speed=11.484000m/h.</desc>
<speed>3.190000</speed>
</trkpt>
<trkpt lat="21.909700" lon="104.812370">
<ele>92.335022</ele>
<time>2011-04-28T08:53:24Z</time>
<desc>lat.=21.909700, lon.=104.812370, Alt.=92.335022m. Speed=14.436000m/h.</desc>
<speed>4.010000</speed>
</trkpt>
<trkpt lat="21.909576" lon="104.812500">
<ele>92.710022</ele>
<time>2011-04-28T08:53:29Z</time>
<desc>lat.=21.909576, lon.=104.812500, Alt.=92.710022m. Speed=13.176000m/h.</desc>
<speed>3.660000</speed>
</trkpt>
<trkpt lat="21.909466" lon="104.812660">
<ele>93.083069</ele>
<time>2011-04-28T08:53:34Z</time>
<desc>lat.=21.909466, lon.=104.812660, Alt.=93.083069m. Speed=12.816000m/h.</desc>
<speed>3.560000</speed>
</trkpt>
<trkpt lat="21.909380" lon="104.812775">
<ele>93.329163</ele>
<time>2011-04-28T08:53:39Z</time>
<desc>lat.=21.909380, lon.=104.812775, Alt.=93.329163m. Speed=8.352000m/h.</desc>
<speed>2.320000</speed>
</trkpt>
<trkpt lat="21.909302" lon="104.812889">
<ele>93.493225</ele>
<time>2011-04-28T08:53:44Z</time>
<desc>lat.=21.909302, lon.=104.812889, Alt.=93.493225m. Speed=9.972000m/h.</desc>
<speed>2.770000</speed>
</trkpt>
<trkpt lat="21.909199" lon="104.812973">
<ele>93.059631</ele>
<time>2011-04-28T08:53:49Z</time>
<desc>lat.=21.909199, lon.=104.812973, Alt.=93.059631m. Speed=9.684000m/h.</desc>
<speed>2.690000</speed>
</trkpt>
<trkpt lat="21.909109" lon="104.813026">
<ele>91.620178</ele>
<time>2011-04-28T08:53:54Z</time>
<desc>lat.=21.909109, lon.=104.813026, Alt.=91.620178m. Speed=7.560000m/h.</desc>
<speed>2.100000</speed>
</trkpt>
<trkpt lat="21.908989" lon="104.813080">
<ele>89.772522</ele>
<time>2011-04-28T08:53:59Z</time>
<desc>lat.=21.908989, lon.=104.813080, Alt.=89.772522m. Speed=9.288000m/h.</desc>
<speed>2.580000</speed>
</trkpt>
<trkpt lat="21.908854" lon="104.813179">
<ele>87.698303</ele>
<time>2011-04-28T08:54:04Z</time>
<desc>lat.=21.908854, lon.=104.813179, Alt.=87.698303m. Speed=13.068000m/h.</desc>
<speed>3.630000</speed>
</trkpt>
<trkpt lat="21.908709" lon="104.813263">
<ele>86.030334</ele>
<time>2011-04-28T08:54:09Z</time>
<desc>lat.=21.908709, lon.=104.813263, Alt.=86.030334m. Speed=12.996000m/h.</desc>
<speed>3.610000</speed>
</trkpt>
<trkpt lat="21.908590" lon="104.813354">
<ele>86.415100</ele>
<time>2011-04-28T08:54:14Z</time>
<desc>lat.=21.908590, lon.=104.813354, Alt.=86.415100m. Speed=10.080000m/h.</desc>
<speed>2.800000</speed>
</trkpt>
<trkpt lat="21.908504" lon="104.813477">
<ele>86.342834</ele>
<time>2011-04-28T08:54:19Z</time>
<desc>lat.=21.908504, lon.=104.813477, Alt.=86.342834m. Speed=9.432000m/h.</desc>
<speed>2.620000</speed>
</trkpt>
<trkpt lat="21.908430" lon="104.813629">
<ele>85.831116</ele>
<time>2011-04-28T08:54:24Z</time>
<desc>lat.=21.908430, lon.=104.813629, Alt.=85.831116m. Speed=11.232000m/h.</desc>
<speed>3.120000</speed>
</trkpt>
<trkpt lat="21.908363" lon="104.813797">
<ele>86.893616</ele>
<time>2011-04-28T08:54:29Z</time>
<desc>lat.=21.908363, lon.=104.813797, Alt.=86.893616m. Speed=12.276000m/h.</desc>
<speed>3.410000</speed>
</trkpt>
<trkpt lat="21.908289" lon="104.813957">
<ele>85.698303</ele>
<time>2011-04-28T08:54:34Z</time>
<desc>lat.=21.908289, lon.=104.813957, Alt.=85.698303m. Speed=13.068000m/h.</desc>
<speed>3.630000</speed>
</trkpt>
<trkpt lat="21.908215" lon="104.814117">
<ele>84.903381</ele>
<time>2011-04-28T08:54:39Z</time>
<desc>lat.=21.908215, lon.=104.814117, Alt.=84.903381m. Speed=13.068000m/h.</desc>
<speed>3.630000</speed>
</trkpt>
<trkpt lat="21.908144" lon="104.814270">
<ele>85.047913</ele>
<time>2011-04-28T08:54:44Z</time>
<desc>lat.=21.908144, lon.=104.814270, Alt.=85.047913m. Speed=13.680000m/h.</desc>
<speed>3.800000</speed>
</trkpt>
<trkpt lat="21.908060" lon="104.814423">
<ele>84.491272</ele>
<time>2011-04-28T08:54:49Z</time>
<desc>lat.=21.908060, lon.=104.814423, Alt.=84.491272m. Speed=10.440000m/h.</desc>
<speed>2.900000</speed>
</trkpt>
<trkpt lat="21.907936" lon="104.814568">
<ele>82.512756</ele>
<time>2011-04-28T08:54:54Z</time>
<desc>lat.=21.907936, lon.=104.814568, Alt.=82.512756m. Speed=12.636000m/h.</desc>
<speed>3.510000</speed>
</trkpt>
<trkpt lat="21.907787" lon="104.814705">
<ele>80.096741</ele>
<time>2011-04-28T08:54:59Z</time>
<desc>lat.=21.907787, lon.=104.814705, Alt.=80.096741m. Speed=15.948000m/h.</desc>
<speed>4.430000</speed>
</trkpt>
<trkpt lat="21.907608" lon="104.814850">
<ele>79.008850</ele>
<time>2011-04-28T08:55:04Z</time>
<desc>lat.=21.907608, lon.=104.814850, Alt.=79.008850m. Speed=16.884001m/h.</desc>
<speed>4.690000</speed>
</trkpt>
<trkpt lat="21.907457" lon="104.814980">
<ele>79.762756</ele>
<time>2011-04-28T08:55:09Z</time>
<desc>lat.=21.907457, lon.=104.814980, Alt.=79.762756m. Speed=12.096000m/h.</desc>
<speed>3.360000</speed>
</trkpt>
<trkpt lat="21.907335" lon="104.815102">
<ele>81.297913</ele>
<time>2011-04-28T08:55:14Z</time>
<desc>lat.=21.907335, lon.=104.815102, Alt.=81.297913m. Speed=12.960000m/h.</desc>
<speed>3.600000</speed>
</trkpt>
<trkpt lat="21.907232" lon="104.815262">
<ele>81.879944</ele>
<time>2011-04-28T08:55:19Z</time>
<desc>lat.=21.907232, lon.=104.815262, Alt.=81.879944m. Speed=13.284000m/h.</desc>
<speed>3.690000</speed>
</trkpt>
<trkpt lat="21.907171" lon="104.815422">
<ele>80.772522</ele>
<time>2011-04-28T08:55:24Z</time>
<desc>lat.=21.907171, lon.=104.815422, Alt.=80.772522m. Speed=11.988000m/h.</desc>
<speed>3.330000</speed>
</trkpt>
<trkpt lat="21.907066" lon="104.815582">
<ele>79.624084</ele>
<time>2011-04-28T08:55:29Z</time>
<desc>lat.=21.907066, lon.=104.815582, Alt.=79.624084m. Speed=14.292000m/h.</desc>
<speed>3.970000</speed>
</trkpt>
<trkpt lat="21.906958" lon="104.815796">
<ele>77.961975</ele>
<time>2011-04-28T08:55:34Z</time>
<desc>lat.=21.906958, lon.=104.815796, Alt.=77.961975m. Speed=15.516000m/h.</desc>
<speed>4.310000</speed>
</trkpt>
<trkpt lat="21.906860" lon="104.815994">
<ele>76.756897</ele>
<time>2011-04-28T08:55:39Z</time>
<desc>lat.=21.906860, lon.=104.815994, Alt.=76.756897m. Speed=14.616000m/h.</desc>
<speed>4.060000</speed>
</trkpt>
<trkpt lat="21.906748" lon="104.816231">
<ele>75.555725</ele>
<time>2011-04-28T08:55:44Z</time>
<desc>lat.=21.906748, lon.=104.816231, Alt.=75.555725m. Speed=17.316000m/h.</desc>
<speed>4.810000</speed>
</trkpt>
<trkpt lat="21.906563" lon="104.816414">
<ele>73.747131</ele>
<time>2011-04-28T08:55:49Z</time>
<desc>lat.=21.906563, lon.=104.816414, Alt.=73.747131m. Speed=17.639999m/h.</desc>
<speed>4.900000</speed>
</trkpt>
<trkpt lat="21.906384" lon="104.816628">
<ele>71.532288</ele>
<time>2011-04-28T08:55:54Z</time>
<desc>lat.=21.906384, lon.=104.816628, Alt.=71.532288m. Speed=19.188000m/h.</desc>
<speed>5.330000</speed>
</trkpt>
<trkpt lat="21.906208" lon="104.816856">
<ele>71.817444</ele>
<time>2011-04-28T08:55:59Z</time>
<desc>lat.=21.906208, lon.=104.816856, Alt.=71.817444m. Speed=17.280001m/h.</desc>
<speed>4.800000</speed>
</trkpt>
<trkpt lat="21.906034" lon="104.817055">
<ele>71.741272</ele>
<time>2011-04-28T08:56:04Z</time>
<desc>lat.=21.906034, lon.=104.817055, Alt.=71.741272m. Speed=21.420000m/h.</desc>
<speed>5.950000</speed>
</trkpt>
<trkpt lat="21.905859" lon="104.817276">
<ele>71.059631</ele>
<time>2011-04-28T08:56:09Z</time>
<desc>lat.=21.905859, lon.=104.817276, Alt.=71.059631m. Speed=17.388000m/h.</desc>
<speed>4.830000</speed>
</trkpt>
<trkpt lat="21.905725" lon="104.817413">
<ele>68.024475</ele>
<time>2011-04-28T08:56:14Z</time>
<desc>lat.=21.905725, lon.=104.817413, Alt.=68.024475m. Speed=11.484000m/h.</desc>
<speed>3.190000</speed>
</trkpt>
<trkpt lat="21.905542" lon="104.817543">
<ele>76.911194</ele>
<time>2011-04-28T08:56:19Z</time>
<desc>lat.=21.905542, lon.=104.817543, Alt.=76.911194m. Speed=17.316000m/h.</desc>
<speed>4.810000</speed>
</trkpt>
<trkpt lat="21.905411" lon="104.817650">
<ele>81.534241</ele>
<time>2011-04-28T08:56:24Z</time>
<desc>lat.=21.905411, lon.=104.817650, Alt.=81.534241m. Speed=7.488000m/h.</desc>
<speed>2.080000</speed>
</trkpt>
<trkpt lat="21.905342" lon="104.817703">
<ele>82.989319</ele>
<time>2011-04-28T08:56:29Z</time>
<desc>lat.=21.905342, lon.=104.817703, Alt.=82.989319m. Speed=8.388000m/h.</desc>
<speed>2.330000</speed>
</trkpt>
<trkpt lat="21.905231" lon="104.817749">
<ele>84.358459</ele>
<time>2011-04-28T08:56:34Z</time>
<desc>lat.=21.905231, lon.=104.817749, Alt.=84.358459m. Speed=10.944000m/h.</desc>
<speed>3.040000</speed>
</trkpt>
<trkpt lat="21.905123" lon="104.817841">
<ele>86.948303</ele>
<time>2011-04-28T08:56:39Z</time>
<desc>lat.=21.905123, lon.=104.817841, Alt.=86.948303m. Speed=10.476000m/h.</desc>
<speed>2.910000</speed>
</trkpt>
<trkpt lat="21.905020" lon="104.817917">
<ele>88.094788</ele>
<time>2011-04-28T08:56:44Z</time>
<desc>lat.=21.905020, lon.=104.817917, Alt.=88.094788m. Speed=9.540000m/h.</desc>
<speed>2.650000</speed>
</trkpt>
<trkpt lat="21.904905" lon="104.818001">
<ele>90.805725</ele>
<time>2011-04-28T08:56:49Z</time>
<desc>lat.=21.904905, lon.=104.818001, Alt.=90.805725m. Speed=12.384000m/h.</desc>
<speed>3.440000</speed>
</trkpt>
<trkpt lat="21.904760" lon="104.818069">
<ele>92.213928</ele>
<time>2011-04-28T08:56:54Z</time>
<desc>lat.=21.904760, lon.=104.818069, Alt.=92.213928m. Speed=12.384000m/h.</desc>
<speed>3.440000</speed>
</trkpt>
<trkpt lat="21.904619" lon="104.818199">
<ele>93.659241</ele>
<time>2011-04-28T08:56:59Z</time>
<desc>lat.=21.904619, lon.=104.818199, Alt.=93.659241m. Speed=12.384000m/h.</desc>
<speed>3.440000</speed>
</trkpt>
<trkpt lat="21.904509" lon="104.818306">
<ele>95.069397</ele>
<time>2011-04-28T08:57:04Z</time>
<desc>lat.=21.904509, lon.=104.818306, Alt.=95.069397m. Speed=12.168000m/h.</desc>
<speed>3.380000</speed>
</trkpt>
<trkpt lat="21.904379" lon="104.818420">
<ele>96.514709</ele>
<time>2011-04-28T08:57:09Z</time>
<desc>lat.=21.904379, lon.=104.818420, Alt.=96.514709m. Speed=13.680000m/h.</desc>
<speed>3.800000</speed>
</trkpt>
<trkpt lat="21.904228" lon="104.818527">
<ele>97.235413</ele>
<time>2011-04-28T08:57:14Z</time>
<desc>lat.=21.904228, lon.=104.818527, Alt.=97.235413m. Speed=14.112000m/h.</desc>
<speed>3.920000</speed>
</trkpt>
<trkpt lat="21.904064" lon="104.818604">
<ele>97.311584</ele>
<time>2011-04-28T08:57:19Z</time>
<desc>lat.=21.904064, lon.=104.818604, Alt.=97.311584m. Speed=11.952000m/h.</desc>
<speed>3.320000</speed>
</trkpt>
<trkpt lat="21.903889" lon="104.818649">
<ele>96.883850</ele>
<time>2011-04-28T08:57:24Z</time>
<desc>lat.=21.903889, lon.=104.818649, Alt.=96.883850m. Speed=12.744000m/h.</desc>
<speed>3.540000</speed>
</trkpt>
<trkpt lat="21.903719" lon="104.818779">
<ele>95.118225</ele>
<time>2011-04-28T08:57:29Z</time>
<desc>lat.=21.903719, lon.=104.818779, Alt.=95.118225m. Speed=16.416000m/h.</desc>
<speed>4.560000</speed>
</trkpt>
<trkpt lat="21.903570" lon="104.818939">
<ele>93.422913</ele>
<time>2011-04-28T08:57:34Z</time>
<desc>lat.=21.903570, lon.=104.818939, Alt.=93.422913m. Speed=16.200001m/h.</desc>
<speed>4.500000</speed>
</trkpt>
<trkpt lat="21.903357" lon="104.819077">
<ele>91.415100</ele>
<time>2011-04-28T08:57:39Z</time>
<desc>lat.=21.903357, lon.=104.819077, Alt.=91.415100m. Speed=19.656000m/h.</desc>
<speed>5.460000</speed>
</trkpt>
<trkpt lat="21.903164" lon="104.819221">
<ele>90.858459</ele>
<time>2011-04-28T08:57:44Z</time>
<desc>lat.=21.903164, lon.=104.819221, Alt.=90.858459m. Speed=13.500000m/h.</desc>
<speed>3.750000</speed>
</trkpt>
<trkpt lat="21.903028" lon="104.819283">
<ele>90.444397</ele>
<time>2011-04-28T08:57:49Z</time>
<desc>lat.=21.903028, lon.=104.819283, Alt.=90.444397m. Speed=9.216000m/h.</desc>
<speed>2.560000</speed>
</trkpt>
<trkpt lat="21.902908" lon="104.819298">
<ele>89.624084</ele>
<time>2011-04-28T08:57:54Z</time>
<desc>lat.=21.902908, lon.=104.819298, Alt.=89.624084m. Speed=10.188000m/h.</desc>
<speed>2.830000</speed>
</trkpt>
<trkpt lat="21.902737" lon="104.819359">
<ele>89.303772</ele>
<time>2011-04-28T08:57:59Z</time>
<desc>lat.=21.902737, lon.=104.819359, Alt.=89.303772m. Speed=13.428000m/h.</desc>
<speed>3.730000</speed>
</trkpt>
<trkpt lat="21.902567" lon="104.819435">
<ele>88.071350</ele>
<time>2011-04-28T08:58:04Z</time>
<desc>lat.=21.902567, lon.=104.819435, Alt.=88.071350m. Speed=12.996000m/h.</desc>
<speed>3.610000</speed>
</trkpt>
<trkpt lat="21.902395" lon="104.819542">
<ele>86.020569</ele>
<time>2011-04-28T08:58:09Z</time>
<desc>lat.=21.902395, lon.=104.819542, Alt.=86.020569m. Speed=15.660000m/h.</desc>
<speed>4.350000</speed>
</trkpt>
<trkpt lat="21.902218" lon="104.819687">
<ele>84.424866</ele>
<time>2011-04-28T08:58:14Z</time>
<desc>lat.=21.902218, lon.=104.819687, Alt.=84.424866m. Speed=16.992001m/h.</desc>
<speed>4.720000</speed>
</trkpt>
<trkpt lat="21.902020" lon="104.819839">
<ele>80.792053</ele>
<time>2011-04-28T08:58:19Z</time>
<desc>lat.=21.902020, lon.=104.819839, Alt.=80.792053m. Speed=21.240000m/h.</desc>
<speed>5.900000</speed>
</trkpt>
<trkpt lat="21.901758" lon="104.820068">
<ele>77.819397</ele>
<time>2011-04-28T08:58:24Z</time>
<desc>lat.=21.901758, lon.=104.820068, Alt.=77.819397m. Speed=26.496000m/h.</desc>
<speed>7.360000</speed>
</trkpt>
<trkpt lat="21.901470" lon="104.820351">
<ele>77.417053</ele>
<time>2011-04-28T08:58:29Z</time>
<desc>lat.=21.901470, lon.=104.820351, Alt.=77.417053m. Speed=29.195999m/h.</desc>
<speed>8.110000</speed>
</trkpt>
<trkpt lat="21.901196" lon="104.820610">
<ele>76.358459</ele>
<time>2011-04-28T08:58:34Z</time>
<desc>lat.=21.901196, lon.=104.820610, Alt.=76.358459m. Speed=27.072001m/h.</desc>
<speed>7.520000</speed>
</trkpt>
<trkpt lat="21.900959" lon="104.820831">
<ele>76.975647</ele>
<time>2011-04-28T08:58:39Z</time>
<desc>lat.=21.900959, lon.=104.820831, Alt.=76.975647m. Speed=22.931999m/h.</desc>
<speed>6.370000</speed>
</trkpt>
<trkpt lat="21.900766" lon="104.821030">
<ele>75.176819</ele>
<time>2011-04-28T08:58:44Z</time>
<desc>lat.=21.900766, lon.=104.821030, Alt.=75.176819m. Speed=16.596001m/h.</desc>
<speed>4.610000</speed>
</trkpt>
<trkpt lat="21.900623" lon="104.821190">
<ele>77.010803</ele>
<time>2011-04-28T08:58:49Z</time>
<desc>lat.=21.900623, lon.=104.821190, Alt.=77.010803m. Speed=12.528000m/h.</desc>
<speed>3.480000</speed>
</trkpt>
<trkpt lat="21.900515" lon="104.821289">
<ele>82.436584</ele>
<time>2011-04-28T08:58:54Z</time>
<desc>lat.=21.900515, lon.=104.821289, Alt.=82.436584m. Speed=10.188000m/h.</desc>
<speed>2.830000</speed>
</trkpt>
<trkpt lat="21.900431" lon="104.821404">
<ele>85.188538</ele>
<time>2011-04-28T08:58:59Z</time>
<desc>lat.=21.900431, lon.=104.821404, Alt.=85.188538m. Speed=9.108000m/h.</desc>
<speed>2.530000</speed>
</trkpt>
<trkpt lat="21.900339" lon="104.821495">
<ele>86.555725</ele>
<time>2011-04-28T08:59:04Z</time>
<desc>lat.=21.900339, lon.=104.821495, Alt.=86.555725m. Speed=10.188000m/h.</desc>
<speed>2.830000</speed>
</trkpt>
<trkpt lat="21.900242" lon="104.821609">
<ele>86.610413</ele>
<time>2011-04-28T08:59:09Z</time>
<desc>lat.=21.900242, lon.=104.821609, Alt.=86.610413m. Speed=13.248000m/h.</desc>
<speed>3.680000</speed>
</trkpt>
<trkpt lat="21.900143" lon="104.821716">
<ele>87.034241</ele>
<time>2011-04-28T08:59:14Z</time>
<desc>lat.=21.900143, lon.=104.821716, Alt.=87.034241m. Speed=11.160000m/h.</desc>
<speed>3.100000</speed>
</trkpt>
<trkpt lat="21.900042" lon="104.821846">
<ele>87.575256</ele>
<time>2011-04-28T08:59:19Z</time>
<desc>lat.=21.900042, lon.=104.821846, Alt.=87.575256m. Speed=12.420000m/h.</desc>
<speed>3.450000</speed>
</trkpt>
<trkpt lat="21.899929" lon="104.821960">
<ele>87.809631</ele>
<time>2011-04-28T08:59:24Z</time>
<desc>lat.=21.899929, lon.=104.821960, Alt.=87.809631m. Speed=11.484000m/h.</desc>
<speed>3.190000</speed>
</trkpt>
<trkpt lat="21.899834" lon="104.822075">
<ele>87.811584</ele>
<time>2011-04-28T08:59:29Z</time>
<desc>lat.=21.899834, lon.=104.822075, Alt.=87.811584m. Speed=10.512000m/h.</desc>
<speed>2.920000</speed>
</trkpt>
<trkpt lat="21.899712" lon="104.822212">
<ele>87.766663</ele>
<time>2011-04-28T08:59:34Z</time>
<desc>lat.=21.899712, lon.=104.822212, Alt.=87.766663m. Speed=12.420000m/h.</desc>
<speed>3.450000</speed>
</trkpt>
<trkpt lat="21.899633" lon="104.822319">
<ele>87.803772</ele>
<time>2011-04-28T08:59:39Z</time>
<desc>lat.=21.899633, lon.=104.822319, Alt.=87.803772m. Speed=4.536000m/h.</desc>
<speed>1.260000</speed>
</trkpt>
<trkpt lat="21.899607" lon="104.822388">
<ele>87.876038</ele>
<time>2011-04-28T08:59:44Z</time>
<desc>lat.=21.899607, lon.=104.822388, Alt.=87.876038m. Speed=6.840000m/h.</desc>
<speed>1.900000</speed>
</trkpt>
<trkpt lat="21.899576" lon="104.822403">
<ele>88.071350</ele>
<time>2011-04-28T08:59:49Z</time>
<desc>lat.=21.899576, lon.=104.822403, Alt.=88.071350m. Speed=1.008000m/h.</desc>
<speed>0.280000</speed>
</trkpt>
<trkpt lat="21.899555" lon="104.822388">
<ele>87.864319</ele>
<time>2011-04-28T08:59:54Z</time>
<desc>lat.=21.899555, lon.=104.822388, Alt.=87.864319m. Speed=0.360000m/h.</desc>
<speed>0.100000</speed>
</trkpt>
<trkpt lat="21.899527" lon="104.822365">
<ele>87.528381</ele>
<time>2011-04-28T08:59:59Z</time>
<desc>lat.=21.899527, lon.=104.822365, Alt.=87.528381m. Speed=2.808000m/h.</desc>
<speed>0.780000</speed>
</trkpt>
<trkpt lat="21.899506" lon="104.822388">
<ele>87.764709</ele>
<time>2011-04-28T09:00:04Z</time>
<desc>lat.=21.899506, lon.=104.822388, Alt.=87.764709m. Speed=1.116000m/h.</desc>
<speed>0.310000</speed>
</trkpt>
<trkpt lat="21.899517" lon="104.822395">
<ele>88.124084</ele>
<time>2011-04-28T09:00:09Z</time>
<desc>lat.=21.899517, lon.=104.822395, Alt.=88.124084m. Speed=0.360000m/h.</desc>
<speed>0.100000</speed>
</trkpt>
<trkpt lat="21.899506" lon="104.822380">
<ele>88.356506</ele>
<time>2011-04-28T09:00:14Z</time>
<desc>lat.=21.899506, lon.=104.822380, Alt.=88.356506m. Speed=0.036000m/h.</desc>
<speed>0.010000</speed>
</trkpt>
<trkpt lat="21.899504" lon="104.822388">
<ele>88.430725</ele>
<time>2011-04-28T09:00:19Z</time>
<desc>lat.=21.899504, lon.=104.822388, Alt.=88.430725m. Speed=0.000000m/h.</desc>
<speed>0.000000</speed>
</trkpt>
<trkpt lat="21.899500" lon="104.822388">
<ele>89.432678</ele>
<time>2011-04-28T09:00:24Z</time>
<desc>lat.=21.899500, lon.=104.822388, Alt.=89.432678m. Speed=0.000000m/h.</desc>
<speed>0.000000</speed>
</trkpt>
<trkpt lat="21.899502" lon="104.822388">
<ele>89.608459</ele>
<time>2011-04-28T09:00:29Z</time>
<desc>lat.=21.899502, lon.=104.822388, Alt.=89.608459m. Speed=0.000000m/h.</desc>
<speed>0.000000</speed>
</trkpt>
<trkpt lat="21.899500" lon="104.822380">
<ele>89.133850</ele>
<time>2011-04-28T09:00:34Z</time>
<desc>lat.=21.899500, lon.=104.822380, Alt.=89.133850m. Speed=0.000000m/h.</desc>
<speed>0.000000</speed>
</trkpt>
<trkpt lat="21.899500" lon="104.822380">
<ele>89.137756</ele>
<time>2011-04-28T09:00:39Z</time>
<desc>lat.=21.899500, lon.=104.822380, Alt.=89.137756m. Speed=0.000000m/h.</desc>
<speed>0.000000</speed>
</trkpt>
<trkpt lat="21.899502" lon="104.822372">
<ele>88.678772</ele>
<time>2011-04-28T09:00:44Z</time>
<desc>lat.=21.899502, lon.=104.822372, Alt.=88.678772m. Speed=0.000000m/h.</desc>
<speed>0.000000</speed>
</trkpt>
<trkpt lat="21.899508" lon="104.822365">
<ele>88.930725</ele>
<time>2011-04-28T09:00:49Z</time>
<desc>lat.=21.899508, lon.=104.822365, Alt.=88.930725m. Speed=0.000000m/h.</desc>
<speed>0.000000</speed>
</trkpt>
<trkpt lat="21.899509" lon="104.822372">
<ele>89.545959</ele>
<time>2011-04-28T09:00:54Z</time>
<desc>lat.=21.899509, lon.=104.822372, Alt.=89.545959m. Speed=0.036000m/h.</desc>
<speed>0.010000</speed>
</trkpt>
<trkpt lat="21.899511" lon="104.822372">
<ele>90.196350</ele>
<time>2011-04-28T09:00:59Z</time>
<desc>lat.=21.899511, lon.=104.822372, Alt.=90.196350m. Speed=0.036000m/h.</desc>
<speed>0.010000</speed>
</trkpt>
<trkpt lat="21.899511" lon="104.822372">
<ele>89.858459</ele>
<time>2011-04-28T09:01:04Z</time>
<desc>lat.=21.899511, lon.=104.822372, Alt.=89.858459m. Speed=0.000000m/h.</desc>
<speed>0.000000</speed>
</trkpt>
<trkpt lat="21.899513" lon="104.822365">
<ele>89.551819</ele>
<time>2011-04-28T09:01:09Z</time>
<desc>lat.=21.899513, lon.=104.822365, Alt.=89.551819m. Speed=0.000000m/h.</desc>
<speed>0.000000</speed>
</trkpt>
<trkpt lat="21.899513" lon="104.822365">
<ele>89.604553</ele>
<time>2011-04-28T09:01:14Z</time>
<desc>lat.=21.899513, lon.=104.822365, Alt.=89.604553m. Speed=0.000000m/h.</desc>
<speed>0.000000</speed>
</trkpt>
<trkpt lat="21.899515" lon="104.822357">
<ele>89.907288</ele>
<time>2011-04-28T09:01:19Z</time>
<desc>lat.=21.899515, lon.=104.822357, Alt.=89.907288m. Speed=0.000000m/h.</desc>
<speed>0.000000</speed>
</trkpt>
<trkpt lat="21.899519" lon="104.822365">
<ele>89.682678</ele>
<time>2011-04-28T09:01:24Z</time>
<desc>lat.=21.899519, lon.=104.822365, Alt.=89.682678m. Speed=0.000000m/h.</desc>
<speed>0.000000</speed>
</trkpt>
<trkpt lat="21.899517" lon="104.822365">
<ele>89.358459</ele>
<time>2011-04-28T09:01:29Z</time>
<desc>lat.=21.899517, lon.=104.822365, Alt.=89.358459m. Speed=0.000000m/h.</desc>
<speed>0.000000</speed>
</trkpt>
<trkpt lat="21.899513" lon="104.822365">
<ele>89.184631</ele>
<time>2011-04-28T09:01:34Z</time>
<desc>lat.=21.899513, lon.=104.822365, Alt.=89.184631m. Speed=0.000000m/h.</desc>
<speed>0.000000</speed>
</trkpt>
<trkpt lat="21.899513" lon="104.822365">
<ele>89.192444</ele>
<time>2011-04-28T09:01:39Z</time>
<desc>lat.=21.899513, lon.=104.822365, Alt.=89.192444m. Speed=0.000000m/h.</desc>
<speed>0.000000</speed>
</trkpt>
<trkpt lat="21.899515" lon="104.822365">
<ele>89.188538</ele>
<time>2011-04-28T09:01:44Z</time>
<desc>lat.=21.899515, lon.=104.822365, Alt.=89.188538m. Speed=0.000000m/h.</desc>
<speed>0.000000</speed>
</trkpt>
<trkpt lat="21.899515" lon="104.822365">
<ele>89.188538</ele>
<time>2011-04-28T09:01:49Z</time>
<desc>lat.=21.899515, lon.=104.822365, Alt.=89.188538m. Speed=0.000000m/h.</desc>
<speed>0.000000</speed>
</trkpt>
<trkpt lat="21.899515" lon="104.822365">
<ele>89.192444</ele>
<time>2011-04-28T09:01:54Z</time>
<desc>lat.=21.899515, lon.=104.822365, Alt.=89.192444m. Speed=0.000000m/h.</desc>
<speed>0.000000</speed>
</trkpt>
<trkpt lat="21.899515" lon="104.822365">
<ele>89.210022</ele>
<time>2011-04-28T09:01:59Z</time>
<desc>lat.=21.899515, lon.=104.822365, Alt.=89.210022m. Speed=0.000000m/h.</desc>
<speed>0.000000</speed>
</trkpt>
<trkpt lat="21.899515" lon="104.822365">
<ele>89.213928</ele>
<time>2011-04-28T09:02:04Z</time>
<desc>lat.=21.899515, lon.=104.822365, Alt.=89.213928m. Speed=0.000000m/h.</desc>
<speed>0.000000</speed>
</trkpt>
<trkpt lat="21.899515" lon="104.822365">
<ele>89.208069</ele>
<time>2011-04-28T09:02:09Z</time>
<desc>lat.=21.899515, lon.=104.822365, Alt.=89.208069m. Speed=0.036000m/h.</desc>
<speed>0.010000</speed>
</trkpt>
<trkpt lat="21.899515" lon="104.822365">
<ele>89.208069</ele>
<time>2011-04-28T09:02:14Z</time>
<desc>lat.=21.899515, lon.=104.822365, Alt.=89.208069m. Speed=0.000000m/h.</desc>
<speed>0.000000</speed>
</trkpt>
<trkpt lat="21.899515" lon="104.822365">
<ele>89.192444</ele>
<time>2011-04-28T09:02:19Z</time>
<desc>lat.=21.899515, lon.=104.822365, Alt.=89.192444m. Speed=0.000000m/h.</desc>
<speed>0.000000</speed>
</trkpt>
<trkpt lat="21.899515" lon="104.822365">
<ele>89.188538</ele>
<time>2011-04-28T09:02:24Z</time>
<desc>lat.=21.899515, lon.=104.822365, Alt.=89.188538m. Speed=0.000000m/h.</desc>
<speed>0.000000</speed>
</trkpt>
<trkpt lat="21.899515" lon="104.822365">
<ele>89.192444</ele>
<time>2011-04-28T09:02:29Z</time>
<desc>lat.=21.899515, lon.=104.822365, Alt.=89.192444m. Speed=0.036000m/h.</desc>
<speed>0.010000</speed>
</trkpt>
<trkpt lat="21.899515" lon="104.822365">
<ele>89.200256</ele>
<time>2011-04-28T09:02:34Z</time>
<desc>lat.=21.899515, lon.=104.822365, Alt.=89.200256m. Speed=0.036000m/h.</desc>
<speed>0.010000</speed>
</trkpt>
<trkpt lat="21.899515" lon="104.822365">
<ele>89.196350</ele>
<time>2011-04-28T09:02:39Z</time>
<desc>lat.=21.899515, lon.=104.822365, Alt.=89.196350m. Speed=0.036000m/h.</desc>
<speed>0.010000</speed>
</trkpt>
<trkpt lat="21.899515" lon="104.822365">
<ele>89.178772</ele>
<time>2011-04-28T09:02:44Z</time>
<desc>lat.=21.899515, lon.=104.822365, Alt.=89.178772m. Speed=0.000000m/h.</desc>
<speed>0.000000</speed>
</trkpt>
<trkpt lat="21.899515" lon="104.822365">
<ele>89.157288</ele>
<time>2011-04-28T09:02:49Z</time>
<desc>lat.=21.899515, lon.=104.822365, Alt.=89.157288m. Speed=0.036000m/h.</desc>
<speed>0.010000</speed>
</trkpt>
<trkpt lat="21.899515" lon="104.822365">
<ele>89.170959</ele>
<time>2011-04-28T09:02:54Z</time>
<desc>lat.=21.899515, lon.=104.822365, Alt.=89.170959m. Speed=0.036000m/h.</desc>
<speed>0.010000</speed>
</trkpt>
<trkpt lat="21.899515" lon="104.822365">
<ele>89.188538</ele>
<time>2011-04-28T09:02:59Z</time>
<desc>lat.=21.899515, lon.=104.822365, Alt.=89.188538m. Speed=0.036000m/h.</desc>
<speed>0.010000</speed>
</trkpt>
<trkpt lat="21.899515" lon="104.822365">
<ele>89.204163</ele>
<time>2011-04-28T09:03:04Z</time>
<desc>lat.=21.899515, lon.=104.822365, Alt.=89.204163m. Speed=0.000000m/h.</desc>
<speed>0.000000</speed>
</trkpt>
<trkpt lat="21.899515" lon="104.822365">
<ele>89.217834</ele>
<time>2011-04-28T09:03:09Z</time>
<desc>lat.=21.899515, lon.=104.822365, Alt.=89.217834m. Speed=0.000000m/h.</desc>
<speed>0.000000</speed>
</trkpt>
<trkpt lat="21.899515" lon="104.822365">
<ele>89.223694</ele>
<time>2011-04-28T09:03:14Z</time>
<desc>lat.=21.899515, lon.=104.822365, Alt.=89.223694m. Speed=0.000000m/h.</desc>
<speed>0.000000</speed>
</trkpt>
<trkpt lat="21.899515" lon="104.822365">
<ele>89.243225</ele>
<time>2011-04-28T09:03:19Z</time>
<desc>lat.=21.899515, lon.=104.822365, Alt.=89.243225m. Speed=0.036000m/h.</desc>
<speed>0.010000</speed>
</trkpt>
<trkpt lat="21.899515" lon="104.822365">
<ele>89.252991</ele>
<time>2011-04-28T09:03:24Z</time>
<desc>lat.=21.899515, lon.=104.822365, Alt.=89.252991m. Speed=0.000000m/h.</desc>
<speed>0.000000</speed>
</trkpt>
<trkpt lat="21.899515" lon="104.822365">
<ele>89.278381</ele>
<time>2011-04-28T09:03:29Z</time>
<desc>lat.=21.899515, lon.=104.822365, Alt.=89.278381m. Speed=0.036000m/h.</desc>
<speed>0.010000</speed>
</trkpt>
<trkpt lat="21.899515" lon="104.822365">
<ele>89.297913</ele>
<time>2011-04-28T09:03:34Z</time>
<desc>lat.=21.899515, lon.=104.822365, Alt.=89.297913m. Speed=0.000000m/h.</desc>
<speed>0.000000</speed>
</trkpt>
<trkpt lat="21.899517" lon="104.822365">
<ele>89.297913</ele>
<time>2011-04-28T09:03:39Z</time>
<desc>lat.=21.899517, lon.=104.822365, Alt.=89.297913m. Speed=0.000000m/h.</desc>
<speed>0.000000</speed>
</trkpt>
<trkpt lat="21.899517" lon="104.822365">
<ele>89.317444</ele>
<time>2011-04-28T09:03:44Z</time>
<desc>lat.=21.899517, lon.=104.822365, Alt.=89.317444m. Speed=0.000000m/h.</desc>
<speed>0.000000</speed>
</trkpt>
<trkpt lat="21.899517" lon="104.822365">
<ele>89.323303</ele>
<time>2011-04-28T09:03:49Z</time>
<desc>lat.=21.899517, lon.=104.822365, Alt.=89.323303m. Speed=0.000000m/h.</desc>
<speed>0.000000</speed>
</trkpt>
<trkpt lat="21.899517" lon="104.822365">
<ele>89.327209</ele>
<time>2011-04-28T09:03:54Z</time>
<desc>lat.=21.899517, lon.=104.822365, Alt.=89.327209m. Speed=0.000000m/h.</desc>
<speed>0.000000</speed>
</trkpt>
<trkpt lat="21.899517" lon="104.822365">
<ele>89.331116</ele>
<time>2011-04-28T09:03:59Z</time>
<desc>lat.=21.899517, lon.=104.822365, Alt.=89.331116m. Speed=0.036000m/h.</desc>
<speed>0.010000</speed>
</trkpt>
<trkpt lat="21.899517" lon="104.822365">
<ele>89.338928</ele>
<time>2011-04-28T09:04:04Z</time>
<desc>lat.=21.899517, lon.=104.822365, Alt.=89.338928m. Speed=0.000000m/h.</desc>
<speed>0.000000</speed>
</trkpt>
<trkpt lat="21.899517" lon="104.822365">
<ele>89.342834</ele>
<time>2011-04-28T09:04:09Z</time>
<desc>lat.=21.899517, lon.=104.822365, Alt.=89.342834m. Speed=0.036000m/h.</desc>
<speed>0.010000</speed>
</trkpt>
<trkpt lat="21.899517" lon="104.822365">
<ele>89.352600</ele>
<time>2011-04-28T09:04:14Z</time>
<desc>lat.=21.899517, lon.=104.822365, Alt.=89.352600m. Speed=0.000000m/h.</desc>
<speed>0.000000</speed>
</trkpt>
<trkpt lat="21.899517" lon="104.822365">
<ele>89.368225</ele>
<time>2011-04-28T09:04:19Z</time>
<desc>lat.=21.899517, lon.=104.822365, Alt.=89.368225m. Speed=0.036000m/h.</desc>
<speed>0.010000</speed>
</trkpt>
<trkpt lat="21.899517" lon="104.822365">
<ele>89.383850</ele>
<time>2011-04-28T09:04:24Z</time>
<desc>lat.=21.899517, lon.=104.822365, Alt.=89.383850m. Speed=0.000000m/h.</desc>
<speed>0.000000</speed>
</trkpt>
<trkpt lat="21.899517" lon="104.822365">
<ele>89.389709</ele>
<time>2011-04-28T09:04:29Z</time>
<desc>lat.=21.899517, lon.=104.822365, Alt.=89.389709m. Speed=0.000000m/h.</desc>
<speed>0.000000</speed>
</trkpt>
<trkpt lat="21.899517" lon="104.822365">
<ele>89.389709</ele>
<time>2011-04-28T09:04:34Z</time>
<desc>lat.=21.899517, lon.=104.822365, Alt.=89.389709m. Speed=0.036000m/h.</desc>
<speed>0.010000</speed>
</trkpt>
<trkpt lat="21.899517" lon="104.822365">
<ele>89.393616</ele>
<time>2011-04-28T09:04:39Z</time>
<desc>lat.=21.899517, lon.=104.822365, Alt.=89.393616m. Speed=0.000000m/h.</desc>
<speed>0.000000</speed>
</trkpt>
<trkpt lat="21.899517" lon="104.822365">
<ele>89.399475</ele>
<time>2011-04-28T09:04:44Z</time>
<desc>lat.=21.899517, lon.=104.822365, Alt.=89.399475m. Speed=0.000000m/h.</desc>
<speed>0.000000</speed>
</trkpt>
<trkpt lat="21.899517" lon="104.822365">
<ele>89.407288</ele>
<time>2011-04-28T09:04:49Z</time>
<desc>lat.=21.899517, lon.=104.822365, Alt.=89.407288m. Speed=0.000000m/h.</desc>
<speed>0.000000</speed>
</trkpt>
<trkpt lat="21.899517" lon="104.822365">
<ele>89.411194</ele>
<time>2011-04-28T09:04:54Z</time>
<desc>lat.=21.899517, lon.=104.822365, Alt.=89.411194m. Speed=0.036000m/h.</desc>
<speed>0.010000</speed>
</trkpt>
<trkpt lat="21.899517" lon="104.822365">
<ele>89.415100</ele>
<time>2011-04-28T09:04:59Z</time>
<desc>lat.=21.899517, lon.=104.822365, Alt.=89.415100m. Speed=0.000000m/h.</desc>
<speed>0.000000</speed>
</trkpt>
<trkpt lat="21.899517" lon="104.822365">
<ele>89.409241</ele>
<time>2011-04-28T09:05:04Z</time>
<desc>lat.=21.899517, lon.=104.822365, Alt.=89.409241m. Speed=0.000000m/h.</desc>
<speed>0.000000</speed>
</trkpt>
<trkpt lat="21.899517" lon="104.822365">
<ele>89.405334</ele>
<time>2011-04-28T09:05:09Z</time>
<desc>lat.=21.899517, lon.=104.822365, Alt.=89.405334m. Speed=0.036000m/h.</desc>
<speed>0.010000</speed>
</trkpt>
<trkpt lat="21.899517" lon="104.822365">
<ele>89.399475</ele>
<time>2011-04-28T09:05:14Z</time>
<desc>lat.=21.899517, lon.=104.822365, Alt.=89.399475m. Speed=0.036000m/h.</desc>
<speed>0.010000</speed>
</trkpt>
<trkpt lat="21.899517" lon="104.822365">
<ele>89.387756</ele>
<time>2011-04-28T09:05:19Z</time>
<desc>lat.=21.899517, lon.=104.822365, Alt.=89.387756m. Speed=0.036000m/h.</desc>
<speed>0.010000</speed>
</trkpt>
<trkpt lat="21.899517" lon="104.822365">
<ele>89.360413</ele>
<time>2011-04-28T09:05:24Z</time>
<desc>lat.=21.899517, lon.=104.822365, Alt.=89.360413m. Speed=0.000000m/h.</desc>
<speed>0.000000</speed>
</trkpt>
<trkpt lat="21.899517" lon="104.822365">
<ele>89.340881</ele>
<time>2011-04-28T09:05:29Z</time>
<desc>lat.=21.899517, lon.=104.822365, Alt.=89.340881m. Speed=0.036000m/h.</desc>
<speed>0.010000</speed>
</trkpt>
<trkpt lat="21.899517" lon="104.822365">
<ele>89.348694</ele>
<time>2011-04-28T09:05:34Z</time>
<desc>lat.=21.899517, lon.=104.822365, Alt.=89.348694m. Speed=0.000000m/h.</desc>
<speed>0.000000</speed>
</trkpt>
<trkpt lat="21.899517" lon="104.822365">
<ele>89.356506</ele>
<time>2011-04-28T09:05:39Z</time>
<desc>lat.=21.899517, lon.=104.822365, Alt.=89.356506m. Speed=0.000000m/h.</desc>
<speed>0.000000</speed>
</trkpt>
<trkpt lat="21.899517" lon="104.822365">
<ele>89.348694</ele>
<time>2011-04-28T09:05:44Z</time>
<desc>lat.=21.899517, lon.=104.822365, Alt.=89.348694m. Speed=0.072000m/h.</desc>
<speed>0.020000</speed>
</trkpt>
<trkpt lat="21.899517" lon="104.822365">
<ele>89.309631</ele>
<time>2011-04-28T09:05:49Z</time>
<desc>lat.=21.899517, lon.=104.822365, Alt.=89.309631m. Speed=0.000000m/h.</desc>
<speed>0.000000</speed>
</trkpt>
<trkpt lat="21.899517" lon="104.822365">
<ele>89.290100</ele>
<time>2011-04-28T09:05:54Z</time>
<desc>lat.=21.899517, lon.=104.822365, Alt.=89.290100m. Speed=0.000000m/h.</desc>
<speed>0.000000</speed>
</trkpt>
<trkpt lat="21.899517" lon="104.822365">
<ele>89.274475</ele>
<time>2011-04-28T09:05:59Z</time>
<desc>lat.=21.899517, lon.=104.822365, Alt.=89.274475m. Speed=0.000000m/h.</desc>
<speed>0.000000</speed>
</trkpt>
<trkpt lat="21.899517" lon="104.822365">
<ele>89.278381</ele>
<time>2011-04-28T09:06:04Z</time>
<desc>lat.=21.899517, lon.=104.822365, Alt.=89.278381m. Speed=0.036000m/h.</desc>
<speed>0.010000</speed>
</trkpt>
<trkpt lat="21.899517" lon="104.822365">
<ele>89.288147</ele>
<time>2011-04-28T09:06:09Z</time>
<desc>lat.=21.899517, lon.=104.822365, Alt.=89.288147m. Speed=0.000000m/h.</desc>
<speed>0.000000</speed>
</trkpt>
<trkpt lat="21.899515" lon="104.822365">
<ele>89.278381</ele>
<time>2011-04-28T09:06:14Z</time>
<desc>lat.=21.899515, lon.=104.822365, Alt.=89.278381m. Speed=0.036000m/h.</desc>
<speed>0.010000</speed>
</trkpt>
<trkpt lat="21.899515" lon="104.822365">
<ele>89.266663</ele>
<time>2011-04-28T09:06:19Z</time>
<desc>lat.=21.899515, lon.=104.822365, Alt.=89.266663m. Speed=0.000000m/h.</desc>
<speed>0.000000</speed>
</trkpt>
<trkpt lat="21.899515" lon="104.822365">
<ele>89.231506</ele>
<time>2011-04-28T09:06:24Z</time>
<desc>lat.=21.899515, lon.=104.822365, Alt.=89.231506m. Speed=0.000000m/h.</desc>
<speed>0.000000</speed>
</trkpt>
<trkpt lat="21.899515" lon="104.822365">
<ele>89.178772</ele>
<time>2011-04-28T09:06:29Z</time>
<desc>lat.=21.899515, lon.=104.822365, Alt.=89.178772m. Speed=0.000000m/h.</desc>
<speed>0.000000</speed>
</trkpt>
<trkpt lat="21.899515" lon="104.822365">
<ele>89.153381</ele>
<time>2011-04-28T09:06:34Z</time>
<desc>lat.=21.899515, lon.=104.822365, Alt.=89.153381m. Speed=0.000000m/h.</desc>
<speed>0.000000</speed>
</trkpt>
<trkpt lat="21.899515" lon="104.822365">
<ele>89.155334</ele>
<time>2011-04-28T09:06:39Z</time>
<desc>lat.=21.899515, lon.=104.822365, Alt.=89.155334m. Speed=0.036000m/h.</desc>
<speed>0.010000</speed>
</trkpt>
<trkpt lat="21.899515" lon="104.822365">
<ele>89.153381</ele>
<time>2011-04-28T09:06:44Z</time>
<desc>lat.=21.899515, lon.=104.822365, Alt.=89.153381m. Speed=0.036000m/h.</desc>
<speed>0.010000</speed>
</trkpt>
<trkpt lat="21.899517" lon="104.822365">
<ele>89.163147</ele>
<time>2011-04-28T09:06:49Z</time>
<desc>lat.=21.899517, lon.=104.822365, Alt.=89.163147m. Speed=0.000000m/h.</desc>
<speed>0.000000</speed>
</trkpt>
<trkpt lat="21.899517" lon="104.822365">
<ele>89.155334</ele>
<time>2011-04-28T09:06:54Z</time>
<desc>lat.=21.899517, lon.=104.822365, Alt.=89.155334m. Speed=0.036000m/h.</desc>
<speed>0.010000</speed>
</trkpt>
<trkpt lat="21.899517" lon="104.822365">
<ele>89.137756</ele>
<time>2011-04-28T09:06:59Z</time>
<desc>lat.=21.899517, lon.=104.822365, Alt.=89.137756m. Speed=0.000000m/h.</desc>
<speed>0.000000</speed>
</trkpt>
<trkpt lat="21.899517" lon="104.822365">
<ele>89.118225</ele>
<time>2011-04-28T09:07:04Z</time>
<desc>lat.=21.899517, lon.=104.822365, Alt.=89.118225m. Speed=0.000000m/h.</desc>
<speed>0.000000</speed>
</trkpt>
<trkpt lat="21.899517" lon="104.822365">
<ele>89.110413</ele>
<time>2011-04-28T09:07:09Z</time>
<desc>lat.=21.899517, lon.=104.822365, Alt.=89.110413m. Speed=0.000000m/h.</desc>
<speed>0.000000</speed>
</trkpt>
<trkpt lat="21.899517" lon="104.822365">
<ele>89.098694</ele>
<time>2011-04-28T09:07:14Z</time>
<desc>lat.=21.899517, lon.=104.822365, Alt.=89.098694m. Speed=0.000000m/h.</desc>
<speed>0.000000</speed>
</trkpt>
<trkpt lat="21.899517" lon="104.822365">
<ele>89.086975</ele>
<time>2011-04-28T09:07:19Z</time>
<desc>lat.=21.899517, lon.=104.822365, Alt.=89.086975m. Speed=0.000000m/h.</desc>
<speed>0.000000</speed>
</trkpt>
<trkpt lat="21.899517" lon="104.822365">
<ele>89.088928</ele>
<time>2011-04-28T09:07:24Z</time>
<desc>lat.=21.899517, lon.=104.822365, Alt.=89.088928m. Speed=0.000000m/h.</desc>
<speed>0.000000</speed>
</trkpt>
<trkpt lat="21.899517" lon="104.822365">
<ele>89.081116</ele>
<time>2011-04-28T09:07:29Z</time>
<desc>lat.=21.899517, lon.=104.822365, Alt.=89.081116m. Speed=0.036000m/h.</desc>
<speed>0.010000</speed>
</trkpt>
<trkpt lat="21.899517" lon="104.822365">
<ele>89.071350</ele>
<time>2011-04-28T09:07:34Z</time>
<desc>lat.=21.899517, lon.=104.822365, Alt.=89.071350m. Speed=0.000000m/h.</desc>
<speed>0.000000</speed>
</trkpt>
<trkpt lat="21.899517" lon="104.822365">
<ele>89.069397</ele>
<time>2011-04-28T09:07:39Z</time>
<desc>lat.=21.899517, lon.=104.822365, Alt.=89.069397m. Speed=0.000000m/h.</desc>
<speed>0.000000</speed>
</trkpt>
<trkpt lat="21.899517" lon="104.822365">
<ele>89.044006</ele>
<time>2011-04-28T09:07:44Z</time>
<desc>lat.=21.899517, lon.=104.822365, Alt.=89.044006m. Speed=0.000000m/h.</desc>
<speed>0.000000</speed>
</trkpt>
<trkpt lat="21.899517" lon="104.822365">
<ele>89.008850</ele>
<time>2011-04-28T09:07:49Z</time>
<desc>lat.=21.899517, lon.=104.822365, Alt.=89.008850m. Speed=0.036000m/h.</desc>
<speed>0.010000</speed>
</trkpt>
<trkpt lat="21.899515" lon="104.822365">
<ele>88.991272</ele>
<time>2011-04-28T09:07:54Z</time>
<desc>lat.=21.899515, lon.=104.822365, Alt.=88.991272m. Speed=0.000000m/h.</desc>
<speed>0.000000</speed>
</trkpt>
<trkpt lat="21.899515" lon="104.822365">
<ele>88.983459</ele>
<time>2011-04-28T09:07:59Z</time>
<desc>lat.=21.899515, lon.=104.822365, Alt.=88.983459m. Speed=0.036000m/h.</desc>
<speed>0.010000</speed>
</trkpt>
<trkpt lat="21.899515" lon="104.822365">
<ele>88.969788</ele>
<time>2011-04-28T09:08:04Z</time>
<desc>lat.=21.899515, lon.=104.822365, Alt.=88.969788m. Speed=0.036000m/h.</desc>
<speed>0.010000</speed>
</trkpt>
<trkpt lat="21.899515" lon="104.822365">
<ele>88.963928</ele>
<time>2011-04-28T09:08:09Z</time>
<desc>lat.=21.899515, lon.=104.822365, Alt.=88.963928m. Speed=0.036000m/h.</desc>
<speed>0.010000</speed>
</trkpt>
<trkpt lat="21.899515" lon="104.822365">
<ele>88.960022</ele>
<time>2011-04-28T09:08:14Z</time>
<desc>lat.=21.899515, lon.=104.822365, Alt.=88.960022m. Speed=0.000000m/h.</desc>
<speed>0.000000</speed>
</trkpt>
<trkpt lat="21.899515" lon="104.822365">
<ele>88.961975</ele>
<time>2011-04-28T09:08:19Z</time>
<desc>lat.=21.899515, lon.=104.822365, Alt.=88.961975m. Speed=0.036000m/h.</desc>
<speed>0.010000</speed>
</trkpt>
<trkpt lat="21.899515" lon="104.822365">
<ele>88.971741</ele>
<time>2011-04-28T09:08:24Z</time>
<desc>lat.=21.899515, lon.=104.822365, Alt.=88.971741m. Speed=0.036000m/h.</desc>
<speed>0.010000</speed>
</trkpt>
<trkpt lat="21.899515" lon="104.822365">
<ele>88.985413</ele>
<time>2011-04-28T09:08:29Z</time>
<desc>lat.=21.899515, lon.=104.822365, Alt.=88.985413m. Speed=0.036000m/h.</desc>
<speed>0.010000</speed>
</trkpt>
<trkpt lat="21.899515" lon="104.822365">
<ele>88.979553</ele>
<time>2011-04-28T09:08:34Z</time>
<desc>lat.=21.899515, lon.=104.822365, Alt.=88.979553m. Speed=0.036000m/h.</desc>
<speed>0.010000</speed>
</trkpt>
<trkpt lat="21.899515" lon="104.822365">
<ele>88.960022</ele>
<time>2011-04-28T09:08:39Z</time>
<desc>lat.=21.899515, lon.=104.822365, Alt.=88.960022m. Speed=0.000000m/h.</desc>
<speed>0.000000</speed>
</trkpt>
<trkpt lat="21.899515" lon="104.822365">
<ele>88.934631</ele>
<time>2011-04-28T09:08:44Z</time>
<desc>lat.=21.899515, lon.=104.822365, Alt.=88.934631m. Speed=0.036000m/h.</desc>
<speed>0.010000</speed>
</trkpt>
<trkpt lat="21.899515" lon="104.822365">
<ele>88.924866</ele>
<time>2011-04-28T09:08:49Z</time>
<desc>lat.=21.899515, lon.=104.822365, Alt.=88.924866m. Speed=0.000000m/h.</desc>
<speed>0.000000</speed>
</trkpt>
<trkpt lat="21.899515" lon="104.822365">
<ele>88.911194</ele>
<time>2011-04-28T09:08:54Z</time>
<desc>lat.=21.899515, lon.=104.822365, Alt.=88.911194m. Speed=0.036000m/h.</desc>
<speed>0.010000</speed>
</trkpt>
<trkpt lat="21.899515" lon="104.822365">
<ele>88.915100</ele>
<time>2011-04-28T09:08:59Z</time>
<desc>lat.=21.899515, lon.=104.822365, Alt.=88.915100m. Speed=0.036000m/h.</desc>
<speed>0.010000</speed>
</trkpt>
<trkpt lat="21.899515" lon="104.822365">
<ele>88.917053</ele>
<time>2011-04-28T09:09:04Z</time>
<desc>lat.=21.899515, lon.=104.822365, Alt.=88.917053m. Speed=0.036000m/h.</desc>
<speed>0.010000</speed>
</trkpt>
<trkpt lat="21.899515" lon="104.822365">
<ele>88.907288</ele>
<time>2011-04-28T09:09:09Z</time>
<desc>lat.=21.899515, lon.=104.822365, Alt.=88.907288m. Speed=0.036000m/h.</desc>
<speed>0.010000</speed>
</trkpt>
<trkpt lat="21.899515" lon="104.822365">
<ele>88.905334</ele>
<time>2011-04-28T09:09:14Z</time>
<desc>lat.=21.899515, lon.=104.822365, Alt.=88.905334m. Speed=0.000000m/h.</desc>
<speed>0.000000</speed>
</trkpt>
<trkpt lat="21.899515" lon="104.822365">
<ele>88.915100</ele>
<time>2011-04-28T09:09:19Z</time>
<desc>lat.=21.899515, lon.=104.822365, Alt.=88.915100m. Speed=0.000000m/h.</desc>
<speed>0.000000</speed>
</trkpt>
<trkpt lat="21.899515" lon="104.822365">
<ele>88.909241</ele>
<time>2011-04-28T09:09:24Z</time>
<desc>lat.=21.899515, lon.=104.822365, Alt.=88.909241m. Speed=0.036000m/h.</desc>
<speed>0.010000</speed>
</trkpt>
<trkpt lat="21.899515" lon="104.822365">
<ele>88.899475</ele>
<time>2011-04-28T09:09:29Z</time>
<desc>lat.=21.899515, lon.=104.822365, Alt.=88.899475m. Speed=0.036000m/h.</desc>
<speed>0.010000</speed>
</trkpt>
<trkpt lat="21.899515" lon="104.822365">
<ele>88.874084</ele>
<time>2011-04-28T09:09:34Z</time>
<desc>lat.=21.899515, lon.=104.822365, Alt.=88.874084m. Speed=0.036000m/h.</desc>
<speed>0.010000</speed>
</trkpt>
<trkpt lat="21.899515" lon="104.822365">
<ele>88.856506</ele>
<time>2011-04-28T09:09:39Z</time>
<desc>lat.=21.899515, lon.=104.822365, Alt.=88.856506m. Speed=0.000000m/h.</desc>
<speed>0.000000</speed>
</trkpt>
<trkpt lat="21.899515" lon="104.822365">
<ele>88.823303</ele>
<time>2011-04-28T09:09:44Z</time>
<desc>lat.=21.899515, lon.=104.822365, Alt.=88.823303m. Speed=0.000000m/h.</desc>
<speed>0.000000</speed>
</trkpt>
<trkpt lat="21.899515" lon="104.822365">
<ele>88.803772</ele>
<time>2011-04-28T09:09:49Z</time>
<desc>lat.=21.899515, lon.=104.822365, Alt.=88.803772m. Speed=0.000000m/h.</desc>
<speed>0.000000</speed>
</trkpt>
<trkpt lat="21.899515" lon="104.822365">
<ele>88.786194</ele>
<time>2011-04-28T09:09:54Z</time>
<desc>lat.=21.899515, lon.=104.822365, Alt.=88.786194m. Speed=0.000000m/h.</desc>
<speed>0.000000</speed>
</trkpt>
<trkpt lat="21.899513" lon="104.822365">
<ele>88.760803</ele>
<time>2011-04-28T09:09:59Z</time>
<desc>lat.=21.899513, lon.=104.822365, Alt.=88.760803m. Speed=0.036000m/h.</desc>
<speed>0.010000</speed>
</trkpt>
<trkpt lat="21.899513" lon="104.822365">
<ele>88.772522</ele>
<time>2011-04-28T09:10:04Z</time>
<desc>lat.=21.899513, lon.=104.822365, Alt.=88.772522m. Speed=0.036000m/h.</desc>
<speed>0.010000</speed>
</trkpt>
<trkpt lat="21.899513" lon="104.822365">
<ele>88.784241</ele>
<time>2011-04-28T09:10:09Z</time>
<desc>lat.=21.899513, lon.=104.822365, Alt.=88.784241m. Speed=0.036000m/h.</desc>
<speed>0.010000</speed>
</trkpt>
<trkpt lat="21.899513" lon="104.822365">
<ele>88.780334</ele>
<time>2011-04-28T09:10:14Z</time>
<desc>lat.=21.899513, lon.=104.822365, Alt.=88.780334m. Speed=0.036000m/h.</desc>
<speed>0.010000</speed>
</trkpt>
<trkpt lat="21.899513" lon="104.822365">
<ele>88.782288</ele>
<time>2011-04-28T09:10:19Z</time>
<desc>lat.=21.899513, lon.=104.822365, Alt.=88.782288m. Speed=0.000000m/h.</desc>
<speed>0.000000</speed>
</trkpt>
<trkpt lat="21.899511" lon="104.822365">
<ele>88.786194</ele>
<time>2011-04-28T09:10:24Z</time>
<desc>lat.=21.899511, lon.=104.822365, Alt.=88.786194m. Speed=0.000000m/h.</desc>
<speed>0.000000</speed>
</trkpt>
<trkpt lat="21.899511" lon="104.822365">
<ele>88.809631</ele>
<time>2011-04-28T09:10:29Z</time>
<desc>lat.=21.899511, lon.=104.822365, Alt.=88.809631m. Speed=0.000000m/h.</desc>
<speed>0.000000</speed>
</trkpt>
<trkpt lat="21.899511" lon="104.822365">
<ele>88.838928</ele>
<time>2011-04-28T09:10:34Z</time>
<desc>lat.=21.899511, lon.=104.822365, Alt.=88.838928m. Speed=0.000000m/h.</desc>
<speed>0.000000</speed>
</trkpt>
<trkpt lat="21.899511" lon="104.822365">
<ele>88.860413</ele>
<time>2011-04-28T09:10:39Z</time>
<desc>lat.=21.899511, lon.=104.822365, Alt.=88.860413m. Speed=0.000000m/h.</desc>
<speed>0.000000</speed>
</trkpt>
<trkpt lat="21.899511" lon="104.822365">
<ele>88.883850</ele>
<time>2011-04-28T09:10:44Z</time>
<desc>lat.=21.899511, lon.=104.822365, Alt.=88.883850m. Speed=0.000000m/h.</desc>
<speed>0.000000</speed>
</trkpt>
<trkpt lat="21.899511" lon="104.822365">
<ele>88.881897</ele>
<time>2011-04-28T09:10:49Z</time>
<desc>lat.=21.899511, lon.=104.822365, Alt.=88.881897m. Speed=0.000000m/h.</desc>
<speed>0.000000</speed>
</trkpt>
<trkpt lat="21.899511" lon="104.822365">
<ele>88.877991</ele>
<time>2011-04-28T09:10:54Z</time>
<desc>lat.=21.899511, lon.=104.822365, Alt.=88.877991m. Speed=0.000000m/h.</desc>
<speed>0.000000</speed>
</trkpt>
<trkpt lat="21.899511" lon="104.822365">
<ele>88.856506</ele>
<time>2011-04-28T09:10:59Z</time>
<desc>lat.=21.899511, lon.=104.822365, Alt.=88.856506m. Speed=0.036000m/h.</desc>
<speed>0.010000</speed>
</trkpt>
<trkpt lat="21.899511" lon="104.822365">
<ele>88.838928</ele>
<time>2011-04-28T09:11:04Z</time>
<desc>lat.=21.899511, lon.=104.822365, Alt.=88.838928m. Speed=0.000000m/h.</desc>
<speed>0.000000</speed>
</trkpt>
<trkpt lat="21.899511" lon="104.822365">
<ele>88.848694</ele>
<time>2011-04-28T09:11:09Z</time>
<desc>lat.=21.899511, lon.=104.822365, Alt.=88.848694m. Speed=0.036000m/h.</desc>
<speed>0.010000</speed>
</trkpt>
<trkpt lat="21.899511" lon="104.822365">
<ele>88.872131</ele>
<time>2011-04-28T09:11:14Z</time>
<desc>lat.=21.899511, lon.=104.822365, Alt.=88.872131m. Speed=0.000000m/h.</desc>
<speed>0.000000</speed>
</trkpt>
<trkpt lat="21.899511" lon="104.822365">
<ele>88.905334</ele>
<time>2011-04-28T09:11:19Z</time>
<desc>lat.=21.899511, lon.=104.822365, Alt.=88.905334m. Speed=0.000000m/h.</desc>
<speed>0.000000</speed>
</trkpt>
<trkpt lat="21.899511" lon="104.822365">
<ele>88.913147</ele>
<time>2011-04-28T09:11:24Z</time>
<desc>lat.=21.899511, lon.=104.822365, Alt.=88.913147m. Speed=0.000000m/h.</desc>
<speed>0.000000</speed>
</trkpt>
<trkpt lat="21.899511" lon="104.822365">
<ele>88.919006</ele>
<time>2011-04-28T09:11:29Z</time>
<desc>lat.=21.899511, lon.=104.822365, Alt.=88.919006m. Speed=0.000000m/h.</desc>
<speed>0.000000</speed>
</trkpt>
<trkpt lat="21.899511" lon="104.822365">
<ele>88.940491</ele>
<time>2011-04-28T09:11:34Z</time>
<desc>lat.=21.899511, lon.=104.822365, Alt.=88.940491m. Speed=0.000000m/h.</desc>
<speed>0.000000</speed>
</trkpt>
<trkpt lat="21.899511" lon="104.822365">
<ele>88.963928</ele>
<time>2011-04-28T09:11:39Z</time>
<desc>lat.=21.899511, lon.=104.822365, Alt.=88.963928m. Speed=0.036000m/h.</desc>
<speed>0.010000</speed>
</trkpt>
<trkpt lat="21.899511" lon="104.822365">
<ele>88.977600</ele>
<time>2011-04-28T09:11:44Z</time>
<desc>lat.=21.899511, lon.=104.822365, Alt.=88.977600m. Speed=0.000000m/h.</desc>
<speed>0.000000</speed>
</trkpt>
<trkpt lat="21.899511" lon="104.822365">
<ele>88.981506</ele>
<time>2011-04-28T09:11:49Z</time>
<desc>lat.=21.899511, lon.=104.822365, Alt.=88.981506m. Speed=0.000000m/h.</desc>
<speed>0.000000</speed>
</trkpt>
<trkpt lat="21.899511" lon="104.822365">
<ele>88.983459</ele>
<time>2011-04-28T09:11:54Z</time>
<desc>lat.=21.899511, lon.=104.822365, Alt.=88.983459m. Speed=0.000000m/h.</desc>
<speed>0.000000</speed>
</trkpt>
<trkpt lat="21.899511" lon="104.822365">
<ele>88.981506</ele>
<time>2011-04-28T09:11:59Z</time>
<desc>lat.=21.899511, lon.=104.822365, Alt.=88.981506m. Speed=0.000000m/h.</desc>
<speed>0.000000</speed>
</trkpt>
<trkpt lat="21.899511" lon="104.822365">
<ele>88.983459</ele>
<time>2011-04-28T09:12:04Z</time>
<desc>lat.=21.899511, lon.=104.822365, Alt.=88.983459m. Speed=0.036000m/h.</desc>
<speed>0.010000</speed>
</trkpt>
<trkpt lat="21.899513" lon="104.822365">
<ele>88.983459</ele>
<time>2011-04-28T09:12:09Z</time>
<desc>lat.=21.899513, lon.=104.822365, Alt.=88.983459m. Speed=0.108000m/h.</desc>
<speed>0.030000</speed>
</trkpt>
<trkpt lat="21.899515" lon="104.822365">
<ele>88.983459</ele>
<time>2011-04-28T09:12:14Z</time>
<desc>lat.=21.899515, lon.=104.822365, Alt.=88.983459m. Speed=0.108000m/h.</desc>
<speed>0.030000</speed>
</trkpt>
<trkpt lat="21.899515" lon="104.822365">
<ele>88.983459</ele>
<time>2011-04-28T09:12:19Z</time>
<desc>lat.=21.899515, lon.=104.822365, Alt.=88.983459m. Speed=0.072000m/h.</desc>
<speed>0.020000</speed>
</trkpt>
<trkpt lat="21.899515" lon="104.822365">
<ele>88.979553</ele>
<time>2011-04-28T09:12:24Z</time>
<desc>lat.=21.899515, lon.=104.822365, Alt.=88.979553m. Speed=0.144000m/h.</desc>
<speed>0.040000</speed>
</trkpt>
<trkpt lat="21.899517" lon="104.822365">
<ele>88.975647</ele>
<time>2011-04-28T09:12:29Z</time>
<desc>lat.=21.899517, lon.=104.822365, Alt.=88.975647m. Speed=0.000000m/h.</desc>
<speed>0.000000</speed>
</trkpt>
<trkpt lat="21.899515" lon="104.822365">
<ele>88.971741</ele>
<time>2011-04-28T09:12:34Z</time>
<desc>lat.=21.899515, lon.=104.822365, Alt.=88.971741m. Speed=0.000000m/h.</desc>
<speed>0.000000</speed>
</trkpt>
<trkpt lat="21.899515" lon="104.822365">
<ele>88.969788</ele>
<time>2011-04-28T09:12:39Z</time>
<desc>lat.=21.899515, lon.=104.822365, Alt.=88.969788m. Speed=0.036000m/h.</desc>
<speed>0.010000</speed>
</trkpt>
<trkpt lat="21.899515" lon="104.822365">
<ele>88.967834</ele>
<time>2011-04-28T09:12:44Z</time>
<desc>lat.=21.899515, lon.=104.822365, Alt.=88.967834m. Speed=0.144000m/h.</desc>
<speed>0.040000</speed>
</trkpt>
<trkpt lat="21.899517" lon="104.822357">
<ele>88.967834</ele>
<time>2011-04-28T09:12:49Z</time>
<desc>lat.=21.899517, lon.=104.822357, Alt.=88.967834m. Speed=0.504000m/h.</desc>
<speed>0.140000</speed>
</trkpt>
<trkpt lat="21.899521" lon="104.822350">
<ele>88.969788</ele>
<time>2011-04-28T09:12:54Z</time>
<desc>lat.=21.899521, lon.=104.822350, Alt.=88.969788m. Speed=0.684000m/h.</desc>
<speed>0.190000</speed>
</trkpt>
<trkpt lat="21.899525" lon="104.822342">
<ele>88.973694</ele>
<time>2011-04-28T09:12:59Z</time>
<desc>lat.=21.899525, lon.=104.822342, Alt.=88.973694m. Speed=0.720000m/h.</desc>
<speed>0.200000</speed>
</trkpt>
<trkpt lat="21.899529" lon="104.822334">
<ele>88.973694</ele>
<time>2011-04-28T09:13:04Z</time>
<desc>lat.=21.899529, lon.=104.822334, Alt.=88.973694m. Speed=0.828000m/h.</desc>
<speed>0.230000</speed>
</trkpt>
<trkpt lat="21.899532" lon="104.822319">
<ele>88.965881</ele>
<time>2011-04-28T09:13:09Z</time>
<desc>lat.=21.899532, lon.=104.822319, Alt.=88.965881m. Speed=0.756000m/h.</desc>
<speed>0.210000</speed>
</trkpt>
<trkpt lat="21.899536" lon="104.822311">
<ele>88.954163</ele>
<time>2011-04-28T09:13:14Z</time>
<desc>lat.=21.899536, lon.=104.822311, Alt.=88.954163m. Speed=0.540000m/h.</desc>
<speed>0.150000</speed>
</trkpt>
<trkpt lat="21.899540" lon="104.822304">
<ele>88.936584</ele>
<time>2011-04-28T09:13:19Z</time>
<desc>lat.=21.899540, lon.=104.822304, Alt.=88.936584m. Speed=0.504000m/h.</desc>
<speed>0.140000</speed>
</trkpt>
<trkpt lat="21.899540" lon="104.822304">
<ele>88.911194</ele>
<time>2011-04-28T09:13:24Z</time>
<desc>lat.=21.899540, lon.=104.822304, Alt.=88.911194m. Speed=0.216000m/h.</desc>
<speed>0.060000</speed>
</trkpt>
<trkpt lat="21.899536" lon="104.822296">
<ele>88.874084</ele>
<time>2011-04-28T09:13:29Z</time>
<desc>lat.=21.899536, lon.=104.822296, Alt.=88.874084m. Speed=0.684000m/h.</desc>
<speed>0.190000</speed>
</trkpt>
<trkpt lat="21.899529" lon="104.822289">
<ele>88.803772</ele>
<time>2011-04-28T09:13:34Z</time>
<desc>lat.=21.899529, lon.=104.822289, Alt.=88.803772m. Speed=1.008000m/h.</desc>
<speed>0.280000</speed>
</trkpt>
<trkpt lat="21.899517" lon="104.822281">
<ele>88.653381</ele>
<time>2011-04-28T09:13:39Z</time>
<desc>lat.=21.899517, lon.=104.822281, Alt.=88.653381m. Speed=0.828000m/h.</desc>
<speed>0.230000</speed>
</trkpt>
<trkpt lat="21.899509" lon="104.822273">
<ele>88.475647</ele>
<time>2011-04-28T09:13:44Z</time>
<desc>lat.=21.899509, lon.=104.822273, Alt.=88.475647m. Speed=0.684000m/h.</desc>
<speed>0.190000</speed>
</trkpt>
<trkpt lat="21.899502" lon="104.822273">
<ele>88.264709</ele>
<time>2011-04-28T09:13:49Z</time>
<desc>lat.=21.899502, lon.=104.822273, Alt.=88.264709m. Speed=0.396000m/h.</desc>
<speed>0.110000</speed>
</trkpt>
<trkpt lat="21.899498" lon="104.822273">
<ele>87.981506</ele>
<time>2011-04-28T09:13:54Z</time>
<desc>lat.=21.899498, lon.=104.822273, Alt.=87.981506m. Speed=1.188000m/h.</desc>
<speed>0.330000</speed>
</trkpt>
<trkpt lat="21.899485" lon="104.822304">
<ele>87.208069</ele>
<time>2011-04-28T09:13:59Z</time>
<desc>lat.=21.899485, lon.=104.822304, Alt.=87.208069m. Speed=0.432000m/h.</desc>
<speed>0.120000</speed>
</trkpt>
<trkpt lat="21.899485" lon="104.822311">
<ele>87.184631</ele>
<time>2011-04-28T09:14:04Z</time>
<desc>lat.=21.899485, lon.=104.822311, Alt.=87.184631m. Speed=0.036000m/h.</desc>
<speed>0.010000</speed>
</trkpt>
<trkpt lat="21.899485" lon="104.822311">
<ele>87.208069</ele>
<time>2011-04-28T09:14:09Z</time>
<desc>lat.=21.899485, lon.=104.822311, Alt.=87.208069m. Speed=0.000000m/h.</desc>
<speed>0.000000</speed>
</trkpt>
<trkpt lat="21.899485" lon="104.822311">
<ele>87.286194</ele>
<time>2011-04-28T09:14:14Z</time>
<desc>lat.=21.899485, lon.=104.822311, Alt.=87.286194m. Speed=0.180000m/h.</desc>
<speed>0.050000</speed>
</trkpt>
<trkpt lat="21.899485" lon="104.822311">
<ele>87.292053</ele>
<time>2011-04-28T09:14:19Z</time>
<desc>lat.=21.899485, lon.=104.822311, Alt.=87.292053m. Speed=0.072000m/h.</desc>
<speed>0.020000</speed>
</trkpt>
<trkpt lat="21.899485" lon="104.822319">
<ele>87.333069</ele>
<time>2011-04-28T09:14:24Z</time>
<desc>lat.=21.899485, lon.=104.822319, Alt.=87.333069m. Speed=1.764000m/h.</desc>
<speed>0.490000</speed>
</trkpt>
<trkpt lat="21.899433" lon="104.822403">
<ele>87.061584</ele>
<time>2011-04-28T09:14:29Z</time>
<desc>lat.=21.899433, lon.=104.822403, Alt.=87.061584m. Speed=8.208000m/h.</desc>
<speed>2.280000</speed>
</trkpt>
<trkpt lat="21.899288" lon="104.822556">
<ele>86.282288</ele>
<time>2011-04-28T09:14:34Z</time>
<desc>lat.=21.899288, lon.=104.822556, Alt.=86.282288m. Speed=10.332000m/h.</desc>
<speed>2.870000</speed>
</trkpt>
<trkpt lat="21.899200" lon="104.822723">
<ele>84.776428</ele>
<time>2011-04-28T09:14:39Z</time>
<desc>lat.=21.899200, lon.=104.822723, Alt.=84.776428m. Speed=15.408000m/h.</desc>
<speed>4.280000</speed>
</trkpt>
<trkpt lat="21.899054" lon="104.822922">
<ele>83.399475</ele>
<time>2011-04-28T09:14:44Z</time>
<desc>lat.=21.899054, lon.=104.822922, Alt.=83.399475m. Speed=16.704000m/h.</desc>
<speed>4.640000</speed>
</trkpt>
<trkpt lat="21.898901" lon="104.823097">
<ele>82.405334</ele>
<time>2011-04-28T09:14:49Z</time>
<desc>lat.=21.898901, lon.=104.823097, Alt.=82.405334m. Speed=17.172001m/h.</desc>
<speed>4.770000</speed>
</trkpt>
<trkpt lat="21.898745" lon="104.823303">
<ele>83.532288</ele>
<time>2011-04-28T09:14:54Z</time>
<desc>lat.=21.898745, lon.=104.823303, Alt.=83.532288m. Speed=18.936001m/h.</desc>
<speed>5.260000</speed>
</trkpt>
<trkpt lat="21.898581" lon="104.823517">
<ele>80.495178</ele>
<time>2011-04-28T09:14:59Z</time>
<desc>lat.=21.898581, lon.=104.823517, Alt.=80.495178m. Speed=20.232000m/h.</desc>
<speed>5.620000</speed>
</trkpt>
<trkpt lat="21.898384" lon="104.823730">
<ele>82.715881</ele>
<time>2011-04-28T09:15:04Z</time>
<desc>lat.=21.898384, lon.=104.823730, Alt.=82.715881m. Speed=23.256001m/h.</desc>
<speed>6.460000</speed>
</trkpt>
<trkpt lat="21.898205" lon="104.824013">
<ele>82.024475</ele>
<time>2011-04-28T09:15:09Z</time>
<desc>lat.=21.898205, lon.=104.824013, Alt.=82.024475m. Speed=26.639999m/h.</desc>
<speed>7.400000</speed>
</trkpt>
<trkpt lat="21.897995" lon="104.824310">
<ele>80.981506</ele>
<time>2011-04-28T09:15:14Z</time>
<desc>lat.=21.897995, lon.=104.824310, Alt.=80.981506m. Speed=28.260000m/h.</desc>
<speed>7.850000</speed>
</trkpt>
<trkpt lat="21.897779" lon="104.824608">
<ele>78.606506</ele>
<time>2011-04-28T09:15:19Z</time>
<desc>lat.=21.897779, lon.=104.824608, Alt.=78.606506m. Speed=25.992001m/h.</desc>
<speed>7.220000</speed>
</trkpt>
<trkpt lat="21.897554" lon="104.824829">
<ele>77.583069</ele>
<time>2011-04-28T09:15:24Z</time>
<desc>lat.=21.897554, lon.=104.824829, Alt.=77.583069m. Speed=23.436001m/h.</desc>
<speed>6.510000</speed>
</trkpt>
<trkpt lat="21.897284" lon="104.824913">
<ele>78.493225</ele>
<time>2011-04-28T09:15:29Z</time>
<desc>lat.=21.897284, lon.=104.824913, Alt.=78.493225m. Speed=21.384001m/h.</desc>
<speed>5.940000</speed>
</trkpt>
<trkpt lat="21.897013" lon="104.824936">
<ele>78.139709</ele>
<time>2011-04-28T09:15:34Z</time>
<desc>lat.=21.897013, lon.=104.824936, Alt.=78.139709m. Speed=21.275999m/h.</desc>
<speed>5.910000</speed>
</trkpt>
<trkpt lat="21.896727" lon="104.824966">
<ele>79.217834</ele>
<time>2011-04-28T09:15:39Z</time>
<desc>lat.=21.896727, lon.=104.824966, Alt.=79.217834m. Speed=23.544001m/h.</desc>
<speed>6.540000</speed>
</trkpt>
<trkpt lat="21.896494" lon="104.825104">
<ele>81.016663</ele>
<time>2011-04-28T09:15:44Z</time>
<desc>lat.=21.896494, lon.=104.825104, Alt.=81.016663m. Speed=20.016001m/h.</desc>
<speed>5.560000</speed>
</trkpt>
<trkpt lat="21.896326" lon="104.825310">
<ele>81.377991</ele>
<time>2011-04-28T09:15:49Z</time>
<desc>lat.=21.896326, lon.=104.825310, Alt.=81.377991m. Speed=20.412001m/h.</desc>
<speed>5.670000</speed>
</trkpt>
<trkpt lat="21.896156" lon="104.825569">
<ele>80.803772</ele>
<time>2011-04-28T09:15:54Z</time>
<desc>lat.=21.896156, lon.=104.825569, Alt.=80.803772m. Speed=21.851999m/h.</desc>
<speed>6.070000</speed>
</trkpt>
<trkpt lat="21.896040" lon="104.825821">
<ele>78.399475</ele>
<time>2011-04-28T09:15:59Z</time>
<desc>lat.=21.896040, lon.=104.825821, Alt.=78.399475m. Speed=19.691999m/h.</desc>
<speed>5.470000</speed>
</trkpt>
<trkpt lat="21.895914" lon="104.826118">
<ele>77.751038</ele>
<time>2011-04-28T09:16:04Z</time>
<desc>lat.=21.895914, lon.=104.826118, Alt.=77.751038m. Speed=25.271999m/h.</desc>
<speed>7.020000</speed>
</trkpt>
<trkpt lat="21.895761" lon="104.826431">
<ele>77.581116</ele>
<time>2011-04-28T09:16:09Z</time>
<desc>lat.=21.895761, lon.=104.826431, Alt.=77.581116m. Speed=21.420000m/h.</desc>
<speed>5.950000</speed>
</trkpt>
<trkpt lat="21.895678" lon="104.826714">
<ele>75.684631</ele>
<time>2011-04-28T09:16:14Z</time>
<desc>lat.=21.895678, lon.=104.826714, Alt.=75.684631m. Speed=20.771999m/h.</desc>
<speed>5.770000</speed>
</trkpt>
<trkpt lat="21.895575" lon="104.827003">
<ele>74.479553</ele>
<time>2011-04-28T09:16:19Z</time>
<desc>lat.=21.895575, lon.=104.827003, Alt.=74.479553m. Speed=23.040001m/h.</desc>
<speed>6.400000</speed>
</trkpt>
<trkpt lat="21.895391" lon="104.827286">
<ele>72.208069</ele>
<time>2011-04-28T09:16:24Z</time>
<desc>lat.=21.895391, lon.=104.827286, Alt.=72.208069m. Speed=23.184000m/h.</desc>
<speed>6.440000</speed>
</trkpt>
<trkpt lat="21.895170" lon="104.827515">
<ele>71.333069</ele>
<time>2011-04-28T09:16:29Z</time>
<desc>lat.=21.895170, lon.=104.827515, Alt.=71.333069m. Speed=24.552000m/h.</desc>
<speed>6.820000</speed>
</trkpt>
<trkpt lat="21.894943" lon="104.827744">
<ele>69.778381</ele>
<time>2011-04-28T09:16:34Z</time>
<desc>lat.=21.894943, lon.=104.827744, Alt.=69.778381m. Speed=23.112000m/h.</desc>
<speed>6.420000</speed>
</trkpt>
<trkpt lat="21.894756" lon="104.827965">
<ele>68.274475</ele>
<time>2011-04-28T09:16:39Z</time>
<desc>lat.=21.894756, lon.=104.827965, Alt.=68.274475m. Speed=20.736000m/h.</desc>
<speed>5.760000</speed>
</trkpt>
<trkpt lat="21.894571" lon="104.828178">
<ele>66.526428</ele>
<time>2011-04-28T09:16:44Z</time>
<desc>lat.=21.894571, lon.=104.828178, Alt.=66.526428m. Speed=22.320000m/h.</desc>
<speed>6.200000</speed>
</trkpt>
<trkpt lat="21.894348" lon="104.828369">
<ele>69.868225</ele>
<time>2011-04-28T09:16:49Z</time>
<desc>lat.=21.894348, lon.=104.828369, Alt.=69.868225m. Speed=22.284000m/h.</desc>
<speed>6.190000</speed>
</trkpt>
<trkpt lat="21.894114" lon="104.828506">
<ele>72.065491</ele>
<time>2011-04-28T09:16:54Z</time>
<desc>lat.=21.894114, lon.=104.828506, Alt.=72.065491m. Speed=20.160000m/h.</desc>
<speed>5.600000</speed>
</trkpt>
<trkpt lat="21.893932" lon="104.828667">
<ele>75.196350</ele>
<time>2011-04-28T09:16:59Z</time>
<desc>lat.=21.893932, lon.=104.828667, Alt.=75.196350m. Speed=18.719999m/h.</desc>
<speed>5.200000</speed>
</trkpt>
<trkpt lat="21.893772" lon="104.828880">
<ele>77.598694</ele>
<time>2011-04-28T09:17:04Z</time>
<desc>lat.=21.893772, lon.=104.828880, Alt.=77.598694m. Speed=21.059999m/h.</desc>
<speed>5.850000</speed>
</trkpt>
<trkpt lat="21.893568" lon="104.829102">
<ele>79.278381</ele>
<time>2011-04-28T09:17:09Z</time>
<desc>lat.=21.893568, lon.=104.829102, Alt.=79.278381m. Speed=23.796000m/h.</desc>
<speed>6.610000</speed>
</trkpt>
<trkpt lat="21.893318" lon="104.829300">
<ele>80.321350</ele>
<time>2011-04-28T09:17:14Z</time>
<desc>lat.=21.893318, lon.=104.829300, Alt.=80.321350m. Speed=23.976000m/h.</desc>
<speed>6.660000</speed>
</trkpt>
<trkpt lat="21.893057" lon="104.829407">
<ele>79.973694</ele>
<time>2011-04-28T09:17:19Z</time>
<desc>lat.=21.893057, lon.=104.829407, Alt.=79.973694m. Speed=22.427999m/h.</desc>
<speed>6.230000</speed>
</trkpt>
<trkpt lat="21.892782" lon="104.829468">
<ele>79.442444</ele>
<time>2011-04-28T09:17:24Z</time>
<desc>lat.=21.892782, lon.=104.829468, Alt.=79.442444m. Speed=19.764000m/h.</desc>
<speed>5.490000</speed>
</trkpt>
<trkpt lat="21.892534" lon="104.829460">
<ele>80.104553</ele>
<time>2011-04-28T09:17:29Z</time>
<desc>lat.=21.892534, lon.=104.829460, Alt.=80.104553m. Speed=20.268000m/h.</desc>
<speed>5.630000</speed>
</trkpt>
<trkpt lat="21.892309" lon="104.829445">
<ele>80.954163</ele>
<time>2011-04-28T09:17:34Z</time>
<desc>lat.=21.892309, lon.=104.829445, Alt.=80.954163m. Speed=18.000000m/h.</desc>
<speed>5.000000</speed>
</trkpt>
<trkpt lat="21.892050" lon="104.829453">
<ele>82.850647</ele>
<time>2011-04-28T09:17:39Z</time>
<desc>lat.=21.892050, lon.=104.829453, Alt.=82.850647m. Speed=21.563999m/h.</desc>
<speed>5.990000</speed>
</trkpt>
<trkpt lat="21.891775" lon="104.829536">
<ele>82.090881</ele>
<time>2011-04-28T09:17:44Z</time>
<desc>lat.=21.891775, lon.=104.829536, Alt.=82.090881m. Speed=22.608000m/h.</desc>
<speed>6.280000</speed>
</trkpt>
<trkpt lat="21.891497" lon="104.829689">
<ele>81.471741</ele>
<time>2011-04-28T09:17:49Z</time>
<desc>lat.=21.891497, lon.=104.829689, Alt.=81.471741m. Speed=23.976000m/h.</desc>
<speed>6.660000</speed>
</trkpt>
<trkpt lat="21.891232" lon="104.829849">
<ele>80.768616</ele>
<time>2011-04-28T09:17:54Z</time>
<desc>lat.=21.891232, lon.=104.829849, Alt.=80.768616m. Speed=24.516001m/h.</desc>
<speed>6.810000</speed>
</trkpt>
<trkpt lat="21.890982" lon="104.830017">
<ele>80.985413</ele>
<time>2011-04-28T09:17:59Z</time>
<desc>lat.=21.890982, lon.=104.830017, Alt.=80.985413m. Speed=22.860001m/h.</desc>
<speed>6.350000</speed>
</trkpt>
<trkpt lat="21.890728" lon="104.830177">
<ele>80.051819</ele>
<time>2011-04-28T09:18:04Z</time>
<desc>lat.=21.890728, lon.=104.830177, Alt.=80.051819m. Speed=22.139999m/h.</desc>
<speed>6.150000</speed>
</trkpt>
<trkpt lat="21.890495" lon="104.830330">
<ele>79.706116</ele>
<time>2011-04-28T09:18:09Z</time>
<desc>lat.=21.890495, lon.=104.830330, Alt.=79.706116m. Speed=20.520000m/h.</desc>
<speed>5.700000</speed>
</trkpt>
<trkpt lat="21.890291" lon="104.830460">
<ele>78.696350</ele>
<time>2011-04-28T09:18:14Z</time>
<desc>lat.=21.890291, lon.=104.830460, Alt.=78.696350m. Speed=18.756001m/h.</desc>
<speed>5.210000</speed>
</trkpt>
<trkpt lat="21.890106" lon="104.830574">
<ele>78.725647</ele>
<time>2011-04-28T09:18:19Z</time>
<desc>lat.=21.890106, lon.=104.830574, Alt.=78.725647m. Speed=15.660000m/h.</desc>
<speed>4.350000</speed>
</trkpt>
<trkpt lat="21.889948" lon="104.830673">
<ele>78.891663</ele>
<time>2011-04-28T09:18:24Z</time>
<desc>lat.=21.889948, lon.=104.830673, Alt.=78.891663m. Speed=14.400000m/h.</desc>
<speed>4.000000</speed>
</trkpt>
<trkpt lat="21.889799" lon="104.830780">
<ele>79.344788</ele>
<time>2011-04-28T09:18:29Z</time>
<desc>lat.=21.889799, lon.=104.830780, Alt.=79.344788m. Speed=11.880000m/h.</desc>
<speed>3.300000</speed>
</trkpt>
<trkpt lat="21.889688" lon="104.830948">
<ele>80.198303</ele>
<time>2011-04-28T09:18:34Z</time>
<desc>lat.=21.889688, lon.=104.830948, Alt.=80.198303m. Speed=18.288000m/h.</desc>
<speed>5.080000</speed>
</trkpt>
<trkpt lat="21.889532" lon="104.831154">
<ele>80.819397</ele>
<time>2011-04-28T09:18:39Z</time>
<desc>lat.=21.889532, lon.=104.831154, Alt.=80.819397m. Speed=19.368000m/h.</desc>
<speed>5.380000</speed>
</trkpt>
<trkpt lat="21.889328" lon="104.831345">
<ele>82.008850</ele>
<time>2011-04-28T09:18:44Z</time>
<desc>lat.=21.889328, lon.=104.831345, Alt.=82.008850m. Speed=22.752001m/h.</desc>
<speed>6.320000</speed>
</trkpt>
<trkpt lat="21.889042" lon="104.831398">
<ele>83.711975</ele>
<time>2011-04-28T09:18:49Z</time>
<desc>lat.=21.889042, lon.=104.831398, Alt.=83.711975m. Speed=22.176001m/h.</desc>
<speed>6.160000</speed>
</trkpt>
<trkpt lat="21.888796" lon="104.831360">
<ele>84.139709</ele>
<time>2011-04-28T09:18:54Z</time>
<desc>lat.=21.888796, lon.=104.831360, Alt.=84.139709m. Speed=19.296000m/h.</desc>
<speed>5.360000</speed>
</trkpt>
<trkpt lat="21.888548" lon="104.831337">
<ele>84.958069</ele>
<time>2011-04-28T09:18:59Z</time>
<desc>lat.=21.888548, lon.=104.831337, Alt.=84.958069m. Speed=22.608000m/h.</desc>
<speed>6.280000</speed>
</trkpt>
<trkpt lat="21.888245" lon="104.831551">
<ele>81.415100</ele>
<time>2011-04-28T09:19:04Z</time>
<desc>lat.=21.888245, lon.=104.831551, Alt.=81.415100m. Speed=31.608000m/h.</desc>
<speed>8.780000</speed>
</trkpt>
<trkpt lat="21.887991" lon="104.831963">
<ele>76.008850</ele>
<time>2011-04-28T09:19:09Z</time>
<desc>lat.=21.887991, lon.=104.831963, Alt.=76.008850m. Speed=37.439999m/h.</desc>
<speed>10.400000</speed>
</trkpt>
<trkpt lat="21.887665" lon="104.832291">
<ele>76.526428</ele>
<time>2011-04-28T09:19:14Z</time>
<desc>lat.=21.887665, lon.=104.832291, Alt.=76.526428m. Speed=33.624001m/h.</desc>
<speed>9.340000</speed>
</trkpt>
<trkpt lat="21.887398" lon="104.832565">
<ele>77.174866</ele>
<time>2011-04-28T09:19:19Z</time>
<desc>lat.=21.887398, lon.=104.832565, Alt.=77.174866m. Speed=26.747999m/h.</desc>
<speed>7.430000</speed>
</trkpt>
<trkpt lat="21.887188" lon="104.832787">
<ele>75.254944</ele>
<time>2011-04-28T09:19:24Z</time>
<desc>lat.=21.887188, lon.=104.832787, Alt.=75.254944m. Speed=21.348000m/h.</desc>
<speed>5.930000</speed>
</trkpt>
<trkpt lat="21.886976" lon="104.833008">
<ele>73.430725</ele>
<time>2011-04-28T09:19:29Z</time>
<desc>lat.=21.886976, lon.=104.833008, Alt.=73.430725m. Speed=24.084000m/h.</desc>
<speed>6.690000</speed>
</trkpt>
<trkpt lat="21.886745" lon="104.833260">
<ele>73.586975</ele>
<time>2011-04-28T09:19:34Z</time>
<desc>lat.=21.886745, lon.=104.833260, Alt.=73.586975m. Speed=25.740000m/h.</desc>
<speed>7.150000</speed>
</trkpt>
<trkpt lat="21.886572" lon="104.833588">
<ele>73.555725</ele>
<time>2011-04-28T09:19:39Z</time>
<desc>lat.=21.886572, lon.=104.833588, Alt.=73.555725m. Speed=28.260000m/h.</desc>
<speed>7.850000</speed>
</trkpt>
<trkpt lat="21.886509" lon="104.833954">
<ele>73.577209</ele>
<time>2011-04-28T09:19:44Z</time>
<desc>lat.=21.886509, lon.=104.833954, Alt.=73.577209m. Speed=29.232000m/h.</desc>
<speed>8.120000</speed>
</trkpt>
<trkpt lat="21.886480" lon="104.834343">
<ele>73.170959</ele>
<time>2011-04-28T09:19:49Z</time>
<desc>lat.=21.886480, lon.=104.834343, Alt.=73.170959m. Speed=28.511999m/h.</desc>
<speed>7.920000</speed>
</trkpt>
<trkpt lat="21.886471" lon="104.834740">
<ele>72.303772</ele>
<time>2011-04-28T09:19:54Z</time>
<desc>lat.=21.886471, lon.=104.834740, Alt.=72.303772m. Speed=30.024000m/h.</desc>
<speed>8.340000</speed>
</trkpt>
<trkpt lat="21.886440" lon="104.835144">
<ele>71.233459</ele>
<time>2011-04-28T09:19:59Z</time>
<desc>lat.=21.886440, lon.=104.835144, Alt.=71.233459m. Speed=32.292000m/h.</desc>
<speed>8.970000</speed>
</trkpt>
<trkpt lat="21.886301" lon="104.835571">
<ele>70.762756</ele>
<time>2011-04-28T09:20:04Z</time>
<desc>lat.=21.886301, lon.=104.835571, Alt.=70.762756m. Speed=29.844000m/h.</desc>
<speed>8.290000</speed>
</trkpt>
<trkpt lat="21.886072" lon="104.835892">
<ele>71.420959</ele>
<time>2011-04-28T09:20:09Z</time>
<desc>lat.=21.886072, lon.=104.835892, Alt.=71.420959m. Speed=28.368000m/h.</desc>
<speed>7.880000</speed>
</trkpt>
<trkpt lat="21.885880" lon="104.836220">
<ele>73.088928</ele>
<time>2011-04-28T09:20:14Z</time>
<desc>lat.=21.885880, lon.=104.836220, Alt.=73.088928m. Speed=28.476000m/h.</desc>
<speed>7.910000</speed>
</trkpt>
<trkpt lat="21.885706" lon="104.836548">
<ele>74.299866</ele>
<time>2011-04-28T09:20:19Z</time>
<desc>lat.=21.885706, lon.=104.836548, Alt.=74.299866m. Speed=26.712000m/h.</desc>
<speed>7.420000</speed>
</trkpt>
<trkpt lat="21.885551" lon="104.836845">
<ele>75.661194</ele>
<time>2011-04-28T09:20:24Z</time>
<desc>lat.=21.885551, lon.=104.836845, Alt.=75.661194m. Speed=22.392000m/h.</desc>
<speed>6.220000</speed>
</trkpt>
<trkpt lat="21.885403" lon="104.837105">
<ele>76.811584</ele>
<time>2011-04-28T09:20:29Z</time>
<desc>lat.=21.885403, lon.=104.837105, Alt.=76.811584m. Speed=22.500000m/h.</desc>
<speed>6.250000</speed>
</trkpt>
<trkpt lat="21.885286" lon="104.837349">
<ele>77.305725</ele>
<time>2011-04-28T09:20:34Z</time>
<desc>lat.=21.885286, lon.=104.837349, Alt.=77.305725m. Speed=18.540001m/h.</desc>
<speed>5.150000</speed>
</trkpt>
<trkpt lat="21.885153" lon="104.837585">
<ele>77.372131</ele>
<time>2011-04-28T09:20:39Z</time>
<desc>lat.=21.885153, lon.=104.837585, Alt.=77.372131m. Speed=21.851999m/h.</desc>
<speed>6.070000</speed>
</trkpt>
<trkpt lat="21.884985" lon="104.837868">
<ele>77.557678</ele>
<time>2011-04-28T09:20:44Z</time>
<desc>lat.=21.884985, lon.=104.837868, Alt.=77.557678m. Speed=27.468000m/h.</desc>
<speed>7.630000</speed>
</trkpt>
<trkpt lat="21.884840" lon="104.838219">
<ele>77.024475</ele>
<time>2011-04-28T09:20:49Z</time>
<desc>lat.=21.884840, lon.=104.838219, Alt.=77.024475m. Speed=28.440001m/h.</desc>
<speed>7.900000</speed>
</trkpt>
<trkpt lat="21.884605" lon="104.838501">
<ele>76.315491</ele>
<time>2011-04-28T09:20:54Z</time>
<desc>lat.=21.884605, lon.=104.838501, Alt.=76.315491m. Speed=29.808001m/h.</desc>
<speed>8.280000</speed>
</trkpt>
<trkpt lat="21.884331" lon="104.838753">
<ele>75.747131</ele>
<time>2011-04-28T09:20:59Z</time>
<desc>lat.=21.884331, lon.=104.838753, Alt.=75.747131m. Speed=27.431999m/h.</desc>
<speed>7.620000</speed>
</trkpt>
<trkpt lat="21.884048" lon="104.838913">
<ele>75.954163</ele>
<time>2011-04-28T09:21:04Z</time>
<desc>lat.=21.884048, lon.=104.838913, Alt.=75.954163m. Speed=22.284000m/h.</desc>
<speed>6.190000</speed>
</trkpt>
<trkpt lat="21.883814" lon="104.838936">
<ele>76.157288</ele>
<time>2011-04-28T09:21:09Z</time>
<desc>lat.=21.883814, lon.=104.838936, Alt.=76.157288m. Speed=15.768000m/h.</desc>
<speed>4.380000</speed>
</trkpt>
<trkpt lat="21.883606" lon="104.838898">
<ele>76.694397</ele>
<time>2011-04-28T09:21:14Z</time>
<desc>lat.=21.883606, lon.=104.838898, Alt.=76.694397m. Speed=15.048000m/h.</desc>
<speed>4.180000</speed>
</trkpt>
<trkpt lat="21.883389" lon="104.838837">
<ele>77.096741</ele>
<time>2011-04-28T09:21:19Z</time>
<desc>lat.=21.883389, lon.=104.838837, Alt.=77.096741m. Speed=15.732000m/h.</desc>
<speed>4.370000</speed>
</trkpt>
<trkpt lat="21.883165" lon="104.838844">
<ele>79.551819</ele>
<time>2011-04-28T09:21:24Z</time>
<desc>lat.=21.883165, lon.=104.838844, Alt.=79.551819m. Speed=17.136000m/h.</desc>
<speed>4.760000</speed>
</trkpt>
<trkpt lat="21.882929" lon="104.838936">
<ele>80.100647</ele>
<time>2011-04-28T09:21:29Z</time>
<desc>lat.=21.882929, lon.=104.838936, Alt.=80.100647m. Speed=19.799999m/h.</desc>
<speed>5.500000</speed>
</trkpt>
<trkpt lat="21.882677" lon="104.839043">
<ele>82.108459</ele>
<time>2011-04-28T09:21:34Z</time>
<desc>lat.=21.882677, lon.=104.839043, Alt.=82.108459m. Speed=20.087999m/h.</desc>
<speed>5.580000</speed>
</trkpt>
<trkpt lat="21.882425" lon="104.839172">
<ele>82.024475</ele>
<time>2011-04-28T09:21:39Z</time>
<desc>lat.=21.882425, lon.=104.839172, Alt.=82.024475m. Speed=20.879999m/h.</desc>
<speed>5.800000</speed>
</trkpt>
<trkpt lat="21.882198" lon="104.839363">
<ele>82.040100</ele>
<time>2011-04-28T09:21:44Z</time>
<desc>lat.=21.882198, lon.=104.839363, Alt.=82.040100m. Speed=22.356001m/h.</desc>
<speed>6.210000</speed>
</trkpt>
<trkpt lat="21.882004" lon="104.839600">
<ele>81.999084</ele>
<time>2011-04-28T09:21:49Z</time>
<desc>lat.=21.882004, lon.=104.839600, Alt.=81.999084m. Speed=23.472000m/h.</desc>
<speed>6.520000</speed>
</trkpt>
<trkpt lat="21.881809" lon="104.839844">
<ele>81.600647</ele>
<time>2011-04-28T09:21:54Z</time>
<desc>lat.=21.881809, lon.=104.839844, Alt.=81.600647m. Speed=23.219999m/h.</desc>
<speed>6.450000</speed>
</trkpt>
<trkpt lat="21.881609" lon="104.840096">
<ele>81.743225</ele>
<time>2011-04-28T09:21:59Z</time>
<desc>lat.=21.881609, lon.=104.840096, Alt.=81.743225m. Speed=23.436001m/h.</desc>
<speed>6.510000</speed>
</trkpt>
<trkpt lat="21.881435" lon="104.840355">
<ele>80.530334</ele>
<time>2011-04-28T09:22:04Z</time>
<desc>lat.=21.881435, lon.=104.840355, Alt.=80.530334m. Speed=23.688000m/h.</desc>
<speed>6.580000</speed>
</trkpt>
<trkpt lat="21.881290" lon="104.840637">
<ele>81.592834</ele>
<time>2011-04-28T09:22:09Z</time>
<desc>lat.=21.881290, lon.=104.840637, Alt.=81.592834m. Speed=24.804001m/h.</desc>
<speed>6.890000</speed>
</trkpt>
<trkpt lat="21.881187" lon="104.840935">
<ele>80.733459</ele>
<time>2011-04-28T09:22:14Z</time>
<desc>lat.=21.881187, lon.=104.840935, Alt.=80.733459m. Speed=21.636000m/h.</desc>
<speed>6.010000</speed>
</trkpt>
<trkpt lat="21.881077" lon="104.841263">
<ele>79.442444</ele>
<time>2011-04-28T09:22:19Z</time>
<desc>lat.=21.881077, lon.=104.841263, Alt.=79.442444m. Speed=23.868000m/h.</desc>
<speed>6.630000</speed>
</trkpt>
<trkpt lat="21.880907" lon="104.841530">
<ele>77.657288</ele>
<time>2011-04-28T09:22:24Z</time>
<desc>lat.=21.880907, lon.=104.841530, Alt.=77.657288m. Speed=21.851999m/h.</desc>
<speed>6.070000</speed>
</trkpt>
<trkpt lat="21.880703" lon="104.841682">
<ele>77.067444</ele>
<time>2011-04-28T09:22:29Z</time>
<desc>lat.=21.880703, lon.=104.841682, Alt.=77.067444m. Speed=20.052000m/h.</desc>
<speed>5.570000</speed>
</trkpt>
<trkpt lat="21.880527" lon="104.841743">
<ele>77.913147</ele>
<time>2011-04-28T09:22:34Z</time>
<desc>lat.=21.880527, lon.=104.841743, Alt.=77.913147m. Speed=7.632000m/h.</desc>
<speed>2.120000</speed>
</trkpt>
<trkpt lat="21.880478" lon="104.841743">
<ele>75.877991</ele>
<time>2011-04-28T09:22:39Z</time>
<desc>lat.=21.880478, lon.=104.841743, Alt.=75.877991m. Speed=0.648000m/h.</desc>
<speed>0.180000</speed>
</trkpt>
<trkpt lat="21.880476" lon="104.841743">
<ele>76.141663</ele>
<time>2011-04-28T09:22:44Z</time>
<desc>lat.=21.880476, lon.=104.841743, Alt.=76.141663m. Speed=0.216000m/h.</desc>
<speed>0.060000</speed>
</trkpt>
<trkpt lat="21.880438" lon="104.841766">
<ele>74.944397</ele>
<time>2011-04-28T09:22:49Z</time>
<desc>lat.=21.880438, lon.=104.841766, Alt.=74.944397m. Speed=6.984000m/h.</desc>
<speed>1.940000</speed>
</trkpt>
<trkpt lat="21.880375" lon="104.841797">
<ele>75.122131</ele>
<time>2011-04-28T09:22:54Z</time>
<desc>lat.=21.880375, lon.=104.841797, Alt.=75.122131m. Speed=4.248000m/h.</desc>
<speed>1.180000</speed>
</trkpt>
<trkpt lat="21.880278" lon="104.841843">
<ele>75.540100</ele>
<time>2011-04-28T09:22:59Z</time>
<desc>lat.=21.880278, lon.=104.841843, Alt.=75.540100m. Speed=10.908000m/h.</desc>
<speed>3.030000</speed>
</trkpt>
<trkpt lat="21.880119" lon="104.841888">
<ele>77.122131</ele>
<time>2011-04-28T09:23:04Z</time>
<desc>lat.=21.880119, lon.=104.841888, Alt.=77.122131m. Speed=10.692000m/h.</desc>
<speed>2.970000</speed>
</trkpt>
<trkpt lat="21.879961" lon="104.841911">
<ele>78.424866</ele>
<time>2011-04-28T09:23:09Z</time>
<desc>lat.=21.879961, lon.=104.841911, Alt.=78.424866m. Speed=15.264000m/h.</desc>
<speed>4.240000</speed>
</trkpt>
<trkpt lat="21.879795" lon="104.841988">
<ele>79.922913</ele>
<time>2011-04-28T09:23:14Z</time>
<desc>lat.=21.879795, lon.=104.841988, Alt.=79.922913m. Speed=11.520000m/h.</desc>
<speed>3.200000</speed>
</trkpt>
<trkpt lat="21.879642" lon="104.842033">
<ele>83.042053</ele>
<time>2011-04-28T09:23:19Z</time>
<desc>lat.=21.879642, lon.=104.842033, Alt.=83.042053m. Speed=10.476000m/h.</desc>
<speed>2.910000</speed>
</trkpt>
<trkpt lat="21.879549" lon="104.842064">
<ele>85.782288</ele>
<time>2011-04-28T09:23:24Z</time>
<desc>lat.=21.879549, lon.=104.842064, Alt.=85.782288m. Speed=5.868000m/h.</desc>
<speed>1.630000</speed>
</trkpt>
<trkpt lat="21.879507" lon="104.842094">
<ele>84.405334</ele>
<time>2011-04-28T09:23:29Z</time>
<desc>lat.=21.879507, lon.=104.842094, Alt.=84.405334m. Speed=0.360000m/h.</desc>
<speed>0.100000</speed>
</trkpt>
<trkpt lat="21.879505" lon="104.842087">
<ele>84.848694</ele>
<time>2011-04-28T09:23:34Z</time>
<desc>lat.=21.879505, lon.=104.842087, Alt.=84.848694m. Speed=0.216000m/h.</desc>
<speed>0.060000</speed>
</trkpt>
<trkpt lat="21.879503" lon="104.842087">
<ele>84.973694</ele>
<time>2011-04-28T09:23:39Z</time>
<desc>lat.=21.879503, lon.=104.842087, Alt.=84.973694m. Speed=0.324000m/h.</desc>
<speed>0.090000</speed>
</trkpt>
<trkpt lat="21.879499" lon="104.842087">
<ele>85.004944</ele>
<time>2011-04-28T09:23:44Z</time>
<desc>lat.=21.879499, lon.=104.842087, Alt.=85.004944m. Speed=0.396000m/h.</desc>
<speed>0.110000</speed>
</trkpt>
<trkpt lat="21.879492" lon="104.842087">
<ele>85.006897</ele>
<time>2011-04-28T09:23:49Z</time>
<desc>lat.=21.879492, lon.=104.842087, Alt.=85.006897m. Speed=0.540000m/h.</desc>
<speed>0.150000</speed>
</trkpt>
<trkpt lat="21.879490" lon="104.842087">
<ele>85.004944</ele>
<time>2011-04-28T09:23:54Z</time>
<desc>lat.=21.879490, lon.=104.842087, Alt.=85.004944m. Speed=0.108000m/h.</desc>
<speed>0.030000</speed>
</trkpt>
<trkpt lat="21.879490" lon="104.842087">
<ele>85.001038</ele>
<time>2011-04-28T09:23:59Z</time>
<desc>lat.=21.879490, lon.=104.842087, Alt.=85.001038m. Speed=0.648000m/h.</desc>
<speed>0.180000</speed>
</trkpt>
<trkpt lat="21.879488" lon="104.842079">
<ele>84.983459</ele>
<time>2011-04-28T09:24:04Z</time>
<desc>lat.=21.879488, lon.=104.842079, Alt.=84.983459m. Speed=0.360000m/h.</desc>
<speed>0.100000</speed>
</trkpt>
<trkpt lat="21.879482" lon="104.842079">
<ele>84.967834</ele>
<time>2011-04-28T09:24:09Z</time>
<desc>lat.=21.879482, lon.=104.842079, Alt.=84.967834m. Speed=0.504000m/h.</desc>
<speed>0.140000</speed>
</trkpt>
<trkpt lat="21.879473" lon="104.842087">
<ele>84.942444</ele>
<time>2011-04-28T09:24:14Z</time>
<desc>lat.=21.879473, lon.=104.842087, Alt.=84.942444m. Speed=2.772000m/h.</desc>
<speed>0.770000</speed>
</trkpt>
<trkpt lat="21.879417" lon="104.842125">
<ele>84.721741</ele>
<time>2011-04-28T09:24:19Z</time>
<desc>lat.=21.879417, lon.=104.842125, Alt.=84.721741m. Speed=5.472000m/h.</desc>
<speed>1.520000</speed>
</trkpt>
<trkpt lat="21.879322" lon="104.842163">
<ele>84.206116</ele>
<time>2011-04-28T09:24:24Z</time>
<desc>lat.=21.879322, lon.=104.842163, Alt.=84.206116m. Speed=2.736000m/h.</desc>
<speed>0.760000</speed>
</trkpt>
<trkpt lat="21.879244" lon="104.842201">
<ele>84.348694</ele>
<time>2011-04-28T09:24:29Z</time>
<desc>lat.=21.879244, lon.=104.842201, Alt.=84.348694m. Speed=7.848000m/h.</desc>
<speed>2.180000</speed>
</trkpt>
<trkpt lat="21.879114" lon="104.842270">
<ele>85.647522</ele>
<time>2011-04-28T09:24:34Z</time>
<desc>lat.=21.879114, lon.=104.842270, Alt.=85.647522m. Speed=10.260000m/h.</desc>
<speed>2.850000</speed>
</trkpt>
<trkpt lat="21.878975" lon="104.842323">
<ele>87.456116</ele>
<time>2011-04-28T09:24:39Z</time>
<desc>lat.=21.878975, lon.=104.842323, Alt.=87.456116m. Speed=11.412000m/h.</desc>
<speed>3.170000</speed>
</trkpt>
<trkpt lat="21.878826" lon="104.842384">
<ele>89.042053</ele>
<time>2011-04-28T09:24:44Z</time>
<desc>lat.=21.878826, lon.=104.842384, Alt.=89.042053m. Speed=12.564000m/h.</desc>
<speed>3.490000</speed>
</trkpt>
<trkpt lat="21.878647" lon="104.842445">
<ele>91.159241</ele>
<time>2011-04-28T09:24:49Z</time>
<desc>lat.=21.878647, lon.=104.842445, Alt.=91.159241m. Speed=11.556000m/h.</desc>
<speed>3.210000</speed>
</trkpt>
<trkpt lat="21.878490" lon="104.842499">
<ele>92.848694</ele>
<time>2011-04-28T09:24:54Z</time>
<desc>lat.=21.878490, lon.=104.842499, Alt.=92.848694m. Speed=8.352000m/h.</desc>
<speed>2.320000</speed>
</trkpt>
<trkpt lat="21.878315" lon="104.842567">
<ele>91.424866</ele>
<time>2011-04-28T09:24:59Z</time>
<desc>lat.=21.878315, lon.=104.842567, Alt.=91.424866m. Speed=13.752000m/h.</desc>
<speed>3.820000</speed>
</trkpt>
<trkpt lat="21.878124" lon="104.842644">
<ele>92.225647</ele>
<time>2011-04-28T09:25:04Z</time>
<desc>lat.=21.878124, lon.=104.842644, Alt.=92.225647m. Speed=14.616000m/h.</desc>
<speed>4.060000</speed>
</trkpt>
<trkpt lat="21.877943" lon="104.842705">
<ele>94.385803</ele>
<time>2011-04-28T09:25:09Z</time>
<desc>lat.=21.877943, lon.=104.842705, Alt.=94.385803m. Speed=20.195999m/h.</desc>
<speed>5.610000</speed>
</trkpt>
<trkpt lat="21.877764" lon="104.842773">
<ele>96.526428</ele>
<time>2011-04-28T09:25:14Z</time>
<desc>lat.=21.877764, lon.=104.842773, Alt.=96.526428m. Speed=14.580000m/h.</desc>
<speed>4.050000</speed>
</trkpt>
<trkpt lat="21.877581" lon="104.842850">
<ele>98.262756</ele>
<time>2011-04-28T09:25:19Z</time>
<desc>lat.=21.877581, lon.=104.842850, Alt.=98.262756m. Speed=13.464000m/h.</desc>
<speed>3.740000</speed>
</trkpt>
<trkpt lat="21.877405" lon="104.842918">
<ele>98.745178</ele>
<time>2011-04-28T09:25:24Z</time>
<desc>lat.=21.877405, lon.=104.842918, Alt.=98.745178m. Speed=13.248000m/h.</desc>
<speed>3.680000</speed>
</trkpt>
<trkpt lat="21.877228" lon="104.842964">
<ele>98.973694</ele>
<time>2011-04-28T09:25:29Z</time>
<desc>lat.=21.877228, lon.=104.842964, Alt.=98.973694m. Speed=14.292000m/h.</desc>
<speed>3.970000</speed>
</trkpt>
<trkpt lat="21.877052" lon="104.842957">
<ele>100.926819</ele>
<time>2011-04-28T09:25:34Z</time>
<desc>lat.=21.877052, lon.=104.842957, Alt.=100.926819m. Speed=12.204000m/h.</desc>
<speed>3.390000</speed>
</trkpt>
<trkpt lat="21.876888" lon="104.842896">
<ele>102.850647</ele>
<time>2011-04-28T09:25:39Z</time>
<desc>lat.=21.876888, lon.=104.842896, Alt.=102.850647m. Speed=16.271999m/h.</desc>
<speed>4.520000</speed>
</trkpt>
<trkpt lat="21.876707" lon="104.842804">
<ele>104.672913</ele>
<time>2011-04-28T09:25:44Z</time>
<desc>lat.=21.876707, lon.=104.842804, Alt.=104.672913m. Speed=18.936001m/h.</desc>
<speed>5.260000</speed>
</trkpt>
<trkpt lat="21.876514" lon="104.842674">
<ele>105.979553</ele>
<time>2011-04-28T09:25:49Z</time>
<desc>lat.=21.876514, lon.=104.842674, Alt.=105.979553m. Speed=17.172001m/h.</desc>
<speed>4.770000</speed>
</trkpt>
<trkpt lat="21.876314" lon="104.842560">
<ele>106.782288</ele>
<time>2011-04-28T09:25:54Z</time>
<desc>lat.=21.876314, lon.=104.842560, Alt.=106.782288m. Speed=19.260000m/h.</desc>
<speed>5.350000</speed>
</trkpt>
<trkpt lat="21.876097" lon="104.842422">
<ele>108.096741</ele>
<time>2011-04-28T09:25:59Z</time>
<desc>lat.=21.876097, lon.=104.842422, Alt.=108.096741m. Speed=21.924000m/h.</desc>
<speed>6.090000</speed>
</trkpt>
<trkpt lat="21.875851" lon="104.842255">
<ele>109.776428</ele>
<time>2011-04-28T09:26:04Z</time>
<desc>lat.=21.875851, lon.=104.842255, Alt.=109.776428m. Speed=22.068001m/h.</desc>
<speed>6.130000</speed>
</trkpt>
<trkpt lat="21.875586" lon="104.842224">
<ele>111.004944</ele>
<time>2011-04-28T09:26:09Z</time>
<desc>lat.=21.875586, lon.=104.842224, Alt.=111.004944m. Speed=21.888000m/h.</desc>
<speed>6.080000</speed>
</trkpt>
<trkpt lat="21.875341" lon="104.842278">
<ele>112.264709</ele>
<time>2011-04-28T09:26:14Z</time>
<desc>lat.=21.875341, lon.=104.842278, Alt.=112.264709m. Speed=18.648001m/h.</desc>
<speed>5.180000</speed>
</trkpt>
<trkpt lat="21.875128" lon="104.842339">
<ele>113.426819</ele>
<time>2011-04-28T09:26:19Z</time>
<desc>lat.=21.875128, lon.=104.842339, Alt.=113.426819m. Speed=18.000000m/h.</desc>
<speed>5.000000</speed>
</trkpt>
<trkpt lat="21.874882" lon="104.842430">
<ele>114.958069</ele>
<time>2011-04-28T09:26:24Z</time>
<desc>lat.=21.874882, lon.=104.842430, Alt.=114.958069m. Speed=21.312000m/h.</desc>
<speed>5.920000</speed>
</trkpt>
<trkpt lat="21.874695" lon="104.842659">
<ele>114.901428</ele>
<time>2011-04-28T09:26:29Z</time>
<desc>lat.=21.874695, lon.=104.842659, Alt.=114.901428m. Speed=17.172001m/h.</desc>
<speed>4.770000</speed>
</trkpt>
<trkpt lat="21.874451" lon="104.842819">
<ele>114.323303</ele>
<time>2011-04-28T09:26:34Z</time>
<desc>lat.=21.874451, lon.=104.842819, Alt.=114.323303m. Speed=21.816000m/h.</desc>
<speed>6.060000</speed>
</trkpt>
<trkpt lat="21.874208" lon="104.842964">
<ele>114.612366</ele>
<time>2011-04-28T09:26:39Z</time>
<desc>lat.=21.874208, lon.=104.842964, Alt.=114.612366m. Speed=21.204000m/h.</desc>
<speed>5.890000</speed>
</trkpt>
<trkpt lat="21.873934" lon="104.843124">
<ele>114.286194</ele>
<time>2011-04-28T09:26:44Z</time>
<desc>lat.=21.873934, lon.=104.843124, Alt.=114.286194m. Speed=23.148001m/h.</desc>
<speed>6.430000</speed>
</trkpt>
<trkpt lat="21.873667" lon="104.843330">
<ele>114.295959</ele>
<time>2011-04-28T09:26:49Z</time>
<desc>lat.=21.873667, lon.=104.843330, Alt.=114.295959m. Speed=24.156000m/h.</desc>
<speed>6.710000</speed>
</trkpt>
<trkpt lat="21.873413" lon="104.843544">
<ele>113.842834</ele>
<time>2011-04-28T09:26:54Z</time>
<desc>lat.=21.873413, lon.=104.843544, Alt.=113.842834m. Speed=23.436001m/h.</desc>
<speed>6.510000</speed>
</trkpt>
<trkpt lat="21.873154" lon="104.843742">
<ele>113.258850</ele>
<time>2011-04-28T09:26:59Z</time>
<desc>lat.=21.873154, lon.=104.843742, Alt.=113.258850m. Speed=24.011999m/h.</desc>
<speed>6.670000</speed>
</trkpt>
<trkpt lat="21.872885" lon="104.843979">
<ele>111.725647</ele>
<time>2011-04-28T09:27:04Z</time>
<desc>lat.=21.872885, lon.=104.843979, Alt.=111.725647m. Speed=24.552000m/h.</desc>
<speed>6.820000</speed>
</trkpt>
<trkpt lat="21.872654" lon="104.844177">
<ele>109.895569</ele>
<time>2011-04-28T09:27:09Z</time>
<desc>lat.=21.872654, lon.=104.844177, Alt.=109.895569m. Speed=23.040001m/h.</desc>
<speed>6.400000</speed>
</trkpt>
<trkpt lat="21.872398" lon="104.844353">
<ele>108.530334</ele>
<time>2011-04-28T09:27:14Z</time>
<desc>lat.=21.872398, lon.=104.844353, Alt.=108.530334m. Speed=23.580000m/h.</desc>
<speed>6.550000</speed>
</trkpt>
<trkpt lat="21.872164" lon="104.844536">
<ele>107.307678</ele>
<time>2011-04-28T09:27:19Z</time>
<desc>lat.=21.872164, lon.=104.844536, Alt.=107.307678m. Speed=20.628000m/h.</desc>
<speed>5.730000</speed>
</trkpt>
<trkpt lat="21.871922" lon="104.844734">
<ele>106.606506</ele>
<time>2011-04-28T09:27:24Z</time>
<desc>lat.=21.871922, lon.=104.844734, Alt.=106.606506m. Speed=18.719999m/h.</desc>
<speed>5.200000</speed>
</trkpt>
<trkpt lat="21.871696" lon="104.844902">
<ele>105.129944</ele>
<time>2011-04-28T09:27:29Z</time>
<desc>lat.=21.871696, lon.=104.844902, Alt.=105.129944m. Speed=19.044001m/h.</desc>
<speed>5.290000</speed>
</trkpt>
<trkpt lat="21.871502" lon="104.845062">
<ele>103.024475</ele>
<time>2011-04-28T09:27:34Z</time>
<desc>lat.=21.871502, lon.=104.845062, Alt.=103.024475m. Speed=17.280001m/h.</desc>
<speed>4.800000</speed>
</trkpt>
<trkpt lat="21.871315" lon="104.845261">
<ele>99.557678</ele>
<time>2011-04-28T09:27:39Z</time>
<desc>lat.=21.871315, lon.=104.845261, Alt.=99.557678m. Speed=17.172001m/h.</desc>
<speed>4.770000</speed>
</trkpt>
<trkpt lat="21.871101" lon="104.845467">
<ele>95.155334</ele>
<time>2011-04-28T09:27:44Z</time>
<desc>lat.=21.871101, lon.=104.845467, Alt.=95.155334m. Speed=21.240000m/h.</desc>
<speed>5.900000</speed>
</trkpt>
<trkpt lat="21.870888" lon="104.845657">
<ele>93.231506</ele>
<time>2011-04-28T09:27:49Z</time>
<desc>lat.=21.870888, lon.=104.845657, Alt.=93.231506m. Speed=20.304001m/h.</desc>
<speed>5.640000</speed>
</trkpt>
<trkpt lat="21.870693" lon="104.845825">
<ele>89.612366</ele>
<time>2011-04-28T09:27:54Z</time>
<desc>lat.=21.870693, lon.=104.845825, Alt.=89.612366m. Speed=18.612000m/h.</desc>
<speed>5.170000</speed>
</trkpt>
<trkpt lat="21.870506" lon="104.845955">
<ele>87.547913</ele>
<time>2011-04-28T09:27:59Z</time>
<desc>lat.=21.870506, lon.=104.845955, Alt.=87.547913m. Speed=17.388000m/h.</desc>
<speed>4.830000</speed>
</trkpt>
<trkpt lat="21.870291" lon="104.846024">
<ele>86.366272</ele>
<time>2011-04-28T09:28:04Z</time>
<desc>lat.=21.870291, lon.=104.846024, Alt.=86.366272m. Speed=20.232000m/h.</desc>
<speed>5.620000</speed>
</trkpt>
<trkpt lat="21.870029" lon="104.846085">
<ele>85.790100</ele>
<time>2011-04-28T09:28:09Z</time>
<desc>lat.=21.870029, lon.=104.846085, Alt.=85.790100m. Speed=22.320000m/h.</desc>
<speed>6.200000</speed>
</trkpt>
<trkpt lat="21.869787" lon="104.846130">
<ele>86.278381</ele>
<time>2011-04-28T09:28:14Z</time>
<desc>lat.=21.869787, lon.=104.846130, Alt.=86.278381m. Speed=17.820000m/h.</desc>
<speed>4.950000</speed>
</trkpt>
<trkpt lat="21.869558" lon="104.846184">
<ele>89.961975</ele>
<time>2011-04-28T09:28:19Z</time>
<desc>lat.=21.869558, lon.=104.846184, Alt.=89.961975m. Speed=18.072001m/h.</desc>
<speed>5.020000</speed>
</trkpt>
<trkpt lat="21.869322" lon="104.846237">
<ele>91.782288</ele>
<time>2011-04-28T09:28:24Z</time>
<desc>lat.=21.869322, lon.=104.846237, Alt.=91.782288m. Speed=18.323999m/h.</desc>
<speed>5.090000</speed>
</trkpt>
<trkpt lat="21.869068" lon="104.846283">
<ele>94.510803</ele>
<time>2011-04-28T09:28:29Z</time>
<desc>lat.=21.869068, lon.=104.846283, Alt.=94.510803m. Speed=20.412001m/h.</desc>
<speed>5.670000</speed>
</trkpt>
<trkpt lat="21.868757" lon="104.846382">
<ele>96.456116</ele>
<time>2011-04-28T09:28:34Z</time>
<desc>lat.=21.868757, lon.=104.846382, Alt.=96.456116m. Speed=24.444000m/h.</desc>
<speed>6.790000</speed>
</trkpt>
<trkpt lat="21.868513" lon="104.846573">
<ele>96.331116</ele>
<time>2011-04-28T09:28:39Z</time>
<desc>lat.=21.868513, lon.=104.846573, Alt.=96.331116m. Speed=22.104000m/h.</desc>
<speed>6.140000</speed>
</trkpt>
<trkpt lat="21.868322" lon="104.846855">
<ele>93.102600</ele>
<time>2011-04-28T09:28:44Z</time>
<desc>lat.=21.868322, lon.=104.846855, Alt.=93.102600m. Speed=23.256001m/h.</desc>
<speed>6.460000</speed>
</trkpt>
<trkpt lat="21.868156" lon="104.847107">
<ele>91.333069</ele>
<time>2011-04-28T09:28:49Z</time>
<desc>lat.=21.868156, lon.=104.847107, Alt.=91.333069m. Speed=20.700001m/h.</desc>
<speed>5.750000</speed>
</trkpt>
<trkpt lat="21.868004" lon="104.847313">
<ele>90.030334</ele>
<time>2011-04-28T09:28:54Z</time>
<desc>lat.=21.868004, lon.=104.847313, Alt.=90.030334m. Speed=15.696000m/h.</desc>
<speed>4.360000</speed>
</trkpt>
<trkpt lat="21.867855" lon="104.847412">
<ele>86.936584</ele>
<time>2011-04-28T09:28:59Z</time>
<desc>lat.=21.867855, lon.=104.847412, Alt.=86.936584m. Speed=12.672000m/h.</desc>
<speed>3.520000</speed>
</trkpt>
<trkpt lat="21.867727" lon="104.847435">
<ele>85.661194</ele>
<time>2011-04-28T09:29:04Z</time>
<desc>lat.=21.867727, lon.=104.847435, Alt.=85.661194m. Speed=10.548000m/h.</desc>
<speed>2.930000</speed>
</trkpt>
<trkpt lat="21.867586" lon="104.847404">
<ele>85.502991</ele>
<time>2011-04-28T09:29:09Z</time>
<desc>lat.=21.867586, lon.=104.847404, Alt.=85.502991m. Speed=10.944000m/h.</desc>
<speed>3.040000</speed>
</trkpt>
<trkpt lat="21.867483" lon="104.847404">
<ele>85.116272</ele>
<time>2011-04-28T09:29:14Z</time>
<desc>lat.=21.867483, lon.=104.847404, Alt.=85.116272m. Speed=9.180000m/h.</desc>
<speed>2.550000</speed>
</trkpt>
<trkpt lat="21.867334" lon="104.847420">
<ele>84.719788</ele>
<time>2011-04-28T09:29:19Z</time>
<desc>lat.=21.867334, lon.=104.847420, Alt.=84.719788m. Speed=9.720000m/h.</desc>
<speed>2.700000</speed>
</trkpt>
<trkpt lat="21.867193" lon="104.847488">
<ele>84.299866</ele>
<time>2011-04-28T09:29:24Z</time>
<desc>lat.=21.867193, lon.=104.847488, Alt.=84.299866m. Speed=11.880000m/h.</desc>
<speed>3.300000</speed>
</trkpt>
<trkpt lat="21.867035" lon="104.847580">
<ele>84.274475</ele>
<time>2011-04-28T09:29:29Z</time>
<desc>lat.=21.867035, lon.=104.847580, Alt.=84.274475m. Speed=14.112000m/h.</desc>
<speed>3.920000</speed>
</trkpt>
<trkpt lat="21.866877" lon="104.847694">
<ele>83.963928</ele>
<time>2011-04-28T09:29:34Z</time>
<desc>lat.=21.866877, lon.=104.847694, Alt.=83.963928m. Speed=13.860000m/h.</desc>
<speed>3.850000</speed>
</trkpt>
<trkpt lat="21.866722" lon="104.847771">
<ele>84.463928</ele>
<time>2011-04-28T09:29:39Z</time>
<desc>lat.=21.866722, lon.=104.847771, Alt.=84.463928m. Speed=14.184000m/h.</desc>
<speed>3.940000</speed>
</trkpt>
<trkpt lat="21.866560" lon="104.847862">
<ele>82.694397</ele>
<time>2011-04-28T09:29:44Z</time>
<desc>lat.=21.866560, lon.=104.847862, Alt.=82.694397m. Speed=13.680000m/h.</desc>
<speed>3.800000</speed>
</trkpt>
<trkpt lat="21.866375" lon="104.847969">
<ele>82.366272</ele>
<time>2011-04-28T09:29:49Z</time>
<desc>lat.=21.866375, lon.=104.847969, Alt.=82.366272m. Speed=13.536000m/h.</desc>
<speed>3.760000</speed>
</trkpt>
<trkpt lat="21.866152" lon="104.848061">
<ele>83.049866</ele>
<time>2011-04-28T09:29:54Z</time>
<desc>lat.=21.866152, lon.=104.848061, Alt.=83.049866m. Speed=20.160000m/h.</desc>
<speed>5.600000</speed>
</trkpt>
<trkpt lat="21.865845" lon="104.848297">
<ele>83.467834</ele>
<time>2011-04-28T09:29:59Z</time>
<desc>lat.=21.865845, lon.=104.848297, Alt.=83.467834m. Speed=25.524000m/h.</desc>
<speed>7.090000</speed>
</trkpt>
<trkpt lat="21.865637" lon="104.848557">
<ele>82.333069</ele>
<time>2011-04-28T09:30:04Z</time>
<desc>lat.=21.865637, lon.=104.848557, Alt.=82.333069m. Speed=22.572001m/h.</desc>
<speed>6.270000</speed>
</trkpt>
<trkpt lat="21.865467" lon="104.848732">
<ele>81.772522</ele>
<time>2011-04-28T09:30:09Z</time>
<desc>lat.=21.865467, lon.=104.848732, Alt.=81.772522m. Speed=13.608000m/h.</desc>
<speed>3.780000</speed>
</trkpt>
<trkpt lat="21.865345" lon="104.848877">
<ele>80.243225</ele>
<time>2011-04-28T09:30:14Z</time>
<desc>lat.=21.865345, lon.=104.848877, Alt.=80.243225m. Speed=17.459999m/h.</desc>
<speed>4.850000</speed>
</trkpt>
<trkpt lat="21.865171" lon="104.849030">
<ele>78.032288</ele>
<time>2011-04-28T09:30:19Z</time>
<desc>lat.=21.865171, lon.=104.849030, Alt.=78.032288m. Speed=15.588000m/h.</desc>
<speed>4.330000</speed>
</trkpt>
<trkpt lat="21.864985" lon="104.849152">
<ele>75.313538</ele>
<time>2011-04-28T09:30:24Z</time>
<desc>lat.=21.864985, lon.=104.849152, Alt.=75.313538m. Speed=15.336000m/h.</desc>
<speed>4.260000</speed>
</trkpt>
<trkpt lat="21.864792" lon="104.849319">
<ele>72.717834</ele>
<time>2011-04-28T09:30:29Z</time>
<desc>lat.=21.864792, lon.=104.849319, Alt.=72.717834m. Speed=17.712000m/h.</desc>
<speed>4.920000</speed>
</trkpt>
<trkpt lat="21.864616" lon="104.849472">
<ele>70.819397</ele>
<time>2011-04-28T09:30:34Z</time>
<desc>lat.=21.864616, lon.=104.849472, Alt.=70.819397m. Speed=16.271999m/h.</desc>
<speed>4.520000</speed>
</trkpt>
<trkpt lat="21.864397" lon="104.849640">
<ele>69.686584</ele>
<time>2011-04-28T09:30:39Z</time>
<desc>lat.=21.864397, lon.=104.849640, Alt.=69.686584m. Speed=19.691999m/h.</desc>
<speed>5.470000</speed>
</trkpt>
<trkpt lat="21.864155" lon="104.849785">
<ele>73.483459</ele>
<time>2011-04-28T09:30:44Z</time>
<desc>lat.=21.864155, lon.=104.849785, Alt.=73.483459m. Speed=18.540001m/h.</desc>
<speed>5.150000</speed>
</trkpt>
<trkpt lat="21.863960" lon="104.849907">
<ele>74.567444</ele>
<time>2011-04-28T09:30:49Z</time>
<desc>lat.=21.863960, lon.=104.849907, Alt.=74.567444m. Speed=13.644000m/h.</desc>
<speed>3.790000</speed>
</trkpt>
<trkpt lat="21.863779" lon="104.850006">
<ele>73.461975</ele>
<time>2011-04-28T09:30:54Z</time>
<desc>lat.=21.863779, lon.=104.850006, Alt.=73.461975m. Speed=14.904000m/h.</desc>
<speed>4.140000</speed>
</trkpt>
<trkpt lat="21.863575" lon="104.850029">
<ele>73.879944</ele>
<time>2011-04-28T09:30:59Z</time>
<desc>lat.=21.863575, lon.=104.850029, Alt.=73.879944m. Speed=14.292000m/h.</desc>
<speed>3.970000</speed>
</trkpt>
<trkpt lat="21.863417" lon="104.850075">
<ele>74.006897</ele>
<time>2011-04-28T09:31:04Z</time>
<desc>lat.=21.863417, lon.=104.850075, Alt.=74.006897m. Speed=11.484000m/h.</desc>
<speed>3.190000</speed>
</trkpt>
<trkpt lat="21.863211" lon="104.850204">
<ele>77.417053</ele>
<time>2011-04-28T09:31:09Z</time>
<desc>lat.=21.863211, lon.=104.850204, Alt.=77.417053m. Speed=14.760000m/h.</desc>
<speed>4.100000</speed>
</trkpt>
<trkpt lat="21.863037" lon="104.850288">
<ele>78.614319</ele>
<time>2011-04-28T09:31:14Z</time>
<desc>lat.=21.863037, lon.=104.850288, Alt.=78.614319m. Speed=12.888000m/h.</desc>
<speed>3.580000</speed>
</trkpt>
<trkpt lat="21.862862" lon="104.850334">
<ele>75.934631</ele>
<time>2011-04-28T09:31:19Z</time>
<desc>lat.=21.862862, lon.=104.850334, Alt.=75.934631m. Speed=12.348000m/h.</desc>
<speed>3.430000</speed>
</trkpt>
<trkpt lat="21.862730" lon="104.850334">
<ele>76.637756</ele>
<time>2011-04-28T09:31:24Z</time>
<desc>lat.=21.862730, lon.=104.850334, Alt.=76.637756m. Speed=7.848000m/h.</desc>
<speed>2.180000</speed>
</trkpt>
<trkpt lat="21.862669" lon="104.850357">
<ele>77.844788</ele>
<time>2011-04-28T09:31:29Z</time>
<desc>lat.=21.862669, lon.=104.850357, Alt.=77.844788m. Speed=0.612000m/h.</desc>
<speed>0.170000</speed>
</trkpt>
<trkpt lat="21.862658" lon="104.850365">
<ele>78.641663</ele>
<time>2011-04-28T09:31:34Z</time>
<desc>lat.=21.862658, lon.=104.850365, Alt.=78.641663m. Speed=0.468000m/h.</desc>
<speed>0.130000</speed>
</trkpt>
<trkpt lat="21.862652" lon="104.850372">
<ele>78.639709</ele>
<time>2011-04-28T09:31:39Z</time>
<desc>lat.=21.862652, lon.=104.850372, Alt.=78.639709m. Speed=0.612000m/h.</desc>
<speed>0.170000</speed>
</trkpt>
<trkpt lat="21.862648" lon="104.850372">
<ele>78.657288</ele>
<time>2011-04-28T09:31:44Z</time>
<desc>lat.=21.862648, lon.=104.850372, Alt.=78.657288m. Speed=0.180000m/h.</desc>
<speed>0.050000</speed>
</trkpt>
<trkpt lat="21.862644" lon="104.850372">
<ele>78.657288</ele>
<time>2011-04-28T09:31:49Z</time>
<desc>lat.=21.862644, lon.=104.850372, Alt.=78.657288m. Speed=1.188000m/h.</desc>
<speed>0.330000</speed>
</trkpt>
<trkpt lat="21.862631" lon="104.850380">
<ele>78.647522</ele>
<time>2011-04-28T09:31:54Z</time>
<desc>lat.=21.862631, lon.=104.850380, Alt.=78.647522m. Speed=1.008000m/h.</desc>
<speed>0.280000</speed>
</trkpt>
<trkpt lat="21.862627" lon="104.850372">
<ele>78.659241</ele>
<time>2011-04-28T09:31:59Z</time>
<desc>lat.=21.862627, lon.=104.850372, Alt.=78.659241m. Speed=0.072000m/h.</desc>
<speed>0.020000</speed>
</trkpt>
<trkpt lat="21.862627" lon="104.850372">
<ele>78.626038</ele>
<time>2011-04-28T09:32:04Z</time>
<desc>lat.=21.862627, lon.=104.850372, Alt.=78.626038m. Speed=0.072000m/h.</desc>
<speed>0.020000</speed>
</trkpt>
<trkpt lat="21.862625" lon="104.850372">
<ele>78.620178</ele>
<time>2011-04-28T09:32:09Z</time>
<desc>lat.=21.862625, lon.=104.850372, Alt.=78.620178m. Speed=0.036000m/h.</desc>
<speed>0.010000</speed>
</trkpt>
<trkpt lat="21.862625" lon="104.850372">
<ele>78.645569</ele>
<time>2011-04-28T09:32:14Z</time>
<desc>lat.=21.862625, lon.=104.850372, Alt.=78.645569m. Speed=0.108000m/h.</desc>
<speed>0.030000</speed>
</trkpt>
<trkpt lat="21.862625" lon="104.850372">
<ele>78.674866</ele>
<time>2011-04-28T09:32:19Z</time>
<desc>lat.=21.862625, lon.=104.850372, Alt.=78.674866m. Speed=0.000000m/h.</desc>
<speed>0.000000</speed>
</trkpt>
<trkpt lat="21.862627" lon="104.850380">
<ele>78.688538</ele>
<time>2011-04-28T09:32:24Z</time>
<desc>lat.=21.862627, lon.=104.850380, Alt.=78.688538m. Speed=0.252000m/h.</desc>
<speed>0.070000</speed>
</trkpt>
<trkpt lat="21.862629" lon="104.850380">
<ele>78.723694</ele>
<time>2011-04-28T09:32:29Z</time>
<desc>lat.=21.862629, lon.=104.850380, Alt.=78.723694m. Speed=0.252000m/h.</desc>
<speed>0.070000</speed>
</trkpt>
<trkpt lat="21.862629" lon="104.850380">
<ele>78.749084</ele>
<time>2011-04-28T09:32:34Z</time>
<desc>lat.=21.862629, lon.=104.850380, Alt.=78.749084m. Speed=0.108000m/h.</desc>
<speed>0.030000</speed>
</trkpt>
<trkpt lat="21.862629" lon="104.850388">
<ele>78.741272</ele>
<time>2011-04-28T09:32:39Z</time>
<desc>lat.=21.862629, lon.=104.850388, Alt.=78.741272m. Speed=0.180000m/h.</desc>
<speed>0.050000</speed>
</trkpt>
<trkpt lat="21.862627" lon="104.850388">
<ele>78.727600</ele>
<time>2011-04-28T09:32:44Z</time>
<desc>lat.=21.862627, lon.=104.850388, Alt.=78.727600m. Speed=0.072000m/h.</desc>
<speed>0.020000</speed>
</trkpt>
<trkpt lat="21.862627" lon="104.850388">
<ele>78.710022</ele>
<time>2011-04-28T09:32:49Z</time>
<desc>lat.=21.862627, lon.=104.850388, Alt.=78.710022m. Speed=0.036000m/h.</desc>
<speed>0.010000</speed>
</trkpt>
<trkpt lat="21.862627" lon="104.850388">
<ele>78.731506</ele>
<time>2011-04-28T09:32:54Z</time>
<desc>lat.=21.862627, lon.=104.850388, Alt.=78.731506m. Speed=0.000000m/h.</desc>
<speed>0.000000</speed>
</trkpt>
<trkpt lat="21.862627" lon="104.850388">
<ele>78.764709</ele>
<time>2011-04-28T09:32:59Z</time>
<desc>lat.=21.862627, lon.=104.850388, Alt.=78.764709m. Speed=0.000000m/h.</desc>
<speed>0.000000</speed>
</trkpt>
<trkpt lat="21.862627" lon="104.850388">
<ele>78.795959</ele>
<time>2011-04-28T09:33:04Z</time>
<desc>lat.=21.862627, lon.=104.850388, Alt.=78.795959m. Speed=0.036000m/h.</desc>
<speed>0.010000</speed>
</trkpt>
<trkpt lat="21.862627" lon="104.850388">
<ele>78.819397</ele>
<time>2011-04-28T09:33:09Z</time>
<desc>lat.=21.862627, lon.=104.850388, Alt.=78.819397m. Speed=0.036000m/h.</desc>
<speed>0.010000</speed>
</trkpt>
<trkpt lat="21.862612" lon="104.850395">
<ele>78.813538</ele>
<time>2011-04-28T09:33:14Z</time>
<desc>lat.=21.862612, lon.=104.850395, Alt.=78.813538m. Speed=6.264000m/h.</desc>
<speed>1.740000</speed>
</trkpt>
<trkpt lat="21.862509" lon="104.850487">
<ele>78.876038</ele>
<time>2011-04-28T09:33:19Z</time>
<desc>lat.=21.862509, lon.=104.850487, Alt.=78.876038m. Speed=14.868000m/h.</desc>
<speed>4.130000</speed>
</trkpt>
<trkpt lat="21.862423" lon="104.850685">
<ele>78.235413</ele>
<time>2011-04-28T09:33:24Z</time>
<desc>lat.=21.862423, lon.=104.850685, Alt.=78.235413m. Speed=15.624000m/h.</desc>
<speed>4.340000</speed>
</trkpt>
<trkpt lat="21.862329" lon="104.850899">
<ele>78.471741</ele>
<time>2011-04-28T09:33:29Z</time>
<desc>lat.=21.862329, lon.=104.850899, Alt.=78.471741m. Speed=13.860000m/h.</desc>
<speed>3.850000</speed>
</trkpt>
<trkpt lat="21.862133" lon="104.850945">
<ele>78.973694</ele>
<time>2011-04-28T09:33:34Z</time>
<desc>lat.=21.862133, lon.=104.850945, Alt.=78.973694m. Speed=14.112000m/h.</desc>
<speed>3.920000</speed>
</trkpt>
<trkpt lat="21.861967" lon="104.850929">
<ele>80.288147</ele>
<time>2011-04-28T09:33:39Z</time>
<desc>lat.=21.861967, lon.=104.850929, Alt.=80.288147m. Speed=13.608000m/h.</desc>
<speed>3.780000</speed>
</trkpt>
<trkpt lat="21.861797" lon="104.850990">
<ele>82.153381</ele>
<time>2011-04-28T09:33:44Z</time>
<desc>lat.=21.861797, lon.=104.850990, Alt.=82.153381m. Speed=15.012000m/h.</desc>
<speed>4.170000</speed>
</trkpt>
<trkpt lat="21.861567" lon="104.851112">
<ele>83.225647</ele>
<time>2011-04-28T09:33:49Z</time>
<desc>lat.=21.861567, lon.=104.851112, Alt.=83.225647m. Speed=21.996000m/h.</desc>
<speed>6.110000</speed>
</trkpt>
<trkpt lat="21.861282" lon="104.851257">
<ele>84.295959</ele>
<time>2011-04-28T09:33:54Z</time>
<desc>lat.=21.861282, lon.=104.851257, Alt.=84.295959m. Speed=24.948000m/h.</desc>
<speed>6.930000</speed>
</trkpt>
<trkpt lat="21.860994" lon="104.851555">
<ele>85.575256</ele>
<time>2011-04-28T09:33:59Z</time>
<desc>lat.=21.860994, lon.=104.851555, Alt.=85.575256m. Speed=29.952000m/h.</desc>
<speed>8.320000</speed>
</trkpt>
<trkpt lat="21.860771" lon="104.851906">
<ele>86.653381</ele>
<time>2011-04-28T09:34:04Z</time>
<desc>lat.=21.860771, lon.=104.851906, Alt.=86.653381m. Speed=29.664000m/h.</desc>
<speed>8.240000</speed>
</trkpt>
<trkpt lat="21.860590" lon="104.852234">
<ele>87.719788</ele>
<time>2011-04-28T09:34:09Z</time>
<desc>lat.=21.860590, lon.=104.852234, Alt.=87.719788m. Speed=26.100000m/h.</desc>
<speed>7.250000</speed>
</trkpt>
<trkpt lat="21.860416" lon="104.852501">
<ele>88.645569</ele>
<time>2011-04-28T09:34:14Z</time>
<desc>lat.=21.860416, lon.=104.852501, Alt.=88.645569m. Speed=23.076000m/h.</desc>
<speed>6.410000</speed>
</trkpt>
<trkpt lat="21.860176" lon="104.852676">
<ele>89.532288</ele>
<time>2011-04-28T09:34:19Z</time>
<desc>lat.=21.860176, lon.=104.852676, Alt.=89.532288m. Speed=20.736000m/h.</desc>
<speed>5.760000</speed>
</trkpt>
<trkpt lat="21.859909" lon="104.852783">
<ele>90.965881</ele>
<time>2011-04-28T09:34:24Z</time>
<desc>lat.=21.859909, lon.=104.852783, Alt.=90.965881m. Speed=22.032000m/h.</desc>
<speed>6.120000</speed>
</trkpt>
<trkpt lat="21.859638" lon="104.852898">
<ele>93.061584</ele>
<time>2011-04-28T09:34:29Z</time>
<desc>lat.=21.859638, lon.=104.852898, Alt.=93.061584m. Speed=24.048000m/h.</desc>
<speed>6.680000</speed>
</trkpt>
<trkpt lat="21.859360" lon="104.853104">
<ele>94.368225</ele>
<time>2011-04-28T09:34:34Z</time>
<desc>lat.=21.859360, lon.=104.853104, Alt.=94.368225m. Speed=21.348000m/h.</desc>
<speed>5.930000</speed>
</trkpt>
<trkpt lat="21.859156" lon="104.853333">
<ele>94.743225</ele>
<time>2011-04-28T09:34:39Z</time>
<desc>lat.=21.859156, lon.=104.853333, Alt.=94.743225m. Speed=20.952000m/h.</desc>
<speed>5.820000</speed>
</trkpt>
<trkpt lat="21.858973" lon="104.853554">
<ele>94.637756</ele>
<time>2011-04-28T09:34:44Z</time>
<desc>lat.=21.858973, lon.=104.853554, Alt.=94.637756m. Speed=22.068001m/h.</desc>
<speed>6.130000</speed>
</trkpt>
<trkpt lat="21.858780" lon="104.853790">
<ele>94.858459</ele>
<time>2011-04-28T09:34:49Z</time>
<desc>lat.=21.858780, lon.=104.853790, Alt.=94.858459m. Speed=23.832001m/h.</desc>
<speed>6.620000</speed>
</trkpt>
<trkpt lat="21.858591" lon="104.853996">
<ele>96.258850</ele>
<time>2011-04-28T09:34:54Z</time>
<desc>lat.=21.858591, lon.=104.853996, Alt.=96.258850m. Speed=21.563999m/h.</desc>
<speed>5.990000</speed>
</trkpt>
<trkpt lat="21.858358" lon="104.854195">
<ele>97.120178</ele>
<time>2011-04-28T09:34:59Z</time>
<desc>lat.=21.858358, lon.=104.854195, Alt.=97.120178m. Speed=23.940001m/h.</desc>
<speed>6.650000</speed>
</trkpt>
<trkpt lat="21.858103" lon="104.854408">
<ele>96.127991</ele>
<time>2011-04-28T09:35:04Z</time>
<desc>lat.=21.858103, lon.=104.854408, Alt.=96.127991m. Speed=23.832001m/h.</desc>
<speed>6.620000</speed>
</trkpt>
<trkpt lat="21.857861" lon="104.854614">
<ele>95.413147</ele>
<time>2011-04-28T09:35:09Z</time>
<desc>lat.=21.857861, lon.=104.854614, Alt.=95.413147m. Speed=21.708000m/h.</desc>
<speed>6.030000</speed>
</trkpt>
<trkpt lat="21.857641" lon="104.854820">
<ele>94.821350</ele>
<time>2011-04-28T09:35:14Z</time>
<desc>lat.=21.857641, lon.=104.854820, Alt.=94.821350m. Speed=21.059999m/h.</desc>
<speed>5.850000</speed>
</trkpt>
<trkpt lat="21.857479" lon="104.854965">
<ele>94.110413</ele>
<time>2011-04-28T09:35:19Z</time>
<desc>lat.=21.857479, lon.=104.854965, Alt.=94.110413m. Speed=13.212000m/h.</desc>
<speed>3.670000</speed>
</trkpt>
<trkpt lat="21.857347" lon="104.855141">
<ele>93.764709</ele>
<time>2011-04-28T09:35:24Z</time>
<desc>lat.=21.857347, lon.=104.855141, Alt.=93.764709m. Speed=19.260000m/h.</desc>
<speed>5.350000</speed>
</trkpt>
<trkpt lat="21.857222" lon="104.855400">
<ele>92.602600</ele>
<time>2011-04-28T09:35:29Z</time>
<desc>lat.=21.857222, lon.=104.855400, Alt.=92.602600m. Speed=21.167999m/h.</desc>
<speed>5.880000</speed>
</trkpt>
<trkpt lat="21.857117" lon="104.855644">
<ele>91.280334</ele>
<time>2011-04-28T09:35:34Z</time>
<desc>lat.=21.857117, lon.=104.855644, Alt.=91.280334m. Speed=18.684000m/h.</desc>
<speed>5.190000</speed>
</trkpt>
<trkpt lat="21.857019" lon="104.855843">
<ele>85.846741</ele>
<time>2011-04-28T09:35:39Z</time>
<desc>lat.=21.857019, lon.=104.855843, Alt.=85.846741m. Speed=16.236000m/h.</desc>
<speed>4.510000</speed>
</trkpt>
<trkpt lat="21.856930" lon="104.856056">
<ele>84.342834</ele>
<time>2011-04-28T09:35:44Z</time>
<desc>lat.=21.856930, lon.=104.856056, Alt.=84.342834m. Speed=16.488001m/h.</desc>
<speed>4.580000</speed>
</trkpt>
<trkpt lat="21.856829" lon="104.856270">
<ele>81.139709</ele>
<time>2011-04-28T09:35:49Z</time>
<desc>lat.=21.856829, lon.=104.856270, Alt.=81.139709m. Speed=19.368000m/h.</desc>
<speed>5.380000</speed>
</trkpt>
<trkpt lat="21.856745" lon="104.856491">
<ele>79.684631</ele>
<time>2011-04-28T09:35:54Z</time>
<desc>lat.=21.856745, lon.=104.856491, Alt.=79.684631m. Speed=15.696000m/h.</desc>
<speed>4.360000</speed>
</trkpt>
<trkpt lat="21.856646" lon="104.856712">
<ele>78.602600</ele>
<time>2011-04-28T09:35:59Z</time>
<desc>lat.=21.856646, lon.=104.856712, Alt.=78.602600m. Speed=15.876000m/h.</desc>
<speed>4.410000</speed>
</trkpt>
<trkpt lat="21.856466" lon="104.856911">
<ele>78.090881</ele>
<time>2011-04-28T09:36:04Z</time>
<desc>lat.=21.856466, lon.=104.856911, Alt.=78.090881m. Speed=21.563999m/h.</desc>
<speed>5.990000</speed>
</trkpt>
<trkpt lat="21.856340" lon="104.857185">
<ele>77.067444</ele>
<time>2011-04-28T09:36:09Z</time>
<desc>lat.=21.856340, lon.=104.857185, Alt.=77.067444m. Speed=21.132000m/h.</desc>
<speed>5.870000</speed>
</trkpt>
<trkpt lat="21.856230" lon="104.857445">
<ele>76.247131</ele>
<time>2011-04-28T09:36:14Z</time>
<desc>lat.=21.856230, lon.=104.857445, Alt.=76.247131m. Speed=20.879999m/h.</desc>
<speed>5.800000</speed>
</trkpt>
<trkpt lat="21.856134" lon="104.857712">
<ele>75.518616</ele>
<time>2011-04-28T09:36:19Z</time>
<desc>lat.=21.856134, lon.=104.857712, Alt.=75.518616m. Speed=20.483999m/h.</desc>
<speed>5.690000</speed>
</trkpt>
<trkpt lat="21.856035" lon="104.857964">
<ele>75.237366</ele>
<time>2011-04-28T09:36:24Z</time>
<desc>lat.=21.856035, lon.=104.857964, Alt.=75.237366m. Speed=19.764000m/h.</desc>
<speed>5.490000</speed>
</trkpt>
<trkpt lat="21.855936" lon="104.858223">
<ele>75.366272</ele>
<time>2011-04-28T09:36:29Z</time>
<desc>lat.=21.855936, lon.=104.858223, Alt.=75.366272m. Speed=23.076000m/h.</desc>
<speed>6.410000</speed>
</trkpt>
<trkpt lat="21.855791" lon="104.858498">
<ele>75.540100</ele>
<time>2011-04-28T09:36:34Z</time>
<desc>lat.=21.855791, lon.=104.858498, Alt.=75.540100m. Speed=22.500000m/h.</desc>
<speed>6.250000</speed>
</trkpt>
<trkpt lat="21.855623" lon="104.858742">
<ele>76.042053</ele>
<time>2011-04-28T09:36:39Z</time>
<desc>lat.=21.855623, lon.=104.858742, Alt.=76.042053m. Speed=22.535999m/h.</desc>
<speed>6.260000</speed>
</trkpt>
<trkpt lat="21.855429" lon="104.858986">
<ele>77.112366</ele>
<time>2011-04-28T09:36:44Z</time>
<desc>lat.=21.855429, lon.=104.858986, Alt.=77.112366m. Speed=22.860001m/h.</desc>
<speed>6.350000</speed>
</trkpt>
<trkpt lat="21.855227" lon="104.859192">
<ele>78.362366</ele>
<time>2011-04-28T09:36:49Z</time>
<desc>lat.=21.855227, lon.=104.859192, Alt.=78.362366m. Speed=20.808001m/h.</desc>
<speed>5.780000</speed>
</trkpt>
<trkpt lat="21.854969" lon="104.859390">
<ele>79.467834</ele>
<time>2011-04-28T09:36:54Z</time>
<desc>lat.=21.854969, lon.=104.859390, Alt.=79.467834m. Speed=25.848000m/h.</desc>
<speed>7.180000</speed>
</trkpt>
<trkpt lat="21.854765" lon="104.859680">
<ele>80.782288</ele>
<time>2011-04-28T09:36:59Z</time>
<desc>lat.=21.854765, lon.=104.859680, Alt.=80.782288m. Speed=24.695999m/h.</desc>
<speed>6.860000</speed>
</trkpt>
<trkpt lat="21.854586" lon="104.859940">
<ele>82.155334</ele>
<time>2011-04-28T09:37:04Z</time>
<desc>lat.=21.854586, lon.=104.859940, Alt.=82.155334m. Speed=21.132000m/h.</desc>
<speed>5.870000</speed>
</trkpt>
<trkpt lat="21.854420" lon="104.860199">
<ele>83.002991</ele>
<time>2011-04-28T09:37:09Z</time>
<desc>lat.=21.854420, lon.=104.860199, Alt.=83.002991m. Speed=25.091999m/h.</desc>
<speed>6.970000</speed>
</trkpt>
<trkpt lat="21.854246" lon="104.860458">
<ele>83.598694</ele>
<time>2011-04-28T09:37:14Z</time>
<desc>lat.=21.854246, lon.=104.860458, Alt.=83.598694m. Speed=22.608000m/h.</desc>
<speed>6.280000</speed>
</trkpt>
<trkpt lat="21.854099" lon="104.860695">
<ele>84.604553</ele>
<time>2011-04-28T09:37:19Z</time>
<desc>lat.=21.854099, lon.=104.860695, Alt.=84.604553m. Speed=19.368000m/h.</desc>
<speed>5.380000</speed>
</trkpt>
<trkpt lat="21.853901" lon="104.860924">
<ele>83.997131</ele>
<time>2011-04-28T09:37:24Z</time>
<desc>lat.=21.853901, lon.=104.860924, Alt.=83.997131m. Speed=21.816000m/h.</desc>
<speed>6.060000</speed>
</trkpt>
<trkpt lat="21.853750" lon="104.861115">
<ele>82.670959</ele>
<time>2011-04-28T09:37:29Z</time>
<desc>lat.=21.853750, lon.=104.861115, Alt.=82.670959m. Speed=17.892000m/h.</desc>
<speed>4.970000</speed>
</trkpt>
<trkpt lat="21.853617" lon="104.861298">
<ele>82.801819</ele>
<time>2011-04-28T09:37:34Z</time>
<desc>lat.=21.853617, lon.=104.861298, Alt.=82.801819m. Speed=15.984000m/h.</desc>
<speed>4.440000</speed>
</trkpt>
<trkpt lat="21.853458" lon="104.861465">
<ele>84.321350</ele>
<time>2011-04-28T09:37:39Z</time>
<desc>lat.=21.853458, lon.=104.861465, Alt.=84.321350m. Speed=16.200001m/h.</desc>
<speed>4.500000</speed>
</trkpt>
<trkpt lat="21.853277" lon="104.861603">
<ele>86.405334</ele>
<time>2011-04-28T09:37:44Z</time>
<desc>lat.=21.853277, lon.=104.861603, Alt.=86.405334m. Speed=13.032000m/h.</desc>
<speed>3.620000</speed>
</trkpt>
<trkpt lat="21.853117" lon="104.861694">
<ele>87.389709</ele>
<time>2011-04-28T09:37:49Z</time>
<desc>lat.=21.853117, lon.=104.861694, Alt.=87.389709m. Speed=13.392000m/h.</desc>
<speed>3.720000</speed>
</trkpt>
<trkpt lat="21.852982" lon="104.861801">
<ele>89.079163</ele>
<time>2011-04-28T09:37:54Z</time>
<desc>lat.=21.852982, lon.=104.861801, Alt.=89.079163m. Speed=10.368000m/h.</desc>
<speed>2.880000</speed>
</trkpt>
<trkpt lat="21.852859" lon="104.861885">
<ele>91.069397</ele>
<time>2011-04-28T09:37:59Z</time>
<desc>lat.=21.852859, lon.=104.861885, Alt.=91.069397m. Speed=7.524000m/h.</desc>
<speed>2.090000</speed>
</trkpt>
<trkpt lat="21.852728" lon="104.861984">
<ele>92.909241</ele>
<time>2011-04-28T09:38:04Z</time>
<desc>lat.=21.852728, lon.=104.861984, Alt.=92.909241m. Speed=6.048000m/h.</desc>
<speed>1.680000</speed>
</trkpt>
<trkpt lat="21.852627" lon="104.862061">
<ele>94.151428</ele>
<time>2011-04-28T09:38:09Z</time>
<desc>lat.=21.852627, lon.=104.862061, Alt.=94.151428m. Speed=7.308000m/h.</desc>
<speed>2.030000</speed>
</trkpt>
<trkpt lat="21.852533" lon="104.862129">
<ele>94.643616</ele>
<time>2011-04-28T09:38:14Z</time>
<desc>lat.=21.852533, lon.=104.862129, Alt.=94.643616m. Speed=7.848000m/h.</desc>
<speed>2.180000</speed>
</trkpt>
<trkpt lat="21.852457" lon="104.862183">
<ele>96.038147</ele>
<time>2011-04-28T09:38:19Z</time>
<desc>lat.=21.852457, lon.=104.862183, Alt.=96.038147m. Speed=6.588000m/h.</desc>
<speed>1.830000</speed>
</trkpt>
<trkpt lat="21.852377" lon="104.862244">
<ele>97.415100</ele>
<time>2011-04-28T09:38:24Z</time>
<desc>lat.=21.852377, lon.=104.862244, Alt.=97.415100m. Speed=6.372000m/h.</desc>
<speed>1.770000</speed>
</trkpt>
<trkpt lat="21.852304" lon="104.862312">
<ele>98.930725</ele>
<time>2011-04-28T09:38:29Z</time>
<desc>lat.=21.852304, lon.=104.862312, Alt.=98.930725m. Speed=5.508000m/h.</desc>
<speed>1.530000</speed>
</trkpt>
<trkpt lat="21.852228" lon="104.862335">
<ele>100.317444</ele>
<time>2011-04-28T09:38:34Z</time>
<desc>lat.=21.852228, lon.=104.862335, Alt.=100.317444m. Speed=5.040000m/h.</desc>
<speed>1.400000</speed>
</trkpt>
<trkpt lat="21.852142" lon="104.862373">
<ele>101.280334</ele>
<time>2011-04-28T09:38:39Z</time>
<desc>lat.=21.852142, lon.=104.862373, Alt.=101.280334m. Speed=7.092000m/h.</desc>
<speed>1.970000</speed>
</trkpt>
<trkpt lat="21.852045" lon="104.862434">
<ele>102.946350</ele>
<time>2011-04-28T09:38:44Z</time>
<desc>lat.=21.852045, lon.=104.862434, Alt.=102.946350m. Speed=6.480000m/h.</desc>
<speed>1.800000</speed>
</trkpt>
<trkpt lat="21.851961" lon="104.862488">
<ele>104.313538</ele>
<time>2011-04-28T09:38:49Z</time>
<desc>lat.=21.851961, lon.=104.862488, Alt.=104.313538m. Speed=6.336000m/h.</desc>
<speed>1.760000</speed>
</trkpt>
<trkpt lat="21.851892" lon="104.862518">
<ele>106.225647</ele>
<time>2011-04-28T09:38:54Z</time>
<desc>lat.=21.851892, lon.=104.862518, Alt.=106.225647m. Speed=5.796000m/h.</desc>
<speed>1.610000</speed>
</trkpt>
<trkpt lat="21.851841" lon="104.862511">
<ele>108.674866</ele>
<time>2011-04-28T09:38:59Z</time>
<desc>lat.=21.851841, lon.=104.862511, Alt.=108.674866m. Speed=4.500000m/h.</desc>
<speed>1.250000</speed>
</trkpt>
<trkpt lat="21.851730" lon="104.862511">
<ele>110.858459</ele>
<time>2011-04-28T09:39:04Z</time>
<desc>lat.=21.851730, lon.=104.862511, Alt.=110.858459m. Speed=8.424000m/h.</desc>
<speed>2.340000</speed>
</trkpt>
<trkpt lat="21.851597" lon="104.862518">
<ele>111.866272</ele>
<time>2011-04-28T09:39:09Z</time>
<desc>lat.=21.851597, lon.=104.862518, Alt.=111.866272m. Speed=10.980000m/h.</desc>
<speed>3.050000</speed>
</trkpt>
<trkpt lat="21.851444" lon="104.862503">
<ele>112.206116</ele>
<time>2011-04-28T09:39:14Z</time>
<desc>lat.=21.851444, lon.=104.862503, Alt.=112.206116m. Speed=10.728000m/h.</desc>
<speed>2.980000</speed>
</trkpt>
<trkpt lat="21.851297" lon="104.862488">
<ele>113.001038</ele>
<time>2011-04-28T09:39:19Z</time>
<desc>lat.=21.851297, lon.=104.862488, Alt.=113.001038m. Speed=10.908000m/h.</desc>
<speed>3.030000</speed>
</trkpt>
<trkpt lat="21.851158" lon="104.862457">
<ele>114.124084</ele>
<time>2011-04-28T09:39:24Z</time>
<desc>lat.=21.851158, lon.=104.862457, Alt.=114.124084m. Speed=7.092000m/h.</desc>
<speed>1.970000</speed>
</trkpt>
<trkpt lat="21.851030" lon="104.862427">
<ele>115.835022</ele>
<time>2011-04-28T09:39:29Z</time>
<desc>lat.=21.851030, lon.=104.862427, Alt.=115.835022m. Speed=11.448000m/h.</desc>
<speed>3.180000</speed>
</trkpt>
<trkpt lat="21.850883" lon="104.862411">
<ele>117.469788</ele>
<time>2011-04-28T09:39:34Z</time>
<desc>lat.=21.850883, lon.=104.862411, Alt.=117.469788m. Speed=9.216000m/h.</desc>
<speed>2.560000</speed>
</trkpt>
<trkpt lat="21.850735" lon="104.862396">
<ele>118.057678</ele>
<time>2011-04-28T09:39:39Z</time>
<desc>lat.=21.850735, lon.=104.862396, Alt.=118.057678m. Speed=10.908000m/h.</desc>
<speed>3.030000</speed>
</trkpt>
<trkpt lat="21.850609" lon="104.862373">
<ele>119.256897</ele>
<time>2011-04-28T09:39:44Z</time>
<desc>lat.=21.850609, lon.=104.862373, Alt.=119.256897m. Speed=9.936000m/h.</desc>
<speed>2.760000</speed>
</trkpt>
<trkpt lat="21.850494" lon="104.862366">
<ele>121.370178</ele>
<time>2011-04-28T09:39:49Z</time>
<desc>lat.=21.850494, lon.=104.862366, Alt.=121.370178m. Speed=9.288000m/h.</desc>
<speed>2.580000</speed>
</trkpt>
<trkpt lat="21.850384" lon="104.862335">
<ele>123.106506</ele>
<time>2011-04-28T09:39:54Z</time>
<desc>lat.=21.850384, lon.=104.862335, Alt.=123.106506m. Speed=9.072000m/h.</desc>
<speed>2.520000</speed>
</trkpt>
<trkpt lat="21.850235" lon="104.862282">
<ele>124.926819</ele>
<time>2011-04-28T09:39:59Z</time>
<desc>lat.=21.850235, lon.=104.862282, Alt.=124.926819m. Speed=10.188000m/h.</desc>
<speed>2.830000</speed>
</trkpt>
<trkpt lat="21.850058" lon="104.862259">
<ele>125.530334</ele>
<time>2011-04-28T09:40:04Z</time>
<desc>lat.=21.850058, lon.=104.862259, Alt.=125.530334m. Speed=13.752000m/h.</desc>
<speed>3.820000</speed>
</trkpt>
<trkpt lat="21.849855" lon="104.862228">
<ele>126.241272</ele>
<time>2011-04-28T09:40:09Z</time>
<desc>lat.=21.849855, lon.=104.862228, Alt.=126.241272m. Speed=18.323999m/h.</desc>
<speed>5.090000</speed>
</trkpt>
<trkpt lat="21.849596" lon="104.862251">
<ele>126.420959</ele>
<time>2011-04-28T09:40:14Z</time>
<desc>lat.=21.849596, lon.=104.862251, Alt.=126.420959m. Speed=23.219999m/h.</desc>
<speed>6.450000</speed>
</trkpt>
<trkpt lat="21.849308" lon="104.862305">
<ele>126.836975</ele>
<time>2011-04-28T09:40:19Z</time>
<desc>lat.=21.849308, lon.=104.862305, Alt.=126.836975m. Speed=23.903999m/h.</desc>
<speed>6.640000</speed>
</trkpt>
<trkpt lat="21.848963" lon="104.862373">
<ele>128.201294</ele>
<time>2011-04-28T09:40:24Z</time>
<desc>lat.=21.848963, lon.=104.862373, Alt.=128.201294m. Speed=24.912001m/h.</desc>
<speed>6.920000</speed>
</trkpt>
<trkpt lat="21.848663" lon="104.862488">
<ele>128.869263</ele>
<time>2011-04-28T09:40:29Z</time>
<desc>lat.=21.848663, lon.=104.862488, Alt.=128.869263m. Speed=22.823999m/h.</desc>
<speed>6.340000</speed>
</trkpt>
<trkpt lat="21.848406" lon="104.862694">
<ele>129.205200</ele>
<time>2011-04-28T09:40:34Z</time>
<desc>lat.=21.848406, lon.=104.862694, Alt.=129.205200m. Speed=22.464001m/h.</desc>
<speed>6.240000</speed>
</trkpt>
<trkpt lat="21.848141" lon="104.862915">
<ele>128.103638</ele>
<time>2011-04-28T09:40:39Z</time>
<desc>lat.=21.848141, lon.=104.862915, Alt.=128.103638m. Speed=22.823999m/h.</desc>
<speed>6.340000</speed>
</trkpt>
<trkpt lat="21.847885" lon="104.863106">
<ele>128.556763</ele>
<time>2011-04-28T09:40:44Z</time>
<desc>lat.=21.847885, lon.=104.863106, Alt.=128.556763m. Speed=20.520000m/h.</desc>
<speed>5.700000</speed>
</trkpt>
<trkpt lat="21.847649" lon="104.863289">
<ele>128.533325</ele>
<time>2011-04-28T09:40:49Z</time>
<desc>lat.=21.847649, lon.=104.863289, Alt.=128.533325m. Speed=16.236000m/h.</desc>
<speed>4.510000</speed>
</trkpt>
<trkpt lat="21.847437" lon="104.863419">
<ele>129.197388</ele>
<time>2011-04-28T09:40:54Z</time>
<desc>lat.=21.847437, lon.=104.863419, Alt.=129.197388m. Speed=15.804000m/h.</desc>
<speed>4.390000</speed>
</trkpt>
<trkpt lat="21.847286" lon="104.863495">
<ele>128.904419</ele>
<time>2011-04-28T09:40:59Z</time>
<desc>lat.=21.847286, lon.=104.863495, Alt.=128.904419m. Speed=9.072000m/h.</desc>
<speed>2.520000</speed>
</trkpt>
<trkpt lat="21.847149" lon="104.863564">
<ele>129.330200</ele>
<time>2011-04-28T09:41:04Z</time>
<desc>lat.=21.847149, lon.=104.863564, Alt.=129.330200m. Speed=14.004000m/h.</desc>
<speed>3.890000</speed>
</trkpt>
<trkpt lat="21.846985" lon="104.863617">
<ele>129.369263</ele>
<time>2011-04-28T09:41:09Z</time>
<desc>lat.=21.846985, lon.=104.863617, Alt.=129.369263m. Speed=11.304000m/h.</desc>
<speed>3.140000</speed>
</trkpt>
<trkpt lat="21.846836" lon="104.863678">
<ele>129.189575</ele>
<time>2011-04-28T09:41:14Z</time>
<desc>lat.=21.846836, lon.=104.863678, Alt.=129.189575m. Speed=12.852000m/h.</desc>
<speed>3.570000</speed>
</trkpt>
<trkpt lat="21.846680" lon="104.863792">
<ele>128.380981</ele>
<time>2011-04-28T09:41:19Z</time>
<desc>lat.=21.846680, lon.=104.863792, Alt.=128.380981m. Speed=15.696000m/h.</desc>
<speed>4.360000</speed>
</trkpt>
<trkpt lat="21.846514" lon="104.863907">
<ele>126.233459</ele>
<time>2011-04-28T09:41:24Z</time>
<desc>lat.=21.846514, lon.=104.863907, Alt.=126.233459m. Speed=11.952000m/h.</desc>
<speed>3.320000</speed>
</trkpt>
<trkpt lat="21.846342" lon="104.864006">
<ele>125.659241</ele>
<time>2011-04-28T09:41:29Z</time>
<desc>lat.=21.846342, lon.=104.864006, Alt.=125.659241m. Speed=16.128000m/h.</desc>
<speed>4.480000</speed>
</trkpt>
<trkpt lat="21.846119" lon="104.864128">
<ele>125.930725</ele>
<time>2011-04-28T09:41:34Z</time>
<desc>lat.=21.846119, lon.=104.864128, Alt.=125.930725m. Speed=17.172001m/h.</desc>
<speed>4.770000</speed>
</trkpt>
<trkpt lat="21.845915" lon="104.864258">
<ele>124.680725</ele>
<time>2011-04-28T09:41:39Z</time>
<desc>lat.=21.845915, lon.=104.864258, Alt.=124.680725m. Speed=15.660000m/h.</desc>
<speed>4.350000</speed>
</trkpt>
<trkpt lat="21.845739" lon="104.864372">
<ele>124.081116</ele>
<time>2011-04-28T09:41:44Z</time>
<desc>lat.=21.845739, lon.=104.864372, Alt.=124.081116m. Speed=15.660000m/h.</desc>
<speed>4.350000</speed>
</trkpt>
<trkpt lat="21.845585" lon="104.864525">
<ele>124.454163</ele>
<time>2011-04-28T09:41:49Z</time>
<desc>lat.=21.845585, lon.=104.864525, Alt.=124.454163m. Speed=17.784000m/h.</desc>
<speed>4.940000</speed>
</trkpt>
<trkpt lat="21.845423" lon="104.864738">
<ele>123.241272</ele>
<time>2011-04-28T09:41:54Z</time>
<desc>lat.=21.845423, lon.=104.864738, Alt.=123.241272m. Speed=20.268000m/h.</desc>
<speed>5.630000</speed>
</trkpt>
<trkpt lat="21.845263" lon="104.864937">
<ele>121.770569</ele>
<time>2011-04-28T09:41:59Z</time>
<desc>lat.=21.845263, lon.=104.864937, Alt.=121.770569m. Speed=17.784000m/h.</desc>
<speed>4.940000</speed>
</trkpt>
<trkpt lat="21.845121" lon="104.865097">
<ele>119.383850</ele>
<time>2011-04-28T09:42:04Z</time>
<desc>lat.=21.845121, lon.=104.865097, Alt.=119.383850m. Speed=14.040000m/h.</desc>
<speed>3.900000</speed>
</trkpt>
<trkpt lat="21.844950" lon="104.865250">
<ele>120.424866</ele>
<time>2011-04-28T09:42:09Z</time>
<desc>lat.=21.844950, lon.=104.865250, Alt.=120.424866m. Speed=15.804000m/h.</desc>
<speed>4.390000</speed>
</trkpt>
<trkpt lat="21.844707" lon="104.865341">
<ele>119.885803</ele>
<time>2011-04-28T09:42:14Z</time>
<desc>lat.=21.844707, lon.=104.865341, Alt.=119.885803m. Speed=26.351999m/h.</desc>
<speed>7.320000</speed>
</trkpt>
<trkpt lat="21.844378" lon="104.865143">
<ele>121.377991</ele>
<time>2011-04-28T09:42:19Z</time>
<desc>lat.=21.844378, lon.=104.865143, Alt.=121.377991m. Speed=30.780001m/h.</desc>
<speed>8.550000</speed>
</trkpt>
<trkpt lat="21.844158" lon="104.864830">
<ele>122.561584</ele>
<time>2011-04-28T09:42:24Z</time>
<desc>lat.=21.844158, lon.=104.864830, Alt.=122.561584m. Speed=24.299999m/h.</desc>
<speed>6.750000</speed>
</trkpt>
<trkpt lat="21.843885" lon="104.864677">
<ele>124.395569</ele>
<time>2011-04-28T09:42:29Z</time>
<desc>lat.=21.843885, lon.=104.864677, Alt.=124.395569m. Speed=23.796000m/h.</desc>
<speed>6.610000</speed>
</trkpt>
<trkpt lat="21.843536" lon="104.864777">
<ele>123.985413</ele>
<time>2011-04-28T09:42:34Z</time>
<desc>lat.=21.843536, lon.=104.864777, Alt.=123.985413m. Speed=23.688000m/h.</desc>
<speed>6.580000</speed>
</trkpt>
<trkpt lat="21.843298" lon="104.865013">
<ele>119.626038</ele>
<time>2011-04-28T09:42:39Z</time>
<desc>lat.=21.843298, lon.=104.865013, Alt.=119.626038m. Speed=25.884001m/h.</desc>
<speed>7.190000</speed>
</trkpt>
<trkpt lat="21.843145" lon="104.865379">
<ele>114.518616</ele>
<time>2011-04-28T09:42:44Z</time>
<desc>lat.=21.843145, lon.=104.865379, Alt.=114.518616m. Speed=28.728001m/h.</desc>
<speed>7.980000</speed>
</trkpt>
<trkpt lat="21.842890" lon="104.865700">
<ele>110.561584</ele>
<time>2011-04-28T09:42:49Z</time>
<desc>lat.=21.842890, lon.=104.865700, Alt.=110.561584m. Speed=31.535999m/h.</desc>
<speed>8.760000</speed>
</trkpt>
<trkpt lat="21.842556" lon="104.865944">
<ele>101.502991</ele>
<time>2011-04-28T09:42:54Z</time>
<desc>lat.=21.842556, lon.=104.865944, Alt.=101.502991m. Speed=30.600000m/h.</desc>
<speed>8.500000</speed>
</trkpt>
<trkpt lat="21.842218" lon="104.866165">
<ele>97.262756</ele>
<time>2011-04-28T09:42:59Z</time>
<desc>lat.=21.842218, lon.=104.866165, Alt.=97.262756m. Speed=29.952000m/h.</desc>
<speed>8.320000</speed>
</trkpt>
<trkpt lat="21.841969" lon="104.866417">
<ele>97.030334</ele>
<time>2011-04-28T09:43:04Z</time>
<desc>lat.=21.841969, lon.=104.866417, Alt.=97.030334m. Speed=24.875999m/h.</desc>
<speed>6.910000</speed>
</trkpt>
<trkpt lat="21.841837" lon="104.866714">
<ele>97.762756</ele>
<time>2011-04-28T09:43:09Z</time>
<desc>lat.=21.841837, lon.=104.866714, Alt.=97.762756m. Speed=27.216000m/h.</desc>
<speed>7.560000</speed>
</trkpt>
<trkpt lat="21.841730" lon="104.867035">
<ele>99.827209</ele>
<time>2011-04-28T09:43:14Z</time>
<desc>lat.=21.841730, lon.=104.867035, Alt.=99.827209m. Speed=25.667999m/h.</desc>
<speed>7.130000</speed>
</trkpt>
<trkpt lat="21.841627" lon="104.867348">
<ele>102.522522</ele>
<time>2011-04-28T09:43:19Z</time>
<desc>lat.=21.841627, lon.=104.867348, Alt.=102.522522m. Speed=23.760000m/h.</desc>
<speed>6.600000</speed>
</trkpt>
<trkpt lat="21.841528" lon="104.867653">
<ele>105.147522</ele>
<time>2011-04-28T09:43:24Z</time>
<desc>lat.=21.841528, lon.=104.867653, Alt.=105.147522m. Speed=21.959999m/h.</desc>
<speed>6.100000</speed>
</trkpt>
<trkpt lat="21.841385" lon="104.867905">
<ele>107.520569</ele>
<time>2011-04-28T09:43:29Z</time>
<desc>lat.=21.841385, lon.=104.867905, Alt.=107.520569m. Speed=21.384001m/h.</desc>
<speed>5.940000</speed>
</trkpt>
<trkpt lat="21.841177" lon="104.868118">
<ele>107.514709</ele>
<time>2011-04-28T09:43:34Z</time>
<desc>lat.=21.841177, lon.=104.868118, Alt.=107.514709m. Speed=23.903999m/h.</desc>
<speed>6.640000</speed>
</trkpt>
<trkpt lat="21.840973" lon="104.868370">
<ele>108.963928</ele>
<time>2011-04-28T09:43:39Z</time>
<desc>lat.=21.840973, lon.=104.868370, Alt.=108.963928m. Speed=28.080000m/h.</desc>
<speed>7.800000</speed>
</trkpt>
<trkpt lat="21.840710" lon="104.868698">
<ele>110.219788</ele>
<time>2011-04-28T09:43:44Z</time>
<desc>lat.=21.840710, lon.=104.868698, Alt.=110.219788m. Speed=33.731998m/h.</desc>
<speed>9.370000</speed>
</trkpt>
<trkpt lat="21.840376" lon="104.868980">
<ele>111.702209</ele>
<time>2011-04-28T09:43:49Z</time>
<desc>lat.=21.840376, lon.=104.868980, Alt.=111.702209m. Speed=31.139999m/h.</desc>
<speed>8.650000</speed>
</trkpt>
<trkpt lat="21.840057" lon="104.869202">
<ele>112.979553</ele>
<time>2011-04-28T09:43:54Z</time>
<desc>lat.=21.840057, lon.=104.869202, Alt.=112.979553m. Speed=26.927999m/h.</desc>
<speed>7.480000</speed>
</trkpt>
<trkpt lat="21.839800" lon="104.869362">
<ele>114.118225</ele>
<time>2011-04-28T09:43:59Z</time>
<desc>lat.=21.839800, lon.=104.869362, Alt.=114.118225m. Speed=19.836000m/h.</desc>
<speed>5.510000</speed>
</trkpt>
<trkpt lat="21.839632" lon="104.869537">
<ele>115.104553</ele>
<time>2011-04-28T09:44:04Z</time>
<desc>lat.=21.839632, lon.=104.869537, Alt.=115.104553m. Speed=17.927999m/h.</desc>
<speed>4.980000</speed>
</trkpt>
<trkpt lat="21.839462" lon="104.869766">
<ele>115.540100</ele>
<time>2011-04-28T09:44:09Z</time>
<desc>lat.=21.839462, lon.=104.869766, Alt.=115.540100m. Speed=17.388000m/h.</desc>
<speed>4.830000</speed>
</trkpt>
<trkpt lat="21.839310" lon="104.869972">
<ele>115.569397</ele>
<time>2011-04-28T09:44:14Z</time>
<desc>lat.=21.839310, lon.=104.869972, Alt.=115.569397m. Speed=14.688000m/h.</desc>
<speed>4.080000</speed>
</trkpt>
<trkpt lat="21.839165" lon="104.870148">
<ele>115.002991</ele>
<time>2011-04-28T09:44:19Z</time>
<desc>lat.=21.839165, lon.=104.870148, Alt.=115.002991m. Speed=15.732000m/h.</desc>
<speed>4.370000</speed>
</trkpt>
<trkpt lat="21.839001" lon="104.870300">
<ele>114.780334</ele>
<time>2011-04-28T09:44:24Z</time>
<desc>lat.=21.839001, lon.=104.870300, Alt.=114.780334m. Speed=17.964001m/h.</desc>
<speed>4.990000</speed>
</trkpt>
<trkpt lat="21.838823" lon="104.870476">
<ele>113.823303</ele>
<time>2011-04-28T09:44:29Z</time>
<desc>lat.=21.838823, lon.=104.870476, Alt.=113.823303m. Speed=21.096001m/h.</desc>
<speed>5.860000</speed>
</trkpt>
<trkpt lat="21.838598" lon="104.870682">
<ele>113.920959</ele>
<time>2011-04-28T09:44:34Z</time>
<desc>lat.=21.838598, lon.=104.870682, Alt.=113.920959m. Speed=22.500000m/h.</desc>
<speed>6.250000</speed>
</trkpt>
<trkpt lat="21.838331" lon="104.870857">
<ele>112.684631</ele>
<time>2011-04-28T09:44:39Z</time>
<desc>lat.=21.838331, lon.=104.870857, Alt.=112.684631m. Speed=23.868000m/h.</desc>
<speed>6.630000</speed>
</trkpt>
<trkpt lat="21.838095" lon="104.870911">
<ele>109.692444</ele>
<time>2011-04-28T09:44:44Z</time>
<desc>lat.=21.838095, lon.=104.870911, Alt.=109.692444m. Speed=19.980000m/h.</desc>
<speed>5.550000</speed>
</trkpt>
<trkpt lat="21.837862" lon="104.870819">
<ele>109.137756</ele>
<time>2011-04-28T09:44:49Z</time>
<desc>lat.=21.837862, lon.=104.870819, Alt.=109.137756m. Speed=17.388000m/h.</desc>
<speed>4.830000</speed>
</trkpt>
<trkpt lat="21.837696" lon="104.870743">
<ele>108.581116</ele>
<time>2011-04-28T09:44:54Z</time>
<desc>lat.=21.837696, lon.=104.870743, Alt.=108.581116m. Speed=11.592000m/h.</desc>
<speed>3.220000</speed>
</trkpt>
<trkpt lat="21.837536" lon="104.870651">
<ele>108.573303</ele>
<time>2011-04-28T09:44:59Z</time>
<desc>lat.=21.837536, lon.=104.870651, Alt.=108.573303m. Speed=15.300000m/h.</desc>
<speed>4.250000</speed>
</trkpt>
<trkpt lat="21.837351" lon="104.870636">
<ele>109.202209</ele>
<time>2011-04-28T09:45:04Z</time>
<desc>lat.=21.837351, lon.=104.870636, Alt.=109.202209m. Speed=12.924000m/h.</desc>
<speed>3.590000</speed>
</trkpt>
<trkpt lat="21.837181" lon="104.870628">
<ele>107.627991</ele>
<time>2011-04-28T09:45:09Z</time>
<desc>lat.=21.837181, lon.=104.870628, Alt.=107.627991m. Speed=11.556000m/h.</desc>
<speed>3.210000</speed>
</trkpt>
<trkpt lat="21.837069" lon="104.870636">
<ele>107.745178</ele>
<time>2011-04-28T09:45:14Z</time>
<desc>lat.=21.837069, lon.=104.870636, Alt.=107.745178m. Speed=8.532000m/h.</desc>
<speed>2.370000</speed>
</trkpt>
<trkpt lat="21.836979" lon="104.870667">
<ele>107.909241</ele>
<time>2011-04-28T09:45:19Z</time>
<desc>lat.=21.836979, lon.=104.870667, Alt.=107.909241m. Speed=3.924000m/h.</desc>
<speed>1.090000</speed>
</trkpt>
<trkpt lat="21.836929" lon="104.870667">
<ele>103.928772</ele>
<time>2011-04-28T09:45:24Z</time>
<desc>lat.=21.836929, lon.=104.870667, Alt.=103.928772m. Speed=0.180000m/h.</desc>
<speed>0.050000</speed>
</trkpt>
<trkpt lat="21.836931" lon="104.870667">
<ele>103.540100</ele>
<time>2011-04-28T09:45:29Z</time>
<desc>lat.=21.836931, lon.=104.870667, Alt.=103.540100m. Speed=0.432000m/h.</desc>
<speed>0.120000</speed>
</trkpt>
<trkpt lat="21.836931" lon="104.870667">
<ele>103.471741</ele>
<time>2011-04-28T09:45:34Z</time>
<desc>lat.=21.836931, lon.=104.870667, Alt.=103.471741m. Speed=0.684000m/h.</desc>
<speed>0.190000</speed>
</trkpt>
<trkpt lat="21.836927" lon="104.870667">
<ele>103.415100</ele>
<time>2011-04-28T09:45:39Z</time>
<desc>lat.=21.836927, lon.=104.870667, Alt.=103.415100m. Speed=0.216000m/h.</desc>
<speed>0.060000</speed>
</trkpt>
<trkpt lat="21.836927" lon="104.870667">
<ele>103.366272</ele>
<time>2011-04-28T09:45:44Z</time>
<desc>lat.=21.836927, lon.=104.870667, Alt.=103.366272m. Speed=0.108000m/h.</desc>
<speed>0.030000</speed>
</trkpt>
<trkpt lat="21.836927" lon="104.870667">
<ele>103.325256</ele>
<time>2011-04-28T09:45:49Z</time>
<desc>lat.=21.836927, lon.=104.870667, Alt.=103.325256m. Speed=0.108000m/h.</desc>
<speed>0.030000</speed>
</trkpt>
<trkpt lat="21.836927" lon="104.870667">
<ele>103.282288</ele>
<time>2011-04-28T09:45:54Z</time>
<desc>lat.=21.836927, lon.=104.870667, Alt.=103.282288m. Speed=0.144000m/h.</desc>
<speed>0.040000</speed>
</trkpt>
<trkpt lat="21.836927" lon="104.870667">
<ele>103.211975</ele>
<time>2011-04-28T09:45:59Z</time>
<desc>lat.=21.836927, lon.=104.870667, Alt.=103.211975m. Speed=0.108000m/h.</desc>
<speed>0.030000</speed>
</trkpt>
<trkpt lat="21.836926" lon="104.870667">
<ele>103.131897</ele>
<time>2011-04-28T09:46:04Z</time>
<desc>lat.=21.836926, lon.=104.870667, Alt.=103.131897m. Speed=0.000000m/h.</desc>
<speed>0.000000</speed>
</trkpt>
<trkpt lat="21.836926" lon="104.870667">
<ele>103.051819</ele>
<time>2011-04-28T09:46:09Z</time>
<desc>lat.=21.836926, lon.=104.870667, Alt.=103.051819m. Speed=0.036000m/h.</desc>
<speed>0.010000</speed>
</trkpt>
<trkpt lat="21.836926" lon="104.870667">
<ele>102.993225</ele>
<time>2011-04-28T09:46:14Z</time>
<desc>lat.=21.836926, lon.=104.870667, Alt.=102.993225m. Speed=0.180000m/h.</desc>
<speed>0.050000</speed>
</trkpt>
<trkpt lat="21.836926" lon="104.870667">
<ele>102.926819</ele>
<time>2011-04-28T09:46:19Z</time>
<desc>lat.=21.836926, lon.=104.870667, Alt.=102.926819m. Speed=0.072000m/h.</desc>
<speed>0.020000</speed>
</trkpt>
<trkpt lat="21.836926" lon="104.870667">
<ele>102.872131</ele>
<time>2011-04-28T09:46:24Z</time>
<desc>lat.=21.836926, lon.=104.870667, Alt.=102.872131m. Speed=0.252000m/h.</desc>
<speed>0.070000</speed>
</trkpt>
<trkpt lat="21.836927" lon="104.870667">
<ele>102.827209</ele>
<time>2011-04-28T09:46:29Z</time>
<desc>lat.=21.836927, lon.=104.870667, Alt.=102.827209m. Speed=0.108000m/h.</desc>
<speed>0.030000</speed>
</trkpt>
<trkpt lat="21.836927" lon="104.870667">
<ele>102.768616</ele>
<time>2011-04-28T09:46:34Z</time>
<desc>lat.=21.836927, lon.=104.870667, Alt.=102.768616m. Speed=0.180000m/h.</desc>
<speed>0.050000</speed>
</trkpt>
<trkpt lat="21.836927" lon="104.870659">
<ele>102.710022</ele>
<time>2011-04-28T09:46:39Z</time>
<desc>lat.=21.836927, lon.=104.870659, Alt.=102.710022m. Speed=0.360000m/h.</desc>
<speed>0.100000</speed>
</trkpt>
<trkpt lat="21.836927" lon="104.870659">
<ele>102.682678</ele>
<time>2011-04-28T09:46:44Z</time>
<desc>lat.=21.836927, lon.=104.870659, Alt.=102.682678m. Speed=0.324000m/h.</desc>
<speed>0.090000</speed>
</trkpt>
<trkpt lat="21.836910" lon="104.870651">
<ele>102.659241</ele>
<time>2011-04-28T09:46:49Z</time>
<desc>lat.=21.836910, lon.=104.870651, Alt.=102.659241m. Speed=5.184000m/h.</desc>
<speed>1.440000</speed>
</trkpt>
<trkpt lat="21.836750" lon="104.870644">
<ele>100.493225</ele>
<time>2011-04-28T09:46:54Z</time>
<desc>lat.=21.836750, lon.=104.870644, Alt.=100.493225m. Speed=12.240000m/h.</desc>
<speed>3.400000</speed>
</trkpt>
<trkpt lat="21.836573" lon="104.870613">
<ele>99.456116</ele>
<time>2011-04-28T09:46:59Z</time>
<desc>lat.=21.836573, lon.=104.870613, Alt.=99.456116m. Speed=14.904000m/h.</desc>
<speed>4.140000</speed>
</trkpt>
<trkpt lat="21.836370" lon="104.870560">
<ele>98.458069</ele>
<time>2011-04-28T09:47:04Z</time>
<desc>lat.=21.836370, lon.=104.870560, Alt.=98.458069m. Speed=16.488001m/h.</desc>
<speed>4.580000</speed>
</trkpt>
<trkpt lat="21.836134" lon="104.870583">
<ele>96.665100</ele>
<time>2011-04-28T09:47:09Z</time>
<desc>lat.=21.836134, lon.=104.870583, Alt.=96.665100m. Speed=19.584000m/h.</desc>
<speed>5.440000</speed>
</trkpt>
<trkpt lat="21.835892" lon="104.870697">
<ele>95.700256</ele>
<time>2011-04-28T09:47:14Z</time>
<desc>lat.=21.835892, lon.=104.870697, Alt.=95.700256m. Speed=20.375999m/h.</desc>
<speed>5.660000</speed>
</trkpt>
<trkpt lat="21.835672" lon="104.870995">
<ele>87.475647</ele>
<time>2011-04-28T09:47:19Z</time>
<desc>lat.=21.835672, lon.=104.870995, Alt.=87.475647m. Speed=25.200001m/h.</desc>
<speed>7.000000</speed>
</trkpt>
<trkpt lat="21.835491" lon="104.871330">
<ele>81.405334</ele>
<time>2011-04-28T09:47:24Z</time>
<desc>lat.=21.835491, lon.=104.871330, Alt.=81.405334m. Speed=30.096001m/h.</desc>
<speed>8.360000</speed>
</trkpt>
<trkpt lat="21.835340" lon="104.871712">
<ele>76.122131</ele>
<time>2011-04-28T09:47:29Z</time>
<desc>lat.=21.835340, lon.=104.871712, Alt.=76.122131m. Speed=29.124001m/h.</desc>
<speed>8.090000</speed>
</trkpt>
<trkpt lat="21.835207" lon="104.872070">
<ele>73.557678</ele>
<time>2011-04-28T09:47:34Z</time>
<desc>lat.=21.835207, lon.=104.872070, Alt.=73.557678m. Speed=28.080000m/h.</desc>
<speed>7.800000</speed>
</trkpt>
<trkpt lat="21.835016" lon="104.872307">
<ele>70.676819</ele>
<time>2011-04-28T09:47:39Z</time>
<desc>lat.=21.835016, lon.=104.872307, Alt.=70.676819m. Speed=22.139999m/h.</desc>
<speed>6.150000</speed>
</trkpt>
<trkpt lat="21.834778" lon="104.872536">
<ele>70.405334</ele>
<time>2011-04-28T09:47:44Z</time>
<desc>lat.=21.834778, lon.=104.872536, Alt.=70.405334m. Speed=23.148001m/h.</desc>
<speed>6.430000</speed>
</trkpt>
<trkpt lat="21.834572" lon="104.872726">
<ele>69.840881</ele>
<time>2011-04-28T09:47:49Z</time>
<desc>lat.=21.834572, lon.=104.872726, Alt.=69.840881m. Speed=20.736000m/h.</desc>
<speed>5.760000</speed>
</trkpt>
<trkpt lat="21.834375" lon="104.872902">
<ele>68.440491</ele>
<time>2011-04-28T09:47:54Z</time>
<desc>lat.=21.834375, lon.=104.872902, Alt.=68.440491m. Speed=18.900000m/h.</desc>
<speed>5.250000</speed>
</trkpt>
<trkpt lat="21.834162" lon="104.873077">
<ele>67.571350</ele>
<time>2011-04-28T09:47:59Z</time>
<desc>lat.=21.834162, lon.=104.873077, Alt.=67.571350m. Speed=19.368000m/h.</desc>
<speed>5.380000</speed>
</trkpt>
<trkpt lat="21.833935" lon="104.873276">
<ele>69.266663</ele>
<time>2011-04-28T09:48:04Z</time>
<desc>lat.=21.833935, lon.=104.873276, Alt.=69.266663m. Speed=24.587999m/h.</desc>
<speed>6.830000</speed>
</trkpt>
<trkpt lat="21.833639" lon="104.873436">
<ele>69.766663</ele>
<time>2011-04-28T09:48:09Z</time>
<desc>lat.=21.833639, lon.=104.873436, Alt.=69.766663m. Speed=27.504000m/h.</desc>
<speed>7.640000</speed>
</trkpt>
<trkpt lat="21.833256" lon="104.873489">
<ele>69.217834</ele>
<time>2011-04-28T09:48:14Z</time>
<desc>lat.=21.833256, lon.=104.873489, Alt.=69.217834m. Speed=33.119999m/h.</desc>
<speed>9.200000</speed>
</trkpt>
<trkpt lat="21.832844" lon="104.873535">
<ele>67.635803</ele>
<time>2011-04-28T09:48:19Z</time>
<desc>lat.=21.832844, lon.=104.873535, Alt.=67.635803m. Speed=31.139999m/h.</desc>
<speed>8.650000</speed>
</trkpt>
<trkpt lat="21.832497" lon="104.873642">
<ele>67.069397</ele>
<time>2011-04-28T09:48:24Z</time>
<desc>lat.=21.832497, lon.=104.873642, Alt.=67.069397m. Speed=27.431999m/h.</desc>
<speed>7.620000</speed>
</trkpt>
<trkpt lat="21.832226" lon="104.873848">
<ele>67.995178</ele>
<time>2011-04-28T09:48:29Z</time>
<desc>lat.=21.832226, lon.=104.873848, Alt.=67.995178m. Speed=27.000000m/h.</desc>
<speed>7.500000</speed>
</trkpt>
<trkpt lat="21.832039" lon="104.874084">
<ele>68.514709</ele>
<time>2011-04-28T09:48:34Z</time>
<desc>lat.=21.832039, lon.=104.874084, Alt.=68.514709m. Speed=21.024000m/h.</desc>
<speed>5.840000</speed>
</trkpt>
<trkpt lat="21.831875" lon="104.874359">
<ele>69.116272</ele>
<time>2011-04-28T09:48:39Z</time>
<desc>lat.=21.831875, lon.=104.874359, Alt.=69.116272m. Speed=21.528000m/h.</desc>
<speed>5.980000</speed>
</trkpt>
<trkpt lat="21.831720" lon="104.874588">
<ele>69.735413</ele>
<time>2011-04-28T09:48:44Z</time>
<desc>lat.=21.831720, lon.=104.874588, Alt.=69.735413m. Speed=18.396000m/h.</desc>
<speed>5.110000</speed>
</trkpt>
<trkpt lat="21.831512" lon="104.874771">
<ele>70.192444</ele>
<time>2011-04-28T09:48:49Z</time>
<desc>lat.=21.831512, lon.=104.874771, Alt.=70.192444m. Speed=17.172001m/h.</desc>
<speed>4.770000</speed>
</trkpt>
<trkpt lat="21.831301" lon="104.874916">
<ele>71.323303</ele>
<time>2011-04-28T09:48:54Z</time>
<desc>lat.=21.831301, lon.=104.874916, Alt.=71.323303m. Speed=15.696000m/h.</desc>
<speed>4.360000</speed>
</trkpt>
<trkpt lat="21.831120" lon="104.875000">
<ele>71.991272</ele>
<time>2011-04-28T09:48:59Z</time>
<desc>lat.=21.831120, lon.=104.875000, Alt.=71.991272m. Speed=13.932000m/h.</desc>
<speed>3.870000</speed>
</trkpt>
<trkpt lat="21.830898" lon="104.875099">
<ele>73.438538</ele>
<time>2011-04-28T09:49:04Z</time>
<desc>lat.=21.830898, lon.=104.875099, Alt.=73.438538m. Speed=17.172001m/h.</desc>
<speed>4.770000</speed>
</trkpt>
<trkpt lat="21.830677" lon="104.875183">
<ele>73.629944</ele>
<time>2011-04-28T09:49:09Z</time>
<desc>lat.=21.830677, lon.=104.875183, Alt.=73.629944m. Speed=12.240000m/h.</desc>
<speed>3.400000</speed>
</trkpt>
<trkpt lat="21.830534" lon="104.875214">
<ele>76.872131</ele>
<time>2011-04-28T09:49:14Z</time>
<desc>lat.=21.830534, lon.=104.875214, Alt.=76.872131m. Speed=8.784000m/h.</desc>
<speed>2.440000</speed>
</trkpt>
<trkpt lat="21.830355" lon="104.875252">
<ele>82.596741</ele>
<time>2011-04-28T09:49:19Z</time>
<desc>lat.=21.830355, lon.=104.875252, Alt.=82.596741m. Speed=13.392000m/h.</desc>
<speed>3.720000</speed>
</trkpt>
<trkpt lat="21.830133" lon="104.875320">
<ele>84.967834</ele>
<time>2011-04-28T09:49:24Z</time>
<desc>lat.=21.830133, lon.=104.875320, Alt.=84.967834m. Speed=20.124001m/h.</desc>
<speed>5.590000</speed>
</trkpt>
<trkpt lat="21.829828" lon="104.875397">
<ele>85.360413</ele>
<time>2011-04-28T09:49:29Z</time>
<desc>lat.=21.829828, lon.=104.875397, Alt.=85.360413m. Speed=27.035999m/h.</desc>
<speed>7.510000</speed>
</trkpt>
<trkpt lat="21.829491" lon="104.875595">
<ele>79.317444</ele>
<time>2011-04-28T09:49:34Z</time>
<desc>lat.=21.829491, lon.=104.875595, Alt.=79.317444m. Speed=30.312000m/h.</desc>
<speed>8.420000</speed>
</trkpt>
<trkpt lat="21.829174" lon="104.875885">
<ele>73.538147</ele>
<time>2011-04-28T09:49:39Z</time>
<desc>lat.=21.829174, lon.=104.875885, Alt.=73.538147m. Speed=32.220001m/h.</desc>
<speed>8.950000</speed>
</trkpt>
<trkpt lat="21.828884" lon="104.876160">
<ele>70.741272</ele>
<time>2011-04-28T09:49:44Z</time>
<desc>lat.=21.828884, lon.=104.876160, Alt.=70.741272m. Speed=28.007999m/h.</desc>
<speed>7.780000</speed>
</trkpt>
<trkpt lat="21.828642" lon="104.876389">
<ele>69.178772</ele>
<time>2011-04-28T09:49:49Z</time>
<desc>lat.=21.828642, lon.=104.876389, Alt.=69.178772m. Speed=21.924000m/h.</desc>
<speed>6.090000</speed>
</trkpt>
<trkpt lat="21.828440" lon="104.876602">
<ele>64.979553</ele>
<time>2011-04-28T09:49:54Z</time>
<desc>lat.=21.828440, lon.=104.876602, Alt.=64.979553m. Speed=24.048000m/h.</desc>
<speed>6.680000</speed>
</trkpt>
<trkpt lat="21.828203" lon="104.876831">
<ele>64.831116</ele>
<time>2011-04-28T09:49:59Z</time>
<desc>lat.=21.828203, lon.=104.876831, Alt.=64.831116m. Speed=26.136000m/h.</desc>
<speed>7.260000</speed>
</trkpt>
<trkpt lat="21.827969" lon="104.877068">
<ele>66.024475</ele>
<time>2011-04-28T09:50:04Z</time>
<desc>lat.=21.827969, lon.=104.877068, Alt.=66.024475m. Speed=22.284000m/h.</desc>
<speed>6.190000</speed>
</trkpt>
<trkpt lat="21.827742" lon="104.877296">
<ele>67.309631</ele>
<time>2011-04-28T09:50:09Z</time>
<desc>lat.=21.827742, lon.=104.877296, Alt.=67.309631m. Speed=23.688000m/h.</desc>
<speed>6.580000</speed>
</trkpt>
<trkpt lat="21.827532" lon="104.877510">
<ele>68.471741</ele>
<time>2011-04-28T09:50:14Z</time>
<desc>lat.=21.827532, lon.=104.877510, Alt.=68.471741m. Speed=21.384001m/h.</desc>
<speed>5.940000</speed>
</trkpt>
<trkpt lat="21.827353" lon="104.877701">
<ele>69.221741</ele>
<time>2011-04-28T09:50:19Z</time>
<desc>lat.=21.827353, lon.=104.877701, Alt.=69.221741m. Speed=19.620001m/h.</desc>
<speed>5.450000</speed>
</trkpt>
<trkpt lat="21.827168" lon="104.877884">
<ele>68.493225</ele>
<time>2011-04-28T09:50:24Z</time>
<desc>lat.=21.827168, lon.=104.877884, Alt.=68.493225m. Speed=19.799999m/h.</desc>
<speed>5.500000</speed>
</trkpt>
<trkpt lat="21.826984" lon="104.878090">
<ele>67.932678</ele>
<time>2011-04-28T09:50:29Z</time>
<desc>lat.=21.826984, lon.=104.878090, Alt.=67.932678m. Speed=21.167999m/h.</desc>
<speed>5.880000</speed>
</trkpt>
<trkpt lat="21.826866" lon="104.878380">
<ele>68.897522</ele>
<time>2011-04-28T09:50:34Z</time>
<desc>lat.=21.826866, lon.=104.878380, Alt.=68.897522m. Speed=26.712000m/h.</desc>
<speed>7.420000</speed>
</trkpt>
<trkpt lat="21.826777" lon="104.878738">
<ele>69.889709</ele>
<time>2011-04-28T09:50:39Z</time>
<desc>lat.=21.826777, lon.=104.878738, Alt.=69.889709m. Speed=28.403999m/h.</desc>
<speed>7.890000</speed>
</trkpt>
<trkpt lat="21.826492" lon="104.878967">
<ele>67.131897</ele>
<time>2011-04-28T09:50:44Z</time>
<desc>lat.=21.826492, lon.=104.878967, Alt.=67.131897m. Speed=26.208000m/h.</desc>
<speed>7.280000</speed>
</trkpt>
<trkpt lat="21.826195" lon="104.879135">
<ele>67.028381</ele>
<time>2011-04-28T09:50:49Z</time>
<desc>lat.=21.826195, lon.=104.879135, Alt.=67.028381m. Speed=27.612000m/h.</desc>
<speed>7.670000</speed>
</trkpt>
<trkpt lat="21.825960" lon="104.879402">
<ele>68.151428</ele>
<time>2011-04-28T09:50:54Z</time>
<desc>lat.=21.825960, lon.=104.879402, Alt.=68.151428m. Speed=26.424000m/h.</desc>
<speed>7.340000</speed>
</trkpt>
<trkpt lat="21.825752" lon="104.879669">
<ele>66.995178</ele>
<time>2011-04-28T09:50:59Z</time>
<desc>lat.=21.825752, lon.=104.879669, Alt.=66.995178m. Speed=24.660000m/h.</desc>
<speed>6.850000</speed>
</trkpt>
<trkpt lat="21.825510" lon="104.879875">
<ele>67.143616</ele>
<time>2011-04-28T09:51:04Z</time>
<desc>lat.=21.825510, lon.=104.879875, Alt.=67.143616m. Speed=23.760000m/h.</desc>
<speed>6.600000</speed>
</trkpt>
<trkpt lat="21.825243" lon="104.880005">
<ele>67.262756</ele>
<time>2011-04-28T09:51:09Z</time>
<desc>lat.=21.825243, lon.=104.880005, Alt.=67.262756m. Speed=20.268000m/h.</desc>
<speed>5.630000</speed>
</trkpt>
<trkpt lat="21.824986" lon="104.880066">
<ele>68.467834</ele>
<time>2011-04-28T09:51:14Z</time>
<desc>lat.=21.824986, lon.=104.880066, Alt.=68.467834m. Speed=21.996000m/h.</desc>
<speed>6.110000</speed>
</trkpt>
<trkpt lat="21.824724" lon="104.880180">
<ele>69.458069</ele>
<time>2011-04-28T09:51:19Z</time>
<desc>lat.=21.824724, lon.=104.880180, Alt.=69.458069m. Speed=23.076000m/h.</desc>
<speed>6.410000</speed>
</trkpt>
<trkpt lat="21.824446" lon="104.880356">
<ele>69.167053</ele>
<time>2011-04-28T09:51:24Z</time>
<desc>lat.=21.824446, lon.=104.880356, Alt.=69.167053m. Speed=24.444000m/h.</desc>
<speed>6.790000</speed>
</trkpt>
<trkpt lat="21.824162" lon="104.880508">
<ele>69.272522</ele>
<time>2011-04-28T09:51:29Z</time>
<desc>lat.=21.824162, lon.=104.880508, Alt.=69.272522m. Speed=23.148001m/h.</desc>
<speed>6.430000</speed>
</trkpt>
<trkpt lat="21.823860" lon="104.880554">
<ele>69.155334</ele>
<time>2011-04-28T09:51:34Z</time>
<desc>lat.=21.823860, lon.=104.880554, Alt.=69.155334m. Speed=23.688000m/h.</desc>
<speed>6.580000</speed>
</trkpt>
<trkpt lat="21.823559" lon="104.880470">
<ele>69.061584</ele>
<time>2011-04-28T09:51:39Z</time>
<desc>lat.=21.823559, lon.=104.880470, Alt.=69.061584m. Speed=23.652000m/h.</desc>
<speed>6.570000</speed>
</trkpt>
<trkpt lat="21.823311" lon="104.880333">
<ele>69.549866</ele>
<time>2011-04-28T09:51:44Z</time>
<desc>lat.=21.823311, lon.=104.880333, Alt.=69.549866m. Speed=19.656000m/h.</desc>
<speed>5.460000</speed>
</trkpt>
<trkpt lat="21.823118" lon="104.880226">
<ele>70.155334</ele>
<time>2011-04-28T09:51:49Z</time>
<desc>lat.=21.823118, lon.=104.880226, Alt.=70.155334m. Speed=16.524000m/h.</desc>
<speed>4.590000</speed>
</trkpt>
<trkpt lat="21.822947" lon="104.880165">
<ele>70.475647</ele>
<time>2011-04-28T09:51:54Z</time>
<desc>lat.=21.822947, lon.=104.880165, Alt.=70.475647m. Speed=11.556000m/h.</desc>
<speed>3.210000</speed>
</trkpt>
<trkpt lat="21.822802" lon="104.880112">
<ele>70.354553</ele>
<time>2011-04-28T09:51:59Z</time>
<desc>lat.=21.822802, lon.=104.880112, Alt.=70.354553m. Speed=13.248000m/h.</desc>
<speed>3.680000</speed>
</trkpt>
<trkpt lat="21.822664" lon="104.880051">
<ele>70.940491</ele>
<time>2011-04-28T09:52:04Z</time>
<desc>lat.=21.822664, lon.=104.880051, Alt.=70.940491m. Speed=10.548000m/h.</desc>
<speed>2.930000</speed>
</trkpt>
<trkpt lat="21.822533" lon="104.880035">
<ele>71.993225</ele>
<time>2011-04-28T09:52:09Z</time>
<desc>lat.=21.822533, lon.=104.880035, Alt.=71.993225m. Speed=4.068000m/h.</desc>
<speed>1.130000</speed>
</trkpt>
<trkpt lat="21.822430" lon="104.880043">
<ele>72.807678</ele>
<time>2011-04-28T09:52:14Z</time>
<desc>lat.=21.822430, lon.=104.880043, Alt.=72.807678m. Speed=9.180000m/h.</desc>
<speed>2.550000</speed>
</trkpt>
<trkpt lat="21.822304" lon="104.880089">
<ele>73.254944</ele>
<time>2011-04-28T09:52:19Z</time>
<desc>lat.=21.822304, lon.=104.880089, Alt.=73.254944m. Speed=10.764000m/h.</desc>
<speed>2.990000</speed>
</trkpt>
<trkpt lat="21.822123" lon="104.880203">
<ele>71.672913</ele>
<time>2011-04-28T09:52:24Z</time>
<desc>lat.=21.822123, lon.=104.880203, Alt.=71.672913m. Speed=12.024000m/h.</desc>
<speed>3.340000</speed>
</trkpt>
<trkpt lat="21.821999" lon="104.880318">
<ele>70.624084</ele>
<time>2011-04-28T09:52:29Z</time>
<desc>lat.=21.821999, lon.=104.880318, Alt.=70.624084m. Speed=11.988000m/h.</desc>
<speed>3.330000</speed>
</trkpt>
<trkpt lat="21.821869" lon="104.880447">
<ele>71.350647</ele>
<time>2011-04-28T09:52:34Z</time>
<desc>lat.=21.821869, lon.=104.880447, Alt.=71.350647m. Speed=14.544000m/h.</desc>
<speed>4.040000</speed>
</trkpt>
<trkpt lat="21.821726" lon="104.880592">
<ele>72.129944</ele>
<time>2011-04-28T09:52:39Z</time>
<desc>lat.=21.821726, lon.=104.880592, Alt.=72.129944m. Speed=16.488001m/h.</desc>
<speed>4.580000</speed>
</trkpt>
<trkpt lat="21.821566" lon="104.880737">
<ele>73.360413</ele>
<time>2011-04-28T09:52:44Z</time>
<desc>lat.=21.821566, lon.=104.880737, Alt.=73.360413m. Speed=16.848000m/h.</desc>
<speed>4.680000</speed>
</trkpt>
<trkpt lat="21.821413" lon="104.880905">
<ele>73.487366</ele>
<time>2011-04-28T09:52:49Z</time>
<desc>lat.=21.821413, lon.=104.880905, Alt.=73.487366m. Speed=16.848000m/h.</desc>
<speed>4.680000</speed>
</trkpt>
<trkpt lat="21.821297" lon="104.881096">
<ele>72.067444</ele>
<time>2011-04-28T09:52:54Z</time>
<desc>lat.=21.821297, lon.=104.881096, Alt.=72.067444m. Speed=17.459999m/h.</desc>
<speed>4.850000</speed>
</trkpt>
<trkpt lat="21.821228" lon="104.881340">
<ele>72.178772</ele>
<time>2011-04-28T09:52:59Z</time>
<desc>lat.=21.821228, lon.=104.881340, Alt.=72.178772m. Speed=18.468000m/h.</desc>
<speed>5.130000</speed>
</trkpt>
<trkpt lat="21.821199" lon="104.881592">
<ele>72.368225</ele>
<time>2011-04-28T09:53:04Z</time>
<desc>lat.=21.821199, lon.=104.881592, Alt.=72.368225m. Speed=18.972000m/h.</desc>
<speed>5.270000</speed>
</trkpt>
<trkpt lat="21.821171" lon="104.881828">
<ele>72.977600</ele>
<time>2011-04-28T09:53:09Z</time>
<desc>lat.=21.821171, lon.=104.881828, Alt.=72.977600m. Speed=18.323999m/h.</desc>
<speed>5.090000</speed>
</trkpt>
<trkpt lat="21.821060" lon="104.882057">
<ele>73.239319</ele>
<time>2011-04-28T09:53:14Z</time>
<desc>lat.=21.821060, lon.=104.882057, Alt.=73.239319m. Speed=17.820000m/h.</desc>
<speed>4.950000</speed>
</trkpt>
<trkpt lat="21.820902" lon="104.882202">
<ele>73.469788</ele>
<time>2011-04-28T09:53:19Z</time>
<desc>lat.=21.820902, lon.=104.882202, Alt.=73.469788m. Speed=15.624000m/h.</desc>
<speed>4.340000</speed>
</trkpt>
<trkpt lat="21.820734" lon="104.882332">
<ele>74.346741</ele>
<time>2011-04-28T09:53:24Z</time>
<desc>lat.=21.820734, lon.=104.882332, Alt.=74.346741m. Speed=14.580000m/h.</desc>
<speed>4.050000</speed>
</trkpt>
<trkpt lat="21.820566" lon="104.882477">
<ele>75.231506</ele>
<time>2011-04-28T09:53:29Z</time>
<desc>lat.=21.820566, lon.=104.882477, Alt.=75.231506m. Speed=15.948000m/h.</desc>
<speed>4.430000</speed>
</trkpt>
<trkpt lat="21.820419" lon="104.882599">
<ele>76.588928</ele>
<time>2011-04-28T09:53:34Z</time>
<desc>lat.=21.820419, lon.=104.882599, Alt.=76.588928m. Speed=12.852000m/h.</desc>
<speed>3.570000</speed>
</trkpt>
<trkpt lat="21.820295" lon="104.882690">
<ele>77.790100</ele>
<time>2011-04-28T09:53:39Z</time>
<desc>lat.=21.820295, lon.=104.882690, Alt.=77.790100m. Speed=13.104000m/h.</desc>
<speed>3.640000</speed>
</trkpt>
<trkpt lat="21.820139" lon="104.882797">
<ele>76.661194</ele>
<time>2011-04-28T09:53:44Z</time>
<desc>lat.=21.820139, lon.=104.882797, Alt.=76.661194m. Speed=12.852000m/h.</desc>
<speed>3.570000</speed>
</trkpt>
<trkpt lat="21.819994" lon="104.882919">
<ele>77.989319</ele>
<time>2011-04-28T09:53:49Z</time>
<desc>lat.=21.819994, lon.=104.882919, Alt.=77.989319m. Speed=12.384000m/h.</desc>
<speed>3.440000</speed>
</trkpt>
<trkpt lat="21.819933" lon="104.883041">
<ele>80.049866</ele>
<time>2011-04-28T09:53:54Z</time>
<desc>lat.=21.819933, lon.=104.883041, Alt.=80.049866m. Speed=7.884000m/h.</desc>
<speed>2.190000</speed>
</trkpt>
<trkpt lat="21.819927" lon="104.883148">
<ele>81.649475</ele>
<time>2011-04-28T09:53:59Z</time>
<desc>lat.=21.819927, lon.=104.883148, Alt.=81.649475m. Speed=5.472000m/h.</desc>
<speed>1.520000</speed>
</trkpt>
<trkpt lat="21.819971" lon="104.883293">
<ele>81.137756</ele>
<time>2011-04-28T09:54:04Z</time>
<desc>lat.=21.819971, lon.=104.883293, Alt.=81.137756m. Speed=6.552000m/h.</desc>
<speed>1.820000</speed>
</trkpt>
<trkpt lat="21.819994" lon="104.883423">
<ele>81.803772</ele>
<time>2011-04-28T09:54:09Z</time>
<desc>lat.=21.819994, lon.=104.883423, Alt.=81.803772m. Speed=8.532000m/h.</desc>
<speed>2.370000</speed>
</trkpt>
<trkpt lat="21.820026" lon="104.883522">
<ele>82.092834</ele>
<time>2011-04-28T09:54:14Z</time>
<desc>lat.=21.820026, lon.=104.883522, Alt.=82.092834m. Speed=7.344000m/h.</desc>
<speed>2.040000</speed>
</trkpt>
<trkpt lat="21.820013" lon="104.883621">
<ele>80.991272</ele>
<time>2011-04-28T09:54:19Z</time>
<desc>lat.=21.820013, lon.=104.883621, Alt.=80.991272m. Speed=7.164000m/h.</desc>
<speed>1.990000</speed>
</trkpt>
<trkpt lat="21.819986" lon="104.883759">
<ele>81.186584</ele>
<time>2011-04-28T09:54:24Z</time>
<desc>lat.=21.819986, lon.=104.883759, Alt.=81.186584m. Speed=7.740000m/h.</desc>
<speed>2.150000</speed>
</trkpt>
<trkpt lat="21.819948" lon="104.883835">
<ele>81.327209</ele>
<time>2011-04-28T09:54:29Z</time>
<desc>lat.=21.819948, lon.=104.883835, Alt.=81.327209m. Speed=4.932000m/h.</desc>
<speed>1.370000</speed>
</trkpt>
<trkpt lat="21.819891" lon="104.883896">
<ele>80.920959</ele>
<time>2011-04-28T09:54:34Z</time>
<desc>lat.=21.819891, lon.=104.883896, Alt.=80.920959m. Speed=6.192000m/h.</desc>
<speed>1.720000</speed>
</trkpt>
<trkpt lat="21.819813" lon="104.884056">
<ele>79.588928</ele>
<time>2011-04-28T09:54:39Z</time>
<desc>lat.=21.819813, lon.=104.884056, Alt.=79.588928m. Speed=8.856000m/h.</desc>
<speed>2.460000</speed>
</trkpt>
<trkpt lat="21.819771" lon="104.884178">
<ele>79.657288</ele>
<time>2011-04-28T09:54:44Z</time>
<desc>lat.=21.819771, lon.=104.884178, Alt.=79.657288m. Speed=5.652000m/h.</desc>
<speed>1.570000</speed>
</trkpt>
<trkpt lat="21.819729" lon="104.884293">
<ele>77.866272</ele>
<time>2011-04-28T09:54:49Z</time>
<desc>lat.=21.819729, lon.=104.884293, Alt.=77.866272m. Speed=6.876000m/h.</desc>
<speed>1.910000</speed>
</trkpt>
<trkpt lat="21.819708" lon="104.884354">
<ele>75.008850</ele>
<time>2011-04-28T09:54:54Z</time>
<desc>lat.=21.819708, lon.=104.884354, Alt.=75.008850m. Speed=2.052000m/h.</desc>
<speed>0.570000</speed>
</trkpt>
<trkpt lat="21.819691" lon="104.884346">
<ele>74.526428</ele>
<time>2011-04-28T09:54:59Z</time>
<desc>lat.=21.819691, lon.=104.884346, Alt.=74.526428m. Speed=0.360000m/h.</desc>
<speed>0.100000</speed>
</trkpt>
<trkpt lat="21.819683" lon="104.884338">
<ele>74.085022</ele>
<time>2011-04-28T09:55:04Z</time>
<desc>lat.=21.819683, lon.=104.884338, Alt.=74.085022m. Speed=0.036000m/h.</desc>
<speed>0.010000</speed>
</trkpt>
<trkpt lat="21.819681" lon="104.884346">
<ele>73.938538</ele>
<time>2011-04-28T09:55:09Z</time>
<desc>lat.=21.819681, lon.=104.884346, Alt.=73.938538m. Speed=0.576000m/h.</desc>
<speed>0.160000</speed>
</trkpt>
<trkpt lat="21.819677" lon="104.884346">
<ele>73.877991</ele>
<time>2011-04-28T09:55:14Z</time>
<desc>lat.=21.819677, lon.=104.884346, Alt.=73.877991m. Speed=0.036000m/h.</desc>
<speed>0.010000</speed>
</trkpt>
<trkpt lat="21.819677" lon="104.884346">
<ele>73.850647</ele>
<time>2011-04-28T09:55:19Z</time>
<desc>lat.=21.819677, lon.=104.884346, Alt.=73.850647m. Speed=0.144000m/h.</desc>
<speed>0.040000</speed>
</trkpt>
<trkpt lat="21.819677" lon="104.884346">
<ele>73.840881</ele>
<time>2011-04-28T09:55:24Z</time>
<desc>lat.=21.819677, lon.=104.884346, Alt.=73.840881m. Speed=0.036000m/h.</desc>
<speed>0.010000</speed>
</trkpt>
<trkpt lat="21.819677" lon="104.884346">
<ele>73.825256</ele>
<time>2011-04-28T09:55:29Z</time>
<desc>lat.=21.819677, lon.=104.884346, Alt.=73.825256m. Speed=0.072000m/h.</desc>
<speed>0.020000</speed>
</trkpt>
<trkpt lat="21.819675" lon="104.884346">
<ele>73.805725</ele>
<time>2011-04-28T09:55:34Z</time>
<desc>lat.=21.819675, lon.=104.884346, Alt.=73.805725m. Speed=0.180000m/h.</desc>
<speed>0.050000</speed>
</trkpt>
<trkpt lat="21.819672" lon="104.884346">
<ele>73.794006</ele>
<time>2011-04-28T09:55:39Z</time>
<desc>lat.=21.819672, lon.=104.884346, Alt.=73.794006m. Speed=0.360000m/h.</desc>
<speed>0.100000</speed>
</trkpt>
<trkpt lat="21.819668" lon="104.884346">
<ele>73.795959</ele>
<time>2011-04-28T09:55:44Z</time>
<desc>lat.=21.819668, lon.=104.884346, Alt.=73.795959m. Speed=0.036000m/h.</desc>
<speed>0.010000</speed>
</trkpt>
<trkpt lat="21.819668" lon="104.884338">
<ele>73.809631</ele>
<time>2011-04-28T09:55:49Z</time>
<desc>lat.=21.819668, lon.=104.884338, Alt.=73.809631m. Speed=0.108000m/h.</desc>
<speed>0.030000</speed>
</trkpt>
<trkpt lat="21.819668" lon="104.884338">
<ele>73.815491</ele>
<time>2011-04-28T09:55:54Z</time>
<desc>lat.=21.819668, lon.=104.884338, Alt.=73.815491m. Speed=0.036000m/h.</desc>
<speed>0.010000</speed>
</trkpt>
<trkpt lat="21.819666" lon="104.884338">
<ele>73.811584</ele>
<time>2011-04-28T09:55:59Z</time>
<desc>lat.=21.819666, lon.=104.884338, Alt.=73.811584m. Speed=0.000000m/h.</desc>
<speed>0.000000</speed>
</trkpt>
<trkpt lat="21.819670" lon="104.884346">
<ele>73.823303</ele>
<time>2011-04-28T09:56:04Z</time>
<desc>lat.=21.819670, lon.=104.884346, Alt.=73.823303m. Speed=0.396000m/h.</desc>
<speed>0.110000</speed>
</trkpt>
<trkpt lat="21.819674" lon="104.884346">
<ele>73.852600</ele>
<time>2011-04-28T09:56:09Z</time>
<desc>lat.=21.819674, lon.=104.884346, Alt.=73.852600m. Speed=0.144000m/h.</desc>
<speed>0.040000</speed>
</trkpt>
<trkpt lat="21.819664" lon="104.884361">
<ele>73.825256</ele>
<time>2011-04-28T09:56:14Z</time>
<desc>lat.=21.819664, lon.=104.884361, Alt.=73.825256m. Speed=4.284000m/h.</desc>
<speed>1.190000</speed>
</trkpt>
<trkpt lat="21.819656" lon="104.884430">
<ele>74.297913</ele>
<time>2011-04-28T09:56:19Z</time>
<desc>lat.=21.819656, lon.=104.884430, Alt.=74.297913m. Speed=6.264000m/h.</desc>
<speed>1.740000</speed>
</trkpt>
<trkpt lat="21.819635" lon="104.884567">
<ele>74.877991</ele>
<time>2011-04-28T09:56:24Z</time>
<desc>lat.=21.819635, lon.=104.884567, Alt.=74.877991m. Speed=9.684000m/h.</desc>
<speed>2.690000</speed>
</trkpt>
<trkpt lat="21.819597" lon="104.884750">
<ele>75.178772</ele>
<time>2011-04-28T09:56:29Z</time>
<desc>lat.=21.819597, lon.=104.884750, Alt.=75.178772m. Speed=16.992001m/h.</desc>
<speed>4.720000</speed>
</trkpt>
<trkpt lat="21.819548" lon="104.885017">
<ele>75.057678</ele>
<time>2011-04-28T09:56:34Z</time>
<desc>lat.=21.819548, lon.=104.885017, Alt.=75.057678m. Speed=17.532000m/h.</desc>
<speed>4.870000</speed>
</trkpt>
<trkpt lat="21.819651" lon="104.885284">
<ele>74.971741</ele>
<time>2011-04-28T09:56:39Z</time>
<desc>lat.=21.819651, lon.=104.885284, Alt.=74.971741m. Speed=19.944000m/h.</desc>
<speed>5.540000</speed>
</trkpt>
<trkpt lat="21.819754" lon="104.885674">
<ele>75.258850</ele>
<time>2011-04-28T09:56:44Z</time>
<desc>lat.=21.819754, lon.=104.885674, Alt.=75.258850m. Speed=24.552000m/h.</desc>
<speed>6.820000</speed>
</trkpt>
<trkpt lat="21.819515" lon="104.885872">
<ele>71.983459</ele>
<time>2011-04-28T09:56:49Z</time>
<desc>lat.=21.819515, lon.=104.885872, Alt.=71.983459m. Speed=17.496000m/h.</desc>
<speed>4.860000</speed>
</trkpt>
<trkpt lat="21.819265" lon="104.885796">
<ele>72.936584</ele>
<time>2011-04-28T09:56:54Z</time>
<desc>lat.=21.819265, lon.=104.885796, Alt.=72.936584m. Speed=23.724001m/h.</desc>
<speed>6.590000</speed>
</trkpt>
<trkpt lat="21.818926" lon="104.885727">
<ele>73.963928</ele>
<time>2011-04-28T09:56:59Z</time>
<desc>lat.=21.818926, lon.=104.885727, Alt.=73.963928m. Speed=28.764000m/h.</desc>
<speed>7.990000</speed>
</trkpt>
<trkpt lat="21.818655" lon="104.885956">
<ele>72.387756</ele>
<time>2011-04-28T09:57:04Z</time>
<desc>lat.=21.818655, lon.=104.885956, Alt.=72.387756m. Speed=27.504000m/h.</desc>
<speed>7.640000</speed>
</trkpt>
<trkpt lat="21.818668" lon="104.886406">
<ele>75.456116</ele>
<time>2011-04-28T09:57:09Z</time>
<desc>lat.=21.818668, lon.=104.886406, Alt.=75.456116m. Speed=35.784000m/h.</desc>
<speed>9.940000</speed>
</trkpt>
<trkpt lat="21.818727" lon="104.886864">
<ele>76.547913</ele>
<time>2011-04-28T09:57:14Z</time>
<desc>lat.=21.818727, lon.=104.886864, Alt.=76.547913m. Speed=28.296000m/h.</desc>
<speed>7.860000</speed>
</trkpt>
<trkpt lat="21.818668" lon="104.887184">
<ele>73.536194</ele>
<time>2011-04-28T09:57:19Z</time>
<desc>lat.=21.818668, lon.=104.887184, Alt.=73.536194m. Speed=24.695999m/h.</desc>
<speed>6.860000</speed>
</trkpt>
<trkpt lat="21.818521" lon="104.887405">
<ele>72.819397</ele>
<time>2011-04-28T09:57:24Z</time>
<desc>lat.=21.818521, lon.=104.887405, Alt.=72.819397m. Speed=19.224001m/h.</desc>
<speed>5.340000</speed>
</trkpt>
<trkpt lat="21.818510" lon="104.887672">
<ele>72.051819</ele>
<time>2011-04-28T09:57:29Z</time>
<desc>lat.=21.818510, lon.=104.887672, Alt.=72.051819m. Speed=19.080000m/h.</desc>
<speed>5.300000</speed>
</trkpt>
<trkpt lat="21.818613" lon="104.887947">
<ele>70.372131</ele>
<time>2011-04-28T09:57:34Z</time>
<desc>lat.=21.818613, lon.=104.887947, Alt.=70.372131m. Speed=26.316000m/h.</desc>
<speed>7.310000</speed>
</trkpt>
<trkpt lat="21.818649" lon="104.888313">
<ele>69.815491</ele>
<time>2011-04-28T09:57:39Z</time>
<desc>lat.=21.818649, lon.=104.888313, Alt.=69.815491m. Speed=24.191999m/h.</desc>
<speed>6.720000</speed>
</trkpt>
<trkpt lat="21.818399" lon="104.888580">
<ele>69.563538</ele>
<time>2011-04-28T09:57:44Z</time>
<desc>lat.=21.818399, lon.=104.888580, Alt.=69.563538m. Speed=29.448000m/h.</desc>
<speed>8.180000</speed>
</trkpt>
<trkpt lat="21.818087" lon="104.888771">
<ele>69.215881</ele>
<time>2011-04-28T09:57:49Z</time>
<desc>lat.=21.818087, lon.=104.888771, Alt.=69.215881m. Speed=28.764000m/h.</desc>
<speed>7.990000</speed>
</trkpt>
<trkpt lat="21.817661" lon="104.889015">
<ele>68.135803</ele>
<time>2011-04-28T09:57:54Z</time>
<desc>lat.=21.817661, lon.=104.889015, Alt.=68.135803m. Speed=29.304001m/h.</desc>
<speed>8.140000</speed>
</trkpt>
<trkpt lat="21.817331" lon="104.889252">
<ele>67.477600</ele>
<time>2011-04-28T09:57:59Z</time>
<desc>lat.=21.817331, lon.=104.889252, Alt.=67.477600m. Speed=27.756001m/h.</desc>
<speed>7.710000</speed>
</trkpt>
<trkpt lat="21.816963" lon="104.889503">
<ele>66.618225</ele>
<time>2011-04-28T09:58:04Z</time>
<desc>lat.=21.816963, lon.=104.889503, Alt.=66.618225m. Speed=32.976002m/h.</desc>
<speed>9.160000</speed>
</trkpt>
<trkpt lat="21.816595" lon="104.889740">
<ele>65.047913</ele>
<time>2011-04-28T09:58:09Z</time>
<desc>lat.=21.816595, lon.=104.889740, Alt.=65.047913m. Speed=31.356001m/h.</desc>
<speed>8.710000</speed>
</trkpt>
<trkpt lat="21.816284" lon="104.889961">
<ele>63.783722</ele>
<time>2011-04-28T09:58:14Z</time>
<desc>lat.=21.816284, lon.=104.889961, Alt.=63.783722m. Speed=25.992001m/h.</desc>
<speed>7.220000</speed>
</trkpt>
<trkpt lat="21.816063" lon="104.890114">
<ele>63.047394</ele>
<time>2011-04-28T09:58:19Z</time>
<desc>lat.=21.816063, lon.=104.890114, Alt.=63.047394m. Speed=18.540001m/h.</desc>
<speed>5.150000</speed>
</trkpt>
<trkpt lat="21.815815" lon="104.890282">
<ele>61.759308</ele>
<time>2011-04-28T09:58:24Z</time>
<desc>lat.=21.815815, lon.=104.890282, Alt.=61.759308m. Speed=21.455999m/h.</desc>
<speed>5.960000</speed>
</trkpt>
<trkpt lat="21.815598" lon="104.890472">
<ele>61.086456</ele>
<time>2011-04-28T09:58:29Z</time>
<desc>lat.=21.815598, lon.=104.890472, Alt.=61.086456m. Speed=20.808001m/h.</desc>
<speed>5.780000</speed>
</trkpt>
<trkpt lat="21.815403" lon="104.890671">
<ele>60.390167</ele>
<time>2011-04-28T09:58:34Z</time>
<desc>lat.=21.815403, lon.=104.890671, Alt.=60.390167m. Speed=21.059999m/h.</desc>
<speed>5.850000</speed>
</trkpt>
<trkpt lat="21.815180" lon="104.890892">
<ele>59.916534</ele>
<time>2011-04-28T09:58:39Z</time>
<desc>lat.=21.815180, lon.=104.890892, Alt.=59.916534m. Speed=21.455999m/h.</desc>
<speed>5.960000</speed>
</trkpt>
<trkpt lat="21.814999" lon="104.891121">
<ele>59.396027</ele>
<time>2011-04-28T09:58:44Z</time>
<desc>lat.=21.814999, lon.=104.891121, Alt.=59.396027m. Speed=21.059999m/h.</desc>
<speed>5.850000</speed>
</trkpt>
<trkpt lat="21.814848" lon="104.891388">
<ele>56.748566</ele>
<time>2011-04-28T09:58:49Z</time>
<desc>lat.=21.814848, lon.=104.891388, Alt.=56.748566m. Speed=23.724001m/h.</desc>
<speed>6.590000</speed>
</trkpt>
<trkpt lat="21.814665" lon="104.891624">
<ele>55.114777</ele>
<time>2011-04-28T09:58:54Z</time>
<desc>lat.=21.814665, lon.=104.891624, Alt.=55.114777m. Speed=20.916000m/h.</desc>
<speed>5.810000</speed>
</trkpt>
<trkpt lat="21.814432" lon="104.891762">
<ele>54.570831</ele>
<time>2011-04-28T09:58:59Z</time>
<desc>lat.=21.814432, lon.=104.891762, Alt.=54.570831m. Speed=21.204000m/h.</desc>
<speed>5.890000</speed>
</trkpt>
<trkpt lat="21.814194" lon="104.891830">
<ele>53.880402</ele>
<time>2011-04-28T09:59:04Z</time>
<desc>lat.=21.814194, lon.=104.891830, Alt.=53.880402m. Speed=17.964001m/h.</desc>
<speed>4.990000</speed>
</trkpt>
<trkpt lat="21.813936" lon="104.891899">
<ele>53.558136</ele>
<time>2011-04-28T09:59:09Z</time>
<desc>lat.=21.813936, lon.=104.891899, Alt.=53.558136m. Speed=20.591999m/h.</desc>
<speed>5.720000</speed>
</trkpt>
<trkpt lat="21.813726" lon="104.891983">
<ele>53.860870</ele>
<time>2011-04-28T09:59:14Z</time>
<desc>lat.=21.813726, lon.=104.891983, Alt.=53.860870m. Speed=12.600000m/h.</desc>
<speed>3.500000</speed>
</trkpt>
<trkpt lat="21.813547" lon="104.892105">
<ele>55.583527</ele>
<time>2011-04-28T09:59:19Z</time>
<desc>lat.=21.813547, lon.=104.892105, Alt.=55.583527m. Speed=15.156000m/h.</desc>
<speed>4.210000</speed>
</trkpt>
<trkpt lat="21.813393" lon="104.892273">
<ele>55.951691</ele>
<time>2011-04-28T09:59:24Z</time>
<desc>lat.=21.813393, lon.=104.892273, Alt.=55.951691m. Speed=17.927999m/h.</desc>
<speed>4.980000</speed>
</trkpt>
<trkpt lat="21.813274" lon="104.892479">
<ele>57.528839</ele>
<time>2011-04-28T09:59:29Z</time>
<desc>lat.=21.813274, lon.=104.892479, Alt.=57.528839m. Speed=16.128000m/h.</desc>
<speed>4.480000</speed>
</trkpt>
<trkpt lat="21.813183" lon="104.892685">
<ele>58.606964</ele>
<time>2011-04-28T09:59:34Z</time>
<desc>lat.=21.813183, lon.=104.892685, Alt.=58.606964m. Speed=16.812000m/h.</desc>
<speed>4.670000</speed>
</trkpt>
<trkpt lat="21.813063" lon="104.892891">
<ele>58.085480</ele>
<time>2011-04-28T09:59:39Z</time>
<desc>lat.=21.813063, lon.=104.892891, Alt.=58.085480m. Speed=17.208000m/h.</desc>
<speed>4.780000</speed>
</trkpt>
<trkpt lat="21.812939" lon="104.893105">
<ele>58.065948</ele>
<time>2011-04-28T09:59:44Z</time>
<desc>lat.=21.812939, lon.=104.893105, Alt.=58.065948m. Speed=18.684000m/h.</desc>
<speed>5.190000</speed>
</trkpt>
<trkpt lat="21.812788" lon="104.893341">
<ele>58.146027</ele>
<time>2011-04-28T09:59:49Z</time>
<desc>lat.=21.812788, lon.=104.893341, Alt.=58.146027m. Speed=25.056000m/h.</desc>
<speed>6.960000</speed>
</trkpt>
<trkpt lat="21.812576" lon="104.893593">
<ele>58.364777</ele>
<time>2011-04-28T09:59:54Z</time>
<desc>lat.=21.812576, lon.=104.893593, Alt.=58.364777m. Speed=24.264000m/h.</desc>
<speed>6.740000</speed>
</trkpt>
<trkpt lat="21.812414" lon="104.893845">
<ele>58.345245</ele>
<time>2011-04-28T09:59:59Z</time>
<desc>lat.=21.812414, lon.=104.893845, Alt.=58.345245m. Speed=21.384001m/h.</desc>
<speed>5.940000</speed>
</trkpt>
<trkpt lat="21.812243" lon="104.894119">
<ele>58.733917</ele>
<time>2011-04-28T10:00:04Z</time>
<desc>lat.=21.812243, lon.=104.894119, Alt.=58.733917m. Speed=25.920000m/h.</desc>
<speed>7.200000</speed>
</trkpt>
<trkpt lat="21.812094" lon="104.894386">
<ele>59.433136</ele>
<time>2011-04-28T10:00:09Z</time>
<desc>lat.=21.812094, lon.=104.894386, Alt.=59.433136m. Speed=21.132000m/h.</desc>
<speed>5.870000</speed>
</trkpt>
<trkpt lat="21.811934" lon="104.894646">
<ele>59.998566</ele>
<time>2011-04-28T10:00:14Z</time>
<desc>lat.=21.811934, lon.=104.894646, Alt.=59.998566m. Speed=22.356001m/h.</desc>
<speed>6.210000</speed>
</trkpt>
<trkpt lat="21.811756" lon="104.894836">
<ele>60.680206</ele>
<time>2011-04-28T10:00:19Z</time>
<desc>lat.=21.811756, lon.=104.894836, Alt.=60.680206m. Speed=20.448000m/h.</desc>
<speed>5.680000</speed>
</trkpt>
<trkpt lat="21.811466" lon="104.894913">
<ele>60.725128</ele>
<time>2011-04-28T10:00:24Z</time>
<desc>lat.=21.811466, lon.=104.894913, Alt.=60.725128m. Speed=19.620001m/h.</desc>
<speed>5.450000</speed>
</trkpt>
<trkpt lat="21.811226" lon="104.894989">
<ele>61.444855</ele>
<time>2011-04-28T10:00:29Z</time>
<desc>lat.=21.811226, lon.=104.894989, Alt.=61.444855m. Speed=19.152000m/h.</desc>
<speed>5.320000</speed>
</trkpt>
<trkpt lat="21.810982" lon="104.895172">
<ele>62.188995</ele>
<time>2011-04-28T10:00:34Z</time>
<desc>lat.=21.810982, lon.=104.895172, Alt.=62.188995m. Speed=20.087999m/h.</desc>
<speed>5.580000</speed>
</trkpt>
<trkpt lat="21.810806" lon="104.895363">
<ele>62.127472</ele>
<time>2011-04-28T10:00:39Z</time>
<desc>lat.=21.810806, lon.=104.895363, Alt.=62.127472m. Speed=17.459999m/h.</desc>
<speed>4.850000</speed>
</trkpt>
<trkpt lat="21.810593" lon="104.895531">
<ele>61.554230</ele>
<time>2011-04-28T10:00:44Z</time>
<desc>lat.=21.810593, lon.=104.895531, Alt.=61.554230m. Speed=19.260000m/h.</desc>
<speed>5.350000</speed>
</trkpt>
<trkpt lat="21.810389" lon="104.895760">
<ele>60.722198</ele>
<time>2011-04-28T10:00:49Z</time>
<desc>lat.=21.810389, lon.=104.895760, Alt.=60.722198m. Speed=19.044001m/h.</desc>
<speed>5.290000</speed>
</trkpt>
<trkpt lat="21.810169" lon="104.895981">
<ele>60.980988</ele>
<time>2011-04-28T10:00:54Z</time>
<desc>lat.=21.810169, lon.=104.895981, Alt.=60.980988m. Speed=19.836000m/h.</desc>
<speed>5.510000</speed>
</trkpt>
<trkpt lat="21.809925" lon="104.896225">
<ele>61.625519</ele>
<time>2011-04-28T10:00:59Z</time>
<desc>lat.=21.809925, lon.=104.896225, Alt.=61.625519m. Speed=23.436001m/h.</desc>
<speed>6.510000</speed>
</trkpt>
<trkpt lat="21.809752" lon="104.896431">
<ele>61.693878</ele>
<time>2011-04-28T10:01:04Z</time>
<desc>lat.=21.809752, lon.=104.896431, Alt.=61.693878m. Speed=20.375999m/h.</desc>
<speed>5.660000</speed>
</trkpt>
<trkpt lat="21.809526" lon="104.896652">
<ele>61.436066</ele>
<time>2011-04-28T10:01:09Z</time>
<desc>lat.=21.809526, lon.=104.896652, Alt.=61.436066m. Speed=22.392000m/h.</desc>
<speed>6.220000</speed>
</trkpt>
<trkpt lat="21.809307" lon="104.896866">
<ele>60.498566</ele>
<time>2011-04-28T10:01:14Z</time>
<desc>lat.=21.809307, lon.=104.896866, Alt.=60.498566m. Speed=21.528000m/h.</desc>
<speed>5.980000</speed>
</trkpt>
<trkpt lat="21.809093" lon="104.897095">
<ele>61.054230</ele>
<time>2011-04-28T10:01:19Z</time>
<desc>lat.=21.809093, lon.=104.897095, Alt.=61.054230m. Speed=23.868000m/h.</desc>
<speed>6.630000</speed>
</trkpt>
<trkpt lat="21.808842" lon="104.897278">
<ele>61.830597</ele>
<time>2011-04-28T10:01:24Z</time>
<desc>lat.=21.808842, lon.=104.897278, Alt.=61.830597m. Speed=21.420000m/h.</desc>
<speed>5.950000</speed>
</trkpt>
<trkpt lat="21.808596" lon="104.897324">
<ele>63.022980</ele>
<time>2011-04-28T10:01:29Z</time>
<desc>lat.=21.808596, lon.=104.897324, Alt.=63.022980m. Speed=20.304001m/h.</desc>
<speed>5.640000</speed>
</trkpt>
<trkpt lat="21.808359" lon="104.897293">
<ele>63.897980</ele>
<time>2011-04-28T10:01:34Z</time>
<desc>lat.=21.808359, lon.=104.897293, Alt.=63.897980m. Speed=18.684000m/h.</desc>
<speed>5.190000</speed>
</trkpt>
<trkpt lat="21.808157" lon="104.897400">
<ele>64.606506</ele>
<time>2011-04-28T10:01:39Z</time>
<desc>lat.=21.808157, lon.=104.897400, Alt.=64.606506m. Speed=18.864000m/h.</desc>
<speed>5.240000</speed>
</trkpt>
<trkpt lat="21.808073" lon="104.897621">
<ele>63.717316</ele>
<time>2011-04-28T10:01:44Z</time>
<desc>lat.=21.808073, lon.=104.897621, Alt.=63.717316m. Speed=15.264000m/h.</desc>
<speed>4.240000</speed>
</trkpt>
<trkpt lat="21.807983" lon="104.897835">
<ele>62.778839</ele>
<time>2011-04-28T10:01:49Z</time>
<desc>lat.=21.807983, lon.=104.897835, Alt.=62.778839m. Speed=19.044001m/h.</desc>
<speed>5.290000</speed>
</trkpt>
<trkpt lat="21.807873" lon="104.898018">
<ele>63.212433</ele>
<time>2011-04-28T10:01:54Z</time>
<desc>lat.=21.807873, lon.=104.898018, Alt.=63.212433m. Speed=12.996000m/h.</desc>
<speed>3.610000</speed>
</trkpt>
<trkpt lat="21.807732" lon="104.898125">
<ele>63.002472</ele>
<time>2011-04-28T10:01:59Z</time>
<desc>lat.=21.807732, lon.=104.898125, Alt.=63.002472m. Speed=14.328000m/h.</desc>
<speed>3.980000</speed>
</trkpt>
<trkpt lat="21.807562" lon="104.898216">
<ele>63.499542</ele>
<time>2011-04-28T10:02:04Z</time>
<desc>lat.=21.807562, lon.=104.898216, Alt.=63.499542m. Speed=13.392000m/h.</desc>
<speed>3.720000</speed>
</trkpt>
<trkpt lat="21.807392" lon="104.898308">
<ele>63.618683</ele>
<time>2011-04-28T10:02:09Z</time>
<desc>lat.=21.807392, lon.=104.898308, Alt.=63.618683m. Speed=16.848000m/h.</desc>
<speed>4.680000</speed>
</trkpt>
<trkpt lat="21.807190" lon="104.898392">
<ele>63.614777</ele>
<time>2011-04-28T10:02:14Z</time>
<desc>lat.=21.807190, lon.=104.898392, Alt.=63.614777m. Speed=12.816000m/h.</desc>
<speed>3.560000</speed>
</trkpt>
<trkpt lat="21.807009" lon="104.898499">
<ele>63.989777</ele>
<time>2011-04-28T10:02:19Z</time>
<desc>lat.=21.807009, lon.=104.898499, Alt.=63.989777m. Speed=14.004000m/h.</desc>
<speed>3.890000</speed>
</trkpt>
<trkpt lat="21.806841" lon="104.898567">
<ele>64.442444</ele>
<time>2011-04-28T10:02:24Z</time>
<desc>lat.=21.806841, lon.=104.898567, Alt.=64.442444m. Speed=9.432000m/h.</desc>
<speed>2.620000</speed>
</trkpt>
<trkpt lat="21.806707" lon="104.898674">
<ele>64.877991</ele>
<time>2011-04-28T10:02:29Z</time>
<desc>lat.=21.806707, lon.=104.898674, Alt.=64.877991m. Speed=9.612000m/h.</desc>
<speed>2.670000</speed>
</trkpt>
<trkpt lat="21.806610" lon="104.898857">
<ele>66.688538</ele>
<time>2011-04-28T10:02:34Z</time>
<desc>lat.=21.806610, lon.=104.898857, Alt.=66.688538m. Speed=7.812000m/h.</desc>
<speed>2.170000</speed>
</trkpt>
<trkpt lat="21.806566" lon="104.898987">
<ele>67.694397</ele>
<time>2011-04-28T10:02:39Z</time>
<desc>lat.=21.806566, lon.=104.898987, Alt.=67.694397m. Speed=7.164000m/h.</desc>
<speed>1.990000</speed>
</trkpt>
<trkpt lat="21.806562" lon="104.899124">
<ele>67.616272</ele>
<time>2011-04-28T10:02:44Z</time>
<desc>lat.=21.806562, lon.=104.899124, Alt.=67.616272m. Speed=7.380000m/h.</desc>
<speed>2.050000</speed>
</trkpt>
<trkpt lat="21.806589" lon="104.899261">
<ele>68.114319</ele>
<time>2011-04-28T10:02:49Z</time>
<desc>lat.=21.806589, lon.=104.899261, Alt.=68.114319m. Speed=10.044000m/h.</desc>
<speed>2.790000</speed>
</trkpt>
<trkpt lat="21.806629" lon="104.899399">
<ele>69.936584</ele>
<time>2011-04-28T10:02:54Z</time>
<desc>lat.=21.806629, lon.=104.899399, Alt.=69.936584m. Speed=9.144000m/h.</desc>
<speed>2.540000</speed>
</trkpt>
<trkpt lat="21.806669" lon="104.899513">
<ele>71.545959</ele>
<time>2011-04-28T10:02:59Z</time>
<desc>lat.=21.806669, lon.=104.899513, Alt.=71.545959m. Speed=6.984000m/h.</desc>
<speed>1.940000</speed>
</trkpt>
<trkpt lat="21.806677" lon="104.899628">
<ele>72.206116</ele>
<time>2011-04-28T10:03:04Z</time>
<desc>lat.=21.806677, lon.=104.899628, Alt.=72.206116m. Speed=8.388000m/h.</desc>
<speed>2.330000</speed>
</trkpt>
<trkpt lat="21.806705" lon="104.899757">
<ele>72.733459</ele>
<time>2011-04-28T10:03:09Z</time>
<desc>lat.=21.806705, lon.=104.899757, Alt.=72.733459m. Speed=7.740000m/h.</desc>
<speed>2.150000</speed>
</trkpt>
<trkpt lat="21.806707" lon="104.899857">
<ele>72.659241</ele>
<time>2011-04-28T10:03:14Z</time>
<desc>lat.=21.806707, lon.=104.899857, Alt.=72.659241m. Speed=7.272000m/h.</desc>
<speed>2.020000</speed>
</trkpt>
<trkpt lat="21.806671" lon="104.899933">
<ele>71.760803</ele>
<time>2011-04-28T10:03:19Z</time>
<desc>lat.=21.806671, lon.=104.899933, Alt.=71.760803m. Speed=7.344000m/h.</desc>
<speed>2.040000</speed>
</trkpt>
<trkpt lat="21.806599" lon="104.900009">
<ele>72.247131</ele>
<time>2011-04-28T10:03:24Z</time>
<desc>lat.=21.806599, lon.=104.900009, Alt.=72.247131m. Speed=8.964000m/h.</desc>
<speed>2.490000</speed>
</trkpt>
<trkpt lat="21.806496" lon="104.900055">
<ele>72.383850</ele>
<time>2011-04-28T10:03:29Z</time>
<desc>lat.=21.806496, lon.=104.900055, Alt.=72.383850m. Speed=7.236000m/h.</desc>
<speed>2.010000</speed>
</trkpt>
<trkpt lat="21.806385" lon="104.900085">
<ele>73.333069</ele>
<time>2011-04-28T10:03:34Z</time>
<desc>lat.=21.806385, lon.=104.900085, Alt.=73.333069m. Speed=10.800000m/h.</desc>
<speed>3.000000</speed>
</trkpt>
<trkpt lat="21.806229" lon="104.900116">
<ele>73.782288</ele>
<time>2011-04-28T10:03:39Z</time>
<desc>lat.=21.806229, lon.=104.900116, Alt.=73.782288m. Speed=14.796000m/h.</desc>
<speed>4.110000</speed>
</trkpt>
<trkpt lat="21.806023" lon="104.900154">
<ele>72.524475</ele>
<time>2011-04-28T10:03:44Z</time>
<desc>lat.=21.806023, lon.=104.900154, Alt.=72.524475m. Speed=18.035999m/h.</desc>
<speed>5.010000</speed>
</trkpt>
<trkpt lat="21.805845" lon="104.900215">
<ele>72.040100</ele>
<time>2011-04-28T10:03:49Z</time>
<desc>lat.=21.805845, lon.=104.900215, Alt.=72.040100m. Speed=13.212000m/h.</desc>
<speed>3.670000</speed>
</trkpt>
<trkpt lat="21.805759" lon="104.900398">
<ele>72.167053</ele>
<time>2011-04-28T10:03:54Z</time>
<desc>lat.=21.805759, lon.=104.900398, Alt.=72.167053m. Speed=11.556000m/h.</desc>
<speed>3.210000</speed>
</trkpt>
<trkpt lat="21.805723" lon="104.900566">
<ele>72.241272</ele>
<time>2011-04-28T10:03:59Z</time>
<desc>lat.=21.805723, lon.=104.900566, Alt.=72.241272m. Speed=10.476000m/h.</desc>
<speed>2.910000</speed>
</trkpt>
<trkpt lat="21.805664" lon="104.900726">
<ele>71.741272</ele>
<time>2011-04-28T10:04:04Z</time>
<desc>lat.=21.805664, lon.=104.900726, Alt.=71.741272m. Speed=8.640000m/h.</desc>
<speed>2.400000</speed>
</trkpt>
<trkpt lat="21.805614" lon="104.900848">
<ele>72.120178</ele>
<time>2011-04-28T10:04:09Z</time>
<desc>lat.=21.805614, lon.=104.900848, Alt.=72.120178m. Speed=8.280000m/h.</desc>
<speed>2.300000</speed>
</trkpt>
<trkpt lat="21.805544" lon="104.900955">
<ele>71.809631</ele>
<time>2011-04-28T10:04:14Z</time>
<desc>lat.=21.805544, lon.=104.900955, Alt.=71.809631m. Speed=7.740000m/h.</desc>
<speed>2.150000</speed>
</trkpt>
<trkpt lat="21.805443" lon="104.901047">
<ele>71.477600</ele>
<time>2011-04-28T10:04:19Z</time>
<desc>lat.=21.805443, lon.=104.901047, Alt.=71.477600m. Speed=7.236000m/h.</desc>
<speed>2.010000</speed>
</trkpt>
<trkpt lat="21.805355" lon="104.901108">
<ele>71.323303</ele>
<time>2011-04-28T10:04:24Z</time>
<desc>lat.=21.805355, lon.=104.901108, Alt.=71.323303m. Speed=6.588000m/h.</desc>
<speed>1.830000</speed>
</trkpt>
<trkpt lat="21.805244" lon="104.901222">
<ele>71.387756</ele>
<time>2011-04-28T10:04:29Z</time>
<desc>lat.=21.805244, lon.=104.901222, Alt.=71.387756m. Speed=7.128000m/h.</desc>
<speed>1.980000</speed>
</trkpt>
<trkpt lat="21.805201" lon="104.901360">
<ele>71.231506</ele>
<time>2011-04-28T10:04:34Z</time>
<desc>lat.=21.805201, lon.=104.901360, Alt.=71.231506m. Speed=7.740000m/h.</desc>
<speed>2.150000</speed>
</trkpt>
<trkpt lat="21.805241" lon="104.901566">
<ele>71.565491</ele>
<time>2011-04-28T10:04:39Z</time>
<desc>lat.=21.805241, lon.=104.901566, Alt.=71.565491m. Speed=10.224000m/h.</desc>
<speed>2.840000</speed>
</trkpt>
<trkpt lat="21.805244" lon="104.901726">
<ele>71.399475</ele>
<time>2011-04-28T10:04:44Z</time>
<desc>lat.=21.805244, lon.=104.901726, Alt.=71.399475m. Speed=10.080000m/h.</desc>
<speed>2.800000</speed>
</trkpt>
<trkpt lat="21.805241" lon="104.901886">
<ele>71.223694</ele>
<time>2011-04-28T10:04:49Z</time>
<desc>lat.=21.805241, lon.=104.901886, Alt.=71.223694m. Speed=9.144000m/h.</desc>
<speed>2.540000</speed>
</trkpt>
<trkpt lat="21.805201" lon="104.901993">
<ele>71.649475</ele>
<time>2011-04-28T10:04:54Z</time>
<desc>lat.=21.805201, lon.=104.901993, Alt.=71.649475m. Speed=6.444000m/h.</desc>
<speed>1.790000</speed>
</trkpt>
<trkpt lat="21.805157" lon="104.902107">
<ele>71.335022</ele>
<time>2011-04-28T10:04:59Z</time>
<desc>lat.=21.805157, lon.=104.902107, Alt.=71.335022m. Speed=6.732000m/h.</desc>
<speed>1.870000</speed>
</trkpt>
<trkpt lat="21.805178" lon="104.902199">
<ele>78.381897</ele>
<time>2011-04-28T10:05:04Z</time>
<desc>lat.=21.805178, lon.=104.902199, Alt.=78.381897m. Speed=7.596000m/h.</desc>
<speed>2.110000</speed>
</trkpt>
<trkpt lat="21.805130" lon="104.902260">
<ele>80.710022</ele>
<time>2011-04-28T10:05:09Z</time>
<desc>lat.=21.805130, lon.=104.902260, Alt.=80.710022m. Speed=0.540000m/h.</desc>
<speed>0.150000</speed>
</trkpt>
<trkpt lat="21.805126" lon="104.902260">
<ele>80.655334</ele>
<time>2011-04-28T10:05:14Z</time>
<desc>lat.=21.805126, lon.=104.902260, Alt.=80.655334m. Speed=0.000000m/h.</desc>
<speed>0.000000</speed>
</trkpt>
<trkpt lat="21.805126" lon="104.902260">
<ele>80.596741</ele>
<time>2011-04-28T10:05:19Z</time>
<desc>lat.=21.805126, lon.=104.902260, Alt.=80.596741m. Speed=0.144000m/h.</desc>
<speed>0.040000</speed>
</trkpt>
<trkpt lat="21.805126" lon="104.902260">
<ele>80.551819</ele>
<time>2011-04-28T10:05:24Z</time>
<desc>lat.=21.805126, lon.=104.902260, Alt.=80.551819m. Speed=0.000000m/h.</desc>
<speed>0.000000</speed>
</trkpt>
<trkpt lat="21.805126" lon="104.902260">
<ele>80.618225</ele>
<time>2011-04-28T10:05:29Z</time>
<desc>lat.=21.805126, lon.=104.902260, Alt.=80.618225m. Speed=0.000000m/h.</desc>
<speed>0.000000</speed>
</trkpt>
<trkpt lat="21.805126" lon="104.902260">
<ele>80.657288</ele>
<time>2011-04-28T10:05:34Z</time>
<desc>lat.=21.805126, lon.=104.902260, Alt.=80.657288m. Speed=0.000000m/h.</desc>
<speed>0.000000</speed>
</trkpt>
<trkpt lat="21.805126" lon="104.902260">
<ele>80.665100</ele>
<time>2011-04-28T10:05:39Z</time>
<desc>lat.=21.805126, lon.=104.902260, Alt.=80.665100m. Speed=0.036000m/h.</desc>
<speed>0.010000</speed>
</trkpt>
<trkpt lat="21.805126" lon="104.902260">
<ele>80.676819</ele>
<time>2011-04-28T10:05:44Z</time>
<desc>lat.=21.805126, lon.=104.902260, Alt.=80.676819m. Speed=0.072000m/h.</desc>
<speed>0.020000</speed>
</trkpt>
<trkpt lat="21.805126" lon="104.902260">
<ele>80.688538</ele>
<time>2011-04-28T10:05:49Z</time>
<desc>lat.=21.805126, lon.=104.902260, Alt.=80.688538m. Speed=0.036000m/h.</desc>
<speed>0.010000</speed>
</trkpt>
<trkpt lat="21.805126" lon="104.902260">
<ele>80.690491</ele>
<time>2011-04-28T10:05:54Z</time>
<desc>lat.=21.805126, lon.=104.902260, Alt.=80.690491m. Speed=0.108000m/h.</desc>
<speed>0.030000</speed>
</trkpt>
<trkpt lat="21.805126" lon="104.902260">
<ele>80.672913</ele>
<time>2011-04-28T10:05:59Z</time>
<desc>lat.=21.805126, lon.=104.902260, Alt.=80.672913m. Speed=0.036000m/h.</desc>
<speed>0.010000</speed>
</trkpt>
<trkpt lat="21.805122" lon="104.902260">
<ele>80.700256</ele>
<time>2011-04-28T10:06:04Z</time>
<desc>lat.=21.805122, lon.=104.902260, Alt.=80.700256m. Speed=0.576000m/h.</desc>
<speed>0.160000</speed>
</trkpt>
<trkpt lat="21.805122" lon="104.902260">
<ele>80.698303</ele>
<time>2011-04-28T10:06:09Z</time>
<desc>lat.=21.805122, lon.=104.902260, Alt.=80.698303m. Speed=0.144000m/h.</desc>
<speed>0.040000</speed>
</trkpt>
<trkpt lat="21.805124" lon="104.902260">
<ele>80.704163</ele>
<time>2011-04-28T10:06:14Z</time>
<desc>lat.=21.805124, lon.=104.902260, Alt.=80.704163m. Speed=0.144000m/h.</desc>
<speed>0.040000</speed>
</trkpt>
<trkpt lat="21.805124" lon="104.902260">
<ele>80.700256</ele>
<time>2011-04-28T10:06:19Z</time>
<desc>lat.=21.805124, lon.=104.902260, Alt.=80.700256m. Speed=0.144000m/h.</desc>
<speed>0.040000</speed>
</trkpt>
<trkpt lat="21.805124" lon="104.902260">
<ele>80.702209</ele>
<time>2011-04-28T10:06:24Z</time>
<desc>lat.=21.805124, lon.=104.902260, Alt.=80.702209m. Speed=0.108000m/h.</desc>
<speed>0.030000</speed>
</trkpt>
<trkpt lat="21.805126" lon="104.902260">
<ele>80.696350</ele>
<time>2011-04-28T10:06:29Z</time>
<desc>lat.=21.805126, lon.=104.902260, Alt.=80.696350m. Speed=0.288000m/h.</desc>
<speed>0.080000</speed>
</trkpt>
<trkpt lat="21.805126" lon="104.902267">
<ele>80.688538</ele>
<time>2011-04-28T10:06:34Z</time>
<desc>lat.=21.805126, lon.=104.902267, Alt.=80.688538m. Speed=0.180000m/h.</desc>
<speed>0.050000</speed>
</trkpt>
<trkpt lat="21.805126" lon="104.902260">
<ele>80.641663</ele>
<time>2011-04-28T10:06:39Z</time>
<desc>lat.=21.805126, lon.=104.902260, Alt.=80.641663m. Speed=0.252000m/h.</desc>
<speed>0.070000</speed>
</trkpt>
<trkpt lat="21.805128" lon="104.902260">
<ele>80.608459</ele>
<time>2011-04-28T10:06:44Z</time>
<desc>lat.=21.805128, lon.=104.902260, Alt.=80.608459m. Speed=0.108000m/h.</desc>
<speed>0.030000</speed>
</trkpt>
<trkpt lat="21.805132" lon="104.902260">
<ele>80.594788</ele>
<time>2011-04-28T10:06:49Z</time>
<desc>lat.=21.805132, lon.=104.902260, Alt.=80.594788m. Speed=0.324000m/h.</desc>
<speed>0.090000</speed>
</trkpt>
<trkpt lat="21.805134" lon="104.902260">
<ele>80.600647</ele>
<time>2011-04-28T10:06:54Z</time>
<desc>lat.=21.805134, lon.=104.902260, Alt.=80.600647m. Speed=0.324000m/h.</desc>
<speed>0.090000</speed>
</trkpt>
<trkpt lat="21.805136" lon="104.902260">
<ele>80.575256</ele>
<time>2011-04-28T10:06:59Z</time>
<desc>lat.=21.805136, lon.=104.902260, Alt.=80.575256m. Speed=0.504000m/h.</desc>
<speed>0.140000</speed>
</trkpt>
<trkpt lat="21.805136" lon="104.902260">
<ele>80.532288</ele>
<time>2011-04-28T10:07:04Z</time>
<desc>lat.=21.805136, lon.=104.902260, Alt.=80.532288m. Speed=0.108000m/h.</desc>
<speed>0.030000</speed>
</trkpt>
<trkpt lat="21.805136" lon="104.902260">
<ele>80.475647</ele>
<time>2011-04-28T10:07:09Z</time>
<desc>lat.=21.805136, lon.=104.902260, Alt.=80.475647m. Speed=0.648000m/h.</desc>
<speed>0.180000</speed>
</trkpt>
<trkpt lat="21.805099" lon="104.902252">
<ele>80.272522</ele>
<time>2011-04-28T10:07:14Z</time>
<desc>lat.=21.805099, lon.=104.902252, Alt.=80.272522m. Speed=9.000000m/h.</desc>
<speed>2.500000</speed>
</trkpt>
<trkpt lat="21.804932" lon="104.902313">
<ele>79.915100</ele>
<time>2011-04-28T10:07:19Z</time>
<desc>lat.=21.804932, lon.=104.902313, Alt.=79.915100m. Speed=17.676001m/h.</desc>
<speed>4.910000</speed>
</trkpt>
<trkpt lat="21.804718" lon="104.902435">
<ele>80.034241</ele>
<time>2011-04-28T10:07:24Z</time>
<desc>lat.=21.804718, lon.=104.902435, Alt.=80.034241m. Speed=21.167999m/h.</desc>
<speed>5.880000</speed>
</trkpt>
<trkpt lat="21.804447" lon="104.902573">
<ele>80.684631</ele>
<time>2011-04-28T10:07:29Z</time>
<desc>lat.=21.804447, lon.=104.902573, Alt.=80.684631m. Speed=24.228001m/h.</desc>
<speed>6.730000</speed>
</trkpt>
<trkpt lat="21.804226" lon="104.902809">
<ele>81.573303</ele>
<time>2011-04-28T10:07:34Z</time>
<desc>lat.=21.804226, lon.=104.902809, Alt.=81.573303m. Speed=19.403999m/h.</desc>
<speed>5.390000</speed>
</trkpt>
<trkpt lat="21.804148" lon="104.903038">
<ele>81.655334</ele>
<time>2011-04-28T10:07:39Z</time>
<desc>lat.=21.804148, lon.=104.903038, Alt.=81.655334m. Speed=21.096001m/h.</desc>
<speed>5.860000</speed>
</trkpt>
<trkpt lat="21.803968" lon="104.903450">
<ele>82.557678</ele>
<time>2011-04-28T10:07:44Z</time>
<desc>lat.=21.803968, lon.=104.903450, Alt.=82.557678m. Speed=26.747999m/h.</desc>
<speed>7.430000</speed>
</trkpt>
<trkpt lat="21.803808" lon="104.903824">
<ele>82.774475</ele>
<time>2011-04-28T10:07:49Z</time>
<desc>lat.=21.803808, lon.=104.903824, Alt.=82.774475m. Speed=27.576000m/h.</desc>
<speed>7.660000</speed>
</trkpt>
<trkpt lat="21.803562" lon="104.904114">
<ele>82.444397</ele>
<time>2011-04-28T10:07:54Z</time>
<desc>lat.=21.803562, lon.=104.904114, Alt.=82.444397m. Speed=24.948000m/h.</desc>
<speed>6.930000</speed>
</trkpt>
<trkpt lat="21.803305" lon="104.904327">
<ele>81.338928</ele>
<time>2011-04-28T10:07:59Z</time>
<desc>lat.=21.803305, lon.=104.904327, Alt.=81.338928m. Speed=19.044001m/h.</desc>
<speed>5.290000</speed>
</trkpt>
<trkpt lat="21.803043" lon="104.904472">
<ele>81.336975</ele>
<time>2011-04-28T10:08:04Z</time>
<desc>lat.=21.803043, lon.=104.904472, Alt.=81.336975m. Speed=21.096001m/h.</desc>
<speed>5.860000</speed>
</trkpt>
<trkpt lat="21.802803" lon="104.904587">
<ele>81.245178</ele>
<time>2011-04-28T10:08:09Z</time>
<desc>lat.=21.802803, lon.=104.904587, Alt.=81.245178m. Speed=15.588000m/h.</desc>
<speed>4.330000</speed>
</trkpt>
<trkpt lat="21.802607" lon="104.904709">
<ele>80.436584</ele>
<time>2011-04-28T10:08:14Z</time>
<desc>lat.=21.802607, lon.=104.904709, Alt.=80.436584m. Speed=16.344000m/h.</desc>
<speed>4.540000</speed>
</trkpt>
<trkpt lat="21.802368" lon="104.904861">
<ele>80.635803</ele>
<time>2011-04-28T10:08:19Z</time>
<desc>lat.=21.802368, lon.=104.904861, Alt.=80.635803m. Speed=17.532000m/h.</desc>
<speed>4.870000</speed>
</trkpt>
<trkpt lat="21.802158" lon="104.905136">
<ele>78.192444</ele>
<time>2011-04-28T10:08:24Z</time>
<desc>lat.=21.802158, lon.=104.905136, Alt.=78.192444m. Speed=23.364000m/h.</desc>
<speed>6.490000</speed>
</trkpt>
<trkpt lat="21.801945" lon="104.905434">
<ele>75.002991</ele>
<time>2011-04-28T10:08:29Z</time>
<desc>lat.=21.801945, lon.=104.905434, Alt.=75.002991m. Speed=24.408001m/h.</desc>
<speed>6.780000</speed>
</trkpt>
<trkpt lat="21.801743" lon="104.905716">
<ele>74.784241</ele>
<time>2011-04-28T10:08:34Z</time>
<desc>lat.=21.801743, lon.=104.905716, Alt.=74.784241m. Speed=22.716000m/h.</desc>
<speed>6.310000</speed>
</trkpt>
<trkpt lat="21.801544" lon="104.905930">
<ele>74.653381</ele>
<time>2011-04-28T10:08:39Z</time>
<desc>lat.=21.801544, lon.=104.905930, Alt.=74.653381m. Speed=19.620001m/h.</desc>
<speed>5.450000</speed>
</trkpt>
<trkpt lat="21.801342" lon="104.906075">
<ele>75.350647</ele>
<time>2011-04-28T10:08:44Z</time>
<desc>lat.=21.801342, lon.=104.906075, Alt.=75.350647m. Speed=18.648001m/h.</desc>
<speed>5.180000</speed>
</trkpt>
<trkpt lat="21.801123" lon="104.906235">
<ele>76.870178</ele>
<time>2011-04-28T10:08:49Z</time>
<desc>lat.=21.801123, lon.=104.906235, Alt.=76.870178m. Speed=15.948000m/h.</desc>
<speed>4.430000</speed>
</trkpt>
<trkpt lat="21.800953" lon="104.906380">
<ele>77.567444</ele>
<time>2011-04-28T10:08:54Z</time>
<desc>lat.=21.800953, lon.=104.906380, Alt.=77.567444m. Speed=14.580000m/h.</desc>
<speed>4.050000</speed>
</trkpt>
<trkpt lat="21.800829" lon="104.906525">
<ele>77.575256</ele>
<time>2011-04-28T10:08:59Z</time>
<desc>lat.=21.800829, lon.=104.906525, Alt.=77.575256m. Speed=11.808000m/h.</desc>
<speed>3.280000</speed>
</trkpt>
<trkpt lat="21.800709" lon="104.906654">
<ele>78.170959</ele>
<time>2011-04-28T10:09:04Z</time>
<desc>lat.=21.800709, lon.=104.906654, Alt.=78.170959m. Speed=12.060000m/h.</desc>
<speed>3.350000</speed>
</trkpt>
<trkpt lat="21.800579" lon="104.906792">
<ele>78.917053</ele>
<time>2011-04-28T10:09:09Z</time>
<desc>lat.=21.800579, lon.=104.906792, Alt.=78.917053m. Speed=12.816000m/h.</desc>
<speed>3.560000</speed>
</trkpt>
<trkpt lat="21.800457" lon="104.906952">
<ele>78.946350</ele>
<time>2011-04-28T10:09:14Z</time>
<desc>lat.=21.800457, lon.=104.906952, Alt.=78.946350m. Speed=12.204000m/h.</desc>
<speed>3.390000</speed>
</trkpt>
<trkpt lat="21.800354" lon="104.907089">
<ele>79.467834</ele>
<time>2011-04-28T10:09:19Z</time>
<desc>lat.=21.800354, lon.=104.907089, Alt.=79.467834m. Speed=12.420000m/h.</desc>
<speed>3.450000</speed>
</trkpt>
<trkpt lat="21.800249" lon="104.907211">
<ele>80.137756</ele>
<time>2011-04-28T10:09:24Z</time>
<desc>lat.=21.800249, lon.=104.907211, Alt.=80.137756m. Speed=8.928000m/h.</desc>
<speed>2.480000</speed>
</trkpt>
<trkpt lat="21.800154" lon="104.907326">
<ele>81.561584</ele>
<time>2011-04-28T10:09:29Z</time>
<desc>lat.=21.800154, lon.=104.907326, Alt.=81.561584m. Speed=12.060000m/h.</desc>
<speed>3.350000</speed>
</trkpt>
<trkpt lat="21.800062" lon="104.907471">
<ele>83.417053</ele>
<time>2011-04-28T10:09:34Z</time>
<desc>lat.=21.800062, lon.=104.907471, Alt.=83.417053m. Speed=9.936000m/h.</desc>
<speed>2.760000</speed>
</trkpt>
<trkpt lat="21.800003" lon="104.907616">
<ele>83.399475</ele>
<time>2011-04-28T10:09:39Z</time>
<desc>lat.=21.800003, lon.=104.907616, Alt.=83.399475m. Speed=10.332000m/h.</desc>
<speed>2.870000</speed>
</trkpt>
<trkpt lat="21.799894" lon="104.907745">
<ele>84.926819</ele>
<time>2011-04-28T10:09:44Z</time>
<desc>lat.=21.799894, lon.=104.907745, Alt.=84.926819m. Speed=9.792000m/h.</desc>
<speed>2.720000</speed>
</trkpt>
<trkpt lat="21.799814" lon="104.907890">
<ele>85.917053</ele>
<time>2011-04-28T10:09:49Z</time>
<desc>lat.=21.799814, lon.=104.907890, Alt.=85.917053m. Speed=7.020000m/h.</desc>
<speed>1.950000</speed>
</trkpt>
<trkpt lat="21.799734" lon="104.908012">
<ele>86.829163</ele>
<time>2011-04-28T10:09:54Z</time>
<desc>lat.=21.799734, lon.=104.908012, Alt.=86.829163m. Speed=6.876000m/h.</desc>
<speed>1.910000</speed>
</trkpt>
<trkpt lat="21.799641" lon="104.908096">
<ele>88.227600</ele>
<time>2011-04-28T10:09:59Z</time>
<desc>lat.=21.799641, lon.=104.908096, Alt.=88.227600m. Speed=5.292000m/h.</desc>
<speed>1.470000</speed>
</trkpt>
<trkpt lat="21.799543" lon="104.908234">
<ele>87.294006</ele>
<time>2011-04-28T10:10:04Z</time>
<desc>lat.=21.799543, lon.=104.908234, Alt.=87.294006m. Speed=6.660000m/h.</desc>
<speed>1.850000</speed>
</trkpt>
<trkpt lat="21.799442" lon="104.908455">
<ele>83.542053</ele>
<time>2011-04-28T10:10:09Z</time>
<desc>lat.=21.799442, lon.=104.908455, Alt.=83.542053m. Speed=11.484000m/h.</desc>
<speed>3.190000</speed>
</trkpt>
<trkpt lat="21.799389" lon="104.908615">
<ele>81.618225</ele>
<time>2011-04-28T10:10:14Z</time>
<desc>lat.=21.799389, lon.=104.908615, Alt.=81.618225m. Speed=11.664000m/h.</desc>
<speed>3.240000</speed>
</trkpt>
<trkpt lat="21.799345" lon="104.908775">
<ele>80.674866</ele>
<time>2011-04-28T10:10:19Z</time>
<desc>lat.=21.799345, lon.=104.908775, Alt.=80.674866m. Speed=10.332000m/h.</desc>
<speed>2.870000</speed>
</trkpt>
<trkpt lat="21.799299" lon="104.908920">
<ele>77.288147</ele>
<time>2011-04-28T10:10:24Z</time>
<desc>lat.=21.799299, lon.=104.908920, Alt.=77.288147m. Speed=8.424000m/h.</desc>
<speed>2.340000</speed>
</trkpt>
<trkpt lat="21.799263" lon="104.909081">
<ele>76.196350</ele>
<time>2011-04-28T10:10:29Z</time>
<desc>lat.=21.799263, lon.=104.909081, Alt.=76.196350m. Speed=9.432000m/h.</desc>
<speed>2.620000</speed>
</trkpt>
<trkpt lat="21.799202" lon="104.909203">
<ele>74.735413</ele>
<time>2011-04-28T10:10:34Z</time>
<desc>lat.=21.799202, lon.=104.909203, Alt.=74.735413m. Speed=8.244000m/h.</desc>
<speed>2.290000</speed>
</trkpt>
<trkpt lat="21.799147" lon="104.909309">
<ele>74.956116</ele>
<time>2011-04-28T10:10:39Z</time>
<desc>lat.=21.799147, lon.=104.909309, Alt.=74.956116m. Speed=7.092000m/h.</desc>
<speed>1.970000</speed>
</trkpt>
<trkpt lat="21.799103" lon="104.909409">
<ele>73.504944</ele>
<time>2011-04-28T10:10:44Z</time>
<desc>lat.=21.799103, lon.=104.909409, Alt.=73.504944m. Speed=6.048000m/h.</desc>
<speed>1.680000</speed>
</trkpt>
<trkpt lat="21.799030" lon="104.909515">
<ele>74.170959</ele>
<time>2011-04-28T10:10:49Z</time>
<desc>lat.=21.799030, lon.=104.909515, Alt.=74.170959m. Speed=8.820000m/h.</desc>
<speed>2.450000</speed>
</trkpt>
<trkpt lat="21.798977" lon="104.909607">
<ele>74.669006</ele>
<time>2011-04-28T10:10:54Z</time>
<desc>lat.=21.798977, lon.=104.909607, Alt.=74.669006m. Speed=5.616000m/h.</desc>
<speed>1.560000</speed>
</trkpt>
<trkpt lat="21.798937" lon="104.909706">
<ele>74.358459</ele>
<time>2011-04-28T10:10:59Z</time>
<desc>lat.=21.798937, lon.=104.909706, Alt.=74.358459m. Speed=9.756000m/h.</desc>
<speed>2.710000</speed>
</trkpt>
<trkpt lat="21.798895" lon="104.909828">
<ele>73.305725</ele>
<time>2011-04-28T10:11:04Z</time>
<desc>lat.=21.798895, lon.=104.909828, Alt.=73.305725m. Speed=8.100000m/h.</desc>
<speed>2.250000</speed>
</trkpt>
<trkpt lat="21.798830" lon="104.909958">
<ele>73.040100</ele>
<time>2011-04-28T10:11:09Z</time>
<desc>lat.=21.798830, lon.=104.909958, Alt.=73.040100m. Speed=8.316000m/h.</desc>
<speed>2.310000</speed>
</trkpt>
<trkpt lat="21.798773" lon="104.910080">
<ele>71.419006</ele>
<time>2011-04-28T10:11:14Z</time>
<desc>lat.=21.798773, lon.=104.910080, Alt.=71.419006m. Speed=9.468000m/h.</desc>
<speed>2.630000</speed>
</trkpt>
<trkpt lat="21.798723" lon="104.910210">
<ele>69.876038</ele>
<time>2011-04-28T10:11:19Z</time>
<desc>lat.=21.798723, lon.=104.910210, Alt.=69.876038m. Speed=9.972000m/h.</desc>
<speed>2.770000</speed>
</trkpt>
<trkpt lat="21.798700" lon="104.910309">
<ele>69.848694</ele>
<time>2011-04-28T10:11:24Z</time>
<desc>lat.=21.798700, lon.=104.910309, Alt.=69.848694m. Speed=6.480000m/h.</desc>
<speed>1.800000</speed>
</trkpt>
<trkpt lat="21.798708" lon="104.910378">
<ele>70.008850</ele>
<time>2011-04-28T10:11:29Z</time>
<desc>lat.=21.798708, lon.=104.910378, Alt.=70.008850m. Speed=3.240000m/h.</desc>
<speed>0.900000</speed>
</trkpt>
<trkpt lat="21.798746" lon="104.910461">
<ele>70.868225</ele>
<time>2011-04-28T10:11:34Z</time>
<desc>lat.=21.798746, lon.=104.910461, Alt.=70.868225m. Speed=6.048000m/h.</desc>
<speed>1.680000</speed>
</trkpt>
<trkpt lat="21.798807" lon="104.910561">
<ele>73.811584</ele>
<time>2011-04-28T10:11:39Z</time>
<desc>lat.=21.798807, lon.=104.910561, Alt.=73.811584m. Speed=6.696000m/h.</desc>
<speed>1.860000</speed>
</trkpt>
<trkpt lat="21.798817" lon="104.910637">
<ele>74.549866</ele>
<time>2011-04-28T10:11:44Z</time>
<desc>lat.=21.798817, lon.=104.910637, Alt.=74.549866m. Speed=5.148000m/h.</desc>
<speed>1.430000</speed>
</trkpt>
<trkpt lat="21.798845" lon="104.910721">
<ele>77.997131</ele>
<time>2011-04-28T10:11:49Z</time>
<desc>lat.=21.798845, lon.=104.910721, Alt.=77.997131m. Speed=5.364000m/h.</desc>
<speed>1.490000</speed>
</trkpt>
<trkpt lat="21.798864" lon="104.910797">
<ele>79.684631</ele>
<time>2011-04-28T10:11:54Z</time>
<desc>lat.=21.798864, lon.=104.910797, Alt.=79.684631m. Speed=4.968000m/h.</desc>
<speed>1.380000</speed>
</trkpt>
<trkpt lat="21.798885" lon="104.910873">
<ele>80.954163</ele>
<time>2011-04-28T10:11:59Z</time>
<desc>lat.=21.798885, lon.=104.910873, Alt.=80.954163m. Speed=5.004000m/h.</desc>
<speed>1.390000</speed>
</trkpt>
<trkpt lat="21.798910" lon="104.910919">
<ele>84.399475</ele>
<time>2011-04-28T10:12:04Z</time>
<desc>lat.=21.798910, lon.=104.910919, Alt.=84.399475m. Speed=4.104000m/h.</desc>
<speed>1.140000</speed>
</trkpt>
<trkpt lat="21.798944" lon="104.910995">
<ele>86.788147</ele>
<time>2011-04-28T10:12:09Z</time>
<desc>lat.=21.798944, lon.=104.910995, Alt.=86.788147m. Speed=5.508000m/h.</desc>
<speed>1.530000</speed>
</trkpt>
<trkpt lat="21.798967" lon="104.911064">
<ele>87.217834</ele>
<time>2011-04-28T10:12:14Z</time>
<desc>lat.=21.798967, lon.=104.911064, Alt.=87.217834m. Speed=5.076000m/h.</desc>
<speed>1.410000</speed>
</trkpt>
<trkpt lat="21.798983" lon="104.911125">
<ele>87.825256</ele>
<time>2011-04-28T10:12:19Z</time>
<desc>lat.=21.798983, lon.=104.911125, Alt.=87.825256m. Speed=4.860000m/h.</desc>
<speed>1.350000</speed>
</trkpt>
<trkpt lat="21.798988" lon="104.911186">
<ele>88.147522</ele>
<time>2011-04-28T10:12:24Z</time>
<desc>lat.=21.798988, lon.=104.911186, Alt.=88.147522m. Speed=5.940000m/h.</desc>
<speed>1.650000</speed>
</trkpt>
<trkpt lat="21.798981" lon="104.911247">
<ele>88.717834</ele>
<time>2011-04-28T10:12:29Z</time>
<desc>lat.=21.798981, lon.=104.911247, Alt.=88.717834m. Speed=4.068000m/h.</desc>
<speed>1.130000</speed>
</trkpt>
<trkpt lat="21.798941" lon="104.911316">
<ele>89.438538</ele>
<time>2011-04-28T10:12:34Z</time>
<desc>lat.=21.798941, lon.=104.911316, Alt.=89.438538m. Speed=4.428000m/h.</desc>
<speed>1.230000</speed>
</trkpt>
<trkpt lat="21.798901" lon="104.911377">
<ele>89.385803</ele>
<time>2011-04-28T10:12:39Z</time>
<desc>lat.=21.798901, lon.=104.911377, Alt.=89.385803m. Speed=6.228000m/h.</desc>
<speed>1.730000</speed>
</trkpt>
<trkpt lat="21.798870" lon="104.911430">
<ele>89.145569</ele>
<time>2011-04-28T10:12:44Z</time>
<desc>lat.=21.798870, lon.=104.911430, Alt.=89.145569m. Speed=5.436000m/h.</desc>
<speed>1.510000</speed>
</trkpt>
<trkpt lat="21.798830" lon="104.911461">
<ele>89.641663</ele>
<time>2011-04-28T10:12:49Z</time>
<desc>lat.=21.798830, lon.=104.911461, Alt.=89.641663m. Speed=1.296000m/h.</desc>
<speed>0.360000</speed>
</trkpt>
<trkpt lat="21.798773" lon="104.911499">
<ele>90.110413</ele>
<time>2011-04-28T10:12:54Z</time>
<desc>lat.=21.798773, lon.=104.911499, Alt.=90.110413m. Speed=5.508000m/h.</desc>
<speed>1.530000</speed>
</trkpt>
<trkpt lat="21.798704" lon="104.911530">
<ele>90.819397</ele>
<time>2011-04-28T10:12:59Z</time>
<desc>lat.=21.798704, lon.=104.911530, Alt.=90.819397m. Speed=6.660000m/h.</desc>
<speed>1.850000</speed>
</trkpt>
<trkpt lat="21.798643" lon="104.911568">
<ele>91.012756</ele>
<time>2011-04-28T10:13:04Z</time>
<desc>lat.=21.798643, lon.=104.911568, Alt.=91.012756m. Speed=3.312000m/h.</desc>
<speed>0.920000</speed>
</trkpt>
<trkpt lat="21.798582" lon="104.911598">
<ele>91.471741</ele>
<time>2011-04-28T10:13:09Z</time>
<desc>lat.=21.798582, lon.=104.911598, Alt.=91.471741m. Speed=6.120000m/h.</desc>
<speed>1.700000</speed>
</trkpt>
<trkpt lat="21.798544" lon="104.911674">
<ele>92.747131</ele>
<time>2011-04-28T10:13:14Z</time>
<desc>lat.=21.798544, lon.=104.911674, Alt.=92.747131m. Speed=5.976000m/h.</desc>
<speed>1.660000</speed>
</trkpt>
<trkpt lat="21.798494" lon="104.911766">
<ele>95.241272</ele>
<time>2011-04-28T10:13:19Z</time>
<desc>lat.=21.798494, lon.=104.911766, Alt.=95.241272m. Speed=5.940000m/h.</desc>
<speed>1.650000</speed>
</trkpt>
<trkpt lat="21.798473" lon="104.911827">
<ele>96.631897</ele>
<time>2011-04-28T10:13:24Z</time>
<desc>lat.=21.798473, lon.=104.911827, Alt.=96.631897m. Speed=4.824000m/h.</desc>
<speed>1.340000</speed>
</trkpt>
<trkpt lat="21.798449" lon="104.911919">
<ele>98.075256</ele>
<time>2011-04-28T10:13:29Z</time>
<desc>lat.=21.798449, lon.=104.911919, Alt.=98.075256m. Speed=6.768000m/h.</desc>
<speed>1.880000</speed>
</trkpt>
<trkpt lat="21.798439" lon="104.911995">
<ele>99.422913</ele>
<time>2011-04-28T10:13:34Z</time>
<desc>lat.=21.798439, lon.=104.911995, Alt.=99.422913m. Speed=3.240000m/h.</desc>
<speed>0.900000</speed>
</trkpt>
<trkpt lat="21.798426" lon="104.912079">
<ele>100.772522</ele>
<time>2011-04-28T10:13:39Z</time>
<desc>lat.=21.798426, lon.=104.912079, Alt.=100.772522m. Speed=5.796000m/h.</desc>
<speed>1.610000</speed>
</trkpt>
<trkpt lat="21.798409" lon="104.912163">
<ele>101.909241</ele>
<time>2011-04-28T10:13:44Z</time>
<desc>lat.=21.798409, lon.=104.912163, Alt.=101.909241m. Speed=4.860000m/h.</desc>
<speed>1.350000</speed>
</trkpt>
<trkpt lat="21.798388" lon="104.912231">
<ele>103.114319</ele>
<time>2011-04-28T10:13:49Z</time>
<desc>lat.=21.798388, lon.=104.912231, Alt.=103.114319m. Speed=4.644000m/h.</desc>
<speed>1.290000</speed>
</trkpt>
<trkpt lat="21.798355" lon="104.912292">
<ele>103.819397</ele>
<time>2011-04-28T10:13:54Z</time>
<desc>lat.=21.798355, lon.=104.912292, Alt.=103.819397m. Speed=4.932000m/h.</desc>
<speed>1.370000</speed>
</trkpt>
<trkpt lat="21.798342" lon="104.912338">
<ele>104.674866</ele>
<time>2011-04-28T10:13:59Z</time>
<desc>lat.=21.798342, lon.=104.912338, Alt.=104.674866m. Speed=4.140000m/h.</desc>
<speed>1.150000</speed>
</trkpt>
<trkpt lat="21.798300" lon="104.912361">
<ele>105.985413</ele>
<time>2011-04-28T10:14:04Z</time>
<desc>lat.=21.798300, lon.=104.912361, Alt.=105.985413m. Speed=2.736000m/h.</desc>
<speed>0.760000</speed>
</trkpt>
<trkpt lat="21.798237" lon="104.912369">
<ele>107.516663</ele>
<time>2011-04-28T10:14:09Z</time>
<desc>lat.=21.798237, lon.=104.912369, Alt.=107.516663m. Speed=4.104000m/h.</desc>
<speed>1.140000</speed>
</trkpt>
<trkpt lat="21.798140" lon="104.912422">
<ele>109.155334</ele>
<time>2011-04-28T10:14:14Z</time>
<desc>lat.=21.798140, lon.=104.912422, Alt.=109.155334m. Speed=6.120000m/h.</desc>
<speed>1.700000</speed>
</trkpt>
<trkpt lat="21.798054" lon="104.912468">
<ele>111.512756</ele>
<time>2011-04-28T10:14:19Z</time>
<desc>lat.=21.798054, lon.=104.912468, Alt.=111.512756m. Speed=5.364000m/h.</desc>
<speed>1.490000</speed>
</trkpt>
<trkpt lat="21.797979" lon="104.912506">
<ele>113.692444</ele>
<time>2011-04-28T10:14:24Z</time>
<desc>lat.=21.797979, lon.=104.912506, Alt.=113.692444m. Speed=4.608000m/h.</desc>
<speed>1.280000</speed>
</trkpt>
<trkpt lat="21.797911" lon="104.912529">
<ele>115.135803</ele>
<time>2011-04-28T10:14:29Z</time>
<desc>lat.=21.797911, lon.=104.912529, Alt.=115.135803m. Speed=6.228000m/h.</desc>
<speed>1.730000</speed>
</trkpt>
<trkpt lat="21.797846" lon="104.912613">
<ele>115.924866</ele>
<time>2011-04-28T10:14:34Z</time>
<desc>lat.=21.797846, lon.=104.912613, Alt.=115.924866m. Speed=5.364000m/h.</desc>
<speed>1.490000</speed>
</trkpt>
<trkpt lat="21.797766" lon="104.912666">
<ele>116.866272</ele>
<time>2011-04-28T10:14:39Z</time>
<desc>lat.=21.797766, lon.=104.912666, Alt.=116.866272m. Speed=6.228000m/h.</desc>
<speed>1.730000</speed>
</trkpt>
<trkpt lat="21.797689" lon="104.912720">
<ele>117.374084</ele>
<time>2011-04-28T10:14:44Z</time>
<desc>lat.=21.797689, lon.=104.912720, Alt.=117.374084m. Speed=5.940000m/h.</desc>
<speed>1.650000</speed>
</trkpt>
<trkpt lat="21.797617" lon="104.912781">
<ele>117.208069</ele>
<time>2011-04-28T10:14:49Z</time>
<desc>lat.=21.797617, lon.=104.912781, Alt.=117.208069m. Speed=6.984000m/h.</desc>
<speed>1.940000</speed>
</trkpt>
<trkpt lat="21.797533" lon="104.912811">
<ele>117.930725</ele>
<time>2011-04-28T10:14:54Z</time>
<desc>lat.=21.797533, lon.=104.912811, Alt.=117.930725m. Speed=6.048000m/h.</desc>
<speed>1.680000</speed>
</trkpt>
<trkpt lat="21.797445" lon="104.912849">
<ele>118.752991</ele>
<time>2011-04-28T10:14:59Z</time>
<desc>lat.=21.797445, lon.=104.912849, Alt.=118.752991m. Speed=7.272000m/h.</desc>
<speed>2.020000</speed>
</trkpt>
<trkpt lat="21.797319" lon="104.912865">
<ele>118.055725</ele>
<time>2011-04-28T10:15:04Z</time>
<desc>lat.=21.797319, lon.=104.912865, Alt.=118.055725m. Speed=6.120000m/h.</desc>
<speed>1.700000</speed>
</trkpt>
<trkpt lat="21.797235" lon="104.912910">
<ele>118.563538</ele>
<time>2011-04-28T10:15:09Z</time>
<desc>lat.=21.797235, lon.=104.912910, Alt.=118.563538m. Speed=7.056000m/h.</desc>
<speed>1.960000</speed>
</trkpt>
<trkpt lat="21.797152" lon="104.912941">
<ele>118.948303</ele>
<time>2011-04-28T10:15:14Z</time>
<desc>lat.=21.797152, lon.=104.912941, Alt.=118.948303m. Speed=7.272000m/h.</desc>
<speed>2.020000</speed>
</trkpt>
<trkpt lat="21.797058" lon="104.912987">
<ele>119.297913</ele>
<time>2011-04-28T10:15:19Z</time>
<desc>lat.=21.797058, lon.=104.912987, Alt.=119.297913m. Speed=6.840000m/h.</desc>
<speed>1.900000</speed>
</trkpt>
<trkpt lat="21.796942" lon="104.913040">
<ele>118.932678</ele>
<time>2011-04-28T10:15:24Z</time>
<desc>lat.=21.796942, lon.=104.913040, Alt.=118.932678m. Speed=6.228000m/h.</desc>
<speed>1.730000</speed>
</trkpt>
<trkpt lat="21.796843" lon="104.913086">
<ele>118.440491</ele>
<time>2011-04-28T10:15:29Z</time>
<desc>lat.=21.796843, lon.=104.913086, Alt.=118.440491m. Speed=7.776000m/h.</desc>
<speed>2.160000</speed>
</trkpt>
<trkpt lat="21.796761" lon="104.913124">
<ele>118.989319</ele>
<time>2011-04-28T10:15:34Z</time>
<desc>lat.=21.796761, lon.=104.913124, Alt.=118.989319m. Speed=5.616000m/h.</desc>
<speed>1.560000</speed>
</trkpt>
<trkpt lat="21.796669" lon="104.913139">
<ele>119.510803</ele>
<time>2011-04-28T10:15:39Z</time>
<desc>lat.=21.796669, lon.=104.913139, Alt.=119.510803m. Speed=7.308000m/h.</desc>
<speed>2.030000</speed>
</trkpt>
<trkpt lat="21.796598" lon="104.913155">
<ele>120.788147</ele>
<time>2011-04-28T10:15:44Z</time>
<desc>lat.=21.796598, lon.=104.913155, Alt.=120.788147m. Speed=6.264000m/h.</desc>
<speed>1.740000</speed>
</trkpt>
<trkpt lat="21.796535" lon="104.913231">
<ele>121.852600</ele>
<time>2011-04-28T10:15:49Z</time>
<desc>lat.=21.796535, lon.=104.913231, Alt.=121.852600m. Speed=7.308000m/h.</desc>
<speed>2.030000</speed>
</trkpt>
<trkpt lat="21.796465" lon="104.913322">
<ele>123.499084</ele>
<time>2011-04-28T10:15:54Z</time>
<desc>lat.=21.796465, lon.=104.913322, Alt.=123.499084m. Speed=6.048000m/h.</desc>
<speed>1.680000</speed>
</trkpt>
<trkpt lat="21.796392" lon="104.913361">
<ele>123.926819</ele>
<time>2011-04-28T10:15:59Z</time>
<desc>lat.=21.796392, lon.=104.913361, Alt.=123.926819m. Speed=5.868000m/h.</desc>
<speed>1.630000</speed>
</trkpt>
<trkpt lat="21.796299" lon="104.913368">
<ele>124.360413</ele>
<time>2011-04-28T10:16:04Z</time>
<desc>lat.=21.796299, lon.=104.913368, Alt.=124.360413m. Speed=6.624000m/h.</desc>
<speed>1.840000</speed>
</trkpt>
<trkpt lat="21.796211" lon="104.913399">
<ele>125.094788</ele>
<time>2011-04-28T10:16:09Z</time>
<desc>lat.=21.796211, lon.=104.913399, Alt.=125.094788m. Speed=5.796000m/h.</desc>
<speed>1.610000</speed>
</trkpt>
<trkpt lat="21.796059" lon="104.913399">
<ele>123.932678</ele>
<time>2011-04-28T10:16:14Z</time>
<desc>lat.=21.796059, lon.=104.913399, Alt.=123.932678m. Speed=5.508000m/h.</desc>
<speed>1.530000</speed>
</trkpt>
<trkpt lat="21.795973" lon="104.913437">
<ele>123.752991</ele>
<time>2011-04-28T10:16:19Z</time>
<desc>lat.=21.795973, lon.=104.913437, Alt.=123.752991m. Speed=8.028000m/h.</desc>
<speed>2.230000</speed>
</trkpt>
<trkpt lat="21.795872" lon="104.913475">
<ele>123.952209</ele>
<time>2011-04-28T10:16:24Z</time>
<desc>lat.=21.795872, lon.=104.913475, Alt.=123.952209m. Speed=6.840000m/h.</desc>
<speed>1.900000</speed>
</trkpt>
<trkpt lat="21.795767" lon="104.913536">
<ele>123.100647</ele>
<time>2011-04-28T10:16:29Z</time>
<desc>lat.=21.795767, lon.=104.913536, Alt.=123.100647m. Speed=5.688000m/h.</desc>
<speed>1.580000</speed>
</trkpt>
<trkpt lat="21.795692" lon="104.913597">
<ele>121.807678</ele>
<time>2011-04-28T10:16:34Z</time>
<desc>lat.=21.795692, lon.=104.913597, Alt.=121.807678m. Speed=6.696000m/h.</desc>
<speed>1.860000</speed>
</trkpt>
<trkpt lat="21.795616" lon="104.913696">
<ele>119.094788</ele>
<time>2011-04-28T10:16:39Z</time>
<desc>lat.=21.795616, lon.=104.913696, Alt.=119.094788m. Speed=6.948000m/h.</desc>
<speed>1.930000</speed>
</trkpt>
<trkpt lat="21.795540" lon="104.913818">
<ele>118.053772</ele>
<time>2011-04-28T10:16:44Z</time>
<desc>lat.=21.795540, lon.=104.913818, Alt.=118.053772m. Speed=9.432000m/h.</desc>
<speed>2.620000</speed>
</trkpt>
<trkpt lat="21.795481" lon="104.913933">
<ele>115.585022</ele>
<time>2011-04-28T10:16:49Z</time>
<desc>lat.=21.795481, lon.=104.913933, Alt.=115.585022m. Speed=8.352000m/h.</desc>
<speed>2.320000</speed>
</trkpt>
<trkpt lat="21.795404" lon="104.914085">
<ele>116.419006</ele>
<time>2011-04-28T10:16:54Z</time>
<desc>lat.=21.795404, lon.=104.914085, Alt.=116.419006m. Speed=9.252000m/h.</desc>
<speed>2.570000</speed>
</trkpt>
<trkpt lat="21.795345" lon="104.914192">
<ele>116.643616</ele>
<time>2011-04-28T10:16:59Z</time>
<desc>lat.=21.795345, lon.=104.914192, Alt.=116.643616m. Speed=8.244000m/h.</desc>
<speed>2.290000</speed>
</trkpt>
<trkpt lat="21.795271" lon="104.914307">
<ele>119.534241</ele>
<time>2011-04-28T10:17:04Z</time>
<desc>lat.=21.795271, lon.=104.914307, Alt.=119.534241m. Speed=8.676000m/h.</desc>
<speed>2.410000</speed>
</trkpt>
<trkpt lat="21.795221" lon="104.914421">
<ele>122.553772</ele>
<time>2011-04-28T10:17:09Z</time>
<desc>lat.=21.795221, lon.=104.914421, Alt.=122.553772m. Speed=6.048000m/h.</desc>
<speed>1.680000</speed>
</trkpt>
<trkpt lat="21.795200" lon="104.914536">
<ele>124.704163</ele>
<time>2011-04-28T10:17:14Z</time>
<desc>lat.=21.795200, lon.=104.914536, Alt.=124.704163m. Speed=5.328000m/h.</desc>
<speed>1.480000</speed>
</trkpt>
<trkpt lat="21.795149" lon="104.914627">
<ele>124.049866</ele>
<time>2011-04-28T10:17:19Z</time>
<desc>lat.=21.795149, lon.=104.914627, Alt.=124.049866m. Speed=1.368000m/h.</desc>
<speed>0.380000</speed>
</trkpt>
<trkpt lat="21.795130" lon="104.914627">
<ele>123.198303</ele>
<time>2011-04-28T10:17:24Z</time>
<desc>lat.=21.795130, lon.=104.914627, Alt.=123.198303m. Speed=0.252000m/h.</desc>
<speed>0.070000</speed>
</trkpt>
<trkpt lat="21.795128" lon="104.914635">
<ele>122.489319</ele>
<time>2011-04-28T10:17:29Z</time>
<desc>lat.=21.795128, lon.=104.914635, Alt.=122.489319m. Speed=0.612000m/h.</desc>
<speed>0.170000</speed>
</trkpt>
<trkpt lat="21.795137" lon="104.914635">
<ele>121.946350</ele>
<time>2011-04-28T10:17:34Z</time>
<desc>lat.=21.795137, lon.=104.914635, Alt.=121.946350m. Speed=0.396000m/h.</desc>
<speed>0.110000</speed>
</trkpt>
<trkpt lat="21.795143" lon="104.914642">
<ele>121.874084</ele>
<time>2011-04-28T10:17:39Z</time>
<desc>lat.=21.795143, lon.=104.914642, Alt.=121.874084m. Speed=0.756000m/h.</desc>
<speed>0.210000</speed>
</trkpt>
<trkpt lat="21.795147" lon="104.914642">
<ele>121.844788</ele>
<time>2011-04-28T10:17:44Z</time>
<desc>lat.=21.795147, lon.=104.914642, Alt.=121.844788m. Speed=0.216000m/h.</desc>
<speed>0.060000</speed>
</trkpt>
<trkpt lat="21.795147" lon="104.914642">
<ele>121.836975</ele>
<time>2011-04-28T10:17:49Z</time>
<desc>lat.=21.795147, lon.=104.914642, Alt.=121.836975m. Speed=0.180000m/h.</desc>
<speed>0.050000</speed>
</trkpt>
<trkpt lat="21.795147" lon="104.914642">
<ele>121.840881</ele>
<time>2011-04-28T10:17:54Z</time>
<desc>lat.=21.795147, lon.=104.914642, Alt.=121.840881m. Speed=0.252000m/h.</desc>
<speed>0.070000</speed>
</trkpt>
<trkpt lat="21.795147" lon="104.914650">
<ele>121.848694</ele>
<time>2011-04-28T10:17:59Z</time>
<desc>lat.=21.795147, lon.=104.914650, Alt.=121.848694m. Speed=0.324000m/h.</desc>
<speed>0.090000</speed>
</trkpt>
<trkpt lat="21.795147" lon="104.914650">
<ele>121.856506</ele>
<time>2011-04-28T10:18:04Z</time>
<desc>lat.=21.795147, lon.=104.914650, Alt.=121.856506m. Speed=0.180000m/h.</desc>
<speed>0.050000</speed>
</trkpt>
<trkpt lat="21.795141" lon="104.914658">
<ele>121.866272</ele>
<time>2011-04-28T10:18:09Z</time>
<desc>lat.=21.795141, lon.=104.914658, Alt.=121.866272m. Speed=0.540000m/h.</desc>
<speed>0.150000</speed>
</trkpt>
<trkpt lat="21.795141" lon="104.914658">
<ele>121.876038</ele>
<time>2011-04-28T10:18:14Z</time>
<desc>lat.=21.795141, lon.=104.914658, Alt.=121.876038m. Speed=0.252000m/h.</desc>
<speed>0.070000</speed>
</trkpt>
<trkpt lat="21.795139" lon="104.914665">
<ele>121.893616</ele>
<time>2011-04-28T10:18:19Z</time>
<desc>lat.=21.795139, lon.=104.914665, Alt.=121.893616m. Speed=0.648000m/h.</desc>
<speed>0.180000</speed>
</trkpt>
<trkpt lat="21.795147" lon="104.914642">
<ele>122.657288</ele>
<time>2011-04-28T10:18:24Z</time>
<desc>lat.=21.795147, lon.=104.914642, Alt.=122.657288m. Speed=0.252000m/h.</desc>
<speed>0.070000</speed>
</trkpt>
<trkpt lat="21.795151" lon="104.914642">
<ele>122.688538</ele>
<time>2011-04-28T10:18:29Z</time>
<desc>lat.=21.795151, lon.=104.914642, Alt.=122.688538m. Speed=0.864000m/h.</desc>
<speed>0.240000</speed>
</trkpt>
<trkpt lat="21.795156" lon="104.914627">
<ele>122.711975</ele>
<time>2011-04-28T10:18:34Z</time>
<desc>lat.=21.795156, lon.=104.914627, Alt.=122.711975m. Speed=0.648000m/h.</desc>
<speed>0.180000</speed>
</trkpt>
<trkpt lat="21.795158" lon="104.914627">
<ele>122.717834</ele>
<time>2011-04-28T10:18:39Z</time>
<desc>lat.=21.795158, lon.=104.914627, Alt.=122.717834m. Speed=0.180000m/h.</desc>
<speed>0.050000</speed>
</trkpt>
<trkpt lat="21.795158" lon="104.914619">
<ele>122.754944</ele>
<time>2011-04-28T10:18:44Z</time>
<desc>lat.=21.795158, lon.=104.914619, Alt.=122.754944m. Speed=0.000000m/h.</desc>
<speed>0.000000</speed>
</trkpt>
<trkpt lat="21.795158" lon="104.914619">
<ele>122.792053</ele>
<time>2011-04-28T10:18:49Z</time>
<desc>lat.=21.795158, lon.=104.914619, Alt.=122.792053m. Speed=0.000000m/h.</desc>
<speed>0.000000</speed>
</trkpt>
<trkpt lat="21.795158" lon="104.914619">
<ele>122.825256</ele>
<time>2011-04-28T10:18:54Z</time>
<desc>lat.=21.795158, lon.=104.914619, Alt.=122.825256m. Speed=0.000000m/h.</desc>
<speed>0.000000</speed>
</trkpt>
<trkpt lat="21.795158" lon="104.914619">
<ele>122.870178</ele>
<time>2011-04-28T10:18:59Z</time>
<desc>lat.=21.795158, lon.=104.914619, Alt.=122.870178m. Speed=0.000000m/h.</desc>
<speed>0.000000</speed>
</trkpt>
<trkpt lat="21.795158" lon="104.914619">
<ele>122.909241</ele>
<time>2011-04-28T10:19:04Z</time>
<desc>lat.=21.795158, lon.=104.914619, Alt.=122.909241m. Speed=0.000000m/h.</desc>
<speed>0.000000</speed>
</trkpt>
<trkpt lat="21.795158" lon="104.914619">
<ele>122.948303</ele>
<time>2011-04-28T10:19:09Z</time>
<desc>lat.=21.795158, lon.=104.914619, Alt.=122.948303m. Speed=0.000000m/h.</desc>
<speed>0.000000</speed>
</trkpt>
<trkpt lat="21.795160" lon="104.914619">
<ele>123.344788</ele>
<time>2011-04-28T10:19:14Z</time>
<desc>lat.=21.795160, lon.=104.914619, Alt.=123.344788m. Speed=0.000000m/h.</desc>
<speed>0.000000</speed>
</trkpt>
<trkpt lat="21.795160" lon="104.914604">
<ele>124.838928</ele>
<time>2011-04-28T10:19:19Z</time>
<desc>lat.=21.795160, lon.=104.914604, Alt.=124.838928m. Speed=0.000000m/h.</desc>
<speed>0.000000</speed>
</trkpt>
<trkpt lat="21.795162" lon="104.914597">
<ele>126.286194</ele>
<time>2011-04-28T10:19:24Z</time>
<desc>lat.=21.795162, lon.=104.914597, Alt.=126.286194m. Speed=0.036000m/h.</desc>
<speed>0.010000</speed>
</trkpt>
<trkpt lat="21.795160" lon="104.914589">
<ele>127.458069</ele>
<time>2011-04-28T10:19:29Z</time>
<desc>lat.=21.795160, lon.=104.914589, Alt.=127.458069m. Speed=0.036000m/h.</desc>
<speed>0.010000</speed>
</trkpt>
<trkpt lat="21.795158" lon="104.914597">
<ele>128.373169</ele>
<time>2011-04-28T10:19:34Z</time>
<desc>lat.=21.795158, lon.=104.914597, Alt.=128.373169m. Speed=0.036000m/h.</desc>
<speed>0.010000</speed>
</trkpt>
<trkpt lat="21.795158" lon="104.914604">
<ele>128.884888</ele>
<time>2011-04-28T10:19:39Z</time>
<desc>lat.=21.795158, lon.=104.914604, Alt.=128.884888m. Speed=0.000000m/h.</desc>
<speed>0.000000</speed>
</trkpt>
<trkpt lat="21.795162" lon="104.914604">
<ele>128.959106</ele>
<time>2011-04-28T10:19:44Z</time>
<desc>lat.=21.795162, lon.=104.914604, Alt.=128.959106m. Speed=0.036000m/h.</desc>
<speed>0.010000</speed>
</trkpt>
<trkpt lat="21.795164" lon="104.914612">
<ele>129.298950</ele>
<time>2011-04-28T10:19:49Z</time>
<desc>lat.=21.795164, lon.=104.914612, Alt.=129.298950m. Speed=0.036000m/h.</desc>
<speed>0.010000</speed>
</trkpt>
<trkpt lat="21.795166" lon="104.914619">
<ele>129.548950</ele>
<time>2011-04-28T10:19:54Z</time>
<desc>lat.=21.795166, lon.=104.914619, Alt.=129.548950m. Speed=0.000000m/h.</desc>
<speed>0.000000</speed>
</trkpt>
<trkpt lat="21.795166" lon="104.914612">
<ele>129.865356</ele>
<time>2011-04-28T10:19:59Z</time>
<desc>lat.=21.795166, lon.=104.914612, Alt.=129.865356m. Speed=0.000000m/h.</desc>
<speed>0.000000</speed>
</trkpt>
<trkpt lat="21.795164" lon="104.914612">
<ele>129.880981</ele>
<time>2011-04-28T10:20:04Z</time>
<desc>lat.=21.795164, lon.=104.914612, Alt.=129.880981m. Speed=0.000000m/h.</desc>
<speed>0.000000</speed>
</trkpt>
<trkpt lat="21.795164" lon="104.914612">
<ele>129.896606</ele>
<time>2011-04-28T10:20:09Z</time>
<desc>lat.=21.795164, lon.=104.914612, Alt.=129.896606m. Speed=0.000000m/h.</desc>
<speed>0.000000</speed>
</trkpt>
<trkpt lat="21.795164" lon="104.914612">
<ele>129.912231</ele>
<time>2011-04-28T10:20:14Z</time>
<desc>lat.=21.795164, lon.=104.914612, Alt.=129.912231m. Speed=0.000000m/h.</desc>
<speed>0.000000</speed>
</trkpt>
<trkpt lat="21.795164" lon="104.914612">
<ele>129.916138</ele>
<time>2011-04-28T10:20:19Z</time>
<desc>lat.=21.795164, lon.=104.914612, Alt.=129.916138m. Speed=0.000000m/h.</desc>
<speed>0.000000</speed>
</trkpt>
<trkpt lat="21.795164" lon="104.914612">
<ele>129.923950</ele>
<time>2011-04-28T10:20:24Z</time>
<desc>lat.=21.795164, lon.=104.914612, Alt.=129.923950m. Speed=0.000000m/h.</desc>
<speed>0.000000</speed>
</trkpt>
<trkpt lat="21.795164" lon="104.914612">
<ele>129.931763</ele>
<time>2011-04-28T10:20:29Z</time>
<desc>lat.=21.795164, lon.=104.914612, Alt.=129.931763m. Speed=0.000000m/h.</desc>
<speed>0.000000</speed>
</trkpt>
<trkpt lat="21.795164" lon="104.914612">
<ele>129.931763</ele>
<time>2011-04-28T10:20:34Z</time>
<desc>lat.=21.795164, lon.=104.914612, Alt.=129.931763m. Speed=0.000000m/h.</desc>
<speed>0.000000</speed>
</trkpt>
<trkpt lat="21.795164" lon="104.914612">
<ele>129.943481</ele>
<time>2011-04-28T10:20:39Z</time>
<desc>lat.=21.795164, lon.=104.914612, Alt.=129.943481m. Speed=0.036000m/h.</desc>
<speed>0.010000</speed>
</trkpt>
<trkpt lat="21.795164" lon="104.914612">
<ele>129.963013</ele>
<time>2011-04-28T10:20:44Z</time>
<desc>lat.=21.795164, lon.=104.914612, Alt.=129.963013m. Speed=0.000000m/h.</desc>
<speed>0.000000</speed>
</trkpt>
<trkpt lat="21.795164" lon="104.914612">
<ele>129.986450</ele>
<time>2011-04-28T10:20:49Z</time>
<desc>lat.=21.795164, lon.=104.914612, Alt.=129.986450m. Speed=0.000000m/h.</desc>
<speed>0.000000</speed>
</trkpt>
<trkpt lat="21.795164" lon="104.914612">
<ele>129.998169</ele>
<time>2011-04-28T10:20:54Z</time>
<desc>lat.=21.795164, lon.=104.914612, Alt.=129.998169m. Speed=0.000000m/h.</desc>
<speed>0.000000</speed>
</trkpt>
<trkpt lat="21.795164" lon="104.914612">
<ele>130.013794</ele>
<time>2011-04-28T10:20:59Z</time>
<desc>lat.=21.795164, lon.=104.914612, Alt.=130.013794m. Speed=0.000000m/h.</desc>
<speed>0.000000</speed>
</trkpt>
<trkpt lat="21.795166" lon="104.914612">
<ele>130.029419</ele>
<time>2011-04-28T10:21:04Z</time>
<desc>lat.=21.795166, lon.=104.914612, Alt.=130.029419m. Speed=0.036000m/h.</desc>
<speed>0.010000</speed>
</trkpt>
<trkpt lat="21.795166" lon="104.914612">
<ele>130.041138</ele>
<time>2011-04-28T10:21:09Z</time>
<desc>lat.=21.795166, lon.=104.914612, Alt.=130.041138m. Speed=0.000000m/h.</desc>
<speed>0.000000</speed>
</trkpt>
<trkpt lat="21.795166" lon="104.914612">
<ele>130.021606</ele>
<time>2011-04-28T10:21:14Z</time>
<desc>lat.=21.795166, lon.=104.914612, Alt.=130.021606m. Speed=0.000000m/h.</desc>
<speed>0.000000</speed>
</trkpt>
<trkpt lat="21.795166" lon="104.914612">
<ele>129.994263</ele>
<time>2011-04-28T10:21:19Z</time>
<desc>lat.=21.795166, lon.=104.914612, Alt.=129.994263m. Speed=0.036000m/h.</desc>
<speed>0.010000</speed>
</trkpt>
<trkpt lat="21.795166" lon="104.914612">
<ele>129.966919</ele>
<time>2011-04-28T10:21:24Z</time>
<desc>lat.=21.795166, lon.=104.914612, Alt.=129.966919m. Speed=0.072000m/h.</desc>
<speed>0.020000</speed>
</trkpt>
<trkpt lat="21.795166" lon="104.914612">
<ele>129.939575</ele>
<time>2011-04-28T10:21:29Z</time>
<desc>lat.=21.795166, lon.=104.914612, Alt.=129.939575m. Speed=0.000000m/h.</desc>
<speed>0.000000</speed>
</trkpt>
<trkpt lat="21.795166" lon="104.914612">
<ele>129.920044</ele>
<time>2011-04-28T10:21:34Z</time>
<desc>lat.=21.795166, lon.=104.914612, Alt.=129.920044m. Speed=0.000000m/h.</desc>
<speed>0.000000</speed>
</trkpt>
<trkpt lat="21.795166" lon="104.914612">
<ele>129.908325</ele>
<time>2011-04-28T10:21:39Z</time>
<desc>lat.=21.795166, lon.=104.914612, Alt.=129.908325m. Speed=0.000000m/h.</desc>
<speed>0.000000</speed>
</trkpt>
<trkpt lat="21.795166" lon="104.914612">
<ele>129.880981</ele>
<time>2011-04-28T10:21:44Z</time>
<desc>lat.=21.795166, lon.=104.914612, Alt.=129.880981m. Speed=0.000000m/h.</desc>
<speed>0.000000</speed>
</trkpt>
<trkpt lat="21.795166" lon="104.914612">
<ele>129.841919</ele>
<time>2011-04-28T10:21:49Z</time>
<desc>lat.=21.795166, lon.=104.914612, Alt.=129.841919m. Speed=0.000000m/h.</desc>
<speed>0.000000</speed>
</trkpt>
<trkpt lat="21.795166" lon="104.914612">
<ele>129.806763</ele>
<time>2011-04-28T10:21:54Z</time>
<desc>lat.=21.795166, lon.=104.914612, Alt.=129.806763m. Speed=0.000000m/h.</desc>
<speed>0.000000</speed>
</trkpt>
<trkpt lat="21.795166" lon="104.914612">
<ele>129.791138</ele>
<time>2011-04-28T10:21:59Z</time>
<desc>lat.=21.795166, lon.=104.914612, Alt.=129.791138m. Speed=0.000000m/h.</desc>
<speed>0.000000</speed>
</trkpt>
<trkpt lat="21.795166" lon="104.914612">
<ele>129.779419</ele>
<time>2011-04-28T10:22:04Z</time>
<desc>lat.=21.795166, lon.=104.914612, Alt.=129.779419m. Speed=0.000000m/h.</desc>
<speed>0.000000</speed>
</trkpt>
<trkpt lat="21.795166" lon="104.914612">
<ele>129.759888</ele>
<time>2011-04-28T10:22:09Z</time>
<desc>lat.=21.795166, lon.=104.914612, Alt.=129.759888m. Speed=0.000000m/h.</desc>
<speed>0.000000</speed>
</trkpt>
<trkpt lat="21.795166" lon="104.914619">
<ele>129.755981</ele>
<time>2011-04-28T10:22:14Z</time>
<desc>lat.=21.795166, lon.=104.914619, Alt.=129.755981m. Speed=0.000000m/h.</desc>
<speed>0.000000</speed>
</trkpt>
<trkpt lat="21.795166" lon="104.914619">
<ele>129.748169</ele>
<time>2011-04-28T10:22:19Z</time>
<desc>lat.=21.795166, lon.=104.914619, Alt.=129.748169m. Speed=0.036000m/h.</desc>
<speed>0.010000</speed>
</trkpt>
<trkpt lat="21.795168" lon="104.914612">
<ele>129.740356</ele>
<time>2011-04-28T10:22:24Z</time>
<desc>lat.=21.795168, lon.=104.914612, Alt.=129.740356m. Speed=0.000000m/h.</desc>
<speed>0.000000</speed>
</trkpt>
<trkpt lat="21.795168" lon="104.914612">
<ele>129.755981</ele>
<time>2011-04-28T10:22:29Z</time>
<desc>lat.=21.795168, lon.=104.914612, Alt.=129.755981m. Speed=0.000000m/h.</desc>
<speed>0.000000</speed>
</trkpt>
<trkpt lat="21.795168" lon="104.914612">
<ele>129.755981</ele>
<time>2011-04-28T10:22:34Z</time>
<desc>lat.=21.795168, lon.=104.914612, Alt.=129.755981m. Speed=0.000000m/h.</desc>
<speed>0.000000</speed>
</trkpt>
<trkpt lat="21.795168" lon="104.914612">
<ele>129.775513</ele>
<time>2011-04-28T10:22:39Z</time>
<desc>lat.=21.795168, lon.=104.914612, Alt.=129.775513m. Speed=0.036000m/h.</desc>
<speed>0.010000</speed>
</trkpt>
<trkpt lat="21.795168" lon="104.914612">
<ele>129.783325</ele>
<time>2011-04-28T10:22:44Z</time>
<desc>lat.=21.795168, lon.=104.914612, Alt.=129.783325m. Speed=0.036000m/h.</desc>
<speed>0.010000</speed>
</trkpt>
<trkpt lat="21.795168" lon="104.914612">
<ele>129.806763</ele>
<time>2011-04-28T10:22:49Z</time>
<desc>lat.=21.795168, lon.=104.914612, Alt.=129.806763m. Speed=0.000000m/h.</desc>
<speed>0.000000</speed>
</trkpt>
<trkpt lat="21.795168" lon="104.914612">
<ele>129.834106</ele>
<time>2011-04-28T10:22:54Z</time>
<desc>lat.=21.795168, lon.=104.914612, Alt.=129.834106m. Speed=0.036000m/h.</desc>
<speed>0.010000</speed>
</trkpt>
<trkpt lat="21.795168" lon="104.914612">
<ele>129.861450</ele>
<time>2011-04-28T10:22:59Z</time>
<desc>lat.=21.795168, lon.=104.914612, Alt.=129.861450m. Speed=0.000000m/h.</desc>
<speed>0.000000</speed>
</trkpt>
<trkpt lat="21.795168" lon="104.914612">
<ele>129.865356</ele>
<time>2011-04-28T10:23:04Z</time>
<desc>lat.=21.795168, lon.=104.914612, Alt.=129.865356m. Speed=0.000000m/h.</desc>
<speed>0.000000</speed>
</trkpt>
<trkpt lat="21.795168" lon="104.914619">
<ele>129.873169</ele>
<time>2011-04-28T10:23:09Z</time>
<desc>lat.=21.795168, lon.=104.914619, Alt.=129.873169m. Speed=0.000000m/h.</desc>
<speed>0.000000</speed>
</trkpt>
<trkpt lat="21.795168" lon="104.914619">
<ele>129.869263</ele>
<time>2011-04-28T10:23:14Z</time>
<desc>lat.=21.795168, lon.=104.914619, Alt.=129.869263m. Speed=0.036000m/h.</desc>
<speed>0.010000</speed>
</trkpt>
<trkpt lat="21.795168" lon="104.914619">
<ele>129.865356</ele>
<time>2011-04-28T10:23:19Z</time>
<desc>lat.=21.795168, lon.=104.914619, Alt.=129.865356m. Speed=0.036000m/h.</desc>
<speed>0.010000</speed>
</trkpt>
<trkpt lat="21.795168" lon="104.914619">
<ele>129.865356</ele>
<time>2011-04-28T10:23:24Z</time>
<desc>lat.=21.795168, lon.=104.914619, Alt.=129.865356m. Speed=0.036000m/h.</desc>
<speed>0.010000</speed>
</trkpt>
<trkpt lat="21.795168" lon="104.914619">
<ele>129.880981</ele>
<time>2011-04-28T10:23:29Z</time>
<desc>lat.=21.795168, lon.=104.914619, Alt.=129.880981m. Speed=0.036000m/h.</desc>
<speed>0.010000</speed>
</trkpt>
<trkpt lat="21.795168" lon="104.914619">
<ele>129.900513</ele>
<time>2011-04-28T10:23:34Z</time>
<desc>lat.=21.795168, lon.=104.914619, Alt.=129.900513m. Speed=0.000000m/h.</desc>
<speed>0.000000</speed>
</trkpt>
<trkpt lat="21.795168" lon="104.914619">
<ele>129.927856</ele>
<time>2011-04-28T10:23:39Z</time>
<desc>lat.=21.795168, lon.=104.914619, Alt.=129.927856m. Speed=0.000000m/h.</desc>
<speed>0.000000</speed>
</trkpt>
<trkpt lat="21.795168" lon="104.914619">
<ele>129.951294</ele>
<time>2011-04-28T10:23:44Z</time>
<desc>lat.=21.795168, lon.=104.914619, Alt.=129.951294m. Speed=0.000000m/h.</desc>
<speed>0.000000</speed>
</trkpt>
<trkpt lat="21.795168" lon="104.914619">
<ele>129.974731</ele>
<time>2011-04-28T10:23:49Z</time>
<desc>lat.=21.795168, lon.=104.914619, Alt.=129.974731m. Speed=0.000000m/h.</desc>
<speed>0.000000</speed>
</trkpt>
<trkpt lat="21.795168" lon="104.914619">
<ele>129.990356</ele>
<time>2011-04-28T10:23:54Z</time>
<desc>lat.=21.795168, lon.=104.914619, Alt.=129.990356m. Speed=0.036000m/h.</desc>
<speed>0.010000</speed>
</trkpt>
<trkpt lat="21.795168" lon="104.914619">
<ele>129.998169</ele>
<time>2011-04-28T10:23:59Z</time>
<desc>lat.=21.795168, lon.=104.914619, Alt.=129.998169m. Speed=0.036000m/h.</desc>
<speed>0.010000</speed>
</trkpt>
<trkpt lat="21.795168" lon="104.914619">
<ele>129.990356</ele>
<time>2011-04-28T10:24:04Z</time>
<desc>lat.=21.795168, lon.=104.914619, Alt.=129.990356m. Speed=0.036000m/h.</desc>
<speed>0.010000</speed>
</trkpt>
<trkpt lat="21.795168" lon="104.914619">
<ele>129.982544</ele>
<time>2011-04-28T10:24:09Z</time>
<desc>lat.=21.795168, lon.=104.914619, Alt.=129.982544m. Speed=0.000000m/h.</desc>
<speed>0.000000</speed>
</trkpt>
<trkpt lat="21.795168" lon="104.914619">
<ele>129.974731</ele>
<time>2011-04-28T10:24:14Z</time>
<desc>lat.=21.795168, lon.=104.914619, Alt.=129.974731m. Speed=0.000000m/h.</desc>
<speed>0.000000</speed>
</trkpt>
<trkpt lat="21.795168" lon="104.914619">
<ele>129.978638</ele>
<time>2011-04-28T10:24:19Z</time>
<desc>lat.=21.795168, lon.=104.914619, Alt.=129.978638m. Speed=0.072000m/h.</desc>
<speed>0.020000</speed>
</trkpt>
<trkpt lat="21.795168" lon="104.914619">
<ele>129.982544</ele>
<time>2011-04-28T10:24:24Z</time>
<desc>lat.=21.795168, lon.=104.914619, Alt.=129.982544m. Speed=0.036000m/h.</desc>
<speed>0.010000</speed>
</trkpt>
<trkpt lat="21.795168" lon="104.914619">
<ele>129.982544</ele>
<time>2011-04-28T10:24:29Z</time>
<desc>lat.=21.795168, lon.=104.914619, Alt.=129.982544m. Speed=0.000000m/h.</desc>
<speed>0.000000</speed>
</trkpt>
<trkpt lat="21.795170" lon="104.914619">
<ele>129.982544</ele>
<time>2011-04-28T10:24:34Z</time>
<desc>lat.=21.795170, lon.=104.914619, Alt.=129.982544m. Speed=0.036000m/h.</desc>
<speed>0.010000</speed>
</trkpt>
<trkpt lat="21.795170" lon="104.914619">
<ele>129.974731</ele>
<time>2011-04-28T10:24:39Z</time>
<desc>lat.=21.795170, lon.=104.914619, Alt.=129.974731m. Speed=0.000000m/h.</desc>
<speed>0.000000</speed>
</trkpt>
<trkpt lat="21.795170" lon="104.914619">
<ele>129.959106</ele>
<time>2011-04-28T10:24:44Z</time>
<desc>lat.=21.795170, lon.=104.914619, Alt.=129.959106m. Speed=0.000000m/h.</desc>
<speed>0.000000</speed>
</trkpt>
<trkpt lat="21.795170" lon="104.914619">
<ele>129.943481</ele>
<time>2011-04-28T10:24:49Z</time>
<desc>lat.=21.795170, lon.=104.914619, Alt.=129.943481m. Speed=0.036000m/h.</desc>
<speed>0.010000</speed>
</trkpt>
<trkpt lat="21.795170" lon="104.914619">
<ele>129.923950</ele>
<time>2011-04-28T10:24:54Z</time>
<desc>lat.=21.795170, lon.=104.914619, Alt.=129.923950m. Speed=0.036000m/h.</desc>
<speed>0.010000</speed>
</trkpt>
<trkpt lat="21.795170" lon="104.914619">
<ele>129.908325</ele>
<time>2011-04-28T10:24:59Z</time>
<desc>lat.=21.795170, lon.=104.914619, Alt.=129.908325m. Speed=0.000000m/h.</desc>
<speed>0.000000</speed>
</trkpt>
<trkpt lat="21.795168" lon="104.914619">
<ele>129.892700</ele>
<time>2011-04-28T10:25:04Z</time>
<desc>lat.=21.795168, lon.=104.914619, Alt.=129.892700m. Speed=0.000000m/h.</desc>
<speed>0.000000</speed>
</trkpt>
<trkpt lat="21.795168" lon="104.914619">
<ele>129.865356</ele>
<time>2011-04-28T10:25:09Z</time>
<desc>lat.=21.795168, lon.=104.914619, Alt.=129.865356m. Speed=0.036000m/h.</desc>
<speed>0.010000</speed>
</trkpt>
<trkpt lat="21.795168" lon="104.914619">
<ele>129.841919</ele>
<time>2011-04-28T10:25:14Z</time>
<desc>lat.=21.795168, lon.=104.914619, Alt.=129.841919m. Speed=0.000000m/h.</desc>
<speed>0.000000</speed>
</trkpt>
<trkpt lat="21.795168" lon="104.914619">
<ele>129.826294</ele>
<time>2011-04-28T10:25:19Z</time>
<desc>lat.=21.795168, lon.=104.914619, Alt.=129.826294m. Speed=0.000000m/h.</desc>
<speed>0.000000</speed>
</trkpt>
<trkpt lat="21.795168" lon="104.914619">
<ele>129.798950</ele>
<time>2011-04-28T10:25:24Z</time>
<desc>lat.=21.795168, lon.=104.914619, Alt.=129.798950m. Speed=0.036000m/h.</desc>
<speed>0.010000</speed>
</trkpt>
<trkpt lat="21.795168" lon="104.914619">
<ele>129.767700</ele>
<time>2011-04-28T10:25:29Z</time>
<desc>lat.=21.795168, lon.=104.914619, Alt.=129.767700m. Speed=0.000000m/h.</desc>
<speed>0.000000</speed>
</trkpt>
<trkpt lat="21.795168" lon="104.914619">
<ele>129.748169</ele>
<time>2011-04-28T10:25:34Z</time>
<desc>lat.=21.795168, lon.=104.914619, Alt.=129.748169m. Speed=0.072000m/h.</desc>
<speed>0.020000</speed>
</trkpt>
<trkpt lat="21.795168" lon="104.914619">
<ele>129.728638</ele>
<time>2011-04-28T10:25:39Z</time>
<desc>lat.=21.795168, lon.=104.914619, Alt.=129.728638m. Speed=0.000000m/h.</desc>
<speed>0.000000</speed>
</trkpt>
<trkpt lat="21.795168" lon="104.914619">
<ele>129.705200</ele>
<time>2011-04-28T10:25:44Z</time>
<desc>lat.=21.795168, lon.=104.914619, Alt.=129.705200m. Speed=0.000000m/h.</desc>
<speed>0.000000</speed>
</trkpt>
<trkpt lat="21.795168" lon="104.914627">
<ele>129.681763</ele>
<time>2011-04-28T10:25:49Z</time>
<desc>lat.=21.795168, lon.=104.914627, Alt.=129.681763m. Speed=0.000000m/h.</desc>
<speed>0.000000</speed>
</trkpt>
<trkpt lat="21.795168" lon="104.914627">
<ele>129.662231</ele>
<time>2011-04-28T10:25:54Z</time>
<desc>lat.=21.795168, lon.=104.914627, Alt.=129.662231m. Speed=0.000000m/h.</desc>
<speed>0.000000</speed>
</trkpt>
<trkpt lat="21.795168" lon="104.914627">
<ele>129.638794</ele>
<time>2011-04-28T10:25:59Z</time>
<desc>lat.=21.795168, lon.=104.914627, Alt.=129.638794m. Speed=0.036000m/h.</desc>
<speed>0.010000</speed>
</trkpt>
<trkpt lat="21.795168" lon="104.914627">
<ele>129.615356</ele>
<time>2011-04-28T10:26:04Z</time>
<desc>lat.=21.795168, lon.=104.914627, Alt.=129.615356m. Speed=0.036000m/h.</desc>
<speed>0.010000</speed>
</trkpt>
<trkpt lat="21.795168" lon="104.914627">
<ele>129.599731</ele>
<time>2011-04-28T10:26:09Z</time>
<desc>lat.=21.795168, lon.=104.914627, Alt.=129.599731m. Speed=0.036000m/h.</desc>
<speed>0.010000</speed>
</trkpt>
<trkpt lat="21.795168" lon="104.914627">
<ele>129.576294</ele>
<time>2011-04-28T10:26:14Z</time>
<desc>lat.=21.795168, lon.=104.914627, Alt.=129.576294m. Speed=0.000000m/h.</desc>
<speed>0.000000</speed>
</trkpt>
<trkpt lat="21.795168" lon="104.914619">
<ele>129.556763</ele>
<time>2011-04-28T10:26:19Z</time>
<desc>lat.=21.795168, lon.=104.914619, Alt.=129.556763m. Speed=0.036000m/h.</desc>
<speed>0.010000</speed>
</trkpt>
<trkpt lat="21.795168" lon="104.914627">
<ele>129.556763</ele>
<time>2011-04-28T10:26:24Z</time>
<desc>lat.=21.795168, lon.=104.914627, Alt.=129.556763m. Speed=0.144000m/h.</desc>
<speed>0.040000</speed>
</trkpt>
<trkpt lat="21.795168" lon="104.914627">
<ele>129.541138</ele>
<time>2011-04-28T10:26:29Z</time>
<desc>lat.=21.795168, lon.=104.914627, Alt.=129.541138m. Speed=0.000000m/h.</desc>
<speed>0.000000</speed>
</trkpt>
<trkpt lat="21.795168" lon="104.914627">
<ele>129.556763</ele>
<time>2011-04-28T10:26:34Z</time>
<desc>lat.=21.795168, lon.=104.914627, Alt.=129.556763m. Speed=0.036000m/h.</desc>
<speed>0.010000</speed>
</trkpt>
<trkpt lat="21.795168" lon="104.914627">
<ele>129.564575</ele>
<time>2011-04-28T10:26:39Z</time>
<desc>lat.=21.795168, lon.=104.914627, Alt.=129.564575m. Speed=0.000000m/h.</desc>
<speed>0.000000</speed>
</trkpt>
<trkpt lat="21.795168" lon="104.914627">
<ele>129.556763</ele>
<time>2011-04-28T10:26:44Z</time>
<desc>lat.=21.795168, lon.=104.914627, Alt.=129.556763m. Speed=0.000000m/h.</desc>
<speed>0.000000</speed>
</trkpt>
<trkpt lat="21.795168" lon="104.914627">
<ele>129.541138</ele>
<time>2011-04-28T10:26:49Z</time>
<desc>lat.=21.795168, lon.=104.914627, Alt.=129.541138m. Speed=0.000000m/h.</desc>
<speed>0.000000</speed>
</trkpt>
<trkpt lat="21.795168" lon="104.914627">
<ele>129.537231</ele>
<time>2011-04-28T10:26:54Z</time>
<desc>lat.=21.795168, lon.=104.914627, Alt.=129.537231m. Speed=0.000000m/h.</desc>
<speed>0.000000</speed>
</trkpt>
<trkpt lat="21.795168" lon="104.914627">
<ele>129.541138</ele>
<time>2011-04-28T10:26:59Z</time>
<desc>lat.=21.795168, lon.=104.914627, Alt.=129.541138m. Speed=0.000000m/h.</desc>
<speed>0.000000</speed>
</trkpt>
<trkpt lat="21.795168" lon="104.914627">
<ele>129.533325</ele>
<time>2011-04-28T10:27:04Z</time>
<desc>lat.=21.795168, lon.=104.914627, Alt.=129.533325m. Speed=0.000000m/h.</desc>
<speed>0.000000</speed>
</trkpt>
<trkpt lat="21.795168" lon="104.914627">
<ele>129.533325</ele>
<time>2011-04-28T10:27:09Z</time>
<desc>lat.=21.795168, lon.=104.914627, Alt.=129.533325m. Speed=0.000000m/h.</desc>
<speed>0.000000</speed>
</trkpt>
<trkpt lat="21.795168" lon="104.914627">
<ele>129.529419</ele>
<time>2011-04-28T10:27:14Z</time>
<desc>lat.=21.795168, lon.=104.914627, Alt.=129.529419m. Speed=0.000000m/h.</desc>
<speed>0.000000</speed>
</trkpt>
<trkpt lat="21.795168" lon="104.914627">
<ele>129.525513</ele>
<time>2011-04-28T10:27:19Z</time>
<desc>lat.=21.795168, lon.=104.914627, Alt.=129.525513m. Speed=0.000000m/h.</desc>
<speed>0.000000</speed>
</trkpt>
<trkpt lat="21.795168" lon="104.914627">
<ele>129.529419</ele>
<time>2011-04-28T10:27:24Z</time>
<desc>lat.=21.795168, lon.=104.914627, Alt.=129.529419m. Speed=0.036000m/h.</desc>
<speed>0.010000</speed>
</trkpt>
<trkpt lat="21.795168" lon="104.914627">
<ele>129.525513</ele>
<time>2011-04-28T10:27:29Z</time>
<desc>lat.=21.795168, lon.=104.914627, Alt.=129.525513m. Speed=0.000000m/h.</desc>
<speed>0.000000</speed>
</trkpt>
<trkpt lat="21.795170" lon="104.914627">
<ele>129.533325</ele>
<time>2011-04-28T10:27:34Z</time>
<desc>lat.=21.795170, lon.=104.914627, Alt.=129.533325m. Speed=0.036000m/h.</desc>
<speed>0.010000</speed>
</trkpt>
<trkpt lat="21.795170" lon="104.914627">
<ele>129.513794</ele>
<time>2011-04-28T10:27:39Z</time>
<desc>lat.=21.795170, lon.=104.914627, Alt.=129.513794m. Speed=0.036000m/h.</desc>
<speed>0.010000</speed>
</trkpt>
<trkpt lat="21.795170" lon="104.914627">
<ele>129.498169</ele>
<time>2011-04-28T10:27:44Z</time>
<desc>lat.=21.795170, lon.=104.914627, Alt.=129.498169m. Speed=0.000000m/h.</desc>
<speed>0.000000</speed>
</trkpt>
<trkpt lat="21.795170" lon="104.914627">
<ele>129.463013</ele>
<time>2011-04-28T10:27:49Z</time>
<desc>lat.=21.795170, lon.=104.914627, Alt.=129.463013m. Speed=0.000000m/h.</desc>
<speed>0.000000</speed>
</trkpt>
<trkpt lat="21.795170" lon="104.914627">
<ele>129.423950</ele>
<time>2011-04-28T10:27:54Z</time>
<desc>lat.=21.795170, lon.=104.914627, Alt.=129.423950m. Speed=0.000000m/h.</desc>
<speed>0.000000</speed>
</trkpt>
<trkpt lat="21.795168" lon="104.914627">
<ele>129.384888</ele>
<time>2011-04-28T10:27:59Z</time>
<desc>lat.=21.795168, lon.=104.914627, Alt.=129.384888m. Speed=0.000000m/h.</desc>
<speed>0.000000</speed>
</trkpt>
<trkpt lat="21.795168" lon="104.914627">
<ele>129.353638</ele>
<time>2011-04-28T10:28:04Z</time>
<desc>lat.=21.795168, lon.=104.914627, Alt.=129.353638m. Speed=0.036000m/h.</desc>
<speed>0.010000</speed>
</trkpt>
<trkpt lat="21.795168" lon="104.914627">
<ele>129.341919</ele>
<time>2011-04-28T10:28:09Z</time>
<desc>lat.=21.795168, lon.=104.914627, Alt.=129.341919m. Speed=0.000000m/h.</desc>
<speed>0.000000</speed>
</trkpt>
<trkpt lat="21.795168" lon="104.914627">
<ele>129.322388</ele>
<time>2011-04-28T10:28:14Z</time>
<desc>lat.=21.795168, lon.=104.914627, Alt.=129.322388m. Speed=0.000000m/h.</desc>
<speed>0.000000</speed>
</trkpt>
<trkpt lat="21.795168" lon="104.914627">
<ele>129.298950</ele>
<time>2011-04-28T10:28:19Z</time>
<desc>lat.=21.795168, lon.=104.914627, Alt.=129.298950m. Speed=0.000000m/h.</desc>
<speed>0.000000</speed>
</trkpt>
<trkpt lat="21.795168" lon="104.914627">
<ele>129.287231</ele>
<time>2011-04-28T10:28:24Z</time>
<desc>lat.=21.795168, lon.=104.914627, Alt.=129.287231m. Speed=0.036000m/h.</desc>
<speed>0.010000</speed>
</trkpt>
<trkpt lat="21.795168" lon="104.914627">
<ele>129.283325</ele>
<time>2011-04-28T10:28:29Z</time>
<desc>lat.=21.795168, lon.=104.914627, Alt.=129.283325m. Speed=0.000000m/h.</desc>
<speed>0.000000</speed>
</trkpt>
<trkpt lat="21.795168" lon="104.914627">
<ele>129.275513</ele>
<time>2011-04-28T10:28:34Z</time>
<desc>lat.=21.795168, lon.=104.914627, Alt.=129.275513m. Speed=0.036000m/h.</desc>
<speed>0.010000</speed>
</trkpt>
<trkpt lat="21.795168" lon="104.914627">
<ele>129.255981</ele>
<time>2011-04-28T10:28:39Z</time>
<desc>lat.=21.795168, lon.=104.914627, Alt.=129.255981m. Speed=0.000000m/h.</desc>
<speed>0.000000</speed>
</trkpt>
<trkpt lat="21.795168" lon="104.914627">
<ele>129.228638</ele>
<time>2011-04-28T10:28:44Z</time>
<desc>lat.=21.795168, lon.=104.914627, Alt.=129.228638m. Speed=0.036000m/h.</desc>
<speed>0.010000</speed>
</trkpt>
<trkpt lat="21.795168" lon="104.914627">
<ele>129.240356</ele>
<time>2011-04-28T10:28:49Z</time>
<desc>lat.=21.795168, lon.=104.914627, Alt.=129.240356m. Speed=0.036000m/h.</desc>
<speed>0.010000</speed>
</trkpt>
<trkpt lat="21.795168" lon="104.914627">
<ele>129.244263</ele>
<time>2011-04-28T10:28:54Z</time>
<desc>lat.=21.795168, lon.=104.914627, Alt.=129.244263m. Speed=0.000000m/h.</desc>
<speed>0.000000</speed>
</trkpt>
<trkpt lat="21.795168" lon="104.914627">
<ele>129.228638</ele>
<time>2011-04-28T10:28:59Z</time>
<desc>lat.=21.795168, lon.=104.914627, Alt.=129.228638m. Speed=0.000000m/h.</desc>
<speed>0.000000</speed>
</trkpt>
<trkpt lat="21.795168" lon="104.914627">
<ele>129.197388</ele>
<time>2011-04-28T10:29:04Z</time>
<desc>lat.=21.795168, lon.=104.914627, Alt.=129.197388m. Speed=0.000000m/h.</desc>
<speed>0.000000</speed>
</trkpt>
<trkpt lat="21.795168" lon="104.914627">
<ele>129.170044</ele>
<time>2011-04-28T10:29:09Z</time>
<desc>lat.=21.795168, lon.=104.914627, Alt.=129.170044m. Speed=0.036000m/h.</desc>
<speed>0.010000</speed>
</trkpt>
<trkpt lat="21.795168" lon="104.914627">
<ele>129.142700</ele>
<time>2011-04-28T10:29:14Z</time>
<desc>lat.=21.795168, lon.=104.914627, Alt.=129.142700m. Speed=0.036000m/h.</desc>
<speed>0.010000</speed>
</trkpt>
<trkpt lat="21.795168" lon="104.914635">
<ele>129.111450</ele>
<time>2011-04-28T10:29:19Z</time>
<desc>lat.=21.795168, lon.=104.914635, Alt.=129.111450m. Speed=0.036000m/h.</desc>
<speed>0.010000</speed>
</trkpt>
<trkpt lat="21.795168" lon="104.914635">
<ele>129.084106</ele>
<time>2011-04-28T10:29:24Z</time>
<desc>lat.=21.795168, lon.=104.914635, Alt.=129.084106m. Speed=0.000000m/h.</desc>
<speed>0.000000</speed>
</trkpt>
<trkpt lat="21.795168" lon="104.914635">
<ele>129.045044</ele>
<time>2011-04-28T10:29:29Z</time>
<desc>lat.=21.795168, lon.=104.914635, Alt.=129.045044m. Speed=0.036000m/h.</desc>
<speed>0.010000</speed>
</trkpt>
<trkpt lat="21.795168" lon="104.914635">
<ele>128.990356</ele>
<time>2011-04-28T10:29:34Z</time>
<desc>lat.=21.795168, lon.=104.914635, Alt.=128.990356m. Speed=0.036000m/h.</desc>
<speed>0.010000</speed>
</trkpt>
<trkpt lat="21.795168" lon="104.914635">
<ele>128.939575</ele>
<time>2011-04-28T10:29:39Z</time>
<desc>lat.=21.795168, lon.=104.914635, Alt.=128.939575m. Speed=0.036000m/h.</desc>
<speed>0.010000</speed>
</trkpt>
<trkpt lat="21.795168" lon="104.914635">
<ele>128.888794</ele>
<time>2011-04-28T10:29:44Z</time>
<desc>lat.=21.795168, lon.=104.914635, Alt.=128.888794m. Speed=0.000000m/h.</desc>
<speed>0.000000</speed>
</trkpt>
<trkpt lat="21.795168" lon="104.914635">
<ele>128.849731</ele>
<time>2011-04-28T10:29:49Z</time>
<desc>lat.=21.795168, lon.=104.914635, Alt.=128.849731m. Speed=0.000000m/h.</desc>
<speed>0.000000</speed>
</trkpt>
<trkpt lat="21.795168" lon="104.914635">
<ele>128.826294</ele>
<time>2011-04-28T10:29:54Z</time>
<desc>lat.=21.795168, lon.=104.914635, Alt.=128.826294m. Speed=0.000000m/h.</desc>
<speed>0.000000</speed>
</trkpt>
<trkpt lat="21.795170" lon="104.914635">
<ele>128.806763</ele>
<time>2011-04-28T10:29:59Z</time>
<desc>lat.=21.795170, lon.=104.914635, Alt.=128.806763m. Speed=0.000000m/h.</desc>
<speed>0.000000</speed>
</trkpt>
<trkpt lat="21.795170" lon="104.914635">
<ele>128.814575</ele>
<time>2011-04-28T10:30:04Z</time>
<desc>lat.=21.795170, lon.=104.914635, Alt.=128.814575m. Speed=0.036000m/h.</desc>
<speed>0.010000</speed>
</trkpt>
<trkpt lat="21.795170" lon="104.914635">
<ele>128.830200</ele>
<time>2011-04-28T10:30:09Z</time>
<desc>lat.=21.795170, lon.=104.914635, Alt.=128.830200m. Speed=0.036000m/h.</desc>
<speed>0.010000</speed>
</trkpt>
<trkpt lat="21.795170" lon="104.914635">
<ele>128.822388</ele>
<time>2011-04-28T10:30:14Z</time>
<desc>lat.=21.795170, lon.=104.914635, Alt.=128.822388m. Speed=0.000000m/h.</desc>
<speed>0.000000</speed>
</trkpt>
<trkpt lat="21.795170" lon="104.914635">
<ele>128.826294</ele>
<time>2011-04-28T10:30:19Z</time>
<desc>lat.=21.795170, lon.=104.914635, Alt.=128.826294m. Speed=0.000000m/h.</desc>
<speed>0.000000</speed>
</trkpt>
<trkpt lat="21.795170" lon="104.914635">
<ele>128.841919</ele>
<time>2011-04-28T10:30:24Z</time>
<desc>lat.=21.795170, lon.=104.914635, Alt.=128.841919m. Speed=0.000000m/h.</desc>
<speed>0.000000</speed>
</trkpt>
<trkpt lat="21.795170" lon="104.914635">
<ele>128.857544</ele>
<time>2011-04-28T10:30:29Z</time>
<desc>lat.=21.795170, lon.=104.914635, Alt.=128.857544m. Speed=0.000000m/h.</desc>
<speed>0.000000</speed>
</trkpt>
<trkpt lat="21.795170" lon="104.914635">
<ele>128.865356</ele>
<time>2011-04-28T10:30:34Z</time>
<desc>lat.=21.795170, lon.=104.914635, Alt.=128.865356m. Speed=0.000000m/h.</desc>
<speed>0.000000</speed>
</trkpt>
<trkpt lat="21.795170" lon="104.914635">
<ele>128.857544</ele>
<time>2011-04-28T10:30:39Z</time>
<desc>lat.=21.795170, lon.=104.914635, Alt.=128.857544m. Speed=0.288000m/h.</desc>
<speed>0.080000</speed>
</trkpt>
<trkpt lat="21.795170" lon="104.914635">
<ele>128.849731</ele>
<time>2011-04-28T10:30:44Z</time>
<desc>lat.=21.795170, lon.=104.914635, Alt.=128.849731m. Speed=0.000000m/h.</desc>
<speed>0.000000</speed>
</trkpt>
<trkpt lat="21.795170" lon="104.914635">
<ele>128.845825</ele>
<time>2011-04-28T10:30:49Z</time>
<desc>lat.=21.795170, lon.=104.914635, Alt.=128.845825m. Speed=0.036000m/h.</desc>
<speed>0.010000</speed>
</trkpt>
<trkpt lat="21.795170" lon="104.914635">
<ele>128.865356</ele>
<time>2011-04-28T10:30:54Z</time>
<desc>lat.=21.795170, lon.=104.914635, Alt.=128.865356m. Speed=0.000000m/h.</desc>
<speed>0.000000</speed>
</trkpt>
<trkpt lat="21.795170" lon="104.914635">
<ele>128.884888</ele>
<time>2011-04-28T10:30:59Z</time>
<desc>lat.=21.795170, lon.=104.914635, Alt.=128.884888m. Speed=0.000000m/h.</desc>
<speed>0.000000</speed>
</trkpt>
<trkpt lat="21.795170" lon="104.914635">
<ele>128.912231</ele>
<time>2011-04-28T10:31:04Z</time>
<desc>lat.=21.795170, lon.=104.914635, Alt.=128.912231m. Speed=0.036000m/h.</desc>
<speed>0.010000</speed>
</trkpt>
<trkpt lat="21.795170" lon="104.914635">
<ele>128.935669</ele>
<time>2011-04-28T10:31:09Z</time>
<desc>lat.=21.795170, lon.=104.914635, Alt.=128.935669m. Speed=0.036000m/h.</desc>
<speed>0.010000</speed>
</trkpt>
<trkpt lat="21.795170" lon="104.914635">
<ele>128.943481</ele>
<time>2011-04-28T10:31:14Z</time>
<desc>lat.=21.795170, lon.=104.914635, Alt.=128.943481m. Speed=0.000000m/h.</desc>
<speed>0.000000</speed>
</trkpt>
<trkpt lat="21.795170" lon="104.914635">
<ele>128.955200</ele>
<time>2011-04-28T10:31:19Z</time>
<desc>lat.=21.795170, lon.=104.914635, Alt.=128.955200m. Speed=0.000000m/h.</desc>
<speed>0.000000</speed>
</trkpt>
<trkpt lat="21.795170" lon="104.914635">
<ele>128.955200</ele>
<time>2011-04-28T10:31:24Z</time>
<desc>lat.=21.795170, lon.=104.914635, Alt.=128.955200m. Speed=0.036000m/h.</desc>
<speed>0.010000</speed>
</trkpt>
<trkpt lat="21.795170" lon="104.914635">
<ele>128.955200</ele>
<time>2011-04-28T10:31:29Z</time>
<desc>lat.=21.795170, lon.=104.914635, Alt.=128.955200m. Speed=0.000000m/h.</desc>
<speed>0.000000</speed>
</trkpt>
<trkpt lat="21.795170" lon="104.914635">
<ele>128.955200</ele>
<time>2011-04-28T10:31:34Z</time>
<desc>lat.=21.795170, lon.=104.914635, Alt.=128.955200m. Speed=0.000000m/h.</desc>
<speed>0.000000</speed>
</trkpt>
<trkpt lat="21.795170" lon="104.914635">
<ele>128.951294</ele>
<time>2011-04-28T10:31:39Z</time>
<desc>lat.=21.795170, lon.=104.914635, Alt.=128.951294m. Speed=0.000000m/h.</desc>
<speed>0.000000</speed>
</trkpt>
<trkpt lat="21.795170" lon="104.914635">
<ele>128.986450</ele>
<time>2011-04-28T10:31:44Z</time>
<desc>lat.=21.795170, lon.=104.914635, Alt.=128.986450m. Speed=0.072000m/h.</desc>
<speed>0.020000</speed>
</trkpt>
<trkpt lat="21.795170" lon="104.914635">
<ele>129.037231</ele>
<time>2011-04-28T10:31:49Z</time>
<desc>lat.=21.795170, lon.=104.914635, Alt.=129.037231m. Speed=0.108000m/h.</desc>
<speed>0.030000</speed>
</trkpt>
<trkpt lat="21.795168" lon="104.914635">
<ele>129.056763</ele>
<time>2011-04-28T10:31:54Z</time>
<desc>lat.=21.795168, lon.=104.914635, Alt.=129.056763m. Speed=0.432000m/h.</desc>
<speed>0.120000</speed>
</trkpt>
<trkpt lat="21.795162" lon="104.914642">
<ele>129.072388</ele>
<time>2011-04-28T10:31:59Z</time>
<desc>lat.=21.795162, lon.=104.914642, Alt.=129.072388m. Speed=2.160000m/h.</desc>
<speed>0.600000</speed>
</trkpt>
<trkpt lat="21.795061" lon="104.914673">
<ele>128.900513</ele>
<time>2011-04-28T10:32:04Z</time>
<desc>lat.=21.795061, lon.=104.914673, Alt.=128.900513m. Speed=11.808000m/h.</desc>
<speed>3.280000</speed>
</trkpt>
<trkpt lat="21.794886" lon="104.914703">
<ele>129.384888</ele>
<time>2011-04-28T10:32:09Z</time>
<desc>lat.=21.794886, lon.=104.914703, Alt.=129.384888m. Speed=12.780000m/h.</desc>
<speed>3.550000</speed>
</trkpt>
<trkpt lat="21.794666" lon="104.914665">
<ele>130.088013</ele>
<time>2011-04-28T10:32:14Z</time>
<desc>lat.=21.794666, lon.=104.914665, Alt.=130.088013m. Speed=16.667999m/h.</desc>
<speed>4.630000</speed>
</trkpt>
<trkpt lat="21.794443" lon="104.914597">
<ele>130.994263</ele>
<time>2011-04-28T10:32:19Z</time>
<desc>lat.=21.794443, lon.=104.914597, Alt.=130.994263m. Speed=15.084000m/h.</desc>
<speed>4.190000</speed>
</trkpt>
<trkpt lat="21.794235" lon="104.914528">
<ele>131.459106</ele>
<time>2011-04-28T10:32:24Z</time>
<desc>lat.=21.794235, lon.=104.914528, Alt.=131.459106m. Speed=16.452000m/h.</desc>
<speed>4.570000</speed>
</trkpt>
<trkpt lat="21.794027" lon="104.914566">
<ele>130.959106</ele>
<time>2011-04-28T10:32:29Z</time>
<desc>lat.=21.794027, lon.=104.914566, Alt.=130.959106m. Speed=17.063999m/h.</desc>
<speed>4.740000</speed>
</trkpt>
<trkpt lat="21.793941" lon="104.914803">
<ele>129.326294</ele>
<time>2011-04-28T10:32:34Z</time>
<desc>lat.=21.793941, lon.=104.914803, Alt.=129.326294m. Speed=17.100000m/h.</desc>
<speed>4.750000</speed>
</trkpt>
<trkpt lat="21.793909" lon="104.915054">
<ele>127.936584</ele>
<time>2011-04-28T10:32:39Z</time>
<desc>lat.=21.793909, lon.=104.915054, Alt.=127.936584m. Speed=19.188000m/h.</desc>
<speed>5.330000</speed>
</trkpt>
<trkpt lat="21.794004" lon="104.915337">
<ele>126.874084</ele>
<time>2011-04-28T10:32:44Z</time>
<desc>lat.=21.794004, lon.=104.915337, Alt.=126.874084m. Speed=25.236000m/h.</desc>
<speed>7.010000</speed>
</trkpt>
<trkpt lat="21.793987" lon="104.915649">
<ele>123.678772</ele>
<time>2011-04-28T10:32:49Z</time>
<desc>lat.=21.793987, lon.=104.915649, Alt.=123.678772m. Speed=19.656000m/h.</desc>
<speed>5.460000</speed>
</trkpt>
<trkpt lat="21.793716" lon="104.915771">
<ele>121.874084</ele>
<time>2011-04-28T10:32:54Z</time>
<desc>lat.=21.793716, lon.=104.915771, Alt.=121.874084m. Speed=22.608000m/h.</desc>
<speed>6.280000</speed>
</trkpt>
<trkpt lat="21.793478" lon="104.915977">
<ele>119.999084</ele>
<time>2011-04-28T10:32:59Z</time>
<desc>lat.=21.793478, lon.=104.915977, Alt.=119.999084m. Speed=22.608000m/h.</desc>
<speed>6.280000</speed>
</trkpt>
<trkpt lat="21.793324" lon="104.916344">
<ele>116.208069</ele>
<time>2011-04-28T10:33:04Z</time>
<desc>lat.=21.793324, lon.=104.916344, Alt.=116.208069m. Speed=25.344000m/h.</desc>
<speed>7.040000</speed>
</trkpt>
<trkpt lat="21.793192" lon="104.916626">
<ele>112.856506</ele>
<time>2011-04-28T10:33:09Z</time>
<desc>lat.=21.793192, lon.=104.916626, Alt.=112.856506m. Speed=21.636000m/h.</desc>
<speed>6.010000</speed>
</trkpt>
<trkpt lat="21.792927" lon="104.916893">
<ele>109.176819</ele>
<time>2011-04-28T10:33:14Z</time>
<desc>lat.=21.792927, lon.=104.916893, Alt.=109.176819m. Speed=21.420000m/h.</desc>
<speed>5.950000</speed>
</trkpt>
<trkpt lat="21.792746" lon="104.917023">
<ele>106.670959</ele>
<time>2011-04-28T10:33:19Z</time>
<desc>lat.=21.792746, lon.=104.917023, Alt.=106.670959m. Speed=11.520000m/h.</desc>
<speed>3.200000</speed>
</trkpt>
<trkpt lat="21.792635" lon="104.917145">
<ele>106.749084</ele>
<time>2011-04-28T10:33:24Z</time>
<desc>lat.=21.792635, lon.=104.917145, Alt.=106.749084m. Speed=8.316000m/h.</desc>
<speed>2.310000</speed>
</trkpt>
<trkpt lat="21.792517" lon="104.917168">
<ele>109.313538</ele>
<time>2011-04-28T10:33:29Z</time>
<desc>lat.=21.792517, lon.=104.917168, Alt.=109.313538m. Speed=5.004000m/h.</desc>
<speed>1.390000</speed>
</trkpt>
<trkpt lat="21.792524" lon="104.917183">
<ele>109.885803</ele>
<time>2011-04-28T10:33:34Z</time>
<desc>lat.=21.792524, lon.=104.917183, Alt.=109.885803m. Speed=0.720000m/h.</desc>
<speed>0.200000</speed>
</trkpt>
<trkpt lat="21.792530" lon="104.917175">
<ele>109.940491</ele>
<time>2011-04-28T10:33:39Z</time>
<desc>lat.=21.792530, lon.=104.917175, Alt.=109.940491m. Speed=0.180000m/h.</desc>
<speed>0.050000</speed>
</trkpt>
<trkpt lat="21.792532" lon="104.917175">
<ele>110.118225</ele>
<time>2011-04-28T10:33:44Z</time>
<desc>lat.=21.792532, lon.=104.917175, Alt.=110.118225m. Speed=3.672000m/h.</desc>
<speed>1.020000</speed>
</trkpt>
<trkpt lat="21.792503" lon="104.917259">
<ele>110.018616</ele>
<time>2011-04-28T10:33:49Z</time>
<desc>lat.=21.792503, lon.=104.917259, Alt.=110.018616m. Speed=7.488000m/h.</desc>
<speed>2.080000</speed>
</trkpt>
<trkpt lat="21.792559" lon="104.917320">
<ele>109.346741</ele>
<time>2011-04-28T10:33:54Z</time>
<desc>lat.=21.792559, lon.=104.917320, Alt.=109.346741m. Speed=5.760000m/h.</desc>
<speed>1.600000</speed>
</trkpt>
<trkpt lat="21.792564" lon="104.917404">
<ele>109.129944</ele>
<time>2011-04-28T10:33:59Z</time>
<desc>lat.=21.792564, lon.=104.917404, Alt.=109.129944m. Speed=7.380000m/h.</desc>
<speed>2.050000</speed>
</trkpt>
<trkpt lat="21.792532" lon="104.917488">
<ele>110.530334</ele>
<time>2011-04-28T10:34:04Z</time>
<desc>lat.=21.792532, lon.=104.917488, Alt.=110.530334m. Speed=6.696000m/h.</desc>
<speed>1.860000</speed>
</trkpt>
<trkpt lat="21.792494" lon="104.917564">
<ele>112.104553</ele>
<time>2011-04-28T10:34:09Z</time>
<desc>lat.=21.792494, lon.=104.917564, Alt.=112.104553m. Speed=5.472000m/h.</desc>
<speed>1.520000</speed>
</trkpt>
<trkpt lat="21.792473" lon="104.917625">
<ele>112.987366</ele>
<time>2011-04-28T10:34:14Z</time>
<desc>lat.=21.792473, lon.=104.917625, Alt.=112.987366m. Speed=2.160000m/h.</desc>
<speed>0.600000</speed>
</trkpt>
<trkpt lat="21.792475" lon="104.917625">
<ele>113.958069</ele>
<time>2011-04-28T10:34:19Z</time>
<desc>lat.=21.792475, lon.=104.917625, Alt.=113.958069m. Speed=0.900000m/h.</desc>
<speed>0.250000</speed>
</trkpt>
<trkpt lat="21.792477" lon="104.917671">
<ele>115.186584</ele>
<time>2011-04-28T10:34:24Z</time>
<desc>lat.=21.792477, lon.=104.917671, Alt.=115.186584m. Speed=2.448000m/h.</desc>
<speed>0.680000</speed>
</trkpt>
<trkpt lat="21.792479" lon="104.917709">
<ele>115.944397</ele>
<time>2011-04-28T10:34:29Z</time>
<desc>lat.=21.792479, lon.=104.917709, Alt.=115.944397m. Speed=3.672000m/h.</desc>
<speed>1.020000</speed>
</trkpt>
<trkpt lat="21.792477" lon="104.917755">
<ele>117.092834</ele>
<time>2011-04-28T10:34:34Z</time>
<desc>lat.=21.792477, lon.=104.917755, Alt.=117.092834m. Speed=3.600000m/h.</desc>
<speed>1.000000</speed>
</trkpt>
<trkpt lat="21.792475" lon="104.917786">
<ele>117.872131</ele>
<time>2011-04-28T10:34:39Z</time>
<desc>lat.=21.792475, lon.=104.917786, Alt.=117.872131m. Speed=0.288000m/h.</desc>
<speed>0.080000</speed>
</trkpt>
<trkpt lat="21.792480" lon="104.917786">
<ele>117.731506</ele>
<time>2011-04-28T10:34:44Z</time>
<desc>lat.=21.792480, lon.=104.917786, Alt.=117.731506m. Speed=0.000000m/h.</desc>
<speed>0.000000</speed>
</trkpt>
<trkpt lat="21.792480" lon="104.917786">
<ele>117.704163</ele>
<time>2011-04-28T10:34:49Z</time>
<desc>lat.=21.792480, lon.=104.917786, Alt.=117.704163m. Speed=0.000000m/h.</desc>
<speed>0.000000</speed>
</trkpt>
<trkpt lat="21.792480" lon="104.917786">
<ele>117.678772</ele>
<time>2011-04-28T10:34:54Z</time>
<desc>lat.=21.792480, lon.=104.917786, Alt.=117.678772m. Speed=0.000000m/h.</desc>
<speed>0.000000</speed>
</trkpt>
<trkpt lat="21.792480" lon="104.917786">
<ele>117.659241</ele>
<time>2011-04-28T10:34:59Z</time>
<desc>lat.=21.792480, lon.=104.917786, Alt.=117.659241m. Speed=1.080000m/h.</desc>
<speed>0.300000</speed>
</trkpt>
<trkpt lat="21.792446" lon="104.917816">
<ele>117.801819</ele>
<time>2011-04-28T10:35:04Z</time>
<desc>lat.=21.792446, lon.=104.917816, Alt.=117.801819m. Speed=3.312000m/h.</desc>
<speed>0.920000</speed>
</trkpt>
<trkpt lat="21.792412" lon="104.917824">
<ele>118.237366</ele>
<time>2011-04-28T10:35:09Z</time>
<desc>lat.=21.792412, lon.=104.917824, Alt.=118.237366m. Speed=1.008000m/h.</desc>
<speed>0.280000</speed>
</trkpt>
<trkpt lat="21.792410" lon="104.917824">
<ele>118.788147</ele>
<time>2011-04-28T10:35:14Z</time>
<desc>lat.=21.792410, lon.=104.917824, Alt.=118.788147m. Speed=0.000000m/h.</desc>
<speed>0.000000</speed>
</trkpt>
<trkpt lat="21.792410" lon="104.917824">
<ele>118.803772</ele>
<time>2011-04-28T10:35:19Z</time>
<desc>lat.=21.792410, lon.=104.917824, Alt.=118.803772m. Speed=0.000000m/h.</desc>
<speed>0.000000</speed>
</trkpt>
<trkpt lat="21.792410" lon="104.917824">
<ele>118.795959</ele>
<time>2011-04-28T10:35:24Z</time>
<desc>lat.=21.792410, lon.=104.917824, Alt.=118.795959m. Speed=0.000000m/h.</desc>
<speed>0.000000</speed>
</trkpt>
<trkpt lat="21.792410" lon="104.917824">
<ele>118.803772</ele>
<time>2011-04-28T10:35:29Z</time>
<desc>lat.=21.792410, lon.=104.917824, Alt.=118.803772m. Speed=0.000000m/h.</desc>
<speed>0.000000</speed>
</trkpt>
<trkpt lat="21.792410" lon="104.917824">
<ele>118.797913</ele>
<time>2011-04-28T10:35:34Z</time>
<desc>lat.=21.792410, lon.=104.917824, Alt.=118.797913m. Speed=0.000000m/h.</desc>
<speed>0.000000</speed>
</trkpt>
<trkpt lat="21.792410" lon="104.917824">
<ele>118.786194</ele>
<time>2011-04-28T10:35:39Z</time>
<desc>lat.=21.792410, lon.=104.917824, Alt.=118.786194m. Speed=0.000000m/h.</desc>
<speed>0.000000</speed>
</trkpt>
<trkpt lat="21.792410" lon="104.917824">
<ele>118.795959</ele>
<time>2011-04-28T10:35:44Z</time>
<desc>lat.=21.792410, lon.=104.917824, Alt.=118.795959m. Speed=0.000000m/h.</desc>
<speed>0.000000</speed>
</trkpt>
<trkpt lat="21.792410" lon="104.917824">
<ele>118.805725</ele>
<time>2011-04-28T10:35:49Z</time>
<desc>lat.=21.792410, lon.=104.917824, Alt.=118.805725m. Speed=0.000000m/h.</desc>
<speed>0.000000</speed>
</trkpt>
<trkpt lat="21.792410" lon="104.917824">
<ele>118.813538</ele>
<time>2011-04-28T10:35:54Z</time>
<desc>lat.=21.792410, lon.=104.917824, Alt.=118.813538m. Speed=0.000000m/h.</desc>
<speed>0.000000</speed>
</trkpt>
<trkpt lat="21.792410" lon="104.917824">
<ele>118.813538</ele>
<time>2011-04-28T10:35:59Z</time>
<desc>lat.=21.792410, lon.=104.917824, Alt.=118.813538m. Speed=0.000000m/h.</desc>
<speed>0.000000</speed>
</trkpt>
<trkpt lat="21.792410" lon="104.917824">
<ele>118.801819</ele>
<time>2011-04-28T10:36:04Z</time>
<desc>lat.=21.792410, lon.=104.917824, Alt.=118.801819m. Speed=0.000000m/h.</desc>
<speed>0.000000</speed>
</trkpt>
<trkpt lat="21.792410" lon="104.917824">
<ele>118.790100</ele>
<time>2011-04-28T10:36:09Z</time>
<desc>lat.=21.792410, lon.=104.917824, Alt.=118.790100m. Speed=0.000000m/h.</desc>
<speed>0.000000</speed>
</trkpt>
<trkpt lat="21.792410" lon="104.917824">
<ele>118.790100</ele>
<time>2011-04-28T10:36:14Z</time>
<desc>lat.=21.792410, lon.=104.917824, Alt.=118.790100m. Speed=0.000000m/h.</desc>
<speed>0.000000</speed>
</trkpt>
<trkpt lat="21.792410" lon="104.917824">
<ele>118.811584</ele>
<time>2011-04-28T10:36:19Z</time>
<desc>lat.=21.792410, lon.=104.917824, Alt.=118.811584m. Speed=0.000000m/h.</desc>
<speed>0.000000</speed>
</trkpt>
<trkpt lat="21.792410" lon="104.917824">
<ele>118.831116</ele>
<time>2011-04-28T10:36:24Z</time>
<desc>lat.=21.792410, lon.=104.917824, Alt.=118.831116m. Speed=0.000000m/h.</desc>
<speed>0.000000</speed>
</trkpt>
<trkpt lat="21.792410" lon="104.917824">
<ele>118.836975</ele>
<time>2011-04-28T10:36:29Z</time>
<desc>lat.=21.792410, lon.=104.917824, Alt.=118.836975m. Speed=0.000000m/h.</desc>
<speed>0.000000</speed>
</trkpt>
<trkpt lat="21.792410" lon="104.917824">
<ele>118.835022</ele>
<time>2011-04-28T10:36:34Z</time>
<desc>lat.=21.792410, lon.=104.917824, Alt.=118.835022m. Speed=0.000000m/h.</desc>
<speed>0.000000</speed>
</trkpt>
<trkpt lat="21.792408" lon="104.917824">
<ele>118.838928</ele>
<time>2011-04-28T10:36:39Z</time>
<desc>lat.=21.792408, lon.=104.917824, Alt.=118.838928m. Speed=0.000000m/h.</desc>
<speed>0.000000</speed>
</trkpt>
<trkpt lat="21.792408" lon="104.917824">
<ele>118.856506</ele>
<time>2011-04-28T10:36:44Z</time>
<desc>lat.=21.792408, lon.=104.917824, Alt.=118.856506m. Speed=0.036000m/h.</desc>
<speed>0.010000</speed>
</trkpt>
<trkpt lat="21.792408" lon="104.917824">
<ele>118.879944</ele>
<time>2011-04-28T10:36:49Z</time>
<desc>lat.=21.792408, lon.=104.917824, Alt.=118.879944m. Speed=0.000000m/h.</desc>
<speed>0.000000</speed>
</trkpt>
<trkpt lat="21.792408" lon="104.917824">
<ele>118.893616</ele>
<time>2011-04-28T10:36:54Z</time>
<desc>lat.=21.792408, lon.=104.917824, Alt.=118.893616m. Speed=0.000000m/h.</desc>
<speed>0.000000</speed>
</trkpt>
<trkpt lat="21.792408" lon="104.917824">
<ele>118.905334</ele>
<time>2011-04-28T10:36:59Z</time>
<desc>lat.=21.792408, lon.=104.917824, Alt.=118.905334m. Speed=0.000000m/h.</desc>
<speed>0.000000</speed>
</trkpt>
<trkpt lat="21.792408" lon="104.917824">
<ele>118.891663</ele>
<time>2011-04-28T10:37:04Z</time>
<desc>lat.=21.792408, lon.=104.917824, Alt.=118.891663m. Speed=0.000000m/h.</desc>
<speed>0.000000</speed>
</trkpt>
<trkpt lat="21.792406" lon="104.917824">
<ele>118.895569</ele>
<time>2011-04-28T10:37:09Z</time>
<desc>lat.=21.792406, lon.=104.917824, Alt.=118.895569m. Speed=0.036000m/h.</desc>
<speed>0.010000</speed>
</trkpt>
<trkpt lat="21.792406" lon="104.917824">
<ele>118.907288</ele>
<time>2011-04-28T10:37:14Z</time>
<desc>lat.=21.792406, lon.=104.917824, Alt.=118.907288m. Speed=0.072000m/h.</desc>
<speed>0.020000</speed>
</trkpt>
<trkpt lat="21.792406" lon="104.917824">
<ele>118.924866</ele>
<time>2011-04-28T10:37:19Z</time>
<desc>lat.=21.792406, lon.=104.917824, Alt.=118.924866m. Speed=0.000000m/h.</desc>
<speed>0.000000</speed>
</trkpt>
<trkpt lat="21.792406" lon="104.917824">
<ele>118.950256</ele>
<time>2011-04-28T10:37:24Z</time>
<desc>lat.=21.792406, lon.=104.917824, Alt.=118.950256m. Speed=0.000000m/h.</desc>
<speed>0.000000</speed>
</trkpt>
<trkpt lat="21.792406" lon="104.917824">
<ele>118.971741</ele>
<time>2011-04-28T10:37:29Z</time>
<desc>lat.=21.792406, lon.=104.917824, Alt.=118.971741m. Speed=0.000000m/h.</desc>
<speed>0.000000</speed>
</trkpt>
<trkpt lat="21.792406" lon="104.917824">
<ele>118.985413</ele>
<time>2011-04-28T10:37:34Z</time>
<desc>lat.=21.792406, lon.=104.917824, Alt.=118.985413m. Speed=0.000000m/h.</desc>
<speed>0.000000</speed>
</trkpt>
<trkpt lat="21.792404" lon="104.917824">
<ele>119.020569</ele>
<time>2011-04-28T10:37:39Z</time>
<desc>lat.=21.792404, lon.=104.917824, Alt.=119.020569m. Speed=0.000000m/h.</desc>
<speed>0.000000</speed>
</trkpt>
<trkpt lat="21.792404" lon="104.917824">
<ele>119.094788</ele>
<time>2011-04-28T10:37:44Z</time>
<desc>lat.=21.792404, lon.=104.917824, Alt.=119.094788m. Speed=0.000000m/h.</desc>
<speed>0.000000</speed>
</trkpt>
<trkpt lat="21.792406" lon="104.917824">
<ele>119.141663</ele>
<time>2011-04-28T10:37:49Z</time>
<desc>lat.=21.792406, lon.=104.917824, Alt.=119.141663m. Speed=0.000000m/h.</desc>
<speed>0.000000</speed>
</trkpt>
<trkpt lat="21.792406" lon="104.917824">
<ele>119.178772</ele>
<time>2011-04-28T10:37:54Z</time>
<desc>lat.=21.792406, lon.=104.917824, Alt.=119.178772m. Speed=0.000000m/h.</desc>
<speed>0.000000</speed>
</trkpt>
<trkpt lat="21.792406" lon="104.917824">
<ele>119.213928</ele>
<time>2011-04-28T10:37:59Z</time>
<desc>lat.=21.792406, lon.=104.917824, Alt.=119.213928m. Speed=0.000000m/h.</desc>
<speed>0.000000</speed>
</trkpt>
<trkpt lat="21.792406" lon="104.917824">
<ele>119.231506</ele>
<time>2011-04-28T10:38:04Z</time>
<desc>lat.=21.792406, lon.=104.917824, Alt.=119.231506m. Speed=0.000000m/h.</desc>
<speed>0.000000</speed>
</trkpt>
<trkpt lat="21.792406" lon="104.917824">
<ele>119.233459</ele>
<time>2011-04-28T10:38:09Z</time>
<desc>lat.=21.792406, lon.=104.917824, Alt.=119.233459m. Speed=0.000000m/h.</desc>
<speed>0.000000</speed>
</trkpt>
<trkpt lat="21.792406" lon="104.917824">
<ele>119.229553</ele>
<time>2011-04-28T10:38:14Z</time>
<desc>lat.=21.792406, lon.=104.917824, Alt.=119.229553m. Speed=0.000000m/h.</desc>
<speed>0.000000</speed>
</trkpt>
<trkpt lat="21.792406" lon="104.917824">
<ele>119.247131</ele>
<time>2011-04-28T10:38:19Z</time>
<desc>lat.=21.792406, lon.=104.917824, Alt.=119.247131m. Speed=0.000000m/h.</desc>
<speed>0.000000</speed>
</trkpt>
<trkpt lat="21.792406" lon="104.917824">
<ele>119.270569</ele>
<time>2011-04-28T10:38:24Z</time>
<desc>lat.=21.792406, lon.=104.917824, Alt.=119.270569m. Speed=0.036000m/h.</desc>
<speed>0.010000</speed>
</trkpt>
<trkpt lat="21.792406" lon="104.917824">
<ele>119.299866</ele>
<time>2011-04-28T10:38:29Z</time>
<desc>lat.=21.792406, lon.=104.917824, Alt.=119.299866m. Speed=0.000000m/h.</desc>
<speed>0.000000</speed>
</trkpt>
<trkpt lat="21.792404" lon="104.917824">
<ele>119.315491</ele>
<time>2011-04-28T10:38:34Z</time>
<desc>lat.=21.792404, lon.=104.917824, Alt.=119.315491m. Speed=0.000000m/h.</desc>
<speed>0.000000</speed>
</trkpt>
<trkpt lat="21.792404" lon="104.917824">
<ele>119.317444</ele>
<time>2011-04-28T10:38:39Z</time>
<desc>lat.=21.792404, lon.=104.917824, Alt.=119.317444m. Speed=0.000000m/h.</desc>
<speed>0.000000</speed>
</trkpt>
<trkpt lat="21.792404" lon="104.917824">
<ele>119.321350</ele>
<time>2011-04-28T10:38:44Z</time>
<desc>lat.=21.792404, lon.=104.917824, Alt.=119.321350m. Speed=0.000000m/h.</desc>
<speed>0.000000</speed>
</trkpt>
<trkpt lat="21.792404" lon="104.917824">
<ele>119.323303</ele>
<time>2011-04-28T10:38:49Z</time>
<desc>lat.=21.792404, lon.=104.917824, Alt.=119.323303m. Speed=0.000000m/h.</desc>
<speed>0.000000</speed>
</trkpt>
<trkpt lat="21.792404" lon="104.917824">
<ele>119.340881</ele>
<time>2011-04-28T10:38:54Z</time>
<desc>lat.=21.792404, lon.=104.917824, Alt.=119.340881m. Speed=0.000000m/h.</desc>
<speed>0.000000</speed>
</trkpt>
<trkpt lat="21.792404" lon="104.917824">
<ele>119.372131</ele>
<time>2011-04-28T10:38:59Z</time>
<desc>lat.=21.792404, lon.=104.917824, Alt.=119.372131m. Speed=0.000000m/h.</desc>
<speed>0.000000</speed>
</trkpt>
<trkpt lat="21.792404" lon="104.917824">
<ele>119.401428</ele>
<time>2011-04-28T10:39:04Z</time>
<desc>lat.=21.792404, lon.=104.917824, Alt.=119.401428m. Speed=0.036000m/h.</desc>
<speed>0.010000</speed>
</trkpt>
<trkpt lat="21.792404" lon="104.917824">
<ele>119.415100</ele>
<time>2011-04-28T10:39:09Z</time>
<desc>lat.=21.792404, lon.=104.917824, Alt.=119.415100m. Speed=0.000000m/h.</desc>
<speed>0.000000</speed>
</trkpt>
<trkpt lat="21.792402" lon="104.917824">
<ele>119.405334</ele>
<time>2011-04-28T10:39:14Z</time>
<desc>lat.=21.792402, lon.=104.917824, Alt.=119.405334m. Speed=0.036000m/h.</desc>
<speed>0.010000</speed>
</trkpt>
<trkpt lat="21.792402" lon="104.917824">
<ele>119.401428</ele>
<time>2011-04-28T10:39:19Z</time>
<desc>lat.=21.792402, lon.=104.917824, Alt.=119.401428m. Speed=0.000000m/h.</desc>
<speed>0.000000</speed>
</trkpt>
<trkpt lat="21.792402" lon="104.917824">
<ele>119.403381</ele>
<time>2011-04-28T10:39:24Z</time>
<desc>lat.=21.792402, lon.=104.917824, Alt.=119.403381m. Speed=0.000000m/h.</desc>
<speed>0.000000</speed>
</trkpt>
<trkpt lat="21.792402" lon="104.917824">
<ele>119.413147</ele>
<time>2011-04-28T10:39:29Z</time>
<desc>lat.=21.792402, lon.=104.917824, Alt.=119.413147m. Speed=0.036000m/h.</desc>
<speed>0.010000</speed>
</trkpt>
<trkpt lat="21.792402" lon="104.917824">
<ele>119.428772</ele>
<time>2011-04-28T10:39:34Z</time>
<desc>lat.=21.792402, lon.=104.917824, Alt.=119.428772m. Speed=0.072000m/h.</desc>
<speed>0.020000</speed>
</trkpt>
<trkpt lat="21.792402" lon="104.917824">
<ele>119.428772</ele>
<time>2011-04-28T10:39:39Z</time>
<desc>lat.=21.792402, lon.=104.917824, Alt.=119.428772m. Speed=0.036000m/h.</desc>
<speed>0.010000</speed>
</trkpt>
<trkpt lat="21.792402" lon="104.917824">
<ele>119.417053</ele>
<time>2011-04-28T10:39:44Z</time>
<desc>lat.=21.792402, lon.=104.917824, Alt.=119.417053m. Speed=0.000000m/h.</desc>
<speed>0.000000</speed>
</trkpt>
<trkpt lat="21.792402" lon="104.917824">
<ele>119.403381</ele>
<time>2011-04-28T10:39:49Z</time>
<desc>lat.=21.792402, lon.=104.917824, Alt.=119.403381m. Speed=0.000000m/h.</desc>
<speed>0.000000</speed>
</trkpt>
<trkpt lat="21.792402" lon="104.917824">
<ele>119.395569</ele>
<time>2011-04-28T10:39:54Z</time>
<desc>lat.=21.792402, lon.=104.917824, Alt.=119.395569m. Speed=0.000000m/h.</desc>
<speed>0.000000</speed>
</trkpt>
<trkpt lat="21.792402" lon="104.917824">
<ele>119.407288</ele>
<time>2011-04-28T10:39:59Z</time>
<desc>lat.=21.792402, lon.=104.917824, Alt.=119.407288m. Speed=0.000000m/h.</desc>
<speed>0.000000</speed>
</trkpt>
<trkpt lat="21.792402" lon="104.917824">
<ele>119.415100</ele>
<time>2011-04-28T10:40:04Z</time>
<desc>lat.=21.792402, lon.=104.917824, Alt.=119.415100m. Speed=0.000000m/h.</desc>
<speed>0.000000</speed>
</trkpt>
<trkpt lat="21.792402" lon="104.917824">
<ele>119.409241</ele>
<time>2011-04-28T10:40:09Z</time>
<desc>lat.=21.792402, lon.=104.917824, Alt.=119.409241m. Speed=0.036000m/h.</desc>
<speed>0.010000</speed>
</trkpt>
<trkpt lat="21.792402" lon="104.917824">
<ele>119.391663</ele>
<time>2011-04-28T10:40:14Z</time>
<desc>lat.=21.792402, lon.=104.917824, Alt.=119.391663m. Speed=0.000000m/h.</desc>
<speed>0.000000</speed>
</trkpt>
<trkpt lat="21.792402" lon="104.917824">
<ele>119.395569</ele>
<time>2011-04-28T10:40:19Z</time>
<desc>lat.=21.792402, lon.=104.917824, Alt.=119.395569m. Speed=0.036000m/h.</desc>
<speed>0.010000</speed>
</trkpt>
<trkpt lat="21.792402" lon="104.917824">
<ele>119.419006</ele>
<time>2011-04-28T10:40:24Z</time>
<desc>lat.=21.792402, lon.=104.917824, Alt.=119.419006m. Speed=0.000000m/h.</desc>
<speed>0.000000</speed>
</trkpt>
<trkpt lat="21.792402" lon="104.917831">
<ele>119.444397</ele>
<time>2011-04-28T10:40:29Z</time>
<desc>lat.=21.792402, lon.=104.917831, Alt.=119.444397m. Speed=0.072000m/h.</desc>
<speed>0.020000</speed>
</trkpt>
<trkpt lat="21.792400" lon="104.917831">
<ele>119.471741</ele>
<time>2011-04-28T10:40:34Z</time>
<desc>lat.=21.792400, lon.=104.917831, Alt.=119.471741m. Speed=0.000000m/h.</desc>
<speed>0.000000</speed>
</trkpt>
<trkpt lat="21.792400" lon="104.917831">
<ele>119.458069</ele>
<time>2011-04-28T10:40:39Z</time>
<desc>lat.=21.792400, lon.=104.917831, Alt.=119.458069m. Speed=0.036000m/h.</desc>
<speed>0.010000</speed>
</trkpt>
<trkpt lat="21.792400" lon="104.917831">
<ele>119.442444</ele>
<time>2011-04-28T10:40:44Z</time>
<desc>lat.=21.792400, lon.=104.917831, Alt.=119.442444m. Speed=0.036000m/h.</desc>
<speed>0.010000</speed>
</trkpt>
<trkpt lat="21.792400" lon="104.917831">
<ele>119.419006</ele>
<time>2011-04-28T10:40:49Z</time>
<desc>lat.=21.792400, lon.=104.917831, Alt.=119.419006m. Speed=0.036000m/h.</desc>
<speed>0.010000</speed>
</trkpt>
<trkpt lat="21.792400" lon="104.917831">
<ele>119.399475</ele>
<time>2011-04-28T10:40:54Z</time>
<desc>lat.=21.792400, lon.=104.917831, Alt.=119.399475m. Speed=0.036000m/h.</desc>
<speed>0.010000</speed>
</trkpt>
<trkpt lat="21.792400" lon="104.917831">
<ele>119.393616</ele>
<time>2011-04-28T10:40:59Z</time>
<desc>lat.=21.792400, lon.=104.917831, Alt.=119.393616m. Speed=0.000000m/h.</desc>
<speed>0.000000</speed>
</trkpt>
<trkpt lat="21.792400" lon="104.917831">
<ele>119.372131</ele>
<time>2011-04-28T10:41:04Z</time>
<desc>lat.=21.792400, lon.=104.917831, Alt.=119.372131m. Speed=0.000000m/h.</desc>
<speed>0.000000</speed>
</trkpt>
<trkpt lat="21.792400" lon="104.917831">
<ele>119.368225</ele>
<time>2011-04-28T10:41:09Z</time>
<desc>lat.=21.792400, lon.=104.917831, Alt.=119.368225m. Speed=0.000000m/h.</desc>
<speed>0.000000</speed>
</trkpt>
<trkpt lat="21.792400" lon="104.917831">
<ele>119.368225</ele>
<time>2011-04-28T10:41:14Z</time>
<desc>lat.=21.792400, lon.=104.917831, Alt.=119.368225m. Speed=0.000000m/h.</desc>
<speed>0.000000</speed>
</trkpt>
<trkpt lat="21.792400" lon="104.917831">
<ele>119.370178</ele>
<time>2011-04-28T10:41:19Z</time>
<desc>lat.=21.792400, lon.=104.917831, Alt.=119.370178m. Speed=0.000000m/h.</desc>
<speed>0.000000</speed>
</trkpt>
<trkpt lat="21.792398" lon="104.917831">
<ele>119.344788</ele>
<time>2011-04-28T10:41:24Z</time>
<desc>lat.=21.792398, lon.=104.917831, Alt.=119.344788m. Speed=0.000000m/h.</desc>
<speed>0.000000</speed>
</trkpt>
<trkpt lat="21.792398" lon="104.917831">
<ele>119.317444</ele>
<time>2011-04-28T10:41:29Z</time>
<desc>lat.=21.792398, lon.=104.917831, Alt.=119.317444m. Speed=0.036000m/h.</desc>
<speed>0.010000</speed>
</trkpt>
<trkpt lat="21.792398" lon="104.917831">
<ele>119.321350</ele>
<time>2011-04-28T10:41:34Z</time>
<desc>lat.=21.792398, lon.=104.917831, Alt.=119.321350m. Speed=0.036000m/h.</desc>
<speed>0.010000</speed>
</trkpt>
<trkpt lat="21.792398" lon="104.917831">
<ele>119.346741</ele>
<time>2011-04-28T10:41:39Z</time>
<desc>lat.=21.792398, lon.=104.917831, Alt.=119.346741m. Speed=0.000000m/h.</desc>
<speed>0.000000</speed>
</trkpt>
<trkpt lat="21.792398" lon="104.917831">
<ele>119.372131</ele>
<time>2011-04-28T10:41:44Z</time>
<desc>lat.=21.792398, lon.=104.917831, Alt.=119.372131m. Speed=0.000000m/h.</desc>
<speed>0.000000</speed>
</trkpt>
<trkpt lat="21.792398" lon="104.917831">
<ele>119.395569</ele>
<time>2011-04-28T10:41:49Z</time>
<desc>lat.=21.792398, lon.=104.917831, Alt.=119.395569m. Speed=0.000000m/h.</desc>
<speed>0.000000</speed>
</trkpt>
<trkpt lat="21.792398" lon="104.917831">
<ele>119.397522</ele>
<time>2011-04-28T10:41:54Z</time>
<desc>lat.=21.792398, lon.=104.917831, Alt.=119.397522m. Speed=0.000000m/h.</desc>
<speed>0.000000</speed>
</trkpt>
<trkpt lat="21.792398" lon="104.917831">
<ele>119.399475</ele>
<time>2011-04-28T10:41:59Z</time>
<desc>lat.=21.792398, lon.=104.917831, Alt.=119.399475m. Speed=0.000000m/h.</desc>
<speed>0.000000</speed>
</trkpt>
<trkpt lat="21.792397" lon="104.917831">
<ele>119.405334</ele>
<time>2011-04-28T10:42:04Z</time>
<desc>lat.=21.792397, lon.=104.917831, Alt.=119.405334m. Speed=0.000000m/h.</desc>
<speed>0.000000</speed>
</trkpt>
<trkpt lat="21.792397" lon="104.917831">
<ele>119.405334</ele>
<time>2011-04-28T10:42:09Z</time>
<desc>lat.=21.792397, lon.=104.917831, Alt.=119.405334m. Speed=0.000000m/h.</desc>
<speed>0.000000</speed>
</trkpt>
<trkpt lat="21.792397" lon="104.917831">
<ele>119.417053</ele>
<time>2011-04-28T10:42:14Z</time>
<desc>lat.=21.792397, lon.=104.917831, Alt.=119.417053m. Speed=0.000000m/h.</desc>
<speed>0.000000</speed>
</trkpt>
<trkpt lat="21.792397" lon="104.917831">
<ele>119.426819</ele>
<time>2011-04-28T10:42:19Z</time>
<desc>lat.=21.792397, lon.=104.917831, Alt.=119.426819m. Speed=0.036000m/h.</desc>
<speed>0.010000</speed>
</trkpt>
<trkpt lat="21.792397" lon="104.917831">
<ele>119.440491</ele>
<time>2011-04-28T10:42:24Z</time>
<desc>lat.=21.792397, lon.=104.917831, Alt.=119.440491m. Speed=0.000000m/h.</desc>
<speed>0.000000</speed>
</trkpt>
<trkpt lat="21.792397" lon="104.917831">
<ele>119.442444</ele>
<time>2011-04-28T10:42:29Z</time>
<desc>lat.=21.792397, lon.=104.917831, Alt.=119.442444m. Speed=0.036000m/h.</desc>
<speed>0.010000</speed>
</trkpt>
<trkpt lat="21.792397" lon="104.917831">
<ele>119.442444</ele>
<time>2011-04-28T10:42:34Z</time>
<desc>lat.=21.792397, lon.=104.917831, Alt.=119.442444m. Speed=0.036000m/h.</desc>
<speed>0.010000</speed>
</trkpt>
<trkpt lat="21.792397" lon="104.917831">
<ele>119.450256</ele>
<time>2011-04-28T10:42:39Z</time>
<desc>lat.=21.792397, lon.=104.917831, Alt.=119.450256m. Speed=0.000000m/h.</desc>
<speed>0.000000</speed>
</trkpt>
<trkpt lat="21.792397" lon="104.917831">
<ele>119.461975</ele>
<time>2011-04-28T10:42:44Z</time>
<desc>lat.=21.792397, lon.=104.917831, Alt.=119.461975m. Speed=0.000000m/h.</desc>
<speed>0.000000</speed>
</trkpt>
<trkpt lat="21.792397" lon="104.917831">
<ele>119.469788</ele>
<time>2011-04-28T10:42:49Z</time>
<desc>lat.=21.792397, lon.=104.917831, Alt.=119.469788m. Speed=0.036000m/h.</desc>
<speed>0.010000</speed>
</trkpt>
<trkpt lat="21.792397" lon="104.917831">
<ele>119.485413</ele>
<time>2011-04-28T10:42:54Z</time>
<desc>lat.=21.792397, lon.=104.917831, Alt.=119.485413m. Speed=0.000000m/h.</desc>
<speed>0.000000</speed>
</trkpt>
<trkpt lat="21.792397" lon="104.917831">
<ele>119.508850</ele>
<time>2011-04-28T10:42:59Z</time>
<desc>lat.=21.792397, lon.=104.917831, Alt.=119.508850m. Speed=0.000000m/h.</desc>
<speed>0.000000</speed>
</trkpt>
<trkpt lat="21.792397" lon="104.917831">
<ele>119.532288</ele>
<time>2011-04-28T10:43:04Z</time>
<desc>lat.=21.792397, lon.=104.917831, Alt.=119.532288m. Speed=0.000000m/h.</desc>
<speed>0.000000</speed>
</trkpt>
<trkpt lat="21.792395" lon="104.917831">
<ele>119.553772</ele>
<time>2011-04-28T10:43:09Z</time>
<desc>lat.=21.792395, lon.=104.917831, Alt.=119.553772m. Speed=0.000000m/h.</desc>
<speed>0.000000</speed>
</trkpt>
<trkpt lat="21.792395" lon="104.917831">
<ele>119.563538</ele>
<time>2011-04-28T10:43:14Z</time>
<desc>lat.=21.792395, lon.=104.917831, Alt.=119.563538m. Speed=0.036000m/h.</desc>
<speed>0.010000</speed>
</trkpt>
<trkpt lat="21.792395" lon="104.917831">
<ele>119.577209</ele>
<time>2011-04-28T10:43:19Z</time>
<desc>lat.=21.792395, lon.=104.917831, Alt.=119.577209m. Speed=0.000000m/h.</desc>
<speed>0.000000</speed>
</trkpt>
<trkpt lat="21.792395" lon="104.917831">
<ele>119.600647</ele>
<time>2011-04-28T10:43:24Z</time>
<desc>lat.=21.792395, lon.=104.917831, Alt.=119.600647m. Speed=0.036000m/h.</desc>
<speed>0.010000</speed>
</trkpt>
<trkpt lat="21.792395" lon="104.917831">
<ele>119.622131</ele>
<time>2011-04-28T10:43:29Z</time>
<desc>lat.=21.792395, lon.=104.917831, Alt.=119.622131m. Speed=0.000000m/h.</desc>
<speed>0.000000</speed>
</trkpt>
<trkpt lat="21.792395" lon="104.917839">
<ele>119.627991</ele>
<time>2011-04-28T10:43:34Z</time>
<desc>lat.=21.792395, lon.=104.917839, Alt.=119.627991m. Speed=0.000000m/h.</desc>
<speed>0.000000</speed>
</trkpt>
<trkpt lat="21.792395" lon="104.917839">
<ele>119.626038</ele>
<time>2011-04-28T10:43:39Z</time>
<desc>lat.=21.792395, lon.=104.917839, Alt.=119.626038m. Speed=0.000000m/h.</desc>
<speed>0.000000</speed>
</trkpt>
<trkpt lat="21.792395" lon="104.917839">
<ele>119.643616</ele>
<time>2011-04-28T10:43:44Z</time>
<desc>lat.=21.792395, lon.=104.917839, Alt.=119.643616m. Speed=0.036000m/h.</desc>
<speed>0.010000</speed>
</trkpt>
<trkpt lat="21.792395" lon="104.917839">
<ele>119.670959</ele>
<time>2011-04-28T10:43:49Z</time>
<desc>lat.=21.792395, lon.=104.917839, Alt.=119.670959m. Speed=0.000000m/h.</desc>
<speed>0.000000</speed>
</trkpt>
<trkpt lat="21.792395" lon="104.917839">
<ele>119.702209</ele>
<time>2011-04-28T10:43:54Z</time>
<desc>lat.=21.792395, lon.=104.917839, Alt.=119.702209m. Speed=0.000000m/h.</desc>
<speed>0.000000</speed>
</trkpt>
<trkpt lat="21.792395" lon="104.917839">
<ele>119.719788</ele>
<time>2011-04-28T10:43:59Z</time>
<desc>lat.=21.792395, lon.=104.917839, Alt.=119.719788m. Speed=0.000000m/h.</desc>
<speed>0.000000</speed>
</trkpt>
<trkpt lat="21.792393" lon="104.917839">
<ele>119.715881</ele>
<time>2011-04-28T10:44:04Z</time>
<desc>lat.=21.792393, lon.=104.917839, Alt.=119.715881m. Speed=0.000000m/h.</desc>
<speed>0.000000</speed>
</trkpt>
<trkpt lat="21.792393" lon="104.917839">
<ele>119.729553</ele>
<time>2011-04-28T10:44:09Z</time>
<desc>lat.=21.792393, lon.=104.917839, Alt.=119.729553m. Speed=0.036000m/h.</desc>
<speed>0.010000</speed>
</trkpt>
<trkpt lat="21.792393" lon="104.917839">
<ele>119.745178</ele>
<time>2011-04-28T10:44:14Z</time>
<desc>lat.=21.792393, lon.=104.917839, Alt.=119.745178m. Speed=0.000000m/h.</desc>
<speed>0.000000</speed>
</trkpt>
<trkpt lat="21.792393" lon="104.917839">
<ele>119.760803</ele>
<time>2011-04-28T10:44:19Z</time>
<desc>lat.=21.792393, lon.=104.917839, Alt.=119.760803m. Speed=0.000000m/h.</desc>
<speed>0.000000</speed>
</trkpt>
<trkpt lat="21.792395" lon="104.917839">
<ele>119.745178</ele>
<time>2011-04-28T10:44:24Z</time>
<desc>lat.=21.792395, lon.=104.917839, Alt.=119.745178m. Speed=0.000000m/h.</desc>
<speed>0.000000</speed>
</trkpt>
<trkpt lat="21.792393" lon="104.917839">
<ele>119.747131</ele>
<time>2011-04-28T10:44:29Z</time>
<desc>lat.=21.792393, lon.=104.917839, Alt.=119.747131m. Speed=0.000000m/h.</desc>
<speed>0.000000</speed>
</trkpt>
<trkpt lat="21.792393" lon="104.917839">
<ele>119.751038</ele>
<time>2011-04-28T10:44:34Z</time>
<desc>lat.=21.792393, lon.=104.917839, Alt.=119.751038m. Speed=0.000000m/h.</desc>
<speed>0.000000</speed>
</trkpt>
<trkpt lat="21.792393" lon="104.917839">
<ele>119.770569</ele>
<time>2011-04-28T10:44:39Z</time>
<desc>lat.=21.792393, lon.=104.917839, Alt.=119.770569m. Speed=0.000000m/h.</desc>
<speed>0.000000</speed>
</trkpt>
<trkpt lat="21.792393" lon="104.917839">
<ele>119.788147</ele>
<time>2011-04-28T10:44:44Z</time>
<desc>lat.=21.792393, lon.=104.917839, Alt.=119.788147m. Speed=0.000000m/h.</desc>
<speed>0.000000</speed>
</trkpt>
<trkpt lat="21.792393" lon="104.917839">
<ele>119.778381</ele>
<time>2011-04-28T10:44:49Z</time>
<desc>lat.=21.792393, lon.=104.917839, Alt.=119.778381m. Speed=0.000000m/h.</desc>
<speed>0.000000</speed>
</trkpt>
<trkpt lat="21.792393" lon="104.917839">
<ele>119.768616</ele>
<time>2011-04-28T10:44:54Z</time>
<desc>lat.=21.792393, lon.=104.917839, Alt.=119.768616m. Speed=0.036000m/h.</desc>
<speed>0.010000</speed>
</trkpt>
<trkpt lat="21.792393" lon="104.917839">
<ele>119.762756</ele>
<time>2011-04-28T10:44:59Z</time>
<desc>lat.=21.792393, lon.=104.917839, Alt.=119.762756m. Speed=0.000000m/h.</desc>
<speed>0.000000</speed>
</trkpt>
<trkpt lat="21.792393" lon="104.917839">
<ele>119.774475</ele>
<time>2011-04-28T10:45:04Z</time>
<desc>lat.=21.792393, lon.=104.917839, Alt.=119.774475m. Speed=0.036000m/h.</desc>
<speed>0.010000</speed>
</trkpt>
<trkpt lat="21.792393" lon="104.917839">
<ele>119.792053</ele>
<time>2011-04-28T10:45:09Z</time>
<desc>lat.=21.792393, lon.=104.917839, Alt.=119.792053m. Speed=0.036000m/h.</desc>
<speed>0.010000</speed>
</trkpt>
<trkpt lat="21.792393" lon="104.917839">
<ele>119.805725</ele>
<time>2011-04-28T10:45:14Z</time>
<desc>lat.=21.792393, lon.=104.917839, Alt.=119.805725m. Speed=0.036000m/h.</desc>
<speed>0.010000</speed>
</trkpt>
<trkpt lat="21.792393" lon="104.917839">
<ele>119.813538</ele>
<time>2011-04-28T10:45:19Z</time>
<desc>lat.=21.792393, lon.=104.917839, Alt.=119.813538m. Speed=0.000000m/h.</desc>
<speed>0.000000</speed>
</trkpt>
<trkpt lat="21.792393" lon="104.917839">
<ele>119.813538</ele>
<time>2011-04-28T10:45:24Z</time>
<desc>lat.=21.792393, lon.=104.917839, Alt.=119.813538m. Speed=0.000000m/h.</desc>
<speed>0.000000</speed>
</trkpt>
<trkpt lat="21.792393" lon="104.917839">
<ele>119.807678</ele>
<time>2011-04-28T10:45:29Z</time>
<desc>lat.=21.792393, lon.=104.917839, Alt.=119.807678m. Speed=0.000000m/h.</desc>
<speed>0.000000</speed>
</trkpt>
<trkpt lat="21.792393" lon="104.917839">
<ele>119.795959</ele>
<time>2011-04-28T10:45:34Z</time>
<desc>lat.=21.792393, lon.=104.917839, Alt.=119.795959m. Speed=0.036000m/h.</desc>
<speed>0.010000</speed>
</trkpt>
<trkpt lat="21.792393" lon="104.917839">
<ele>119.792053</ele>
<time>2011-04-28T10:45:39Z</time>
<desc>lat.=21.792393, lon.=104.917839, Alt.=119.792053m. Speed=0.000000m/h.</desc>
<speed>0.000000</speed>
</trkpt>
<trkpt lat="21.792393" lon="104.917839">
<ele>119.786194</ele>
<time>2011-04-28T10:45:44Z</time>
<desc>lat.=21.792393, lon.=104.917839, Alt.=119.786194m. Speed=0.036000m/h.</desc>
<speed>0.010000</speed>
</trkpt>
<trkpt lat="21.792393" lon="104.917839">
<ele>119.797913</ele>
<time>2011-04-28T10:45:49Z</time>
<desc>lat.=21.792393, lon.=104.917839, Alt.=119.797913m. Speed=0.000000m/h.</desc>
<speed>0.000000</speed>
</trkpt>
<trkpt lat="21.792393" lon="104.917839">
<ele>119.811584</ele>
<time>2011-04-28T10:45:54Z</time>
<desc>lat.=21.792393, lon.=104.917839, Alt.=119.811584m. Speed=0.000000m/h.</desc>
<speed>0.000000</speed>
</trkpt>
<trkpt lat="21.792393" lon="104.917839">
<ele>119.836975</ele>
<time>2011-04-28T10:45:59Z</time>
<desc>lat.=21.792393, lon.=104.917839, Alt.=119.836975m. Speed=0.036000m/h.</desc>
<speed>0.010000</speed>
</trkpt>
<trkpt lat="21.792393" lon="104.917839">
<ele>119.856506</ele>
<time>2011-04-28T10:46:04Z</time>
<desc>lat.=21.792393, lon.=104.917839, Alt.=119.856506m. Speed=0.000000m/h.</desc>
<speed>0.000000</speed>
</trkpt>
<trkpt lat="21.792391" lon="104.917839">
<ele>119.872131</ele>
<time>2011-04-28T10:46:09Z</time>
<desc>lat.=21.792391, lon.=104.917839, Alt.=119.872131m. Speed=0.000000m/h.</desc>
<speed>0.000000</speed>
</trkpt>
<trkpt lat="21.792391" lon="104.917839">
<ele>119.895569</ele>
<time>2011-04-28T10:46:14Z</time>
<desc>lat.=21.792391, lon.=104.917839, Alt.=119.895569m. Speed=0.000000m/h.</desc>
<speed>0.000000</speed>
</trkpt>
<trkpt lat="21.792391" lon="104.917839">
<ele>119.928772</ele>
<time>2011-04-28T10:46:19Z</time>
<desc>lat.=21.792391, lon.=104.917839, Alt.=119.928772m. Speed=0.000000m/h.</desc>
<speed>0.000000</speed>
</trkpt>
<trkpt lat="21.792391" lon="104.917839">
<ele>119.965881</ele>
<time>2011-04-28T10:46:24Z</time>
<desc>lat.=21.792391, lon.=104.917839, Alt.=119.965881m. Speed=0.000000m/h.</desc>
<speed>0.000000</speed>
</trkpt>
<trkpt lat="21.792391" lon="104.917839">
<ele>120.016663</ele>
<time>2011-04-28T10:46:29Z</time>
<desc>lat.=21.792391, lon.=104.917839, Alt.=120.016663m. Speed=0.036000m/h.</desc>
<speed>0.010000</speed>
</trkpt>
<trkpt lat="21.792391" lon="104.917839">
<ele>120.073303</ele>
<time>2011-04-28T10:46:34Z</time>
<desc>lat.=21.792391, lon.=104.917839, Alt.=120.073303m. Speed=0.036000m/h.</desc>
<speed>0.010000</speed>
</trkpt>
<trkpt lat="21.792389" lon="104.917839">
<ele>120.137756</ele>
<time>2011-04-28T10:46:39Z</time>
<desc>lat.=21.792389, lon.=104.917839, Alt.=120.137756m. Speed=0.036000m/h.</desc>
<speed>0.010000</speed>
</trkpt>
<trkpt lat="21.792389" lon="104.917839">
<ele>120.182678</ele>
<time>2011-04-28T10:46:44Z</time>
<desc>lat.=21.792389, lon.=104.917839, Alt.=120.182678m. Speed=0.000000m/h.</desc>
<speed>0.000000</speed>
</trkpt>
<trkpt lat="21.792389" lon="104.917839">
<ele>120.211975</ele>
<time>2011-04-28T10:46:49Z</time>
<desc>lat.=21.792389, lon.=104.917839, Alt.=120.211975m. Speed=0.000000m/h.</desc>
<speed>0.000000</speed>
</trkpt>
<trkpt lat="21.792389" lon="104.917839">
<ele>120.231506</ele>
<time>2011-04-28T10:46:54Z</time>
<desc>lat.=21.792389, lon.=104.917839, Alt.=120.231506m. Speed=0.000000m/h.</desc>
<speed>0.000000</speed>
</trkpt>
<trkpt lat="21.792389" lon="104.917839">
<ele>120.243225</ele>
<time>2011-04-28T10:46:59Z</time>
<desc>lat.=21.792389, lon.=104.917839, Alt.=120.243225m. Speed=0.000000m/h.</desc>
<speed>0.000000</speed>
</trkpt>
<trkpt lat="21.792389" lon="104.917839">
<ele>120.249084</ele>
<time>2011-04-28T10:47:04Z</time>
<desc>lat.=21.792389, lon.=104.917839, Alt.=120.249084m. Speed=0.000000m/h.</desc>
<speed>0.000000</speed>
</trkpt>
<trkpt lat="21.792389" lon="104.917839">
<ele>120.239319</ele>
<time>2011-04-28T10:47:09Z</time>
<desc>lat.=21.792389, lon.=104.917839, Alt.=120.239319m. Speed=0.000000m/h.</desc>
<speed>0.000000</speed>
</trkpt>
<trkpt lat="21.792389" lon="104.917839">
<ele>120.233459</ele>
<time>2011-04-28T10:47:14Z</time>
<desc>lat.=21.792389, lon.=104.917839, Alt.=120.233459m. Speed=0.000000m/h.</desc>
<speed>0.000000</speed>
</trkpt>
<trkpt lat="21.792389" lon="104.917839">
<ele>120.227600</ele>
<time>2011-04-28T10:47:19Z</time>
<desc>lat.=21.792389, lon.=104.917839, Alt.=120.227600m. Speed=0.180000m/h.</desc>
<speed>0.050000</speed>
</trkpt>
<trkpt lat="21.792389" lon="104.917839">
<ele>120.225647</ele>
<time>2011-04-28T10:47:24Z</time>
<desc>lat.=21.792389, lon.=104.917839, Alt.=120.225647m. Speed=0.072000m/h.</desc>
<speed>0.020000</speed>
</trkpt>
<trkpt lat="21.792389" lon="104.917839">
<ele>120.210022</ele>
<time>2011-04-28T10:47:29Z</time>
<desc>lat.=21.792389, lon.=104.917839, Alt.=120.210022m. Speed=0.216000m/h.</desc>
<speed>0.060000</speed>
</trkpt>
<trkpt lat="21.792389" lon="104.917839">
<ele>120.170959</ele>
<time>2011-04-28T10:47:34Z</time>
<desc>lat.=21.792389, lon.=104.917839, Alt.=120.170959m. Speed=0.180000m/h.</desc>
<speed>0.050000</speed>
</trkpt>
<trkpt lat="21.792389" lon="104.917839">
<ele>120.174866</ele>
<time>2011-04-28T10:47:39Z</time>
<desc>lat.=21.792389, lon.=104.917839, Alt.=120.174866m. Speed=0.036000m/h.</desc>
<speed>0.010000</speed>
</trkpt>
<trkpt lat="21.792389" lon="104.917839">
<ele>120.170959</ele>
<time>2011-04-28T10:47:44Z</time>
<desc>lat.=21.792389, lon.=104.917839, Alt.=120.170959m. Speed=0.036000m/h.</desc>
<speed>0.010000</speed>
</trkpt>
<trkpt lat="21.792391" lon="104.917839">
<ele>120.172913</ele>
<time>2011-04-28T10:47:49Z</time>
<desc>lat.=21.792391, lon.=104.917839, Alt.=120.172913m. Speed=0.072000m/h.</desc>
<speed>0.020000</speed>
</trkpt>
<trkpt lat="21.792387" lon="104.917824">
<ele>120.231506</ele>
<time>2011-04-28T10:47:54Z</time>
<desc>lat.=21.792387, lon.=104.917824, Alt.=120.231506m. Speed=3.024000m/h.</desc>
<speed>0.840000</speed>
</trkpt>
<trkpt lat="21.792402" lon="104.917740">
<ele>120.188538</ele>
<time>2011-04-28T10:47:59Z</time>
<desc>lat.=21.792402, lon.=104.917740, Alt.=120.188538m. Speed=5.724000m/h.</desc>
<speed>1.590000</speed>
</trkpt>
<trkpt lat="21.792431" lon="104.917648">
<ele>119.868225</ele>
<time>2011-04-28T10:48:04Z</time>
<desc>lat.=21.792431, lon.=104.917648, Alt.=119.868225m. Speed=9.720000m/h.</desc>
<speed>2.700000</speed>
</trkpt>
<trkpt lat="21.792513" lon="104.917519">
<ele>119.419006</ele>
<time>2011-04-28T10:48:09Z</time>
<desc>lat.=21.792513, lon.=104.917519, Alt.=119.419006m. Speed=12.276000m/h.</desc>
<speed>3.410000</speed>
</trkpt>
<trkpt lat="21.792576" lon="104.917419">
<ele>118.897522</ele>
<time>2011-04-28T10:48:14Z</time>
<desc>lat.=21.792576, lon.=104.917419, Alt.=118.897522m. Speed=4.860000m/h.</desc>
<speed>1.350000</speed>
</trkpt>
<trkpt lat="21.792587" lon="104.917351">
<ele>118.559631</ele>
<time>2011-04-28T10:48:19Z</time>
<desc>lat.=21.792587, lon.=104.917351, Alt.=118.559631m. Speed=1.080000m/h.</desc>
<speed>0.300000</speed>
</trkpt>
<trkpt lat="21.792601" lon="104.917320">
<ele>117.915100</ele>
<time>2011-04-28T10:48:24Z</time>
<desc>lat.=21.792601, lon.=104.917320, Alt.=117.915100m. Speed=0.180000m/h.</desc>
<speed>0.050000</speed>
</trkpt>
<trkpt lat="21.792601" lon="104.917320">
<ele>117.741272</ele>
<time>2011-04-28T10:48:29Z</time>
<desc>lat.=21.792601, lon.=104.917320, Alt.=117.741272m. Speed=0.828000m/h.</desc>
<speed>0.230000</speed>
</trkpt>
<trkpt lat="21.792601" lon="104.917328">
<ele>117.633850</ele>
<time>2011-04-28T10:48:34Z</time>
<desc>lat.=21.792601, lon.=104.917328, Alt.=117.633850m. Speed=0.648000m/h.</desc>
<speed>0.180000</speed>
</trkpt>
<trkpt lat="21.792593" lon="104.917351">
<ele>117.622131</ele>
<time>2011-04-28T10:48:39Z</time>
<desc>lat.=21.792593, lon.=104.917351, Alt.=117.622131m. Speed=1.296000m/h.</desc>
<speed>0.360000</speed>
</trkpt>
<trkpt lat="21.792591" lon="104.917351">
<ele>117.518616</ele>
<time>2011-04-28T10:48:44Z</time>
<desc>lat.=21.792591, lon.=104.917351, Alt.=117.518616m. Speed=0.540000m/h.</desc>
<speed>0.150000</speed>
</trkpt>
<trkpt lat="21.792589" lon="104.917358">
<ele>117.362366</ele>
<time>2011-04-28T10:48:49Z</time>
<desc>lat.=21.792589, lon.=104.917358, Alt.=117.362366m. Speed=0.396000m/h.</desc>
<speed>0.110000</speed>
</trkpt>
<trkpt lat="21.792589" lon="104.917366">
<ele>117.206116</ele>
<time>2011-04-28T10:48:54Z</time>
<desc>lat.=21.792589, lon.=104.917366, Alt.=117.206116m. Speed=0.396000m/h.</desc>
<speed>0.110000</speed>
</trkpt>
<trkpt lat="21.792589" lon="104.917366">
<ele>117.042053</ele>
<time>2011-04-28T10:48:59Z</time>
<desc>lat.=21.792589, lon.=104.917366, Alt.=117.042053m. Speed=0.360000m/h.</desc>
<speed>0.100000</speed>
</trkpt>
<trkpt lat="21.792587" lon="104.917374">
<ele>116.877991</ele>
<time>2011-04-28T10:49:04Z</time>
<desc>lat.=21.792587, lon.=104.917374, Alt.=116.877991m. Speed=0.468000m/h.</desc>
<speed>0.130000</speed>
</trkpt>
<trkpt lat="21.792585" lon="104.917381">
<ele>116.711975</ele>
<time>2011-04-28T10:49:09Z</time>
<desc>lat.=21.792585, lon.=104.917381, Alt.=116.711975m. Speed=0.288000m/h.</desc>
<speed>0.080000</speed>
</trkpt>
<trkpt lat="21.792583" lon="104.917381">
<ele>116.545959</ele>
<time>2011-04-28T10:49:14Z</time>
<desc>lat.=21.792583, lon.=104.917381, Alt.=116.545959m. Speed=0.288000m/h.</desc>
<speed>0.080000</speed>
</trkpt>
<trkpt lat="21.792587" lon="104.917381">
<ele>116.376038</ele>
<time>2011-04-28T10:49:19Z</time>
<desc>lat.=21.792587, lon.=104.917381, Alt.=116.376038m. Speed=0.576000m/h.</desc>
<speed>0.160000</speed>
</trkpt>
<trkpt lat="21.792587" lon="104.917366">
<ele>116.200256</ele>
<time>2011-04-28T10:49:24Z</time>
<desc>lat.=21.792587, lon.=104.917366, Alt.=116.200256m. Speed=0.900000m/h.</desc>
<speed>0.250000</speed>
</trkpt>
<trkpt lat="21.792597" lon="104.917351">
<ele>115.952209</ele>
<time>2011-04-28T10:49:29Z</time>
<desc>lat.=21.792597, lon.=104.917351, Alt.=115.952209m. Speed=1.080000m/h.</desc>
<speed>0.300000</speed>
</trkpt>
<trkpt lat="21.792587" lon="104.917336">
<ele>115.690491</ele>
<time>2011-04-28T10:49:34Z</time>
<desc>lat.=21.792587, lon.=104.917336, Alt.=115.690491m. Speed=0.792000m/h.</desc>
<speed>0.220000</speed>
</trkpt>
<trkpt lat="21.792587" lon="104.917328">
<ele>115.508850</ele>
<time>2011-04-28T10:49:39Z</time>
<desc>lat.=21.792587, lon.=104.917328, Alt.=115.508850m. Speed=0.756000m/h.</desc>
<speed>0.210000</speed>
</trkpt>
<trkpt lat="21.792549" lon="104.917305">
<ele>115.553772</ele>
<time>2011-04-28T10:49:44Z</time>
<desc>lat.=21.792549, lon.=104.917305, Alt.=115.553772m. Speed=8.028000m/h.</desc>
<speed>2.230000</speed>
</trkpt>
<trkpt lat="21.792410" lon="104.917267">
<ele>115.899475</ele>
<time>2011-04-28T10:49:49Z</time>
<desc>lat.=21.792410, lon.=104.917267, Alt.=115.899475m. Speed=12.060000m/h.</desc>
<speed>3.350000</speed>
</trkpt>
<trkpt lat="21.792215" lon="104.917191">
<ele>114.571350</ele>
<time>2011-04-28T10:49:54Z</time>
<desc>lat.=21.792215, lon.=104.917191, Alt.=114.571350m. Speed=15.948000m/h.</desc>
<speed>4.430000</speed>
</trkpt>
<trkpt lat="21.792030" lon="104.917152">
<ele>114.461975</ele>
<time>2011-04-28T10:49:59Z</time>
<desc>lat.=21.792030, lon.=104.917152, Alt.=114.461975m. Speed=15.156000m/h.</desc>
<speed>4.210000</speed>
</trkpt>
<trkpt lat="21.791826" lon="104.917168">
<ele>114.678772</ele>
<time>2011-04-28T10:50:04Z</time>
<desc>lat.=21.791826, lon.=104.917168, Alt.=114.678772m. Speed=15.732000m/h.</desc>
<speed>4.370000</speed>
</trkpt>
<trkpt lat="21.791620" lon="104.917183">
<ele>113.702209</ele>
<time>2011-04-28T10:50:09Z</time>
<desc>lat.=21.791620, lon.=104.917183, Alt.=113.702209m. Speed=18.936001m/h.</desc>
<speed>5.260000</speed>
</trkpt>
<trkpt lat="21.791349" lon="104.917130">
<ele>113.504944</ele>
<time>2011-04-28T10:50:14Z</time>
<desc>lat.=21.791349, lon.=104.917130, Alt.=113.504944m. Speed=22.716000m/h.</desc>
<speed>6.310000</speed>
</trkpt>
<trkpt lat="21.791214" lon="104.916840">
<ele>113.376038</ele>
<time>2011-04-28T10:50:19Z</time>
<desc>lat.=21.791214, lon.=104.916840, Alt.=113.376038m. Speed=22.752001m/h.</desc>
<speed>6.320000</speed>
</trkpt>
<trkpt lat="21.791044" lon="104.916542">
<ele>114.061584</ele>
<time>2011-04-28T10:50:24Z</time>
<desc>lat.=21.791044, lon.=104.916542, Alt.=114.061584m. Speed=23.652000m/h.</desc>
<speed>6.570000</speed>
</trkpt>
<trkpt lat="21.790749" lon="104.916374">
<ele>112.696350</ele>
<time>2011-04-28T10:50:29Z</time>
<desc>lat.=21.790749, lon.=104.916374, Alt.=112.696350m. Speed=26.459999m/h.</desc>
<speed>7.350000</speed>
</trkpt>
<trkpt lat="21.790443" lon="104.916565">
<ele>111.954163</ele>
<time>2011-04-28T10:50:34Z</time>
<desc>lat.=21.790443, lon.=104.916565, Alt.=111.954163m. Speed=29.195999m/h.</desc>
<speed>8.110000</speed>
</trkpt>
<trkpt lat="21.790218" lon="104.916924">
<ele>113.460022</ele>
<time>2011-04-28T10:50:39Z</time>
<desc>lat.=21.790218, lon.=104.916924, Alt.=113.460022m. Speed=28.368000m/h.</desc>
<speed>7.880000</speed>
</trkpt>
<trkpt lat="21.790031" lon="104.917236">
<ele>112.526428</ele>
<time>2011-04-28T10:50:44Z</time>
<desc>lat.=21.790031, lon.=104.917236, Alt.=112.526428m. Speed=26.208000m/h.</desc>
<speed>7.280000</speed>
</trkpt>
<trkpt lat="21.789835" lon="104.917458">
<ele>111.702209</ele>
<time>2011-04-28T10:50:49Z</time>
<desc>lat.=21.789835, lon.=104.917458, Alt.=111.702209m. Speed=21.959999m/h.</desc>
<speed>6.100000</speed>
</trkpt>
<trkpt lat="21.789557" lon="104.917389">
<ele>110.936584</ele>
<time>2011-04-28T10:50:54Z</time>
<desc>lat.=21.789557, lon.=104.917389, Alt.=110.936584m. Speed=25.200001m/h.</desc>
<speed>7.000000</speed>
</trkpt>
<trkpt lat="21.789373" lon="104.917145">
<ele>109.219788</ele>
<time>2011-04-28T10:50:59Z</time>
<desc>lat.=21.789373, lon.=104.917145, Alt.=109.219788m. Speed=20.556000m/h.</desc>
<speed>5.710000</speed>
</trkpt>
<trkpt lat="21.789459" lon="104.916908">
<ele>107.811584</ele>
<time>2011-04-28T10:51:04Z</time>
<desc>lat.=21.789459, lon.=104.916908, Alt.=107.811584m. Speed=16.955999m/h.</desc>
<speed>4.710000</speed>
</trkpt>
<trkpt lat="21.789610" lon="104.916740">
<ele>107.944397</ele>
<time>2011-04-28T10:51:09Z</time>
<desc>lat.=21.789610, lon.=104.916740, Alt.=107.944397m. Speed=13.356000m/h.</desc>
<speed>3.710000</speed>
</trkpt>
<trkpt lat="21.789711" lon="104.916580">
<ele>107.749084</ele>
<time>2011-04-28T10:51:14Z</time>
<desc>lat.=21.789711, lon.=104.916580, Alt.=107.749084m. Speed=13.932000m/h.</desc>
<speed>3.870000</speed>
</trkpt>
<trkpt lat="21.789734" lon="104.916420">
<ele>108.833069</ele>
<time>2011-04-28T10:51:19Z</time>
<desc>lat.=21.789734, lon.=104.916420, Alt.=108.833069m. Speed=11.376000m/h.</desc>
<speed>3.160000</speed>
</trkpt>
<trkpt lat="21.789663" lon="104.916237">
<ele>109.307678</ele>
<time>2011-04-28T10:51:24Z</time>
<desc>lat.=21.789663, lon.=104.916237, Alt.=109.307678m. Speed=14.544000m/h.</desc>
<speed>4.040000</speed>
</trkpt>
<trkpt lat="21.789572" lon="104.916077">
<ele>108.975647</ele>
<time>2011-04-28T10:51:29Z</time>
<desc>lat.=21.789572, lon.=104.916077, Alt.=108.975647m. Speed=13.284000m/h.</desc>
<speed>3.690000</speed>
</trkpt>
<trkpt lat="21.789520" lon="104.915878">
<ele>108.254944</ele>
<time>2011-04-28T10:51:34Z</time>
<desc>lat.=21.789520, lon.=104.915878, Alt.=108.254944m. Speed=14.760000m/h.</desc>
<speed>4.100000</speed>
</trkpt>
<trkpt lat="21.789549" lon="104.915680">
<ele>105.340881</ele>
<time>2011-04-28T10:51:39Z</time>
<desc>lat.=21.789549, lon.=104.915680, Alt.=105.340881m. Speed=15.876000m/h.</desc>
<speed>4.410000</speed>
</trkpt>
<trkpt lat="21.789692" lon="104.915497">
<ele>101.223694</ele>
<time>2011-04-28T10:51:44Z</time>
<desc>lat.=21.789692, lon.=104.915497, Alt.=101.223694m. Speed=17.568001m/h.</desc>
<speed>4.880000</speed>
</trkpt>
<trkpt lat="21.789839" lon="104.915329">
<ele>99.768616</ele>
<time>2011-04-28T10:51:49Z</time>
<desc>lat.=21.789839, lon.=104.915329, Alt.=99.768616m. Speed=16.740000m/h.</desc>
<speed>4.650000</speed>
</trkpt>
<trkpt lat="21.789930" lon="104.915092">
<ele>98.938538</ele>
<time>2011-04-28T10:51:54Z</time>
<desc>lat.=21.789930, lon.=104.915092, Alt.=98.938538m. Speed=20.340000m/h.</desc>
<speed>5.650000</speed>
</trkpt>
<trkpt lat="21.789803" lon="104.914848">
<ele>100.393616</ele>
<time>2011-04-28T10:51:59Z</time>
<desc>lat.=21.789803, lon.=104.914848, Alt.=100.393616m. Speed=22.356001m/h.</desc>
<speed>6.210000</speed>
</trkpt>
<trkpt lat="21.789557" lon="104.914673">
<ele>98.956116</ele>
<time>2011-04-28T10:52:04Z</time>
<desc>lat.=21.789557, lon.=104.914673, Alt.=98.956116m. Speed=23.400000m/h.</desc>
<speed>6.500000</speed>
</trkpt>
<trkpt lat="21.789322" lon="104.914497">
<ele>97.786194</ele>
<time>2011-04-28T10:52:09Z</time>
<desc>lat.=21.789322, lon.=104.914497, Alt.=97.786194m. Speed=20.916000m/h.</desc>
<speed>5.810000</speed>
</trkpt>
<trkpt lat="21.789110" lon="104.914345">
<ele>97.008850</ele>
<time>2011-04-28T10:52:14Z</time>
<desc>lat.=21.789110, lon.=104.914345, Alt.=97.008850m. Speed=19.188000m/h.</desc>
<speed>5.330000</speed>
</trkpt>
<trkpt lat="21.788843" lon="104.914131">
<ele>96.252991</ele>
<time>2011-04-28T10:52:19Z</time>
<desc>lat.=21.788843, lon.=104.914131, Alt.=96.252991m. Speed=23.903999m/h.</desc>
<speed>6.640000</speed>
</trkpt>
<trkpt lat="21.788595" lon="104.913963">
<ele>96.489319</ele>
<time>2011-04-28T10:52:24Z</time>
<desc>lat.=21.788595, lon.=104.913963, Alt.=96.489319m. Speed=24.480000m/h.</desc>
<speed>6.800000</speed>
</trkpt>
<trkpt lat="21.788364" lon="104.914085">
<ele>96.141663</ele>
<time>2011-04-28T10:52:29Z</time>
<desc>lat.=21.788364, lon.=104.914085, Alt.=96.141663m. Speed=23.724001m/h.</desc>
<speed>6.590000</speed>
</trkpt>
<trkpt lat="21.788166" lon="104.914436">
<ele>96.924866</ele>
<time>2011-04-28T10:52:34Z</time>
<desc>lat.=21.788166, lon.=104.914436, Alt.=96.924866m. Speed=32.004002m/h.</desc>
<speed>8.890000</speed>
</trkpt>
<trkpt lat="21.787857" lon="104.914680">
<ele>97.200256</ele>
<time>2011-04-28T10:52:39Z</time>
<desc>lat.=21.787857, lon.=104.914680, Alt.=97.200256m. Speed=30.455999m/h.</desc>
<speed>8.460000</speed>
</trkpt>
<trkpt lat="21.787527" lon="104.914795">
<ele>96.989319</ele>
<time>2011-04-28T10:52:44Z</time>
<desc>lat.=21.787527, lon.=104.914795, Alt.=96.989319m. Speed=25.848000m/h.</desc>
<speed>7.180000</speed>
</trkpt>
<trkpt lat="21.787241" lon="104.914673">
<ele>96.760803</ele>
<time>2011-04-28T10:52:49Z</time>
<desc>lat.=21.787241, lon.=104.914673, Alt.=96.760803m. Speed=20.124001m/h.</desc>
<speed>5.590000</speed>
</trkpt>
<trkpt lat="21.787025" lon="104.914467">
<ele>97.688538</ele>
<time>2011-04-28T10:52:54Z</time>
<desc>lat.=21.787025, lon.=104.914467, Alt.=97.688538m. Speed=20.052000m/h.</desc>
<speed>5.570000</speed>
</trkpt>
<trkpt lat="21.786833" lon="104.914360">
<ele>98.137756</ele>
<time>2011-04-28T10:52:59Z</time>
<desc>lat.=21.786833, lon.=104.914360, Alt.=98.137756m. Speed=15.048000m/h.</desc>
<speed>4.180000</speed>
</trkpt>
<trkpt lat="21.786573" lon="104.914429">
<ele>98.204163</ele>
<time>2011-04-28T10:53:04Z</time>
<desc>lat.=21.786573, lon.=104.914429, Alt.=98.204163m. Speed=21.096001m/h.</desc>
<speed>5.860000</speed>
</trkpt>
<trkpt lat="21.786533" lon="104.914749">
<ele>97.626038</ele>
<time>2011-04-28T10:53:09Z</time>
<desc>lat.=21.786533, lon.=104.914749, Alt.=97.626038m. Speed=21.455999m/h.</desc>
<speed>5.960000</speed>
</trkpt>
<trkpt lat="21.786488" lon="104.915024">
<ele>97.008850</ele>
<time>2011-04-28T10:53:14Z</time>
<desc>lat.=21.786488, lon.=104.915024, Alt.=97.008850m. Speed=20.700001m/h.</desc>
<speed>5.750000</speed>
</trkpt>
<trkpt lat="21.786287" lon="104.915169">
<ele>96.272522</ele>
<time>2011-04-28T10:53:19Z</time>
<desc>lat.=21.786287, lon.=104.915169, Alt.=96.272522m. Speed=20.844000m/h.</desc>
<speed>5.790000</speed>
</trkpt>
<trkpt lat="21.786034" lon="104.915176">
<ele>95.327209</ele>
<time>2011-04-28T10:53:24Z</time>
<desc>lat.=21.786034, lon.=104.915176, Alt.=95.327209m. Speed=18.468000m/h.</desc>
<speed>5.130000</speed>
</trkpt>
<trkpt lat="21.785849" lon="104.915352">
<ele>93.948303</ele>
<time>2011-04-28T10:53:29Z</time>
<desc>lat.=21.785849, lon.=104.915352, Alt.=93.948303m. Speed=20.556000m/h.</desc>
<speed>5.710000</speed>
</trkpt>
<trkpt lat="21.785812" lon="104.915695">
<ele>93.190491</ele>
<time>2011-04-28T10:53:34Z</time>
<desc>lat.=21.785812, lon.=104.915695, Alt.=93.190491m. Speed=20.520000m/h.</desc>
<speed>5.700000</speed>
</trkpt>
<trkpt lat="21.785702" lon="104.915947">
<ele>92.395569</ele>
<time>2011-04-28T10:53:39Z</time>
<desc>lat.=21.785702, lon.=104.915947, Alt.=92.395569m. Speed=19.440001m/h.</desc>
<speed>5.400000</speed>
</trkpt>
<trkpt lat="21.785488" lon="104.916016">
<ele>93.245178</ele>
<time>2011-04-28T10:53:44Z</time>
<desc>lat.=21.785488, lon.=104.916016, Alt.=93.245178m. Speed=18.360001m/h.</desc>
<speed>5.100000</speed>
</trkpt>
<trkpt lat="21.785389" lon="104.915855">
<ele>93.534241</ele>
<time>2011-04-28T10:53:49Z</time>
<desc>lat.=21.785389, lon.=104.915855, Alt.=93.534241m. Speed=10.944000m/h.</desc>
<speed>3.040000</speed>
</trkpt>
<trkpt lat="21.785391" lon="104.915695">
<ele>94.721741</ele>
<time>2011-04-28T10:53:54Z</time>
<desc>lat.=21.785391, lon.=104.915695, Alt.=94.721741m. Speed=10.296000m/h.</desc>
<speed>2.860000</speed>
</trkpt>
<trkpt lat="21.785378" lon="104.915581">
<ele>96.252991</ele>
<time>2011-04-28T10:53:59Z</time>
<desc>lat.=21.785378, lon.=104.915581, Alt.=96.252991m. Speed=7.596000m/h.</desc>
<speed>2.110000</speed>
</trkpt>
<trkpt lat="21.785328" lon="104.915436">
<ele>99.124084</ele>
<time>2011-04-28T10:54:04Z</time>
<desc>lat.=21.785328, lon.=104.915436, Alt.=99.124084m. Speed=8.496000m/h.</desc>
<speed>2.360000</speed>
</trkpt>
<trkpt lat="21.785242" lon="104.915390">
<ele>99.899475</ele>
<time>2011-04-28T10:54:09Z</time>
<desc>lat.=21.785242, lon.=104.915390, Alt.=99.899475m. Speed=6.408000m/h.</desc>
<speed>1.780000</speed>
</trkpt>
<trkpt lat="21.785122" lon="104.915329">
<ele>100.401428</ele>
<time>2011-04-28T10:54:14Z</time>
<desc>lat.=21.785122, lon.=104.915329, Alt.=100.401428m. Speed=6.480000m/h.</desc>
<speed>1.800000</speed>
</trkpt>
<trkpt lat="21.784990" lon="104.915230">
<ele>99.403381</ele>
<time>2011-04-28T10:54:19Z</time>
<desc>lat.=21.784990, lon.=104.915230, Alt.=99.403381m. Speed=7.668000m/h.</desc>
<speed>2.130000</speed>
</trkpt>
<trkpt lat="21.784882" lon="104.915176">
<ele>100.655334</ele>
<time>2011-04-28T10:54:24Z</time>
<desc>lat.=21.784882, lon.=104.915176, Alt.=100.655334m. Speed=9.504000m/h.</desc>
<speed>2.640000</speed>
</trkpt>
<trkpt lat="21.784779" lon="104.915092">
<ele>101.805725</ele>
<time>2011-04-28T10:54:29Z</time>
<desc>lat.=21.784779, lon.=104.915092, Alt.=101.805725m. Speed=8.892000m/h.</desc>
<speed>2.470000</speed>
</trkpt>
<trkpt lat="21.784685" lon="104.915009">
<ele>100.559631</ele>
<time>2011-04-28T10:54:34Z</time>
<desc>lat.=21.784685, lon.=104.915009, Alt.=100.559631m. Speed=10.188000m/h.</desc>
<speed>2.830000</speed>
</trkpt>
<trkpt lat="21.784525" lon="104.914970">
<ele>100.538147</ele>
<time>2011-04-28T10:54:39Z</time>
<desc>lat.=21.784525, lon.=104.914970, Alt.=100.538147m. Speed=15.336000m/h.</desc>
<speed>4.260000</speed>
</trkpt>
<trkpt lat="21.784321" lon="104.915039">
<ele>99.799866</ele>
<time>2011-04-28T10:54:44Z</time>
<desc>lat.=21.784321, lon.=104.915039, Alt.=99.799866m. Speed=16.632000m/h.</desc>
<speed>4.620000</speed>
</trkpt>
<trkpt lat="21.784115" lon="104.915108">
<ele>99.540100</ele>
<time>2011-04-28T10:54:49Z</time>
<desc>lat.=21.784115, lon.=104.915108, Alt.=99.540100m. Speed=15.084000m/h.</desc>
<speed>4.190000</speed>
</trkpt>
<trkpt lat="21.783901" lon="104.915176">
<ele>99.491272</ele>
<time>2011-04-28T10:54:54Z</time>
<desc>lat.=21.783901, lon.=104.915176, Alt.=99.491272m. Speed=14.364000m/h.</desc>
<speed>3.990000</speed>
</trkpt>
<trkpt lat="21.783724" lon="104.915138">
<ele>100.563538</ele>
<time>2011-04-28T10:54:59Z</time>
<desc>lat.=21.783724, lon.=104.915138, Alt.=100.563538m. Speed=14.328000m/h.</desc>
<speed>3.980000</speed>
</trkpt>
<trkpt lat="21.783552" lon="104.915054">
<ele>101.239319</ele>
<time>2011-04-28T10:55:04Z</time>
<desc>lat.=21.783552, lon.=104.915054, Alt.=101.239319m. Speed=17.316000m/h.</desc>
<speed>4.810000</speed>
</trkpt>
<trkpt lat="21.783323" lon="104.915062">
<ele>102.108459</ele>
<time>2011-04-28T10:55:09Z</time>
<desc>lat.=21.783323, lon.=104.915062, Alt.=102.108459m. Speed=20.304001m/h.</desc>
<speed>5.640000</speed>
</trkpt>
<trkpt lat="21.783007" lon="104.915276">
<ele>102.395569</ele>
<time>2011-04-28T10:55:14Z</time>
<desc>lat.=21.783007, lon.=104.915276, Alt.=102.395569m. Speed=25.775999m/h.</desc>
<speed>7.160000</speed>
</trkpt>
<trkpt lat="21.782686" lon="104.915413">
<ele>101.163147</ele>
<time>2011-04-28T10:55:19Z</time>
<desc>lat.=21.782686, lon.=104.915413, Alt.=101.163147m. Speed=26.280001m/h.</desc>
<speed>7.300000</speed>
</trkpt>
<trkpt lat="21.782351" lon="104.915474">
<ele>100.151428</ele>
<time>2011-04-28T10:55:24Z</time>
<desc>lat.=21.782351, lon.=104.915474, Alt.=100.151428m. Speed=24.228001m/h.</desc>
<speed>6.730000</speed>
</trkpt>
<trkpt lat="21.782063" lon="104.915688">
<ele>98.626038</ele>
<time>2011-04-28T10:55:29Z</time>
<desc>lat.=21.782063, lon.=104.915688, Alt.=98.626038m. Speed=25.416000m/h.</desc>
<speed>7.060000</speed>
</trkpt>
<trkpt lat="21.781858" lon="104.916023">
<ele>100.840881</ele>
<time>2011-04-28T10:55:34Z</time>
<desc>lat.=21.781858, lon.=104.916023, Alt.=100.840881m. Speed=29.664000m/h.</desc>
<speed>8.240000</speed>
</trkpt>
<trkpt lat="21.781561" lon="104.916290">
<ele>99.452209</ele>
<time>2011-04-28T10:55:39Z</time>
<desc>lat.=21.781561, lon.=104.916290, Alt.=99.452209m. Speed=32.147999m/h.</desc>
<speed>8.930000</speed>
</trkpt>
<trkpt lat="21.781155" lon="104.916290">
<ele>96.948303</ele>
<time>2011-04-28T10:55:44Z</time>
<desc>lat.=21.781155, lon.=104.916290, Alt.=96.948303m. Speed=33.480000m/h.</desc>
<speed>9.300000</speed>
</trkpt>
<trkpt lat="21.780731" lon="104.916267">
<ele>96.104553</ele>
<time>2011-04-28T10:55:49Z</time>
<desc>lat.=21.780731, lon.=104.916267, Alt.=96.104553m. Speed=33.155998m/h.</desc>
<speed>9.210000</speed>
</trkpt>
<trkpt lat="21.780357" lon="104.916435">
<ele>95.290100</ele>
<time>2011-04-28T10:55:54Z</time>
<desc>lat.=21.780357, lon.=104.916435, Alt.=95.290100m. Speed=30.743999m/h.</desc>
<speed>8.540000</speed>
</trkpt>
<trkpt lat="21.780043" lon="104.916626">
<ele>94.610413</ele>
<time>2011-04-28T10:55:59Z</time>
<desc>lat.=21.780043, lon.=104.916626, Alt.=94.610413m. Speed=27.143999m/h.</desc>
<speed>7.540000</speed>
</trkpt>
<trkpt lat="21.779766" lon="104.916809">
<ele>94.338928</ele>
<time>2011-04-28T10:56:04Z</time>
<desc>lat.=21.779766, lon.=104.916809, Alt.=94.338928m. Speed=23.507999m/h.</desc>
<speed>6.530000</speed>
</trkpt>
<trkpt lat="21.779541" lon="104.917023">
<ele>96.823303</ele>
<time>2011-04-28T10:56:09Z</time>
<desc>lat.=21.779541, lon.=104.917023, Alt.=96.823303m. Speed=23.148001m/h.</desc>
<speed>6.430000</speed>
</trkpt>
<trkpt lat="21.779388" lon="104.917328">
<ele>97.819397</ele>
<time>2011-04-28T10:56:14Z</time>
<desc>lat.=21.779388, lon.=104.917328, Alt.=97.819397m. Speed=24.840000m/h.</desc>
<speed>6.900000</speed>
</trkpt>
<trkpt lat="21.779177" lon="104.917625">
<ele>97.475647</ele>
<time>2011-04-28T10:56:19Z</time>
<desc>lat.=21.779177, lon.=104.917625, Alt.=97.475647m. Speed=28.908001m/h.</desc>
<speed>8.030000</speed>
</trkpt>
<trkpt lat="21.778896" lon="104.917809">
<ele>99.325256</ele>
<time>2011-04-28T10:56:24Z</time>
<desc>lat.=21.778896, lon.=104.917809, Alt.=99.325256m. Speed=23.040001m/h.</desc>
<speed>6.400000</speed>
</trkpt>
<trkpt lat="21.778641" lon="104.917969">
<ele>99.086975</ele>
<time>2011-04-28T10:56:29Z</time>
<desc>lat.=21.778641, lon.=104.917969, Alt.=99.086975m. Speed=19.152000m/h.</desc>
<speed>5.320000</speed>
</trkpt>
<trkpt lat="21.778421" lon="104.918137">
<ele>99.485413</ele>
<time>2011-04-28T10:56:34Z</time>
<desc>lat.=21.778421, lon.=104.918137, Alt.=99.485413m. Speed=20.052000m/h.</desc>
<speed>5.570000</speed>
</trkpt>
<trkpt lat="21.778198" lon="104.918343">
<ele>101.407288</ele>
<time>2011-04-28T10:56:39Z</time>
<desc>lat.=21.778198, lon.=104.918343, Alt.=101.407288m. Speed=22.320000m/h.</desc>
<speed>6.200000</speed>
</trkpt>
<trkpt lat="21.778000" lon="104.918602">
<ele>101.919006</ele>
<time>2011-04-28T10:56:44Z</time>
<desc>lat.=21.778000, lon.=104.918602, Alt.=101.919006m. Speed=26.136000m/h.</desc>
<speed>7.260000</speed>
</trkpt>
<trkpt lat="21.777817" lon="104.918877">
<ele>103.225647</ele>
<time>2011-04-28T10:56:49Z</time>
<desc>lat.=21.777817, lon.=104.918877, Alt.=103.225647m. Speed=23.040001m/h.</desc>
<speed>6.400000</speed>
</trkpt>
<trkpt lat="21.777655" lon="104.919044">
<ele>106.672913</ele>
<time>2011-04-28T10:56:54Z</time>
<desc>lat.=21.777655, lon.=104.919044, Alt.=106.672913m. Speed=15.948000m/h.</desc>
<speed>4.430000</speed>
</trkpt>
<trkpt lat="21.777487" lon="104.919128">
<ele>111.061584</ele>
<time>2011-04-28T10:56:59Z</time>
<desc>lat.=21.777487, lon.=104.919128, Alt.=111.061584m. Speed=12.168000m/h.</desc>
<speed>3.380000</speed>
</trkpt>
<trkpt lat="21.777353" lon="104.919205">
<ele>114.061584</ele>
<time>2011-04-28T10:57:04Z</time>
<desc>lat.=21.777353, lon.=104.919205, Alt.=114.061584m. Speed=9.684000m/h.</desc>
<speed>2.690000</speed>
</trkpt>
<trkpt lat="21.777214" lon="104.919319">
<ele>115.575256</ele>
<time>2011-04-28T10:57:09Z</time>
<desc>lat.=21.777214, lon.=104.919319, Alt.=115.575256m. Speed=12.924000m/h.</desc>
<speed>3.590000</speed>
</trkpt>
<trkpt lat="21.777061" lon="104.919449">
<ele>115.286194</ele>
<time>2011-04-28T10:57:14Z</time>
<desc>lat.=21.777061, lon.=104.919449, Alt.=115.286194m. Speed=10.584000m/h.</desc>
<speed>2.940000</speed>
</trkpt>
<trkpt lat="21.776964" lon="104.919518">
<ele>113.596741</ele>
<time>2011-04-28T10:57:19Z</time>
<desc>lat.=21.776964, lon.=104.919518, Alt.=113.596741m. Speed=7.524000m/h.</desc>
<speed>2.090000</speed>
</trkpt>
<trkpt lat="21.776880" lon="104.919586">
<ele>114.299866</ele>
<time>2011-04-28T10:57:24Z</time>
<desc>lat.=21.776880, lon.=104.919586, Alt.=114.299866m. Speed=6.120000m/h.</desc>
<speed>1.700000</speed>
</trkpt>
<trkpt lat="21.776781" lon="104.919632">
<ele>114.356506</ele>
<time>2011-04-28T10:57:29Z</time>
<desc>lat.=21.776781, lon.=104.919632, Alt.=114.356506m. Speed=9.864000m/h.</desc>
<speed>2.740000</speed>
</trkpt>
<trkpt lat="21.776651" lon="104.919739">
<ele>114.995178</ele>
<time>2011-04-28T10:57:34Z</time>
<desc>lat.=21.776651, lon.=104.919739, Alt.=114.995178m. Speed=12.852000m/h.</desc>
<speed>3.570000</speed>
</trkpt>
<trkpt lat="21.776501" lon="104.919891">
<ele>114.389709</ele>
<time>2011-04-28T10:57:39Z</time>
<desc>lat.=21.776501, lon.=104.919891, Alt.=114.389709m. Speed=14.616000m/h.</desc>
<speed>4.060000</speed>
</trkpt>
<trkpt lat="21.776329" lon="104.920044">
<ele>111.952209</ele>
<time>2011-04-28T10:57:44Z</time>
<desc>lat.=21.776329, lon.=104.920044, Alt.=111.952209m. Speed=16.775999m/h.</desc>
<speed>4.660000</speed>
</trkpt>
<trkpt lat="21.776121" lon="104.920197">
<ele>108.999084</ele>
<time>2011-04-28T10:57:49Z</time>
<desc>lat.=21.776121, lon.=104.920197, Alt.=108.999084m. Speed=20.664000m/h.</desc>
<speed>5.740000</speed>
</trkpt>
<trkpt lat="21.775850" lon="104.920372">
<ele>103.508850</ele>
<time>2011-04-28T10:57:54Z</time>
<desc>lat.=21.775850, lon.=104.920372, Alt.=103.508850m. Speed=23.184000m/h.</desc>
<speed>6.440000</speed>
</trkpt>
<trkpt lat="21.775591" lon="104.920517">
<ele>99.557678</ele>
<time>2011-04-28T10:57:59Z</time>
<desc>lat.=21.775591, lon.=104.920517, Alt.=99.557678m. Speed=21.996000m/h.</desc>
<speed>6.110000</speed>
</trkpt>
<trkpt lat="21.775324" lon="104.920685">
<ele>95.743225</ele>
<time>2011-04-28T10:58:04Z</time>
<desc>lat.=21.775324, lon.=104.920685, Alt.=95.743225m. Speed=23.903999m/h.</desc>
<speed>6.640000</speed>
</trkpt>
<trkpt lat="21.775024" lon="104.920845">
<ele>92.356506</ele>
<time>2011-04-28T10:58:09Z</time>
<desc>lat.=21.775024, lon.=104.920845, Alt.=92.356506m. Speed=23.760000m/h.</desc>
<speed>6.600000</speed>
</trkpt>
<trkpt lat="21.774725" lon="104.920998">
<ele>91.475647</ele>
<time>2011-04-28T10:58:14Z</time>
<desc>lat.=21.774725, lon.=104.920998, Alt.=91.475647m. Speed=23.507999m/h.</desc>
<speed>6.530000</speed>
</trkpt>
<trkpt lat="21.774437" lon="104.921188">
<ele>85.170959</ele>
<time>2011-04-28T10:58:19Z</time>
<desc>lat.=21.774437, lon.=104.921188, Alt.=85.170959m. Speed=23.076000m/h.</desc>
<speed>6.410000</speed>
</trkpt>
<trkpt lat="21.774223" lon="104.921394">
<ele>86.432678</ele>
<time>2011-04-28T10:58:24Z</time>
<desc>lat.=21.774223, lon.=104.921394, Alt.=86.432678m. Speed=22.860001m/h.</desc>
<speed>6.350000</speed>
</trkpt>
<trkpt lat="21.773939" lon="104.921524">
<ele>82.376038</ele>
<time>2011-04-28T10:58:29Z</time>
<desc>lat.=21.773939, lon.=104.921524, Alt.=82.376038m. Speed=28.296000m/h.</desc>
<speed>7.860000</speed>
</trkpt>
<trkpt lat="21.773602" lon="104.921547">
<ele>78.817444</ele>
<time>2011-04-28T10:58:34Z</time>
<desc>lat.=21.773602, lon.=104.921547, Alt.=78.817444m. Speed=25.848000m/h.</desc>
<speed>7.180000</speed>
</trkpt>
<trkpt lat="21.773361" lon="104.921410">
<ele>76.600647</ele>
<time>2011-04-28T10:58:39Z</time>
<desc>lat.=21.773361, lon.=104.921410, Alt.=76.600647m. Speed=21.851999m/h.</desc>
<speed>6.070000</speed>
</trkpt>
<trkpt lat="21.773193" lon="104.921127">
<ele>76.469788</ele>
<time>2011-04-28T10:58:44Z</time>
<desc>lat.=21.773193, lon.=104.921127, Alt.=76.469788m. Speed=22.788000m/h.</desc>
<speed>6.330000</speed>
</trkpt>
<trkpt lat="21.773022" lon="104.920891">
<ele>77.399475</ele>
<time>2011-04-28T10:58:49Z</time>
<desc>lat.=21.773022, lon.=104.920891, Alt.=77.399475m. Speed=20.520000m/h.</desc>
<speed>5.700000</speed>
</trkpt>
<trkpt lat="21.772860" lon="104.920723">
<ele>77.604553</ele>
<time>2011-04-28T10:58:54Z</time>
<desc>lat.=21.772860, lon.=104.920723, Alt.=77.604553m. Speed=16.848000m/h.</desc>
<speed>4.680000</speed>
</trkpt>
<trkpt lat="21.772676" lon="104.920647">
<ele>77.342834</ele>
<time>2011-04-28T10:58:59Z</time>
<desc>lat.=21.772676, lon.=104.920647, Alt.=77.342834m. Speed=16.056000m/h.</desc>
<speed>4.460000</speed>
</trkpt>
<trkpt lat="21.772448" lon="104.920540">
<ele>75.985413</ele>
<time>2011-04-28T10:59:04Z</time>
<desc>lat.=21.772448, lon.=104.920540, Alt.=75.985413m. Speed=17.712000m/h.</desc>
<speed>4.920000</speed>
</trkpt>
<trkpt lat="21.772203" lon="104.920502">
<ele>75.762756</ele>
<time>2011-04-28T10:59:09Z</time>
<desc>lat.=21.772203, lon.=104.920502, Alt.=75.762756m. Speed=17.243999m/h.</desc>
<speed>4.790000</speed>
</trkpt>
<trkpt lat="21.772018" lon="104.920547">
<ele>76.020569</ele>
<time>2011-04-28T10:59:14Z</time>
<desc>lat.=21.772018, lon.=104.920547, Alt.=76.020569m. Speed=14.148000m/h.</desc>
<speed>3.930000</speed>
</trkpt>
<trkpt lat="21.771868" lon="104.920570">
<ele>77.237366</ele>
<time>2011-04-28T10:59:19Z</time>
<desc>lat.=21.771868, lon.=104.920570, Alt.=77.237366m. Speed=9.072000m/h.</desc>
<speed>2.520000</speed>
</trkpt>
<trkpt lat="21.771746" lon="104.920677">
<ele>79.661194</ele>
<time>2011-04-28T10:59:24Z</time>
<desc>lat.=21.771746, lon.=104.920677, Alt.=79.661194m. Speed=13.032000m/h.</desc>
<speed>3.620000</speed>
</trkpt>
<trkpt lat="21.771624" lon="104.920868">
<ele>84.358459</ele>
<time>2011-04-28T10:59:29Z</time>
<desc>lat.=21.771624, lon.=104.920868, Alt.=84.358459m. Speed=11.844000m/h.</desc>
<speed>3.290000</speed>
</trkpt>
<trkpt lat="21.771521" lon="104.921021">
<ele>86.956116</ele>
<time>2011-04-28T10:59:34Z</time>
<desc>lat.=21.771521, lon.=104.921021, Alt.=86.956116m. Speed=10.908000m/h.</desc>
<speed>3.030000</speed>
</trkpt>
<trkpt lat="21.771400" lon="104.921104">
<ele>88.254944</ele>
<time>2011-04-28T10:59:39Z</time>
<desc>lat.=21.771400, lon.=104.921104, Alt.=88.254944m. Speed=12.240000m/h.</desc>
<speed>3.400000</speed>
</trkpt>
<trkpt lat="21.771252" lon="104.921104">
<ele>88.174866</ele>
<time>2011-04-28T10:59:44Z</time>
<desc>lat.=21.771252, lon.=104.921104, Alt.=88.174866m. Speed=13.068000m/h.</desc>
<speed>3.630000</speed>
</trkpt>
<trkpt lat="21.771132" lon="104.921066">
<ele>88.807678</ele>
<time>2011-04-28T10:59:49Z</time>
<desc>lat.=21.771132, lon.=104.921066, Alt.=88.807678m. Speed=7.884000m/h.</desc>
<speed>2.190000</speed>
</trkpt>
<trkpt lat="21.771059" lon="104.921028">
<ele>88.393616</ele>
<time>2011-04-28T10:59:54Z</time>
<desc>lat.=21.771059, lon.=104.921028, Alt.=88.393616m. Speed=5.544000m/h.</desc>
<speed>1.540000</speed>
</trkpt>
<trkpt lat="21.771019" lon="104.921005">
<ele>87.985413</ele>
<time>2011-04-28T10:59:59Z</time>
<desc>lat.=21.771019, lon.=104.921005, Alt.=87.985413m. Speed=0.324000m/h.</desc>
<speed>0.090000</speed>
</trkpt>
<trkpt lat="21.771019" lon="104.921005">
<ele>87.901428</ele>
<time>2011-04-28T11:00:04Z</time>
<desc>lat.=21.771019, lon.=104.921005, Alt.=87.901428m. Speed=0.216000m/h.</desc>
<speed>0.060000</speed>
</trkpt>
<trkpt lat="21.771021" lon="104.921005">
<ele>87.952209</ele>
<time>2011-04-28T11:00:09Z</time>
<desc>lat.=21.771021, lon.=104.921005, Alt.=87.952209m. Speed=0.432000m/h.</desc>
<speed>0.120000</speed>
</trkpt>
<trkpt lat="21.771019" lon="104.920990">
<ele>88.001038</ele>
<time>2011-04-28T11:00:14Z</time>
<desc>lat.=21.771019, lon.=104.920990, Alt.=88.001038m. Speed=1.296000m/h.</desc>
<speed>0.360000</speed>
</trkpt>
<trkpt lat="21.771017" lon="104.920975">
<ele>88.047913</ele>
<time>2011-04-28T11:00:19Z</time>
<desc>lat.=21.771017, lon.=104.920975, Alt.=88.047913m. Speed=0.432000m/h.</desc>
<speed>0.120000</speed>
</trkpt>
<trkpt lat="21.771015" lon="104.920975">
<ele>88.053772</ele>
<time>2011-04-28T11:00:24Z</time>
<desc>lat.=21.771015, lon.=104.920975, Alt.=88.053772m. Speed=0.072000m/h.</desc>
<speed>0.020000</speed>
</trkpt>
<trkpt lat="21.771015" lon="104.920975">
<ele>88.032288</ele>
<time>2011-04-28T11:00:29Z</time>
<desc>lat.=21.771015, lon.=104.920975, Alt.=88.032288m. Speed=0.180000m/h.</desc>
<speed>0.050000</speed>
</trkpt>
<trkpt lat="21.771013" lon="104.920975">
<ele>88.002991</ele>
<time>2011-04-28T11:00:34Z</time>
<desc>lat.=21.771013, lon.=104.920975, Alt.=88.002991m. Speed=0.144000m/h.</desc>
<speed>0.040000</speed>
</trkpt>
<trkpt lat="21.771015" lon="104.920967">
<ele>88.002991</ele>
<time>2011-04-28T11:00:39Z</time>
<desc>lat.=21.771015, lon.=104.920967, Alt.=88.002991m. Speed=0.576000m/h.</desc>
<speed>0.160000</speed>
</trkpt>
<trkpt lat="21.771019" lon="104.920967">
<ele>88.008850</ele>
<time>2011-04-28T11:00:44Z</time>
<desc>lat.=21.771019, lon.=104.920967, Alt.=88.008850m. Speed=0.144000m/h.</desc>
<speed>0.040000</speed>
</trkpt>
<trkpt lat="21.771017" lon="104.920959">
<ele>88.008850</ele>
<time>2011-04-28T11:00:49Z</time>
<desc>lat.=21.771017, lon.=104.920959, Alt.=88.008850m. Speed=0.324000m/h.</desc>
<speed>0.090000</speed>
</trkpt>
<trkpt lat="21.771017" lon="104.920952">
<ele>88.012756</ele>
<time>2011-04-28T11:00:54Z</time>
<desc>lat.=21.771017, lon.=104.920952, Alt.=88.012756m. Speed=1.152000m/h.</desc>
<speed>0.320000</speed>
</trkpt>
<trkpt lat="21.770987" lon="104.920937">
<ele>87.903381</ele>
<time>2011-04-28T11:00:59Z</time>
<desc>lat.=21.770987, lon.=104.920937, Alt.=87.903381m. Speed=5.832000m/h.</desc>
<speed>1.620000</speed>
</trkpt>
<trkpt lat="21.770773" lon="104.920906">
<ele>86.989319</ele>
<time>2011-04-28T11:01:04Z</time>
<desc>lat.=21.770773, lon.=104.920906, Alt.=86.989319m. Speed=21.563999m/h.</desc>
<speed>5.990000</speed>
</trkpt>
<trkpt lat="21.770517" lon="104.920952">
<ele>86.127991</ele>
<time>2011-04-28T11:01:09Z</time>
<desc>lat.=21.770517, lon.=104.920952, Alt.=86.127991m. Speed=21.132000m/h.</desc>
<speed>5.870000</speed>
</trkpt>
<trkpt lat="21.770250" lon="104.921059">
<ele>84.717834</ele>
<time>2011-04-28T11:01:14Z</time>
<desc>lat.=21.770250, lon.=104.921059, Alt.=84.717834m. Speed=21.636000m/h.</desc>
<speed>6.010000</speed>
</trkpt>
<trkpt lat="21.770002" lon="104.921249">
<ele>84.385803</ele>
<time>2011-04-28T11:01:19Z</time>
<desc>lat.=21.770002, lon.=104.921249, Alt.=84.385803m. Speed=20.736000m/h.</desc>
<speed>5.760000</speed>
</trkpt>
<trkpt lat="21.769779" lon="104.921425">
<ele>82.969788</ele>
<time>2011-04-28T11:01:24Z</time>
<desc>lat.=21.769779, lon.=104.921425, Alt.=82.969788m. Speed=19.368000m/h.</desc>
<speed>5.380000</speed>
</trkpt>
<trkpt lat="21.769550" lon="104.921524">
<ele>81.610413</ele>
<time>2011-04-28T11:01:29Z</time>
<desc>lat.=21.769550, lon.=104.921524, Alt.=81.610413m. Speed=19.403999m/h.</desc>
<speed>5.390000</speed>
</trkpt>
<trkpt lat="21.769335" lon="104.921539">
<ele>82.004944</ele>
<time>2011-04-28T11:01:34Z</time>
<desc>lat.=21.769335, lon.=104.921539, Alt.=82.004944m. Speed=19.007999m/h.</desc>
<speed>5.280000</speed>
</trkpt>
<trkpt lat="21.769068" lon="104.921570">
<ele>82.524475</ele>
<time>2011-04-28T11:01:39Z</time>
<desc>lat.=21.769068, lon.=104.921570, Alt.=82.524475m. Speed=17.927999m/h.</desc>
<speed>4.980000</speed>
</trkpt>
<trkpt lat="21.768847" lon="104.921631">
<ele>81.651428</ele>
<time>2011-04-28T11:01:44Z</time>
<desc>lat.=21.768847, lon.=104.921631, Alt.=81.651428m. Speed=17.351999m/h.</desc>
<speed>4.820000</speed>
</trkpt>
<trkpt lat="21.768637" lon="104.921730">
<ele>82.090881</ele>
<time>2011-04-28T11:01:49Z</time>
<desc>lat.=21.768637, lon.=104.921730, Alt.=82.090881m. Speed=14.292000m/h.</desc>
<speed>3.970000</speed>
</trkpt>
<trkpt lat="21.768444" lon="104.921814">
<ele>84.934631</ele>
<time>2011-04-28T11:01:54Z</time>
<desc>lat.=21.768444, lon.=104.921814, Alt.=84.934631m. Speed=14.400000m/h.</desc>
<speed>4.000000</speed>
</trkpt>
<trkpt lat="21.768238" lon="104.921875">
<ele>88.274475</ele>
<time>2011-04-28T11:01:59Z</time>
<desc>lat.=21.768238, lon.=104.921875, Alt.=88.274475m. Speed=10.008000m/h.</desc>
<speed>2.780000</speed>
</trkpt>
<trkpt lat="21.768053" lon="104.921906">
<ele>93.182678</ele>
<time>2011-04-28T11:02:04Z</time>
<desc>lat.=21.768053, lon.=104.921906, Alt.=93.182678m. Speed=9.360000m/h.</desc>
<speed>2.600000</speed>
</trkpt>
<trkpt lat="21.767893" lon="104.921982">
<ele>97.145569</ele>
<time>2011-04-28T11:02:09Z</time>
<desc>lat.=21.767893, lon.=104.921982, Alt.=97.145569m. Speed=11.016000m/h.</desc>
<speed>3.060000</speed>
</trkpt>
<trkpt lat="21.767775" lon="104.922165">
<ele>103.711975</ele>
<time>2011-04-28T11:02:14Z</time>
<desc>lat.=21.767775, lon.=104.922165, Alt.=103.711975m. Speed=11.376000m/h.</desc>
<speed>3.160000</speed>
</trkpt>
<trkpt lat="21.767633" lon="104.922333">
<ele>104.749084</ele>
<time>2011-04-28T11:02:19Z</time>
<desc>lat.=21.767633, lon.=104.922333, Alt.=104.749084m. Speed=12.312000m/h.</desc>
<speed>3.420000</speed>
</trkpt>
<trkpt lat="21.767513" lon="104.922379">
<ele>106.295959</ele>
<time>2011-04-28T11:02:24Z</time>
<desc>lat.=21.767513, lon.=104.922379, Alt.=106.295959m. Speed=11.412000m/h.</desc>
<speed>3.170000</speed>
</trkpt>
<trkpt lat="21.767397" lon="104.922432">
<ele>104.012756</ele>
<time>2011-04-28T11:02:29Z</time>
<desc>lat.=21.767397, lon.=104.922432, Alt.=104.012756m. Speed=10.764000m/h.</desc>
<speed>2.990000</speed>
</trkpt>
<trkpt lat="21.767262" lon="104.922470">
<ele>102.372131</ele>
<time>2011-04-28T11:02:34Z</time>
<desc>lat.=21.767262, lon.=104.922470, Alt.=102.372131m. Speed=9.648000m/h.</desc>
<speed>2.680000</speed>
</trkpt>
<trkpt lat="21.767136" lon="104.922531">
<ele>104.038147</ele>
<time>2011-04-28T11:02:39Z</time>
<desc>lat.=21.767136, lon.=104.922531, Alt.=104.038147m. Speed=8.460000m/h.</desc>
<speed>2.350000</speed>
</trkpt>
<trkpt lat="21.767038" lon="104.922569">
<ele>106.223694</ele>
<time>2011-04-28T11:02:44Z</time>
<desc>lat.=21.767038, lon.=104.922569, Alt.=106.223694m. Speed=8.928000m/h.</desc>
<speed>2.480000</speed>
</trkpt>
<trkpt lat="21.766895" lon="104.922646">
<ele>108.014709</ele>
<time>2011-04-28T11:02:49Z</time>
<desc>lat.=21.766895, lon.=104.922646, Alt.=108.014709m. Speed=14.148000m/h.</desc>
<speed>3.930000</speed>
</trkpt>
<trkpt lat="21.766708" lon="104.922707">
<ele>108.700256</ele>
<time>2011-04-28T11:02:54Z</time>
<desc>lat.=21.766708, lon.=104.922707, Alt.=108.700256m. Speed=11.844000m/h.</desc>
<speed>3.290000</speed>
</trkpt>
<trkpt lat="21.766554" lon="104.922798">
<ele>108.600647</ele>
<time>2011-04-28T11:02:59Z</time>
<desc>lat.=21.766554, lon.=104.922798, Alt.=108.600647m. Speed=13.140000m/h.</desc>
<speed>3.650000</speed>
</trkpt>
<trkpt lat="21.766314" lon="104.922890">
<ele>108.663147</ele>
<time>2011-04-28T11:03:04Z</time>
<desc>lat.=21.766314, lon.=104.922890, Alt.=108.663147m. Speed=18.396000m/h.</desc>
<speed>5.110000</speed>
</trkpt>
<trkpt lat="21.766014" lon="104.923035">
<ele>106.295959</ele>
<time>2011-04-28T11:03:09Z</time>
<desc>lat.=21.766014, lon.=104.923035, Alt.=106.295959m. Speed=19.764000m/h.</desc>
<speed>5.490000</speed>
</trkpt>
<trkpt lat="21.765718" lon="104.923195">
<ele>103.215881</ele>
<time>2011-04-28T11:03:14Z</time>
<desc>lat.=21.765718, lon.=104.923195, Alt.=103.215881m. Speed=22.535999m/h.</desc>
<speed>6.260000</speed>
</trkpt>
<trkpt lat="21.765400" lon="104.923317">
<ele>99.049866</ele>
<time>2011-04-28T11:03:19Z</time>
<desc>lat.=21.765400, lon.=104.923317, Alt.=99.049866m. Speed=19.440001m/h.</desc>
<speed>5.400000</speed>
</trkpt>
<trkpt lat="21.765162" lon="104.923317">
<ele>97.879944</ele>
<time>2011-04-28T11:03:24Z</time>
<desc>lat.=21.765162, lon.=104.923317, Alt.=97.879944m. Speed=18.108000m/h.</desc>
<speed>5.030000</speed>
</trkpt>
<trkpt lat="21.764957" lon="104.923271">
<ele>94.544006</ele>
<time>2011-04-28T11:03:29Z</time>
<desc>lat.=21.764957, lon.=104.923271, Alt.=94.544006m. Speed=15.012000m/h.</desc>
<speed>4.170000</speed>
</trkpt>
<trkpt lat="21.764763" lon="104.923233">
<ele>94.792053</ele>
<time>2011-04-28T11:03:34Z</time>
<desc>lat.=21.764763, lon.=104.923233, Alt.=94.792053m. Speed=14.616000m/h.</desc>
<speed>4.060000</speed>
</trkpt>
<trkpt lat="21.764597" lon="104.923164">
<ele>93.167053</ele>
<time>2011-04-28T11:03:39Z</time>
<desc>lat.=21.764597, lon.=104.923164, Alt.=93.167053m. Speed=13.212000m/h.</desc>
<speed>3.670000</speed>
</trkpt>
<trkpt lat="21.764437" lon="104.923134">
<ele>93.256897</ele>
<time>2011-04-28T11:03:44Z</time>
<desc>lat.=21.764437, lon.=104.923134, Alt.=93.256897m. Speed=12.780000m/h.</desc>
<speed>3.550000</speed>
</trkpt>
<trkpt lat="21.764278" lon="104.923134">
<ele>93.323303</ele>
<time>2011-04-28T11:03:49Z</time>
<desc>lat.=21.764278, lon.=104.923134, Alt.=93.323303m. Speed=12.816000m/h.</desc>
<speed>3.560000</speed>
</trkpt>
<trkpt lat="21.764097" lon="104.923157">
<ele>93.377991</ele>
<time>2011-04-28T11:03:54Z</time>
<desc>lat.=21.764097, lon.=104.923157, Alt.=93.377991m. Speed=15.408000m/h.</desc>
<speed>4.280000</speed>
</trkpt>
<trkpt lat="21.763870" lon="104.923264">
<ele>93.167053</ele>
<time>2011-04-28T11:03:59Z</time>
<desc>lat.=21.763870, lon.=104.923264, Alt.=93.167053m. Speed=14.760000m/h.</desc>
<speed>4.100000</speed>
</trkpt>
<trkpt lat="21.763733" lon="104.923431">
<ele>97.688538</ele>
<time>2011-04-28T11:04:04Z</time>
<desc>lat.=21.763733, lon.=104.923431, Alt.=97.688538m. Speed=14.220000m/h.</desc>
<speed>3.950000</speed>
</trkpt>
<trkpt lat="21.763622" lon="104.923653">
<ele>100.422913</ele>
<time>2011-04-28T11:04:09Z</time>
<desc>lat.=21.763622, lon.=104.923653, Alt.=100.422913m. Speed=15.732000m/h.</desc>
<speed>4.370000</speed>
</trkpt>
<trkpt lat="21.763485" lon="104.923851">
<ele>101.899475</ele>
<time>2011-04-28T11:04:14Z</time>
<desc>lat.=21.763485, lon.=104.923851, Alt.=101.899475m. Speed=11.232000m/h.</desc>
<speed>3.120000</speed>
</trkpt>
<trkpt lat="21.763367" lon="104.923996">
<ele>104.942444</ele>
<time>2011-04-28T11:04:19Z</time>
<desc>lat.=21.763367, lon.=104.923996, Alt.=104.942444m. Speed=9.648000m/h.</desc>
<speed>2.680000</speed>
</trkpt>
<trkpt lat="21.763273" lon="104.924164">
<ele>107.192444</ele>
<time>2011-04-28T11:04:24Z</time>
<desc>lat.=21.763273, lon.=104.924164, Alt.=107.192444m. Speed=12.492000m/h.</desc>
<speed>3.470000</speed>
</trkpt>
<trkpt lat="21.763227" lon="104.924408">
<ele>109.026428</ele>
<time>2011-04-28T11:04:29Z</time>
<desc>lat.=21.763227, lon.=104.924408, Alt.=109.026428m. Speed=14.256000m/h.</desc>
<speed>3.960000</speed>
</trkpt>
<trkpt lat="21.763208" lon="104.924667">
<ele>109.098694</ele>
<time>2011-04-28T11:04:34Z</time>
<desc>lat.=21.763208, lon.=104.924667, Alt.=109.098694m. Speed=16.704000m/h.</desc>
<speed>4.640000</speed>
</trkpt>
<trkpt lat="21.763212" lon="104.924950">
<ele>105.579163</ele>
<time>2011-04-28T11:04:39Z</time>
<desc>lat.=21.763212, lon.=104.924950, Alt.=105.579163m. Speed=19.224001m/h.</desc>
<speed>5.340000</speed>
</trkpt>
<trkpt lat="21.763203" lon="104.925240">
<ele>102.754944</ele>
<time>2011-04-28T11:04:44Z</time>
<desc>lat.=21.763203, lon.=104.925240, Alt.=102.754944m. Speed=17.243999m/h.</desc>
<speed>4.790000</speed>
</trkpt>
<trkpt lat="21.763103" lon="104.925568">
<ele>94.721741</ele>
<time>2011-04-28T11:04:49Z</time>
<desc>lat.=21.763103, lon.=104.925568, Alt.=94.721741m. Speed=21.563999m/h.</desc>
<speed>5.990000</speed>
</trkpt>
<trkpt lat="21.762968" lon="104.925888">
<ele>91.770569</ele>
<time>2011-04-28T11:04:54Z</time>
<desc>lat.=21.762968, lon.=104.925888, Alt.=91.770569m. Speed=18.180000m/h.</desc>
<speed>5.050000</speed>
</trkpt>
<trkpt lat="21.762848" lon="104.926224">
<ele>90.143616</ele>
<time>2011-04-28T11:04:59Z</time>
<desc>lat.=21.762848, lon.=104.926224, Alt.=90.143616m. Speed=23.040001m/h.</desc>
<speed>6.400000</speed>
</trkpt>
<trkpt lat="21.762724" lon="104.926620">
<ele>84.469788</ele>
<time>2011-04-28T11:05:04Z</time>
<desc>lat.=21.762724, lon.=104.926620, Alt.=84.469788m. Speed=24.336000m/h.</desc>
<speed>6.760000</speed>
</trkpt>
<trkpt lat="21.762619" lon="104.927010">
<ele>79.149475</ele>
<time>2011-04-28T11:05:09Z</time>
<desc>lat.=21.762619, lon.=104.927010, Alt.=79.149475m. Speed=31.968000m/h.</desc>
<speed>8.880000</speed>
</trkpt>
<trkpt lat="21.762524" lon="104.927544">
<ele>72.145569</ele>
<time>2011-04-28T11:05:14Z</time>
<desc>lat.=21.762524, lon.=104.927544, Alt.=72.145569m. Speed=40.248001m/h.</desc>
<speed>11.180000</speed>
</trkpt>
<trkpt lat="21.762381" lon="104.928101">
<ele>66.557678</ele>
<time>2011-04-28T11:05:19Z</time>
<desc>lat.=21.762381, lon.=104.928101, Alt.=66.557678m. Speed=41.040001m/h.</desc>
<speed>11.400000</speed>
</trkpt>
<trkpt lat="21.762167" lon="104.928558">
<ele>62.369659</ele>
<time>2011-04-28T11:05:24Z</time>
<desc>lat.=21.762167, lon.=104.928558, Alt.=62.369659m. Speed=36.792000m/h.</desc>
<speed>10.220000</speed>
</trkpt>
<trkpt lat="21.761890" lon="104.928902">
<ele>61.444855</ele>
<time>2011-04-28T11:05:29Z</time>
<desc>lat.=21.761890, lon.=104.928902, Alt.=61.444855m. Speed=31.139999m/h.</desc>
<speed>8.650000</speed>
</trkpt>
<trkpt lat="21.761623" lon="104.929199">
<ele>59.811066</ele>
<time>2011-04-28T11:05:34Z</time>
<desc>lat.=21.761623, lon.=104.929199, Alt.=59.811066m. Speed=29.195999m/h.</desc>
<speed>8.110000</speed>
</trkpt>
<trkpt lat="21.761448" lon="104.929459">
<ele>57.190948</ele>
<time>2011-04-28T11:05:39Z</time>
<desc>lat.=21.761448, lon.=104.929459, Alt.=57.190948m. Speed=17.136000m/h.</desc>
<speed>4.760000</speed>
</trkpt>
<trkpt lat="21.761372" lon="104.929787">
<ele>56.260284</ele>
<time>2011-04-28T11:05:44Z</time>
<desc>lat.=21.761372, lon.=104.929787, Alt.=56.260284m. Speed=22.680000m/h.</desc>
<speed>6.300000</speed>
</trkpt>
<trkpt lat="21.761381" lon="104.930145">
<ele>56.612823</ele>
<time>2011-04-28T11:05:49Z</time>
<desc>lat.=21.761381, lon.=104.930145, Alt.=56.612823m. Speed=22.968000m/h.</desc>
<speed>6.380000</speed>
</trkpt>
<trkpt lat="21.761450" lon="104.930504">
<ele>62.507355</ele>
<time>2011-04-28T11:05:54Z</time>
<desc>lat.=21.761450, lon.=104.930504, Alt.=62.507355m. Speed=19.980000m/h.</desc>
<speed>5.550000</speed>
</trkpt>
<trkpt lat="21.761496" lon="104.930779">
<ele>68.090881</ele>
<time>2011-04-28T11:05:59Z</time>
<desc>lat.=21.761496, lon.=104.930779, Alt.=68.090881m. Speed=18.072001m/h.</desc>
<speed>5.020000</speed>
</trkpt>
<trkpt lat="21.761520" lon="104.931061">
<ele>70.911194</ele>
<time>2011-04-28T11:06:04Z</time>
<desc>lat.=21.761520, lon.=104.931061, Alt.=70.911194m. Speed=19.332001m/h.</desc>
<speed>5.370000</speed>
</trkpt>
<trkpt lat="21.761494" lon="104.931351">
<ele>69.643616</ele>
<time>2011-04-28T11:06:09Z</time>
<desc>lat.=21.761494, lon.=104.931351, Alt.=69.643616m. Speed=18.864000m/h.</desc>
<speed>5.240000</speed>
</trkpt>
<trkpt lat="21.761433" lon="104.931587">
<ele>66.319397</ele>
<time>2011-04-28T11:06:14Z</time>
<desc>lat.=21.761433, lon.=104.931587, Alt.=66.319397m. Speed=17.927999m/h.</desc>
<speed>4.980000</speed>
</trkpt>
<trkpt lat="21.761456" lon="104.931801">
<ele>67.479553</ele>
<time>2011-04-28T11:06:19Z</time>
<desc>lat.=21.761456, lon.=104.931801, Alt.=67.479553m. Speed=8.028000m/h.</desc>
<speed>2.230000</speed>
</trkpt>
<trkpt lat="21.761402" lon="104.931892">
<ele>70.803772</ele>
<time>2011-04-28T11:06:24Z</time>
<desc>lat.=21.761402, lon.=104.931892, Alt.=70.803772m. Speed=8.064000m/h.</desc>
<speed>2.240000</speed>
</trkpt>
<trkpt lat="21.761333" lon="104.932137">
<ele>81.848694</ele>
<time>2011-04-28T11:06:29Z</time>
<desc>lat.=21.761333, lon.=104.932137, Alt.=81.848694m. Speed=16.271999m/h.</desc>
<speed>4.520000</speed>
</trkpt>
<trkpt lat="21.761232" lon="104.932335">
<ele>87.915100</ele>
<time>2011-04-28T11:06:34Z</time>
<desc>lat.=21.761232, lon.=104.932335, Alt.=87.915100m. Speed=8.028000m/h.</desc>
<speed>2.230000</speed>
</trkpt>
<trkpt lat="21.761108" lon="104.932503">
<ele>92.622131</ele>
<time>2011-04-28T11:06:39Z</time>
<desc>lat.=21.761108, lon.=104.932503, Alt.=92.622131m. Speed=16.164000m/h.</desc>
<speed>4.490000</speed>
</trkpt>
<trkpt lat="21.760946" lon="104.932732">
<ele>96.631897</ele>
<time>2011-04-28T11:06:44Z</time>
<desc>lat.=21.760946, lon.=104.932732, Alt.=96.631897m. Speed=15.696000m/h.</desc>
<speed>4.360000</speed>
</trkpt>
<trkpt lat="21.760845" lon="104.932823">
<ele>101.965881</ele>
<time>2011-04-28T11:06:49Z</time>
<desc>lat.=21.760845, lon.=104.932823, Alt.=101.965881m. Speed=4.032000m/h.</desc>
<speed>1.120000</speed>
</trkpt>
<trkpt lat="21.760803" lon="104.932899">
<ele>104.934631</ele>
<time>2011-04-28T11:06:54Z</time>
<desc>lat.=21.760803, lon.=104.932899, Alt.=104.934631m. Speed=1.908000m/h.</desc>
<speed>0.530000</speed>
</trkpt>
<trkpt lat="21.760773" lon="104.932945">
<ele>106.190491</ele>
<time>2011-04-28T11:06:59Z</time>
<desc>lat.=21.760773, lon.=104.932945, Alt.=106.190491m. Speed=6.912000m/h.</desc>
<speed>1.920000</speed>
</trkpt>
<trkpt lat="21.760693" lon="104.933075">
<ele>107.555725</ele>
<time>2011-04-28T11:07:04Z</time>
<desc>lat.=21.760693, lon.=104.933075, Alt.=107.555725m. Speed=9.756000m/h.</desc>
<speed>2.710000</speed>
</trkpt>
<trkpt lat="21.760586" lon="104.933228">
<ele>109.491272</ele>
<time>2011-04-28T11:07:09Z</time>
<desc>lat.=21.760586, lon.=104.933228, Alt.=109.491272m. Speed=11.772000m/h.</desc>
<speed>3.270000</speed>
</trkpt>
<trkpt lat="21.760452" lon="104.933372">
<ele>112.411194</ele>
<time>2011-04-28T11:07:14Z</time>
<desc>lat.=21.760452, lon.=104.933372, Alt.=112.411194m. Speed=14.472000m/h.</desc>
<speed>4.020000</speed>
</trkpt>
<trkpt lat="21.760347" lon="104.933556">
<ele>112.210022</ele>
<time>2011-04-28T11:07:19Z</time>
<desc>lat.=21.760347, lon.=104.933556, Alt.=112.210022m. Speed=11.376000m/h.</desc>
<speed>3.160000</speed>
</trkpt>
<trkpt lat="21.760256" lon="104.933708">
<ele>111.489319</ele>
<time>2011-04-28T11:07:24Z</time>
<desc>lat.=21.760256, lon.=104.933708, Alt.=111.489319m. Speed=8.820000m/h.</desc>
<speed>2.450000</speed>
</trkpt>
<trkpt lat="21.760160" lon="104.933792">
<ele>107.667053</ele>
<time>2011-04-28T11:07:29Z</time>
<desc>lat.=21.760160, lon.=104.933792, Alt.=107.667053m. Speed=15.012000m/h.</desc>
<speed>4.170000</speed>
</trkpt>
<trkpt lat="21.759983" lon="104.933830">
<ele>103.502991</ele>
<time>2011-04-28T11:07:34Z</time>
<desc>lat.=21.759983, lon.=104.933830, Alt.=103.502991m. Speed=17.496000m/h.</desc>
<speed>4.860000</speed>
</trkpt>
<trkpt lat="21.759773" lon="104.933891">
<ele>101.225647</ele>
<time>2011-04-28T11:07:39Z</time>
<desc>lat.=21.759773, lon.=104.933891, Alt.=101.225647m. Speed=14.976000m/h.</desc>
<speed>4.160000</speed>
</trkpt>
<trkpt lat="21.759674" lon="104.933922">
<ele>92.557678</ele>
<time>2011-04-28T11:07:44Z</time>
<desc>lat.=21.759674, lon.=104.933922, Alt.=92.557678m. Speed=5.076000m/h.</desc>
<speed>1.410000</speed>
</trkpt>
<trkpt lat="21.759666" lon="104.933937">
<ele>92.092834</ele>
<time>2011-04-28T11:07:49Z</time>
<desc>lat.=21.759666, lon.=104.933937, Alt.=92.092834m. Speed=0.144000m/h.</desc>
<speed>0.040000</speed>
</trkpt>
<trkpt lat="21.759666" lon="104.933929">
<ele>92.032288</ele>
<time>2011-04-28T11:07:54Z</time>
<desc>lat.=21.759666, lon.=104.933929, Alt.=92.032288m. Speed=0.072000m/h.</desc>
<speed>0.020000</speed>
</trkpt>
<trkpt lat="21.759657" lon="104.933945">
<ele>91.381897</ele>
<time>2011-04-28T11:07:59Z</time>
<desc>lat.=21.759657, lon.=104.933945, Alt.=91.381897m. Speed=4.320000m/h.</desc>
<speed>1.200000</speed>
</trkpt>
<trkpt lat="21.759592" lon="104.934013">
<ele>87.305725</ele>
<time>2011-04-28T11:08:04Z</time>
<desc>lat.=21.759592, lon.=104.934013, Alt.=87.305725m. Speed=10.404000m/h.</desc>
<speed>2.890000</speed>
</trkpt>
<trkpt lat="21.759504" lon="104.934082">
<ele>83.766663</ele>
<time>2011-04-28T11:08:09Z</time>
<desc>lat.=21.759504, lon.=104.934082, Alt.=83.766663m. Speed=2.124000m/h.</desc>
<speed>0.590000</speed>
</trkpt>
<trkpt lat="21.759430" lon="104.934120">
<ele>81.083069</ele>
<time>2011-04-28T11:08:14Z</time>
<desc>lat.=21.759430, lon.=104.934120, Alt.=81.083069m. Speed=3.744000m/h.</desc>
<speed>1.040000</speed>
</trkpt>
<trkpt lat="21.759415" lon="104.934151">
<ele>79.678772</ele>
<time>2011-04-28T11:08:19Z</time>
<desc>lat.=21.759415, lon.=104.934151, Alt.=79.678772m. Speed=4.032000m/h.</desc>
<speed>1.120000</speed>
</trkpt>
<trkpt lat="21.759293" lon="104.934242">
<ele>79.506897</ele>
<time>2011-04-28T11:08:24Z</time>
<desc>lat.=21.759293, lon.=104.934242, Alt.=79.506897m. Speed=10.152000m/h.</desc>
<speed>2.820000</speed>
</trkpt>
<trkpt lat="21.759144" lon="104.934303">
<ele>81.016663</ele>
<time>2011-04-28T11:08:29Z</time>
<desc>lat.=21.759144, lon.=104.934303, Alt.=81.016663m. Speed=13.932000m/h.</desc>
<speed>3.870000</speed>
</trkpt>
<trkpt lat="21.758913" lon="104.934448">
<ele>81.950256</ele>
<time>2011-04-28T11:08:34Z</time>
<desc>lat.=21.758913, lon.=104.934448, Alt.=81.950256m. Speed=19.691999m/h.</desc>
<speed>5.470000</speed>
</trkpt>
<trkpt lat="21.758724" lon="104.934608">
<ele>83.592834</ele>
<time>2011-04-28T11:08:39Z</time>
<desc>lat.=21.758724, lon.=104.934608, Alt.=83.592834m. Speed=15.984000m/h.</desc>
<speed>4.440000</speed>
</trkpt>
<trkpt lat="21.758524" lon="104.934792">
<ele>85.307678</ele>
<time>2011-04-28T11:08:44Z</time>
<desc>lat.=21.758524, lon.=104.934792, Alt.=85.307678m. Speed=17.784000m/h.</desc>
<speed>4.940000</speed>
</trkpt>
<trkpt lat="21.758347" lon="104.935005">
<ele>86.833069</ele>
<time>2011-04-28T11:08:49Z</time>
<desc>lat.=21.758347, lon.=104.935005, Alt.=86.833069m. Speed=18.072001m/h.</desc>
<speed>5.020000</speed>
</trkpt>
<trkpt lat="21.758181" lon="104.935196">
<ele>88.188538</ele>
<time>2011-04-28T11:08:54Z</time>
<desc>lat.=21.758181, lon.=104.935196, Alt.=88.188538m. Speed=18.035999m/h.</desc>
<speed>5.010000</speed>
</trkpt>
<trkpt lat="21.757954" lon="104.935364">
<ele>88.741272</ele>
<time>2011-04-28T11:08:59Z</time>
<desc>lat.=21.757954, lon.=104.935364, Alt.=88.741272m. Speed=22.176001m/h.</desc>
<speed>6.160000</speed>
</trkpt>
<trkpt lat="21.757696" lon="104.935516">
<ele>89.331116</ele>
<time>2011-04-28T11:09:04Z</time>
<desc>lat.=21.757696, lon.=104.935516, Alt.=89.331116m. Speed=22.068001m/h.</desc>
<speed>6.130000</speed>
</trkpt>
<trkpt lat="21.757494" lon="104.935677">
<ele>90.108459</ele>
<time>2011-04-28T11:09:09Z</time>
<desc>lat.=21.757494, lon.=104.935677, Alt.=90.108459m. Speed=18.143999m/h.</desc>
<speed>5.040000</speed>
</trkpt>
<trkpt lat="21.757364" lon="104.935921">
<ele>90.838928</ele>
<time>2011-04-28T11:09:14Z</time>
<desc>lat.=21.757364, lon.=104.935921, Alt.=90.838928m. Speed=22.716000m/h.</desc>
<speed>6.310000</speed>
</trkpt>
<trkpt lat="21.757175" lon="104.936226">
<ele>92.426819</ele>
<time>2011-04-28T11:09:19Z</time>
<desc>lat.=21.757175, lon.=104.936226, Alt.=92.426819m. Speed=27.504000m/h.</desc>
<speed>7.640000</speed>
</trkpt>
<trkpt lat="21.756941" lon="104.936447">
<ele>94.674866</ele>
<time>2011-04-28T11:09:24Z</time>
<desc>lat.=21.756941, lon.=104.936447, Alt.=94.674866m. Speed=24.408001m/h.</desc>
<speed>6.780000</speed>
</trkpt>
<trkpt lat="21.756701" lon="104.936668">
<ele>96.823303</ele>
<time>2011-04-28T11:09:29Z</time>
<desc>lat.=21.756701, lon.=104.936668, Alt.=96.823303m. Speed=24.120001m/h.</desc>
<speed>6.700000</speed>
</trkpt>
<trkpt lat="21.756531" lon="104.936882">
<ele>98.090881</ele>
<time>2011-04-28T11:09:34Z</time>
<desc>lat.=21.756531, lon.=104.936882, Alt.=98.090881m. Speed=13.284000m/h.</desc>
<speed>3.690000</speed>
</trkpt>
<trkpt lat="21.756386" lon="104.937134">
<ele>99.717834</ele>
<time>2011-04-28T11:09:39Z</time>
<desc>lat.=21.756386, lon.=104.937134, Alt.=99.717834m. Speed=21.888000m/h.</desc>
<speed>6.080000</speed>
</trkpt>
<trkpt lat="21.756189" lon="104.937416">
<ele>101.022522</ele>
<time>2011-04-28T11:09:44Z</time>
<desc>lat.=21.756189, lon.=104.937416, Alt.=101.022522m. Speed=20.988001m/h.</desc>
<speed>5.830000</speed>
</trkpt>
<trkpt lat="21.756018" lon="104.937645">
<ele>102.920959</ele>
<time>2011-04-28T11:09:49Z</time>
<desc>lat.=21.756018, lon.=104.937645, Alt.=102.920959m. Speed=20.375999m/h.</desc>
<speed>5.660000</speed>
</trkpt>
<trkpt lat="21.755825" lon="104.937912">
<ele>103.909241</ele>
<time>2011-04-28T11:09:54Z</time>
<desc>lat.=21.755825, lon.=104.937912, Alt.=103.909241m. Speed=21.959999m/h.</desc>
<speed>6.100000</speed>
</trkpt>
<trkpt lat="21.755606" lon="104.938118">
<ele>105.387756</ele>
<time>2011-04-28T11:09:59Z</time>
<desc>lat.=21.755606, lon.=104.938118, Alt.=105.387756m. Speed=18.719999m/h.</desc>
<speed>5.200000</speed>
</trkpt>
<trkpt lat="21.755339" lon="104.938240">
<ele>106.479553</ele>
<time>2011-04-28T11:10:04Z</time>
<desc>lat.=21.755339, lon.=104.938240, Alt.=106.479553m. Speed=18.648001m/h.</desc>
<speed>5.180000</speed>
</trkpt>
<trkpt lat="21.755100" lon="104.938385">
<ele>107.549866</ele>
<time>2011-04-28T11:10:09Z</time>
<desc>lat.=21.755100, lon.=104.938385, Alt.=107.549866m. Speed=20.520000m/h.</desc>
<speed>5.700000</speed>
</trkpt>
<trkpt lat="21.754875" lon="104.938644">
<ele>108.643616</ele>
<time>2011-04-28T11:10:14Z</time>
<desc>lat.=21.754875, lon.=104.938644, Alt.=108.643616m. Speed=23.364000m/h.</desc>
<speed>6.490000</speed>
</trkpt>
<trkpt lat="21.754734" lon="104.938873">
<ele>109.502991</ele>
<time>2011-04-28T11:10:19Z</time>
<desc>lat.=21.754734, lon.=104.938873, Alt.=109.502991m. Speed=17.028000m/h.</desc>
<speed>4.730000</speed>
</trkpt>
<trkpt lat="21.754574" lon="104.939087">
<ele>109.731506</ele>
<time>2011-04-28T11:10:24Z</time>
<desc>lat.=21.754574, lon.=104.939087, Alt.=109.731506m. Speed=20.087999m/h.</desc>
<speed>5.580000</speed>
</trkpt>
<trkpt lat="21.754330" lon="104.939293">
<ele>108.063538</ele>
<time>2011-04-28T11:10:29Z</time>
<desc>lat.=21.754330, lon.=104.939293, Alt.=108.063538m. Speed=21.059999m/h.</desc>
<speed>5.850000</speed>
</trkpt>
<trkpt lat="21.753939" lon="104.939438">
<ele>105.294006</ele>
<time>2011-04-28T11:10:34Z</time>
<desc>lat.=21.753939, lon.=104.939438, Alt.=105.294006m. Speed=22.572001m/h.</desc>
<speed>6.270000</speed>
</trkpt>
<trkpt lat="21.753618" lon="104.939461">
<ele>98.858459</ele>
<time>2011-04-28T11:10:39Z</time>
<desc>lat.=21.753618, lon.=104.939461, Alt.=98.858459m. Speed=23.544001m/h.</desc>
<speed>6.540000</speed>
</trkpt>
<trkpt lat="21.753330" lon="104.939476">
<ele>97.463928</ele>
<time>2011-04-28T11:10:44Z</time>
<desc>lat.=21.753330, lon.=104.939476, Alt.=97.463928m. Speed=22.643999m/h.</desc>
<speed>6.290000</speed>
</trkpt>
<trkpt lat="21.753077" lon="104.939499">
<ele>96.850647</ele>
<time>2011-04-28T11:10:49Z</time>
<desc>lat.=21.753077, lon.=104.939499, Alt.=96.850647m. Speed=20.771999m/h.</desc>
<speed>5.770000</speed>
</trkpt>
<trkpt lat="21.752869" lon="104.939545">
<ele>95.063538</ele>
<time>2011-04-28T11:10:54Z</time>
<desc>lat.=21.752869, lon.=104.939545, Alt.=95.063538m. Speed=12.492000m/h.</desc>
<speed>3.470000</speed>
</trkpt>
<trkpt lat="21.752617" lon="104.939560">
<ele>93.417053</ele>
<time>2011-04-28T11:10:59Z</time>
<desc>lat.=21.752617, lon.=104.939560, Alt.=93.417053m. Speed=17.459999m/h.</desc>
<speed>4.850000</speed>
</trkpt>
<trkpt lat="21.752407" lon="104.939629">
<ele>92.131897</ele>
<time>2011-04-28T11:11:04Z</time>
<desc>lat.=21.752407, lon.=104.939629, Alt.=92.131897m. Speed=13.680000m/h.</desc>
<speed>3.800000</speed>
</trkpt>
<trkpt lat="21.752218" lon="104.939713">
<ele>92.135803</ele>
<time>2011-04-28T11:11:09Z</time>
<desc>lat.=21.752218, lon.=104.939713, Alt.=92.135803m. Speed=14.976000m/h.</desc>
<speed>4.160000</speed>
</trkpt>
<trkpt lat="21.751974" lon="104.939751">
<ele>89.325256</ele>
<time>2011-04-28T11:11:14Z</time>
<desc>lat.=21.751974, lon.=104.939751, Alt.=89.325256m. Speed=17.927999m/h.</desc>
<speed>4.980000</speed>
</trkpt>
<trkpt lat="21.751667" lon="104.939728">
<ele>81.661194</ele>
<time>2011-04-28T11:11:19Z</time>
<desc>lat.=21.751667, lon.=104.939728, Alt.=81.661194m. Speed=22.284000m/h.</desc>
<speed>6.190000</speed>
</trkpt>
<trkpt lat="21.751354" lon="104.939705">
<ele>77.098694</ele>
<time>2011-04-28T11:11:24Z</time>
<desc>lat.=21.751354, lon.=104.939705, Alt.=77.098694m. Speed=24.732000m/h.</desc>
<speed>6.870000</speed>
</trkpt>
<trkpt lat="21.751030" lon="104.939819">
<ele>73.659241</ele>
<time>2011-04-28T11:11:29Z</time>
<desc>lat.=21.751030, lon.=104.939819, Alt.=73.659241m. Speed=27.468000m/h.</desc>
<speed>7.630000</speed>
</trkpt>
<trkpt lat="21.750704" lon="104.939896">
<ele>72.069397</ele>
<time>2011-04-28T11:11:34Z</time>
<desc>lat.=21.750704, lon.=104.939896, Alt.=72.069397m. Speed=24.048000m/h.</desc>
<speed>6.680000</speed>
</trkpt>
<trkpt lat="21.750402" lon="104.939903">
<ele>69.893616</ele>
<time>2011-04-28T11:11:39Z</time>
<desc>lat.=21.750402, lon.=104.939903, Alt.=69.893616m. Speed=22.716000m/h.</desc>
<speed>6.310000</speed>
</trkpt>
<trkpt lat="21.750128" lon="104.939819">
<ele>68.569397</ele>
<time>2011-04-28T11:11:44Z</time>
<desc>lat.=21.750128, lon.=104.939819, Alt.=68.569397m. Speed=21.780001m/h.</desc>
<speed>6.050000</speed>
</trkpt>
<trkpt lat="21.749897" lon="104.939766">
<ele>66.483459</ele>
<time>2011-04-28T11:11:49Z</time>
<desc>lat.=21.749897, lon.=104.939766, Alt.=66.483459m. Speed=16.992001m/h.</desc>
<speed>4.720000</speed>
</trkpt>
<trkpt lat="21.749706" lon="104.939690">
<ele>65.559631</ele>
<time>2011-04-28T11:11:54Z</time>
<desc>lat.=21.749706, lon.=104.939690, Alt.=65.559631m. Speed=15.840000m/h.</desc>
<speed>4.400000</speed>
</trkpt>
<trkpt lat="21.749460" lon="104.939522">
<ele>64.331116</ele>
<time>2011-04-28T11:11:59Z</time>
<desc>lat.=21.749460, lon.=104.939522, Alt.=64.331116m. Speed=20.124001m/h.</desc>
<speed>5.590000</speed>
</trkpt>
<trkpt lat="21.749241" lon="104.939316">
<ele>63.192902</ele>
<time>2011-04-28T11:12:04Z</time>
<desc>lat.=21.749241, lon.=104.939316, Alt.=63.192902m. Speed=20.736000m/h.</desc>
<speed>5.760000</speed>
</trkpt>
<trkpt lat="21.749084" lon="104.939178">
<ele>62.514191</ele>
<time>2011-04-28T11:12:09Z</time>
<desc>lat.=21.749084, lon.=104.939178, Alt.=62.514191m. Speed=9.324000m/h.</desc>
<speed>2.590000</speed>
</trkpt>
<trkpt lat="21.748943" lon="104.939056">
<ele>63.081573</ele>
<time>2011-04-28T11:12:14Z</time>
<desc>lat.=21.748943, lon.=104.939056, Alt.=63.081573m. Speed=12.168000m/h.</desc>
<speed>3.380000</speed>
</trkpt>
<trkpt lat="21.748873" lon="104.938889">
<ele>63.855011</ele>
<time>2011-04-28T11:12:19Z</time>
<desc>lat.=21.748873, lon.=104.938889, Alt.=63.855011m. Speed=10.908000m/h.</desc>
<speed>3.030000</speed>
</trkpt>
<trkpt lat="21.748850" lon="104.938698">
<ele>63.135284</ele>
<time>2011-04-28T11:12:24Z</time>
<desc>lat.=21.748850, lon.=104.938698, Alt.=63.135284m. Speed=9.108000m/h.</desc>
<speed>2.530000</speed>
</trkpt>
<trkpt lat="21.748795" lon="104.938568">
<ele>63.322784</ele>
<time>2011-04-28T11:12:29Z</time>
<desc>lat.=21.748795, lon.=104.938568, Alt.=63.322784m. Speed=8.748000m/h.</desc>
<speed>2.430000</speed>
</trkpt>
<trkpt lat="21.748735" lon="104.938507">
<ele>63.379425</ele>
<time>2011-04-28T11:12:34Z</time>
<desc>lat.=21.748735, lon.=104.938507, Alt.=63.379425m. Speed=0.468000m/h.</desc>
<speed>0.130000</speed>
</trkpt>
<trkpt lat="21.748724" lon="104.938499">
<ele>63.898956</ele>
<time>2011-04-28T11:12:39Z</time>
<desc>lat.=21.748724, lon.=104.938499, Alt.=63.898956m. Speed=0.072000m/h.</desc>
<speed>0.020000</speed>
</trkpt>
<trkpt lat="21.748720" lon="104.938492">
<ele>64.092834</ele>
<time>2011-04-28T11:12:44Z</time>
<desc>lat.=21.748720, lon.=104.938492, Alt.=64.092834m. Speed=2.772000m/h.</desc>
<speed>0.770000</speed>
</trkpt>
<trkpt lat="21.748579" lon="104.938423">
<ele>62.744659</ele>
<time>2011-04-28T11:12:49Z</time>
<desc>lat.=21.748579, lon.=104.938423, Alt.=62.744659m. Speed=13.932000m/h.</desc>
<speed>3.870000</speed>
</trkpt>
<trkpt lat="21.748301" lon="104.938347">
<ele>61.882355</ele>
<time>2011-04-28T11:12:54Z</time>
<desc>lat.=21.748301, lon.=104.938347, Alt.=61.882355m. Speed=18.180000m/h.</desc>
<speed>5.050000</speed>
</trkpt>
<trkpt lat="21.748070" lon="104.938248">
<ele>62.506378</ele>
<time>2011-04-28T11:12:59Z</time>
<desc>lat.=21.748070, lon.=104.938248, Alt.=62.506378m. Speed=17.028000m/h.</desc>
<speed>4.730000</speed>
</trkpt>
<trkpt lat="21.747866" lon="104.938148">
<ele>63.226105</ele>
<time>2011-04-28T11:13:04Z</time>
<desc>lat.=21.747866, lon.=104.938148, Alt.=63.226105m. Speed=14.256000m/h.</desc>
<speed>3.960000</speed>
</trkpt>
<trkpt lat="21.747633" lon="104.938065">
<ele>63.525909</ele>
<time>2011-04-28T11:13:09Z</time>
<desc>lat.=21.747633, lon.=104.938065, Alt.=63.525909m. Speed=16.164000m/h.</desc>
<speed>4.490000</speed>
</trkpt>
<trkpt lat="21.747446" lon="104.937988">
<ele>63.864777</ele>
<time>2011-04-28T11:13:14Z</time>
<desc>lat.=21.747446, lon.=104.937988, Alt.=63.864777m. Speed=13.752000m/h.</desc>
<speed>3.820000</speed>
</trkpt>
<trkpt lat="21.747234" lon="104.937912">
<ele>64.190491</ele>
<time>2011-04-28T11:13:19Z</time>
<desc>lat.=21.747234, lon.=104.937912, Alt.=64.190491m. Speed=16.200001m/h.</desc>
<speed>4.500000</speed>
</trkpt>
<trkpt lat="21.747034" lon="104.937851">
<ele>64.342834</ele>
<time>2011-04-28T11:13:24Z</time>
<desc>lat.=21.747034, lon.=104.937851, Alt.=64.342834m. Speed=16.308001m/h.</desc>
<speed>4.530000</speed>
</trkpt>
<trkpt lat="21.746805" lon="104.937889">
<ele>64.233459</ele>
<time>2011-04-28T11:13:29Z</time>
<desc>lat.=21.746805, lon.=104.937889, Alt.=64.233459m. Speed=19.836000m/h.</desc>
<speed>5.510000</speed>
</trkpt>
<trkpt lat="21.746588" lon="104.938004">
<ele>63.878448</ele>
<time>2011-04-28T11:13:34Z</time>
<desc>lat.=21.746588, lon.=104.938004, Alt.=63.878448m. Speed=19.403999m/h.</desc>
<speed>5.390000</speed>
</trkpt>
<trkpt lat="21.746386" lon="104.938110">
<ele>64.170959</ele>
<time>2011-04-28T11:13:39Z</time>
<desc>lat.=21.746386, lon.=104.938110, Alt.=64.170959m. Speed=18.180000m/h.</desc>
<speed>5.050000</speed>
</trkpt>
<trkpt lat="21.746181" lon="104.938225">
<ele>65.581116</ele>
<time>2011-04-28T11:13:44Z</time>
<desc>lat.=21.746181, lon.=104.938225, Alt.=65.581116m. Speed=18.360001m/h.</desc>
<speed>5.100000</speed>
</trkpt>
<trkpt lat="21.745970" lon="104.938278">
<ele>68.067444</ele>
<time>2011-04-28T11:13:49Z</time>
<desc>lat.=21.745970, lon.=104.938278, Alt.=68.067444m. Speed=16.992001m/h.</desc>
<speed>4.720000</speed>
</trkpt>
<trkpt lat="21.745901" lon="104.938362">
<ele>69.376038</ele>
<time>2011-04-28T11:13:54Z</time>
<desc>lat.=21.745901, lon.=104.938362, Alt.=69.376038m. Speed=7.308000m/h.</desc>
<speed>2.030000</speed>
</trkpt>
<trkpt lat="21.745825" lon="104.938530">
<ele>69.680725</ele>
<time>2011-04-28T11:13:59Z</time>
<desc>lat.=21.745825, lon.=104.938530, Alt.=69.680725m. Speed=7.668000m/h.</desc>
<speed>2.130000</speed>
</trkpt>
<trkpt lat="21.745762" lon="104.938774">
<ele>69.348694</ele>
<time>2011-04-28T11:14:04Z</time>
<desc>lat.=21.745762, lon.=104.938774, Alt.=69.348694m. Speed=15.912000m/h.</desc>
<speed>4.420000</speed>
</trkpt>
<trkpt lat="21.745714" lon="104.939056">
<ele>68.903381</ele>
<time>2011-04-28T11:14:09Z</time>
<desc>lat.=21.745714, lon.=104.939056, Alt.=68.903381m. Speed=22.139999m/h.</desc>
<speed>6.150000</speed>
</trkpt>
<trkpt lat="21.745621" lon="104.939285">
<ele>69.245178</ele>
<time>2011-04-28T11:14:14Z</time>
<desc>lat.=21.745621, lon.=104.939285, Alt.=69.245178m. Speed=18.396000m/h.</desc>
<speed>5.110000</speed>
</trkpt>
<trkpt lat="21.745533" lon="104.939537">
<ele>70.061584</ele>
<time>2011-04-28T11:14:19Z</time>
<desc>lat.=21.745533, lon.=104.939537, Alt.=70.061584m. Speed=17.388000m/h.</desc>
<speed>4.830000</speed>
</trkpt>
<trkpt lat="21.745567" lon="104.939865">
<ele>72.919006</ele>
<time>2011-04-28T11:14:24Z</time>
<desc>lat.=21.745567, lon.=104.939865, Alt.=72.919006m. Speed=17.063999m/h.</desc>
<speed>4.740000</speed>
</trkpt>
<trkpt lat="21.745661" lon="104.940132">
<ele>75.877991</ele>
<time>2011-04-28T11:14:29Z</time>
<desc>lat.=21.745661, lon.=104.940132, Alt.=75.877991m. Speed=18.360001m/h.</desc>
<speed>5.100000</speed>
</trkpt>
<trkpt lat="21.745787" lon="104.940353">
<ele>75.540100</ele>
<time>2011-04-28T11:14:34Z</time>
<desc>lat.=21.745787, lon.=104.940353, Alt.=75.540100m. Speed=15.660000m/h.</desc>
<speed>4.350000</speed>
</trkpt>
<trkpt lat="21.745955" lon="104.940536">
<ele>73.083069</ele>
<time>2011-04-28T11:14:39Z</time>
<desc>lat.=21.745955, lon.=104.940536, Alt.=73.083069m. Speed=13.500000m/h.</desc>
<speed>3.750000</speed>
</trkpt>
<trkpt lat="21.746054" lon="104.940681">
<ele>72.528381</ele>
<time>2011-04-28T11:14:44Z</time>
<desc>lat.=21.746054, lon.=104.940681, Alt.=72.528381m. Speed=11.736000m/h.</desc>
<speed>3.260000</speed>
</trkpt>
<trkpt lat="21.746092" lon="104.940773">
<ele>71.569397</ele>
<time>2011-04-28T11:14:49Z</time>
<desc>lat.=21.746092, lon.=104.940773, Alt.=71.569397m. Speed=3.312000m/h.</desc>
<speed>0.920000</speed>
</trkpt>
<trkpt lat="21.746096" lon="104.940773">
<ele>70.286194</ele>
<time>2011-04-28T11:14:54Z</time>
<desc>lat.=21.746096, lon.=104.940773, Alt.=70.286194m. Speed=0.000000m/h.</desc>
<speed>0.000000</speed>
</trkpt>
<trkpt lat="21.746096" lon="104.940773">
<ele>70.147522</ele>
<time>2011-04-28T11:14:59Z</time>
<desc>lat.=21.746096, lon.=104.940773, Alt.=70.147522m. Speed=0.072000m/h.</desc>
<speed>0.020000</speed>
</trkpt>
<trkpt lat="21.746096" lon="104.940773">
<ele>70.061584</ele>
<time>2011-04-28T11:15:04Z</time>
<desc>lat.=21.746096, lon.=104.940773, Alt.=70.061584m. Speed=0.000000m/h.</desc>
<speed>0.000000</speed>
</trkpt>
<trkpt lat="21.746096" lon="104.940773">
<ele>70.020569</ele>
<time>2011-04-28T11:15:09Z</time>
<desc>lat.=21.746096, lon.=104.940773, Alt.=70.020569m. Speed=0.144000m/h.</desc>
<speed>0.040000</speed>
</trkpt>
<trkpt lat="21.746098" lon="104.940765">
<ele>70.223694</ele>
<time>2011-04-28T11:15:14Z</time>
<desc>lat.=21.746098, lon.=104.940765, Alt.=70.223694m. Speed=0.072000m/h.</desc>
<speed>0.020000</speed>
</trkpt>
<trkpt lat="21.746098" lon="104.940765">
<ele>70.186584</ele>
<time>2011-04-28T11:15:19Z</time>
<desc>lat.=21.746098, lon.=104.940765, Alt.=70.186584m. Speed=0.108000m/h.</desc>
<speed>0.030000</speed>
</trkpt>
<trkpt lat="21.746098" lon="104.940765">
<ele>70.196350</ele>
<time>2011-04-28T11:15:24Z</time>
<desc>lat.=21.746098, lon.=104.940765, Alt.=70.196350m. Speed=0.072000m/h.</desc>
<speed>0.020000</speed>
</trkpt>
<trkpt lat="21.746098" lon="104.940765">
<ele>70.235413</ele>
<time>2011-04-28T11:15:29Z</time>
<desc>lat.=21.746098, lon.=104.940765, Alt.=70.235413m. Speed=0.108000m/h.</desc>
<speed>0.030000</speed>
</trkpt>
<trkpt lat="21.746098" lon="104.940765">
<ele>70.237366</ele>
<time>2011-04-28T11:15:34Z</time>
<desc>lat.=21.746098, lon.=104.940765, Alt.=70.237366m. Speed=0.036000m/h.</desc>
<speed>0.010000</speed>
</trkpt>
<trkpt lat="21.746098" lon="104.940765">
<ele>70.221741</ele>
<time>2011-04-28T11:15:39Z</time>
<desc>lat.=21.746098, lon.=104.940765, Alt.=70.221741m. Speed=0.036000m/h.</desc>
<speed>0.010000</speed>
</trkpt>
<trkpt lat="21.746098" lon="104.940765">
<ele>70.223694</ele>
<time>2011-04-28T11:15:44Z</time>
<desc>lat.=21.746098, lon.=104.940765, Alt.=70.223694m. Speed=0.000000m/h.</desc>
<speed>0.000000</speed>
</trkpt>
<trkpt lat="21.746098" lon="104.940765">
<ele>70.227600</ele>
<time>2011-04-28T11:15:49Z</time>
<desc>lat.=21.746098, lon.=104.940765, Alt.=70.227600m. Speed=0.000000m/h.</desc>
<speed>0.000000</speed>
</trkpt>
<trkpt lat="21.746098" lon="104.940765">
<ele>70.233459</ele>
<time>2011-04-28T11:15:54Z</time>
<desc>lat.=21.746098, lon.=104.940765, Alt.=70.233459m. Speed=0.036000m/h.</desc>
<speed>0.010000</speed>
</trkpt>
<trkpt lat="21.746098" lon="104.940765">
<ele>70.249084</ele>
<time>2011-04-28T11:15:59Z</time>
<desc>lat.=21.746098, lon.=104.940765, Alt.=70.249084m. Speed=0.036000m/h.</desc>
<speed>0.010000</speed>
</trkpt>
<trkpt lat="21.746098" lon="104.940765">
<ele>70.280334</ele>
<time>2011-04-28T11:16:04Z</time>
<desc>lat.=21.746098, lon.=104.940765, Alt.=70.280334m. Speed=0.000000m/h.</desc>
<speed>0.000000</speed>
</trkpt>
<trkpt lat="21.746098" lon="104.940765">
<ele>70.311584</ele>
<time>2011-04-28T11:16:09Z</time>
<desc>lat.=21.746098, lon.=104.940765, Alt.=70.311584m. Speed=0.000000m/h.</desc>
<speed>0.000000</speed>
</trkpt>
<trkpt lat="21.746098" lon="104.940765">
<ele>70.323303</ele>
<time>2011-04-28T11:16:14Z</time>
<desc>lat.=21.746098, lon.=104.940765, Alt.=70.323303m. Speed=0.036000m/h.</desc>
<speed>0.010000</speed>
</trkpt>
<trkpt lat="21.746098" lon="104.940765">
<ele>70.331116</ele>
<time>2011-04-28T11:16:19Z</time>
<desc>lat.=21.746098, lon.=104.940765, Alt.=70.331116m. Speed=0.000000m/h.</desc>
<speed>0.000000</speed>
</trkpt>
<trkpt lat="21.746098" lon="104.940765">
<ele>70.338928</ele>
<time>2011-04-28T11:16:24Z</time>
<desc>lat.=21.746098, lon.=104.940765, Alt.=70.338928m. Speed=0.072000m/h.</desc>
<speed>0.020000</speed>
</trkpt>
<trkpt lat="21.746098" lon="104.940765">
<ele>70.356506</ele>
<time>2011-04-28T11:16:29Z</time>
<desc>lat.=21.746098, lon.=104.940765, Alt.=70.356506m. Speed=0.108000m/h.</desc>
<speed>0.030000</speed>
</trkpt>
<trkpt lat="21.746098" lon="104.940765">
<ele>70.360413</ele>
<time>2011-04-28T11:16:34Z</time>
<desc>lat.=21.746098, lon.=104.940765, Alt.=70.360413m. Speed=0.036000m/h.</desc>
<speed>0.010000</speed>
</trkpt>
<trkpt lat="21.746086" lon="104.940773">
<ele>70.448303</ele>
<time>2011-04-28T11:16:39Z</time>
<desc>lat.=21.746086, lon.=104.940773, Alt.=70.448303m. Speed=0.180000m/h.</desc>
<speed>0.050000</speed>
</trkpt>
<trkpt lat="21.746069" lon="104.940773">
<ele>70.973694</ele>
<time>2011-04-28T11:16:44Z</time>
<desc>lat.=21.746069, lon.=104.940773, Alt.=70.973694m. Speed=0.396000m/h.</desc>
<speed>0.110000</speed>
</trkpt>
<trkpt lat="21.746054" lon="104.940773">
<ele>71.551819</ele>
<time>2011-04-28T11:16:49Z</time>
<desc>lat.=21.746054, lon.=104.940773, Alt.=71.551819m. Speed=0.504000m/h.</desc>
<speed>0.140000</speed>
</trkpt>
<trkpt lat="21.746046" lon="104.940781">
<ele>72.586975</ele>
<time>2011-04-28T11:16:54Z</time>
<desc>lat.=21.746046, lon.=104.940781, Alt.=72.586975m. Speed=0.396000m/h.</desc>
<speed>0.110000</speed>
</trkpt>
<trkpt lat="21.746073" lon="104.940781">
<ele>72.547913</ele>
<time>2011-04-28T11:16:59Z</time>
<desc>lat.=21.746073, lon.=104.940781, Alt.=72.547913m. Speed=0.468000m/h.</desc>
<speed>0.130000</speed>
</trkpt>
<trkpt lat="21.746065" lon="104.940796">
<ele>72.153381</ele>
<time>2011-04-28T11:17:04Z</time>
<desc>lat.=21.746065, lon.=104.940796, Alt.=72.153381m. Speed=0.324000m/h.</desc>
<speed>0.090000</speed>
</trkpt>
<trkpt lat="21.746054" lon="104.940811">
<ele>71.530334</ele>
<time>2011-04-28T11:17:09Z</time>
<desc>lat.=21.746054, lon.=104.940811, Alt.=71.530334m. Speed=0.288000m/h.</desc>
<speed>0.080000</speed>
</trkpt>
<trkpt lat="21.746054" lon="104.940811">
<ele>71.094788</ele>
<time>2011-04-28T11:17:14Z</time>
<desc>lat.=21.746054, lon.=104.940811, Alt.=71.094788m. Speed=0.144000m/h.</desc>
<speed>0.040000</speed>
</trkpt>
<trkpt lat="21.746078" lon="104.940804">
<ele>70.508850</ele>
<time>2011-04-28T11:17:19Z</time>
<desc>lat.=21.746078, lon.=104.940804, Alt.=70.508850m. Speed=0.216000m/h.</desc>
<speed>0.060000</speed>
</trkpt>
<trkpt lat="21.746094" lon="104.940796">
<ele>70.385803</ele>
<time>2011-04-28T11:17:24Z</time>
<desc>lat.=21.746094, lon.=104.940796, Alt.=70.385803m. Speed=0.504000m/h.</desc>
<speed>0.140000</speed>
</trkpt>
<trkpt lat="21.746099" lon="104.940788">
<ele>70.249084</ele>
<time>2011-04-28T11:17:29Z</time>
<desc>lat.=21.746099, lon.=104.940788, Alt.=70.249084m. Speed=0.252000m/h.</desc>
<speed>0.070000</speed>
</trkpt>
<trkpt lat="21.746101" lon="104.940788">
<ele>70.182678</ele>
<time>2011-04-28T11:17:34Z</time>
<desc>lat.=21.746101, lon.=104.940788, Alt.=70.182678m. Speed=0.072000m/h.</desc>
<speed>0.020000</speed>
</trkpt>
<trkpt lat="21.746099" lon="104.940804">
<ele>68.532288</ele>
<time>2011-04-28T11:17:39Z</time>
<desc>lat.=21.746099, lon.=104.940804, Alt.=68.532288m. Speed=1.656000m/h.</desc>
<speed>0.460000</speed>
</trkpt>
<trkpt lat="21.746117" lon="104.940849">
<ele>67.891663</ele>
<time>2011-04-28T11:17:44Z</time>
<desc>lat.=21.746117, lon.=104.940849, Alt.=67.891663m. Speed=8.064000m/h.</desc>
<speed>2.240000</speed>
</trkpt>
<trkpt lat="21.746149" lon="104.940941">
<ele>67.815491</ele>
<time>2011-04-28T11:17:49Z</time>
<desc>lat.=21.746149, lon.=104.940941, Alt.=67.815491m. Speed=6.768000m/h.</desc>
<speed>1.880000</speed>
</trkpt>
<trkpt lat="21.746180" lon="104.941040">
<ele>68.479553</ele>
<time>2011-04-28T11:17:54Z</time>
<desc>lat.=21.746180, lon.=104.941040, Alt.=68.479553m. Speed=7.740000m/h.</desc>
<speed>2.150000</speed>
</trkpt>
<trkpt lat="21.746170" lon="104.941101">
<ele>69.147522</ele>
<time>2011-04-28T11:17:59Z</time>
<desc>lat.=21.746170, lon.=104.941101, Alt.=69.147522m. Speed=3.780000m/h.</desc>
<speed>1.050000</speed>
</trkpt>
<trkpt lat="21.746159" lon="104.941139">
<ele>69.405334</ele>
<time>2011-04-28T11:18:04Z</time>
<desc>lat.=21.746159, lon.=104.941139, Alt.=69.405334m. Speed=0.864000m/h.</desc>
<speed>0.240000</speed>
</trkpt>
<trkpt lat="21.746162" lon="104.941170">
<ele>69.629944</ele>
<time>2011-04-28T11:18:09Z</time>
<desc>lat.=21.746162, lon.=104.941170, Alt.=69.629944m. Speed=1.188000m/h.</desc>
<speed>0.330000</speed>
</trkpt>
<trkpt lat="21.746195" lon="104.941154">
<ele>71.088928</ele>
<time>2011-04-28T11:18:14Z</time>
<desc>lat.=21.746195, lon.=104.941154, Alt.=71.088928m. Speed=1.188000m/h.</desc>
<speed>0.330000</speed>
</trkpt>
<trkpt lat="21.746159" lon="104.941185">
<ele>73.735413</ele>
<time>2011-04-28T11:18:19Z</time>
<desc>lat.=21.746159, lon.=104.941185, Alt.=73.735413m. Speed=1.512000m/h.</desc>
<speed>0.420000</speed>
</trkpt>
<trkpt lat="21.746151" lon="104.941216">
<ele>75.108459</ele>
<time>2011-04-28T11:18:24Z</time>
<desc>lat.=21.746151, lon.=104.941216, Alt.=75.108459m. Speed=1.656000m/h.</desc>
<speed>0.460000</speed>
</trkpt>
<trkpt lat="21.746138" lon="104.941246">
<ele>76.315491</ele>
<time>2011-04-28T11:18:29Z</time>
<desc>lat.=21.746138, lon.=104.941246, Alt.=76.315491m. Speed=2.376000m/h.</desc>
<speed>0.660000</speed>
</trkpt>
<trkpt lat="21.746161" lon="104.941284">
<ele>77.374084</ele>
<time>2011-04-28T11:18:34Z</time>
<desc>lat.=21.746161, lon.=104.941284, Alt.=77.374084m. Speed=1.080000m/h.</desc>
<speed>0.300000</speed>
</trkpt>
<trkpt lat="21.746164" lon="104.941299">
<ele>78.065491</ele>
<time>2011-04-28T11:18:39Z</time>
<desc>lat.=21.746164, lon.=104.941299, Alt.=78.065491m. Speed=0.252000m/h.</desc>
<speed>0.070000</speed>
</trkpt>
<trkpt lat="21.746162" lon="104.941330">
<ele>79.122131</ele>
<time>2011-04-28T11:18:44Z</time>
<desc>lat.=21.746162, lon.=104.941330, Alt.=79.122131m. Speed=0.180000m/h.</desc>
<speed>0.050000</speed>
</trkpt>
<trkpt lat="21.746145" lon="104.941368">
<ele>79.641663</ele>
<time>2011-04-28T11:18:49Z</time>
<desc>lat.=21.746145, lon.=104.941368, Alt.=79.641663m. Speed=1.332000m/h.</desc>
<speed>0.370000</speed>
</trkpt>
<trkpt lat="21.746130" lon="104.941414">
<ele>80.022522</ele>
<time>2011-04-28T11:18:54Z</time>
<desc>lat.=21.746130, lon.=104.941414, Alt.=80.022522m. Speed=1.908000m/h.</desc>
<speed>0.530000</speed>
</trkpt>
<trkpt lat="21.746140" lon="104.941406">
<ele>80.069397</ele>
<time>2011-04-28T11:18:59Z</time>
<desc>lat.=21.746140, lon.=104.941406, Alt.=80.069397m. Speed=1.008000m/h.</desc>
<speed>0.280000</speed>
</trkpt>
<trkpt lat="21.746143" lon="104.941383">
<ele>80.030334</ele>
<time>2011-04-28T11:19:04Z</time>
<desc>lat.=21.746143, lon.=104.941383, Alt.=80.030334m. Speed=0.576000m/h.</desc>
<speed>0.160000</speed>
</trkpt>
<trkpt lat="21.746143" lon="104.941391">
<ele>80.051819</ele>
<time>2011-04-28T11:19:09Z</time>
<desc>lat.=21.746143, lon.=104.941391, Alt.=80.051819m. Speed=0.468000m/h.</desc>
<speed>0.130000</speed>
</trkpt>
<trkpt lat="21.746147" lon="104.941383">
<ele>80.069397</ele>
<time>2011-04-28T11:19:14Z</time>
<desc>lat.=21.746147, lon.=104.941383, Alt.=80.069397m. Speed=0.396000m/h.</desc>
<speed>0.110000</speed>
</trkpt>
<trkpt lat="21.746153" lon="104.941383">
<ele>80.083069</ele>
<time>2011-04-28T11:19:19Z</time>
<desc>lat.=21.746153, lon.=104.941383, Alt.=80.083069m. Speed=0.540000m/h.</desc>
<speed>0.150000</speed>
</trkpt>
<trkpt lat="21.746162" lon="104.941383">
<ele>80.092834</ele>
<time>2011-04-28T11:19:24Z</time>
<desc>lat.=21.746162, lon.=104.941383, Alt.=80.092834m. Speed=1.044000m/h.</desc>
<speed>0.290000</speed>
</trkpt>
<trkpt lat="21.746183" lon="104.941360">
<ele>80.001038</ele>
<time>2011-04-28T11:19:29Z</time>
<desc>lat.=21.746183, lon.=104.941360, Alt.=80.001038m. Speed=1.188000m/h.</desc>
<speed>0.330000</speed>
</trkpt>
<trkpt lat="21.746214" lon="104.941315">
<ele>79.760803</ele>
<time>2011-04-28T11:19:34Z</time>
<desc>lat.=21.746214, lon.=104.941315, Alt.=79.760803m. Speed=1.656000m/h.</desc>
<speed>0.460000</speed>
</trkpt>
<trkpt lat="21.746208" lon="104.941345">
<ele>79.670959</ele>
<time>2011-04-28T11:19:39Z</time>
<desc>lat.=21.746208, lon.=104.941345, Alt.=79.670959m. Speed=0.612000m/h.</desc>
<speed>0.170000</speed>
</trkpt>
<trkpt lat="21.746202" lon="104.941353">
<ele>79.618225</ele>
<time>2011-04-28T11:19:44Z</time>
<desc>lat.=21.746202, lon.=104.941353, Alt.=79.618225m. Speed=0.720000m/h.</desc>
<speed>0.200000</speed>
</trkpt>
<trkpt lat="21.746199" lon="104.941360">
<ele>79.626038</ele>
<time>2011-04-28T11:19:49Z</time>
<desc>lat.=21.746199, lon.=104.941360, Alt.=79.626038m. Speed=0.648000m/h.</desc>
<speed>0.180000</speed>
</trkpt>
<trkpt lat="21.746185" lon="104.941360">
<ele>79.627991</ele>
<time>2011-04-28T11:19:54Z</time>
<desc>lat.=21.746185, lon.=104.941360, Alt.=79.627991m. Speed=1.080000m/h.</desc>
<speed>0.300000</speed>
</trkpt>
<trkpt lat="21.746189" lon="104.941345">
<ele>79.710022</ele>
<time>2011-04-28T11:19:59Z</time>
<desc>lat.=21.746189, lon.=104.941345, Alt.=79.710022m. Speed=0.216000m/h.</desc>
<speed>0.060000</speed>
</trkpt>
<trkpt lat="21.746193" lon="104.941345">
<ele>79.706116</ele>
<time>2011-04-28T11:20:04Z</time>
<desc>lat.=21.746193, lon.=104.941345, Alt.=79.706116m. Speed=0.324000m/h.</desc>
<speed>0.090000</speed>
</trkpt>
<trkpt lat="21.746199" lon="104.941338">
<ele>79.710022</ele>
<time>2011-04-28T11:20:09Z</time>
<desc>lat.=21.746199, lon.=104.941338, Alt.=79.710022m. Speed=0.504000m/h.</desc>
<speed>0.140000</speed>
</trkpt>
<trkpt lat="21.746202" lon="104.941338">
<ele>79.717834</ele>
<time>2011-04-28T11:20:14Z</time>
<desc>lat.=21.746202, lon.=104.941338, Alt.=79.717834m. Speed=0.468000m/h.</desc>
<speed>0.130000</speed>
</trkpt>
<trkpt lat="21.746201" lon="104.941330">
<ele>79.735413</ele>
<time>2011-04-28T11:20:19Z</time>
<desc>lat.=21.746201, lon.=104.941330, Alt.=79.735413m. Speed=0.360000m/h.</desc>
<speed>0.100000</speed>
</trkpt>
<trkpt lat="21.746191" lon="104.941345">
<ele>79.756897</ele>
<time>2011-04-28T11:20:24Z</time>
<desc>lat.=21.746191, lon.=104.941345, Alt.=79.756897m. Speed=1.152000m/h.</desc>
<speed>0.320000</speed>
</trkpt>
<trkpt lat="21.746155" lon="104.941353">
<ele>80.010803</ele>
<time>2011-04-28T11:20:29Z</time>
<desc>lat.=21.746155, lon.=104.941353, Alt.=80.010803m. Speed=1.188000m/h.</desc>
<speed>0.330000</speed>
</trkpt>
<trkpt lat="21.746147" lon="104.941368">
<ele>80.116272</ele>
<time>2011-04-28T11:20:34Z</time>
<desc>lat.=21.746147, lon.=104.941368, Alt.=80.116272m. Speed=1.080000m/h.</desc>
<speed>0.300000</speed>
</trkpt>
<trkpt lat="21.746117" lon="104.941368">
<ele>80.083069</ele>
<time>2011-04-28T11:20:39Z</time>
<desc>lat.=21.746117, lon.=104.941368, Alt.=80.083069m. Speed=1.116000m/h.</desc>
<speed>0.310000</speed>
</trkpt>
<trkpt lat="21.746096" lon="104.941376">
<ele>80.163147</ele>
<time>2011-04-28T11:20:44Z</time>
<desc>lat.=21.746096, lon.=104.941376, Alt.=80.163147m. Speed=1.116000m/h.</desc>
<speed>0.310000</speed>
</trkpt>
<trkpt lat="21.746090" lon="104.941399">
<ele>80.116272</ele>
<time>2011-04-28T11:20:49Z</time>
<desc>lat.=21.746090, lon.=104.941399, Alt.=80.116272m. Speed=1.404000m/h.</desc>
<speed>0.390000</speed>
</trkpt>
<trkpt lat="21.746105" lon="104.941383">
<ele>79.993225</ele>
<time>2011-04-28T11:20:54Z</time>
<desc>lat.=21.746105, lon.=104.941383, Alt.=79.993225m. Speed=0.720000m/h.</desc>
<speed>0.200000</speed>
</trkpt>
<trkpt lat="21.746101" lon="104.941391">
<ele>80.001038</ele>
<time>2011-04-28T11:20:59Z</time>
<desc>lat.=21.746101, lon.=104.941391, Alt.=80.001038m. Speed=0.360000m/h.</desc>
<speed>0.100000</speed>
</trkpt>
<trkpt lat="21.746105" lon="104.941391">
<ele>79.999084</ele>
<time>2011-04-28T11:21:04Z</time>
<desc>lat.=21.746105, lon.=104.941391, Alt.=79.999084m. Speed=0.576000m/h.</desc>
<speed>0.160000</speed>
</trkpt>
<trkpt lat="21.746109" lon="104.941391">
<ele>79.991272</ele>
<time>2011-04-28T11:21:09Z</time>
<desc>lat.=21.746109, lon.=104.941391, Alt.=79.991272m. Speed=0.540000m/h.</desc>
<speed>0.150000</speed>
</trkpt>
<trkpt lat="21.746117" lon="104.941391">
<ele>79.999084</ele>
<time>2011-04-28T11:21:14Z</time>
<desc>lat.=21.746117, lon.=104.941391, Alt.=79.999084m. Speed=0.648000m/h.</desc>
<speed>0.180000</speed>
</trkpt>
<trkpt lat="21.746122" lon="104.941383">
<ele>80.020569</ele>
<time>2011-04-28T11:21:19Z</time>
<desc>lat.=21.746122, lon.=104.941383, Alt.=80.020569m. Speed=0.324000m/h.</desc>
<speed>0.090000</speed>
</trkpt>
<trkpt lat="21.746126" lon="104.941383">
<ele>80.063538</ele>
<time>2011-04-28T11:21:24Z</time>
<desc>lat.=21.746126, lon.=104.941383, Alt.=80.063538m. Speed=0.684000m/h.</desc>
<speed>0.190000</speed>
</trkpt>
<trkpt lat="21.746130" lon="104.941360">
<ele>80.094788</ele>
<time>2011-04-28T11:21:29Z</time>
<desc>lat.=21.746130, lon.=104.941360, Alt.=80.094788m. Speed=1.368000m/h.</desc>
<speed>0.380000</speed>
</trkpt>
<trkpt lat="21.746138" lon="104.941338">
<ele>80.297913</ele>
<time>2011-04-28T11:21:34Z</time>
<desc>lat.=21.746138, lon.=104.941338, Alt.=80.297913m. Speed=1.332000m/h.</desc>
<speed>0.370000</speed>
</trkpt>
<trkpt lat="21.746128" lon="104.941330">
<ele>80.463928</ele>
<time>2011-04-28T11:21:39Z</time>
<desc>lat.=21.746128, lon.=104.941330, Alt.=80.463928m. Speed=0.036000m/h.</desc>
<speed>0.010000</speed>
</trkpt>
<trkpt lat="21.746128" lon="104.941338">
<ele>80.489319</ele>
<time>2011-04-28T11:21:44Z</time>
<desc>lat.=21.746128, lon.=104.941338, Alt.=80.489319m. Speed=0.936000m/h.</desc>
<speed>0.260000</speed>
</trkpt>
<trkpt lat="21.746124" lon="104.941338">
<ele>80.499084</ele>
<time>2011-04-28T11:21:49Z</time>
<desc>lat.=21.746124, lon.=104.941338, Alt.=80.499084m. Speed=0.360000m/h.</desc>
<speed>0.100000</speed>
</trkpt>
<trkpt lat="21.746117" lon="104.941322">
<ele>80.544006</ele>
<time>2011-04-28T11:21:54Z</time>
<desc>lat.=21.746117, lon.=104.941322, Alt.=80.544006m. Speed=2.340000m/h.</desc>
<speed>0.650000</speed>
</trkpt>
<trkpt lat="21.746149" lon="104.941277">
<ele>80.377991</ele>
<time>2011-04-28T11:21:59Z</time>
<desc>lat.=21.746149, lon.=104.941277, Alt.=80.377991m. Speed=1.620000m/h.</desc>
<speed>0.450000</speed>
</trkpt>
<trkpt lat="21.746174" lon="104.941246">
<ele>79.895569</ele>
<time>2011-04-28T11:22:04Z</time>
<desc>lat.=21.746174, lon.=104.941246, Alt.=79.895569m. Speed=2.484000m/h.</desc>
<speed>0.690000</speed>
</trkpt>
<trkpt lat="21.746212" lon="104.941261">
<ele>79.262756</ele>
<time>2011-04-28T11:22:09Z</time>
<desc>lat.=21.746212, lon.=104.941261, Alt.=79.262756m. Speed=1.224000m/h.</desc>
<speed>0.340000</speed>
</trkpt>
<trkpt lat="21.746199" lon="104.941322">
<ele>79.481506</ele>
<time>2011-04-28T11:22:14Z</time>
<desc>lat.=21.746199, lon.=104.941322, Alt.=79.481506m. Speed=1.512000m/h.</desc>
<speed>0.420000</speed>
</trkpt>
<trkpt lat="21.746162" lon="104.941376">
<ele>79.852600</ele>
<time>2011-04-28T11:22:19Z</time>
<desc>lat.=21.746162, lon.=104.941376, Alt.=79.852600m. Speed=2.124000m/h.</desc>
<speed>0.590000</speed>
</trkpt>
<trkpt lat="21.746172" lon="104.941360">
<ele>79.864319</ele>
<time>2011-04-28T11:22:24Z</time>
<desc>lat.=21.746172, lon.=104.941360, Alt.=79.864319m. Speed=0.036000m/h.</desc>
<speed>0.010000</speed>
</trkpt>
<trkpt lat="21.746174" lon="104.941353">
<ele>79.879944</ele>
<time>2011-04-28T11:22:29Z</time>
<desc>lat.=21.746174, lon.=104.941353, Alt.=79.879944m. Speed=0.504000m/h.</desc>
<speed>0.140000</speed>
</trkpt>
<trkpt lat="21.746149" lon="104.941338">
<ele>79.725647</ele>
<time>2011-04-28T11:22:34Z</time>
<desc>lat.=21.746149, lon.=104.941338, Alt.=79.725647m. Speed=2.880000m/h.</desc>
<speed>0.800000</speed>
</trkpt>
<trkpt lat="21.746147" lon="104.941299">
<ele>79.643616</ele>
<time>2011-04-28T11:22:39Z</time>
<desc>lat.=21.746147, lon.=104.941299, Alt.=79.643616m. Speed=1.764000m/h.</desc>
<speed>0.490000</speed>
</trkpt>
<trkpt lat="21.746155" lon="104.941299">
<ele>79.610413</ele>
<time>2011-04-28T11:22:44Z</time>
<desc>lat.=21.746155, lon.=104.941299, Alt.=79.610413m. Speed=0.972000m/h.</desc>
<speed>0.270000</speed>
</trkpt>
<trkpt lat="21.746166" lon="104.941307">
<ele>79.553772</ele>
<time>2011-04-28T11:22:49Z</time>
<desc>lat.=21.746166, lon.=104.941307, Alt.=79.553772m. Speed=0.468000m/h.</desc>
<speed>0.130000</speed>
</trkpt>
<trkpt lat="21.746191" lon="104.941307">
<ele>79.653381</ele>
<time>2011-04-28T11:22:54Z</time>
<desc>lat.=21.746191, lon.=104.941307, Alt.=79.653381m. Speed=0.648000m/h.</desc>
<speed>0.180000</speed>
</trkpt>
<trkpt lat="21.746204" lon="104.941299">
<ele>79.731506</ele>
<time>2011-04-28T11:22:59Z</time>
<desc>lat.=21.746204, lon.=104.941299, Alt.=79.731506m. Speed=1.188000m/h.</desc>
<speed>0.330000</speed>
</trkpt>
<trkpt lat="21.746216" lon="104.941330">
<ele>79.780334</ele>
<time>2011-04-28T11:23:04Z</time>
<desc>lat.=21.746216, lon.=104.941330, Alt.=79.780334m. Speed=1.260000m/h.</desc>
<speed>0.350000</speed>
</trkpt>
<trkpt lat="21.746227" lon="104.941345">
<ele>80.159241</ele>
<time>2011-04-28T11:23:09Z</time>
<desc>lat.=21.746227, lon.=104.941345, Alt.=80.159241m. Speed=1.404000m/h.</desc>
<speed>0.390000</speed>
</trkpt>
<trkpt lat="21.746246" lon="104.941338">
<ele>80.520569</ele>
<time>2011-04-28T11:23:14Z</time>
<desc>lat.=21.746246, lon.=104.941338, Alt.=80.520569m. Speed=1.008000m/h.</desc>
<speed>0.280000</speed>
</trkpt>
<trkpt lat="21.746252" lon="104.941338">
<ele>80.534241</ele>
<time>2011-04-28T11:23:19Z</time>
<desc>lat.=21.746252, lon.=104.941338, Alt.=80.534241m. Speed=0.504000m/h.</desc>
<speed>0.140000</speed>
</trkpt>
<trkpt lat="21.746258" lon="104.941330">
<ele>80.545959</ele>
<time>2011-04-28T11:23:24Z</time>
<desc>lat.=21.746258, lon.=104.941330, Alt.=80.545959m. Speed=1.008000m/h.</desc>
<speed>0.280000</speed>
</trkpt>
<trkpt lat="21.746264" lon="104.941322">
<ele>80.579163</ele>
<time>2011-04-28T11:23:29Z</time>
<desc>lat.=21.746264, lon.=104.941322, Alt.=80.579163m. Speed=0.180000m/h.</desc>
<speed>0.050000</speed>
</trkpt>
<trkpt lat="21.746260" lon="104.941322">
<ele>80.612366</ele>
<time>2011-04-28T11:23:34Z</time>
<desc>lat.=21.746260, lon.=104.941322, Alt.=80.612366m. Speed=0.612000m/h.</desc>
<speed>0.170000</speed>
</trkpt>
<trkpt lat="21.746256" lon="104.941315">
<ele>80.596741</ele>
<time>2011-04-28T11:23:39Z</time>
<desc>lat.=21.746256, lon.=104.941315, Alt.=80.596741m. Speed=0.216000m/h.</desc>
<speed>0.060000</speed>
</trkpt>
<trkpt lat="21.746252" lon="104.941315">
<ele>80.596741</ele>
<time>2011-04-28T11:23:44Z</time>
<desc>lat.=21.746252, lon.=104.941315, Alt.=80.596741m. Speed=0.720000m/h.</desc>
<speed>0.200000</speed>
</trkpt>
<trkpt lat="21.746248" lon="104.941315">
<ele>80.608459</ele>
<time>2011-04-28T11:23:49Z</time>
<desc>lat.=21.746248, lon.=104.941315, Alt.=80.608459m. Speed=1.440000m/h.</desc>
<speed>0.400000</speed>
</trkpt>
<trkpt lat="21.746237" lon="104.941261">
<ele>80.268616</ele>
<time>2011-04-28T11:23:54Z</time>
<desc>lat.=21.746237, lon.=104.941261, Alt.=80.268616m. Speed=1.692000m/h.</desc>
<speed>0.470000</speed>
</trkpt>
<trkpt lat="21.746246" lon="104.941208">
<ele>79.835022</ele>
<time>2011-04-28T11:23:59Z</time>
<desc>lat.=21.746246, lon.=104.941208, Alt.=79.835022m. Speed=1.728000m/h.</desc>
<speed>0.480000</speed>
</trkpt>
<trkpt lat="21.746254" lon="104.941200">
<ele>79.200256</ele>
<time>2011-04-28T11:24:04Z</time>
<desc>lat.=21.746254, lon.=104.941200, Alt.=79.200256m. Speed=1.800000m/h.</desc>
<speed>0.500000</speed>
</trkpt>
<trkpt lat="21.746269" lon="104.941238">
<ele>78.544006</ele>
<time>2011-04-28T11:24:09Z</time>
<desc>lat.=21.746269, lon.=104.941238, Alt.=78.544006m. Speed=0.612000m/h.</desc>
<speed>0.170000</speed>
</trkpt>
<trkpt lat="21.746275" lon="104.941238">
<ele>78.588928</ele>
<time>2011-04-28T11:24:14Z</time>
<desc>lat.=21.746275, lon.=104.941238, Alt.=78.588928m. Speed=0.180000m/h.</desc>
<speed>0.050000</speed>
</trkpt>
<trkpt lat="21.746269" lon="104.941246">
<ele>78.973694</ele>
<time>2011-04-28T11:24:19Z</time>
<desc>lat.=21.746269, lon.=104.941246, Alt.=78.973694m. Speed=0.756000m/h.</desc>
<speed>0.210000</speed>
</trkpt>
<trkpt lat="21.746248" lon="104.941254">
<ele>79.452209</ele>
<time>2011-04-28T11:24:24Z</time>
<desc>lat.=21.746248, lon.=104.941254, Alt.=79.452209m. Speed=1.008000m/h.</desc>
<speed>0.280000</speed>
</trkpt>
<trkpt lat="21.746239" lon="104.941277">
<ele>79.553772</ele>
<time>2011-04-28T11:24:29Z</time>
<desc>lat.=21.746239, lon.=104.941277, Alt.=79.553772m. Speed=1.512000m/h.</desc>
<speed>0.420000</speed>
</trkpt>
<trkpt lat="21.746258" lon="104.941254">
<ele>79.610413</ele>
<time>2011-04-28T11:24:34Z</time>
<desc>lat.=21.746258, lon.=104.941254, Alt.=79.610413m. Speed=0.504000m/h.</desc>
<speed>0.140000</speed>
</trkpt>
<trkpt lat="21.746283" lon="104.941261">
<ele>79.442444</ele>
<time>2011-04-28T11:24:39Z</time>
<desc>lat.=21.746283, lon.=104.941261, Alt.=79.442444m. Speed=0.684000m/h.</desc>
<speed>0.190000</speed>
</trkpt>
<trkpt lat="21.746290" lon="104.941269">
<ele>79.450256</ele>
<time>2011-04-28T11:24:44Z</time>
<desc>lat.=21.746290, lon.=104.941269, Alt.=79.450256m. Speed=0.648000m/h.</desc>
<speed>0.180000</speed>
</trkpt>
<trkpt lat="21.746283" lon="104.941277">
<ele>79.469788</ele>
<time>2011-04-28T11:24:49Z</time>
<desc>lat.=21.746283, lon.=104.941277, Alt.=79.469788m. Speed=0.648000m/h.</desc>
<speed>0.180000</speed>
</trkpt>
<trkpt lat="21.746262" lon="104.941284">
<ele>79.452209</ele>
<time>2011-04-28T11:24:54Z</time>
<desc>lat.=21.746262, lon.=104.941284, Alt.=79.452209m. Speed=1.224000m/h.</desc>
<speed>0.340000</speed>
</trkpt>
<trkpt lat="21.746246" lon="104.941330">
<ele>79.428772</ele>
<time>2011-04-28T11:24:59Z</time>
<desc>lat.=21.746246, lon.=104.941330, Alt.=79.428772m. Speed=1.152000m/h.</desc>
<speed>0.320000</speed>
</trkpt>
<trkpt lat="21.746233" lon="104.941353">
<ele>79.381897</ele>
<time>2011-04-28T11:25:04Z</time>
<desc>lat.=21.746233, lon.=104.941353, Alt.=79.381897m. Speed=1.404000m/h.</desc>
<speed>0.390000</speed>
</trkpt>
<trkpt lat="21.746225" lon="104.941345">
<ele>79.098694</ele>
<time>2011-04-28T11:25:09Z</time>
<desc>lat.=21.746225, lon.=104.941345, Alt.=79.098694m. Speed=0.720000m/h.</desc>
<speed>0.200000</speed>
</trkpt>
<trkpt lat="21.746206" lon="104.941353">
<ele>79.288147</ele>
<time>2011-04-28T11:25:14Z</time>
<desc>lat.=21.746206, lon.=104.941353, Alt.=79.288147m. Speed=0.432000m/h.</desc>
<speed>0.120000</speed>
</trkpt>
<trkpt lat="21.746222" lon="104.941345">
<ele>79.364319</ele>
<time>2011-04-28T11:25:19Z</time>
<desc>lat.=21.746222, lon.=104.941345, Alt.=79.364319m. Speed=1.368000m/h.</desc>
<speed>0.380000</speed>
</trkpt>
<trkpt lat="21.746201" lon="104.941338">
<ele>79.424866</ele>
<time>2011-04-28T11:25:24Z</time>
<desc>lat.=21.746201, lon.=104.941338, Alt.=79.424866m. Speed=0.612000m/h.</desc>
<speed>0.170000</speed>
</trkpt>
<trkpt lat="21.746197" lon="104.941338">
<ele>79.633850</ele>
<time>2011-04-28T11:25:29Z</time>
<desc>lat.=21.746197, lon.=104.941338, Alt.=79.633850m. Speed=0.612000m/h.</desc>
<speed>0.170000</speed>
</trkpt>
<trkpt lat="21.746199" lon="104.941338">
<ele>79.657288</ele>
<time>2011-04-28T11:25:34Z</time>
<desc>lat.=21.746199, lon.=104.941338, Alt.=79.657288m. Speed=0.216000m/h.</desc>
<speed>0.060000</speed>
</trkpt>
<trkpt lat="21.746199" lon="104.941338">
<ele>79.006897</ele>
<time>2011-04-28T11:25:39Z</time>
<desc>lat.=21.746199, lon.=104.941338, Alt.=79.006897m. Speed=0.144000m/h.</desc>
<speed>0.040000</speed>
</trkpt>
<trkpt lat="21.746214" lon="104.941345">
<ele>78.290100</ele>
<time>2011-04-28T11:25:44Z</time>
<desc>lat.=21.746214, lon.=104.941345, Alt.=78.290100m. Speed=0.612000m/h.</desc>
<speed>0.170000</speed>
</trkpt>
<trkpt lat="21.746227" lon="104.941345">
<ele>78.170959</ele>
<time>2011-04-28T11:25:49Z</time>
<desc>lat.=21.746227, lon.=104.941345, Alt.=78.170959m. Speed=1.260000m/h.</desc>
<speed>0.350000</speed>
</trkpt>
<trkpt lat="21.746235" lon="104.941322">
<ele>78.178772</ele>
<time>2011-04-28T11:25:54Z</time>
<desc>lat.=21.746235, lon.=104.941322, Alt.=78.178772m. Speed=1.692000m/h.</desc>
<speed>0.470000</speed>
</trkpt>
<trkpt lat="21.746231" lon="104.941307">
<ele>78.268616</ele>
<time>2011-04-28T11:25:59Z</time>
<desc>lat.=21.746231, lon.=104.941307, Alt.=78.268616m. Speed=0.792000m/h.</desc>
<speed>0.220000</speed>
</trkpt>
<trkpt lat="21.746212" lon="104.941299">
<ele>78.391663</ele>
<time>2011-04-28T11:26:04Z</time>
<desc>lat.=21.746212, lon.=104.941299, Alt.=78.391663m. Speed=1.512000m/h.</desc>
<speed>0.420000</speed>
</trkpt>
<trkpt lat="21.746199" lon="104.941284">
<ele>78.241272</ele>
<time>2011-04-28T11:26:09Z</time>
<desc>lat.=21.746199, lon.=104.941284, Alt.=78.241272m. Speed=0.864000m/h.</desc>
<speed>0.240000</speed>
</trkpt>
<trkpt lat="21.746161" lon="104.941307">
<ele>78.643616</ele>
<time>2011-04-28T11:26:14Z</time>
<desc>lat.=21.746161, lon.=104.941307, Alt.=78.643616m. Speed=1.620000m/h.</desc>
<speed>0.450000</speed>
</trkpt>
<trkpt lat="21.746143" lon="104.941269">
<ele>79.038147</ele>
<time>2011-04-28T11:26:19Z</time>
<desc>lat.=21.746143, lon.=104.941269, Alt.=79.038147m. Speed=2.016000m/h.</desc>
<speed>0.560000</speed>
</trkpt>
<trkpt lat="21.746136" lon="104.941261">
<ele>79.282288</ele>
<time>2011-04-28T11:26:24Z</time>
<desc>lat.=21.746136, lon.=104.941261, Alt.=79.282288m. Speed=0.828000m/h.</desc>
<speed>0.230000</speed>
</trkpt>
<trkpt lat="21.746157" lon="104.941269">
<ele>79.284241</ele>
<time>2011-04-28T11:26:29Z</time>
<desc>lat.=21.746157, lon.=104.941269, Alt.=79.284241m. Speed=0.324000m/h.</desc>
<speed>0.090000</speed>
</trkpt>
<trkpt lat="21.746170" lon="104.941277">
<ele>79.350647</ele>
<time>2011-04-28T11:26:34Z</time>
<desc>lat.=21.746170, lon.=104.941277, Alt.=79.350647m. Speed=0.468000m/h.</desc>
<speed>0.130000</speed>
</trkpt>
<trkpt lat="21.746185" lon="104.941261">
<ele>79.305725</ele>
<time>2011-04-28T11:26:39Z</time>
<desc>lat.=21.746185, lon.=104.941261, Alt.=79.305725m. Speed=0.180000m/h.</desc>
<speed>0.050000</speed>
</trkpt>
<trkpt lat="21.746176" lon="104.941254">
<ele>79.631897</ele>
<time>2011-04-28T11:26:44Z</time>
<desc>lat.=21.746176, lon.=104.941254, Alt.=79.631897m. Speed=0.216000m/h.</desc>
<speed>0.060000</speed>
</trkpt>
<trkpt lat="21.746122" lon="104.941277">
<ele>80.555725</ele>
<time>2011-04-28T11:26:49Z</time>
<desc>lat.=21.746122, lon.=104.941277, Alt.=80.555725m. Speed=1.296000m/h.</desc>
<speed>0.360000</speed>
</trkpt>
<trkpt lat="21.746094" lon="104.941254">
<ele>81.147522</ele>
<time>2011-04-28T11:26:54Z</time>
<desc>lat.=21.746094, lon.=104.941254, Alt.=81.147522m. Speed=1.188000m/h.</desc>
<speed>0.330000</speed>
</trkpt>
<trkpt lat="21.746084" lon="104.941246">
<ele>81.622131</ele>
<time>2011-04-28T11:26:59Z</time>
<desc>lat.=21.746084, lon.=104.941246, Alt.=81.622131m. Speed=0.972000m/h.</desc>
<speed>0.270000</speed>
</trkpt>
<trkpt lat="21.746092" lon="104.941246">
<ele>81.733459</ele>
<time>2011-04-28T11:27:04Z</time>
<desc>lat.=21.746092, lon.=104.941246, Alt.=81.733459m. Speed=0.756000m/h.</desc>
<speed>0.210000</speed>
</trkpt>
<trkpt lat="21.746092" lon="104.941254">
<ele>81.717834</ele>
<time>2011-04-28T11:27:09Z</time>
<desc>lat.=21.746092, lon.=104.941254, Alt.=81.717834m. Speed=0.432000m/h.</desc>
<speed>0.120000</speed>
</trkpt>
<trkpt lat="21.746111" lon="104.941254">
<ele>81.891663</ele>
<time>2011-04-28T11:27:14Z</time>
<desc>lat.=21.746111, lon.=104.941254, Alt.=81.891663m. Speed=1.188000m/h.</desc>
<speed>0.330000</speed>
</trkpt>
<trkpt lat="21.746111" lon="104.941261">
<ele>82.208069</ele>
<time>2011-04-28T11:27:19Z</time>
<desc>lat.=21.746111, lon.=104.941261, Alt.=82.208069m. Speed=0.684000m/h.</desc>
<speed>0.190000</speed>
</trkpt>
<trkpt lat="21.746111" lon="104.941261">
<ele>82.338928</ele>
<time>2011-04-28T11:27:24Z</time>
<desc>lat.=21.746111, lon.=104.941261, Alt.=82.338928m. Speed=0.540000m/h.</desc>
<speed>0.150000</speed>
</trkpt>
<trkpt lat="21.746124" lon="104.941254">
<ele>82.516663</ele>
<time>2011-04-28T11:27:29Z</time>
<desc>lat.=21.746124, lon.=104.941254, Alt.=82.516663m. Speed=0.504000m/h.</desc>
<speed>0.140000</speed>
</trkpt>
<trkpt lat="21.746134" lon="104.941246">
<ele>83.116272</ele>
<time>2011-04-28T11:27:34Z</time>
<desc>lat.=21.746134, lon.=104.941246, Alt.=83.116272m. Speed=0.468000m/h.</desc>
<speed>0.130000</speed>
</trkpt>
<trkpt lat="21.746145" lon="104.941246">
<ele>83.588928</ele>
<time>2011-04-28T11:27:39Z</time>
<desc>lat.=21.746145, lon.=104.941246, Alt.=83.588928m. Speed=0.576000m/h.</desc>
<speed>0.160000</speed>
</trkpt>
<trkpt lat="21.746134" lon="104.941238">
<ele>83.838928</ele>
<time>2011-04-28T11:27:44Z</time>
<desc>lat.=21.746134, lon.=104.941238, Alt.=83.838928m. Speed=0.396000m/h.</desc>
<speed>0.110000</speed>
</trkpt>
<trkpt lat="21.746128" lon="104.941238">
<ele>84.092834</ele>
<time>2011-04-28T11:27:49Z</time>
<desc>lat.=21.746128, lon.=104.941238, Alt.=84.092834m. Speed=0.252000m/h.</desc>
<speed>0.070000</speed>
</trkpt>
<trkpt lat="21.746155" lon="104.941231">
<ele>84.249084</ele>
<time>2011-04-28T11:27:54Z</time>
<desc>lat.=21.746155, lon.=104.941231, Alt.=84.249084m. Speed=0.648000m/h.</desc>
<speed>0.180000</speed>
</trkpt>
<trkpt lat="21.746157" lon="104.941231">
<ele>84.458069</ele>
<time>2011-04-28T11:27:59Z</time>
<desc>lat.=21.746157, lon.=104.941231, Alt.=84.458069m. Speed=0.468000m/h.</desc>
<speed>0.130000</speed>
</trkpt>
<trkpt lat="21.746145" lon="104.941231">
<ele>84.850647</ele>
<time>2011-04-28T11:28:04Z</time>
<desc>lat.=21.746145, lon.=104.941231, Alt.=84.850647m. Speed=0.360000m/h.</desc>
<speed>0.100000</speed>
</trkpt>
<trkpt lat="21.746124" lon="104.941246">
<ele>84.965881</ele>
<time>2011-04-28T11:28:09Z</time>
<desc>lat.=21.746124, lon.=104.941246, Alt.=84.965881m. Speed=0.180000m/h.</desc>
<speed>0.050000</speed>
</trkpt>
<trkpt lat="21.746098" lon="104.941261">
<ele>85.165100</ele>
<time>2011-04-28T11:28:14Z</time>
<desc>lat.=21.746098, lon.=104.941261, Alt.=85.165100m. Speed=0.468000m/h.</desc>
<speed>0.130000</speed>
</trkpt>
<trkpt lat="21.746086" lon="104.941269">
<ele>85.329163</ele>
<time>2011-04-28T11:28:19Z</time>
<desc>lat.=21.746086, lon.=104.941269, Alt.=85.329163m. Speed=0.396000m/h.</desc>
<speed>0.110000</speed>
</trkpt>
<trkpt lat="21.746075" lon="104.941277">
<ele>85.631897</ele>
<time>2011-04-28T11:28:24Z</time>
<desc>lat.=21.746075, lon.=104.941277, Alt.=85.631897m. Speed=0.468000m/h.</desc>
<speed>0.130000</speed>
</trkpt>
<trkpt lat="21.746084" lon="104.941269">
<ele>85.936584</ele>
<time>2011-04-28T11:28:29Z</time>
<desc>lat.=21.746084, lon.=104.941269, Alt.=85.936584m. Speed=0.324000m/h.</desc>
<speed>0.090000</speed>
</trkpt>
<trkpt lat="21.746098" lon="104.941254">
<ele>85.600647</ele>
<time>2011-04-28T11:28:34Z</time>
<desc>lat.=21.746098, lon.=104.941254, Alt.=85.600647m. Speed=0.036000m/h.</desc>
<speed>0.010000</speed>
</trkpt>
<trkpt lat="21.746088" lon="104.941277">
<ele>86.377991</ele>
<time>2011-04-28T11:28:39Z</time>
<desc>lat.=21.746088, lon.=104.941277, Alt.=86.377991m. Speed=0.036000m/h.</desc>
<speed>0.010000</speed>
</trkpt>
<trkpt lat="21.746077" lon="104.941292">
<ele>86.969788</ele>
<time>2011-04-28T11:28:44Z</time>
<desc>lat.=21.746077, lon.=104.941292, Alt.=86.969788m. Speed=0.000000m/h.</desc>
<speed>0.000000</speed>
</trkpt>
<trkpt lat="21.746082" lon="104.941292">
<ele>87.497131</ele>
<time>2011-04-28T11:28:49Z</time>
<desc>lat.=21.746082, lon.=104.941292, Alt.=87.497131m. Speed=0.072000m/h.</desc>
<speed>0.020000</speed>
</trkpt>
<trkpt lat="21.746080" lon="104.941284">
<ele>85.938538</ele>
<time>2011-04-28T11:28:54Z</time>
<desc>lat.=21.746080, lon.=104.941284, Alt.=85.938538m. Speed=0.000000m/h.</desc>
<speed>0.000000</speed>
</trkpt>
<trkpt lat="21.746080" lon="104.941284">
<ele>85.092834</ele>
<time>2011-04-28T11:28:59Z</time>
<desc>lat.=21.746080, lon.=104.941284, Alt.=85.092834m. Speed=0.000000m/h.</desc>
<speed>0.000000</speed>
</trkpt>
<trkpt lat="21.746080" lon="104.941277">
<ele>85.309631</ele>
<time>2011-04-28T11:29:04Z</time>
<desc>lat.=21.746080, lon.=104.941277, Alt.=85.309631m. Speed=0.036000m/h.</desc>
<speed>0.010000</speed>
</trkpt>
<trkpt lat="21.746078" lon="104.941277">
<ele>85.272522</ele>
<time>2011-04-28T11:29:09Z</time>
<desc>lat.=21.746078, lon.=104.941277, Alt.=85.272522m. Speed=0.000000m/h.</desc>
<speed>0.000000</speed>
</trkpt>
<trkpt lat="21.746077" lon="104.941269">
<ele>85.086975</ele>
<time>2011-04-28T11:29:14Z</time>
<desc>lat.=21.746077, lon.=104.941269, Alt.=85.086975m. Speed=0.000000m/h.</desc>
<speed>0.000000</speed>
</trkpt>
<trkpt lat="21.746077" lon="104.941269">
<ele>85.057678</ele>
<time>2011-04-28T11:29:19Z</time>
<desc>lat.=21.746077, lon.=104.941269, Alt.=85.057678m. Speed=0.000000m/h.</desc>
<speed>0.000000</speed>
</trkpt>
<trkpt lat="21.746082" lon="104.941261">
<ele>84.940491</ele>
<time>2011-04-28T11:29:24Z</time>
<desc>lat.=21.746082, lon.=104.941261, Alt.=84.940491m. Speed=0.036000m/h.</desc>
<speed>0.010000</speed>
</trkpt>
<trkpt lat="21.746117" lon="104.941246">
<ele>84.850647</ele>
<time>2011-04-28T11:29:29Z</time>
<desc>lat.=21.746117, lon.=104.941246, Alt.=84.850647m. Speed=0.360000m/h.</desc>
<speed>0.100000</speed>
</trkpt>
<trkpt lat="21.746159" lon="104.941231">
<ele>84.446350</ele>
<time>2011-04-28T11:29:34Z</time>
<desc>lat.=21.746159, lon.=104.941231, Alt.=84.446350m. Speed=0.756000m/h.</desc>
<speed>0.210000</speed>
</trkpt>
<trkpt lat="21.746174" lon="104.941223">
<ele>84.135803</ele>
<time>2011-04-28T11:29:39Z</time>
<desc>lat.=21.746174, lon.=104.941223, Alt.=84.135803m. Speed=0.864000m/h.</desc>
<speed>0.240000</speed>
</trkpt>
<trkpt lat="21.746180" lon="104.941223">
<ele>83.807678</ele>
<time>2011-04-28T11:29:44Z</time>
<desc>lat.=21.746180, lon.=104.941223, Alt.=83.807678m. Speed=0.720000m/h.</desc>
<speed>0.200000</speed>
</trkpt>
<trkpt lat="21.746191" lon="104.941216">
<ele>83.483459</ele>
<time>2011-04-28T11:29:49Z</time>
<desc>lat.=21.746191, lon.=104.941216, Alt.=83.483459m. Speed=0.756000m/h.</desc>
<speed>0.210000</speed>
</trkpt>
<trkpt lat="21.746195" lon="104.941208">
<ele>83.194397</ele>
<time>2011-04-28T11:29:54Z</time>
<desc>lat.=21.746195, lon.=104.941208, Alt.=83.194397m. Speed=0.720000m/h.</desc>
<speed>0.200000</speed>
</trkpt>
<trkpt lat="21.746197" lon="104.941200">
<ele>83.182678</ele>
<time>2011-04-28T11:29:59Z</time>
<desc>lat.=21.746197, lon.=104.941200, Alt.=83.182678m. Speed=0.684000m/h.</desc>
<speed>0.190000</speed>
</trkpt>
<trkpt lat="21.746140" lon="104.941208">
<ele>83.465881</ele>
<time>2011-04-28T11:30:04Z</time>
<desc>lat.=21.746140, lon.=104.941208, Alt.=83.465881m. Speed=0.252000m/h.</desc>
<speed>0.070000</speed>
</trkpt>
<trkpt lat="21.746126" lon="104.941223">
<ele>83.766663</ele>
<time>2011-04-28T11:30:09Z</time>
<desc>lat.=21.746126, lon.=104.941223, Alt.=83.766663m. Speed=0.072000m/h.</desc>
<speed>0.020000</speed>
</trkpt>
<trkpt lat="21.746086" lon="104.941277">
<ele>83.706116</ele>
<time>2011-04-28T11:30:14Z</time>
<desc>lat.=21.746086, lon.=104.941277, Alt.=83.706116m. Speed=0.396000m/h.</desc>
<speed>0.110000</speed>
</trkpt>
<trkpt lat="21.746054" lon="104.941299">
<ele>84.362366</ele>
<time>2011-04-28T11:30:19Z</time>
<desc>lat.=21.746054, lon.=104.941299, Alt.=84.362366m. Speed=0.504000m/h.</desc>
<speed>0.140000</speed>
</trkpt>
<trkpt lat="21.746046" lon="104.941284">
<ele>84.251038</ele>
<time>2011-04-28T11:30:24Z</time>
<desc>lat.=21.746046, lon.=104.941284, Alt.=84.251038m. Speed=0.432000m/h.</desc>
<speed>0.120000</speed>
</trkpt>
<trkpt lat="21.746058" lon="104.941299">
<ele>84.397522</ele>
<time>2011-04-28T11:30:29Z</time>
<desc>lat.=21.746058, lon.=104.941299, Alt.=84.397522m. Speed=0.360000m/h.</desc>
<speed>0.100000</speed>
</trkpt>
<trkpt lat="21.746140" lon="104.941383">
<ele>81.528381</ele>
<time>2011-04-28T11:30:34Z</time>
<desc>lat.=21.746140, lon.=104.941383, Alt.=81.528381m. Speed=1.800000m/h.</desc>
<speed>0.500000</speed>
</trkpt>
<trkpt lat="21.746181" lon="104.941383">
<ele>81.012756</ele>
<time>2011-04-28T11:30:39Z</time>
<desc>lat.=21.746181, lon.=104.941383, Alt.=81.012756m. Speed=1.224000m/h.</desc>
<speed>0.340000</speed>
</trkpt>
<trkpt lat="21.746185" lon="104.941391">
<ele>80.637756</ele>
<time>2011-04-28T11:30:44Z</time>
<desc>lat.=21.746185, lon.=104.941391, Alt.=80.637756m. Speed=0.216000m/h.</desc>
<speed>0.060000</speed>
</trkpt>
<trkpt lat="21.746189" lon="104.941391">
<ele>80.104553</ele>
<time>2011-04-28T11:30:49Z</time>
<desc>lat.=21.746189, lon.=104.941391, Alt.=80.104553m. Speed=0.216000m/h.</desc>
<speed>0.060000</speed>
</trkpt>
<trkpt lat="21.746204" lon="104.941383">
<ele>79.971741</ele>
<time>2011-04-28T11:30:54Z</time>
<desc>lat.=21.746204, lon.=104.941383, Alt.=79.971741m. Speed=0.684000m/h.</desc>
<speed>0.190000</speed>
</trkpt>
<trkpt lat="21.746235" lon="104.941368">
<ele>79.452209</ele>
<time>2011-04-28T11:30:59Z</time>
<desc>lat.=21.746235, lon.=104.941368, Alt.=79.452209m. Speed=2.448000m/h.</desc>
<speed>0.680000</speed>
</trkpt>
<trkpt lat="21.746244" lon="104.941345">
<ele>79.426819</ele>
<time>2011-04-28T11:31:04Z</time>
<desc>lat.=21.746244, lon.=104.941345, Alt.=79.426819m. Speed=1.404000m/h.</desc>
<speed>0.390000</speed>
</trkpt>
<trkpt lat="21.746239" lon="104.941345">
<ele>79.641663</ele>
<time>2011-04-28T11:31:09Z</time>
<desc>lat.=21.746239, lon.=104.941345, Alt.=79.641663m. Speed=0.144000m/h.</desc>
<speed>0.040000</speed>
</trkpt>
<trkpt lat="21.746231" lon="104.941338">
<ele>79.571350</ele>
<time>2011-04-28T11:31:14Z</time>
<desc>lat.=21.746231, lon.=104.941338, Alt.=79.571350m. Speed=0.324000m/h.</desc>
<speed>0.090000</speed>
</trkpt>
<trkpt lat="21.746229" lon="104.941338">
<ele>79.377991</ele>
<time>2011-04-28T11:31:19Z</time>
<desc>lat.=21.746229, lon.=104.941338, Alt.=79.377991m. Speed=0.324000m/h.</desc>
<speed>0.090000</speed>
</trkpt>
<trkpt lat="21.746229" lon="104.941338">
<ele>79.114319</ele>
<time>2011-04-28T11:31:24Z</time>
<desc>lat.=21.746229, lon.=104.941338, Alt.=79.114319m. Speed=0.324000m/h.</desc>
<speed>0.090000</speed>
</trkpt>
</trkseg>
</trk>
</gpx>